<?xml version="1.0" encoding="UTF-8" standalone="no" ?>
<gpx xmlns="http://www.topografix.com/GPX/1/1" xmlns:xsi="http://www.w3.org/2001/XMLSchema-instance" xsi:schemaLocation="http://www.topografix.com/GPX/1/1 http://www.topografix.com/GPX/1/1/gpx.xsd" version="1.1" creator="VisuGPX - https://www.visugpx.com">
  <metadata>
    <name>Sortie VTT le matin</name>
  </metadata>
  <trk>
    <name><![CDATA[Sortie VTT le matin_1]]></name>
    <trkseg>
      <trkpt lat="42.72379" lon="1.83373">
        <ele>704.6</ele>
        <time>2024-06-30T05:42:41Z</time>
      </trkpt>
      <trkpt lat="42.72374" lon="1.8338">
        <ele>708.2</ele>
        <time>2024-06-30T05:42:43Z</time>
      </trkpt>
      <trkpt lat="42.72372" lon="1.83384">
        <ele>708.2</ele>
        <time>2024-06-30T05:42:44Z</time>
      </trkpt>
      <trkpt lat="42.72368" lon="1.83389">
        <ele>708.4</ele>
        <time>2024-06-30T05:42:45Z</time>
      </trkpt>
      <trkpt lat="42.72366" lon="1.83392">
        <ele>708.4</ele>
        <time>2024-06-30T05:42:46Z</time>
      </trkpt>
      <trkpt lat="42.72357" lon="1.83404">
        <ele>708.6</ele>
        <time>2024-06-30T05:42:50Z</time>
      </trkpt>
      <trkpt lat="42.72346" lon="1.8343">
        <ele>708.4</ele>
        <time>2024-06-30T05:42:55Z</time>
      </trkpt>
      <trkpt lat="42.72345" lon="1.83433">
        <ele>708.4</ele>
        <time>2024-06-30T05:42:56Z</time>
      </trkpt>
      <trkpt lat="42.72344" lon="1.83437">
        <ele>708.4</ele>
        <time>2024-06-30T05:42:57Z</time>
      </trkpt>
      <trkpt lat="42.72341" lon="1.83444">
        <ele>708.4</ele>
        <time>2024-06-30T05:42:58Z</time>
      </trkpt>
      <trkpt lat="42.72336" lon="1.83455">
        <ele>708.4</ele>
        <time>2024-06-30T05:43:00Z</time>
      </trkpt>
      <trkpt lat="42.72331" lon="1.83467">
        <ele>708.6</ele>
        <time>2024-06-30T05:43:02Z</time>
      </trkpt>
      <trkpt lat="42.72328" lon="1.83473">
        <ele>708.6</ele>
        <time>2024-06-30T05:43:03Z</time>
      </trkpt>
      <trkpt lat="42.72326" lon="1.83478">
        <ele>708.6</ele>
        <time>2024-06-30T05:43:04Z</time>
      </trkpt>
      <trkpt lat="42.72322" lon="1.83483">
        <ele>708.6</ele>
        <time>2024-06-30T05:43:05Z</time>
      </trkpt>
      <trkpt lat="42.72319" lon="1.83488">
        <ele>708.6</ele>
        <time>2024-06-30T05:43:06Z</time>
      </trkpt>
      <trkpt lat="42.72302" lon="1.83516">
        <ele>709</ele>
        <time>2024-06-30T05:43:12Z</time>
      </trkpt>
      <trkpt lat="42.72295" lon="1.83527">
        <ele>709.2</ele>
        <time>2024-06-30T05:43:14Z</time>
      </trkpt>
      <trkpt lat="42.72281" lon="1.83551">
        <ele>709.8</ele>
        <time>2024-06-30T05:43:19Z</time>
      </trkpt>
      <trkpt lat="42.72275" lon="1.8356">
        <ele>710</ele>
        <time>2024-06-30T05:43:21Z</time>
      </trkpt>
      <trkpt lat="42.72272" lon="1.83564">
        <ele>710.2</ele>
        <time>2024-06-30T05:43:22Z</time>
      </trkpt>
      <trkpt lat="42.72268" lon="1.83572">
        <ele>710.4</ele>
        <time>2024-06-30T05:43:24Z</time>
      </trkpt>
      <trkpt lat="42.72266" lon="1.83575">
        <ele>710.4</ele>
        <time>2024-06-30T05:43:25Z</time>
      </trkpt>
      <trkpt lat="42.72264" lon="1.83579">
        <ele>710.4</ele>
        <time>2024-06-30T05:43:26Z</time>
      </trkpt>
      <trkpt lat="42.72258" lon="1.83587">
        <ele>710.6</ele>
        <time>2024-06-30T05:43:28Z</time>
      </trkpt>
      <trkpt lat="42.72256" lon="1.83591">
        <ele>711</ele>
        <time>2024-06-30T05:43:29Z</time>
      </trkpt>
      <trkpt lat="42.72248" lon="1.83605">
        <ele>711.6</ele>
        <time>2024-06-30T05:43:32Z</time>
      </trkpt>
      <trkpt lat="42.72246" lon="1.83609">
        <ele>711.8</ele>
        <time>2024-06-30T05:43:33Z</time>
      </trkpt>
      <trkpt lat="42.72241" lon="1.83618">
        <ele>712</ele>
        <time>2024-06-30T05:43:35Z</time>
      </trkpt>
      <trkpt lat="42.72238" lon="1.83622">
        <ele>712.4</ele>
        <time>2024-06-30T05:43:36Z</time>
      </trkpt>
      <trkpt lat="42.72235" lon="1.83627">
        <ele>712.6</ele>
        <time>2024-06-30T05:43:37Z</time>
      </trkpt>
      <trkpt lat="42.72232" lon="1.83631">
        <ele>712.8</ele>
        <time>2024-06-30T05:43:38Z</time>
      </trkpt>
      <trkpt lat="42.72228" lon="1.83636">
        <ele>712.8</ele>
        <time>2024-06-30T05:43:39Z</time>
      </trkpt>
      <trkpt lat="42.72225" lon="1.83641">
        <ele>713</ele>
        <time>2024-06-30T05:43:40Z</time>
      </trkpt>
      <trkpt lat="42.72222" lon="1.83646">
        <ele>713</ele>
        <time>2024-06-30T05:43:41Z</time>
      </trkpt>
      <trkpt lat="42.72219" lon="1.83651">
        <ele>713</ele>
        <time>2024-06-30T05:43:42Z</time>
      </trkpt>
      <trkpt lat="42.72216" lon="1.83656">
        <ele>713.2</ele>
        <time>2024-06-30T05:43:43Z</time>
      </trkpt>
      <trkpt lat="42.72213" lon="1.83662">
        <ele>713.2</ele>
        <time>2024-06-30T05:43:44Z</time>
      </trkpt>
      <trkpt lat="42.7221" lon="1.83667">
        <ele>713.2</ele>
        <time>2024-06-30T05:43:45Z</time>
      </trkpt>
      <trkpt lat="42.72207" lon="1.83672">
        <ele>713.4</ele>
        <time>2024-06-30T05:43:46Z</time>
      </trkpt>
      <trkpt lat="42.72204" lon="1.83677">
        <ele>713.4</ele>
        <time>2024-06-30T05:43:47Z</time>
      </trkpt>
      <trkpt lat="42.72201" lon="1.83682">
        <ele>713.6</ele>
        <time>2024-06-30T05:43:48Z</time>
      </trkpt>
      <trkpt lat="42.72198" lon="1.83687">
        <ele>713.6</ele>
        <time>2024-06-30T05:43:49Z</time>
      </trkpt>
      <trkpt lat="42.72195" lon="1.83692">
        <ele>713.6</ele>
        <time>2024-06-30T05:43:50Z</time>
      </trkpt>
      <trkpt lat="42.72191" lon="1.83698">
        <ele>713.6</ele>
        <time>2024-06-30T05:43:51Z</time>
      </trkpt>
      <trkpt lat="42.72188" lon="1.83703">
        <ele>713.8</ele>
        <time>2024-06-30T05:43:52Z</time>
      </trkpt>
      <trkpt lat="42.72185" lon="1.83709">
        <ele>713.8</ele>
        <time>2024-06-30T05:43:53Z</time>
      </trkpt>
      <trkpt lat="42.72181" lon="1.83714">
        <ele>713.8</ele>
        <time>2024-06-30T05:43:54Z</time>
      </trkpt>
      <trkpt lat="42.72178" lon="1.83719">
        <ele>713.8</ele>
        <time>2024-06-30T05:43:55Z</time>
      </trkpt>
      <trkpt lat="42.72175" lon="1.83723">
        <ele>714</ele>
        <time>2024-06-30T05:43:56Z</time>
      </trkpt>
      <trkpt lat="42.72172" lon="1.83728">
        <ele>714</ele>
        <time>2024-06-30T05:43:57Z</time>
      </trkpt>
      <trkpt lat="42.72169" lon="1.83733">
        <ele>714</ele>
        <time>2024-06-30T05:43:58Z</time>
      </trkpt>
      <trkpt lat="42.72166" lon="1.83737">
        <ele>714.2</ele>
        <time>2024-06-30T05:43:59Z</time>
      </trkpt>
      <trkpt lat="42.72151" lon="1.83762">
        <ele>714.8</ele>
        <time>2024-06-30T05:44:04Z</time>
      </trkpt>
      <trkpt lat="42.72149" lon="1.83765">
        <ele>715</ele>
        <time>2024-06-30T05:44:05Z</time>
      </trkpt>
      <trkpt lat="42.72146" lon="1.83769">
        <ele>715</ele>
        <time>2024-06-30T05:44:06Z</time>
      </trkpt>
      <trkpt lat="42.72144" lon="1.83773">
        <ele>715.2</ele>
        <time>2024-06-30T05:44:07Z</time>
      </trkpt>
      <trkpt lat="42.72141" lon="1.83777">
        <ele>715.6</ele>
        <time>2024-06-30T05:44:08Z</time>
      </trkpt>
      <trkpt lat="42.72133" lon="1.8379">
        <ele>715.8</ele>
        <time>2024-06-30T05:44:11Z</time>
      </trkpt>
      <trkpt lat="42.7213" lon="1.83795">
        <ele>716</ele>
        <time>2024-06-30T05:44:12Z</time>
      </trkpt>
      <trkpt lat="42.72128" lon="1.83799">
        <ele>716</ele>
        <time>2024-06-30T05:44:13Z</time>
      </trkpt>
      <trkpt lat="42.72125" lon="1.83804">
        <ele>716.4</ele>
        <time>2024-06-30T05:44:14Z</time>
      </trkpt>
      <trkpt lat="42.72123" lon="1.83808">
        <ele>716.6</ele>
        <time>2024-06-30T05:44:15Z</time>
      </trkpt>
      <trkpt lat="42.72121" lon="1.83813">
        <ele>716.8</ele>
        <time>2024-06-30T05:44:16Z</time>
      </trkpt>
      <trkpt lat="42.72119" lon="1.83817">
        <ele>716.8</ele>
        <time>2024-06-30T05:44:17Z</time>
      </trkpt>
      <trkpt lat="42.72117" lon="1.83821">
        <ele>717</ele>
        <time>2024-06-30T05:44:18Z</time>
      </trkpt>
      <trkpt lat="42.72115" lon="1.83826">
        <ele>717.2</ele>
        <time>2024-06-30T05:44:19Z</time>
      </trkpt>
      <trkpt lat="42.72113" lon="1.8383">
        <ele>717.4</ele>
        <time>2024-06-30T05:44:20Z</time>
      </trkpt>
      <trkpt lat="42.72111" lon="1.83835">
        <ele>717.8</ele>
        <time>2024-06-30T05:44:21Z</time>
      </trkpt>
      <trkpt lat="42.7211" lon="1.83841">
        <ele>718</ele>
        <time>2024-06-30T05:44:22Z</time>
      </trkpt>
      <trkpt lat="42.72108" lon="1.83845">
        <ele>718.2</ele>
        <time>2024-06-30T05:44:23Z</time>
      </trkpt>
      <trkpt lat="42.72106" lon="1.83849">
        <ele>718.4</ele>
        <time>2024-06-30T05:44:24Z</time>
      </trkpt>
      <trkpt lat="42.72104" lon="1.83853">
        <ele>718.6</ele>
        <time>2024-06-30T05:44:25Z</time>
      </trkpt>
      <trkpt lat="42.72102" lon="1.83857">
        <ele>718.8</ele>
        <time>2024-06-30T05:44:26Z</time>
      </trkpt>
      <trkpt lat="42.721" lon="1.83861">
        <ele>719</ele>
        <time>2024-06-30T05:44:27Z</time>
      </trkpt>
      <trkpt lat="42.72098" lon="1.83865">
        <ele>719.2</ele>
        <time>2024-06-30T05:44:28Z</time>
      </trkpt>
      <trkpt lat="42.72097" lon="1.83869">
        <ele>719.4</ele>
        <time>2024-06-30T05:44:29Z</time>
      </trkpt>
      <trkpt lat="42.72095" lon="1.83872">
        <ele>719.6</ele>
        <time>2024-06-30T05:44:30Z</time>
      </trkpt>
      <trkpt lat="42.72093" lon="1.83876">
        <ele>719.8</ele>
        <time>2024-06-30T05:44:31Z</time>
      </trkpt>
      <trkpt lat="42.72092" lon="1.8388">
        <ele>719.8</ele>
        <time>2024-06-30T05:44:32Z</time>
      </trkpt>
      <trkpt lat="42.7209" lon="1.83884">
        <ele>720</ele>
        <time>2024-06-30T05:44:33Z</time>
      </trkpt>
      <trkpt lat="42.72089" lon="1.83888">
        <ele>720.2</ele>
        <time>2024-06-30T05:44:34Z</time>
      </trkpt>
      <trkpt lat="42.72087" lon="1.83892">
        <ele>720.2</ele>
        <time>2024-06-30T05:44:35Z</time>
      </trkpt>
      <trkpt lat="42.72085" lon="1.83897">
        <ele>720.4</ele>
        <time>2024-06-30T05:44:36Z</time>
      </trkpt>
      <trkpt lat="42.72083" lon="1.839">
        <ele>720.8</ele>
        <time>2024-06-30T05:44:37Z</time>
      </trkpt>
      <trkpt lat="42.72081" lon="1.83904">
        <ele>720.8</ele>
        <time>2024-06-30T05:44:38Z</time>
      </trkpt>
      <trkpt lat="42.72078" lon="1.83908">
        <ele>721.2</ele>
        <time>2024-06-30T05:44:39Z</time>
      </trkpt>
      <trkpt lat="42.72076" lon="1.83912">
        <ele>721.2</ele>
        <time>2024-06-30T05:44:40Z</time>
      </trkpt>
      <trkpt lat="42.72075" lon="1.83916">
        <ele>721.2</ele>
        <time>2024-06-30T05:44:41Z</time>
      </trkpt>
      <trkpt lat="42.72073" lon="1.8392">
        <ele>721.4</ele>
        <time>2024-06-30T05:44:42Z</time>
      </trkpt>
      <trkpt lat="42.72071" lon="1.83924">
        <ele>721.6</ele>
        <time>2024-06-30T05:44:43Z</time>
      </trkpt>
      <trkpt lat="42.72069" lon="1.83928">
        <ele>721.8</ele>
        <time>2024-06-30T05:44:44Z</time>
      </trkpt>
      <trkpt lat="42.72067" lon="1.83932">
        <ele>721.8</ele>
        <time>2024-06-30T05:44:45Z</time>
      </trkpt>
      <trkpt lat="42.72065" lon="1.83935">
        <ele>722</ele>
        <time>2024-06-30T05:44:46Z</time>
      </trkpt>
      <trkpt lat="42.72063" lon="1.83939">
        <ele>722.4</ele>
        <time>2024-06-30T05:44:47Z</time>
      </trkpt>
      <trkpt lat="42.72061" lon="1.83943">
        <ele>722.6</ele>
        <time>2024-06-30T05:44:48Z</time>
      </trkpt>
      <trkpt lat="42.7206" lon="1.83946">
        <ele>723</ele>
        <time>2024-06-30T05:44:49Z</time>
      </trkpt>
      <trkpt lat="42.72058" lon="1.8395">
        <ele>723.2</ele>
        <time>2024-06-30T05:44:50Z</time>
      </trkpt>
      <trkpt lat="42.72057" lon="1.83953">
        <ele>723.4</ele>
        <time>2024-06-30T05:44:51Z</time>
      </trkpt>
      <trkpt lat="42.72056" lon="1.83957">
        <ele>723.6</ele>
        <time>2024-06-30T05:44:52Z</time>
      </trkpt>
      <trkpt lat="42.72056" lon="1.83962">
        <ele>724</ele>
        <time>2024-06-30T05:44:53Z</time>
      </trkpt>
      <trkpt lat="42.72057" lon="1.83965">
        <ele>724</ele>
        <time>2024-06-30T05:44:54Z</time>
      </trkpt>
      <trkpt lat="42.72057" lon="1.83968">
        <ele>724.2</ele>
        <time>2024-06-30T05:44:55Z</time>
      </trkpt>
      <trkpt lat="42.7206" lon="1.83972">
        <ele>724.6</ele>
        <time>2024-06-30T05:44:56Z</time>
      </trkpt>
      <trkpt lat="42.72062" lon="1.83975">
        <ele>724.8</ele>
        <time>2024-06-30T05:44:57Z</time>
      </trkpt>
      <trkpt lat="42.72063" lon="1.83978">
        <ele>725</ele>
        <time>2024-06-30T05:44:58Z</time>
      </trkpt>
      <trkpt lat="42.72065" lon="1.83981">
        <ele>725.2</ele>
        <time>2024-06-30T05:44:59Z</time>
      </trkpt>
      <trkpt lat="42.72067" lon="1.83984">
        <ele>725.4</ele>
        <time>2024-06-30T05:45:00Z</time>
      </trkpt>
      <trkpt lat="42.72069" lon="1.83988">
        <ele>725.4</ele>
        <time>2024-06-30T05:45:01Z</time>
      </trkpt>
      <trkpt lat="42.72072" lon="1.83993">
        <ele>725.8</ele>
        <time>2024-06-30T05:45:02Z</time>
      </trkpt>
      <trkpt lat="42.72073" lon="1.83996">
        <ele>726</ele>
        <time>2024-06-30T05:45:03Z</time>
      </trkpt>
      <trkpt lat="42.72075" lon="1.84">
        <ele>726</ele>
        <time>2024-06-30T05:45:04Z</time>
      </trkpt>
      <trkpt lat="42.72077" lon="1.84006">
        <ele>726.2</ele>
        <time>2024-06-30T05:45:05Z</time>
      </trkpt>
      <trkpt lat="42.72078" lon="1.8401">
        <ele>726.2</ele>
        <time>2024-06-30T05:45:06Z</time>
      </trkpt>
      <trkpt lat="42.72078" lon="1.84015">
        <ele>726.2</ele>
        <time>2024-06-30T05:45:07Z</time>
      </trkpt>
      <trkpt lat="42.72079" lon="1.8402">
        <ele>726.4</ele>
        <time>2024-06-30T05:45:08Z</time>
      </trkpt>
      <trkpt lat="42.72079" lon="1.84024">
        <ele>726.6</ele>
        <time>2024-06-30T05:45:09Z</time>
      </trkpt>
      <trkpt lat="42.72079" lon="1.84028">
        <ele>726.6</ele>
        <time>2024-06-30T05:45:10Z</time>
      </trkpt>
      <trkpt lat="42.72079" lon="1.84032">
        <ele>726.8</ele>
        <time>2024-06-30T05:45:11Z</time>
      </trkpt>
      <trkpt lat="42.7208" lon="1.84036">
        <ele>727</ele>
        <time>2024-06-30T05:45:12Z</time>
      </trkpt>
      <trkpt lat="42.7208" lon="1.84039">
        <ele>727.2</ele>
        <time>2024-06-30T05:45:13Z</time>
      </trkpt>
      <trkpt lat="42.72081" lon="1.84043">
        <ele>727.4</ele>
        <time>2024-06-30T05:45:14Z</time>
      </trkpt>
      <trkpt lat="42.72081" lon="1.84047">
        <ele>727.4</ele>
        <time>2024-06-30T05:45:15Z</time>
      </trkpt>
      <trkpt lat="42.72082" lon="1.84051">
        <ele>727.6</ele>
        <time>2024-06-30T05:45:16Z</time>
      </trkpt>
      <trkpt lat="42.72083" lon="1.84053">
        <ele>727.6</ele>
        <time>2024-06-30T05:45:17Z</time>
      </trkpt>
      <trkpt lat="42.72084" lon="1.84057">
        <ele>727.8</ele>
        <time>2024-06-30T05:45:18Z</time>
      </trkpt>
      <trkpt lat="42.72085" lon="1.8406">
        <ele>728.2</ele>
        <time>2024-06-30T05:45:19Z</time>
      </trkpt>
      <trkpt lat="42.72086" lon="1.84064">
        <ele>728.2</ele>
        <time>2024-06-30T05:45:20Z</time>
      </trkpt>
      <trkpt lat="42.72086" lon="1.84067">
        <ele>728.4</ele>
        <time>2024-06-30T05:45:21Z</time>
      </trkpt>
      <trkpt lat="42.72087" lon="1.8407">
        <ele>728.6</ele>
        <time>2024-06-30T05:45:22Z</time>
      </trkpt>
      <trkpt lat="42.72087" lon="1.84073">
        <ele>728.6</ele>
        <time>2024-06-30T05:45:23Z</time>
      </trkpt>
      <trkpt lat="42.72088" lon="1.84075">
        <ele>728.8</ele>
        <time>2024-06-30T05:45:24Z</time>
      </trkpt>
      <trkpt lat="42.72088" lon="1.84078">
        <ele>729</ele>
        <time>2024-06-30T05:45:25Z</time>
      </trkpt>
      <trkpt lat="42.72088" lon="1.84079">
        <ele>729</ele>
        <time>2024-06-30T05:45:26Z</time>
      </trkpt>
      <trkpt lat="42.72088" lon="1.84081">
        <ele>729</ele>
        <time>2024-06-30T05:45:27Z</time>
      </trkpt>
      <trkpt lat="42.72088" lon="1.84082">
        <ele>729.2</ele>
        <time>2024-06-30T05:45:28Z</time>
      </trkpt>
      <trkpt lat="42.72088" lon="1.84083">
        <ele>729.2</ele>
        <time>2024-06-30T05:45:29Z</time>
      </trkpt>
      <trkpt lat="42.72087" lon="1.84084">
        <ele>729.2</ele>
        <time>2024-06-30T05:45:30Z</time>
      </trkpt>
      <trkpt lat="42.72087" lon="1.84085">
        <ele>729.2</ele>
        <time>2024-06-30T05:45:31Z</time>
      </trkpt>
      <trkpt lat="42.72086" lon="1.84085">
        <ele>729.2</ele>
        <time>2024-06-30T05:45:32Z</time>
      </trkpt>
      <trkpt lat="42.72085" lon="1.84088">
        <ele>729.4</ele>
        <time>2024-06-30T05:45:33Z</time>
      </trkpt>
      <trkpt lat="42.72084" lon="1.84091">
        <ele>729.4</ele>
        <time>2024-06-30T05:45:34Z</time>
      </trkpt>
      <trkpt lat="42.72083" lon="1.84093">
        <ele>729.4</ele>
        <time>2024-06-30T05:45:35Z</time>
      </trkpt>
      <trkpt lat="42.72083" lon="1.84095">
        <ele>729.4</ele>
        <time>2024-06-30T05:45:36Z</time>
      </trkpt>
      <trkpt lat="42.72082" lon="1.84097">
        <ele>729.4</ele>
        <time>2024-06-30T05:45:37Z</time>
      </trkpt>
      <trkpt lat="42.72082" lon="1.84099">
        <ele>729.4</ele>
        <time>2024-06-30T05:45:38Z</time>
      </trkpt>
      <trkpt lat="42.72081" lon="1.84101">
        <ele>729.6</ele>
        <time>2024-06-30T05:45:39Z</time>
      </trkpt>
      <trkpt lat="42.7208" lon="1.84103">
        <ele>729.6</ele>
        <time>2024-06-30T05:45:40Z</time>
      </trkpt>
      <trkpt lat="42.72078" lon="1.84104">
        <ele>729.8</ele>
        <time>2024-06-30T05:45:41Z</time>
      </trkpt>
      <trkpt lat="42.72076" lon="1.84106">
        <ele>729.8</ele>
        <time>2024-06-30T05:45:42Z</time>
      </trkpt>
      <trkpt lat="42.72074" lon="1.84106">
        <ele>730</ele>
        <time>2024-06-30T05:45:43Z</time>
      </trkpt>
      <trkpt lat="42.72073" lon="1.84107">
        <ele>730</ele>
        <time>2024-06-30T05:45:44Z</time>
      </trkpt>
      <trkpt lat="42.72073" lon="1.84108">
        <ele>730.2</ele>
        <time>2024-06-30T05:45:45Z</time>
      </trkpt>
      <trkpt lat="42.72072" lon="1.8411">
        <ele>730.2</ele>
        <time>2024-06-30T05:45:46Z</time>
      </trkpt>
      <trkpt lat="42.72072" lon="1.84111">
        <ele>730.4</ele>
        <time>2024-06-30T05:45:47Z</time>
      </trkpt>
      <trkpt lat="42.72071" lon="1.84112">
        <ele>730.8</ele>
        <time>2024-06-30T05:45:48Z</time>
      </trkpt>
      <trkpt lat="42.72071" lon="1.84112">
        <ele>731</ele>
        <time>2024-06-30T05:45:49Z</time>
      </trkpt>
      <trkpt lat="42.72071" lon="1.84112">
        <ele>731.2</ele>
        <time>2024-06-30T05:45:50Z</time>
      </trkpt>
      <trkpt lat="42.72071" lon="1.84112">
        <ele>731.2</ele>
        <time>2024-06-30T05:45:51Z</time>
      </trkpt>
      <trkpt lat="42.7207" lon="1.84117">
        <ele>730.2</ele>
        <time>2024-06-30T05:54:19Z</time>
      </trkpt>
      <trkpt lat="42.72069" lon="1.84119">
        <ele>730.2</ele>
        <time>2024-06-30T05:54:20Z</time>
      </trkpt>
      <trkpt lat="42.72067" lon="1.8412">
        <ele>730.2</ele>
        <time>2024-06-30T05:54:21Z</time>
      </trkpt>
      <trkpt lat="42.72066" lon="1.8412">
        <ele>730.4</ele>
        <time>2024-06-30T05:54:22Z</time>
      </trkpt>
      <trkpt lat="42.72065" lon="1.84119">
        <ele>730.4</ele>
        <time>2024-06-30T05:54:23Z</time>
      </trkpt>
      <trkpt lat="42.72065" lon="1.84117">
        <ele>730.4</ele>
        <time>2024-06-30T05:54:24Z</time>
      </trkpt>
      <trkpt lat="42.72069" lon="1.84109">
        <ele>730.6</ele>
        <time>2024-06-30T05:54:27Z</time>
      </trkpt>
      <trkpt lat="42.7207" lon="1.84105">
        <ele>730.6</ele>
        <time>2024-06-30T05:54:28Z</time>
      </trkpt>
      <trkpt lat="42.72071" lon="1.84101">
        <ele>730.6</ele>
        <time>2024-06-30T05:54:29Z</time>
      </trkpt>
      <trkpt lat="42.72074" lon="1.84088">
        <ele>730.6</ele>
        <time>2024-06-30T05:54:32Z</time>
      </trkpt>
      <trkpt lat="42.72076" lon="1.84079">
        <ele>730.6</ele>
        <time>2024-06-30T05:54:34Z</time>
      </trkpt>
      <trkpt lat="42.72081" lon="1.84062">
        <ele>730.4</ele>
        <time>2024-06-30T05:54:38Z</time>
      </trkpt>
      <trkpt lat="42.72084" lon="1.84035">
        <ele>729.4</ele>
        <time>2024-06-30T05:54:43Z</time>
      </trkpt>
      <trkpt lat="42.72085" lon="1.84017">
        <ele>729</ele>
        <time>2024-06-30T05:54:46Z</time>
      </trkpt>
      <trkpt lat="42.72084" lon="1.83999">
        <ele>728.2</ele>
        <time>2024-06-30T05:54:49Z</time>
      </trkpt>
      <trkpt lat="42.72084" lon="1.83993">
        <ele>727.6</ele>
        <time>2024-06-30T05:54:50Z</time>
      </trkpt>
      <trkpt lat="42.72081" lon="1.83986">
        <ele>727.6</ele>
        <time>2024-06-30T05:54:51Z</time>
      </trkpt>
      <trkpt lat="42.72077" lon="1.83977">
        <ele>727.2</ele>
        <time>2024-06-30T05:54:53Z</time>
      </trkpt>
      <trkpt lat="42.72076" lon="1.83974">
        <ele>726.8</ele>
        <time>2024-06-30T05:54:54Z</time>
      </trkpt>
      <trkpt lat="42.72074" lon="1.83971">
        <ele>726.6</ele>
        <time>2024-06-30T05:54:55Z</time>
      </trkpt>
      <trkpt lat="42.72073" lon="1.83969">
        <ele>726.4</ele>
        <time>2024-06-30T05:54:56Z</time>
      </trkpt>
      <trkpt lat="42.72072" lon="1.83966">
        <ele>726.2</ele>
        <time>2024-06-30T05:54:57Z</time>
      </trkpt>
      <trkpt lat="42.7207" lon="1.83965">
        <ele>726</ele>
        <time>2024-06-30T05:54:58Z</time>
      </trkpt>
      <trkpt lat="42.72068" lon="1.83964">
        <ele>725.8</ele>
        <time>2024-06-30T05:54:59Z</time>
      </trkpt>
      <trkpt lat="42.72065" lon="1.83962">
        <ele>725.6</ele>
        <time>2024-06-30T05:55:00Z</time>
      </trkpt>
      <trkpt lat="42.72064" lon="1.83961">
        <ele>725.6</ele>
        <time>2024-06-30T05:55:01Z</time>
      </trkpt>
      <trkpt lat="42.72063" lon="1.8396">
        <ele>725.6</ele>
        <time>2024-06-30T05:55:02Z</time>
      </trkpt>
      <trkpt lat="42.72063" lon="1.83959">
        <ele>725.4</ele>
        <time>2024-06-30T05:55:03Z</time>
      </trkpt>
      <trkpt lat="42.72063" lon="1.83959">
        <ele>725.4</ele>
        <time>2024-06-30T05:55:04Z</time>
      </trkpt>
      <trkpt lat="42.72062" lon="1.83959">
        <ele>725</ele>
        <time>2024-06-30T05:55:05Z</time>
      </trkpt>
      <trkpt lat="42.72062" lon="1.83958">
        <ele>725</ele>
        <time>2024-06-30T05:55:06Z</time>
      </trkpt>
      <trkpt lat="42.72062" lon="1.83957">
        <ele>725</ele>
        <time>2024-06-30T05:55:07Z</time>
      </trkpt>
      <trkpt lat="42.72062" lon="1.83955">
        <ele>724.8</ele>
        <time>2024-06-30T05:55:08Z</time>
      </trkpt>
      <trkpt lat="42.72064" lon="1.83953">
        <ele>724.8</ele>
        <time>2024-06-30T05:55:09Z</time>
      </trkpt>
      <trkpt lat="42.72066" lon="1.83949">
        <ele>724.6</ele>
        <time>2024-06-30T05:55:10Z</time>
      </trkpt>
      <trkpt lat="42.72071" lon="1.83941">
        <ele>724.6</ele>
        <time>2024-06-30T05:55:12Z</time>
      </trkpt>
      <trkpt lat="42.72073" lon="1.83936">
        <ele>724.6</ele>
        <time>2024-06-30T05:55:13Z</time>
      </trkpt>
      <trkpt lat="42.72076" lon="1.83932">
        <ele>724.6</ele>
        <time>2024-06-30T05:55:14Z</time>
      </trkpt>
      <trkpt lat="42.72079" lon="1.83926">
        <ele>724.4</ele>
        <time>2024-06-30T05:55:15Z</time>
      </trkpt>
      <trkpt lat="42.72088" lon="1.83903">
        <ele>724.2</ele>
        <time>2024-06-30T05:55:19Z</time>
      </trkpt>
      <trkpt lat="42.72094" lon="1.83891">
        <ele>723.8</ele>
        <time>2024-06-30T05:55:21Z</time>
      </trkpt>
      <trkpt lat="42.72101" lon="1.83872">
        <ele>722.8</ele>
        <time>2024-06-30T05:55:24Z</time>
      </trkpt>
      <trkpt lat="42.72115" lon="1.8384">
        <ele>721.8</ele>
        <time>2024-06-30T05:55:29Z</time>
      </trkpt>
      <trkpt lat="42.72118" lon="1.83833">
        <ele>721.4</ele>
        <time>2024-06-30T05:55:30Z</time>
      </trkpt>
      <trkpt lat="42.7213" lon="1.83808">
        <ele>720.8</ele>
        <time>2024-06-30T05:55:34Z</time>
      </trkpt>
      <trkpt lat="42.72138" lon="1.8379">
        <ele>719.8</ele>
        <time>2024-06-30T05:55:37Z</time>
      </trkpt>
      <trkpt lat="42.72142" lon="1.83783">
        <ele>719.6</ele>
        <time>2024-06-30T05:55:38Z</time>
      </trkpt>
      <trkpt lat="42.72148" lon="1.83771">
        <ele>719.2</ele>
        <time>2024-06-30T05:55:40Z</time>
      </trkpt>
      <trkpt lat="42.72149" lon="1.83764">
        <ele>719</ele>
        <time>2024-06-30T05:55:41Z</time>
      </trkpt>
      <trkpt lat="42.72148" lon="1.83759">
        <ele>718.6</ele>
        <time>2024-06-30T05:55:42Z</time>
      </trkpt>
      <trkpt lat="42.72144" lon="1.83749">
        <ele>718</ele>
        <time>2024-06-30T05:55:44Z</time>
      </trkpt>
      <trkpt lat="42.72143" lon="1.83746">
        <ele>717.8</ele>
        <time>2024-06-30T05:55:45Z</time>
      </trkpt>
      <trkpt lat="42.72142" lon="1.83745">
        <ele>717.6</ele>
        <time>2024-06-30T05:55:46Z</time>
      </trkpt>
      <trkpt lat="42.72139" lon="1.83743">
        <ele>717.6</ele>
        <time>2024-06-30T05:55:47Z</time>
      </trkpt>
      <trkpt lat="42.72137" lon="1.83741">
        <ele>717.6</ele>
        <time>2024-06-30T05:55:48Z</time>
      </trkpt>
      <trkpt lat="42.72135" lon="1.8374">
        <ele>717.6</ele>
        <time>2024-06-30T05:55:49Z</time>
      </trkpt>
      <trkpt lat="42.72132" lon="1.83738">
        <ele>717.6</ele>
        <time>2024-06-30T05:55:50Z</time>
      </trkpt>
      <trkpt lat="42.72127" lon="1.83734">
        <ele>717.6</ele>
        <time>2024-06-30T05:55:53Z</time>
      </trkpt>
      <trkpt lat="42.72124" lon="1.83734">
        <ele>717.6</ele>
        <time>2024-06-30T05:55:54Z</time>
      </trkpt>
      <trkpt lat="42.72121" lon="1.83735">
        <ele>717.6</ele>
        <time>2024-06-30T05:55:55Z</time>
      </trkpt>
      <trkpt lat="42.7212" lon="1.83736">
        <ele>717.8</ele>
        <time>2024-06-30T05:55:56Z</time>
      </trkpt>
      <trkpt lat="42.72117" lon="1.83736">
        <ele>718</ele>
        <time>2024-06-30T05:55:57Z</time>
      </trkpt>
      <trkpt lat="42.72114" lon="1.83736">
        <ele>718.2</ele>
        <time>2024-06-30T05:55:58Z</time>
      </trkpt>
      <trkpt lat="42.72105" lon="1.83741">
        <ele>718.4</ele>
        <time>2024-06-30T05:56:02Z</time>
      </trkpt>
      <trkpt lat="42.72102" lon="1.83742">
        <ele>718.4</ele>
        <time>2024-06-30T05:56:03Z</time>
      </trkpt>
      <trkpt lat="42.721" lon="1.83746">
        <ele>718.4</ele>
        <time>2024-06-30T05:56:05Z</time>
      </trkpt>
      <trkpt lat="42.72099" lon="1.83749">
        <ele>718.4</ele>
        <time>2024-06-30T05:56:06Z</time>
      </trkpt>
      <trkpt lat="42.72099" lon="1.83752">
        <ele>718.4</ele>
        <time>2024-06-30T05:56:07Z</time>
      </trkpt>
      <trkpt lat="42.72099" lon="1.83753">
        <ele>718.4</ele>
        <time>2024-06-30T05:56:08Z</time>
      </trkpt>
      <trkpt lat="42.72097" lon="1.83753">
        <ele>718.4</ele>
        <time>2024-06-30T05:56:09Z</time>
      </trkpt>
      <trkpt lat="42.72093" lon="1.83752">
        <ele>718.4</ele>
        <time>2024-06-30T05:56:10Z</time>
      </trkpt>
      <trkpt lat="42.72088" lon="1.83753">
        <ele>718.4</ele>
        <time>2024-06-30T05:56:11Z</time>
      </trkpt>
      <trkpt lat="42.72084" lon="1.83753">
        <ele>718.4</ele>
        <time>2024-06-30T05:56:12Z</time>
      </trkpt>
      <trkpt lat="42.72081" lon="1.83754">
        <ele>718.4</ele>
        <time>2024-06-30T05:56:13Z</time>
      </trkpt>
      <trkpt lat="42.72079" lon="1.83754">
        <ele>718.4</ele>
        <time>2024-06-30T05:56:14Z</time>
      </trkpt>
      <trkpt lat="42.72077" lon="1.83754">
        <ele>718.4</ele>
        <time>2024-06-30T05:56:15Z</time>
      </trkpt>
      <trkpt lat="42.72063" lon="1.83761">
        <ele>718.8</ele>
        <time>2024-06-30T05:56:19Z</time>
      </trkpt>
      <trkpt lat="42.7206" lon="1.83763">
        <ele>719</ele>
        <time>2024-06-30T05:56:20Z</time>
      </trkpt>
      <trkpt lat="42.7205" lon="1.83774">
        <ele>719.6</ele>
        <time>2024-06-30T05:56:23Z</time>
      </trkpt>
      <trkpt lat="42.72033" lon="1.83786">
        <ele>720</ele>
        <time>2024-06-30T05:56:27Z</time>
      </trkpt>
      <trkpt lat="42.72023" lon="1.83791">
        <ele>720</ele>
        <time>2024-06-30T05:56:29Z</time>
      </trkpt>
      <trkpt lat="42.72019" lon="1.83792">
        <ele>720</ele>
        <time>2024-06-30T05:56:30Z</time>
      </trkpt>
      <trkpt lat="42.72015" lon="1.83795">
        <ele>720</ele>
        <time>2024-06-30T05:56:31Z</time>
      </trkpt>
      <trkpt lat="42.72001" lon="1.83802">
        <ele>720.6</ele>
        <time>2024-06-30T05:56:35Z</time>
      </trkpt>
      <trkpt lat="42.71998" lon="1.83801">
        <ele>721</ele>
        <time>2024-06-30T05:56:36Z</time>
      </trkpt>
      <trkpt lat="42.71996" lon="1.83798">
        <ele>721.2</ele>
        <time>2024-06-30T05:56:37Z</time>
      </trkpt>
      <trkpt lat="42.71994" lon="1.83794">
        <ele>721.4</ele>
        <time>2024-06-30T05:56:38Z</time>
      </trkpt>
      <trkpt lat="42.71991" lon="1.83789">
        <ele>721.6</ele>
        <time>2024-06-30T05:56:39Z</time>
      </trkpt>
      <trkpt lat="42.71988" lon="1.83785">
        <ele>721.6</ele>
        <time>2024-06-30T05:56:40Z</time>
      </trkpt>
      <trkpt lat="42.71985" lon="1.8378">
        <ele>721.6</ele>
        <time>2024-06-30T05:56:41Z</time>
      </trkpt>
      <trkpt lat="42.71983" lon="1.83777">
        <ele>721.6</ele>
        <time>2024-06-30T05:56:42Z</time>
      </trkpt>
      <trkpt lat="42.7198" lon="1.83772">
        <ele>721.6</ele>
        <time>2024-06-30T05:56:43Z</time>
      </trkpt>
      <trkpt lat="42.71978" lon="1.83766">
        <ele>721.6</ele>
        <time>2024-06-30T05:56:44Z</time>
      </trkpt>
      <trkpt lat="42.71977" lon="1.83759">
        <ele>721.6</ele>
        <time>2024-06-30T05:56:45Z</time>
      </trkpt>
      <trkpt lat="42.71976" lon="1.83753">
        <ele>721.6</ele>
        <time>2024-06-30T05:56:46Z</time>
      </trkpt>
      <trkpt lat="42.71973" lon="1.83748">
        <ele>721.6</ele>
        <time>2024-06-30T05:56:47Z</time>
      </trkpt>
      <trkpt lat="42.71969" lon="1.83741">
        <ele>721.4</ele>
        <time>2024-06-30T05:56:48Z</time>
      </trkpt>
      <trkpt lat="42.71964" lon="1.83736">
        <ele>721.4</ele>
        <time>2024-06-30T05:56:49Z</time>
      </trkpt>
      <trkpt lat="42.71954" lon="1.83729">
        <ele>721</ele>
        <time>2024-06-30T05:56:51Z</time>
      </trkpt>
      <trkpt lat="42.71948" lon="1.83725">
        <ele>720.8</ele>
        <time>2024-06-30T05:56:52Z</time>
      </trkpt>
      <trkpt lat="42.71937" lon="1.83715">
        <ele>720.2</ele>
        <time>2024-06-30T05:56:55Z</time>
      </trkpt>
      <trkpt lat="42.71936" lon="1.83712">
        <ele>720</ele>
        <time>2024-06-30T05:56:56Z</time>
      </trkpt>
      <trkpt lat="42.71936" lon="1.83708">
        <ele>719.8</ele>
        <time>2024-06-30T05:56:57Z</time>
      </trkpt>
      <trkpt lat="42.71938" lon="1.83703">
        <ele>719.6</ele>
        <time>2024-06-30T05:56:58Z</time>
      </trkpt>
      <trkpt lat="42.71941" lon="1.83699">
        <ele>719.6</ele>
        <time>2024-06-30T05:56:59Z</time>
      </trkpt>
      <trkpt lat="42.71948" lon="1.83691">
        <ele>719.4</ele>
        <time>2024-06-30T05:57:01Z</time>
      </trkpt>
      <trkpt lat="42.71954" lon="1.8369">
        <ele>719.4</ele>
        <time>2024-06-30T05:57:02Z</time>
      </trkpt>
      <trkpt lat="42.71959" lon="1.83689">
        <ele>719.4</ele>
        <time>2024-06-30T05:57:03Z</time>
      </trkpt>
      <trkpt lat="42.71964" lon="1.8369">
        <ele>719.4</ele>
        <time>2024-06-30T05:57:04Z</time>
      </trkpt>
      <trkpt lat="42.7197" lon="1.83691">
        <ele>719.4</ele>
        <time>2024-06-30T05:57:05Z</time>
      </trkpt>
      <trkpt lat="42.71974" lon="1.83692">
        <ele>719.4</ele>
        <time>2024-06-30T05:57:06Z</time>
      </trkpt>
      <trkpt lat="42.71984" lon="1.83693">
        <ele>719.4</ele>
        <time>2024-06-30T05:57:08Z</time>
      </trkpt>
      <trkpt lat="42.71993" lon="1.83689">
        <ele>719.4</ele>
        <time>2024-06-30T05:57:10Z</time>
      </trkpt>
      <trkpt lat="42.71996" lon="1.83685">
        <ele>719.4</ele>
        <time>2024-06-30T05:57:11Z</time>
      </trkpt>
      <trkpt lat="42.71998" lon="1.8368">
        <ele>719.4</ele>
        <time>2024-06-30T05:57:12Z</time>
      </trkpt>
      <trkpt lat="42.71999" lon="1.83674">
        <ele>719.4</ele>
        <time>2024-06-30T05:57:13Z</time>
      </trkpt>
      <trkpt lat="42.72" lon="1.83669">
        <ele>719.4</ele>
        <time>2024-06-30T05:57:14Z</time>
      </trkpt>
      <trkpt lat="42.72001" lon="1.83663">
        <ele>719.4</ele>
        <time>2024-06-30T05:57:15Z</time>
      </trkpt>
      <trkpt lat="42.72002" lon="1.83657">
        <ele>719.4</ele>
        <time>2024-06-30T05:57:16Z</time>
      </trkpt>
      <trkpt lat="42.72002" lon="1.83651">
        <ele>719.4</ele>
        <time>2024-06-30T05:57:17Z</time>
      </trkpt>
      <trkpt lat="42.72004" lon="1.83645">
        <ele>719.4</ele>
        <time>2024-06-30T05:57:18Z</time>
      </trkpt>
      <trkpt lat="42.72007" lon="1.8364">
        <ele>719.4</ele>
        <time>2024-06-30T05:57:19Z</time>
      </trkpt>
      <trkpt lat="42.72012" lon="1.83638">
        <ele>719.4</ele>
        <time>2024-06-30T05:57:20Z</time>
      </trkpt>
      <trkpt lat="42.72017" lon="1.83638">
        <ele>719.4</ele>
        <time>2024-06-30T05:57:21Z</time>
      </trkpt>
      <trkpt lat="42.72024" lon="1.83639">
        <ele>719.6</ele>
        <time>2024-06-30T05:57:22Z</time>
      </trkpt>
      <trkpt lat="42.72036" lon="1.83641">
        <ele>719.4</ele>
        <time>2024-06-30T05:57:24Z</time>
      </trkpt>
      <trkpt lat="42.72043" lon="1.83642">
        <ele>719.4</ele>
        <time>2024-06-30T05:57:25Z</time>
      </trkpt>
      <trkpt lat="42.72063" lon="1.83645">
        <ele>719.2</ele>
        <time>2024-06-30T05:57:28Z</time>
      </trkpt>
      <trkpt lat="42.72071" lon="1.83645">
        <ele>719</ele>
        <time>2024-06-30T05:57:29Z</time>
      </trkpt>
      <trkpt lat="42.721" lon="1.83648">
        <ele>717.8</ele>
        <time>2024-06-30T05:57:33Z</time>
      </trkpt>
      <trkpt lat="42.7212" lon="1.83649">
        <ele>716.8</ele>
        <time>2024-06-30T05:57:36Z</time>
      </trkpt>
      <trkpt lat="42.72128" lon="1.83649">
        <ele>716.6</ele>
        <time>2024-06-30T05:57:37Z</time>
      </trkpt>
      <trkpt lat="42.72149" lon="1.83646">
        <ele>715.8</ele>
        <time>2024-06-30T05:57:40Z</time>
      </trkpt>
      <trkpt lat="42.72156" lon="1.83644">
        <ele>715.8</ele>
        <time>2024-06-30T05:57:41Z</time>
      </trkpt>
      <trkpt lat="42.72162" lon="1.8364">
        <ele>715.6</ele>
        <time>2024-06-30T05:57:42Z</time>
      </trkpt>
      <trkpt lat="42.72173" lon="1.83628">
        <ele>715.2</ele>
        <time>2024-06-30T05:57:44Z</time>
      </trkpt>
      <trkpt lat="42.72178" lon="1.83622">
        <ele>714.8</ele>
        <time>2024-06-30T05:57:45Z</time>
      </trkpt>
      <trkpt lat="42.72182" lon="1.83617">
        <ele>714.8</ele>
        <time>2024-06-30T05:57:46Z</time>
      </trkpt>
      <trkpt lat="42.72187" lon="1.83608">
        <ele>714.6</ele>
        <time>2024-06-30T05:57:47Z</time>
      </trkpt>
      <trkpt lat="42.72191" lon="1.83601">
        <ele>714.6</ele>
        <time>2024-06-30T05:57:48Z</time>
      </trkpt>
      <trkpt lat="42.72195" lon="1.83594">
        <ele>714.2</ele>
        <time>2024-06-30T05:57:49Z</time>
      </trkpt>
      <trkpt lat="42.72199" lon="1.83587">
        <ele>714</ele>
        <time>2024-06-30T05:57:50Z</time>
      </trkpt>
      <trkpt lat="42.72211" lon="1.83565">
        <ele>713.6</ele>
        <time>2024-06-30T05:57:53Z</time>
      </trkpt>
      <trkpt lat="42.72231" lon="1.83528">
        <ele>713.2</ele>
        <time>2024-06-30T05:57:58Z</time>
      </trkpt>
      <trkpt lat="42.7225" lon="1.83491">
        <ele>713</ele>
        <time>2024-06-30T05:58:03Z</time>
      </trkpt>
      <trkpt lat="42.72268" lon="1.83466">
        <ele>712.4</ele>
        <time>2024-06-30T05:58:07Z</time>
      </trkpt>
      <trkpt lat="42.72273" lon="1.8346">
        <ele>712.4</ele>
        <time>2024-06-30T05:58:08Z</time>
      </trkpt>
      <trkpt lat="42.72276" lon="1.83454">
        <ele>712.4</ele>
        <time>2024-06-30T05:58:09Z</time>
      </trkpt>
      <trkpt lat="42.72281" lon="1.83446">
        <ele>712.2</ele>
        <time>2024-06-30T05:58:10Z</time>
      </trkpt>
      <trkpt lat="42.72298" lon="1.83418">
        <ele>712</ele>
        <time>2024-06-30T05:58:14Z</time>
      </trkpt>
      <trkpt lat="42.72312" lon="1.83393">
        <ele>711.4</ele>
        <time>2024-06-30T05:58:17Z</time>
      </trkpt>
      <trkpt lat="42.72321" lon="1.83378">
        <ele>711</ele>
        <time>2024-06-30T05:58:19Z</time>
      </trkpt>
      <trkpt lat="42.72326" lon="1.83371">
        <ele>710.8</ele>
        <time>2024-06-30T05:58:20Z</time>
      </trkpt>
      <trkpt lat="42.7233" lon="1.83364">
        <ele>710.4</ele>
        <time>2024-06-30T05:58:21Z</time>
      </trkpt>
      <trkpt lat="42.72349" lon="1.83335">
        <ele>709.2</ele>
        <time>2024-06-30T05:58:25Z</time>
      </trkpt>
      <trkpt lat="42.72358" lon="1.83322">
        <ele>708.8</ele>
        <time>2024-06-30T05:58:27Z</time>
      </trkpt>
      <trkpt lat="42.72364" lon="1.83316">
        <ele>708.6</ele>
        <time>2024-06-30T05:58:28Z</time>
      </trkpt>
      <trkpt lat="42.72375" lon="1.83305">
        <ele>708.2</ele>
        <time>2024-06-30T05:58:30Z</time>
      </trkpt>
      <trkpt lat="42.72404" lon="1.83274">
        <ele>707.6</ele>
        <time>2024-06-30T05:58:35Z</time>
      </trkpt>
      <trkpt lat="42.72417" lon="1.83261">
        <ele>707.2</ele>
        <time>2024-06-30T05:58:37Z</time>
      </trkpt>
      <trkpt lat="42.7243" lon="1.83248">
        <ele>706.6</ele>
        <time>2024-06-30T05:58:39Z</time>
      </trkpt>
      <trkpt lat="42.72435" lon="1.83241">
        <ele>706.2</ele>
        <time>2024-06-30T05:58:40Z</time>
      </trkpt>
      <trkpt lat="42.7244" lon="1.83233">
        <ele>706</ele>
        <time>2024-06-30T05:58:41Z</time>
      </trkpt>
      <trkpt lat="42.72443" lon="1.83227">
        <ele>705.6</ele>
        <time>2024-06-30T05:58:42Z</time>
      </trkpt>
      <trkpt lat="42.72448" lon="1.83219">
        <ele>705.4</ele>
        <time>2024-06-30T05:58:43Z</time>
      </trkpt>
      <trkpt lat="42.72452" lon="1.83212">
        <ele>705</ele>
        <time>2024-06-30T05:58:44Z</time>
      </trkpt>
      <trkpt lat="42.72456" lon="1.83206">
        <ele>704.8</ele>
        <time>2024-06-30T05:58:45Z</time>
      </trkpt>
      <trkpt lat="42.72459" lon="1.83198">
        <ele>704.6</ele>
        <time>2024-06-30T05:58:46Z</time>
      </trkpt>
      <trkpt lat="42.72462" lon="1.83193">
        <ele>704.6</ele>
        <time>2024-06-30T05:58:47Z</time>
      </trkpt>
      <trkpt lat="42.72466" lon="1.83185">
        <ele>704.4</ele>
        <time>2024-06-30T05:58:48Z</time>
      </trkpt>
      <trkpt lat="42.7247" lon="1.83178">
        <ele>704.2</ele>
        <time>2024-06-30T05:58:49Z</time>
      </trkpt>
      <trkpt lat="42.72475" lon="1.83165">
        <ele>704.2</ele>
        <time>2024-06-30T05:58:51Z</time>
      </trkpt>
      <trkpt lat="42.72477" lon="1.83157">
        <ele>704.2</ele>
        <time>2024-06-30T05:58:52Z</time>
      </trkpt>
      <trkpt lat="42.72483" lon="1.83133">
        <ele>704</ele>
        <time>2024-06-30T05:58:55Z</time>
      </trkpt>
      <trkpt lat="42.72485" lon="1.83127">
        <ele>703.8</ele>
        <time>2024-06-30T05:58:56Z</time>
      </trkpt>
      <trkpt lat="42.72486" lon="1.8312">
        <ele>703.8</ele>
        <time>2024-06-30T05:58:57Z</time>
      </trkpt>
      <trkpt lat="42.72489" lon="1.83113">
        <ele>703.8</ele>
        <time>2024-06-30T05:58:58Z</time>
      </trkpt>
      <trkpt lat="42.72491" lon="1.83106">
        <ele>703.8</ele>
        <time>2024-06-30T05:58:59Z</time>
      </trkpt>
      <trkpt lat="42.72493" lon="1.831">
        <ele>703.6</ele>
        <time>2024-06-30T05:59:00Z</time>
      </trkpt>
      <trkpt lat="42.72496" lon="1.83093">
        <ele>703.6</ele>
        <time>2024-06-30T05:59:01Z</time>
      </trkpt>
      <trkpt lat="42.725" lon="1.83087">
        <ele>703.6</ele>
        <time>2024-06-30T05:59:02Z</time>
      </trkpt>
      <trkpt lat="42.72511" lon="1.83069">
        <ele>703.6</ele>
        <time>2024-06-30T05:59:05Z</time>
      </trkpt>
      <trkpt lat="42.72519" lon="1.83057">
        <ele>703.6</ele>
        <time>2024-06-30T05:59:07Z</time>
      </trkpt>
      <trkpt lat="42.72528" lon="1.83046">
        <ele>703.6</ele>
        <time>2024-06-30T05:59:09Z</time>
      </trkpt>
      <trkpt lat="42.72545" lon="1.83023">
        <ele>703.6</ele>
        <time>2024-06-30T05:59:13Z</time>
      </trkpt>
      <trkpt lat="42.72564" lon="1.83002">
        <ele>703.6</ele>
        <time>2024-06-30T05:59:17Z</time>
      </trkpt>
      <trkpt lat="42.72576" lon="1.82992">
        <ele>703.4</ele>
        <time>2024-06-30T05:59:19Z</time>
      </trkpt>
      <trkpt lat="42.72588" lon="1.82981">
        <ele>703</ele>
        <time>2024-06-30T05:59:21Z</time>
      </trkpt>
      <trkpt lat="42.72618" lon="1.82957">
        <ele>702</ele>
        <time>2024-06-30T05:59:25Z</time>
      </trkpt>
      <trkpt lat="42.72626" lon="1.82952">
        <ele>701.8</ele>
        <time>2024-06-30T05:59:26Z</time>
      </trkpt>
      <trkpt lat="42.72633" lon="1.82946">
        <ele>701.2</ele>
        <time>2024-06-30T05:59:27Z</time>
      </trkpt>
      <trkpt lat="42.72647" lon="1.82934">
        <ele>700</ele>
        <time>2024-06-30T05:59:29Z</time>
      </trkpt>
      <trkpt lat="42.72668" lon="1.82918">
        <ele>698.8</ele>
        <time>2024-06-30T05:59:32Z</time>
      </trkpt>
      <trkpt lat="42.72673" lon="1.82911">
        <ele>698.8</ele>
        <time>2024-06-30T05:59:33Z</time>
      </trkpt>
      <trkpt lat="42.72678" lon="1.82905">
        <ele>698.6</ele>
        <time>2024-06-30T05:59:34Z</time>
      </trkpt>
      <trkpt lat="42.72681" lon="1.82901">
        <ele>698.6</ele>
        <time>2024-06-30T05:59:35Z</time>
      </trkpt>
      <trkpt lat="42.72682" lon="1.82897">
        <ele>698.2</ele>
        <time>2024-06-30T05:59:36Z</time>
      </trkpt>
      <trkpt lat="42.72684" lon="1.82893">
        <ele>698.2</ele>
        <time>2024-06-30T05:59:37Z</time>
      </trkpt>
      <trkpt lat="42.72685" lon="1.82889">
        <ele>698</ele>
        <time>2024-06-30T05:59:38Z</time>
      </trkpt>
      <trkpt lat="42.72687" lon="1.82885">
        <ele>697.8</ele>
        <time>2024-06-30T05:59:39Z</time>
      </trkpt>
      <trkpt lat="42.72688" lon="1.82881">
        <ele>697.8</ele>
        <time>2024-06-30T05:59:40Z</time>
      </trkpt>
      <trkpt lat="42.72691" lon="1.82878">
        <ele>697.8</ele>
        <time>2024-06-30T05:59:41Z</time>
      </trkpt>
      <trkpt lat="42.72695" lon="1.82872">
        <ele>697.8</ele>
        <time>2024-06-30T05:59:43Z</time>
      </trkpt>
      <trkpt lat="42.72698" lon="1.82869">
        <ele>697.8</ele>
        <time>2024-06-30T05:59:44Z</time>
      </trkpt>
      <trkpt lat="42.72705" lon="1.8286">
        <ele>697.8</ele>
        <time>2024-06-30T05:59:46Z</time>
      </trkpt>
      <trkpt lat="42.72709" lon="1.82854">
        <ele>697.4</ele>
        <time>2024-06-30T05:59:47Z</time>
      </trkpt>
      <trkpt lat="42.72717" lon="1.82841">
        <ele>696.8</ele>
        <time>2024-06-30T05:59:49Z</time>
      </trkpt>
      <trkpt lat="42.72719" lon="1.82835">
        <ele>696.6</ele>
        <time>2024-06-30T05:59:50Z</time>
      </trkpt>
      <trkpt lat="42.72721" lon="1.82827">
        <ele>696.6</ele>
        <time>2024-06-30T05:59:51Z</time>
      </trkpt>
      <trkpt lat="42.72723" lon="1.82818">
        <ele>696.4</ele>
        <time>2024-06-30T05:59:52Z</time>
      </trkpt>
      <trkpt lat="42.72725" lon="1.82809">
        <ele>696.4</ele>
        <time>2024-06-30T05:59:53Z</time>
      </trkpt>
      <trkpt lat="42.72728" lon="1.82792">
        <ele>696</ele>
        <time>2024-06-30T05:59:55Z</time>
      </trkpt>
      <trkpt lat="42.72729" lon="1.82774">
        <ele>695.6</ele>
        <time>2024-06-30T05:59:57Z</time>
      </trkpt>
      <trkpt lat="42.72729" lon="1.82765">
        <ele>695.6</ele>
        <time>2024-06-30T05:59:58Z</time>
      </trkpt>
      <trkpt lat="42.72727" lon="1.82747">
        <ele>695.2</ele>
        <time>2024-06-30T06:00:00Z</time>
      </trkpt>
      <trkpt lat="42.72721" lon="1.82729">
        <ele>695</ele>
        <time>2024-06-30T06:00:02Z</time>
      </trkpt>
      <trkpt lat="42.72717" lon="1.82721">
        <ele>695</ele>
        <time>2024-06-30T06:00:03Z</time>
      </trkpt>
      <trkpt lat="42.72714" lon="1.82713">
        <ele>695</ele>
        <time>2024-06-30T06:00:04Z</time>
      </trkpt>
      <trkpt lat="42.72706" lon="1.8269">
        <ele>694.8</ele>
        <time>2024-06-30T06:00:07Z</time>
      </trkpt>
      <trkpt lat="42.72703" lon="1.82681">
        <ele>694.6</ele>
        <time>2024-06-30T06:00:08Z</time>
      </trkpt>
      <trkpt lat="42.727" lon="1.82673">
        <ele>694.6</ele>
        <time>2024-06-30T06:00:09Z</time>
      </trkpt>
      <trkpt lat="42.72694" lon="1.82647">
        <ele>694.4</ele>
        <time>2024-06-30T06:00:12Z</time>
      </trkpt>
      <trkpt lat="42.72689" lon="1.82628">
        <ele>694.2</ele>
        <time>2024-06-30T06:00:14Z</time>
      </trkpt>
      <trkpt lat="42.72687" lon="1.82608">
        <ele>694</ele>
        <time>2024-06-30T06:00:16Z</time>
      </trkpt>
      <trkpt lat="42.72687" lon="1.82578">
        <ele>693.6</ele>
        <time>2024-06-30T06:00:19Z</time>
      </trkpt>
      <trkpt lat="42.72687" lon="1.82569">
        <ele>693.4</ele>
        <time>2024-06-30T06:00:20Z</time>
      </trkpt>
      <trkpt lat="42.72691" lon="1.82514">
        <ele>692.6</ele>
        <time>2024-06-30T06:00:26Z</time>
      </trkpt>
      <trkpt lat="42.72692" lon="1.82505">
        <ele>692.6</ele>
        <time>2024-06-30T06:00:27Z</time>
      </trkpt>
      <trkpt lat="42.72693" lon="1.82497">
        <ele>692.4</ele>
        <time>2024-06-30T06:00:28Z</time>
      </trkpt>
      <trkpt lat="42.72694" lon="1.82488">
        <ele>692.2</ele>
        <time>2024-06-30T06:00:29Z</time>
      </trkpt>
      <trkpt lat="42.72695" lon="1.82479">
        <ele>692.2</ele>
        <time>2024-06-30T06:00:30Z</time>
      </trkpt>
      <trkpt lat="42.72696" lon="1.82471">
        <ele>692.2</ele>
        <time>2024-06-30T06:00:31Z</time>
      </trkpt>
      <trkpt lat="42.72696" lon="1.82462">
        <ele>692.2</ele>
        <time>2024-06-30T06:00:32Z</time>
      </trkpt>
      <trkpt lat="42.72696" lon="1.82454">
        <ele>692</ele>
        <time>2024-06-30T06:00:33Z</time>
      </trkpt>
      <trkpt lat="42.72693" lon="1.82448">
        <ele>692</ele>
        <time>2024-06-30T06:00:34Z</time>
      </trkpt>
      <trkpt lat="42.72689" lon="1.82442">
        <ele>692.2</ele>
        <time>2024-06-30T06:00:35Z</time>
      </trkpt>
      <trkpt lat="42.72684" lon="1.82439">
        <ele>692.2</ele>
        <time>2024-06-30T06:00:36Z</time>
      </trkpt>
      <trkpt lat="42.72679" lon="1.82436">
        <ele>692.2</ele>
        <time>2024-06-30T06:00:37Z</time>
      </trkpt>
      <trkpt lat="42.72674" lon="1.82435">
        <ele>692.2</ele>
        <time>2024-06-30T06:00:38Z</time>
      </trkpt>
      <trkpt lat="42.72668" lon="1.82432">
        <ele>692.2</ele>
        <time>2024-06-30T06:00:39Z</time>
      </trkpt>
      <trkpt lat="42.7266" lon="1.82423">
        <ele>692.2</ele>
        <time>2024-06-30T06:00:41Z</time>
      </trkpt>
      <trkpt lat="42.72657" lon="1.82415">
        <ele>692.2</ele>
        <time>2024-06-30T06:00:42Z</time>
      </trkpt>
      <trkpt lat="42.72657" lon="1.8241">
        <ele>692.2</ele>
        <time>2024-06-30T06:00:43Z</time>
      </trkpt>
      <trkpt lat="42.72658" lon="1.82403">
        <ele>692.2</ele>
        <time>2024-06-30T06:00:44Z</time>
      </trkpt>
      <trkpt lat="42.72659" lon="1.82396">
        <ele>692.2</ele>
        <time>2024-06-30T06:00:45Z</time>
      </trkpt>
      <trkpt lat="42.72661" lon="1.82388">
        <ele>692.2</ele>
        <time>2024-06-30T06:00:46Z</time>
      </trkpt>
      <trkpt lat="42.72663" lon="1.82381">
        <ele>692.2</ele>
        <time>2024-06-30T06:00:47Z</time>
      </trkpt>
      <trkpt lat="42.72666" lon="1.82368">
        <ele>691.8</ele>
        <time>2024-06-30T06:00:49Z</time>
      </trkpt>
      <trkpt lat="42.72672" lon="1.82352">
        <ele>692.2</ele>
        <time>2024-06-30T06:00:51Z</time>
      </trkpt>
      <trkpt lat="42.72675" lon="1.82339">
        <ele>692</ele>
        <time>2024-06-30T06:00:53Z</time>
      </trkpt>
      <trkpt lat="42.72678" lon="1.82323">
        <ele>692</ele>
        <time>2024-06-30T06:00:55Z</time>
      </trkpt>
      <trkpt lat="42.72678" lon="1.82314">
        <ele>692</ele>
        <time>2024-06-30T06:00:56Z</time>
      </trkpt>
      <trkpt lat="42.72678" lon="1.82275">
        <ele>691.8</ele>
        <time>2024-06-30T06:01:01Z</time>
      </trkpt>
      <trkpt lat="42.72678" lon="1.82268">
        <ele>691.8</ele>
        <time>2024-06-30T06:01:02Z</time>
      </trkpt>
      <trkpt lat="42.72677" lon="1.8226">
        <ele>691.8</ele>
        <time>2024-06-30T06:01:03Z</time>
      </trkpt>
      <trkpt lat="42.72677" lon="1.82253">
        <ele>691.6</ele>
        <time>2024-06-30T06:01:04Z</time>
      </trkpt>
      <trkpt lat="42.72677" lon="1.82244">
        <ele>691.6</ele>
        <time>2024-06-30T06:01:05Z</time>
      </trkpt>
      <trkpt lat="42.72678" lon="1.8223">
        <ele>691.4</ele>
        <time>2024-06-30T06:01:07Z</time>
      </trkpt>
      <trkpt lat="42.72677" lon="1.82183">
        <ele>691</ele>
        <time>2024-06-30T06:01:13Z</time>
      </trkpt>
      <trkpt lat="42.72678" lon="1.82177">
        <ele>691</ele>
        <time>2024-06-30T06:01:14Z</time>
      </trkpt>
      <trkpt lat="42.72681" lon="1.8217">
        <ele>691</ele>
        <time>2024-06-30T06:01:15Z</time>
      </trkpt>
      <trkpt lat="42.72684" lon="1.82161">
        <ele>691</ele>
        <time>2024-06-30T06:01:16Z</time>
      </trkpt>
      <trkpt lat="42.72687" lon="1.82153">
        <ele>691</ele>
        <time>2024-06-30T06:01:17Z</time>
      </trkpt>
      <trkpt lat="42.72695" lon="1.82137">
        <ele>690.8</ele>
        <time>2024-06-30T06:01:19Z</time>
      </trkpt>
      <trkpt lat="42.727" lon="1.82132">
        <ele>690.6</ele>
        <time>2024-06-30T06:01:20Z</time>
      </trkpt>
      <trkpt lat="42.72705" lon="1.82128">
        <ele>690.4</ele>
        <time>2024-06-30T06:01:21Z</time>
      </trkpt>
      <trkpt lat="42.72709" lon="1.82123">
        <ele>690.4</ele>
        <time>2024-06-30T06:01:22Z</time>
      </trkpt>
      <trkpt lat="42.72712" lon="1.82118">
        <ele>690.2</ele>
        <time>2024-06-30T06:01:23Z</time>
      </trkpt>
      <trkpt lat="42.72714" lon="1.82111">
        <ele>690</ele>
        <time>2024-06-30T06:01:24Z</time>
      </trkpt>
      <trkpt lat="42.72715" lon="1.82101">
        <ele>689.8</ele>
        <time>2024-06-30T06:01:25Z</time>
      </trkpt>
      <trkpt lat="42.72715" lon="1.82093">
        <ele>689.6</ele>
        <time>2024-06-30T06:01:26Z</time>
      </trkpt>
      <trkpt lat="42.72716" lon="1.82082">
        <ele>689.4</ele>
        <time>2024-06-30T06:01:27Z</time>
      </trkpt>
      <trkpt lat="42.72717" lon="1.82074">
        <ele>689.2</ele>
        <time>2024-06-30T06:01:28Z</time>
      </trkpt>
      <trkpt lat="42.7272" lon="1.82059">
        <ele>689</ele>
        <time>2024-06-30T06:01:30Z</time>
      </trkpt>
      <trkpt lat="42.72727" lon="1.82043">
        <ele>688.8</ele>
        <time>2024-06-30T06:01:32Z</time>
      </trkpt>
      <trkpt lat="42.72731" lon="1.82036">
        <ele>688.8</ele>
        <time>2024-06-30T06:01:33Z</time>
      </trkpt>
      <trkpt lat="42.72736" lon="1.82031">
        <ele>688.6</ele>
        <time>2024-06-30T06:01:34Z</time>
      </trkpt>
      <trkpt lat="42.7274" lon="1.82027">
        <ele>688.4</ele>
        <time>2024-06-30T06:01:35Z</time>
      </trkpt>
      <trkpt lat="42.72746" lon="1.8202">
        <ele>688.2</ele>
        <time>2024-06-30T06:01:36Z</time>
      </trkpt>
      <trkpt lat="42.7275" lon="1.82011">
        <ele>688</ele>
        <time>2024-06-30T06:01:37Z</time>
      </trkpt>
      <trkpt lat="42.72753" lon="1.81999">
        <ele>687.6</ele>
        <time>2024-06-30T06:01:38Z</time>
      </trkpt>
      <trkpt lat="42.72755" lon="1.81991">
        <ele>687.2</ele>
        <time>2024-06-30T06:01:39Z</time>
      </trkpt>
      <trkpt lat="42.72756" lon="1.81981">
        <ele>687.2</ele>
        <time>2024-06-30T06:01:40Z</time>
      </trkpt>
      <trkpt lat="42.72756" lon="1.81969">
        <ele>686.8</ele>
        <time>2024-06-30T06:01:41Z</time>
      </trkpt>
      <trkpt lat="42.72755" lon="1.81962">
        <ele>686.8</ele>
        <time>2024-06-30T06:01:42Z</time>
      </trkpt>
      <trkpt lat="42.72753" lon="1.81952">
        <ele>686.6</ele>
        <time>2024-06-30T06:01:43Z</time>
      </trkpt>
      <trkpt lat="42.72751" lon="1.81943">
        <ele>686.4</ele>
        <time>2024-06-30T06:01:44Z</time>
      </trkpt>
      <trkpt lat="42.72749" lon="1.81936">
        <ele>686.2</ele>
        <time>2024-06-30T06:01:45Z</time>
      </trkpt>
      <trkpt lat="42.72746" lon="1.81928">
        <ele>686</ele>
        <time>2024-06-30T06:01:46Z</time>
      </trkpt>
      <trkpt lat="42.72743" lon="1.8192">
        <ele>685.8</ele>
        <time>2024-06-30T06:01:47Z</time>
      </trkpt>
      <trkpt lat="42.72737" lon="1.81905">
        <ele>685.6</ele>
        <time>2024-06-30T06:01:49Z</time>
      </trkpt>
      <trkpt lat="42.7273" lon="1.81886">
        <ele>685.2</ele>
        <time>2024-06-30T06:01:52Z</time>
      </trkpt>
      <trkpt lat="42.72727" lon="1.81881">
        <ele>685.2</ele>
        <time>2024-06-30T06:01:53Z</time>
      </trkpt>
      <trkpt lat="42.72723" lon="1.81876">
        <ele>685.2</ele>
        <time>2024-06-30T06:01:54Z</time>
      </trkpt>
      <trkpt lat="42.7272" lon="1.81871">
        <ele>685</ele>
        <time>2024-06-30T06:01:55Z</time>
      </trkpt>
      <trkpt lat="42.72718" lon="1.81865">
        <ele>685</ele>
        <time>2024-06-30T06:01:56Z</time>
      </trkpt>
      <trkpt lat="42.72715" lon="1.8186">
        <ele>685</ele>
        <time>2024-06-30T06:01:57Z</time>
      </trkpt>
      <trkpt lat="42.72713" lon="1.81857">
        <ele>685</ele>
        <time>2024-06-30T06:01:58Z</time>
      </trkpt>
      <trkpt lat="42.72712" lon="1.81854">
        <ele>685</ele>
        <time>2024-06-30T06:01:59Z</time>
      </trkpt>
      <trkpt lat="42.7271" lon="1.81849">
        <ele>685.2</ele>
        <time>2024-06-30T06:02:00Z</time>
      </trkpt>
      <trkpt lat="42.72707" lon="1.81844">
        <ele>685.2</ele>
        <time>2024-06-30T06:02:01Z</time>
      </trkpt>
      <trkpt lat="42.72701" lon="1.81829">
        <ele>685.2</ele>
        <time>2024-06-30T06:02:03Z</time>
      </trkpt>
      <trkpt lat="42.72685" lon="1.81786">
        <ele>684.8</ele>
        <time>2024-06-30T06:02:08Z</time>
      </trkpt>
      <trkpt lat="42.72682" lon="1.81778">
        <ele>684.6</ele>
        <time>2024-06-30T06:02:09Z</time>
      </trkpt>
      <trkpt lat="42.72677" lon="1.8176">
        <ele>684</ele>
        <time>2024-06-30T06:02:11Z</time>
      </trkpt>
      <trkpt lat="42.72668" lon="1.81724">
        <ele>683.6</ele>
        <time>2024-06-30T06:02:15Z</time>
      </trkpt>
      <trkpt lat="42.72666" lon="1.81716">
        <ele>683.4</ele>
        <time>2024-06-30T06:02:16Z</time>
      </trkpt>
      <trkpt lat="42.7266" lon="1.81692">
        <ele>683.2</ele>
        <time>2024-06-30T06:02:19Z</time>
      </trkpt>
      <trkpt lat="42.72658" lon="1.81683">
        <ele>683.2</ele>
        <time>2024-06-30T06:02:20Z</time>
      </trkpt>
      <trkpt lat="42.72656" lon="1.81674">
        <ele>683.2</ele>
        <time>2024-06-30T06:02:21Z</time>
      </trkpt>
      <trkpt lat="42.72654" lon="1.81668">
        <ele>683.4</ele>
        <time>2024-06-30T06:02:22Z</time>
      </trkpt>
      <trkpt lat="42.72652" lon="1.8166">
        <ele>683.6</ele>
        <time>2024-06-30T06:02:23Z</time>
      </trkpt>
      <trkpt lat="42.72649" lon="1.81653">
        <ele>683.6</ele>
        <time>2024-06-30T06:02:24Z</time>
      </trkpt>
      <trkpt lat="42.72646" lon="1.81644">
        <ele>683.6</ele>
        <time>2024-06-30T06:02:25Z</time>
      </trkpt>
      <trkpt lat="42.72638" lon="1.81622">
        <ele>683.6</ele>
        <time>2024-06-30T06:02:28Z</time>
      </trkpt>
      <trkpt lat="42.72635" lon="1.81604">
        <ele>683.6</ele>
        <time>2024-06-30T06:02:30Z</time>
      </trkpt>
      <trkpt lat="42.72628" lon="1.81568">
        <ele>683.2</ele>
        <time>2024-06-30T06:02:34Z</time>
      </trkpt>
      <trkpt lat="42.72627" lon="1.81559">
        <ele>683</ele>
        <time>2024-06-30T06:02:35Z</time>
      </trkpt>
      <trkpt lat="42.72626" lon="1.8155">
        <ele>682.8</ele>
        <time>2024-06-30T06:02:36Z</time>
      </trkpt>
      <trkpt lat="42.72626" lon="1.81533">
        <ele>682.2</ele>
        <time>2024-06-30T06:02:38Z</time>
      </trkpt>
      <trkpt lat="42.72626" lon="1.81525">
        <ele>682</ele>
        <time>2024-06-30T06:02:39Z</time>
      </trkpt>
      <trkpt lat="42.72626" lon="1.81518">
        <ele>681.8</ele>
        <time>2024-06-30T06:02:40Z</time>
      </trkpt>
      <trkpt lat="42.72626" lon="1.8151">
        <ele>681.6</ele>
        <time>2024-06-30T06:02:41Z</time>
      </trkpt>
      <trkpt lat="42.72625" lon="1.81503">
        <ele>681.4</ele>
        <time>2024-06-30T06:02:42Z</time>
      </trkpt>
      <trkpt lat="42.72624" lon="1.81494">
        <ele>681.4</ele>
        <time>2024-06-30T06:02:43Z</time>
      </trkpt>
      <trkpt lat="42.72622" lon="1.81488">
        <ele>681.4</ele>
        <time>2024-06-30T06:02:44Z</time>
      </trkpt>
      <trkpt lat="42.72619" lon="1.81478">
        <ele>681.4</ele>
        <time>2024-06-30T06:02:45Z</time>
      </trkpt>
      <trkpt lat="42.72614" lon="1.81464">
        <ele>681.2</ele>
        <time>2024-06-30T06:02:47Z</time>
      </trkpt>
      <trkpt lat="42.72612" lon="1.81451">
        <ele>681</ele>
        <time>2024-06-30T06:02:49Z</time>
      </trkpt>
      <trkpt lat="42.7261" lon="1.81444">
        <ele>681</ele>
        <time>2024-06-30T06:02:50Z</time>
      </trkpt>
      <trkpt lat="42.72605" lon="1.81437">
        <ele>680.8</ele>
        <time>2024-06-30T06:02:51Z</time>
      </trkpt>
      <trkpt lat="42.72602" lon="1.8143">
        <ele>680.8</ele>
        <time>2024-06-30T06:02:52Z</time>
      </trkpt>
      <trkpt lat="42.72597" lon="1.81422">
        <ele>680.8</ele>
        <time>2024-06-30T06:02:53Z</time>
      </trkpt>
      <trkpt lat="42.72595" lon="1.81414">
        <ele>680.8</ele>
        <time>2024-06-30T06:02:54Z</time>
      </trkpt>
      <trkpt lat="42.72595" lon="1.81407">
        <ele>680.8</ele>
        <time>2024-06-30T06:02:55Z</time>
      </trkpt>
      <trkpt lat="42.72594" lon="1.81401">
        <ele>680.6</ele>
        <time>2024-06-30T06:02:56Z</time>
      </trkpt>
      <trkpt lat="42.72594" lon="1.81395">
        <ele>680.6</ele>
        <time>2024-06-30T06:02:57Z</time>
      </trkpt>
      <trkpt lat="42.72593" lon="1.81388">
        <ele>680.6</ele>
        <time>2024-06-30T06:02:58Z</time>
      </trkpt>
      <trkpt lat="42.72593" lon="1.81381">
        <ele>680.6</ele>
        <time>2024-06-30T06:02:59Z</time>
      </trkpt>
      <trkpt lat="42.72594" lon="1.81369">
        <ele>680.8</ele>
        <time>2024-06-30T06:03:01Z</time>
      </trkpt>
      <trkpt lat="42.72595" lon="1.81363">
        <ele>681</ele>
        <time>2024-06-30T06:03:02Z</time>
      </trkpt>
      <trkpt lat="42.72597" lon="1.81356">
        <ele>681</ele>
        <time>2024-06-30T06:03:03Z</time>
      </trkpt>
      <trkpt lat="42.72599" lon="1.81348">
        <ele>681.2</ele>
        <time>2024-06-30T06:03:04Z</time>
      </trkpt>
      <trkpt lat="42.72602" lon="1.81318">
        <ele>681.8</ele>
        <time>2024-06-30T06:03:08Z</time>
      </trkpt>
      <trkpt lat="42.72603" lon="1.81303">
        <ele>681.8</ele>
        <time>2024-06-30T06:03:10Z</time>
      </trkpt>
      <trkpt lat="42.72601" lon="1.81267">
        <ele>681.6</ele>
        <time>2024-06-30T06:03:14Z</time>
      </trkpt>
      <trkpt lat="42.72603" lon="1.81257">
        <ele>681.6</ele>
        <time>2024-06-30T06:03:15Z</time>
      </trkpt>
      <trkpt lat="42.7261" lon="1.81238">
        <ele>681.4</ele>
        <time>2024-06-30T06:03:17Z</time>
      </trkpt>
      <trkpt lat="42.72612" lon="1.81229">
        <ele>681.4</ele>
        <time>2024-06-30T06:03:18Z</time>
      </trkpt>
      <trkpt lat="42.72614" lon="1.81222">
        <ele>681</ele>
        <time>2024-06-30T06:03:19Z</time>
      </trkpt>
      <trkpt lat="42.72615" lon="1.81213">
        <ele>681</ele>
        <time>2024-06-30T06:03:20Z</time>
      </trkpt>
      <trkpt lat="42.72617" lon="1.81189">
        <ele>680.8</ele>
        <time>2024-06-30T06:03:23Z</time>
      </trkpt>
      <trkpt lat="42.7262" lon="1.81182">
        <ele>680.8</ele>
        <time>2024-06-30T06:03:24Z</time>
      </trkpt>
      <trkpt lat="42.72624" lon="1.81175">
        <ele>680.8</ele>
        <time>2024-06-30T06:03:25Z</time>
      </trkpt>
      <trkpt lat="42.72627" lon="1.81168">
        <ele>680.6</ele>
        <time>2024-06-30T06:03:26Z</time>
      </trkpt>
      <trkpt lat="42.72632" lon="1.81161">
        <ele>680.6</ele>
        <time>2024-06-30T06:03:27Z</time>
      </trkpt>
      <trkpt lat="42.72635" lon="1.81154">
        <ele>680.6</ele>
        <time>2024-06-30T06:03:28Z</time>
      </trkpt>
      <trkpt lat="42.72636" lon="1.81145">
        <ele>680.4</ele>
        <time>2024-06-30T06:03:29Z</time>
      </trkpt>
      <trkpt lat="42.72639" lon="1.81128">
        <ele>680.4</ele>
        <time>2024-06-30T06:03:31Z</time>
      </trkpt>
      <trkpt lat="42.7265" lon="1.81095">
        <ele>679.6</ele>
        <time>2024-06-30T06:03:35Z</time>
      </trkpt>
      <trkpt lat="42.72662" lon="1.81064">
        <ele>679.2</ele>
        <time>2024-06-30T06:03:39Z</time>
      </trkpt>
      <trkpt lat="42.72664" lon="1.81057">
        <ele>679.2</ele>
        <time>2024-06-30T06:03:40Z</time>
      </trkpt>
      <trkpt lat="42.72666" lon="1.81049">
        <ele>679</ele>
        <time>2024-06-30T06:03:41Z</time>
      </trkpt>
      <trkpt lat="42.72669" lon="1.81033">
        <ele>679</ele>
        <time>2024-06-30T06:03:43Z</time>
      </trkpt>
      <trkpt lat="42.7267" lon="1.81026">
        <ele>678.8</ele>
        <time>2024-06-30T06:03:44Z</time>
      </trkpt>
      <trkpt lat="42.72672" lon="1.81018">
        <ele>678.8</ele>
        <time>2024-06-30T06:03:45Z</time>
      </trkpt>
      <trkpt lat="42.72675" lon="1.81011">
        <ele>678.8</ele>
        <time>2024-06-30T06:03:46Z</time>
      </trkpt>
      <trkpt lat="42.72679" lon="1.81">
        <ele>678.8</ele>
        <time>2024-06-30T06:03:48Z</time>
      </trkpt>
      <trkpt lat="42.72682" lon="1.80994">
        <ele>678.8</ele>
        <time>2024-06-30T06:03:49Z</time>
      </trkpt>
      <trkpt lat="42.72684" lon="1.80988">
        <ele>678.8</ele>
        <time>2024-06-30T06:03:50Z</time>
      </trkpt>
      <trkpt lat="42.72687" lon="1.80982">
        <ele>678.8</ele>
        <time>2024-06-30T06:03:51Z</time>
      </trkpt>
      <trkpt lat="42.72688" lon="1.80975">
        <ele>678.8</ele>
        <time>2024-06-30T06:03:52Z</time>
      </trkpt>
      <trkpt lat="42.72689" lon="1.80969">
        <ele>679</ele>
        <time>2024-06-30T06:03:53Z</time>
      </trkpt>
      <trkpt lat="42.72692" lon="1.80963">
        <ele>679</ele>
        <time>2024-06-30T06:03:54Z</time>
      </trkpt>
      <trkpt lat="42.72695" lon="1.80957">
        <ele>679</ele>
        <time>2024-06-30T06:03:55Z</time>
      </trkpt>
      <trkpt lat="42.727" lon="1.8095">
        <ele>679.2</ele>
        <time>2024-06-30T06:03:56Z</time>
      </trkpt>
      <trkpt lat="42.72701" lon="1.80943">
        <ele>679.4</ele>
        <time>2024-06-30T06:03:57Z</time>
      </trkpt>
      <trkpt lat="42.72703" lon="1.80937">
        <ele>679.4</ele>
        <time>2024-06-30T06:03:58Z</time>
      </trkpt>
      <trkpt lat="42.7271" lon="1.80923">
        <ele>679.6</ele>
        <time>2024-06-30T06:04:00Z</time>
      </trkpt>
      <trkpt lat="42.72714" lon="1.80917">
        <ele>679.6</ele>
        <time>2024-06-30T06:04:01Z</time>
      </trkpt>
      <trkpt lat="42.72719" lon="1.80912">
        <ele>679.6</ele>
        <time>2024-06-30T06:04:02Z</time>
      </trkpt>
      <trkpt lat="42.72724" lon="1.80906">
        <ele>679.6</ele>
        <time>2024-06-30T06:04:03Z</time>
      </trkpt>
      <trkpt lat="42.72729" lon="1.809">
        <ele>679.6</ele>
        <time>2024-06-30T06:04:04Z</time>
      </trkpt>
      <trkpt lat="42.72742" lon="1.80884">
        <ele>679.6</ele>
        <time>2024-06-30T06:04:07Z</time>
      </trkpt>
      <trkpt lat="42.72753" lon="1.80869">
        <ele>679.8</ele>
        <time>2024-06-30T06:04:10Z</time>
      </trkpt>
      <trkpt lat="42.72764" lon="1.80855">
        <ele>680.2</ele>
        <time>2024-06-30T06:04:13Z</time>
      </trkpt>
      <trkpt lat="42.72768" lon="1.8085">
        <ele>680.2</ele>
        <time>2024-06-30T06:04:14Z</time>
      </trkpt>
      <trkpt lat="42.72771" lon="1.80845">
        <ele>680.6</ele>
        <time>2024-06-30T06:04:15Z</time>
      </trkpt>
      <trkpt lat="42.72774" lon="1.80839">
        <ele>680.8</ele>
        <time>2024-06-30T06:04:16Z</time>
      </trkpt>
      <trkpt lat="42.72789" lon="1.80816">
        <ele>681.2</ele>
        <time>2024-06-30T06:04:20Z</time>
      </trkpt>
      <trkpt lat="42.72798" lon="1.80808">
        <ele>681.2</ele>
        <time>2024-06-30T06:04:22Z</time>
      </trkpt>
      <trkpt lat="42.72803" lon="1.80806">
        <ele>681.2</ele>
        <time>2024-06-30T06:04:23Z</time>
      </trkpt>
      <trkpt lat="42.72808" lon="1.80804">
        <ele>681.2</ele>
        <time>2024-06-30T06:04:24Z</time>
      </trkpt>
      <trkpt lat="42.72813" lon="1.80801">
        <ele>681.2</ele>
        <time>2024-06-30T06:04:25Z</time>
      </trkpt>
      <trkpt lat="42.72818" lon="1.80797">
        <ele>681</ele>
        <time>2024-06-30T06:04:26Z</time>
      </trkpt>
      <trkpt lat="42.72832" lon="1.80788">
        <ele>680.6</ele>
        <time>2024-06-30T06:04:29Z</time>
      </trkpt>
      <trkpt lat="42.72838" lon="1.80784">
        <ele>680.6</ele>
        <time>2024-06-30T06:04:30Z</time>
      </trkpt>
      <trkpt lat="42.72843" lon="1.80781">
        <ele>680.4</ele>
        <time>2024-06-30T06:04:31Z</time>
      </trkpt>
      <trkpt lat="42.72849" lon="1.80779">
        <ele>680.2</ele>
        <time>2024-06-30T06:04:32Z</time>
      </trkpt>
      <trkpt lat="42.72861" lon="1.80772">
        <ele>679.8</ele>
        <time>2024-06-30T06:04:34Z</time>
      </trkpt>
      <trkpt lat="42.72882" lon="1.80761">
        <ele>679.2</ele>
        <time>2024-06-30T06:04:37Z</time>
      </trkpt>
      <trkpt lat="42.7289" lon="1.80755">
        <ele>679</ele>
        <time>2024-06-30T06:04:38Z</time>
      </trkpt>
      <trkpt lat="42.72905" lon="1.80745">
        <ele>678.6</ele>
        <time>2024-06-30T06:04:40Z</time>
      </trkpt>
      <trkpt lat="42.72911" lon="1.80741">
        <ele>678.4</ele>
        <time>2024-06-30T06:04:41Z</time>
      </trkpt>
      <trkpt lat="42.72942" lon="1.80724">
        <ele>677.6</ele>
        <time>2024-06-30T06:04:45Z</time>
      </trkpt>
      <trkpt lat="42.72956" lon="1.80716">
        <ele>677.2</ele>
        <time>2024-06-30T06:04:47Z</time>
      </trkpt>
      <trkpt lat="42.72982" lon="1.80705">
        <ele>676.6</ele>
        <time>2024-06-30T06:04:51Z</time>
      </trkpt>
      <trkpt lat="42.72994" lon="1.80701">
        <ele>676.4</ele>
        <time>2024-06-30T06:04:53Z</time>
      </trkpt>
      <trkpt lat="42.73" lon="1.80698">
        <ele>676.4</ele>
        <time>2024-06-30T06:04:54Z</time>
      </trkpt>
      <trkpt lat="42.73012" lon="1.80695">
        <ele>676.2</ele>
        <time>2024-06-30T06:04:56Z</time>
      </trkpt>
      <trkpt lat="42.73017" lon="1.80693">
        <ele>676.2</ele>
        <time>2024-06-30T06:04:57Z</time>
      </trkpt>
      <trkpt lat="42.73023" lon="1.80691">
        <ele>676</ele>
        <time>2024-06-30T06:04:58Z</time>
      </trkpt>
      <trkpt lat="42.73062" lon="1.80676">
        <ele>675.4</ele>
        <time>2024-06-30T06:05:04Z</time>
      </trkpt>
      <trkpt lat="42.73068" lon="1.80673">
        <ele>675.4</ele>
        <time>2024-06-30T06:05:05Z</time>
      </trkpt>
      <trkpt lat="42.73081" lon="1.80667">
        <ele>675.2</ele>
        <time>2024-06-30T06:05:07Z</time>
      </trkpt>
      <trkpt lat="42.73092" lon="1.80658">
        <ele>675.2</ele>
        <time>2024-06-30T06:05:09Z</time>
      </trkpt>
      <trkpt lat="42.73097" lon="1.80652">
        <ele>675.2</ele>
        <time>2024-06-30T06:05:10Z</time>
      </trkpt>
      <trkpt lat="42.73112" lon="1.80635">
        <ele>675.4</ele>
        <time>2024-06-30T06:05:13Z</time>
      </trkpt>
      <trkpt lat="42.73118" lon="1.80632">
        <ele>675.4</ele>
        <time>2024-06-30T06:05:14Z</time>
      </trkpt>
      <trkpt lat="42.73129" lon="1.80628">
        <ele>675.2</ele>
        <time>2024-06-30T06:05:16Z</time>
      </trkpt>
      <trkpt lat="42.73132" lon="1.8063">
        <ele>675.2</ele>
        <time>2024-06-30T06:05:17Z</time>
      </trkpt>
      <trkpt lat="42.73133" lon="1.80632">
        <ele>675.2</ele>
        <time>2024-06-30T06:05:18Z</time>
      </trkpt>
      <trkpt lat="42.73135" lon="1.80636">
        <ele>675</ele>
        <time>2024-06-30T06:05:19Z</time>
      </trkpt>
      <trkpt lat="42.73137" lon="1.8064">
        <ele>675</ele>
        <time>2024-06-30T06:05:20Z</time>
      </trkpt>
      <trkpt lat="42.7314" lon="1.80644">
        <ele>674.8</ele>
        <time>2024-06-30T06:05:21Z</time>
      </trkpt>
      <trkpt lat="42.73141" lon="1.80646">
        <ele>674.6</ele>
        <time>2024-06-30T06:05:22Z</time>
      </trkpt>
      <trkpt lat="42.73142" lon="1.8065">
        <ele>674.4</ele>
        <time>2024-06-30T06:05:23Z</time>
      </trkpt>
      <trkpt lat="42.73143" lon="1.8065">
        <ele>674.2</ele>
        <time>2024-06-30T06:05:24Z</time>
      </trkpt>
      <trkpt lat="42.73144" lon="1.80648">
        <ele>674</ele>
        <time>2024-06-30T06:05:25Z</time>
      </trkpt>
      <trkpt lat="42.73147" lon="1.80643">
        <ele>673.8</ele>
        <time>2024-06-30T06:05:26Z</time>
      </trkpt>
      <trkpt lat="42.73148" lon="1.80639">
        <ele>673.8</ele>
        <time>2024-06-30T06:05:27Z</time>
      </trkpt>
      <trkpt lat="42.73149" lon="1.80634">
        <ele>673.6</ele>
        <time>2024-06-30T06:05:28Z</time>
      </trkpt>
      <trkpt lat="42.73149" lon="1.80628">
        <ele>673.6</ele>
        <time>2024-06-30T06:05:29Z</time>
      </trkpt>
      <trkpt lat="42.73149" lon="1.80621">
        <ele>673.4</ele>
        <time>2024-06-30T06:05:30Z</time>
      </trkpt>
      <trkpt lat="42.73149" lon="1.80574">
        <ele>673.8</ele>
        <time>2024-06-30T06:05:36Z</time>
      </trkpt>
      <trkpt lat="42.73149" lon="1.80548">
        <ele>674.4</ele>
        <time>2024-06-30T06:05:39Z</time>
      </trkpt>
      <trkpt lat="42.73147" lon="1.80495">
        <ele>674.4</ele>
        <time>2024-06-30T06:05:45Z</time>
      </trkpt>
      <trkpt lat="42.73146" lon="1.8048">
        <ele>674.4</ele>
        <time>2024-06-30T06:05:47Z</time>
      </trkpt>
      <trkpt lat="42.73149" lon="1.80464">
        <ele>674.4</ele>
        <time>2024-06-30T06:05:49Z</time>
      </trkpt>
      <trkpt lat="42.73161" lon="1.80415">
        <ele>674.4</ele>
        <time>2024-06-30T06:05:55Z</time>
      </trkpt>
      <trkpt lat="42.73163" lon="1.80407">
        <ele>674.4</ele>
        <time>2024-06-30T06:05:56Z</time>
      </trkpt>
      <trkpt lat="42.73165" lon="1.80398">
        <ele>674.6</ele>
        <time>2024-06-30T06:05:57Z</time>
      </trkpt>
      <trkpt lat="42.73184" lon="1.80348">
        <ele>675</ele>
        <time>2024-06-30T06:06:03Z</time>
      </trkpt>
      <trkpt lat="42.73209" lon="1.80305">
        <ele>674.6</ele>
        <time>2024-06-30T06:06:09Z</time>
      </trkpt>
      <trkpt lat="42.73222" lon="1.80284">
        <ele>674.2</ele>
        <time>2024-06-30T06:06:12Z</time>
      </trkpt>
      <trkpt lat="42.73226" lon="1.80278">
        <ele>674</ele>
        <time>2024-06-30T06:06:13Z</time>
      </trkpt>
      <trkpt lat="42.73231" lon="1.80272">
        <ele>674</ele>
        <time>2024-06-30T06:06:14Z</time>
      </trkpt>
      <trkpt lat="42.73235" lon="1.80265">
        <ele>674</ele>
        <time>2024-06-30T06:06:15Z</time>
      </trkpt>
      <trkpt lat="42.73239" lon="1.80259">
        <ele>673.8</ele>
        <time>2024-06-30T06:06:16Z</time>
      </trkpt>
      <trkpt lat="42.73244" lon="1.80252">
        <ele>673.8</ele>
        <time>2024-06-30T06:06:17Z</time>
      </trkpt>
      <trkpt lat="42.73248" lon="1.80245">
        <ele>673.8</ele>
        <time>2024-06-30T06:06:18Z</time>
      </trkpt>
      <trkpt lat="42.73252" lon="1.80239">
        <ele>673.8</ele>
        <time>2024-06-30T06:06:19Z</time>
      </trkpt>
      <trkpt lat="42.73257" lon="1.80232">
        <ele>673.8</ele>
        <time>2024-06-30T06:06:20Z</time>
      </trkpt>
      <trkpt lat="42.73288" lon="1.80183">
        <ele>673.8</ele>
        <time>2024-06-30T06:06:28Z</time>
      </trkpt>
      <trkpt lat="42.73291" lon="1.80177">
        <ele>673.8</ele>
        <time>2024-06-30T06:06:29Z</time>
      </trkpt>
      <trkpt lat="42.73295" lon="1.80172">
        <ele>673.8</ele>
        <time>2024-06-30T06:06:30Z</time>
      </trkpt>
      <trkpt lat="42.73298" lon="1.80168">
        <ele>674</ele>
        <time>2024-06-30T06:06:31Z</time>
      </trkpt>
      <trkpt lat="42.73302" lon="1.80165">
        <ele>674</ele>
        <time>2024-06-30T06:06:32Z</time>
      </trkpt>
      <trkpt lat="42.73305" lon="1.80161">
        <ele>674</ele>
        <time>2024-06-30T06:06:33Z</time>
      </trkpt>
      <trkpt lat="42.73309" lon="1.80157">
        <ele>674.2</ele>
        <time>2024-06-30T06:06:34Z</time>
      </trkpt>
      <trkpt lat="42.73312" lon="1.80154">
        <ele>674.2</ele>
        <time>2024-06-30T06:06:35Z</time>
      </trkpt>
      <trkpt lat="42.73315" lon="1.80151">
        <ele>674.4</ele>
        <time>2024-06-30T06:06:36Z</time>
      </trkpt>
      <trkpt lat="42.73319" lon="1.80147">
        <ele>674.6</ele>
        <time>2024-06-30T06:06:37Z</time>
      </trkpt>
      <trkpt lat="42.73324" lon="1.80143">
        <ele>675</ele>
        <time>2024-06-30T06:06:38Z</time>
      </trkpt>
      <trkpt lat="42.73328" lon="1.80139">
        <ele>675.2</ele>
        <time>2024-06-30T06:06:39Z</time>
      </trkpt>
      <trkpt lat="42.73336" lon="1.80127">
        <ele>675.6</ele>
        <time>2024-06-30T06:06:41Z</time>
      </trkpt>
      <trkpt lat="42.7334" lon="1.80121">
        <ele>675.6</ele>
        <time>2024-06-30T06:06:42Z</time>
      </trkpt>
      <trkpt lat="42.73353" lon="1.80089">
        <ele>675.6</ele>
        <time>2024-06-30T06:06:46Z</time>
      </trkpt>
      <trkpt lat="42.73363" lon="1.80064">
        <ele>675.6</ele>
        <time>2024-06-30T06:06:49Z</time>
      </trkpt>
      <trkpt lat="42.73367" lon="1.80056">
        <ele>675.6</ele>
        <time>2024-06-30T06:06:50Z</time>
      </trkpt>
      <trkpt lat="42.73375" lon="1.80032">
        <ele>675.4</ele>
        <time>2024-06-30T06:06:53Z</time>
      </trkpt>
      <trkpt lat="42.73383" lon="1.8">
        <ele>675.2</ele>
        <time>2024-06-30T06:06:57Z</time>
      </trkpt>
      <trkpt lat="42.73385" lon="1.79993">
        <ele>675.2</ele>
        <time>2024-06-30T06:06:58Z</time>
      </trkpt>
      <trkpt lat="42.73387" lon="1.79985">
        <ele>675</ele>
        <time>2024-06-30T06:06:59Z</time>
      </trkpt>
      <trkpt lat="42.73389" lon="1.79977">
        <ele>675</ele>
        <time>2024-06-30T06:07:00Z</time>
      </trkpt>
      <trkpt lat="42.73392" lon="1.7997">
        <ele>675</ele>
        <time>2024-06-30T06:07:01Z</time>
      </trkpt>
      <trkpt lat="42.73394" lon="1.79963">
        <ele>675</ele>
        <time>2024-06-30T06:07:02Z</time>
      </trkpt>
      <trkpt lat="42.73397" lon="1.79956">
        <ele>674.8</ele>
        <time>2024-06-30T06:07:03Z</time>
      </trkpt>
      <trkpt lat="42.73399" lon="1.79949">
        <ele>674.8</ele>
        <time>2024-06-30T06:07:04Z</time>
      </trkpt>
      <trkpt lat="42.73401" lon="1.79943">
        <ele>674.8</ele>
        <time>2024-06-30T06:07:05Z</time>
      </trkpt>
      <trkpt lat="42.73403" lon="1.79936">
        <ele>674.8</ele>
        <time>2024-06-30T06:07:06Z</time>
      </trkpt>
      <trkpt lat="42.73405" lon="1.7993">
        <ele>674.8</ele>
        <time>2024-06-30T06:07:07Z</time>
      </trkpt>
      <trkpt lat="42.73407" lon="1.79923">
        <ele>674.8</ele>
        <time>2024-06-30T06:07:08Z</time>
      </trkpt>
      <trkpt lat="42.73409" lon="1.79917">
        <ele>674.8</ele>
        <time>2024-06-30T06:07:09Z</time>
      </trkpt>
      <trkpt lat="42.73411" lon="1.7991">
        <ele>674.8</ele>
        <time>2024-06-30T06:07:10Z</time>
      </trkpt>
      <trkpt lat="42.73413" lon="1.79904">
        <ele>675</ele>
        <time>2024-06-30T06:07:11Z</time>
      </trkpt>
      <trkpt lat="42.73416" lon="1.79898">
        <ele>675</ele>
        <time>2024-06-30T06:07:12Z</time>
      </trkpt>
      <trkpt lat="42.73419" lon="1.79893">
        <ele>675.2</ele>
        <time>2024-06-30T06:07:13Z</time>
      </trkpt>
      <trkpt lat="42.73423" lon="1.79887">
        <ele>675.2</ele>
        <time>2024-06-30T06:07:14Z</time>
      </trkpt>
      <trkpt lat="42.73426" lon="1.79882">
        <ele>675.6</ele>
        <time>2024-06-30T06:07:15Z</time>
      </trkpt>
      <trkpt lat="42.73436" lon="1.79865">
        <ele>676</ele>
        <time>2024-06-30T06:07:18Z</time>
      </trkpt>
      <trkpt lat="42.73453" lon="1.79827">
        <ele>676.8</ele>
        <time>2024-06-30T06:07:24Z</time>
      </trkpt>
      <trkpt lat="42.73458" lon="1.7981">
        <ele>677</ele>
        <time>2024-06-30T06:07:27Z</time>
      </trkpt>
      <trkpt lat="42.7346" lon="1.79805">
        <ele>677.2</ele>
        <time>2024-06-30T06:07:28Z</time>
      </trkpt>
      <trkpt lat="42.73464" lon="1.79801">
        <ele>677.4</ele>
        <time>2024-06-30T06:07:29Z</time>
      </trkpt>
      <trkpt lat="42.73469" lon="1.79799">
        <ele>677.4</ele>
        <time>2024-06-30T06:07:30Z</time>
      </trkpt>
      <trkpt lat="42.73475" lon="1.79799">
        <ele>677.6</ele>
        <time>2024-06-30T06:07:31Z</time>
      </trkpt>
      <trkpt lat="42.73481" lon="1.79799">
        <ele>677.6</ele>
        <time>2024-06-30T06:07:32Z</time>
      </trkpt>
      <trkpt lat="42.73487" lon="1.798">
        <ele>677.8</ele>
        <time>2024-06-30T06:07:33Z</time>
      </trkpt>
      <trkpt lat="42.73493" lon="1.79801">
        <ele>678</ele>
        <time>2024-06-30T06:07:34Z</time>
      </trkpt>
      <trkpt lat="42.73511" lon="1.79802">
        <ele>678</ele>
        <time>2024-06-30T06:07:37Z</time>
      </trkpt>
      <trkpt lat="42.73517" lon="1.798">
        <ele>678</ele>
        <time>2024-06-30T06:07:38Z</time>
      </trkpt>
      <trkpt lat="42.73554" lon="1.79782">
        <ele>677.8</ele>
        <time>2024-06-30T06:07:44Z</time>
      </trkpt>
      <trkpt lat="42.73579" lon="1.7977">
        <ele>677.4</ele>
        <time>2024-06-30T06:07:48Z</time>
      </trkpt>
      <trkpt lat="42.73594" lon="1.79769">
        <ele>677.2</ele>
        <time>2024-06-30T06:07:50Z</time>
      </trkpt>
      <trkpt lat="42.7362" lon="1.79775">
        <ele>676.4</ele>
        <time>2024-06-30T06:07:53Z</time>
      </trkpt>
      <trkpt lat="42.73629" lon="1.79777">
        <ele>676.2</ele>
        <time>2024-06-30T06:07:54Z</time>
      </trkpt>
      <trkpt lat="42.73637" lon="1.79779">
        <ele>675.6</ele>
        <time>2024-06-30T06:07:55Z</time>
      </trkpt>
      <trkpt lat="42.73644" lon="1.79778">
        <ele>674.8</ele>
        <time>2024-06-30T06:07:56Z</time>
      </trkpt>
      <trkpt lat="42.73651" lon="1.79775">
        <ele>674.4</ele>
        <time>2024-06-30T06:07:57Z</time>
      </trkpt>
      <trkpt lat="42.73657" lon="1.7977">
        <ele>674</ele>
        <time>2024-06-30T06:07:58Z</time>
      </trkpt>
      <trkpt lat="42.73662" lon="1.79765">
        <ele>673.8</ele>
        <time>2024-06-30T06:07:59Z</time>
      </trkpt>
      <trkpt lat="42.73666" lon="1.7976">
        <ele>673.6</ele>
        <time>2024-06-30T06:08:00Z</time>
      </trkpt>
      <trkpt lat="42.73669" lon="1.79755">
        <ele>673.6</ele>
        <time>2024-06-30T06:08:01Z</time>
      </trkpt>
      <trkpt lat="42.73672" lon="1.7975">
        <ele>673.4</ele>
        <time>2024-06-30T06:08:02Z</time>
      </trkpt>
      <trkpt lat="42.73674" lon="1.79746">
        <ele>673.4</ele>
        <time>2024-06-30T06:08:03Z</time>
      </trkpt>
      <trkpt lat="42.73677" lon="1.79743">
        <ele>673.4</ele>
        <time>2024-06-30T06:08:04Z</time>
      </trkpt>
      <trkpt lat="42.7368" lon="1.7974">
        <ele>673.4</ele>
        <time>2024-06-30T06:08:05Z</time>
      </trkpt>
      <trkpt lat="42.73683" lon="1.79739">
        <ele>673.6</ele>
        <time>2024-06-30T06:08:06Z</time>
      </trkpt>
      <trkpt lat="42.73685" lon="1.79737">
        <ele>673.8</ele>
        <time>2024-06-30T06:08:07Z</time>
      </trkpt>
      <trkpt lat="42.73688" lon="1.79736">
        <ele>674</ele>
        <time>2024-06-30T06:08:08Z</time>
      </trkpt>
      <trkpt lat="42.73691" lon="1.79737">
        <ele>674.4</ele>
        <time>2024-06-30T06:08:09Z</time>
      </trkpt>
      <trkpt lat="42.73693" lon="1.79739">
        <ele>674.6</ele>
        <time>2024-06-30T06:08:10Z</time>
      </trkpt>
      <trkpt lat="42.73692" lon="1.79746">
        <ele>675.6</ele>
        <time>2024-06-30T06:08:12Z</time>
      </trkpt>
      <trkpt lat="42.73691" lon="1.79751">
        <ele>675.8</ele>
        <time>2024-06-30T06:08:13Z</time>
      </trkpt>
      <trkpt lat="42.73685" lon="1.79765">
        <ele>677.6</ele>
        <time>2024-06-30T06:08:16Z</time>
      </trkpt>
      <trkpt lat="42.73681" lon="1.79774">
        <ele>678</ele>
        <time>2024-06-30T06:08:18Z</time>
      </trkpt>
      <trkpt lat="42.73676" lon="1.79784">
        <ele>678.8</ele>
        <time>2024-06-30T06:08:20Z</time>
      </trkpt>
      <trkpt lat="42.7367" lon="1.79794">
        <ele>679.4</ele>
        <time>2024-06-30T06:08:22Z</time>
      </trkpt>
      <trkpt lat="42.73667" lon="1.798">
        <ele>679.6</ele>
        <time>2024-06-30T06:08:23Z</time>
      </trkpt>
      <trkpt lat="42.73663" lon="1.79805">
        <ele>679.8</ele>
        <time>2024-06-30T06:08:24Z</time>
      </trkpt>
      <trkpt lat="42.73659" lon="1.79812">
        <ele>680</ele>
        <time>2024-06-30T06:08:25Z</time>
      </trkpt>
      <trkpt lat="42.73656" lon="1.7982">
        <ele>680</ele>
        <time>2024-06-30T06:08:26Z</time>
      </trkpt>
      <trkpt lat="42.73655" lon="1.79829">
        <ele>680</ele>
        <time>2024-06-30T06:08:27Z</time>
      </trkpt>
      <trkpt lat="42.73654" lon="1.79837">
        <ele>680</ele>
        <time>2024-06-30T06:08:28Z</time>
      </trkpt>
      <trkpt lat="42.73653" lon="1.79844">
        <ele>680</ele>
        <time>2024-06-30T06:08:29Z</time>
      </trkpt>
      <trkpt lat="42.73651" lon="1.7985">
        <ele>680</ele>
        <time>2024-06-30T06:08:30Z</time>
      </trkpt>
      <trkpt lat="42.73649" lon="1.79855">
        <ele>680</ele>
        <time>2024-06-30T06:08:31Z</time>
      </trkpt>
      <trkpt lat="42.73647" lon="1.7986">
        <ele>680.2</ele>
        <time>2024-06-30T06:08:32Z</time>
      </trkpt>
      <trkpt lat="42.73645" lon="1.79865">
        <ele>680.2</ele>
        <time>2024-06-30T06:08:33Z</time>
      </trkpt>
      <trkpt lat="42.73644" lon="1.79871">
        <ele>680.2</ele>
        <time>2024-06-30T06:08:34Z</time>
      </trkpt>
      <trkpt lat="42.73642" lon="1.79876">
        <ele>680.2</ele>
        <time>2024-06-30T06:08:35Z</time>
      </trkpt>
      <trkpt lat="42.7364" lon="1.79881">
        <ele>680.4</ele>
        <time>2024-06-30T06:08:36Z</time>
      </trkpt>
      <trkpt lat="42.73639" lon="1.79885">
        <ele>680.6</ele>
        <time>2024-06-30T06:08:37Z</time>
      </trkpt>
      <trkpt lat="42.73639" lon="1.79889">
        <ele>680.8</ele>
        <time>2024-06-30T06:08:38Z</time>
      </trkpt>
      <trkpt lat="42.73639" lon="1.79893">
        <ele>681.2</ele>
        <time>2024-06-30T06:08:39Z</time>
      </trkpt>
      <trkpt lat="42.7364" lon="1.79895">
        <ele>681.4</ele>
        <time>2024-06-30T06:08:40Z</time>
      </trkpt>
      <trkpt lat="42.73642" lon="1.79896">
        <ele>682.8</ele>
        <time>2024-06-30T06:08:41Z</time>
      </trkpt>
      <trkpt lat="42.73643" lon="1.79894">
        <ele>683</ele>
        <time>2024-06-30T06:08:42Z</time>
      </trkpt>
      <trkpt lat="42.73645" lon="1.7989">
        <ele>683.8</ele>
        <time>2024-06-30T06:08:43Z</time>
      </trkpt>
      <trkpt lat="42.73647" lon="1.79886">
        <ele>684.2</ele>
        <time>2024-06-30T06:08:44Z</time>
      </trkpt>
      <trkpt lat="42.73648" lon="1.79882">
        <ele>685.2</ele>
        <time>2024-06-30T06:08:45Z</time>
      </trkpt>
      <trkpt lat="42.7365" lon="1.79878">
        <ele>686</ele>
        <time>2024-06-30T06:08:46Z</time>
      </trkpt>
      <trkpt lat="42.73653" lon="1.79874">
        <ele>686.2</ele>
        <time>2024-06-30T06:08:47Z</time>
      </trkpt>
      <trkpt lat="42.73656" lon="1.79871">
        <ele>686.6</ele>
        <time>2024-06-30T06:08:48Z</time>
      </trkpt>
      <trkpt lat="42.73658" lon="1.79868">
        <ele>686.6</ele>
        <time>2024-06-30T06:08:49Z</time>
      </trkpt>
      <trkpt lat="42.7366" lon="1.79864">
        <ele>687.2</ele>
        <time>2024-06-30T06:08:50Z</time>
      </trkpt>
      <trkpt lat="42.73663" lon="1.79861">
        <ele>687.6</ele>
        <time>2024-06-30T06:08:51Z</time>
      </trkpt>
      <trkpt lat="42.73666" lon="1.79857">
        <ele>688.6</ele>
        <time>2024-06-30T06:08:52Z</time>
      </trkpt>
      <trkpt lat="42.73668" lon="1.79854">
        <ele>689.2</ele>
        <time>2024-06-30T06:08:53Z</time>
      </trkpt>
      <trkpt lat="42.73671" lon="1.79851">
        <ele>690.2</ele>
        <time>2024-06-30T06:08:54Z</time>
      </trkpt>
      <trkpt lat="42.73675" lon="1.79847">
        <ele>691</ele>
        <time>2024-06-30T06:08:55Z</time>
      </trkpt>
      <trkpt lat="42.73677" lon="1.79845">
        <ele>691.4</ele>
        <time>2024-06-30T06:08:56Z</time>
      </trkpt>
      <trkpt lat="42.7368" lon="1.79841">
        <ele>692</ele>
        <time>2024-06-30T06:08:57Z</time>
      </trkpt>
      <trkpt lat="42.73683" lon="1.79838">
        <ele>692.4</ele>
        <time>2024-06-30T06:08:58Z</time>
      </trkpt>
      <trkpt lat="42.73685" lon="1.79835">
        <ele>693.4</ele>
        <time>2024-06-30T06:08:59Z</time>
      </trkpt>
      <trkpt lat="42.73688" lon="1.79832">
        <ele>693.8</ele>
        <time>2024-06-30T06:09:00Z</time>
      </trkpt>
      <trkpt lat="42.73691" lon="1.79829">
        <ele>694.8</ele>
        <time>2024-06-30T06:09:01Z</time>
      </trkpt>
      <trkpt lat="42.73694" lon="1.79826">
        <ele>695.2</ele>
        <time>2024-06-30T06:09:02Z</time>
      </trkpt>
      <trkpt lat="42.73697" lon="1.79823">
        <ele>696.4</ele>
        <time>2024-06-30T06:09:03Z</time>
      </trkpt>
      <trkpt lat="42.737" lon="1.7982">
        <ele>697.4</ele>
        <time>2024-06-30T06:09:04Z</time>
      </trkpt>
      <trkpt lat="42.73702" lon="1.79818">
        <ele>697.8</ele>
        <time>2024-06-30T06:09:05Z</time>
      </trkpt>
      <trkpt lat="42.73705" lon="1.79817">
        <ele>698.4</ele>
        <time>2024-06-30T06:09:06Z</time>
      </trkpt>
      <trkpt lat="42.73708" lon="1.79816">
        <ele>698.6</ele>
        <time>2024-06-30T06:09:07Z</time>
      </trkpt>
      <trkpt lat="42.73711" lon="1.79818">
        <ele>699.2</ele>
        <time>2024-06-30T06:09:08Z</time>
      </trkpt>
      <trkpt lat="42.73714" lon="1.7982">
        <ele>699.6</ele>
        <time>2024-06-30T06:09:09Z</time>
      </trkpt>
      <trkpt lat="42.73717" lon="1.79823">
        <ele>700.2</ele>
        <time>2024-06-30T06:09:10Z</time>
      </trkpt>
      <trkpt lat="42.73718" lon="1.79825">
        <ele>700.8</ele>
        <time>2024-06-30T06:09:11Z</time>
      </trkpt>
      <trkpt lat="42.7372" lon="1.79828">
        <ele>701</ele>
        <time>2024-06-30T06:09:12Z</time>
      </trkpt>
      <trkpt lat="42.73722" lon="1.7983">
        <ele>701.6</ele>
        <time>2024-06-30T06:09:13Z</time>
      </trkpt>
      <trkpt lat="42.73723" lon="1.7983">
        <ele>702</ele>
        <time>2024-06-30T06:09:14Z</time>
      </trkpt>
      <trkpt lat="42.73726" lon="1.79829">
        <ele>702.2</ele>
        <time>2024-06-30T06:09:15Z</time>
      </trkpt>
      <trkpt lat="42.73728" lon="1.79828">
        <ele>702.4</ele>
        <time>2024-06-30T06:09:16Z</time>
      </trkpt>
      <trkpt lat="42.73731" lon="1.79828">
        <ele>702.6</ele>
        <time>2024-06-30T06:09:17Z</time>
      </trkpt>
      <trkpt lat="42.73734" lon="1.79826">
        <ele>702.8</ele>
        <time>2024-06-30T06:09:18Z</time>
      </trkpt>
      <trkpt lat="42.73736" lon="1.79825">
        <ele>703</ele>
        <time>2024-06-30T06:09:19Z</time>
      </trkpt>
      <trkpt lat="42.73738" lon="1.79823">
        <ele>703.2</ele>
        <time>2024-06-30T06:09:20Z</time>
      </trkpt>
      <trkpt lat="42.7374" lon="1.79822">
        <ele>703.4</ele>
        <time>2024-06-30T06:09:21Z</time>
      </trkpt>
      <trkpt lat="42.73741" lon="1.79821">
        <ele>703.4</ele>
        <time>2024-06-30T06:09:22Z</time>
      </trkpt>
      <trkpt lat="42.73742" lon="1.79821">
        <ele>703.6</ele>
        <time>2024-06-30T06:09:23Z</time>
      </trkpt>
      <trkpt lat="42.73744" lon="1.7982">
        <ele>704</ele>
        <time>2024-06-30T06:09:24Z</time>
      </trkpt>
      <trkpt lat="42.73746" lon="1.7982">
        <ele>704.2</ele>
        <time>2024-06-30T06:09:25Z</time>
      </trkpt>
      <trkpt lat="42.73747" lon="1.79819">
        <ele>704.4</ele>
        <time>2024-06-30T06:09:26Z</time>
      </trkpt>
      <trkpt lat="42.73748" lon="1.79818">
        <ele>704.4</ele>
        <time>2024-06-30T06:09:27Z</time>
      </trkpt>
      <trkpt lat="42.73748" lon="1.79818">
        <ele>704.4</ele>
        <time>2024-06-30T06:09:28Z</time>
      </trkpt>
      <trkpt lat="42.7375" lon="1.79817">
        <ele>704.6</ele>
        <time>2024-06-30T06:09:30Z</time>
      </trkpt>
      <trkpt lat="42.73753" lon="1.79816">
        <ele>704.6</ele>
        <time>2024-06-30T06:09:31Z</time>
      </trkpt>
      <trkpt lat="42.73754" lon="1.79816">
        <ele>704.6</ele>
        <time>2024-06-30T06:09:32Z</time>
      </trkpt>
      <trkpt lat="42.73755" lon="1.79815">
        <ele>704.6</ele>
        <time>2024-06-30T06:09:33Z</time>
      </trkpt>
      <trkpt lat="42.73757" lon="1.79814">
        <ele>704.6</ele>
        <time>2024-06-30T06:09:34Z</time>
      </trkpt>
      <trkpt lat="42.73758" lon="1.79813">
        <ele>704.6</ele>
        <time>2024-06-30T06:09:35Z</time>
      </trkpt>
      <trkpt lat="42.73759" lon="1.79812">
        <ele>704.6</ele>
        <time>2024-06-30T06:09:36Z</time>
      </trkpt>
      <trkpt lat="42.7376" lon="1.79812">
        <ele>704.6</ele>
        <time>2024-06-30T06:09:37Z</time>
      </trkpt>
      <trkpt lat="42.7376" lon="1.79811">
        <ele>704.6</ele>
        <time>2024-06-30T06:09:38Z</time>
      </trkpt>
      <trkpt lat="42.73761" lon="1.7981">
        <ele>704.6</ele>
        <time>2024-06-30T06:09:39Z</time>
      </trkpt>
      <trkpt lat="42.73762" lon="1.79808">
        <ele>704.6</ele>
        <time>2024-06-30T06:09:40Z</time>
      </trkpt>
      <trkpt lat="42.73763" lon="1.79806">
        <ele>704.4</ele>
        <time>2024-06-30T06:09:41Z</time>
      </trkpt>
      <trkpt lat="42.73764" lon="1.79804">
        <ele>704.4</ele>
        <time>2024-06-30T06:09:42Z</time>
      </trkpt>
      <trkpt lat="42.73766" lon="1.79799">
        <ele>704.4</ele>
        <time>2024-06-30T06:09:43Z</time>
      </trkpt>
      <trkpt lat="42.73768" lon="1.79796">
        <ele>704.4</ele>
        <time>2024-06-30T06:09:44Z</time>
      </trkpt>
      <trkpt lat="42.7377" lon="1.79794">
        <ele>704.4</ele>
        <time>2024-06-30T06:09:45Z</time>
      </trkpt>
      <trkpt lat="42.73771" lon="1.79791">
        <ele>704.2</ele>
        <time>2024-06-30T06:09:46Z</time>
      </trkpt>
      <trkpt lat="42.73771" lon="1.79789">
        <ele>704.2</ele>
        <time>2024-06-30T06:09:47Z</time>
      </trkpt>
      <trkpt lat="42.73772" lon="1.79787">
        <ele>704.2</ele>
        <time>2024-06-30T06:09:48Z</time>
      </trkpt>
      <trkpt lat="42.73773" lon="1.79786">
        <ele>704.4</ele>
        <time>2024-06-30T06:09:49Z</time>
      </trkpt>
      <trkpt lat="42.73774" lon="1.79785">
        <ele>704.4</ele>
        <time>2024-06-30T06:09:50Z</time>
      </trkpt>
      <trkpt lat="42.73776" lon="1.79782">
        <ele>704.6</ele>
        <time>2024-06-30T06:09:51Z</time>
      </trkpt>
      <trkpt lat="42.73778" lon="1.79781">
        <ele>704.6</ele>
        <time>2024-06-30T06:09:52Z</time>
      </trkpt>
      <trkpt lat="42.73781" lon="1.79779">
        <ele>704.6</ele>
        <time>2024-06-30T06:09:53Z</time>
      </trkpt>
      <trkpt lat="42.73781" lon="1.79779">
        <ele>704.8</ele>
        <time>2024-06-30T06:09:54Z</time>
      </trkpt>
      <trkpt lat="42.73782" lon="1.79778">
        <ele>705.2</ele>
        <time>2024-06-30T06:09:56Z</time>
      </trkpt>
      <trkpt lat="42.73783" lon="1.79778">
        <ele>705.2</ele>
        <time>2024-06-30T06:09:57Z</time>
      </trkpt>
      <trkpt lat="42.73784" lon="1.79777">
        <ele>705.6</ele>
        <time>2024-06-30T06:09:58Z</time>
      </trkpt>
      <trkpt lat="42.73786" lon="1.79775">
        <ele>705.8</ele>
        <time>2024-06-30T06:09:59Z</time>
      </trkpt>
      <trkpt lat="42.73787" lon="1.79774">
        <ele>706.2</ele>
        <time>2024-06-30T06:10:00Z</time>
      </trkpt>
      <trkpt lat="42.73788" lon="1.79772">
        <ele>706.4</ele>
        <time>2024-06-30T06:10:01Z</time>
      </trkpt>
      <trkpt lat="42.7379" lon="1.79771">
        <ele>706.4</ele>
        <time>2024-06-30T06:10:02Z</time>
      </trkpt>
      <trkpt lat="42.73791" lon="1.7977">
        <ele>706.6</ele>
        <time>2024-06-30T06:10:03Z</time>
      </trkpt>
      <trkpt lat="42.73792" lon="1.79769">
        <ele>706.6</ele>
        <time>2024-06-30T06:10:04Z</time>
      </trkpt>
      <trkpt lat="42.73793" lon="1.79768">
        <ele>706.8</ele>
        <time>2024-06-30T06:10:05Z</time>
      </trkpt>
      <trkpt lat="42.73795" lon="1.79767">
        <ele>706.8</ele>
        <time>2024-06-30T06:10:06Z</time>
      </trkpt>
      <trkpt lat="42.73797" lon="1.79765">
        <ele>706.8</ele>
        <time>2024-06-30T06:10:07Z</time>
      </trkpt>
      <trkpt lat="42.73799" lon="1.79764">
        <ele>706.8</ele>
        <time>2024-06-30T06:10:08Z</time>
      </trkpt>
      <trkpt lat="42.73801" lon="1.79763">
        <ele>706.8</ele>
        <time>2024-06-30T06:10:09Z</time>
      </trkpt>
      <trkpt lat="42.73804" lon="1.79761">
        <ele>706.8</ele>
        <time>2024-06-30T06:10:10Z</time>
      </trkpt>
      <trkpt lat="42.73805" lon="1.79761">
        <ele>706.8</ele>
        <time>2024-06-30T06:10:11Z</time>
      </trkpt>
      <trkpt lat="42.73807" lon="1.7976">
        <ele>706.8</ele>
        <time>2024-06-30T06:10:12Z</time>
      </trkpt>
      <trkpt lat="42.73808" lon="1.79759">
        <ele>706.8</ele>
        <time>2024-06-30T06:10:13Z</time>
      </trkpt>
      <trkpt lat="42.73809" lon="1.79758">
        <ele>706.8</ele>
        <time>2024-06-30T06:10:14Z</time>
      </trkpt>
      <trkpt lat="42.73809" lon="1.79758">
        <ele>706.8</ele>
        <time>2024-06-30T06:10:15Z</time>
      </trkpt>
      <trkpt lat="42.7381" lon="1.79758">
        <ele>706.8</ele>
        <time>2024-06-30T06:10:16Z</time>
      </trkpt>
      <trkpt lat="42.7381" lon="1.79758">
        <ele>706.8</ele>
        <time>2024-06-30T06:10:17Z</time>
      </trkpt>
      <trkpt lat="42.73811" lon="1.79757">
        <ele>706.8</ele>
        <time>2024-06-30T06:10:18Z</time>
      </trkpt>
      <trkpt lat="42.73811" lon="1.79757">
        <ele>706.8</ele>
        <time>2024-06-30T06:10:19Z</time>
      </trkpt>
      <trkpt lat="42.73811" lon="1.79757">
        <ele>706.8</ele>
        <time>2024-06-30T06:10:20Z</time>
      </trkpt>
      <trkpt lat="42.73811" lon="1.79757">
        <ele>706.8</ele>
        <time>2024-06-30T06:10:21Z</time>
      </trkpt>
      <trkpt lat="42.73811" lon="1.79757">
        <ele>706.8</ele>
        <time>2024-06-30T06:10:22Z</time>
      </trkpt>
      <trkpt lat="42.73811" lon="1.79757">
        <ele>706.8</ele>
        <time>2024-06-30T06:10:23Z</time>
      </trkpt>
      <trkpt lat="42.73813" lon="1.79755">
        <ele>706.8</ele>
        <time>2024-06-30T06:10:24Z</time>
      </trkpt>
      <trkpt lat="42.73814" lon="1.79754">
        <ele>706.8</ele>
        <time>2024-06-30T06:10:25Z</time>
      </trkpt>
      <trkpt lat="42.73816" lon="1.79752">
        <ele>706.8</ele>
        <time>2024-06-30T06:10:26Z</time>
      </trkpt>
      <trkpt lat="42.73819" lon="1.7975">
        <ele>706.8</ele>
        <time>2024-06-30T06:10:27Z</time>
      </trkpt>
      <trkpt lat="42.73822" lon="1.79747">
        <ele>706.8</ele>
        <time>2024-06-30T06:10:28Z</time>
      </trkpt>
      <trkpt lat="42.73826" lon="1.79745">
        <ele>706.8</ele>
        <time>2024-06-30T06:10:31Z</time>
      </trkpt>
      <trkpt lat="42.73826" lon="1.79744">
        <ele>706.8</ele>
        <time>2024-06-30T06:10:32Z</time>
      </trkpt>
      <trkpt lat="42.73826" lon="1.79744">
        <ele>706.8</ele>
        <time>2024-06-30T06:10:33Z</time>
      </trkpt>
      <trkpt lat="42.73832" lon="1.79739">
        <ele>706.8</ele>
        <time>2024-06-30T06:10:35Z</time>
      </trkpt>
      <trkpt lat="42.73834" lon="1.79735">
        <ele>706.8</ele>
        <time>2024-06-30T06:10:38Z</time>
      </trkpt>
      <trkpt lat="42.7384" lon="1.79733">
        <ele>706.8</ele>
        <time>2024-06-30T06:10:45Z</time>
      </trkpt>
      <trkpt lat="42.73842" lon="1.79733">
        <ele>706.8</ele>
        <time>2024-06-30T06:10:46Z</time>
      </trkpt>
      <trkpt lat="42.73849" lon="1.79718">
        <ele>706.8</ele>
        <time>2024-06-30T06:10:50Z</time>
      </trkpt>
      <trkpt lat="42.73853" lon="1.79709">
        <ele>706.8</ele>
        <time>2024-06-30T06:10:54Z</time>
      </trkpt>
      <trkpt lat="42.7386" lon="1.79694">
        <ele>707.2</ele>
        <time>2024-06-30T06:10:59Z</time>
      </trkpt>
      <trkpt lat="42.73862" lon="1.79691">
        <ele>707.4</ele>
        <time>2024-06-30T06:11:00Z</time>
      </trkpt>
      <trkpt lat="42.73863" lon="1.79688">
        <ele>707.4</ele>
        <time>2024-06-30T06:11:01Z</time>
      </trkpt>
      <trkpt lat="42.73864" lon="1.79685">
        <ele>707.8</ele>
        <time>2024-06-30T06:11:02Z</time>
      </trkpt>
      <trkpt lat="42.73868" lon="1.79673">
        <ele>708</ele>
        <time>2024-06-30T06:11:06Z</time>
      </trkpt>
      <trkpt lat="42.73869" lon="1.79671">
        <ele>708</ele>
        <time>2024-06-30T06:11:07Z</time>
      </trkpt>
      <trkpt lat="42.7387" lon="1.79668">
        <ele>707.8</ele>
        <time>2024-06-30T06:11:08Z</time>
      </trkpt>
      <trkpt lat="42.73872" lon="1.79665">
        <ele>707.8</ele>
        <time>2024-06-30T06:11:09Z</time>
      </trkpt>
      <trkpt lat="42.73872" lon="1.79662">
        <ele>707.6</ele>
        <time>2024-06-30T06:11:10Z</time>
      </trkpt>
      <trkpt lat="42.73872" lon="1.79659">
        <ele>707.6</ele>
        <time>2024-06-30T06:11:11Z</time>
      </trkpt>
      <trkpt lat="42.73873" lon="1.79656">
        <ele>707.6</ele>
        <time>2024-06-30T06:11:12Z</time>
      </trkpt>
      <trkpt lat="42.73875" lon="1.79655">
        <ele>707.6</ele>
        <time>2024-06-30T06:11:13Z</time>
      </trkpt>
      <trkpt lat="42.73877" lon="1.79653">
        <ele>707.4</ele>
        <time>2024-06-30T06:11:14Z</time>
      </trkpt>
      <trkpt lat="42.73878" lon="1.7965">
        <ele>707.4</ele>
        <time>2024-06-30T06:11:15Z</time>
      </trkpt>
      <trkpt lat="42.73879" lon="1.79646">
        <ele>707.4</ele>
        <time>2024-06-30T06:11:16Z</time>
      </trkpt>
      <trkpt lat="42.7388" lon="1.79642">
        <ele>707.4</ele>
        <time>2024-06-30T06:11:17Z</time>
      </trkpt>
      <trkpt lat="42.73881" lon="1.79638">
        <ele>707.4</ele>
        <time>2024-06-30T06:11:18Z</time>
      </trkpt>
      <trkpt lat="42.73882" lon="1.79635">
        <ele>707.4</ele>
        <time>2024-06-30T06:11:19Z</time>
      </trkpt>
      <trkpt lat="42.73884" lon="1.79632">
        <ele>707.4</ele>
        <time>2024-06-30T06:11:20Z</time>
      </trkpt>
      <trkpt lat="42.73885" lon="1.7963">
        <ele>707.4</ele>
        <time>2024-06-30T06:11:21Z</time>
      </trkpt>
      <trkpt lat="42.73887" lon="1.79627">
        <ele>707.4</ele>
        <time>2024-06-30T06:11:22Z</time>
      </trkpt>
      <trkpt lat="42.73889" lon="1.79623">
        <ele>707.6</ele>
        <time>2024-06-30T06:11:23Z</time>
      </trkpt>
      <trkpt lat="42.7389" lon="1.7962">
        <ele>707.4</ele>
        <time>2024-06-30T06:11:24Z</time>
      </trkpt>
      <trkpt lat="42.73892" lon="1.79616">
        <ele>707.4</ele>
        <time>2024-06-30T06:11:25Z</time>
      </trkpt>
      <trkpt lat="42.73894" lon="1.79613">
        <ele>707.2</ele>
        <time>2024-06-30T06:11:26Z</time>
      </trkpt>
      <trkpt lat="42.73898" lon="1.79607">
        <ele>707</ele>
        <time>2024-06-30T06:11:28Z</time>
      </trkpt>
      <trkpt lat="42.73901" lon="1.79603">
        <ele>707</ele>
        <time>2024-06-30T06:11:29Z</time>
      </trkpt>
      <trkpt lat="42.73904" lon="1.79598">
        <ele>707</ele>
        <time>2024-06-30T06:11:30Z</time>
      </trkpt>
      <trkpt lat="42.73907" lon="1.79591">
        <ele>706.8</ele>
        <time>2024-06-30T06:11:32Z</time>
      </trkpt>
      <trkpt lat="42.73908" lon="1.79588">
        <ele>706.6</ele>
        <time>2024-06-30T06:11:33Z</time>
      </trkpt>
      <trkpt lat="42.73911" lon="1.79585">
        <ele>706.6</ele>
        <time>2024-06-30T06:11:34Z</time>
      </trkpt>
      <trkpt lat="42.73913" lon="1.79582">
        <ele>706.4</ele>
        <time>2024-06-30T06:11:35Z</time>
      </trkpt>
      <trkpt lat="42.73918" lon="1.79573">
        <ele>706.2</ele>
        <time>2024-06-30T06:11:37Z</time>
      </trkpt>
      <trkpt lat="42.73921" lon="1.79568">
        <ele>706</ele>
        <time>2024-06-30T06:11:39Z</time>
      </trkpt>
      <trkpt lat="42.73923" lon="1.79565">
        <ele>705.8</ele>
        <time>2024-06-30T06:11:40Z</time>
      </trkpt>
      <trkpt lat="42.73926" lon="1.79559">
        <ele>705.8</ele>
        <time>2024-06-30T06:11:42Z</time>
      </trkpt>
      <trkpt lat="42.73926" lon="1.79554">
        <ele>705.8</ele>
        <time>2024-06-30T06:11:43Z</time>
      </trkpt>
      <trkpt lat="42.73928" lon="1.79551">
        <ele>705.8</ele>
        <time>2024-06-30T06:11:44Z</time>
      </trkpt>
      <trkpt lat="42.73931" lon="1.79546">
        <ele>705.8</ele>
        <time>2024-06-30T06:11:45Z</time>
      </trkpt>
      <trkpt lat="42.73938" lon="1.79533">
        <ele>705.8</ele>
        <time>2024-06-30T06:11:47Z</time>
      </trkpt>
      <trkpt lat="42.73944" lon="1.79527">
        <ele>705.8</ele>
        <time>2024-06-30T06:11:48Z</time>
      </trkpt>
      <trkpt lat="42.7395" lon="1.79521">
        <ele>705.8</ele>
        <time>2024-06-30T06:11:49Z</time>
      </trkpt>
      <trkpt lat="42.73953" lon="1.79515">
        <ele>705.8</ele>
        <time>2024-06-30T06:11:50Z</time>
      </trkpt>
      <trkpt lat="42.73954" lon="1.79508">
        <ele>705.6</ele>
        <time>2024-06-30T06:11:51Z</time>
      </trkpt>
      <trkpt lat="42.73954" lon="1.795">
        <ele>705.2</ele>
        <time>2024-06-30T06:11:52Z</time>
      </trkpt>
      <trkpt lat="42.73955" lon="1.79495">
        <ele>704.8</ele>
        <time>2024-06-30T06:11:53Z</time>
      </trkpt>
      <trkpt lat="42.73956" lon="1.79489">
        <ele>704</ele>
        <time>2024-06-30T06:11:54Z</time>
      </trkpt>
      <trkpt lat="42.73958" lon="1.79485">
        <ele>703.6</ele>
        <time>2024-06-30T06:11:55Z</time>
      </trkpt>
      <trkpt lat="42.73961" lon="1.79481">
        <ele>703.2</ele>
        <time>2024-06-30T06:11:56Z</time>
      </trkpt>
      <trkpt lat="42.73963" lon="1.79477">
        <ele>702.6</ele>
        <time>2024-06-30T06:11:57Z</time>
      </trkpt>
      <trkpt lat="42.73964" lon="1.79475">
        <ele>701.2</ele>
        <time>2024-06-30T06:11:58Z</time>
      </trkpt>
      <trkpt lat="42.73965" lon="1.79472">
        <ele>700.6</ele>
        <time>2024-06-30T06:11:59Z</time>
      </trkpt>
      <trkpt lat="42.73966" lon="1.79468">
        <ele>700</ele>
        <time>2024-06-30T06:12:00Z</time>
      </trkpt>
      <trkpt lat="42.73967" lon="1.79466">
        <ele>699.6</ele>
        <time>2024-06-30T06:12:01Z</time>
      </trkpt>
      <trkpt lat="42.73967" lon="1.79463">
        <ele>699.4</ele>
        <time>2024-06-30T06:12:02Z</time>
      </trkpt>
      <trkpt lat="42.73967" lon="1.7946">
        <ele>698.8</ele>
        <time>2024-06-30T06:12:03Z</time>
      </trkpt>
      <trkpt lat="42.73967" lon="1.79457">
        <ele>698.2</ele>
        <time>2024-06-30T06:12:04Z</time>
      </trkpt>
      <trkpt lat="42.73969" lon="1.79455">
        <ele>697.6</ele>
        <time>2024-06-30T06:12:05Z</time>
      </trkpt>
      <trkpt lat="42.73972" lon="1.79453">
        <ele>697.8</ele>
        <time>2024-06-30T06:12:06Z</time>
      </trkpt>
      <trkpt lat="42.73974" lon="1.79451">
        <ele>697.2</ele>
        <time>2024-06-30T06:12:07Z</time>
      </trkpt>
      <trkpt lat="42.73977" lon="1.79449">
        <ele>697</ele>
        <time>2024-06-30T06:12:08Z</time>
      </trkpt>
      <trkpt lat="42.73977" lon="1.79446">
        <ele>696.6</ele>
        <time>2024-06-30T06:12:09Z</time>
      </trkpt>
      <trkpt lat="42.73979" lon="1.79443">
        <ele>696</ele>
        <time>2024-06-30T06:12:10Z</time>
      </trkpt>
      <trkpt lat="42.73979" lon="1.79431">
        <ele>694.8</ele>
        <time>2024-06-30T06:12:13Z</time>
      </trkpt>
      <trkpt lat="42.73977" lon="1.79419">
        <ele>694</ele>
        <time>2024-06-30T06:12:15Z</time>
      </trkpt>
      <trkpt lat="42.73978" lon="1.79414">
        <ele>693.2</ele>
        <time>2024-06-30T06:12:16Z</time>
      </trkpt>
      <trkpt lat="42.7398" lon="1.79405">
        <ele>693</ele>
        <time>2024-06-30T06:12:17Z</time>
      </trkpt>
      <trkpt lat="42.73982" lon="1.794">
        <ele>692.6</ele>
        <time>2024-06-30T06:12:18Z</time>
      </trkpt>
      <trkpt lat="42.73986" lon="1.79393">
        <ele>692</ele>
        <time>2024-06-30T06:12:19Z</time>
      </trkpt>
      <trkpt lat="42.73991" lon="1.79389">
        <ele>691.4</ele>
        <time>2024-06-30T06:12:20Z</time>
      </trkpt>
      <trkpt lat="42.73997" lon="1.79383">
        <ele>690.6</ele>
        <time>2024-06-30T06:12:21Z</time>
      </trkpt>
      <trkpt lat="42.74004" lon="1.79379">
        <ele>690.2</ele>
        <time>2024-06-30T06:12:22Z</time>
      </trkpt>
      <trkpt lat="42.74013" lon="1.79375">
        <ele>688.8</ele>
        <time>2024-06-30T06:12:23Z</time>
      </trkpt>
      <trkpt lat="42.74021" lon="1.79371">
        <ele>688.2</ele>
        <time>2024-06-30T06:12:24Z</time>
      </trkpt>
      <trkpt lat="42.74029" lon="1.79365">
        <ele>686.8</ele>
        <time>2024-06-30T06:12:25Z</time>
      </trkpt>
      <trkpt lat="42.74036" lon="1.79358">
        <ele>685.4</ele>
        <time>2024-06-30T06:12:26Z</time>
      </trkpt>
      <trkpt lat="42.74042" lon="1.79351">
        <ele>684.8</ele>
        <time>2024-06-30T06:12:27Z</time>
      </trkpt>
      <trkpt lat="42.74049" lon="1.79342">
        <ele>684.2</ele>
        <time>2024-06-30T06:12:28Z</time>
      </trkpt>
      <trkpt lat="42.74062" lon="1.79326">
        <ele>682.4</ele>
        <time>2024-06-30T06:12:30Z</time>
      </trkpt>
      <trkpt lat="42.74076" lon="1.79308">
        <ele>681.2</ele>
        <time>2024-06-30T06:12:32Z</time>
      </trkpt>
      <trkpt lat="42.74082" lon="1.79298">
        <ele>680.8</ele>
        <time>2024-06-30T06:12:33Z</time>
      </trkpt>
      <trkpt lat="42.74096" lon="1.79281">
        <ele>680</ele>
        <time>2024-06-30T06:12:35Z</time>
      </trkpt>
      <trkpt lat="42.74112" lon="1.79267">
        <ele>678.8</ele>
        <time>2024-06-30T06:12:37Z</time>
      </trkpt>
      <trkpt lat="42.74119" lon="1.79261">
        <ele>678.4</ele>
        <time>2024-06-30T06:12:38Z</time>
      </trkpt>
      <trkpt lat="42.74126" lon="1.79255">
        <ele>678</ele>
        <time>2024-06-30T06:12:39Z</time>
      </trkpt>
      <trkpt lat="42.74141" lon="1.79245">
        <ele>677.2</ele>
        <time>2024-06-30T06:12:41Z</time>
      </trkpt>
      <trkpt lat="42.74148" lon="1.7924">
        <ele>677</ele>
        <time>2024-06-30T06:12:42Z</time>
      </trkpt>
      <trkpt lat="42.74155" lon="1.79235">
        <ele>676.8</ele>
        <time>2024-06-30T06:12:43Z</time>
      </trkpt>
      <trkpt lat="42.74161" lon="1.79231">
        <ele>676.6</ele>
        <time>2024-06-30T06:12:44Z</time>
      </trkpt>
      <trkpt lat="42.74168" lon="1.79228">
        <ele>676.6</ele>
        <time>2024-06-30T06:12:45Z</time>
      </trkpt>
      <trkpt lat="42.74174" lon="1.79224">
        <ele>676.6</ele>
        <time>2024-06-30T06:12:46Z</time>
      </trkpt>
      <trkpt lat="42.7418" lon="1.79221">
        <ele>676.6</ele>
        <time>2024-06-30T06:12:47Z</time>
      </trkpt>
      <trkpt lat="42.74185" lon="1.79219">
        <ele>676.8</ele>
        <time>2024-06-30T06:12:48Z</time>
      </trkpt>
      <trkpt lat="42.74189" lon="1.79217">
        <ele>676.8</ele>
        <time>2024-06-30T06:12:49Z</time>
      </trkpt>
      <trkpt lat="42.74194" lon="1.79214">
        <ele>677</ele>
        <time>2024-06-30T06:12:50Z</time>
      </trkpt>
      <trkpt lat="42.74198" lon="1.79211">
        <ele>677.2</ele>
        <time>2024-06-30T06:12:51Z</time>
      </trkpt>
      <trkpt lat="42.74201" lon="1.79208">
        <ele>677.4</ele>
        <time>2024-06-30T06:12:52Z</time>
      </trkpt>
      <trkpt lat="42.74204" lon="1.79204">
        <ele>678</ele>
        <time>2024-06-30T06:12:53Z</time>
      </trkpt>
      <trkpt lat="42.74207" lon="1.79199">
        <ele>678.2</ele>
        <time>2024-06-30T06:12:54Z</time>
      </trkpt>
      <trkpt lat="42.7421" lon="1.79195">
        <ele>678.8</ele>
        <time>2024-06-30T06:12:55Z</time>
      </trkpt>
      <trkpt lat="42.74217" lon="1.79181">
        <ele>680</ele>
        <time>2024-06-30T06:12:58Z</time>
      </trkpt>
      <trkpt lat="42.7422" lon="1.79177">
        <ele>680.8</ele>
        <time>2024-06-30T06:12:59Z</time>
      </trkpt>
      <trkpt lat="42.74221" lon="1.79172">
        <ele>681.2</ele>
        <time>2024-06-30T06:13:00Z</time>
      </trkpt>
      <trkpt lat="42.74223" lon="1.79169">
        <ele>681.4</ele>
        <time>2024-06-30T06:13:01Z</time>
      </trkpt>
      <trkpt lat="42.74224" lon="1.79165">
        <ele>682</ele>
        <time>2024-06-30T06:13:02Z</time>
      </trkpt>
      <trkpt lat="42.74226" lon="1.79161">
        <ele>682.6</ele>
        <time>2024-06-30T06:13:03Z</time>
      </trkpt>
      <trkpt lat="42.74227" lon="1.79158">
        <ele>683.2</ele>
        <time>2024-06-30T06:13:04Z</time>
      </trkpt>
      <trkpt lat="42.74229" lon="1.79153">
        <ele>683.4</ele>
        <time>2024-06-30T06:13:05Z</time>
      </trkpt>
      <trkpt lat="42.74231" lon="1.79149">
        <ele>684</ele>
        <time>2024-06-30T06:13:06Z</time>
      </trkpt>
      <trkpt lat="42.74233" lon="1.79143">
        <ele>684.2</ele>
        <time>2024-06-30T06:13:07Z</time>
      </trkpt>
      <trkpt lat="42.74235" lon="1.79138">
        <ele>684.8</ele>
        <time>2024-06-30T06:13:08Z</time>
      </trkpt>
      <trkpt lat="42.74237" lon="1.79131">
        <ele>685.2</ele>
        <time>2024-06-30T06:13:09Z</time>
      </trkpt>
      <trkpt lat="42.74239" lon="1.79125">
        <ele>685.4</ele>
        <time>2024-06-30T06:13:10Z</time>
      </trkpt>
      <trkpt lat="42.74241" lon="1.79119">
        <ele>685.8</ele>
        <time>2024-06-30T06:13:11Z</time>
      </trkpt>
      <trkpt lat="42.74243" lon="1.79113">
        <ele>685.8</ele>
        <time>2024-06-30T06:13:12Z</time>
      </trkpt>
      <trkpt lat="42.74245" lon="1.79107">
        <ele>686.2</ele>
        <time>2024-06-30T06:13:13Z</time>
      </trkpt>
      <trkpt lat="42.74247" lon="1.79101">
        <ele>686.2</ele>
        <time>2024-06-30T06:13:14Z</time>
      </trkpt>
      <trkpt lat="42.74249" lon="1.79095">
        <ele>686.4</ele>
        <time>2024-06-30T06:13:15Z</time>
      </trkpt>
      <trkpt lat="42.74252" lon="1.79089">
        <ele>686.8</ele>
        <time>2024-06-30T06:13:16Z</time>
      </trkpt>
      <trkpt lat="42.74254" lon="1.79083">
        <ele>687</ele>
        <time>2024-06-30T06:13:17Z</time>
      </trkpt>
      <trkpt lat="42.74257" lon="1.79078">
        <ele>687.2</ele>
        <time>2024-06-30T06:13:18Z</time>
      </trkpt>
      <trkpt lat="42.7426" lon="1.79073">
        <ele>687.4</ele>
        <time>2024-06-30T06:13:19Z</time>
      </trkpt>
      <trkpt lat="42.74263" lon="1.79067">
        <ele>687.4</ele>
        <time>2024-06-30T06:13:20Z</time>
      </trkpt>
      <trkpt lat="42.74266" lon="1.79062">
        <ele>687.6</ele>
        <time>2024-06-30T06:13:21Z</time>
      </trkpt>
      <trkpt lat="42.74269" lon="1.79057">
        <ele>687.8</ele>
        <time>2024-06-30T06:13:22Z</time>
      </trkpt>
      <trkpt lat="42.74272" lon="1.79053">
        <ele>687.8</ele>
        <time>2024-06-30T06:13:23Z</time>
      </trkpt>
      <trkpt lat="42.74275" lon="1.79048">
        <ele>688.2</ele>
        <time>2024-06-30T06:13:24Z</time>
      </trkpt>
      <trkpt lat="42.74278" lon="1.79044">
        <ele>688.2</ele>
        <time>2024-06-30T06:13:25Z</time>
      </trkpt>
      <trkpt lat="42.74281" lon="1.7904">
        <ele>688.4</ele>
        <time>2024-06-30T06:13:26Z</time>
      </trkpt>
      <trkpt lat="42.74284" lon="1.79036">
        <ele>688.8</ele>
        <time>2024-06-30T06:13:27Z</time>
      </trkpt>
      <trkpt lat="42.74287" lon="1.79032">
        <ele>689</ele>
        <time>2024-06-30T06:13:28Z</time>
      </trkpt>
      <trkpt lat="42.7429" lon="1.79027">
        <ele>689.4</ele>
        <time>2024-06-30T06:13:29Z</time>
      </trkpt>
      <trkpt lat="42.74293" lon="1.79023">
        <ele>689.6</ele>
        <time>2024-06-30T06:13:30Z</time>
      </trkpt>
      <trkpt lat="42.74296" lon="1.79019">
        <ele>690</ele>
        <time>2024-06-30T06:13:31Z</time>
      </trkpt>
      <trkpt lat="42.74299" lon="1.79015">
        <ele>690.2</ele>
        <time>2024-06-30T06:13:32Z</time>
      </trkpt>
      <trkpt lat="42.74302" lon="1.79011">
        <ele>690.8</ele>
        <time>2024-06-30T06:13:33Z</time>
      </trkpt>
      <trkpt lat="42.74305" lon="1.79006">
        <ele>691.2</ele>
        <time>2024-06-30T06:13:34Z</time>
      </trkpt>
      <trkpt lat="42.74308" lon="1.79002">
        <ele>691.4</ele>
        <time>2024-06-30T06:13:35Z</time>
      </trkpt>
      <trkpt lat="42.7431" lon="1.78998">
        <ele>691.8</ele>
        <time>2024-06-30T06:13:36Z</time>
      </trkpt>
      <trkpt lat="42.74313" lon="1.78994">
        <ele>692</ele>
        <time>2024-06-30T06:13:37Z</time>
      </trkpt>
      <trkpt lat="42.74316" lon="1.78989">
        <ele>692.4</ele>
        <time>2024-06-30T06:13:38Z</time>
      </trkpt>
      <trkpt lat="42.74318" lon="1.78984">
        <ele>692.6</ele>
        <time>2024-06-30T06:13:39Z</time>
      </trkpt>
      <trkpt lat="42.7432" lon="1.78978">
        <ele>693</ele>
        <time>2024-06-30T06:13:40Z</time>
      </trkpt>
      <trkpt lat="42.74322" lon="1.78973">
        <ele>693.4</ele>
        <time>2024-06-30T06:13:41Z</time>
      </trkpt>
      <trkpt lat="42.74325" lon="1.78967">
        <ele>693.8</ele>
        <time>2024-06-30T06:13:42Z</time>
      </trkpt>
      <trkpt lat="42.74327" lon="1.7896">
        <ele>693.8</ele>
        <time>2024-06-30T06:13:43Z</time>
      </trkpt>
      <trkpt lat="42.7433" lon="1.78954">
        <ele>694</ele>
        <time>2024-06-30T06:13:44Z</time>
      </trkpt>
      <trkpt lat="42.74333" lon="1.78946">
        <ele>694</ele>
        <time>2024-06-30T06:13:45Z</time>
      </trkpt>
      <trkpt lat="42.74336" lon="1.78939">
        <ele>694</ele>
        <time>2024-06-30T06:13:46Z</time>
      </trkpt>
      <trkpt lat="42.74339" lon="1.78931">
        <ele>694.2</ele>
        <time>2024-06-30T06:13:47Z</time>
      </trkpt>
      <trkpt lat="42.74342" lon="1.78924">
        <ele>694</ele>
        <time>2024-06-30T06:13:48Z</time>
      </trkpt>
      <trkpt lat="42.74344" lon="1.78916">
        <ele>694</ele>
        <time>2024-06-30T06:13:49Z</time>
      </trkpt>
      <trkpt lat="42.74347" lon="1.78908">
        <ele>693.8</ele>
        <time>2024-06-30T06:13:50Z</time>
      </trkpt>
      <trkpt lat="42.74349" lon="1.78901">
        <ele>693.6</ele>
        <time>2024-06-30T06:13:51Z</time>
      </trkpt>
      <trkpt lat="42.74352" lon="1.78893">
        <ele>693.4</ele>
        <time>2024-06-30T06:13:52Z</time>
      </trkpt>
      <trkpt lat="42.74354" lon="1.78885">
        <ele>693.4</ele>
        <time>2024-06-30T06:13:53Z</time>
      </trkpt>
      <trkpt lat="42.74356" lon="1.78878">
        <ele>693.4</ele>
        <time>2024-06-30T06:13:54Z</time>
      </trkpt>
      <trkpt lat="42.74357" lon="1.7887">
        <ele>693.4</ele>
        <time>2024-06-30T06:13:55Z</time>
      </trkpt>
      <trkpt lat="42.74359" lon="1.78863">
        <ele>693.2</ele>
        <time>2024-06-30T06:13:56Z</time>
      </trkpt>
      <trkpt lat="42.7436" lon="1.78855">
        <ele>693.2</ele>
        <time>2024-06-30T06:13:57Z</time>
      </trkpt>
      <trkpt lat="42.74362" lon="1.78847">
        <ele>693.2</ele>
        <time>2024-06-30T06:13:58Z</time>
      </trkpt>
      <trkpt lat="42.74363" lon="1.7884">
        <ele>693.2</ele>
        <time>2024-06-30T06:13:59Z</time>
      </trkpt>
      <trkpt lat="42.74364" lon="1.78832">
        <ele>693.2</ele>
        <time>2024-06-30T06:14:00Z</time>
      </trkpt>
      <trkpt lat="42.74365" lon="1.78824">
        <ele>693.2</ele>
        <time>2024-06-30T06:14:01Z</time>
      </trkpt>
      <trkpt lat="42.74367" lon="1.78817">
        <ele>693.2</ele>
        <time>2024-06-30T06:14:02Z</time>
      </trkpt>
      <trkpt lat="42.74368" lon="1.7881">
        <ele>693.2</ele>
        <time>2024-06-30T06:14:03Z</time>
      </trkpt>
      <trkpt lat="42.74372" lon="1.78796">
        <ele>693.4</ele>
        <time>2024-06-30T06:14:05Z</time>
      </trkpt>
      <trkpt lat="42.74373" lon="1.78789">
        <ele>693.4</ele>
        <time>2024-06-30T06:14:06Z</time>
      </trkpt>
      <trkpt lat="42.74375" lon="1.78783">
        <ele>693.6</ele>
        <time>2024-06-30T06:14:07Z</time>
      </trkpt>
      <trkpt lat="42.74377" lon="1.78776">
        <ele>693.8</ele>
        <time>2024-06-30T06:14:08Z</time>
      </trkpt>
      <trkpt lat="42.74379" lon="1.7877">
        <ele>693.8</ele>
        <time>2024-06-30T06:14:09Z</time>
      </trkpt>
      <trkpt lat="42.74381" lon="1.78763">
        <ele>694.2</ele>
        <time>2024-06-30T06:14:10Z</time>
      </trkpt>
      <trkpt lat="42.74382" lon="1.78757">
        <ele>694.2</ele>
        <time>2024-06-30T06:14:11Z</time>
      </trkpt>
      <trkpt lat="42.74384" lon="1.78751">
        <ele>694.8</ele>
        <time>2024-06-30T06:14:12Z</time>
      </trkpt>
      <trkpt lat="42.74386" lon="1.78746">
        <ele>694.8</ele>
        <time>2024-06-30T06:14:13Z</time>
      </trkpt>
      <trkpt lat="42.74389" lon="1.7874">
        <ele>695.2</ele>
        <time>2024-06-30T06:14:14Z</time>
      </trkpt>
      <trkpt lat="42.74391" lon="1.78733">
        <ele>695.2</ele>
        <time>2024-06-30T06:14:15Z</time>
      </trkpt>
      <trkpt lat="42.74394" lon="1.78727">
        <ele>695.2</ele>
        <time>2024-06-30T06:14:16Z</time>
      </trkpt>
      <trkpt lat="42.74407" lon="1.78697">
        <ele>696.4</ele>
        <time>2024-06-30T06:14:21Z</time>
      </trkpt>
      <trkpt lat="42.7441" lon="1.78691">
        <ele>696.6</ele>
        <time>2024-06-30T06:14:22Z</time>
      </trkpt>
      <trkpt lat="42.74413" lon="1.78685">
        <ele>696.8</ele>
        <time>2024-06-30T06:14:23Z</time>
      </trkpt>
      <trkpt lat="42.74415" lon="1.78679">
        <ele>697</ele>
        <time>2024-06-30T06:14:24Z</time>
      </trkpt>
      <trkpt lat="42.74417" lon="1.78673">
        <ele>697.2</ele>
        <time>2024-06-30T06:14:25Z</time>
      </trkpt>
      <trkpt lat="42.74418" lon="1.78667">
        <ele>697.4</ele>
        <time>2024-06-30T06:14:26Z</time>
      </trkpt>
      <trkpt lat="42.7442" lon="1.78661">
        <ele>697.6</ele>
        <time>2024-06-30T06:14:27Z</time>
      </trkpt>
      <trkpt lat="42.74422" lon="1.78655">
        <ele>697.8</ele>
        <time>2024-06-30T06:14:28Z</time>
      </trkpt>
      <trkpt lat="42.74424" lon="1.78649">
        <ele>697.8</ele>
        <time>2024-06-30T06:14:29Z</time>
      </trkpt>
      <trkpt lat="42.74426" lon="1.78644">
        <ele>697.8</ele>
        <time>2024-06-30T06:14:30Z</time>
      </trkpt>
      <trkpt lat="42.74428" lon="1.78638">
        <ele>698</ele>
        <time>2024-06-30T06:14:31Z</time>
      </trkpt>
      <trkpt lat="42.7443" lon="1.78633">
        <ele>698.6</ele>
        <time>2024-06-30T06:14:32Z</time>
      </trkpt>
      <trkpt lat="42.74432" lon="1.78628">
        <ele>698.8</ele>
        <time>2024-06-30T06:14:33Z</time>
      </trkpt>
      <trkpt lat="42.74434" lon="1.78623">
        <ele>699</ele>
        <time>2024-06-30T06:14:34Z</time>
      </trkpt>
      <trkpt lat="42.74435" lon="1.78618">
        <ele>699.2</ele>
        <time>2024-06-30T06:14:35Z</time>
      </trkpt>
      <trkpt lat="42.74437" lon="1.78615">
        <ele>699.4</ele>
        <time>2024-06-30T06:14:36Z</time>
      </trkpt>
      <trkpt lat="42.74438" lon="1.78611">
        <ele>699.6</ele>
        <time>2024-06-30T06:14:37Z</time>
      </trkpt>
      <trkpt lat="42.7444" lon="1.78608">
        <ele>699.8</ele>
        <time>2024-06-30T06:14:38Z</time>
      </trkpt>
      <trkpt lat="42.74441" lon="1.78605">
        <ele>700.2</ele>
        <time>2024-06-30T06:14:39Z</time>
      </trkpt>
      <trkpt lat="42.74442" lon="1.78601">
        <ele>700.4</ele>
        <time>2024-06-30T06:14:40Z</time>
      </trkpt>
      <trkpt lat="42.74444" lon="1.78598">
        <ele>700.8</ele>
        <time>2024-06-30T06:14:41Z</time>
      </trkpt>
      <trkpt lat="42.74445" lon="1.78594">
        <ele>701.2</ele>
        <time>2024-06-30T06:14:42Z</time>
      </trkpt>
      <trkpt lat="42.74446" lon="1.7859">
        <ele>701.6</ele>
        <time>2024-06-30T06:14:43Z</time>
      </trkpt>
      <trkpt lat="42.74447" lon="1.78586">
        <ele>702</ele>
        <time>2024-06-30T06:14:44Z</time>
      </trkpt>
      <trkpt lat="42.74447" lon="1.78582">
        <ele>702.2</ele>
        <time>2024-06-30T06:14:45Z</time>
      </trkpt>
      <trkpt lat="42.74448" lon="1.78578">
        <ele>702.4</ele>
        <time>2024-06-30T06:14:46Z</time>
      </trkpt>
      <trkpt lat="42.74448" lon="1.78575">
        <ele>702.6</ele>
        <time>2024-06-30T06:14:47Z</time>
      </trkpt>
      <trkpt lat="42.74449" lon="1.78571">
        <ele>703</ele>
        <time>2024-06-30T06:14:48Z</time>
      </trkpt>
      <trkpt lat="42.7445" lon="1.78568">
        <ele>703.4</ele>
        <time>2024-06-30T06:14:49Z</time>
      </trkpt>
      <trkpt lat="42.74451" lon="1.78565">
        <ele>703.6</ele>
        <time>2024-06-30T06:14:50Z</time>
      </trkpt>
      <trkpt lat="42.74452" lon="1.78562">
        <ele>704</ele>
        <time>2024-06-30T06:14:51Z</time>
      </trkpt>
      <trkpt lat="42.74453" lon="1.7856">
        <ele>704.2</ele>
        <time>2024-06-30T06:14:52Z</time>
      </trkpt>
      <trkpt lat="42.74455" lon="1.78557">
        <ele>704.6</ele>
        <time>2024-06-30T06:14:53Z</time>
      </trkpt>
      <trkpt lat="42.74457" lon="1.78553">
        <ele>704.8</ele>
        <time>2024-06-30T06:14:54Z</time>
      </trkpt>
      <trkpt lat="42.74459" lon="1.78547">
        <ele>705.2</ele>
        <time>2024-06-30T06:14:55Z</time>
      </trkpt>
      <trkpt lat="42.74461" lon="1.78541">
        <ele>705.4</ele>
        <time>2024-06-30T06:14:56Z</time>
      </trkpt>
      <trkpt lat="42.74465" lon="1.78536">
        <ele>705.8</ele>
        <time>2024-06-30T06:14:57Z</time>
      </trkpt>
      <trkpt lat="42.74469" lon="1.78532">
        <ele>706</ele>
        <time>2024-06-30T06:14:58Z</time>
      </trkpt>
      <trkpt lat="42.74474" lon="1.78528">
        <ele>706.4</ele>
        <time>2024-06-30T06:14:59Z</time>
      </trkpt>
      <trkpt lat="42.74479" lon="1.78524">
        <ele>706.8</ele>
        <time>2024-06-30T06:15:00Z</time>
      </trkpt>
      <trkpt lat="42.74484" lon="1.78521">
        <ele>707</ele>
        <time>2024-06-30T06:15:01Z</time>
      </trkpt>
      <trkpt lat="42.74488" lon="1.78518">
        <ele>707.2</ele>
        <time>2024-06-30T06:15:02Z</time>
      </trkpt>
      <trkpt lat="42.74493" lon="1.78515">
        <ele>707.2</ele>
        <time>2024-06-30T06:15:03Z</time>
      </trkpt>
      <trkpt lat="42.74498" lon="1.78513">
        <ele>707.4</ele>
        <time>2024-06-30T06:15:04Z</time>
      </trkpt>
      <trkpt lat="42.74502" lon="1.78511">
        <ele>707.4</ele>
        <time>2024-06-30T06:15:05Z</time>
      </trkpt>
      <trkpt lat="42.74507" lon="1.78512">
        <ele>707.4</ele>
        <time>2024-06-30T06:15:06Z</time>
      </trkpt>
      <trkpt lat="42.74513" lon="1.78514">
        <ele>707.8</ele>
        <time>2024-06-30T06:15:07Z</time>
      </trkpt>
      <trkpt lat="42.74519" lon="1.78515">
        <ele>707.8</ele>
        <time>2024-06-30T06:15:08Z</time>
      </trkpt>
      <trkpt lat="42.74524" lon="1.78517">
        <ele>708</ele>
        <time>2024-06-30T06:15:09Z</time>
      </trkpt>
      <trkpt lat="42.7453" lon="1.78518">
        <ele>708</ele>
        <time>2024-06-30T06:15:10Z</time>
      </trkpt>
      <trkpt lat="42.74535" lon="1.78516">
        <ele>708</ele>
        <time>2024-06-30T06:15:11Z</time>
      </trkpt>
      <trkpt lat="42.74541" lon="1.78512">
        <ele>708</ele>
        <time>2024-06-30T06:15:12Z</time>
      </trkpt>
      <trkpt lat="42.74546" lon="1.78508">
        <ele>708</ele>
        <time>2024-06-30T06:15:13Z</time>
      </trkpt>
      <trkpt lat="42.7455" lon="1.78504">
        <ele>708</ele>
        <time>2024-06-30T06:15:14Z</time>
      </trkpt>
      <trkpt lat="42.74554" lon="1.78501">
        <ele>708</ele>
        <time>2024-06-30T06:15:15Z</time>
      </trkpt>
      <trkpt lat="42.74558" lon="1.78496">
        <ele>708</ele>
        <time>2024-06-30T06:15:16Z</time>
      </trkpt>
      <trkpt lat="42.74561" lon="1.78492">
        <ele>708</ele>
        <time>2024-06-30T06:15:17Z</time>
      </trkpt>
      <trkpt lat="42.74565" lon="1.78487">
        <ele>708</ele>
        <time>2024-06-30T06:15:18Z</time>
      </trkpt>
      <trkpt lat="42.74568" lon="1.78481">
        <ele>708</ele>
        <time>2024-06-30T06:15:19Z</time>
      </trkpt>
      <trkpt lat="42.74571" lon="1.78474">
        <ele>708</ele>
        <time>2024-06-30T06:15:20Z</time>
      </trkpt>
      <trkpt lat="42.74574" lon="1.78468">
        <ele>708</ele>
        <time>2024-06-30T06:15:21Z</time>
      </trkpt>
      <trkpt lat="42.74577" lon="1.78461">
        <ele>708</ele>
        <time>2024-06-30T06:15:22Z</time>
      </trkpt>
      <trkpt lat="42.74579" lon="1.78456">
        <ele>708</ele>
        <time>2024-06-30T06:15:23Z</time>
      </trkpt>
      <trkpt lat="42.74582" lon="1.78451">
        <ele>708</ele>
        <time>2024-06-30T06:15:24Z</time>
      </trkpt>
      <trkpt lat="42.74585" lon="1.78444">
        <ele>708.2</ele>
        <time>2024-06-30T06:15:25Z</time>
      </trkpt>
      <trkpt lat="42.74588" lon="1.78438">
        <ele>708.4</ele>
        <time>2024-06-30T06:15:26Z</time>
      </trkpt>
      <trkpt lat="42.7459" lon="1.78433">
        <ele>708.6</ele>
        <time>2024-06-30T06:15:27Z</time>
      </trkpt>
      <trkpt lat="42.74592" lon="1.78427">
        <ele>708.6</ele>
        <time>2024-06-30T06:15:28Z</time>
      </trkpt>
      <trkpt lat="42.74595" lon="1.78422">
        <ele>708.8</ele>
        <time>2024-06-30T06:15:29Z</time>
      </trkpt>
      <trkpt lat="42.74599" lon="1.78413">
        <ele>709</ele>
        <time>2024-06-30T06:15:31Z</time>
      </trkpt>
      <trkpt lat="42.74601" lon="1.78408">
        <ele>709.4</ele>
        <time>2024-06-30T06:15:32Z</time>
      </trkpt>
      <trkpt lat="42.74603" lon="1.78404">
        <ele>709.6</ele>
        <time>2024-06-30T06:15:33Z</time>
      </trkpt>
      <trkpt lat="42.74606" lon="1.78399">
        <ele>710.2</ele>
        <time>2024-06-30T06:15:34Z</time>
      </trkpt>
      <trkpt lat="42.74609" lon="1.78394">
        <ele>710.4</ele>
        <time>2024-06-30T06:15:35Z</time>
      </trkpt>
      <trkpt lat="42.74612" lon="1.78389">
        <ele>710.6</ele>
        <time>2024-06-30T06:15:36Z</time>
      </trkpt>
      <trkpt lat="42.74615" lon="1.78385">
        <ele>710.8</ele>
        <time>2024-06-30T06:15:37Z</time>
      </trkpt>
      <trkpt lat="42.74618" lon="1.78379">
        <ele>711</ele>
        <time>2024-06-30T06:15:38Z</time>
      </trkpt>
      <trkpt lat="42.74622" lon="1.78372">
        <ele>711.2</ele>
        <time>2024-06-30T06:15:39Z</time>
      </trkpt>
      <trkpt lat="42.74626" lon="1.78366">
        <ele>711.6</ele>
        <time>2024-06-30T06:15:40Z</time>
      </trkpt>
      <trkpt lat="42.7463" lon="1.78359">
        <ele>711.8</ele>
        <time>2024-06-30T06:15:41Z</time>
      </trkpt>
      <trkpt lat="42.74634" lon="1.78354">
        <ele>712</ele>
        <time>2024-06-30T06:15:42Z</time>
      </trkpt>
      <trkpt lat="42.74639" lon="1.78348">
        <ele>712.2</ele>
        <time>2024-06-30T06:15:43Z</time>
      </trkpt>
      <trkpt lat="42.74642" lon="1.78342">
        <ele>712.2</ele>
        <time>2024-06-30T06:15:44Z</time>
      </trkpt>
      <trkpt lat="42.74647" lon="1.78335">
        <ele>712.4</ele>
        <time>2024-06-30T06:15:45Z</time>
      </trkpt>
      <trkpt lat="42.74651" lon="1.78328">
        <ele>712.4</ele>
        <time>2024-06-30T06:15:46Z</time>
      </trkpt>
      <trkpt lat="42.74656" lon="1.78324">
        <ele>712.4</ele>
        <time>2024-06-30T06:15:47Z</time>
      </trkpt>
      <trkpt lat="42.7466" lon="1.78319">
        <ele>712.2</ele>
        <time>2024-06-30T06:15:48Z</time>
      </trkpt>
      <trkpt lat="42.74665" lon="1.78314">
        <ele>712.2</ele>
        <time>2024-06-30T06:15:49Z</time>
      </trkpt>
      <trkpt lat="42.7467" lon="1.78309">
        <ele>712</ele>
        <time>2024-06-30T06:15:50Z</time>
      </trkpt>
      <trkpt lat="42.74674" lon="1.78305">
        <ele>712</ele>
        <time>2024-06-30T06:15:51Z</time>
      </trkpt>
      <trkpt lat="42.74679" lon="1.78299">
        <ele>711.8</ele>
        <time>2024-06-30T06:15:52Z</time>
      </trkpt>
      <trkpt lat="42.74683" lon="1.78294">
        <ele>711.8</ele>
        <time>2024-06-30T06:15:53Z</time>
      </trkpt>
      <trkpt lat="42.74689" lon="1.78289">
        <ele>711.6</ele>
        <time>2024-06-30T06:15:54Z</time>
      </trkpt>
      <trkpt lat="42.74694" lon="1.78284">
        <ele>711.4</ele>
        <time>2024-06-30T06:15:55Z</time>
      </trkpt>
      <trkpt lat="42.747" lon="1.7828">
        <ele>711.2</ele>
        <time>2024-06-30T06:15:56Z</time>
      </trkpt>
      <trkpt lat="42.74706" lon="1.78275">
        <ele>711.2</ele>
        <time>2024-06-30T06:15:57Z</time>
      </trkpt>
      <trkpt lat="42.74717" lon="1.78262">
        <ele>710.8</ele>
        <time>2024-06-30T06:15:59Z</time>
      </trkpt>
      <trkpt lat="42.74722" lon="1.78255">
        <ele>710.8</ele>
        <time>2024-06-30T06:16:00Z</time>
      </trkpt>
      <trkpt lat="42.74727" lon="1.78249">
        <ele>710.6</ele>
        <time>2024-06-30T06:16:01Z</time>
      </trkpt>
      <trkpt lat="42.74741" lon="1.78229">
        <ele>710.4</ele>
        <time>2024-06-30T06:16:04Z</time>
      </trkpt>
      <trkpt lat="42.74758" lon="1.78215">
        <ele>710.4</ele>
        <time>2024-06-30T06:16:07Z</time>
      </trkpt>
      <trkpt lat="42.74763" lon="1.7821">
        <ele>710.4</ele>
        <time>2024-06-30T06:16:08Z</time>
      </trkpt>
      <trkpt lat="42.74774" lon="1.78197">
        <ele>710.4</ele>
        <time>2024-06-30T06:16:10Z</time>
      </trkpt>
      <trkpt lat="42.74777" lon="1.78192">
        <ele>710.4</ele>
        <time>2024-06-30T06:16:11Z</time>
      </trkpt>
      <trkpt lat="42.74782" lon="1.78185">
        <ele>710.4</ele>
        <time>2024-06-30T06:16:12Z</time>
      </trkpt>
      <trkpt lat="42.74787" lon="1.78177">
        <ele>710.6</ele>
        <time>2024-06-30T06:16:13Z</time>
      </trkpt>
      <trkpt lat="42.74791" lon="1.78173">
        <ele>710.6</ele>
        <time>2024-06-30T06:16:14Z</time>
      </trkpt>
      <trkpt lat="42.74793" lon="1.78168">
        <ele>710.8</ele>
        <time>2024-06-30T06:16:15Z</time>
      </trkpt>
      <trkpt lat="42.74797" lon="1.78163">
        <ele>710.8</ele>
        <time>2024-06-30T06:16:16Z</time>
      </trkpt>
      <trkpt lat="42.748" lon="1.78159">
        <ele>711</ele>
        <time>2024-06-30T06:16:17Z</time>
      </trkpt>
      <trkpt lat="42.74803" lon="1.78156">
        <ele>711.2</ele>
        <time>2024-06-30T06:16:18Z</time>
      </trkpt>
      <trkpt lat="42.74809" lon="1.78151">
        <ele>711.8</ele>
        <time>2024-06-30T06:16:19Z</time>
      </trkpt>
      <trkpt lat="42.74813" lon="1.7815">
        <ele>712</ele>
        <time>2024-06-30T06:16:20Z</time>
      </trkpt>
      <trkpt lat="42.74818" lon="1.78148">
        <ele>712.4</ele>
        <time>2024-06-30T06:16:21Z</time>
      </trkpt>
      <trkpt lat="42.74824" lon="1.78147">
        <ele>712.4</ele>
        <time>2024-06-30T06:16:22Z</time>
      </trkpt>
      <trkpt lat="42.74831" lon="1.78147">
        <ele>712.8</ele>
        <time>2024-06-30T06:16:24Z</time>
      </trkpt>
      <trkpt lat="42.74835" lon="1.78146">
        <ele>713</ele>
        <time>2024-06-30T06:16:25Z</time>
      </trkpt>
      <trkpt lat="42.74838" lon="1.78146">
        <ele>713.2</ele>
        <time>2024-06-30T06:16:26Z</time>
      </trkpt>
      <trkpt lat="42.7484" lon="1.78145">
        <ele>713.2</ele>
        <time>2024-06-30T06:16:27Z</time>
      </trkpt>
      <trkpt lat="42.74842" lon="1.78144">
        <ele>713.4</ele>
        <time>2024-06-30T06:16:28Z</time>
      </trkpt>
      <trkpt lat="42.74844" lon="1.78143">
        <ele>713.6</ele>
        <time>2024-06-30T06:16:29Z</time>
      </trkpt>
      <trkpt lat="42.74847" lon="1.78143">
        <ele>713.6</ele>
        <time>2024-06-30T06:16:30Z</time>
      </trkpt>
      <trkpt lat="42.74848" lon="1.78142">
        <ele>713.8</ele>
        <time>2024-06-30T06:16:31Z</time>
      </trkpt>
      <trkpt lat="42.7485" lon="1.78141">
        <ele>714</ele>
        <time>2024-06-30T06:16:32Z</time>
      </trkpt>
      <trkpt lat="42.74852" lon="1.78139">
        <ele>714.2</ele>
        <time>2024-06-30T06:16:33Z</time>
      </trkpt>
      <trkpt lat="42.74854" lon="1.78138">
        <ele>714.2</ele>
        <time>2024-06-30T06:16:34Z</time>
      </trkpt>
      <trkpt lat="42.74856" lon="1.78138">
        <ele>714.4</ele>
        <time>2024-06-30T06:16:35Z</time>
      </trkpt>
      <trkpt lat="42.74859" lon="1.78137">
        <ele>714.6</ele>
        <time>2024-06-30T06:16:36Z</time>
      </trkpt>
      <trkpt lat="42.74861" lon="1.78136">
        <ele>715.2</ele>
        <time>2024-06-30T06:16:37Z</time>
      </trkpt>
      <trkpt lat="42.74863" lon="1.78135">
        <ele>715.6</ele>
        <time>2024-06-30T06:16:38Z</time>
      </trkpt>
      <trkpt lat="42.74864" lon="1.78135">
        <ele>716</ele>
        <time>2024-06-30T06:16:39Z</time>
      </trkpt>
      <trkpt lat="42.74866" lon="1.78134">
        <ele>716.4</ele>
        <time>2024-06-30T06:16:40Z</time>
      </trkpt>
      <trkpt lat="42.74869" lon="1.78133">
        <ele>716.6</ele>
        <time>2024-06-30T06:16:41Z</time>
      </trkpt>
      <trkpt lat="42.7487" lon="1.78132">
        <ele>717</ele>
        <time>2024-06-30T06:16:42Z</time>
      </trkpt>
      <trkpt lat="42.74872" lon="1.78132">
        <ele>717</ele>
        <time>2024-06-30T06:16:43Z</time>
      </trkpt>
      <trkpt lat="42.74874" lon="1.78132">
        <ele>717.4</ele>
        <time>2024-06-30T06:16:44Z</time>
      </trkpt>
      <trkpt lat="42.74875" lon="1.78132">
        <ele>717.6</ele>
        <time>2024-06-30T06:16:45Z</time>
      </trkpt>
      <trkpt lat="42.74877" lon="1.78132">
        <ele>717.8</ele>
        <time>2024-06-30T06:16:46Z</time>
      </trkpt>
      <trkpt lat="42.74879" lon="1.78132">
        <ele>717.8</ele>
        <time>2024-06-30T06:16:47Z</time>
      </trkpt>
      <trkpt lat="42.7488" lon="1.78131">
        <ele>718</ele>
        <time>2024-06-30T06:16:48Z</time>
      </trkpt>
      <trkpt lat="42.74882" lon="1.7813">
        <ele>718.2</ele>
        <time>2024-06-30T06:16:49Z</time>
      </trkpt>
      <trkpt lat="42.74883" lon="1.7813">
        <ele>718.2</ele>
        <time>2024-06-30T06:16:50Z</time>
      </trkpt>
      <trkpt lat="42.74885" lon="1.7813">
        <ele>718.4</ele>
        <time>2024-06-30T06:16:51Z</time>
      </trkpt>
      <trkpt lat="42.74887" lon="1.7813">
        <ele>718.4</ele>
        <time>2024-06-30T06:16:52Z</time>
      </trkpt>
      <trkpt lat="42.74888" lon="1.7813">
        <ele>718.6</ele>
        <time>2024-06-30T06:16:53Z</time>
      </trkpt>
      <trkpt lat="42.7489" lon="1.78129">
        <ele>718.6</ele>
        <time>2024-06-30T06:16:54Z</time>
      </trkpt>
      <trkpt lat="42.74892" lon="1.78128">
        <ele>718.8</ele>
        <time>2024-06-30T06:16:55Z</time>
      </trkpt>
      <trkpt lat="42.74893" lon="1.78128">
        <ele>719</ele>
        <time>2024-06-30T06:16:56Z</time>
      </trkpt>
      <trkpt lat="42.74895" lon="1.78127">
        <ele>719.2</ele>
        <time>2024-06-30T06:16:57Z</time>
      </trkpt>
      <trkpt lat="42.74897" lon="1.78126">
        <ele>719.4</ele>
        <time>2024-06-30T06:16:58Z</time>
      </trkpt>
      <trkpt lat="42.74898" lon="1.78125">
        <ele>719.6</ele>
        <time>2024-06-30T06:16:59Z</time>
      </trkpt>
      <trkpt lat="42.749" lon="1.78124">
        <ele>720</ele>
        <time>2024-06-30T06:17:00Z</time>
      </trkpt>
      <trkpt lat="42.74902" lon="1.78124">
        <ele>720</ele>
        <time>2024-06-30T06:17:01Z</time>
      </trkpt>
      <trkpt lat="42.74904" lon="1.78123">
        <ele>720.4</ele>
        <time>2024-06-30T06:17:02Z</time>
      </trkpt>
      <trkpt lat="42.74906" lon="1.78122">
        <ele>720.6</ele>
        <time>2024-06-30T06:17:03Z</time>
      </trkpt>
      <trkpt lat="42.74907" lon="1.78121">
        <ele>721</ele>
        <time>2024-06-30T06:17:04Z</time>
      </trkpt>
      <trkpt lat="42.74909" lon="1.78121">
        <ele>721.4</ele>
        <time>2024-06-30T06:17:05Z</time>
      </trkpt>
      <trkpt lat="42.7491" lon="1.7812">
        <ele>721.6</ele>
        <time>2024-06-30T06:17:06Z</time>
      </trkpt>
      <trkpt lat="42.74912" lon="1.78119">
        <ele>722</ele>
        <time>2024-06-30T06:17:07Z</time>
      </trkpt>
      <trkpt lat="42.74913" lon="1.78118">
        <ele>722.4</ele>
        <time>2024-06-30T06:17:08Z</time>
      </trkpt>
      <trkpt lat="42.74915" lon="1.78117">
        <ele>722.6</ele>
        <time>2024-06-30T06:17:09Z</time>
      </trkpt>
      <trkpt lat="42.74917" lon="1.78117">
        <ele>722.8</ele>
        <time>2024-06-30T06:17:10Z</time>
      </trkpt>
      <trkpt lat="42.74919" lon="1.78116">
        <ele>723.2</ele>
        <time>2024-06-30T06:17:11Z</time>
      </trkpt>
      <trkpt lat="42.74921" lon="1.78115">
        <ele>723.4</ele>
        <time>2024-06-30T06:17:12Z</time>
      </trkpt>
      <trkpt lat="42.74922" lon="1.78115">
        <ele>723.8</ele>
        <time>2024-06-30T06:17:13Z</time>
      </trkpt>
      <trkpt lat="42.74923" lon="1.78115">
        <ele>724.2</ele>
        <time>2024-06-30T06:17:14Z</time>
      </trkpt>
      <trkpt lat="42.74925" lon="1.78115">
        <ele>724.2</ele>
        <time>2024-06-30T06:17:15Z</time>
      </trkpt>
      <trkpt lat="42.74926" lon="1.78114">
        <ele>724.4</ele>
        <time>2024-06-30T06:17:16Z</time>
      </trkpt>
      <trkpt lat="42.74927" lon="1.78114">
        <ele>724.4</ele>
        <time>2024-06-30T06:17:17Z</time>
      </trkpt>
      <trkpt lat="42.74928" lon="1.78113">
        <ele>724.6</ele>
        <time>2024-06-30T06:17:18Z</time>
      </trkpt>
      <trkpt lat="42.74929" lon="1.78113">
        <ele>724.8</ele>
        <time>2024-06-30T06:17:19Z</time>
      </trkpt>
      <trkpt lat="42.74931" lon="1.78112">
        <ele>725.2</ele>
        <time>2024-06-30T06:17:20Z</time>
      </trkpt>
      <trkpt lat="42.74933" lon="1.78112">
        <ele>725.4</ele>
        <time>2024-06-30T06:17:21Z</time>
      </trkpt>
      <trkpt lat="42.74934" lon="1.78111">
        <ele>725.6</ele>
        <time>2024-06-30T06:17:22Z</time>
      </trkpt>
      <trkpt lat="42.74936" lon="1.7811">
        <ele>725.8</ele>
        <time>2024-06-30T06:17:23Z</time>
      </trkpt>
      <trkpt lat="42.74939" lon="1.78109">
        <ele>726</ele>
        <time>2024-06-30T06:17:24Z</time>
      </trkpt>
      <trkpt lat="42.74941" lon="1.78107">
        <ele>726.6</ele>
        <time>2024-06-30T06:17:25Z</time>
      </trkpt>
      <trkpt lat="42.74942" lon="1.78106">
        <ele>726.6</ele>
        <time>2024-06-30T06:17:26Z</time>
      </trkpt>
      <trkpt lat="42.74944" lon="1.78105">
        <ele>727</ele>
        <time>2024-06-30T06:17:27Z</time>
      </trkpt>
      <trkpt lat="42.74946" lon="1.78103">
        <ele>727</ele>
        <time>2024-06-30T06:17:28Z</time>
      </trkpt>
      <trkpt lat="42.74949" lon="1.781">
        <ele>727.4</ele>
        <time>2024-06-30T06:17:29Z</time>
      </trkpt>
      <trkpt lat="42.74951" lon="1.78098">
        <ele>727.8</ele>
        <time>2024-06-30T06:17:30Z</time>
      </trkpt>
      <trkpt lat="42.74954" lon="1.78095">
        <ele>728</ele>
        <time>2024-06-30T06:17:31Z</time>
      </trkpt>
      <trkpt lat="42.74955" lon="1.78093">
        <ele>728.4</ele>
        <time>2024-06-30T06:17:32Z</time>
      </trkpt>
      <trkpt lat="42.74958" lon="1.7809">
        <ele>728.6</ele>
        <time>2024-06-30T06:17:33Z</time>
      </trkpt>
      <trkpt lat="42.7496" lon="1.78087">
        <ele>729</ele>
        <time>2024-06-30T06:17:34Z</time>
      </trkpt>
      <trkpt lat="42.74963" lon="1.78085">
        <ele>729.6</ele>
        <time>2024-06-30T06:17:35Z</time>
      </trkpt>
      <trkpt lat="42.74966" lon="1.78081">
        <ele>730.2</ele>
        <time>2024-06-30T06:17:36Z</time>
      </trkpt>
      <trkpt lat="42.74969" lon="1.78078">
        <ele>730.6</ele>
        <time>2024-06-30T06:17:37Z</time>
      </trkpt>
      <trkpt lat="42.74973" lon="1.78074">
        <ele>731.2</ele>
        <time>2024-06-30T06:17:38Z</time>
      </trkpt>
      <trkpt lat="42.74977" lon="1.7807">
        <ele>731.6</ele>
        <time>2024-06-30T06:17:39Z</time>
      </trkpt>
      <trkpt lat="42.7498" lon="1.78067">
        <ele>731.8</ele>
        <time>2024-06-30T06:17:40Z</time>
      </trkpt>
      <trkpt lat="42.74984" lon="1.78062">
        <ele>732.6</ele>
        <time>2024-06-30T06:17:41Z</time>
      </trkpt>
      <trkpt lat="42.74986" lon="1.78058">
        <ele>733</ele>
        <time>2024-06-30T06:17:42Z</time>
      </trkpt>
      <trkpt lat="42.74988" lon="1.78053">
        <ele>733.6</ele>
        <time>2024-06-30T06:17:43Z</time>
      </trkpt>
      <trkpt lat="42.7499" lon="1.78047">
        <ele>733.8</ele>
        <time>2024-06-30T06:17:44Z</time>
      </trkpt>
      <trkpt lat="42.74992" lon="1.78044">
        <ele>734.2</ele>
        <time>2024-06-30T06:17:45Z</time>
      </trkpt>
      <trkpt lat="42.74993" lon="1.78042">
        <ele>734.6</ele>
        <time>2024-06-30T06:17:46Z</time>
      </trkpt>
      <trkpt lat="42.74995" lon="1.78039">
        <ele>734.8</ele>
        <time>2024-06-30T06:17:47Z</time>
      </trkpt>
      <trkpt lat="42.74997" lon="1.78036">
        <ele>735.8</ele>
        <time>2024-06-30T06:17:48Z</time>
      </trkpt>
      <trkpt lat="42.75" lon="1.78034">
        <ele>736</ele>
        <time>2024-06-30T06:17:49Z</time>
      </trkpt>
      <trkpt lat="42.75003" lon="1.78031">
        <ele>736.8</ele>
        <time>2024-06-30T06:17:50Z</time>
      </trkpt>
      <trkpt lat="42.75006" lon="1.78028">
        <ele>737.2</ele>
        <time>2024-06-30T06:17:51Z</time>
      </trkpt>
      <trkpt lat="42.75009" lon="1.78025">
        <ele>737.4</ele>
        <time>2024-06-30T06:17:52Z</time>
      </trkpt>
      <trkpt lat="42.75013" lon="1.78023">
        <ele>737.8</ele>
        <time>2024-06-30T06:17:53Z</time>
      </trkpt>
      <trkpt lat="42.75016" lon="1.78021">
        <ele>738.6</ele>
        <time>2024-06-30T06:17:54Z</time>
      </trkpt>
      <trkpt lat="42.75018" lon="1.78019">
        <ele>739.2</ele>
        <time>2024-06-30T06:17:55Z</time>
      </trkpt>
      <trkpt lat="42.7502" lon="1.78018">
        <ele>739.4</ele>
        <time>2024-06-30T06:17:56Z</time>
      </trkpt>
      <trkpt lat="42.75022" lon="1.78016">
        <ele>740.2</ele>
        <time>2024-06-30T06:17:57Z</time>
      </trkpt>
      <trkpt lat="42.75024" lon="1.78014">
        <ele>740.6</ele>
        <time>2024-06-30T06:17:58Z</time>
      </trkpt>
      <trkpt lat="42.75026" lon="1.78012">
        <ele>741</ele>
        <time>2024-06-30T06:17:59Z</time>
      </trkpt>
      <trkpt lat="42.75026" lon="1.78014">
        <ele>741.6</ele>
        <time>2024-06-30T06:18:00Z</time>
      </trkpt>
      <trkpt lat="42.75028" lon="1.78012">
        <ele>742.2</ele>
        <time>2024-06-30T06:18:01Z</time>
      </trkpt>
      <trkpt lat="42.7503" lon="1.78011">
        <ele>742.6</ele>
        <time>2024-06-30T06:18:02Z</time>
      </trkpt>
      <trkpt lat="42.75031" lon="1.78009">
        <ele>743.2</ele>
        <time>2024-06-30T06:18:03Z</time>
      </trkpt>
      <trkpt lat="42.75031" lon="1.78008">
        <ele>743.8</ele>
        <time>2024-06-30T06:18:04Z</time>
      </trkpt>
      <trkpt lat="42.75032" lon="1.78006">
        <ele>744</ele>
        <time>2024-06-30T06:18:05Z</time>
      </trkpt>
      <trkpt lat="42.75034" lon="1.78005">
        <ele>744.4</ele>
        <time>2024-06-30T06:18:06Z</time>
      </trkpt>
      <trkpt lat="42.75036" lon="1.78003">
        <ele>744.8</ele>
        <time>2024-06-30T06:18:07Z</time>
      </trkpt>
      <trkpt lat="42.75037" lon="1.78002">
        <ele>745.2</ele>
        <time>2024-06-30T06:18:08Z</time>
      </trkpt>
      <trkpt lat="42.75038" lon="1.78">
        <ele>745.2</ele>
        <time>2024-06-30T06:18:09Z</time>
      </trkpt>
      <trkpt lat="42.75039" lon="1.77998">
        <ele>745.4</ele>
        <time>2024-06-30T06:18:10Z</time>
      </trkpt>
      <trkpt lat="42.7504" lon="1.77996">
        <ele>745.8</ele>
        <time>2024-06-30T06:18:11Z</time>
      </trkpt>
      <trkpt lat="42.75041" lon="1.77994">
        <ele>746.2</ele>
        <time>2024-06-30T06:18:12Z</time>
      </trkpt>
      <trkpt lat="42.75042" lon="1.77991">
        <ele>746.4</ele>
        <time>2024-06-30T06:18:13Z</time>
      </trkpt>
      <trkpt lat="42.75043" lon="1.77988">
        <ele>746.4</ele>
        <time>2024-06-30T06:18:14Z</time>
      </trkpt>
      <trkpt lat="42.75044" lon="1.77987">
        <ele>746.8</ele>
        <time>2024-06-30T06:18:15Z</time>
      </trkpt>
      <trkpt lat="42.75046" lon="1.77985">
        <ele>747</ele>
        <time>2024-06-30T06:18:16Z</time>
      </trkpt>
      <trkpt lat="42.75047" lon="1.77982">
        <ele>747.2</ele>
        <time>2024-06-30T06:18:17Z</time>
      </trkpt>
      <trkpt lat="42.75048" lon="1.7798">
        <ele>747.4</ele>
        <time>2024-06-30T06:18:18Z</time>
      </trkpt>
      <trkpt lat="42.7505" lon="1.77978">
        <ele>747.8</ele>
        <time>2024-06-30T06:18:19Z</time>
      </trkpt>
      <trkpt lat="42.75051" lon="1.77976">
        <ele>748</ele>
        <time>2024-06-30T06:18:20Z</time>
      </trkpt>
      <trkpt lat="42.75052" lon="1.77974">
        <ele>748.2</ele>
        <time>2024-06-30T06:18:21Z</time>
      </trkpt>
      <trkpt lat="42.75054" lon="1.77972">
        <ele>748.6</ele>
        <time>2024-06-30T06:18:22Z</time>
      </trkpt>
      <trkpt lat="42.75056" lon="1.77968">
        <ele>748.8</ele>
        <time>2024-06-30T06:18:23Z</time>
      </trkpt>
      <trkpt lat="42.75058" lon="1.77967">
        <ele>749</ele>
        <time>2024-06-30T06:18:24Z</time>
      </trkpt>
      <trkpt lat="42.7506" lon="1.77964">
        <ele>749.2</ele>
        <time>2024-06-30T06:18:25Z</time>
      </trkpt>
      <trkpt lat="42.75063" lon="1.77962">
        <ele>749.6</ele>
        <time>2024-06-30T06:18:26Z</time>
      </trkpt>
      <trkpt lat="42.75065" lon="1.77961">
        <ele>750</ele>
        <time>2024-06-30T06:18:27Z</time>
      </trkpt>
      <trkpt lat="42.75067" lon="1.7796">
        <ele>750.6</ele>
        <time>2024-06-30T06:18:28Z</time>
      </trkpt>
      <trkpt lat="42.75069" lon="1.77959">
        <ele>751.2</ele>
        <time>2024-06-30T06:18:29Z</time>
      </trkpt>
      <trkpt lat="42.75071" lon="1.77958">
        <ele>751.6</ele>
        <time>2024-06-30T06:18:30Z</time>
      </trkpt>
      <trkpt lat="42.75073" lon="1.77956">
        <ele>752.2</ele>
        <time>2024-06-30T06:18:31Z</time>
      </trkpt>
      <trkpt lat="42.75075" lon="1.77954">
        <ele>752.4</ele>
        <time>2024-06-30T06:18:32Z</time>
      </trkpt>
      <trkpt lat="42.75077" lon="1.77953">
        <ele>753</ele>
        <time>2024-06-30T06:18:33Z</time>
      </trkpt>
      <trkpt lat="42.75079" lon="1.77951">
        <ele>753.2</ele>
        <time>2024-06-30T06:18:34Z</time>
      </trkpt>
      <trkpt lat="42.75081" lon="1.77949">
        <ele>753.8</ele>
        <time>2024-06-30T06:18:35Z</time>
      </trkpt>
      <trkpt lat="42.75084" lon="1.77947">
        <ele>753.8</ele>
        <time>2024-06-30T06:18:36Z</time>
      </trkpt>
      <trkpt lat="42.75087" lon="1.77946">
        <ele>754.4</ele>
        <time>2024-06-30T06:18:37Z</time>
      </trkpt>
      <trkpt lat="42.75089" lon="1.77944">
        <ele>754.8</ele>
        <time>2024-06-30T06:18:38Z</time>
      </trkpt>
      <trkpt lat="42.75093" lon="1.77943">
        <ele>755</ele>
        <time>2024-06-30T06:18:39Z</time>
      </trkpt>
      <trkpt lat="42.75097" lon="1.77941">
        <ele>755.6</ele>
        <time>2024-06-30T06:18:40Z</time>
      </trkpt>
      <trkpt lat="42.75101" lon="1.77938">
        <ele>755.8</ele>
        <time>2024-06-30T06:18:41Z</time>
      </trkpt>
      <trkpt lat="42.75104" lon="1.77936">
        <ele>756.2</ele>
        <time>2024-06-30T06:18:42Z</time>
      </trkpt>
      <trkpt lat="42.75107" lon="1.77934">
        <ele>756.4</ele>
        <time>2024-06-30T06:18:43Z</time>
      </trkpt>
      <trkpt lat="42.75109" lon="1.77931">
        <ele>756.8</ele>
        <time>2024-06-30T06:18:44Z</time>
      </trkpt>
      <trkpt lat="42.75113" lon="1.77927">
        <ele>757.2</ele>
        <time>2024-06-30T06:18:45Z</time>
      </trkpt>
      <trkpt lat="42.75115" lon="1.77925">
        <ele>758.2</ele>
        <time>2024-06-30T06:18:46Z</time>
      </trkpt>
      <trkpt lat="42.75118" lon="1.77922">
        <ele>759</ele>
        <time>2024-06-30T06:18:47Z</time>
      </trkpt>
      <trkpt lat="42.75119" lon="1.77921">
        <ele>759.2</ele>
        <time>2024-06-30T06:18:48Z</time>
      </trkpt>
      <trkpt lat="42.75121" lon="1.77919">
        <ele>759.8</ele>
        <time>2024-06-30T06:18:49Z</time>
      </trkpt>
      <trkpt lat="42.75123" lon="1.77917">
        <ele>760</ele>
        <time>2024-06-30T06:18:50Z</time>
      </trkpt>
      <trkpt lat="42.75126" lon="1.77915">
        <ele>760.4</ele>
        <time>2024-06-30T06:18:51Z</time>
      </trkpt>
      <trkpt lat="42.75127" lon="1.77913">
        <ele>760.6</ele>
        <time>2024-06-30T06:18:52Z</time>
      </trkpt>
      <trkpt lat="42.7513" lon="1.77912">
        <ele>761</ele>
        <time>2024-06-30T06:18:53Z</time>
      </trkpt>
      <trkpt lat="42.75133" lon="1.7791">
        <ele>761.4</ele>
        <time>2024-06-30T06:18:54Z</time>
      </trkpt>
      <trkpt lat="42.75135" lon="1.7791">
        <ele>761.4</ele>
        <time>2024-06-30T06:18:55Z</time>
      </trkpt>
      <trkpt lat="42.75138" lon="1.77909">
        <ele>761.6</ele>
        <time>2024-06-30T06:18:56Z</time>
      </trkpt>
      <trkpt lat="42.7514" lon="1.77908">
        <ele>761.6</ele>
        <time>2024-06-30T06:18:57Z</time>
      </trkpt>
      <trkpt lat="42.75142" lon="1.77906">
        <ele>762</ele>
        <time>2024-06-30T06:18:58Z</time>
      </trkpt>
      <trkpt lat="42.75145" lon="1.77905">
        <ele>762.2</ele>
        <time>2024-06-30T06:18:59Z</time>
      </trkpt>
      <trkpt lat="42.75147" lon="1.77904">
        <ele>762.8</ele>
        <time>2024-06-30T06:19:00Z</time>
      </trkpt>
      <trkpt lat="42.75149" lon="1.77902">
        <ele>763</ele>
        <time>2024-06-30T06:19:01Z</time>
      </trkpt>
      <trkpt lat="42.75152" lon="1.77901">
        <ele>763.2</ele>
        <time>2024-06-30T06:19:02Z</time>
      </trkpt>
      <trkpt lat="42.75154" lon="1.779">
        <ele>763.4</ele>
        <time>2024-06-30T06:19:03Z</time>
      </trkpt>
      <trkpt lat="42.75157" lon="1.77899">
        <ele>763.4</ele>
        <time>2024-06-30T06:19:04Z</time>
      </trkpt>
      <trkpt lat="42.75159" lon="1.77898">
        <ele>763.8</ele>
        <time>2024-06-30T06:19:05Z</time>
      </trkpt>
      <trkpt lat="42.75162" lon="1.77897">
        <ele>764</ele>
        <time>2024-06-30T06:19:06Z</time>
      </trkpt>
      <trkpt lat="42.75164" lon="1.77895">
        <ele>764</ele>
        <time>2024-06-30T06:19:07Z</time>
      </trkpt>
      <trkpt lat="42.75167" lon="1.77893">
        <ele>764.2</ele>
        <time>2024-06-30T06:19:08Z</time>
      </trkpt>
      <trkpt lat="42.7517" lon="1.77891">
        <ele>764.4</ele>
        <time>2024-06-30T06:19:09Z</time>
      </trkpt>
      <trkpt lat="42.75173" lon="1.77888">
        <ele>764.6</ele>
        <time>2024-06-30T06:19:10Z</time>
      </trkpt>
      <trkpt lat="42.75175" lon="1.77886">
        <ele>764.6</ele>
        <time>2024-06-30T06:19:11Z</time>
      </trkpt>
      <trkpt lat="42.75178" lon="1.77883">
        <ele>765</ele>
        <time>2024-06-30T06:19:12Z</time>
      </trkpt>
      <trkpt lat="42.75181" lon="1.77881">
        <ele>765</ele>
        <time>2024-06-30T06:19:13Z</time>
      </trkpt>
      <trkpt lat="42.75186" lon="1.77879">
        <ele>765.4</ele>
        <time>2024-06-30T06:19:14Z</time>
      </trkpt>
      <trkpt lat="42.75191" lon="1.77878">
        <ele>765.6</ele>
        <time>2024-06-30T06:19:15Z</time>
      </trkpt>
      <trkpt lat="42.75195" lon="1.77878">
        <ele>766.2</ele>
        <time>2024-06-30T06:19:16Z</time>
      </trkpt>
      <trkpt lat="42.752" lon="1.77878">
        <ele>766.6</ele>
        <time>2024-06-30T06:19:17Z</time>
      </trkpt>
      <trkpt lat="42.75206" lon="1.77878">
        <ele>767</ele>
        <time>2024-06-30T06:19:18Z</time>
      </trkpt>
      <trkpt lat="42.75211" lon="1.77878">
        <ele>767.4</ele>
        <time>2024-06-30T06:19:19Z</time>
      </trkpt>
      <trkpt lat="42.75215" lon="1.77877">
        <ele>768.6</ele>
        <time>2024-06-30T06:19:20Z</time>
      </trkpt>
      <trkpt lat="42.75219" lon="1.77876">
        <ele>769.2</ele>
        <time>2024-06-30T06:19:21Z</time>
      </trkpt>
      <trkpt lat="42.75223" lon="1.77876">
        <ele>769.6</ele>
        <time>2024-06-30T06:19:22Z</time>
      </trkpt>
      <trkpt lat="42.75225" lon="1.77879">
        <ele>770.4</ele>
        <time>2024-06-30T06:19:23Z</time>
      </trkpt>
      <trkpt lat="42.75226" lon="1.77881">
        <ele>770.6</ele>
        <time>2024-06-30T06:19:24Z</time>
      </trkpt>
      <trkpt lat="42.75225" lon="1.77882">
        <ele>771.2</ele>
        <time>2024-06-30T06:19:25Z</time>
      </trkpt>
      <trkpt lat="42.75223" lon="1.77883">
        <ele>771.6</ele>
        <time>2024-06-30T06:19:26Z</time>
      </trkpt>
      <trkpt lat="42.7522" lon="1.77885">
        <ele>772.2</ele>
        <time>2024-06-30T06:19:27Z</time>
      </trkpt>
      <trkpt lat="42.75217" lon="1.77886">
        <ele>772.6</ele>
        <time>2024-06-30T06:19:28Z</time>
      </trkpt>
      <trkpt lat="42.75214" lon="1.77889">
        <ele>772.8</ele>
        <time>2024-06-30T06:19:29Z</time>
      </trkpt>
      <trkpt lat="42.7521" lon="1.77891">
        <ele>773.2</ele>
        <time>2024-06-30T06:19:30Z</time>
      </trkpt>
      <trkpt lat="42.75208" lon="1.77892">
        <ele>773.4</ele>
        <time>2024-06-30T06:19:31Z</time>
      </trkpt>
      <trkpt lat="42.75204" lon="1.77896">
        <ele>774</ele>
        <time>2024-06-30T06:19:32Z</time>
      </trkpt>
      <trkpt lat="42.75201" lon="1.77901">
        <ele>774.6</ele>
        <time>2024-06-30T06:19:33Z</time>
      </trkpt>
      <trkpt lat="42.75198" lon="1.77905">
        <ele>775.2</ele>
        <time>2024-06-30T06:19:34Z</time>
      </trkpt>
      <trkpt lat="42.75195" lon="1.7791">
        <ele>775.4</ele>
        <time>2024-06-30T06:19:35Z</time>
      </trkpt>
      <trkpt lat="42.75193" lon="1.77916">
        <ele>776.2</ele>
        <time>2024-06-30T06:19:36Z</time>
      </trkpt>
      <trkpt lat="42.75189" lon="1.77921">
        <ele>777</ele>
        <time>2024-06-30T06:19:37Z</time>
      </trkpt>
      <trkpt lat="42.75186" lon="1.77924">
        <ele>777.2</ele>
        <time>2024-06-30T06:19:38Z</time>
      </trkpt>
      <trkpt lat="42.75183" lon="1.77927">
        <ele>777.6</ele>
        <time>2024-06-30T06:19:39Z</time>
      </trkpt>
      <trkpt lat="42.75181" lon="1.7793">
        <ele>778</ele>
        <time>2024-06-30T06:19:40Z</time>
      </trkpt>
      <trkpt lat="42.75179" lon="1.77935">
        <ele>778.6</ele>
        <time>2024-06-30T06:19:41Z</time>
      </trkpt>
      <trkpt lat="42.7518" lon="1.77937">
        <ele>779</ele>
        <time>2024-06-30T06:19:42Z</time>
      </trkpt>
      <trkpt lat="42.75182" lon="1.77938">
        <ele>779.6</ele>
        <time>2024-06-30T06:19:43Z</time>
      </trkpt>
      <trkpt lat="42.75184" lon="1.77937">
        <ele>780.2</ele>
        <time>2024-06-30T06:19:44Z</time>
      </trkpt>
      <trkpt lat="42.75186" lon="1.77935">
        <ele>780.8</ele>
        <time>2024-06-30T06:19:45Z</time>
      </trkpt>
      <trkpt lat="42.75188" lon="1.77933">
        <ele>781.4</ele>
        <time>2024-06-30T06:19:46Z</time>
      </trkpt>
      <trkpt lat="42.75192" lon="1.77931">
        <ele>781.6</ele>
        <time>2024-06-30T06:19:47Z</time>
      </trkpt>
      <trkpt lat="42.75196" lon="1.77928">
        <ele>782.2</ele>
        <time>2024-06-30T06:19:48Z</time>
      </trkpt>
      <trkpt lat="42.75199" lon="1.77926">
        <ele>782.4</ele>
        <time>2024-06-30T06:19:49Z</time>
      </trkpt>
      <trkpt lat="42.75204" lon="1.77924">
        <ele>783</ele>
        <time>2024-06-30T06:19:50Z</time>
      </trkpt>
      <trkpt lat="42.75209" lon="1.77922">
        <ele>783.2</ele>
        <time>2024-06-30T06:19:51Z</time>
      </trkpt>
      <trkpt lat="42.75214" lon="1.77922">
        <ele>783.8</ele>
        <time>2024-06-30T06:19:52Z</time>
      </trkpt>
      <trkpt lat="42.75219" lon="1.77922">
        <ele>784.2</ele>
        <time>2024-06-30T06:19:53Z</time>
      </trkpt>
      <trkpt lat="42.75222" lon="1.77922">
        <ele>784.8</ele>
        <time>2024-06-30T06:19:54Z</time>
      </trkpt>
      <trkpt lat="42.75226" lon="1.77923">
        <ele>785.8</ele>
        <time>2024-06-30T06:19:55Z</time>
      </trkpt>
      <trkpt lat="42.7523" lon="1.77923">
        <ele>786.4</ele>
        <time>2024-06-30T06:19:56Z</time>
      </trkpt>
      <trkpt lat="42.75233" lon="1.77922">
        <ele>787</ele>
        <time>2024-06-30T06:19:57Z</time>
      </trkpt>
      <trkpt lat="42.75236" lon="1.77922">
        <ele>787.4</ele>
        <time>2024-06-30T06:19:58Z</time>
      </trkpt>
      <trkpt lat="42.75239" lon="1.77921">
        <ele>787.8</ele>
        <time>2024-06-30T06:19:59Z</time>
      </trkpt>
      <trkpt lat="42.75241" lon="1.77921">
        <ele>788.4</ele>
        <time>2024-06-30T06:20:00Z</time>
      </trkpt>
      <trkpt lat="42.75245" lon="1.7792">
        <ele>789.8</ele>
        <time>2024-06-30T06:20:01Z</time>
      </trkpt>
      <trkpt lat="42.75247" lon="1.7792">
        <ele>790.8</ele>
        <time>2024-06-30T06:20:02Z</time>
      </trkpt>
      <trkpt lat="42.7525" lon="1.77918">
        <ele>791.2</ele>
        <time>2024-06-30T06:20:03Z</time>
      </trkpt>
      <trkpt lat="42.75252" lon="1.77917">
        <ele>792</ele>
        <time>2024-06-30T06:20:04Z</time>
      </trkpt>
      <trkpt lat="42.75255" lon="1.77916">
        <ele>792.8</ele>
        <time>2024-06-30T06:20:05Z</time>
      </trkpt>
      <trkpt lat="42.75257" lon="1.77914">
        <ele>793.8</ele>
        <time>2024-06-30T06:20:06Z</time>
      </trkpt>
      <trkpt lat="42.75259" lon="1.77913">
        <ele>794.2</ele>
        <time>2024-06-30T06:20:07Z</time>
      </trkpt>
      <trkpt lat="42.7526" lon="1.77913">
        <ele>794.8</ele>
        <time>2024-06-30T06:20:08Z</time>
      </trkpt>
      <trkpt lat="42.75261" lon="1.77912">
        <ele>795.2</ele>
        <time>2024-06-30T06:20:09Z</time>
      </trkpt>
      <trkpt lat="42.75263" lon="1.77912">
        <ele>795.6</ele>
        <time>2024-06-30T06:20:10Z</time>
      </trkpt>
      <trkpt lat="42.75264" lon="1.77912">
        <ele>796</ele>
        <time>2024-06-30T06:20:11Z</time>
      </trkpt>
      <trkpt lat="42.75265" lon="1.77913">
        <ele>796.2</ele>
        <time>2024-06-30T06:20:12Z</time>
      </trkpt>
      <trkpt lat="42.75265" lon="1.77915">
        <ele>796.6</ele>
        <time>2024-06-30T06:20:13Z</time>
      </trkpt>
      <trkpt lat="42.75265" lon="1.77917">
        <ele>796.6</ele>
        <time>2024-06-30T06:20:14Z</time>
      </trkpt>
      <trkpt lat="42.75264" lon="1.77918">
        <ele>796.8</ele>
        <time>2024-06-30T06:20:15Z</time>
      </trkpt>
      <trkpt lat="42.75262" lon="1.77918">
        <ele>796.8</ele>
        <time>2024-06-30T06:20:16Z</time>
      </trkpt>
      <trkpt lat="42.75261" lon="1.77919">
        <ele>797</ele>
        <time>2024-06-30T06:20:17Z</time>
      </trkpt>
      <trkpt lat="42.7526" lon="1.7792">
        <ele>797</ele>
        <time>2024-06-30T06:20:18Z</time>
      </trkpt>
      <trkpt lat="42.75258" lon="1.77921">
        <ele>797.6</ele>
        <time>2024-06-30T06:20:19Z</time>
      </trkpt>
      <trkpt lat="42.75256" lon="1.77922">
        <ele>797.8</ele>
        <time>2024-06-30T06:20:20Z</time>
      </trkpt>
      <trkpt lat="42.75254" lon="1.77923">
        <ele>798</ele>
        <time>2024-06-30T06:20:21Z</time>
      </trkpt>
      <trkpt lat="42.75253" lon="1.77923">
        <ele>798.4</ele>
        <time>2024-06-30T06:20:22Z</time>
      </trkpt>
      <trkpt lat="42.75252" lon="1.77924">
        <ele>798.6</ele>
        <time>2024-06-30T06:20:23Z</time>
      </trkpt>
      <trkpt lat="42.7525" lon="1.77924">
        <ele>798.8</ele>
        <time>2024-06-30T06:20:24Z</time>
      </trkpt>
      <trkpt lat="42.7525" lon="1.77925">
        <ele>798.8</ele>
        <time>2024-06-30T06:20:25Z</time>
      </trkpt>
      <trkpt lat="42.7525" lon="1.77925">
        <ele>799</ele>
        <time>2024-06-30T06:20:26Z</time>
      </trkpt>
      <trkpt lat="42.75249" lon="1.77925">
        <ele>799</ele>
        <time>2024-06-30T06:20:27Z</time>
      </trkpt>
      <trkpt lat="42.75248" lon="1.77926">
        <ele>799.2</ele>
        <time>2024-06-30T06:20:28Z</time>
      </trkpt>
      <trkpt lat="42.75246" lon="1.77927">
        <ele>799.4</ele>
        <time>2024-06-30T06:20:29Z</time>
      </trkpt>
      <trkpt lat="42.75245" lon="1.77928">
        <ele>799.6</ele>
        <time>2024-06-30T06:20:30Z</time>
      </trkpt>
      <trkpt lat="42.75242" lon="1.77929">
        <ele>799.6</ele>
        <time>2024-06-30T06:20:31Z</time>
      </trkpt>
      <trkpt lat="42.75241" lon="1.7793">
        <ele>799.8</ele>
        <time>2024-06-30T06:20:32Z</time>
      </trkpt>
      <trkpt lat="42.75239" lon="1.77931">
        <ele>800</ele>
        <time>2024-06-30T06:20:33Z</time>
      </trkpt>
      <trkpt lat="42.75237" lon="1.77932">
        <ele>800</ele>
        <time>2024-06-30T06:20:34Z</time>
      </trkpt>
      <trkpt lat="42.75235" lon="1.77933">
        <ele>800.2</ele>
        <time>2024-06-30T06:20:35Z</time>
      </trkpt>
      <trkpt lat="42.75234" lon="1.77934">
        <ele>800.4</ele>
        <time>2024-06-30T06:20:36Z</time>
      </trkpt>
      <trkpt lat="42.75233" lon="1.77935">
        <ele>800.6</ele>
        <time>2024-06-30T06:20:37Z</time>
      </trkpt>
      <trkpt lat="42.75232" lon="1.77936">
        <ele>800.8</ele>
        <time>2024-06-30T06:20:38Z</time>
      </trkpt>
      <trkpt lat="42.7523" lon="1.77937">
        <ele>801</ele>
        <time>2024-06-30T06:20:39Z</time>
      </trkpt>
      <trkpt lat="42.75229" lon="1.77939">
        <ele>801.2</ele>
        <time>2024-06-30T06:20:40Z</time>
      </trkpt>
      <trkpt lat="42.75227" lon="1.7794">
        <ele>801.2</ele>
        <time>2024-06-30T06:20:41Z</time>
      </trkpt>
      <trkpt lat="42.75226" lon="1.77942">
        <ele>801.6</ele>
        <time>2024-06-30T06:20:42Z</time>
      </trkpt>
      <trkpt lat="42.75224" lon="1.77943">
        <ele>801.8</ele>
        <time>2024-06-30T06:20:43Z</time>
      </trkpt>
      <trkpt lat="42.75223" lon="1.77945">
        <ele>802</ele>
        <time>2024-06-30T06:20:44Z</time>
      </trkpt>
      <trkpt lat="42.75222" lon="1.77947">
        <ele>802.2</ele>
        <time>2024-06-30T06:20:45Z</time>
      </trkpt>
      <trkpt lat="42.7522" lon="1.77948">
        <ele>802.2</ele>
        <time>2024-06-30T06:20:46Z</time>
      </trkpt>
      <trkpt lat="42.75219" lon="1.77949">
        <ele>802.4</ele>
        <time>2024-06-30T06:20:47Z</time>
      </trkpt>
      <trkpt lat="42.75218" lon="1.7795">
        <ele>802.6</ele>
        <time>2024-06-30T06:20:48Z</time>
      </trkpt>
      <trkpt lat="42.75216" lon="1.77951">
        <ele>803</ele>
        <time>2024-06-30T06:20:49Z</time>
      </trkpt>
      <trkpt lat="42.75214" lon="1.77952">
        <ele>803</ele>
        <time>2024-06-30T06:20:50Z</time>
      </trkpt>
      <trkpt lat="42.75212" lon="1.77954">
        <ele>803.2</ele>
        <time>2024-06-30T06:20:51Z</time>
      </trkpt>
      <trkpt lat="42.75211" lon="1.77955">
        <ele>803.4</ele>
        <time>2024-06-30T06:20:52Z</time>
      </trkpt>
      <trkpt lat="42.75209" lon="1.77956">
        <ele>803.6</ele>
        <time>2024-06-30T06:20:53Z</time>
      </trkpt>
      <trkpt lat="42.75207" lon="1.77957">
        <ele>803.8</ele>
        <time>2024-06-30T06:20:54Z</time>
      </trkpt>
      <trkpt lat="42.75205" lon="1.77959">
        <ele>803.8</ele>
        <time>2024-06-30T06:20:55Z</time>
      </trkpt>
      <trkpt lat="42.75204" lon="1.7796">
        <ele>804</ele>
        <time>2024-06-30T06:20:56Z</time>
      </trkpt>
      <trkpt lat="42.75202" lon="1.77962">
        <ele>804</ele>
        <time>2024-06-30T06:20:57Z</time>
      </trkpt>
      <trkpt lat="42.75201" lon="1.77964">
        <ele>804.2</ele>
        <time>2024-06-30T06:20:58Z</time>
      </trkpt>
      <trkpt lat="42.75199" lon="1.77965">
        <ele>804.2</ele>
        <time>2024-06-30T06:20:59Z</time>
      </trkpt>
      <trkpt lat="42.75198" lon="1.77967">
        <ele>804.4</ele>
        <time>2024-06-30T06:21:00Z</time>
      </trkpt>
      <trkpt lat="42.75196" lon="1.7797">
        <ele>804.4</ele>
        <time>2024-06-30T06:21:01Z</time>
      </trkpt>
      <trkpt lat="42.75194" lon="1.77972">
        <ele>804.6</ele>
        <time>2024-06-30T06:21:02Z</time>
      </trkpt>
      <trkpt lat="42.75193" lon="1.77973">
        <ele>804.6</ele>
        <time>2024-06-30T06:21:03Z</time>
      </trkpt>
      <trkpt lat="42.75192" lon="1.77975">
        <ele>804.8</ele>
        <time>2024-06-30T06:21:04Z</time>
      </trkpt>
      <trkpt lat="42.7519" lon="1.77978">
        <ele>805</ele>
        <time>2024-06-30T06:21:05Z</time>
      </trkpt>
      <trkpt lat="42.75188" lon="1.7798">
        <ele>805</ele>
        <time>2024-06-30T06:21:06Z</time>
      </trkpt>
      <trkpt lat="42.75186" lon="1.77983">
        <ele>805.2</ele>
        <time>2024-06-30T06:21:07Z</time>
      </trkpt>
      <trkpt lat="42.75185" lon="1.77984">
        <ele>805.4</ele>
        <time>2024-06-30T06:21:08Z</time>
      </trkpt>
      <trkpt lat="42.75183" lon="1.77986">
        <ele>805.6</ele>
        <time>2024-06-30T06:21:09Z</time>
      </trkpt>
      <trkpt lat="42.75181" lon="1.77988">
        <ele>805.6</ele>
        <time>2024-06-30T06:21:10Z</time>
      </trkpt>
      <trkpt lat="42.7518" lon="1.7799">
        <ele>805.6</ele>
        <time>2024-06-30T06:21:11Z</time>
      </trkpt>
      <trkpt lat="42.75179" lon="1.77993">
        <ele>805.6</ele>
        <time>2024-06-30T06:21:12Z</time>
      </trkpt>
      <trkpt lat="42.75177" lon="1.77995">
        <ele>805.8</ele>
        <time>2024-06-30T06:21:13Z</time>
      </trkpt>
      <trkpt lat="42.75175" lon="1.77997">
        <ele>805.8</ele>
        <time>2024-06-30T06:21:14Z</time>
      </trkpt>
      <trkpt lat="42.75173" lon="1.77998">
        <ele>805.8</ele>
        <time>2024-06-30T06:21:15Z</time>
      </trkpt>
      <trkpt lat="42.75171" lon="1.78001">
        <ele>805.8</ele>
        <time>2024-06-30T06:21:16Z</time>
      </trkpt>
      <trkpt lat="42.75168" lon="1.78003">
        <ele>805.6</ele>
        <time>2024-06-30T06:21:17Z</time>
      </trkpt>
      <trkpt lat="42.75166" lon="1.78005">
        <ele>805.6</ele>
        <time>2024-06-30T06:21:18Z</time>
      </trkpt>
      <trkpt lat="42.75165" lon="1.78006">
        <ele>805.6</ele>
        <time>2024-06-30T06:21:19Z</time>
      </trkpt>
      <trkpt lat="42.75163" lon="1.78008">
        <ele>805.6</ele>
        <time>2024-06-30T06:21:20Z</time>
      </trkpt>
      <trkpt lat="42.75161" lon="1.7801">
        <ele>805.6</ele>
        <time>2024-06-30T06:21:21Z</time>
      </trkpt>
      <trkpt lat="42.75157" lon="1.78014">
        <ele>805.8</ele>
        <time>2024-06-30T06:21:24Z</time>
      </trkpt>
      <trkpt lat="42.75156" lon="1.78016">
        <ele>806</ele>
        <time>2024-06-30T06:21:25Z</time>
      </trkpt>
      <trkpt lat="42.75155" lon="1.78017">
        <ele>806</ele>
        <time>2024-06-30T06:21:26Z</time>
      </trkpt>
      <trkpt lat="42.75154" lon="1.78018">
        <ele>806</ele>
        <time>2024-06-30T06:21:27Z</time>
      </trkpt>
      <trkpt lat="42.75153" lon="1.7802">
        <ele>806.2</ele>
        <time>2024-06-30T06:21:28Z</time>
      </trkpt>
      <trkpt lat="42.75152" lon="1.78022">
        <ele>806.2</ele>
        <time>2024-06-30T06:21:29Z</time>
      </trkpt>
      <trkpt lat="42.75152" lon="1.78023">
        <ele>806.4</ele>
        <time>2024-06-30T06:21:30Z</time>
      </trkpt>
      <trkpt lat="42.75151" lon="1.78024">
        <ele>806.4</ele>
        <time>2024-06-30T06:21:31Z</time>
      </trkpt>
      <trkpt lat="42.75151" lon="1.78025">
        <ele>806.6</ele>
        <time>2024-06-30T06:21:32Z</time>
      </trkpt>
      <trkpt lat="42.75152" lon="1.78027">
        <ele>806.6</ele>
        <time>2024-06-30T06:21:33Z</time>
      </trkpt>
      <trkpt lat="42.75152" lon="1.78029">
        <ele>806.8</ele>
        <time>2024-06-30T06:21:34Z</time>
      </trkpt>
      <trkpt lat="42.75153" lon="1.7803">
        <ele>807</ele>
        <time>2024-06-30T06:21:35Z</time>
      </trkpt>
      <trkpt lat="42.75153" lon="1.78031">
        <ele>807.4</ele>
        <time>2024-06-30T06:21:36Z</time>
      </trkpt>
      <trkpt lat="42.75154" lon="1.78032">
        <ele>808</ele>
        <time>2024-06-30T06:21:37Z</time>
      </trkpt>
      <trkpt lat="42.75154" lon="1.78033">
        <ele>808.2</ele>
        <time>2024-06-30T06:21:38Z</time>
      </trkpt>
      <trkpt lat="42.75154" lon="1.78033">
        <ele>808.8</ele>
        <time>2024-06-30T06:21:39Z</time>
      </trkpt>
      <trkpt lat="42.75154" lon="1.78033">
        <ele>809</ele>
        <time>2024-06-30T06:21:40Z</time>
      </trkpt>
      <trkpt lat="42.75154" lon="1.78033">
        <ele>809.8</ele>
        <time>2024-06-30T06:21:41Z</time>
      </trkpt>
      <trkpt lat="42.75154" lon="1.78033">
        <ele>810</ele>
        <time>2024-06-30T06:21:42Z</time>
      </trkpt>
      <trkpt lat="42.75154" lon="1.78036">
        <ele>811.6</ele>
        <time>2024-06-30T06:21:52Z</time>
      </trkpt>
      <trkpt lat="42.75154" lon="1.78039">
        <ele>811.6</ele>
        <time>2024-06-30T06:21:53Z</time>
      </trkpt>
      <trkpt lat="42.75154" lon="1.78041">
        <ele>811.6</ele>
        <time>2024-06-30T06:21:54Z</time>
      </trkpt>
      <trkpt lat="42.75154" lon="1.78042">
        <ele>811.8</ele>
        <time>2024-06-30T06:21:55Z</time>
      </trkpt>
      <trkpt lat="42.75153" lon="1.78045">
        <ele>812</ele>
        <time>2024-06-30T06:21:56Z</time>
      </trkpt>
      <trkpt lat="42.75152" lon="1.78047">
        <ele>812.2</ele>
        <time>2024-06-30T06:21:57Z</time>
      </trkpt>
      <trkpt lat="42.75151" lon="1.78049">
        <ele>812.4</ele>
        <time>2024-06-30T06:21:58Z</time>
      </trkpt>
      <trkpt lat="42.7515" lon="1.78051">
        <ele>813</ele>
        <time>2024-06-30T06:21:59Z</time>
      </trkpt>
      <trkpt lat="42.75148" lon="1.78053">
        <ele>813.2</ele>
        <time>2024-06-30T06:22:00Z</time>
      </trkpt>
      <trkpt lat="42.75147" lon="1.78056">
        <ele>813.4</ele>
        <time>2024-06-30T06:22:01Z</time>
      </trkpt>
      <trkpt lat="42.75145" lon="1.78057">
        <ele>813.6</ele>
        <time>2024-06-30T06:22:02Z</time>
      </trkpt>
      <trkpt lat="42.75144" lon="1.7806">
        <ele>813.6</ele>
        <time>2024-06-30T06:22:03Z</time>
      </trkpt>
      <trkpt lat="42.75142" lon="1.78061">
        <ele>814</ele>
        <time>2024-06-30T06:22:04Z</time>
      </trkpt>
      <trkpt lat="42.7514" lon="1.78063">
        <ele>814</ele>
        <time>2024-06-30T06:22:05Z</time>
      </trkpt>
      <trkpt lat="42.75138" lon="1.78064">
        <ele>814.2</ele>
        <time>2024-06-30T06:22:06Z</time>
      </trkpt>
      <trkpt lat="42.75137" lon="1.78066">
        <ele>814.4</ele>
        <time>2024-06-30T06:22:07Z</time>
      </trkpt>
      <trkpt lat="42.75136" lon="1.78069">
        <ele>814.4</ele>
        <time>2024-06-30T06:22:08Z</time>
      </trkpt>
      <trkpt lat="42.75135" lon="1.7807">
        <ele>814.6</ele>
        <time>2024-06-30T06:22:09Z</time>
      </trkpt>
      <trkpt lat="42.75134" lon="1.78072">
        <ele>814.8</ele>
        <time>2024-06-30T06:22:10Z</time>
      </trkpt>
      <trkpt lat="42.75134" lon="1.78072">
        <ele>815</ele>
        <time>2024-06-30T06:22:11Z</time>
      </trkpt>
      <trkpt lat="42.75134" lon="1.78072">
        <ele>815</ele>
        <time>2024-06-30T06:22:12Z</time>
      </trkpt>
      <trkpt lat="42.75133" lon="1.78074">
        <ele>815.2</ele>
        <time>2024-06-30T06:22:13Z</time>
      </trkpt>
      <trkpt lat="42.75133" lon="1.78076">
        <ele>815.2</ele>
        <time>2024-06-30T06:22:14Z</time>
      </trkpt>
      <trkpt lat="42.75132" lon="1.78078">
        <ele>815.4</ele>
        <time>2024-06-30T06:22:15Z</time>
      </trkpt>
      <trkpt lat="42.7513" lon="1.78081">
        <ele>815.6</ele>
        <time>2024-06-30T06:22:16Z</time>
      </trkpt>
      <trkpt lat="42.75128" lon="1.78083">
        <ele>815.8</ele>
        <time>2024-06-30T06:22:17Z</time>
      </trkpt>
      <trkpt lat="42.75126" lon="1.78085">
        <ele>816</ele>
        <time>2024-06-30T06:22:18Z</time>
      </trkpt>
      <trkpt lat="42.75124" lon="1.78089">
        <ele>816.2</ele>
        <time>2024-06-30T06:22:19Z</time>
      </trkpt>
      <trkpt lat="42.75123" lon="1.78092">
        <ele>816.6</ele>
        <time>2024-06-30T06:22:20Z</time>
      </trkpt>
      <trkpt lat="42.75123" lon="1.78096">
        <ele>816.8</ele>
        <time>2024-06-30T06:22:21Z</time>
      </trkpt>
      <trkpt lat="42.75122" lon="1.78098">
        <ele>817</ele>
        <time>2024-06-30T06:22:22Z</time>
      </trkpt>
      <trkpt lat="42.7512" lon="1.78101">
        <ele>817.2</ele>
        <time>2024-06-30T06:22:23Z</time>
      </trkpt>
      <trkpt lat="42.75118" lon="1.78103">
        <ele>817.4</ele>
        <time>2024-06-30T06:22:24Z</time>
      </trkpt>
      <trkpt lat="42.75117" lon="1.78105">
        <ele>817.6</ele>
        <time>2024-06-30T06:22:25Z</time>
      </trkpt>
      <trkpt lat="42.75116" lon="1.78108">
        <ele>817.8</ele>
        <time>2024-06-30T06:22:26Z</time>
      </trkpt>
      <trkpt lat="42.75115" lon="1.7811">
        <ele>817.8</ele>
        <time>2024-06-30T06:22:27Z</time>
      </trkpt>
      <trkpt lat="42.75114" lon="1.78111">
        <ele>818.2</ele>
        <time>2024-06-30T06:22:28Z</time>
      </trkpt>
      <trkpt lat="42.75114" lon="1.78114">
        <ele>818.6</ele>
        <time>2024-06-30T06:22:29Z</time>
      </trkpt>
      <trkpt lat="42.75112" lon="1.78116">
        <ele>818.6</ele>
        <time>2024-06-30T06:22:30Z</time>
      </trkpt>
      <trkpt lat="42.75111" lon="1.78119">
        <ele>819</ele>
        <time>2024-06-30T06:22:31Z</time>
      </trkpt>
      <trkpt lat="42.7511" lon="1.7812">
        <ele>819.2</ele>
        <time>2024-06-30T06:22:32Z</time>
      </trkpt>
      <trkpt lat="42.75108" lon="1.78121">
        <ele>819.4</ele>
        <time>2024-06-30T06:22:33Z</time>
      </trkpt>
      <trkpt lat="42.75107" lon="1.78123">
        <ele>819.6</ele>
        <time>2024-06-30T06:22:34Z</time>
      </trkpt>
      <trkpt lat="42.75106" lon="1.78123">
        <ele>819.8</ele>
        <time>2024-06-30T06:22:35Z</time>
      </trkpt>
      <trkpt lat="42.75105" lon="1.78125">
        <ele>820</ele>
        <time>2024-06-30T06:22:36Z</time>
      </trkpt>
      <trkpt lat="42.75104" lon="1.78127">
        <ele>820.2</ele>
        <time>2024-06-30T06:22:37Z</time>
      </trkpt>
      <trkpt lat="42.75104" lon="1.78129">
        <ele>820.4</ele>
        <time>2024-06-30T06:22:38Z</time>
      </trkpt>
      <trkpt lat="42.75103" lon="1.78131">
        <ele>820.6</ele>
        <time>2024-06-30T06:22:39Z</time>
      </trkpt>
      <trkpt lat="42.75102" lon="1.78132">
        <ele>821</ele>
        <time>2024-06-30T06:22:40Z</time>
      </trkpt>
      <trkpt lat="42.75102" lon="1.78134">
        <ele>821</ele>
        <time>2024-06-30T06:22:41Z</time>
      </trkpt>
      <trkpt lat="42.75101" lon="1.78135">
        <ele>821.2</ele>
        <time>2024-06-30T06:22:42Z</time>
      </trkpt>
      <trkpt lat="42.75101" lon="1.78137">
        <ele>821.4</ele>
        <time>2024-06-30T06:22:43Z</time>
      </trkpt>
      <trkpt lat="42.751" lon="1.78139">
        <ele>821.6</ele>
        <time>2024-06-30T06:22:44Z</time>
      </trkpt>
      <trkpt lat="42.75099" lon="1.78141">
        <ele>821.6</ele>
        <time>2024-06-30T06:22:45Z</time>
      </trkpt>
      <trkpt lat="42.75098" lon="1.78143">
        <ele>821.8</ele>
        <time>2024-06-30T06:22:46Z</time>
      </trkpt>
      <trkpt lat="42.75097" lon="1.78145">
        <ele>822</ele>
        <time>2024-06-30T06:22:47Z</time>
      </trkpt>
      <trkpt lat="42.75096" lon="1.78146">
        <ele>822.2</ele>
        <time>2024-06-30T06:22:48Z</time>
      </trkpt>
      <trkpt lat="42.75095" lon="1.78148">
        <ele>822.4</ele>
        <time>2024-06-30T06:22:49Z</time>
      </trkpt>
      <trkpt lat="42.75094" lon="1.7815">
        <ele>822.6</ele>
        <time>2024-06-30T06:22:50Z</time>
      </trkpt>
      <trkpt lat="42.75092" lon="1.78152">
        <ele>822.8</ele>
        <time>2024-06-30T06:22:51Z</time>
      </trkpt>
      <trkpt lat="42.7509" lon="1.78154">
        <ele>822.8</ele>
        <time>2024-06-30T06:22:52Z</time>
      </trkpt>
      <trkpt lat="42.75088" lon="1.78156">
        <ele>823</ele>
        <time>2024-06-30T06:22:53Z</time>
      </trkpt>
      <trkpt lat="42.75086" lon="1.78158">
        <ele>823.2</ele>
        <time>2024-06-30T06:22:54Z</time>
      </trkpt>
      <trkpt lat="42.75083" lon="1.78159">
        <ele>823.2</ele>
        <time>2024-06-30T06:22:55Z</time>
      </trkpt>
      <trkpt lat="42.75079" lon="1.78161">
        <ele>823.4</ele>
        <time>2024-06-30T06:22:56Z</time>
      </trkpt>
      <trkpt lat="42.75076" lon="1.78162">
        <ele>823.4</ele>
        <time>2024-06-30T06:22:57Z</time>
      </trkpt>
      <trkpt lat="42.75072" lon="1.78164">
        <ele>823.4</ele>
        <time>2024-06-30T06:22:58Z</time>
      </trkpt>
      <trkpt lat="42.75067" lon="1.78167">
        <ele>823.4</ele>
        <time>2024-06-30T06:22:59Z</time>
      </trkpt>
      <trkpt lat="42.75063" lon="1.78171">
        <ele>823.4</ele>
        <time>2024-06-30T06:23:00Z</time>
      </trkpt>
      <trkpt lat="42.75056" lon="1.78177">
        <ele>823.4</ele>
        <time>2024-06-30T06:23:01Z</time>
      </trkpt>
      <trkpt lat="42.75052" lon="1.78181">
        <ele>823.2</ele>
        <time>2024-06-30T06:23:02Z</time>
      </trkpt>
      <trkpt lat="42.75049" lon="1.78185">
        <ele>822.8</ele>
        <time>2024-06-30T06:23:03Z</time>
      </trkpt>
      <trkpt lat="42.75045" lon="1.78189">
        <ele>822.6</ele>
        <time>2024-06-30T06:23:04Z</time>
      </trkpt>
      <trkpt lat="42.75043" lon="1.78193">
        <ele>822.2</ele>
        <time>2024-06-30T06:23:05Z</time>
      </trkpt>
      <trkpt lat="42.75041" lon="1.78196">
        <ele>822</ele>
        <time>2024-06-30T06:23:06Z</time>
      </trkpt>
      <trkpt lat="42.7504" lon="1.78199">
        <ele>822</ele>
        <time>2024-06-30T06:23:07Z</time>
      </trkpt>
      <trkpt lat="42.75038" lon="1.78201">
        <ele>822</ele>
        <time>2024-06-30T06:23:08Z</time>
      </trkpt>
      <trkpt lat="42.75036" lon="1.78204">
        <ele>821.8</ele>
        <time>2024-06-30T06:23:09Z</time>
      </trkpt>
      <trkpt lat="42.75034" lon="1.78207">
        <ele>821.8</ele>
        <time>2024-06-30T06:23:10Z</time>
      </trkpt>
      <trkpt lat="42.75031" lon="1.78212">
        <ele>821.8</ele>
        <time>2024-06-30T06:23:12Z</time>
      </trkpt>
      <trkpt lat="42.7503" lon="1.78214">
        <ele>822</ele>
        <time>2024-06-30T06:23:13Z</time>
      </trkpt>
      <trkpt lat="42.75028" lon="1.78216">
        <ele>822.2</ele>
        <time>2024-06-30T06:23:14Z</time>
      </trkpt>
      <trkpt lat="42.75026" lon="1.78218">
        <ele>822.2</ele>
        <time>2024-06-30T06:23:15Z</time>
      </trkpt>
      <trkpt lat="42.75025" lon="1.7822">
        <ele>822.4</ele>
        <time>2024-06-30T06:23:16Z</time>
      </trkpt>
      <trkpt lat="42.75023" lon="1.78221">
        <ele>822.4</ele>
        <time>2024-06-30T06:23:17Z</time>
      </trkpt>
      <trkpt lat="42.75022" lon="1.78223">
        <ele>822.6</ele>
        <time>2024-06-30T06:23:18Z</time>
      </trkpt>
      <trkpt lat="42.75021" lon="1.78225">
        <ele>822.6</ele>
        <time>2024-06-30T06:23:19Z</time>
      </trkpt>
      <trkpt lat="42.75019" lon="1.78227">
        <ele>822.8</ele>
        <time>2024-06-30T06:23:20Z</time>
      </trkpt>
      <trkpt lat="42.75017" lon="1.78229">
        <ele>822.8</ele>
        <time>2024-06-30T06:23:21Z</time>
      </trkpt>
      <trkpt lat="42.75015" lon="1.78232">
        <ele>823</ele>
        <time>2024-06-30T06:23:22Z</time>
      </trkpt>
      <trkpt lat="42.75014" lon="1.78234">
        <ele>823.2</ele>
        <time>2024-06-30T06:23:23Z</time>
      </trkpt>
      <trkpt lat="42.75013" lon="1.78236">
        <ele>823.4</ele>
        <time>2024-06-30T06:23:24Z</time>
      </trkpt>
      <trkpt lat="42.75012" lon="1.78239">
        <ele>823.4</ele>
        <time>2024-06-30T06:23:25Z</time>
      </trkpt>
      <trkpt lat="42.75011" lon="1.78241">
        <ele>823.6</ele>
        <time>2024-06-30T06:23:26Z</time>
      </trkpt>
      <trkpt lat="42.75005" lon="1.78251">
        <ele>823.8</ele>
        <time>2024-06-30T06:23:30Z</time>
      </trkpt>
      <trkpt lat="42.75004" lon="1.78254">
        <ele>824</ele>
        <time>2024-06-30T06:23:31Z</time>
      </trkpt>
      <trkpt lat="42.75003" lon="1.78256">
        <ele>824.2</ele>
        <time>2024-06-30T06:23:32Z</time>
      </trkpt>
      <trkpt lat="42.75002" lon="1.78257">
        <ele>824.4</ele>
        <time>2024-06-30T06:23:33Z</time>
      </trkpt>
      <trkpt lat="42.75001" lon="1.78259">
        <ele>824.6</ele>
        <time>2024-06-30T06:23:34Z</time>
      </trkpt>
      <trkpt lat="42.75" lon="1.78261">
        <ele>824.8</ele>
        <time>2024-06-30T06:23:35Z</time>
      </trkpt>
      <trkpt lat="42.74998" lon="1.78264">
        <ele>825.2</ele>
        <time>2024-06-30T06:23:36Z</time>
      </trkpt>
      <trkpt lat="42.74997" lon="1.78266">
        <ele>825.4</ele>
        <time>2024-06-30T06:23:37Z</time>
      </trkpt>
      <trkpt lat="42.74996" lon="1.78267">
        <ele>825.4</ele>
        <time>2024-06-30T06:23:38Z</time>
      </trkpt>
      <trkpt lat="42.74994" lon="1.78269">
        <ele>826</ele>
        <time>2024-06-30T06:23:39Z</time>
      </trkpt>
      <trkpt lat="42.74993" lon="1.78271">
        <ele>826.4</ele>
        <time>2024-06-30T06:23:40Z</time>
      </trkpt>
      <trkpt lat="42.74992" lon="1.78274">
        <ele>826.8</ele>
        <time>2024-06-30T06:23:41Z</time>
      </trkpt>
      <trkpt lat="42.74991" lon="1.78277">
        <ele>826.8</ele>
        <time>2024-06-30T06:23:42Z</time>
      </trkpt>
      <trkpt lat="42.74991" lon="1.78279">
        <ele>827.4</ele>
        <time>2024-06-30T06:23:43Z</time>
      </trkpt>
      <trkpt lat="42.74989" lon="1.78282">
        <ele>827.6</ele>
        <time>2024-06-30T06:23:44Z</time>
      </trkpt>
      <trkpt lat="42.74988" lon="1.78286">
        <ele>828</ele>
        <time>2024-06-30T06:23:45Z</time>
      </trkpt>
      <trkpt lat="42.74987" lon="1.78289">
        <ele>828</ele>
        <time>2024-06-30T06:23:46Z</time>
      </trkpt>
      <trkpt lat="42.74986" lon="1.78291">
        <ele>828.2</ele>
        <time>2024-06-30T06:23:47Z</time>
      </trkpt>
      <trkpt lat="42.74985" lon="1.78294">
        <ele>828.2</ele>
        <time>2024-06-30T06:23:48Z</time>
      </trkpt>
      <trkpt lat="42.74983" lon="1.78298">
        <ele>828.4</ele>
        <time>2024-06-30T06:23:49Z</time>
      </trkpt>
      <trkpt lat="42.74982" lon="1.78301">
        <ele>828.6</ele>
        <time>2024-06-30T06:23:50Z</time>
      </trkpt>
      <trkpt lat="42.7498" lon="1.78304">
        <ele>828.8</ele>
        <time>2024-06-30T06:23:51Z</time>
      </trkpt>
      <trkpt lat="42.74978" lon="1.78306">
        <ele>829</ele>
        <time>2024-06-30T06:23:52Z</time>
      </trkpt>
      <trkpt lat="42.74975" lon="1.7831">
        <ele>829</ele>
        <time>2024-06-30T06:23:53Z</time>
      </trkpt>
      <trkpt lat="42.74972" lon="1.78313">
        <ele>829.2</ele>
        <time>2024-06-30T06:23:54Z</time>
      </trkpt>
      <trkpt lat="42.74969" lon="1.78316">
        <ele>829.2</ele>
        <time>2024-06-30T06:23:55Z</time>
      </trkpt>
      <trkpt lat="42.74966" lon="1.7832">
        <ele>829.4</ele>
        <time>2024-06-30T06:23:56Z</time>
      </trkpt>
      <trkpt lat="42.74964" lon="1.78323">
        <ele>829.2</ele>
        <time>2024-06-30T06:23:57Z</time>
      </trkpt>
      <trkpt lat="42.74961" lon="1.78328">
        <ele>829.2</ele>
        <time>2024-06-30T06:23:58Z</time>
      </trkpt>
      <trkpt lat="42.74958" lon="1.78333">
        <ele>829.2</ele>
        <time>2024-06-30T06:23:59Z</time>
      </trkpt>
      <trkpt lat="42.74956" lon="1.78337">
        <ele>829.2</ele>
        <time>2024-06-30T06:24:00Z</time>
      </trkpt>
      <trkpt lat="42.74954" lon="1.78343">
        <ele>829.2</ele>
        <time>2024-06-30T06:24:01Z</time>
      </trkpt>
      <trkpt lat="42.74952" lon="1.78348">
        <ele>829.2</ele>
        <time>2024-06-30T06:24:02Z</time>
      </trkpt>
      <trkpt lat="42.74949" lon="1.78353">
        <ele>829.2</ele>
        <time>2024-06-30T06:24:03Z</time>
      </trkpt>
      <trkpt lat="42.74945" lon="1.7836">
        <ele>829</ele>
        <time>2024-06-30T06:24:04Z</time>
      </trkpt>
      <trkpt lat="42.74942" lon="1.78366">
        <ele>828.8</ele>
        <time>2024-06-30T06:24:05Z</time>
      </trkpt>
      <trkpt lat="42.74939" lon="1.78371">
        <ele>828.6</ele>
        <time>2024-06-30T06:24:06Z</time>
      </trkpt>
      <trkpt lat="42.74935" lon="1.78377">
        <ele>828.6</ele>
        <time>2024-06-30T06:24:07Z</time>
      </trkpt>
      <trkpt lat="42.74932" lon="1.78382">
        <ele>828.2</ele>
        <time>2024-06-30T06:24:08Z</time>
      </trkpt>
      <trkpt lat="42.74928" lon="1.78388">
        <ele>828.2</ele>
        <time>2024-06-30T06:24:09Z</time>
      </trkpt>
      <trkpt lat="42.74923" lon="1.78393">
        <ele>827.8</ele>
        <time>2024-06-30T06:24:10Z</time>
      </trkpt>
      <trkpt lat="42.74919" lon="1.78399">
        <ele>827.4</ele>
        <time>2024-06-30T06:24:11Z</time>
      </trkpt>
      <trkpt lat="42.74915" lon="1.78403">
        <ele>827.2</ele>
        <time>2024-06-30T06:24:12Z</time>
      </trkpt>
      <trkpt lat="42.74907" lon="1.78411">
        <ele>827</ele>
        <time>2024-06-30T06:24:14Z</time>
      </trkpt>
      <trkpt lat="42.74906" lon="1.78416">
        <ele>826.6</ele>
        <time>2024-06-30T06:24:15Z</time>
      </trkpt>
      <trkpt lat="42.74905" lon="1.78421">
        <ele>826.4</ele>
        <time>2024-06-30T06:24:16Z</time>
      </trkpt>
      <trkpt lat="42.74903" lon="1.78424">
        <ele>826</ele>
        <time>2024-06-30T06:24:17Z</time>
      </trkpt>
      <trkpt lat="42.74901" lon="1.78429">
        <ele>825.8</ele>
        <time>2024-06-30T06:24:18Z</time>
      </trkpt>
      <trkpt lat="42.74899" lon="1.78433">
        <ele>825</ele>
        <time>2024-06-30T06:24:19Z</time>
      </trkpt>
      <trkpt lat="42.74896" lon="1.78437">
        <ele>824.8</ele>
        <time>2024-06-30T06:24:20Z</time>
      </trkpt>
      <trkpt lat="42.74893" lon="1.78441">
        <ele>824.6</ele>
        <time>2024-06-30T06:24:21Z</time>
      </trkpt>
      <trkpt lat="42.74888" lon="1.78449">
        <ele>824.4</ele>
        <time>2024-06-30T06:24:23Z</time>
      </trkpt>
      <trkpt lat="42.74886" lon="1.78453">
        <ele>824.4</ele>
        <time>2024-06-30T06:24:24Z</time>
      </trkpt>
      <trkpt lat="42.74884" lon="1.78455">
        <ele>824.4</ele>
        <time>2024-06-30T06:24:25Z</time>
      </trkpt>
      <trkpt lat="42.74881" lon="1.78458">
        <ele>824.4</ele>
        <time>2024-06-30T06:24:26Z</time>
      </trkpt>
      <trkpt lat="42.74878" lon="1.78461">
        <ele>824.4</ele>
        <time>2024-06-30T06:24:27Z</time>
      </trkpt>
      <trkpt lat="42.74874" lon="1.78464">
        <ele>824.6</ele>
        <time>2024-06-30T06:24:28Z</time>
      </trkpt>
      <trkpt lat="42.7487" lon="1.78468">
        <ele>824.6</ele>
        <time>2024-06-30T06:24:29Z</time>
      </trkpt>
      <trkpt lat="42.74866" lon="1.78473">
        <ele>824.6</ele>
        <time>2024-06-30T06:24:30Z</time>
      </trkpt>
      <trkpt lat="42.74862" lon="1.78477">
        <ele>824.6</ele>
        <time>2024-06-30T06:24:31Z</time>
      </trkpt>
      <trkpt lat="42.74856" lon="1.78482">
        <ele>824.6</ele>
        <time>2024-06-30T06:24:32Z</time>
      </trkpt>
      <trkpt lat="42.74851" lon="1.78487">
        <ele>824.6</ele>
        <time>2024-06-30T06:24:33Z</time>
      </trkpt>
      <trkpt lat="42.74845" lon="1.78492">
        <ele>824.6</ele>
        <time>2024-06-30T06:24:34Z</time>
      </trkpt>
      <trkpt lat="42.74838" lon="1.78503">
        <ele>824</ele>
        <time>2024-06-30T06:24:36Z</time>
      </trkpt>
      <trkpt lat="42.74837" lon="1.78508">
        <ele>823.4</ele>
        <time>2024-06-30T06:24:37Z</time>
      </trkpt>
      <trkpt lat="42.74835" lon="1.78513">
        <ele>823</ele>
        <time>2024-06-30T06:24:38Z</time>
      </trkpt>
      <trkpt lat="42.74834" lon="1.78517">
        <ele>822.8</ele>
        <time>2024-06-30T06:24:39Z</time>
      </trkpt>
      <trkpt lat="42.74834" lon="1.7852">
        <ele>822.8</ele>
        <time>2024-06-30T06:24:40Z</time>
      </trkpt>
      <trkpt lat="42.74831" lon="1.78524">
        <ele>822.8</ele>
        <time>2024-06-30T06:24:41Z</time>
      </trkpt>
      <trkpt lat="42.74827" lon="1.78533">
        <ele>822.6</ele>
        <time>2024-06-30T06:24:43Z</time>
      </trkpt>
      <trkpt lat="42.74826" lon="1.78535">
        <ele>822.6</ele>
        <time>2024-06-30T06:24:44Z</time>
      </trkpt>
      <trkpt lat="42.74826" lon="1.78536">
        <ele>823</ele>
        <time>2024-06-30T06:24:45Z</time>
      </trkpt>
      <trkpt lat="42.74827" lon="1.78538">
        <ele>823</ele>
        <time>2024-06-30T06:24:46Z</time>
      </trkpt>
      <trkpt lat="42.74827" lon="1.78539">
        <ele>823.4</ele>
        <time>2024-06-30T06:24:47Z</time>
      </trkpt>
      <trkpt lat="42.74826" lon="1.78541">
        <ele>823.4</ele>
        <time>2024-06-30T06:24:48Z</time>
      </trkpt>
      <trkpt lat="42.74821" lon="1.78561">
        <ele>824.4</ele>
        <time>2024-06-30T06:24:51Z</time>
      </trkpt>
      <trkpt lat="42.74821" lon="1.78564">
        <ele>824.6</ele>
        <time>2024-06-30T06:24:52Z</time>
      </trkpt>
      <trkpt lat="42.74819" lon="1.78573">
        <ele>825.8</ele>
        <time>2024-06-30T06:24:55Z</time>
      </trkpt>
      <trkpt lat="42.74818" lon="1.7858">
        <ele>826.4</ele>
        <time>2024-06-30T06:24:57Z</time>
      </trkpt>
      <trkpt lat="42.74817" lon="1.78584">
        <ele>826.8</ele>
        <time>2024-06-30T06:24:59Z</time>
      </trkpt>
      <trkpt lat="42.74816" lon="1.78589">
        <ele>826.8</ele>
        <time>2024-06-30T06:25:00Z</time>
      </trkpt>
      <trkpt lat="42.74816" lon="1.78592">
        <ele>827</ele>
        <time>2024-06-30T06:25:01Z</time>
      </trkpt>
      <trkpt lat="42.74817" lon="1.78596">
        <ele>827.2</ele>
        <time>2024-06-30T06:25:02Z</time>
      </trkpt>
      <trkpt lat="42.74816" lon="1.78599">
        <ele>827.8</ele>
        <time>2024-06-30T06:25:03Z</time>
      </trkpt>
      <trkpt lat="42.74816" lon="1.78601">
        <ele>828</ele>
        <time>2024-06-30T06:25:04Z</time>
      </trkpt>
      <trkpt lat="42.74815" lon="1.78603">
        <ele>828.2</ele>
        <time>2024-06-30T06:25:05Z</time>
      </trkpt>
      <trkpt lat="42.74815" lon="1.78604">
        <ele>828.2</ele>
        <time>2024-06-30T06:25:06Z</time>
      </trkpt>
      <trkpt lat="42.74814" lon="1.78605">
        <ele>828.6</ele>
        <time>2024-06-30T06:25:07Z</time>
      </trkpt>
      <trkpt lat="42.74814" lon="1.78606">
        <ele>828.6</ele>
        <time>2024-06-30T06:25:08Z</time>
      </trkpt>
      <trkpt lat="42.74814" lon="1.78606">
        <ele>829</ele>
        <time>2024-06-30T06:25:09Z</time>
      </trkpt>
      <trkpt lat="42.74813" lon="1.78608">
        <ele>829.2</ele>
        <time>2024-06-30T06:25:10Z</time>
      </trkpt>
      <trkpt lat="42.74813" lon="1.78609">
        <ele>829.4</ele>
        <time>2024-06-30T06:25:11Z</time>
      </trkpt>
      <trkpt lat="42.74812" lon="1.78611">
        <ele>829.4</ele>
        <time>2024-06-30T06:25:12Z</time>
      </trkpt>
      <trkpt lat="42.74812" lon="1.78613">
        <ele>829.6</ele>
        <time>2024-06-30T06:25:13Z</time>
      </trkpt>
      <trkpt lat="42.74812" lon="1.78614">
        <ele>829.6</ele>
        <time>2024-06-30T06:25:14Z</time>
      </trkpt>
      <trkpt lat="42.74812" lon="1.78616">
        <ele>829.8</ele>
        <time>2024-06-30T06:25:15Z</time>
      </trkpt>
      <trkpt lat="42.74812" lon="1.78618">
        <ele>830</ele>
        <time>2024-06-30T06:25:16Z</time>
      </trkpt>
      <trkpt lat="42.74812" lon="1.78619">
        <ele>830</ele>
        <time>2024-06-30T06:25:17Z</time>
      </trkpt>
      <trkpt lat="42.74812" lon="1.78621">
        <ele>830.4</ele>
        <time>2024-06-30T06:25:18Z</time>
      </trkpt>
      <trkpt lat="42.74812" lon="1.78622">
        <ele>830.8</ele>
        <time>2024-06-30T06:25:19Z</time>
      </trkpt>
      <trkpt lat="42.74812" lon="1.78622">
        <ele>831.2</ele>
        <time>2024-06-30T06:25:20Z</time>
      </trkpt>
      <trkpt lat="42.74812" lon="1.78624">
        <ele>831.6</ele>
        <time>2024-06-30T06:25:21Z</time>
      </trkpt>
      <trkpt lat="42.74812" lon="1.78625">
        <ele>831.8</ele>
        <time>2024-06-30T06:25:22Z</time>
      </trkpt>
      <trkpt lat="42.74812" lon="1.78626">
        <ele>831.8</ele>
        <time>2024-06-30T06:25:23Z</time>
      </trkpt>
      <trkpt lat="42.74812" lon="1.78628">
        <ele>832</ele>
        <time>2024-06-30T06:25:24Z</time>
      </trkpt>
      <trkpt lat="42.74813" lon="1.7863">
        <ele>832.2</ele>
        <time>2024-06-30T06:25:25Z</time>
      </trkpt>
      <trkpt lat="42.74813" lon="1.78632">
        <ele>832.2</ele>
        <time>2024-06-30T06:25:26Z</time>
      </trkpt>
      <trkpt lat="42.74813" lon="1.78634">
        <ele>832.6</ele>
        <time>2024-06-30T06:25:27Z</time>
      </trkpt>
      <trkpt lat="42.74813" lon="1.78636">
        <ele>832.8</ele>
        <time>2024-06-30T06:25:28Z</time>
      </trkpt>
      <trkpt lat="42.74813" lon="1.78638">
        <ele>833.2</ele>
        <time>2024-06-30T06:25:29Z</time>
      </trkpt>
      <trkpt lat="42.74813" lon="1.78638">
        <ele>833.4</ele>
        <time>2024-06-30T06:25:30Z</time>
      </trkpt>
      <trkpt lat="42.74813" lon="1.78639">
        <ele>833.4</ele>
        <time>2024-06-30T06:25:31Z</time>
      </trkpt>
      <trkpt lat="42.74814" lon="1.7864">
        <ele>833.6</ele>
        <time>2024-06-30T06:25:32Z</time>
      </trkpt>
      <trkpt lat="42.74814" lon="1.78642">
        <ele>833.8</ele>
        <time>2024-06-30T06:25:33Z</time>
      </trkpt>
      <trkpt lat="42.74815" lon="1.78644">
        <ele>834</ele>
        <time>2024-06-30T06:25:34Z</time>
      </trkpt>
      <trkpt lat="42.74815" lon="1.78645">
        <ele>834</ele>
        <time>2024-06-30T06:25:35Z</time>
      </trkpt>
      <trkpt lat="42.74816" lon="1.78646">
        <ele>834.4</ele>
        <time>2024-06-30T06:25:36Z</time>
      </trkpt>
      <trkpt lat="42.74816" lon="1.78647">
        <ele>834.6</ele>
        <time>2024-06-30T06:25:37Z</time>
      </trkpt>
      <trkpt lat="42.74816" lon="1.78647">
        <ele>835</ele>
        <time>2024-06-30T06:25:38Z</time>
      </trkpt>
      <trkpt lat="42.74816" lon="1.78648">
        <ele>835.2</ele>
        <time>2024-06-30T06:25:39Z</time>
      </trkpt>
      <trkpt lat="42.74816" lon="1.7865">
        <ele>835.4</ele>
        <time>2024-06-30T06:25:40Z</time>
      </trkpt>
      <trkpt lat="42.74816" lon="1.78652">
        <ele>835.6</ele>
        <time>2024-06-30T06:25:41Z</time>
      </trkpt>
      <trkpt lat="42.74816" lon="1.78655">
        <ele>835.6</ele>
        <time>2024-06-30T06:25:42Z</time>
      </trkpt>
      <trkpt lat="42.74816" lon="1.78658">
        <ele>836</ele>
        <time>2024-06-30T06:25:43Z</time>
      </trkpt>
      <trkpt lat="42.74816" lon="1.7866">
        <ele>836.2</ele>
        <time>2024-06-30T06:25:44Z</time>
      </trkpt>
      <trkpt lat="42.74817" lon="1.78662">
        <ele>836.6</ele>
        <time>2024-06-30T06:25:45Z</time>
      </trkpt>
      <trkpt lat="42.74817" lon="1.78665">
        <ele>837</ele>
        <time>2024-06-30T06:25:46Z</time>
      </trkpt>
      <trkpt lat="42.74817" lon="1.78668">
        <ele>837.2</ele>
        <time>2024-06-30T06:25:47Z</time>
      </trkpt>
      <trkpt lat="42.74817" lon="1.78671">
        <ele>837.6</ele>
        <time>2024-06-30T06:25:48Z</time>
      </trkpt>
      <trkpt lat="42.74817" lon="1.78674">
        <ele>837.8</ele>
        <time>2024-06-30T06:25:49Z</time>
      </trkpt>
      <trkpt lat="42.74817" lon="1.78679">
        <ele>838</ele>
        <time>2024-06-30T06:25:50Z</time>
      </trkpt>
      <trkpt lat="42.74817" lon="1.78685">
        <ele>838</ele>
        <time>2024-06-30T06:25:51Z</time>
      </trkpt>
      <trkpt lat="42.74817" lon="1.78691">
        <ele>838.2</ele>
        <time>2024-06-30T06:25:52Z</time>
      </trkpt>
      <trkpt lat="42.74816" lon="1.78697">
        <ele>838.2</ele>
        <time>2024-06-30T06:25:53Z</time>
      </trkpt>
      <trkpt lat="42.74815" lon="1.78703">
        <ele>838.6</ele>
        <time>2024-06-30T06:25:54Z</time>
      </trkpt>
      <trkpt lat="42.74811" lon="1.78709">
        <ele>839.4</ele>
        <time>2024-06-30T06:25:55Z</time>
      </trkpt>
      <trkpt lat="42.74809" lon="1.78717">
        <ele>839.8</ele>
        <time>2024-06-30T06:25:56Z</time>
      </trkpt>
      <trkpt lat="42.74808" lon="1.78727">
        <ele>840.4</ele>
        <time>2024-06-30T06:25:57Z</time>
      </trkpt>
      <trkpt lat="42.74807" lon="1.78735">
        <ele>840.6</ele>
        <time>2024-06-30T06:25:58Z</time>
      </trkpt>
      <trkpt lat="42.74804" lon="1.78742">
        <ele>841</ele>
        <time>2024-06-30T06:25:59Z</time>
      </trkpt>
      <trkpt lat="42.74803" lon="1.78747">
        <ele>841</ele>
        <time>2024-06-30T06:26:00Z</time>
      </trkpt>
      <trkpt lat="42.74801" lon="1.78756">
        <ele>841.2</ele>
        <time>2024-06-30T06:26:01Z</time>
      </trkpt>
      <trkpt lat="42.748" lon="1.78762">
        <ele>841.2</ele>
        <time>2024-06-30T06:26:02Z</time>
      </trkpt>
      <trkpt lat="42.74798" lon="1.78768">
        <ele>841.4</ele>
        <time>2024-06-30T06:26:03Z</time>
      </trkpt>
      <trkpt lat="42.74797" lon="1.78775">
        <ele>841.6</ele>
        <time>2024-06-30T06:26:04Z</time>
      </trkpt>
      <trkpt lat="42.74796" lon="1.78781">
        <ele>841.6</ele>
        <time>2024-06-30T06:26:05Z</time>
      </trkpt>
      <trkpt lat="42.74796" lon="1.78783">
        <ele>841.8</ele>
        <time>2024-06-30T06:26:06Z</time>
      </trkpt>
      <trkpt lat="42.74795" lon="1.78787">
        <ele>842</ele>
        <time>2024-06-30T06:26:07Z</time>
      </trkpt>
      <trkpt lat="42.74792" lon="1.78791">
        <ele>842.4</ele>
        <time>2024-06-30T06:26:08Z</time>
      </trkpt>
      <trkpt lat="42.74792" lon="1.78794">
        <ele>842.6</ele>
        <time>2024-06-30T06:26:09Z</time>
      </trkpt>
      <trkpt lat="42.74792" lon="1.78796">
        <ele>842.8</ele>
        <time>2024-06-30T06:26:10Z</time>
      </trkpt>
      <trkpt lat="42.7479" lon="1.788">
        <ele>843</ele>
        <time>2024-06-30T06:26:11Z</time>
      </trkpt>
      <trkpt lat="42.74789" lon="1.78802">
        <ele>843.4</ele>
        <time>2024-06-30T06:26:12Z</time>
      </trkpt>
      <trkpt lat="42.74788" lon="1.78806">
        <ele>843.6</ele>
        <time>2024-06-30T06:26:13Z</time>
      </trkpt>
      <trkpt lat="42.74788" lon="1.78807">
        <ele>843.6</ele>
        <time>2024-06-30T06:26:14Z</time>
      </trkpt>
      <trkpt lat="42.74787" lon="1.78808">
        <ele>843.8</ele>
        <time>2024-06-30T06:26:15Z</time>
      </trkpt>
      <trkpt lat="42.74787" lon="1.78809">
        <ele>844</ele>
        <time>2024-06-30T06:26:16Z</time>
      </trkpt>
      <trkpt lat="42.74787" lon="1.78811">
        <ele>844.2</ele>
        <time>2024-06-30T06:26:17Z</time>
      </trkpt>
      <trkpt lat="42.74786" lon="1.78815">
        <ele>844.2</ele>
        <time>2024-06-30T06:26:18Z</time>
      </trkpt>
      <trkpt lat="42.74785" lon="1.78818">
        <ele>844.6</ele>
        <time>2024-06-30T06:26:19Z</time>
      </trkpt>
      <trkpt lat="42.74784" lon="1.78821">
        <ele>844.6</ele>
        <time>2024-06-30T06:26:20Z</time>
      </trkpt>
      <trkpt lat="42.74784" lon="1.78826">
        <ele>845</ele>
        <time>2024-06-30T06:26:21Z</time>
      </trkpt>
      <trkpt lat="42.74783" lon="1.78831">
        <ele>845</ele>
        <time>2024-06-30T06:26:22Z</time>
      </trkpt>
      <trkpt lat="42.74782" lon="1.78835">
        <ele>845.2</ele>
        <time>2024-06-30T06:26:23Z</time>
      </trkpt>
      <trkpt lat="42.74782" lon="1.78838">
        <ele>845.4</ele>
        <time>2024-06-30T06:26:24Z</time>
      </trkpt>
      <trkpt lat="42.74783" lon="1.78842">
        <ele>845.4</ele>
        <time>2024-06-30T06:26:25Z</time>
      </trkpt>
      <trkpt lat="42.74783" lon="1.78845">
        <ele>845.6</ele>
        <time>2024-06-30T06:26:26Z</time>
      </trkpt>
      <trkpt lat="42.74783" lon="1.7885">
        <ele>846</ele>
        <time>2024-06-30T06:26:27Z</time>
      </trkpt>
      <trkpt lat="42.74782" lon="1.78854">
        <ele>846.4</ele>
        <time>2024-06-30T06:26:28Z</time>
      </trkpt>
      <trkpt lat="42.7478" lon="1.78861">
        <ele>846.6</ele>
        <time>2024-06-30T06:26:29Z</time>
      </trkpt>
      <trkpt lat="42.7478" lon="1.78867">
        <ele>846.8</ele>
        <time>2024-06-30T06:26:30Z</time>
      </trkpt>
      <trkpt lat="42.7478" lon="1.78871">
        <ele>846.8</ele>
        <time>2024-06-30T06:26:31Z</time>
      </trkpt>
      <trkpt lat="42.7478" lon="1.78872">
        <ele>846.8</ele>
        <time>2024-06-30T06:26:32Z</time>
      </trkpt>
      <trkpt lat="42.7478" lon="1.78875">
        <ele>847</ele>
        <time>2024-06-30T06:26:33Z</time>
      </trkpt>
      <trkpt lat="42.74779" lon="1.78879">
        <ele>847</ele>
        <time>2024-06-30T06:26:34Z</time>
      </trkpt>
      <trkpt lat="42.74778" lon="1.78885">
        <ele>847</ele>
        <time>2024-06-30T06:26:35Z</time>
      </trkpt>
      <trkpt lat="42.74778" lon="1.7889">
        <ele>847</ele>
        <time>2024-06-30T06:26:36Z</time>
      </trkpt>
      <trkpt lat="42.74777" lon="1.78896">
        <ele>847</ele>
        <time>2024-06-30T06:26:37Z</time>
      </trkpt>
      <trkpt lat="42.74776" lon="1.78903">
        <ele>847</ele>
        <time>2024-06-30T06:26:38Z</time>
      </trkpt>
      <trkpt lat="42.74774" lon="1.78909">
        <ele>847</ele>
        <time>2024-06-30T06:26:39Z</time>
      </trkpt>
      <trkpt lat="42.74772" lon="1.78913">
        <ele>847</ele>
        <time>2024-06-30T06:26:40Z</time>
      </trkpt>
      <trkpt lat="42.74767" lon="1.78921">
        <ele>847</ele>
        <time>2024-06-30T06:26:41Z</time>
      </trkpt>
      <trkpt lat="42.74767" lon="1.78924">
        <ele>847.2</ele>
        <time>2024-06-30T06:26:42Z</time>
      </trkpt>
      <trkpt lat="42.74767" lon="1.78927">
        <ele>847.2</ele>
        <time>2024-06-30T06:26:43Z</time>
      </trkpt>
      <trkpt lat="42.74767" lon="1.7893">
        <ele>847</ele>
        <time>2024-06-30T06:26:44Z</time>
      </trkpt>
      <trkpt lat="42.74766" lon="1.78936">
        <ele>847.2</ele>
        <time>2024-06-30T06:26:45Z</time>
      </trkpt>
      <trkpt lat="42.74765" lon="1.78942">
        <ele>847.2</ele>
        <time>2024-06-30T06:26:46Z</time>
      </trkpt>
      <trkpt lat="42.74763" lon="1.78949">
        <ele>847.2</ele>
        <time>2024-06-30T06:26:47Z</time>
      </trkpt>
      <trkpt lat="42.74762" lon="1.78954">
        <ele>847.4</ele>
        <time>2024-06-30T06:26:48Z</time>
      </trkpt>
      <trkpt lat="42.74759" lon="1.78961">
        <ele>847.6</ele>
        <time>2024-06-30T06:26:49Z</time>
      </trkpt>
      <trkpt lat="42.74755" lon="1.78974">
        <ele>847.8</ele>
        <time>2024-06-30T06:26:51Z</time>
      </trkpt>
      <trkpt lat="42.74755" lon="1.7898">
        <ele>848</ele>
        <time>2024-06-30T06:26:52Z</time>
      </trkpt>
      <trkpt lat="42.74754" lon="1.78986">
        <ele>848.2</ele>
        <time>2024-06-30T06:26:53Z</time>
      </trkpt>
      <trkpt lat="42.74754" lon="1.78995">
        <ele>849</ele>
        <time>2024-06-30T06:26:55Z</time>
      </trkpt>
      <trkpt lat="42.74753" lon="1.78999">
        <ele>849.6</ele>
        <time>2024-06-30T06:26:56Z</time>
      </trkpt>
      <trkpt lat="42.74751" lon="1.79006">
        <ele>849.8</ele>
        <time>2024-06-30T06:26:57Z</time>
      </trkpt>
      <trkpt lat="42.7475" lon="1.79014">
        <ele>850.2</ele>
        <time>2024-06-30T06:26:58Z</time>
      </trkpt>
      <trkpt lat="42.7475" lon="1.79018">
        <ele>850.2</ele>
        <time>2024-06-30T06:26:59Z</time>
      </trkpt>
      <trkpt lat="42.7475" lon="1.79022">
        <ele>850.4</ele>
        <time>2024-06-30T06:27:00Z</time>
      </trkpt>
      <trkpt lat="42.74749" lon="1.79027">
        <ele>850.6</ele>
        <time>2024-06-30T06:27:01Z</time>
      </trkpt>
      <trkpt lat="42.74748" lon="1.7903">
        <ele>851</ele>
        <time>2024-06-30T06:27:02Z</time>
      </trkpt>
      <trkpt lat="42.74746" lon="1.79033">
        <ele>851</ele>
        <time>2024-06-30T06:27:03Z</time>
      </trkpt>
      <trkpt lat="42.74745" lon="1.79034">
        <ele>851.4</ele>
        <time>2024-06-30T06:27:04Z</time>
      </trkpt>
      <trkpt lat="42.74744" lon="1.79036">
        <ele>851.6</ele>
        <time>2024-06-30T06:27:05Z</time>
      </trkpt>
      <trkpt lat="42.74743" lon="1.79039">
        <ele>851.6</ele>
        <time>2024-06-30T06:27:06Z</time>
      </trkpt>
      <trkpt lat="42.74742" lon="1.79042">
        <ele>851.8</ele>
        <time>2024-06-30T06:27:07Z</time>
      </trkpt>
      <trkpt lat="42.74742" lon="1.79045">
        <ele>852</ele>
        <time>2024-06-30T06:27:08Z</time>
      </trkpt>
      <trkpt lat="42.74743" lon="1.79049">
        <ele>852.2</ele>
        <time>2024-06-30T06:27:09Z</time>
      </trkpt>
      <trkpt lat="42.74743" lon="1.79053">
        <ele>852.2</ele>
        <time>2024-06-30T06:27:10Z</time>
      </trkpt>
      <trkpt lat="42.74742" lon="1.79059">
        <ele>852.4</ele>
        <time>2024-06-30T06:27:11Z</time>
      </trkpt>
      <trkpt lat="42.7474" lon="1.79065">
        <ele>852.4</ele>
        <time>2024-06-30T06:27:12Z</time>
      </trkpt>
      <trkpt lat="42.74739" lon="1.79072">
        <ele>852.6</ele>
        <time>2024-06-30T06:27:13Z</time>
      </trkpt>
      <trkpt lat="42.74736" lon="1.79079">
        <ele>852.6</ele>
        <time>2024-06-30T06:27:14Z</time>
      </trkpt>
      <trkpt lat="42.74734" lon="1.79084">
        <ele>852.6</ele>
        <time>2024-06-30T06:27:15Z</time>
      </trkpt>
      <trkpt lat="42.74733" lon="1.7909">
        <ele>852.8</ele>
        <time>2024-06-30T06:27:16Z</time>
      </trkpt>
      <trkpt lat="42.74731" lon="1.79096">
        <ele>853</ele>
        <time>2024-06-30T06:27:17Z</time>
      </trkpt>
      <trkpt lat="42.7473" lon="1.79102">
        <ele>853.2</ele>
        <time>2024-06-30T06:27:18Z</time>
      </trkpt>
      <trkpt lat="42.74729" lon="1.7911">
        <ele>853.4</ele>
        <time>2024-06-30T06:27:19Z</time>
      </trkpt>
      <trkpt lat="42.74728" lon="1.79119">
        <ele>853.6</ele>
        <time>2024-06-30T06:27:20Z</time>
      </trkpt>
      <trkpt lat="42.74727" lon="1.79124">
        <ele>853.8</ele>
        <time>2024-06-30T06:27:21Z</time>
      </trkpt>
      <trkpt lat="42.74726" lon="1.79131">
        <ele>853.8</ele>
        <time>2024-06-30T06:27:22Z</time>
      </trkpt>
      <trkpt lat="42.74724" lon="1.79139">
        <ele>853.8</ele>
        <time>2024-06-30T06:27:23Z</time>
      </trkpt>
      <trkpt lat="42.74723" lon="1.79146">
        <ele>853.8</ele>
        <time>2024-06-30T06:27:24Z</time>
      </trkpt>
      <trkpt lat="42.74722" lon="1.79154">
        <ele>853.8</ele>
        <time>2024-06-30T06:27:25Z</time>
      </trkpt>
      <trkpt lat="42.74721" lon="1.79162">
        <ele>853.8</ele>
        <time>2024-06-30T06:27:26Z</time>
      </trkpt>
      <trkpt lat="42.7472" lon="1.79167">
        <ele>853.8</ele>
        <time>2024-06-30T06:27:27Z</time>
      </trkpt>
      <trkpt lat="42.74719" lon="1.79172">
        <ele>853.8</ele>
        <time>2024-06-30T06:27:28Z</time>
      </trkpt>
      <trkpt lat="42.74718" lon="1.79178">
        <ele>853.8</ele>
        <time>2024-06-30T06:27:29Z</time>
      </trkpt>
      <trkpt lat="42.74717" lon="1.79184">
        <ele>853.8</ele>
        <time>2024-06-30T06:27:30Z</time>
      </trkpt>
      <trkpt lat="42.74716" lon="1.79189">
        <ele>854</ele>
        <time>2024-06-30T06:27:31Z</time>
      </trkpt>
      <trkpt lat="42.74715" lon="1.79193">
        <ele>854</ele>
        <time>2024-06-30T06:27:32Z</time>
      </trkpt>
      <trkpt lat="42.74713" lon="1.79197">
        <ele>854</ele>
        <time>2024-06-30T06:27:33Z</time>
      </trkpt>
      <trkpt lat="42.74713" lon="1.79201">
        <ele>854.2</ele>
        <time>2024-06-30T06:27:34Z</time>
      </trkpt>
      <trkpt lat="42.74713" lon="1.79201">
        <ele>854.4</ele>
        <time>2024-06-30T06:27:35Z</time>
      </trkpt>
      <trkpt lat="42.74713" lon="1.79201">
        <ele>854.8</ele>
        <time>2024-06-30T06:27:36Z</time>
      </trkpt>
      <trkpt lat="42.74712" lon="1.79201">
        <ele>854.8</ele>
        <time>2024-06-30T06:27:37Z</time>
      </trkpt>
      <trkpt lat="42.74712" lon="1.79203">
        <ele>855</ele>
        <time>2024-06-30T06:27:38Z</time>
      </trkpt>
      <trkpt lat="42.74712" lon="1.7921">
        <ele>855.8</ele>
        <time>2024-06-30T06:27:41Z</time>
      </trkpt>
      <trkpt lat="42.74712" lon="1.79212">
        <ele>855.8</ele>
        <time>2024-06-30T06:27:42Z</time>
      </trkpt>
      <trkpt lat="42.74712" lon="1.79215">
        <ele>855.8</ele>
        <time>2024-06-30T06:27:43Z</time>
      </trkpt>
      <trkpt lat="42.74711" lon="1.79217">
        <ele>856.2</ele>
        <time>2024-06-30T06:27:44Z</time>
      </trkpt>
      <trkpt lat="42.74711" lon="1.79219">
        <ele>856.4</ele>
        <time>2024-06-30T06:27:45Z</time>
      </trkpt>
      <trkpt lat="42.74711" lon="1.7922">
        <ele>856.4</ele>
        <time>2024-06-30T06:27:46Z</time>
      </trkpt>
      <trkpt lat="42.74711" lon="1.79223">
        <ele>856.8</ele>
        <time>2024-06-30T06:27:47Z</time>
      </trkpt>
      <trkpt lat="42.7471" lon="1.79225">
        <ele>857.2</ele>
        <time>2024-06-30T06:27:48Z</time>
      </trkpt>
      <trkpt lat="42.7471" lon="1.79228">
        <ele>857.8</ele>
        <time>2024-06-30T06:27:49Z</time>
      </trkpt>
      <trkpt lat="42.74711" lon="1.7923">
        <ele>858.4</ele>
        <time>2024-06-30T06:27:50Z</time>
      </trkpt>
      <trkpt lat="42.74711" lon="1.79231">
        <ele>858.8</ele>
        <time>2024-06-30T06:27:51Z</time>
      </trkpt>
      <trkpt lat="42.74711" lon="1.79231">
        <ele>859</ele>
        <time>2024-06-30T06:27:52Z</time>
      </trkpt>
      <trkpt lat="42.74711" lon="1.79231">
        <ele>859.2</ele>
        <time>2024-06-30T06:27:53Z</time>
      </trkpt>
      <trkpt lat="42.74711" lon="1.79233">
        <ele>859.2</ele>
        <time>2024-06-30T06:27:54Z</time>
      </trkpt>
      <trkpt lat="42.74711" lon="1.79238">
        <ele>859.4</ele>
        <time>2024-06-30T06:27:55Z</time>
      </trkpt>
      <trkpt lat="42.74711" lon="1.79243">
        <ele>859.4</ele>
        <time>2024-06-30T06:27:56Z</time>
      </trkpt>
      <trkpt lat="42.74711" lon="1.79248">
        <ele>859.6</ele>
        <time>2024-06-30T06:27:57Z</time>
      </trkpt>
      <trkpt lat="42.74711" lon="1.79252">
        <ele>859.8</ele>
        <time>2024-06-30T06:27:58Z</time>
      </trkpt>
      <trkpt lat="42.74711" lon="1.79255">
        <ele>860</ele>
        <time>2024-06-30T06:27:59Z</time>
      </trkpt>
      <trkpt lat="42.74711" lon="1.79258">
        <ele>860</ele>
        <time>2024-06-30T06:28:00Z</time>
      </trkpt>
      <trkpt lat="42.74711" lon="1.79262">
        <ele>860.4</ele>
        <time>2024-06-30T06:28:01Z</time>
      </trkpt>
      <trkpt lat="42.7471" lon="1.79267">
        <ele>860.6</ele>
        <time>2024-06-30T06:28:02Z</time>
      </trkpt>
      <trkpt lat="42.74709" lon="1.7927">
        <ele>860.8</ele>
        <time>2024-06-30T06:28:03Z</time>
      </trkpt>
      <trkpt lat="42.74709" lon="1.79276">
        <ele>860.8</ele>
        <time>2024-06-30T06:28:04Z</time>
      </trkpt>
      <trkpt lat="42.74708" lon="1.79281">
        <ele>861</ele>
        <time>2024-06-30T06:28:05Z</time>
      </trkpt>
      <trkpt lat="42.74707" lon="1.79285">
        <ele>861.2</ele>
        <time>2024-06-30T06:28:06Z</time>
      </trkpt>
      <trkpt lat="42.74705" lon="1.79289">
        <ele>861.4</ele>
        <time>2024-06-30T06:28:07Z</time>
      </trkpt>
      <trkpt lat="42.74703" lon="1.79294">
        <ele>861.6</ele>
        <time>2024-06-30T06:28:08Z</time>
      </trkpt>
      <trkpt lat="42.74702" lon="1.79298">
        <ele>861.8</ele>
        <time>2024-06-30T06:28:09Z</time>
      </trkpt>
      <trkpt lat="42.74701" lon="1.79302">
        <ele>862</ele>
        <time>2024-06-30T06:28:10Z</time>
      </trkpt>
      <trkpt lat="42.74699" lon="1.79306">
        <ele>862.2</ele>
        <time>2024-06-30T06:28:11Z</time>
      </trkpt>
      <trkpt lat="42.74698" lon="1.79309">
        <ele>862.4</ele>
        <time>2024-06-30T06:28:12Z</time>
      </trkpt>
      <trkpt lat="42.74698" lon="1.79314">
        <ele>862.6</ele>
        <time>2024-06-30T06:28:13Z</time>
      </trkpt>
      <trkpt lat="42.74698" lon="1.7932">
        <ele>862.6</ele>
        <time>2024-06-30T06:28:14Z</time>
      </trkpt>
      <trkpt lat="42.74698" lon="1.79327">
        <ele>862.8</ele>
        <time>2024-06-30T06:28:15Z</time>
      </trkpt>
      <trkpt lat="42.74698" lon="1.79332">
        <ele>863</ele>
        <time>2024-06-30T06:28:16Z</time>
      </trkpt>
      <trkpt lat="42.74698" lon="1.79337">
        <ele>863.2</ele>
        <time>2024-06-30T06:28:17Z</time>
      </trkpt>
      <trkpt lat="42.74697" lon="1.79346">
        <ele>863.2</ele>
        <time>2024-06-30T06:28:18Z</time>
      </trkpt>
      <trkpt lat="42.74693" lon="1.79354">
        <ele>863.4</ele>
        <time>2024-06-30T06:28:19Z</time>
      </trkpt>
      <trkpt lat="42.74688" lon="1.79361">
        <ele>863.4</ele>
        <time>2024-06-30T06:28:20Z</time>
      </trkpt>
      <trkpt lat="42.74684" lon="1.79367">
        <ele>863.4</ele>
        <time>2024-06-30T06:28:21Z</time>
      </trkpt>
      <trkpt lat="42.7468" lon="1.79378">
        <ele>863.2</ele>
        <time>2024-06-30T06:28:22Z</time>
      </trkpt>
      <trkpt lat="42.74677" lon="1.79384">
        <ele>863.2</ele>
        <time>2024-06-30T06:28:23Z</time>
      </trkpt>
      <trkpt lat="42.74673" lon="1.7939">
        <ele>863.2</ele>
        <time>2024-06-30T06:28:24Z</time>
      </trkpt>
      <trkpt lat="42.7467" lon="1.79396">
        <ele>863.2</ele>
        <time>2024-06-30T06:28:25Z</time>
      </trkpt>
      <trkpt lat="42.74668" lon="1.79401">
        <ele>863.2</ele>
        <time>2024-06-30T06:28:26Z</time>
      </trkpt>
      <trkpt lat="42.74667" lon="1.79405">
        <ele>863.2</ele>
        <time>2024-06-30T06:28:27Z</time>
      </trkpt>
      <trkpt lat="42.74665" lon="1.79409">
        <ele>862.8</ele>
        <time>2024-06-30T06:28:28Z</time>
      </trkpt>
      <trkpt lat="42.74663" lon="1.79412">
        <ele>862.6</ele>
        <time>2024-06-30T06:28:29Z</time>
      </trkpt>
      <trkpt lat="42.74662" lon="1.79415">
        <ele>862.6</ele>
        <time>2024-06-30T06:28:30Z</time>
      </trkpt>
      <trkpt lat="42.74661" lon="1.7942">
        <ele>862.4</ele>
        <time>2024-06-30T06:28:31Z</time>
      </trkpt>
      <trkpt lat="42.74659" lon="1.79425">
        <ele>862.4</ele>
        <time>2024-06-30T06:28:32Z</time>
      </trkpt>
      <trkpt lat="42.7465" lon="1.79445">
        <ele>861.8</ele>
        <time>2024-06-30T06:28:35Z</time>
      </trkpt>
      <trkpt lat="42.74651" lon="1.79458">
        <ele>861.4</ele>
        <time>2024-06-30T06:28:37Z</time>
      </trkpt>
      <trkpt lat="42.74651" lon="1.79464">
        <ele>861.2</ele>
        <time>2024-06-30T06:28:38Z</time>
      </trkpt>
      <trkpt lat="42.74651" lon="1.79469">
        <ele>861</ele>
        <time>2024-06-30T06:28:39Z</time>
      </trkpt>
      <trkpt lat="42.74649" lon="1.79473">
        <ele>860.8</ele>
        <time>2024-06-30T06:28:40Z</time>
      </trkpt>
      <trkpt lat="42.74648" lon="1.79477">
        <ele>860.8</ele>
        <time>2024-06-30T06:28:41Z</time>
      </trkpt>
      <trkpt lat="42.74644" lon="1.79483">
        <ele>860.8</ele>
        <time>2024-06-30T06:28:42Z</time>
      </trkpt>
      <trkpt lat="42.74641" lon="1.79487">
        <ele>860.8</ele>
        <time>2024-06-30T06:28:43Z</time>
      </trkpt>
      <trkpt lat="42.74635" lon="1.79491">
        <ele>861</ele>
        <time>2024-06-30T06:28:44Z</time>
      </trkpt>
      <trkpt lat="42.74629" lon="1.79497">
        <ele>861.2</ele>
        <time>2024-06-30T06:28:45Z</time>
      </trkpt>
      <trkpt lat="42.74624" lon="1.79505">
        <ele>861.6</ele>
        <time>2024-06-30T06:28:46Z</time>
      </trkpt>
      <trkpt lat="42.7462" lon="1.79514">
        <ele>861.8</ele>
        <time>2024-06-30T06:28:47Z</time>
      </trkpt>
      <trkpt lat="42.74617" lon="1.79522">
        <ele>862.2</ele>
        <time>2024-06-30T06:28:48Z</time>
      </trkpt>
      <trkpt lat="42.74614" lon="1.79531">
        <ele>862.2</ele>
        <time>2024-06-30T06:28:49Z</time>
      </trkpt>
      <trkpt lat="42.74611" lon="1.79539">
        <ele>862.4</ele>
        <time>2024-06-30T06:28:50Z</time>
      </trkpt>
      <trkpt lat="42.74609" lon="1.79546">
        <ele>862.4</ele>
        <time>2024-06-30T06:28:51Z</time>
      </trkpt>
      <trkpt lat="42.74606" lon="1.79553">
        <ele>862.4</ele>
        <time>2024-06-30T06:28:52Z</time>
      </trkpt>
      <trkpt lat="42.74603" lon="1.7956">
        <ele>862.4</ele>
        <time>2024-06-30T06:28:53Z</time>
      </trkpt>
      <trkpt lat="42.746" lon="1.79566">
        <ele>862.4</ele>
        <time>2024-06-30T06:28:54Z</time>
      </trkpt>
      <trkpt lat="42.74597" lon="1.79573">
        <ele>862.4</ele>
        <time>2024-06-30T06:28:55Z</time>
      </trkpt>
      <trkpt lat="42.74593" lon="1.7958">
        <ele>862.4</ele>
        <time>2024-06-30T06:28:56Z</time>
      </trkpt>
      <trkpt lat="42.74588" lon="1.79586">
        <ele>862.2</ele>
        <time>2024-06-30T06:28:57Z</time>
      </trkpt>
      <trkpt lat="42.74584" lon="1.79591">
        <ele>862.2</ele>
        <time>2024-06-30T06:28:58Z</time>
      </trkpt>
      <trkpt lat="42.7458" lon="1.79597">
        <ele>862.2</ele>
        <time>2024-06-30T06:28:59Z</time>
      </trkpt>
      <trkpt lat="42.74576" lon="1.79602">
        <ele>862.2</ele>
        <time>2024-06-30T06:29:00Z</time>
      </trkpt>
      <trkpt lat="42.74572" lon="1.79607">
        <ele>862</ele>
        <time>2024-06-30T06:29:01Z</time>
      </trkpt>
      <trkpt lat="42.74569" lon="1.79613">
        <ele>862</ele>
        <time>2024-06-30T06:29:02Z</time>
      </trkpt>
      <trkpt lat="42.74565" lon="1.79618">
        <ele>862</ele>
        <time>2024-06-30T06:29:03Z</time>
      </trkpt>
      <trkpt lat="42.74561" lon="1.79623">
        <ele>862.2</ele>
        <time>2024-06-30T06:29:04Z</time>
      </trkpt>
      <trkpt lat="42.74557" lon="1.79629">
        <ele>862</ele>
        <time>2024-06-30T06:29:05Z</time>
      </trkpt>
      <trkpt lat="42.74553" lon="1.79636">
        <ele>862</ele>
        <time>2024-06-30T06:29:06Z</time>
      </trkpt>
      <trkpt lat="42.7455" lon="1.79643">
        <ele>862</ele>
        <time>2024-06-30T06:29:07Z</time>
      </trkpt>
      <trkpt lat="42.74543" lon="1.79656">
        <ele>862.2</ele>
        <time>2024-06-30T06:29:09Z</time>
      </trkpt>
      <trkpt lat="42.74519" lon="1.79702">
        <ele>862.2</ele>
        <time>2024-06-30T06:29:16Z</time>
      </trkpt>
      <trkpt lat="42.74515" lon="1.79707">
        <ele>862.2</ele>
        <time>2024-06-30T06:29:17Z</time>
      </trkpt>
      <trkpt lat="42.74511" lon="1.79714">
        <ele>862.2</ele>
        <time>2024-06-30T06:29:18Z</time>
      </trkpt>
      <trkpt lat="42.74508" lon="1.7972">
        <ele>862.2</ele>
        <time>2024-06-30T06:29:19Z</time>
      </trkpt>
      <trkpt lat="42.74505" lon="1.79727">
        <ele>862.4</ele>
        <time>2024-06-30T06:29:20Z</time>
      </trkpt>
      <trkpt lat="42.74502" lon="1.79734">
        <ele>862.4</ele>
        <time>2024-06-30T06:29:21Z</time>
      </trkpt>
      <trkpt lat="42.74496" lon="1.79747">
        <ele>862.4</ele>
        <time>2024-06-30T06:29:23Z</time>
      </trkpt>
      <trkpt lat="42.74494" lon="1.79753">
        <ele>862.6</ele>
        <time>2024-06-30T06:29:24Z</time>
      </trkpt>
      <trkpt lat="42.74491" lon="1.79759">
        <ele>862.6</ele>
        <time>2024-06-30T06:29:25Z</time>
      </trkpt>
      <trkpt lat="42.74489" lon="1.79766">
        <ele>862.8</ele>
        <time>2024-06-30T06:29:26Z</time>
      </trkpt>
      <trkpt lat="42.74487" lon="1.79771">
        <ele>863</ele>
        <time>2024-06-30T06:29:27Z</time>
      </trkpt>
      <trkpt lat="42.74484" lon="1.79777">
        <ele>863.2</ele>
        <time>2024-06-30T06:29:28Z</time>
      </trkpt>
      <trkpt lat="42.74482" lon="1.79782">
        <ele>863.2</ele>
        <time>2024-06-30T06:29:29Z</time>
      </trkpt>
      <trkpt lat="42.7448" lon="1.79787">
        <ele>863.4</ele>
        <time>2024-06-30T06:29:30Z</time>
      </trkpt>
      <trkpt lat="42.74477" lon="1.79793">
        <ele>863.6</ele>
        <time>2024-06-30T06:29:31Z</time>
      </trkpt>
      <trkpt lat="42.74475" lon="1.79798">
        <ele>863.6</ele>
        <time>2024-06-30T06:29:32Z</time>
      </trkpt>
      <trkpt lat="42.74463" lon="1.79828">
        <ele>864.2</ele>
        <time>2024-06-30T06:29:37Z</time>
      </trkpt>
      <trkpt lat="42.7446" lon="1.79833">
        <ele>864.4</ele>
        <time>2024-06-30T06:29:38Z</time>
      </trkpt>
      <trkpt lat="42.74454" lon="1.7985">
        <ele>865</ele>
        <time>2024-06-30T06:29:41Z</time>
      </trkpt>
      <trkpt lat="42.74452" lon="1.79855">
        <ele>865.4</ele>
        <time>2024-06-30T06:29:42Z</time>
      </trkpt>
      <trkpt lat="42.7445" lon="1.7986">
        <ele>865.6</ele>
        <time>2024-06-30T06:29:43Z</time>
      </trkpt>
      <trkpt lat="42.74446" lon="1.79866">
        <ele>865.8</ele>
        <time>2024-06-30T06:29:44Z</time>
      </trkpt>
      <trkpt lat="42.74444" lon="1.7987">
        <ele>866</ele>
        <time>2024-06-30T06:29:45Z</time>
      </trkpt>
      <trkpt lat="42.74441" lon="1.79876">
        <ele>866</ele>
        <time>2024-06-30T06:29:46Z</time>
      </trkpt>
      <trkpt lat="42.74438" lon="1.79881">
        <ele>866.2</ele>
        <time>2024-06-30T06:29:47Z</time>
      </trkpt>
      <trkpt lat="42.74435" lon="1.79887">
        <ele>866.4</ele>
        <time>2024-06-30T06:29:48Z</time>
      </trkpt>
      <trkpt lat="42.74431" lon="1.79892">
        <ele>866.6</ele>
        <time>2024-06-30T06:29:49Z</time>
      </trkpt>
      <trkpt lat="42.74428" lon="1.79898">
        <ele>866.6</ele>
        <time>2024-06-30T06:29:50Z</time>
      </trkpt>
      <trkpt lat="42.74425" lon="1.79903">
        <ele>866.8</ele>
        <time>2024-06-30T06:29:51Z</time>
      </trkpt>
      <trkpt lat="42.74422" lon="1.79908">
        <ele>866.8</ele>
        <time>2024-06-30T06:29:52Z</time>
      </trkpt>
      <trkpt lat="42.74419" lon="1.79913">
        <ele>867</ele>
        <time>2024-06-30T06:29:53Z</time>
      </trkpt>
      <trkpt lat="42.74417" lon="1.79919">
        <ele>867.2</ele>
        <time>2024-06-30T06:29:54Z</time>
      </trkpt>
      <trkpt lat="42.74414" lon="1.79926">
        <ele>867.2</ele>
        <time>2024-06-30T06:29:55Z</time>
      </trkpt>
      <trkpt lat="42.74411" lon="1.79932">
        <ele>867.2</ele>
        <time>2024-06-30T06:29:56Z</time>
      </trkpt>
      <trkpt lat="42.74408" lon="1.79938">
        <ele>867.4</ele>
        <time>2024-06-30T06:29:57Z</time>
      </trkpt>
      <trkpt lat="42.74406" lon="1.79943">
        <ele>867.6</ele>
        <time>2024-06-30T06:29:58Z</time>
      </trkpt>
      <trkpt lat="42.74404" lon="1.79948">
        <ele>867.6</ele>
        <time>2024-06-30T06:29:59Z</time>
      </trkpt>
      <trkpt lat="42.74401" lon="1.79955">
        <ele>867.6</ele>
        <time>2024-06-30T06:30:00Z</time>
      </trkpt>
      <trkpt lat="42.74399" lon="1.79961">
        <ele>867.6</ele>
        <time>2024-06-30T06:30:01Z</time>
      </trkpt>
      <trkpt lat="42.74397" lon="1.79969">
        <ele>867.8</ele>
        <time>2024-06-30T06:30:02Z</time>
      </trkpt>
      <trkpt lat="42.74393" lon="1.79977">
        <ele>867.8</ele>
        <time>2024-06-30T06:30:03Z</time>
      </trkpt>
      <trkpt lat="42.74391" lon="1.79983">
        <ele>868</ele>
        <time>2024-06-30T06:30:04Z</time>
      </trkpt>
      <trkpt lat="42.74389" lon="1.79989">
        <ele>868.2</ele>
        <time>2024-06-30T06:30:05Z</time>
      </trkpt>
      <trkpt lat="42.74386" lon="1.79996">
        <ele>868.4</ele>
        <time>2024-06-30T06:30:06Z</time>
      </trkpt>
      <trkpt lat="42.74383" lon="1.80003">
        <ele>868.4</ele>
        <time>2024-06-30T06:30:07Z</time>
      </trkpt>
      <trkpt lat="42.74381" lon="1.80009">
        <ele>868.6</ele>
        <time>2024-06-30T06:30:08Z</time>
      </trkpt>
      <trkpt lat="42.74378" lon="1.80016">
        <ele>868.8</ele>
        <time>2024-06-30T06:30:09Z</time>
      </trkpt>
      <trkpt lat="42.74376" lon="1.80023">
        <ele>869</ele>
        <time>2024-06-30T06:30:10Z</time>
      </trkpt>
      <trkpt lat="42.74373" lon="1.80029">
        <ele>869</ele>
        <time>2024-06-30T06:30:11Z</time>
      </trkpt>
      <trkpt lat="42.7437" lon="1.80035">
        <ele>869.2</ele>
        <time>2024-06-30T06:30:12Z</time>
      </trkpt>
      <trkpt lat="42.74367" lon="1.80041">
        <ele>869.2</ele>
        <time>2024-06-30T06:30:13Z</time>
      </trkpt>
      <trkpt lat="42.74364" lon="1.80046">
        <ele>869.4</ele>
        <time>2024-06-30T06:30:14Z</time>
      </trkpt>
      <trkpt lat="42.74361" lon="1.80052">
        <ele>869.6</ele>
        <time>2024-06-30T06:30:15Z</time>
      </trkpt>
      <trkpt lat="42.74358" lon="1.80059">
        <ele>869.8</ele>
        <time>2024-06-30T06:30:16Z</time>
      </trkpt>
      <trkpt lat="42.74355" lon="1.80064">
        <ele>869.8</ele>
        <time>2024-06-30T06:30:17Z</time>
      </trkpt>
      <trkpt lat="42.74352" lon="1.80071">
        <ele>870</ele>
        <time>2024-06-30T06:30:18Z</time>
      </trkpt>
      <trkpt lat="42.74348" lon="1.80077">
        <ele>870</ele>
        <time>2024-06-30T06:30:19Z</time>
      </trkpt>
      <trkpt lat="42.74345" lon="1.80083">
        <ele>870</ele>
        <time>2024-06-30T06:30:20Z</time>
      </trkpt>
      <trkpt lat="42.74341" lon="1.80088">
        <ele>870.2</ele>
        <time>2024-06-30T06:30:21Z</time>
      </trkpt>
      <trkpt lat="42.74338" lon="1.80094">
        <ele>870.2</ele>
        <time>2024-06-30T06:30:22Z</time>
      </trkpt>
      <trkpt lat="42.74334" lon="1.801">
        <ele>870.4</ele>
        <time>2024-06-30T06:30:23Z</time>
      </trkpt>
      <trkpt lat="42.7433" lon="1.80105">
        <ele>870.6</ele>
        <time>2024-06-30T06:30:24Z</time>
      </trkpt>
      <trkpt lat="42.74326" lon="1.80111">
        <ele>870.6</ele>
        <time>2024-06-30T06:30:25Z</time>
      </trkpt>
      <trkpt lat="42.74323" lon="1.80116">
        <ele>870.6</ele>
        <time>2024-06-30T06:30:26Z</time>
      </trkpt>
      <trkpt lat="42.74319" lon="1.80121">
        <ele>870.8</ele>
        <time>2024-06-30T06:30:27Z</time>
      </trkpt>
      <trkpt lat="42.74315" lon="1.80125">
        <ele>870.8</ele>
        <time>2024-06-30T06:30:28Z</time>
      </trkpt>
      <trkpt lat="42.74311" lon="1.8013">
        <ele>870.8</ele>
        <time>2024-06-30T06:30:29Z</time>
      </trkpt>
      <trkpt lat="42.74308" lon="1.80135">
        <ele>870.8</ele>
        <time>2024-06-30T06:30:30Z</time>
      </trkpt>
      <trkpt lat="42.74304" lon="1.8014">
        <ele>871</ele>
        <time>2024-06-30T06:30:31Z</time>
      </trkpt>
      <trkpt lat="42.74301" lon="1.80146">
        <ele>871</ele>
        <time>2024-06-30T06:30:32Z</time>
      </trkpt>
      <trkpt lat="42.74298" lon="1.80151">
        <ele>871</ele>
        <time>2024-06-30T06:30:33Z</time>
      </trkpt>
      <trkpt lat="42.74295" lon="1.80156">
        <ele>871.2</ele>
        <time>2024-06-30T06:30:34Z</time>
      </trkpt>
      <trkpt lat="42.74293" lon="1.80161">
        <ele>871.2</ele>
        <time>2024-06-30T06:30:35Z</time>
      </trkpt>
      <trkpt lat="42.7429" lon="1.80165">
        <ele>871.6</ele>
        <time>2024-06-30T06:30:36Z</time>
      </trkpt>
      <trkpt lat="42.74288" lon="1.8017">
        <ele>871.8</ele>
        <time>2024-06-30T06:30:37Z</time>
      </trkpt>
      <trkpt lat="42.74285" lon="1.80175">
        <ele>872</ele>
        <time>2024-06-30T06:30:38Z</time>
      </trkpt>
      <trkpt lat="42.74282" lon="1.80179">
        <ele>872</ele>
        <time>2024-06-30T06:30:39Z</time>
      </trkpt>
      <trkpt lat="42.74279" lon="1.80183">
        <ele>872.2</ele>
        <time>2024-06-30T06:30:40Z</time>
      </trkpt>
      <trkpt lat="42.74277" lon="1.80187">
        <ele>872.8</ele>
        <time>2024-06-30T06:30:41Z</time>
      </trkpt>
      <trkpt lat="42.74275" lon="1.80191">
        <ele>873</ele>
        <time>2024-06-30T06:30:42Z</time>
      </trkpt>
      <trkpt lat="42.74274" lon="1.80194">
        <ele>873.4</ele>
        <time>2024-06-30T06:30:43Z</time>
      </trkpt>
      <trkpt lat="42.74272" lon="1.80198">
        <ele>873.6</ele>
        <time>2024-06-30T06:30:44Z</time>
      </trkpt>
      <trkpt lat="42.7427" lon="1.80201">
        <ele>874</ele>
        <time>2024-06-30T06:30:45Z</time>
      </trkpt>
      <trkpt lat="42.74268" lon="1.80204">
        <ele>874.2</ele>
        <time>2024-06-30T06:30:46Z</time>
      </trkpt>
      <trkpt lat="42.74265" lon="1.80208">
        <ele>874.6</ele>
        <time>2024-06-30T06:30:47Z</time>
      </trkpt>
      <trkpt lat="42.74262" lon="1.80212">
        <ele>875</ele>
        <time>2024-06-30T06:30:48Z</time>
      </trkpt>
      <trkpt lat="42.74261" lon="1.80215">
        <ele>875.4</ele>
        <time>2024-06-30T06:30:49Z</time>
      </trkpt>
      <trkpt lat="42.74259" lon="1.8022">
        <ele>875.8</ele>
        <time>2024-06-30T06:30:50Z</time>
      </trkpt>
      <trkpt lat="42.74257" lon="1.80224">
        <ele>876</ele>
        <time>2024-06-30T06:30:51Z</time>
      </trkpt>
      <trkpt lat="42.74256" lon="1.80228">
        <ele>876.6</ele>
        <time>2024-06-30T06:30:52Z</time>
      </trkpt>
      <trkpt lat="42.74256" lon="1.80232">
        <ele>876.8</ele>
        <time>2024-06-30T06:30:53Z</time>
      </trkpt>
      <trkpt lat="42.74255" lon="1.80235">
        <ele>877.2</ele>
        <time>2024-06-30T06:30:54Z</time>
      </trkpt>
      <trkpt lat="42.74255" lon="1.80239">
        <ele>877.6</ele>
        <time>2024-06-30T06:30:55Z</time>
      </trkpt>
      <trkpt lat="42.74254" lon="1.80243">
        <ele>877.8</ele>
        <time>2024-06-30T06:30:56Z</time>
      </trkpt>
      <trkpt lat="42.74253" lon="1.80249">
        <ele>878.2</ele>
        <time>2024-06-30T06:30:57Z</time>
      </trkpt>
      <trkpt lat="42.74252" lon="1.80254">
        <ele>878.4</ele>
        <time>2024-06-30T06:30:58Z</time>
      </trkpt>
      <trkpt lat="42.74252" lon="1.80258">
        <ele>878.8</ele>
        <time>2024-06-30T06:30:59Z</time>
      </trkpt>
      <trkpt lat="42.7425" lon="1.80263">
        <ele>879</ele>
        <time>2024-06-30T06:31:00Z</time>
      </trkpt>
      <trkpt lat="42.74249" lon="1.80268">
        <ele>879.2</ele>
        <time>2024-06-30T06:31:01Z</time>
      </trkpt>
      <trkpt lat="42.74248" lon="1.80273">
        <ele>879.4</ele>
        <time>2024-06-30T06:31:02Z</time>
      </trkpt>
      <trkpt lat="42.74246" lon="1.80278">
        <ele>879.6</ele>
        <time>2024-06-30T06:31:03Z</time>
      </trkpt>
      <trkpt lat="42.74245" lon="1.80282">
        <ele>880</ele>
        <time>2024-06-30T06:31:04Z</time>
      </trkpt>
      <trkpt lat="42.74244" lon="1.80286">
        <ele>880.2</ele>
        <time>2024-06-30T06:31:05Z</time>
      </trkpt>
      <trkpt lat="42.74243" lon="1.8029">
        <ele>880.4</ele>
        <time>2024-06-30T06:31:06Z</time>
      </trkpt>
      <trkpt lat="42.74241" lon="1.80295">
        <ele>880.4</ele>
        <time>2024-06-30T06:31:07Z</time>
      </trkpt>
      <trkpt lat="42.74239" lon="1.80299">
        <ele>880.6</ele>
        <time>2024-06-30T06:31:08Z</time>
      </trkpt>
      <trkpt lat="42.74236" lon="1.80302">
        <ele>880.8</ele>
        <time>2024-06-30T06:31:09Z</time>
      </trkpt>
      <trkpt lat="42.74234" lon="1.80306">
        <ele>881.2</ele>
        <time>2024-06-30T06:31:10Z</time>
      </trkpt>
      <trkpt lat="42.74232" lon="1.80311">
        <ele>881.2</ele>
        <time>2024-06-30T06:31:11Z</time>
      </trkpt>
      <trkpt lat="42.7423" lon="1.80315">
        <ele>881.6</ele>
        <time>2024-06-30T06:31:12Z</time>
      </trkpt>
      <trkpt lat="42.74228" lon="1.80319">
        <ele>882.2</ele>
        <time>2024-06-30T06:31:13Z</time>
      </trkpt>
      <trkpt lat="42.74226" lon="1.80324">
        <ele>882.4</ele>
        <time>2024-06-30T06:31:14Z</time>
      </trkpt>
      <trkpt lat="42.74223" lon="1.80329">
        <ele>882.6</ele>
        <time>2024-06-30T06:31:15Z</time>
      </trkpt>
      <trkpt lat="42.74221" lon="1.80334">
        <ele>882.6</ele>
        <time>2024-06-30T06:31:16Z</time>
      </trkpt>
      <trkpt lat="42.74219" lon="1.8034">
        <ele>883</ele>
        <time>2024-06-30T06:31:17Z</time>
      </trkpt>
      <trkpt lat="42.74216" lon="1.80346">
        <ele>883.2</ele>
        <time>2024-06-30T06:31:18Z</time>
      </trkpt>
      <trkpt lat="42.74214" lon="1.80351">
        <ele>883.4</ele>
        <time>2024-06-30T06:31:19Z</time>
      </trkpt>
      <trkpt lat="42.74211" lon="1.80356">
        <ele>883.6</ele>
        <time>2024-06-30T06:31:20Z</time>
      </trkpt>
      <trkpt lat="42.74209" lon="1.80362">
        <ele>883.8</ele>
        <time>2024-06-30T06:31:21Z</time>
      </trkpt>
      <trkpt lat="42.74206" lon="1.80367">
        <ele>883.8</ele>
        <time>2024-06-30T06:31:22Z</time>
      </trkpt>
      <trkpt lat="42.74204" lon="1.80371">
        <ele>883.8</ele>
        <time>2024-06-30T06:31:23Z</time>
      </trkpt>
      <trkpt lat="42.74202" lon="1.80376">
        <ele>883.8</ele>
        <time>2024-06-30T06:31:24Z</time>
      </trkpt>
      <trkpt lat="42.742" lon="1.80381">
        <ele>883.8</ele>
        <time>2024-06-30T06:31:25Z</time>
      </trkpt>
      <trkpt lat="42.74198" lon="1.80386">
        <ele>883.8</ele>
        <time>2024-06-30T06:31:26Z</time>
      </trkpt>
      <trkpt lat="42.74197" lon="1.80391">
        <ele>884</ele>
        <time>2024-06-30T06:31:27Z</time>
      </trkpt>
      <trkpt lat="42.74197" lon="1.80397">
        <ele>884</ele>
        <time>2024-06-30T06:31:28Z</time>
      </trkpt>
      <trkpt lat="42.74198" lon="1.80402">
        <ele>884</ele>
        <time>2024-06-30T06:31:29Z</time>
      </trkpt>
      <trkpt lat="42.74199" lon="1.80406">
        <ele>884.2</ele>
        <time>2024-06-30T06:31:30Z</time>
      </trkpt>
      <trkpt lat="42.742" lon="1.80411">
        <ele>884.4</ele>
        <time>2024-06-30T06:31:31Z</time>
      </trkpt>
      <trkpt lat="42.74203" lon="1.80414">
        <ele>884.4</ele>
        <time>2024-06-30T06:31:32Z</time>
      </trkpt>
      <trkpt lat="42.74204" lon="1.80417">
        <ele>884.6</ele>
        <time>2024-06-30T06:31:33Z</time>
      </trkpt>
      <trkpt lat="42.74205" lon="1.80421">
        <ele>884.6</ele>
        <time>2024-06-30T06:31:34Z</time>
      </trkpt>
      <trkpt lat="42.74206" lon="1.80425">
        <ele>885</ele>
        <time>2024-06-30T06:31:35Z</time>
      </trkpt>
      <trkpt lat="42.74206" lon="1.80429">
        <ele>885.2</ele>
        <time>2024-06-30T06:31:36Z</time>
      </trkpt>
      <trkpt lat="42.74205" lon="1.80433">
        <ele>885.6</ele>
        <time>2024-06-30T06:31:37Z</time>
      </trkpt>
      <trkpt lat="42.74204" lon="1.80437">
        <ele>885.8</ele>
        <time>2024-06-30T06:31:38Z</time>
      </trkpt>
      <trkpt lat="42.74203" lon="1.8044">
        <ele>886.2</ele>
        <time>2024-06-30T06:31:39Z</time>
      </trkpt>
      <trkpt lat="42.74201" lon="1.80443">
        <ele>886.8</ele>
        <time>2024-06-30T06:31:40Z</time>
      </trkpt>
      <trkpt lat="42.74199" lon="1.80447">
        <ele>887.2</ele>
        <time>2024-06-30T06:31:41Z</time>
      </trkpt>
      <trkpt lat="42.74197" lon="1.8045">
        <ele>887.6</ele>
        <time>2024-06-30T06:31:42Z</time>
      </trkpt>
      <trkpt lat="42.74195" lon="1.80454">
        <ele>888</ele>
        <time>2024-06-30T06:31:43Z</time>
      </trkpt>
      <trkpt lat="42.74193" lon="1.80457">
        <ele>888.4</ele>
        <time>2024-06-30T06:31:44Z</time>
      </trkpt>
      <trkpt lat="42.74191" lon="1.8046">
        <ele>888.8</ele>
        <time>2024-06-30T06:31:45Z</time>
      </trkpt>
      <trkpt lat="42.74189" lon="1.80463">
        <ele>889.4</ele>
        <time>2024-06-30T06:31:46Z</time>
      </trkpt>
      <trkpt lat="42.74186" lon="1.80467">
        <ele>889.6</ele>
        <time>2024-06-30T06:31:47Z</time>
      </trkpt>
      <trkpt lat="42.74184" lon="1.80469">
        <ele>890.4</ele>
        <time>2024-06-30T06:31:48Z</time>
      </trkpt>
      <trkpt lat="42.74181" lon="1.80472">
        <ele>890.8</ele>
        <time>2024-06-30T06:31:49Z</time>
      </trkpt>
      <trkpt lat="42.74179" lon="1.80476">
        <ele>891</ele>
        <time>2024-06-30T06:31:50Z</time>
      </trkpt>
      <trkpt lat="42.74176" lon="1.80479">
        <ele>891.6</ele>
        <time>2024-06-30T06:31:51Z</time>
      </trkpt>
      <trkpt lat="42.74173" lon="1.80483">
        <ele>891.6</ele>
        <time>2024-06-30T06:31:52Z</time>
      </trkpt>
      <trkpt lat="42.7417" lon="1.80486">
        <ele>892</ele>
        <time>2024-06-30T06:31:53Z</time>
      </trkpt>
      <trkpt lat="42.74167" lon="1.80489">
        <ele>892</ele>
        <time>2024-06-30T06:31:54Z</time>
      </trkpt>
      <trkpt lat="42.74165" lon="1.80493">
        <ele>892.2</ele>
        <time>2024-06-30T06:31:55Z</time>
      </trkpt>
      <trkpt lat="42.74163" lon="1.80496">
        <ele>892.4</ele>
        <time>2024-06-30T06:31:56Z</time>
      </trkpt>
      <trkpt lat="42.74161" lon="1.80499">
        <ele>892.6</ele>
        <time>2024-06-30T06:31:57Z</time>
      </trkpt>
      <trkpt lat="42.74159" lon="1.80503">
        <ele>892.8</ele>
        <time>2024-06-30T06:31:58Z</time>
      </trkpt>
      <trkpt lat="42.74157" lon="1.80507">
        <ele>893</ele>
        <time>2024-06-30T06:31:59Z</time>
      </trkpt>
      <trkpt lat="42.74155" lon="1.8051">
        <ele>893.2</ele>
        <time>2024-06-30T06:32:00Z</time>
      </trkpt>
      <trkpt lat="42.74154" lon="1.80514">
        <ele>893.4</ele>
        <time>2024-06-30T06:32:01Z</time>
      </trkpt>
      <trkpt lat="42.74153" lon="1.80518">
        <ele>893.6</ele>
        <time>2024-06-30T06:32:02Z</time>
      </trkpt>
      <trkpt lat="42.74152" lon="1.80522">
        <ele>894</ele>
        <time>2024-06-30T06:32:03Z</time>
      </trkpt>
      <trkpt lat="42.74151" lon="1.80526">
        <ele>894.6</ele>
        <time>2024-06-30T06:32:04Z</time>
      </trkpt>
      <trkpt lat="42.74151" lon="1.8053">
        <ele>894.8</ele>
        <time>2024-06-30T06:32:05Z</time>
      </trkpt>
      <trkpt lat="42.7415" lon="1.80535">
        <ele>895.4</ele>
        <time>2024-06-30T06:32:06Z</time>
      </trkpt>
      <trkpt lat="42.74148" lon="1.80539">
        <ele>895.8</ele>
        <time>2024-06-30T06:32:07Z</time>
      </trkpt>
      <trkpt lat="42.74147" lon="1.80543">
        <ele>896</ele>
        <time>2024-06-30T06:32:08Z</time>
      </trkpt>
      <trkpt lat="42.74146" lon="1.80546">
        <ele>896.4</ele>
        <time>2024-06-30T06:32:09Z</time>
      </trkpt>
      <trkpt lat="42.74146" lon="1.8055">
        <ele>897</ele>
        <time>2024-06-30T06:32:10Z</time>
      </trkpt>
      <trkpt lat="42.74145" lon="1.80553">
        <ele>897.4</ele>
        <time>2024-06-30T06:32:11Z</time>
      </trkpt>
      <trkpt lat="42.74144" lon="1.80556">
        <ele>897.6</ele>
        <time>2024-06-30T06:32:12Z</time>
      </trkpt>
      <trkpt lat="42.74143" lon="1.8056">
        <ele>898</ele>
        <time>2024-06-30T06:32:13Z</time>
      </trkpt>
      <trkpt lat="42.74143" lon="1.80564">
        <ele>898</ele>
        <time>2024-06-30T06:32:14Z</time>
      </trkpt>
      <trkpt lat="42.74143" lon="1.80569">
        <ele>898.6</ele>
        <time>2024-06-30T06:32:15Z</time>
      </trkpt>
      <trkpt lat="42.74143" lon="1.80573">
        <ele>899</ele>
        <time>2024-06-30T06:32:16Z</time>
      </trkpt>
      <trkpt lat="42.74143" lon="1.80577">
        <ele>899.4</ele>
        <time>2024-06-30T06:32:17Z</time>
      </trkpt>
      <trkpt lat="42.74142" lon="1.80581">
        <ele>899.8</ele>
        <time>2024-06-30T06:32:18Z</time>
      </trkpt>
      <trkpt lat="42.74142" lon="1.80585">
        <ele>900</ele>
        <time>2024-06-30T06:32:19Z</time>
      </trkpt>
      <trkpt lat="42.74141" lon="1.80588">
        <ele>900.4</ele>
        <time>2024-06-30T06:32:20Z</time>
      </trkpt>
      <trkpt lat="42.74141" lon="1.80592">
        <ele>900.4</ele>
        <time>2024-06-30T06:32:21Z</time>
      </trkpt>
      <trkpt lat="42.74141" lon="1.80595">
        <ele>900.6</ele>
        <time>2024-06-30T06:32:22Z</time>
      </trkpt>
      <trkpt lat="42.7414" lon="1.80597">
        <ele>901</ele>
        <time>2024-06-30T06:32:23Z</time>
      </trkpt>
      <trkpt lat="42.74139" lon="1.806">
        <ele>901.4</ele>
        <time>2024-06-30T06:32:24Z</time>
      </trkpt>
      <trkpt lat="42.74138" lon="1.80603">
        <ele>901.8</ele>
        <time>2024-06-30T06:32:25Z</time>
      </trkpt>
      <trkpt lat="42.74138" lon="1.80606">
        <ele>901.8</ele>
        <time>2024-06-30T06:32:26Z</time>
      </trkpt>
      <trkpt lat="42.74139" lon="1.80611">
        <ele>902</ele>
        <time>2024-06-30T06:32:27Z</time>
      </trkpt>
      <trkpt lat="42.74141" lon="1.80617">
        <ele>902.2</ele>
        <time>2024-06-30T06:32:28Z</time>
      </trkpt>
      <trkpt lat="42.74141" lon="1.80623">
        <ele>902.6</ele>
        <time>2024-06-30T06:32:29Z</time>
      </trkpt>
      <trkpt lat="42.74142" lon="1.80627">
        <ele>902.8</ele>
        <time>2024-06-30T06:32:30Z</time>
      </trkpt>
      <trkpt lat="42.74143" lon="1.80631">
        <ele>903</ele>
        <time>2024-06-30T06:32:31Z</time>
      </trkpt>
      <trkpt lat="42.74143" lon="1.80633">
        <ele>903</ele>
        <time>2024-06-30T06:32:32Z</time>
      </trkpt>
      <trkpt lat="42.74142" lon="1.80636">
        <ele>903.4</ele>
        <time>2024-06-30T06:32:33Z</time>
      </trkpt>
      <trkpt lat="42.74142" lon="1.80638">
        <ele>903.6</ele>
        <time>2024-06-30T06:32:34Z</time>
      </trkpt>
      <trkpt lat="42.74141" lon="1.8064">
        <ele>903.8</ele>
        <time>2024-06-30T06:32:35Z</time>
      </trkpt>
      <trkpt lat="42.7414" lon="1.80643">
        <ele>904</ele>
        <time>2024-06-30T06:32:36Z</time>
      </trkpt>
      <trkpt lat="42.74141" lon="1.80644">
        <ele>904.2</ele>
        <time>2024-06-30T06:32:37Z</time>
      </trkpt>
      <trkpt lat="42.74143" lon="1.80643">
        <ele>904.4</ele>
        <time>2024-06-30T06:32:38Z</time>
      </trkpt>
      <trkpt lat="42.74143" lon="1.80642">
        <ele>904.4</ele>
        <time>2024-06-30T06:32:39Z</time>
      </trkpt>
      <trkpt lat="42.74143" lon="1.8064">
        <ele>904.6</ele>
        <time>2024-06-30T06:32:40Z</time>
      </trkpt>
      <trkpt lat="42.74142" lon="1.80638">
        <ele>904.8</ele>
        <time>2024-06-30T06:32:41Z</time>
      </trkpt>
      <trkpt lat="42.74143" lon="1.80633">
        <ele>904.8</ele>
        <time>2024-06-30T06:32:42Z</time>
      </trkpt>
      <trkpt lat="42.74143" lon="1.80625">
        <ele>904.8</ele>
        <time>2024-06-30T06:32:43Z</time>
      </trkpt>
      <trkpt lat="42.74144" lon="1.80619">
        <ele>904.8</ele>
        <time>2024-06-30T06:32:44Z</time>
      </trkpt>
      <trkpt lat="42.74144" lon="1.80613">
        <ele>904.8</ele>
        <time>2024-06-30T06:32:45Z</time>
      </trkpt>
      <trkpt lat="42.74144" lon="1.80608">
        <ele>904.8</ele>
        <time>2024-06-30T06:32:46Z</time>
      </trkpt>
      <trkpt lat="42.74145" lon="1.80602">
        <ele>904.8</ele>
        <time>2024-06-30T06:32:47Z</time>
      </trkpt>
      <trkpt lat="42.74145" lon="1.80597">
        <ele>904.6</ele>
        <time>2024-06-30T06:32:48Z</time>
      </trkpt>
      <trkpt lat="42.74145" lon="1.80591">
        <ele>904.2</ele>
        <time>2024-06-30T06:32:49Z</time>
      </trkpt>
      <trkpt lat="42.74146" lon="1.80585">
        <ele>904</ele>
        <time>2024-06-30T06:32:50Z</time>
      </trkpt>
      <trkpt lat="42.74146" lon="1.8058">
        <ele>903.4</ele>
        <time>2024-06-30T06:32:51Z</time>
      </trkpt>
      <trkpt lat="42.74145" lon="1.80574">
        <ele>903.2</ele>
        <time>2024-06-30T06:32:52Z</time>
      </trkpt>
      <trkpt lat="42.74146" lon="1.80568">
        <ele>903</ele>
        <time>2024-06-30T06:32:53Z</time>
      </trkpt>
      <trkpt lat="42.74146" lon="1.80564">
        <ele>902.8</ele>
        <time>2024-06-30T06:32:54Z</time>
      </trkpt>
      <trkpt lat="42.74147" lon="1.8056">
        <ele>902.6</ele>
        <time>2024-06-30T06:32:55Z</time>
      </trkpt>
      <trkpt lat="42.74148" lon="1.80558">
        <ele>902.2</ele>
        <time>2024-06-30T06:32:56Z</time>
      </trkpt>
      <trkpt lat="42.74147" lon="1.80557">
        <ele>902.2</ele>
        <time>2024-06-30T06:32:57Z</time>
      </trkpt>
      <trkpt lat="42.74146" lon="1.80557">
        <ele>901.4</ele>
        <time>2024-06-30T06:32:58Z</time>
      </trkpt>
      <trkpt lat="42.74145" lon="1.80559">
        <ele>901.2</ele>
        <time>2024-06-30T06:32:59Z</time>
      </trkpt>
      <trkpt lat="42.74145" lon="1.80561">
        <ele>900.8</ele>
        <time>2024-06-30T06:33:00Z</time>
      </trkpt>
      <trkpt lat="42.74144" lon="1.80562">
        <ele>900.4</ele>
        <time>2024-06-30T06:33:01Z</time>
      </trkpt>
      <trkpt lat="42.74144" lon="1.80565">
        <ele>900.2</ele>
        <time>2024-06-30T06:33:02Z</time>
      </trkpt>
      <trkpt lat="42.74144" lon="1.80568">
        <ele>900</ele>
        <time>2024-06-30T06:33:03Z</time>
      </trkpt>
      <trkpt lat="42.74144" lon="1.8057">
        <ele>899.8</ele>
        <time>2024-06-30T06:33:04Z</time>
      </trkpt>
      <trkpt lat="42.74143" lon="1.80573">
        <ele>899.8</ele>
        <time>2024-06-30T06:33:05Z</time>
      </trkpt>
      <trkpt lat="42.74143" lon="1.80576">
        <ele>899.8</ele>
        <time>2024-06-30T06:33:06Z</time>
      </trkpt>
      <trkpt lat="42.74142" lon="1.80579">
        <ele>899.8</ele>
        <time>2024-06-30T06:33:07Z</time>
      </trkpt>
      <trkpt lat="42.74142" lon="1.80586">
        <ele>899.8</ele>
        <time>2024-06-30T06:33:09Z</time>
      </trkpt>
      <trkpt lat="42.74141" lon="1.80593">
        <ele>900.2</ele>
        <time>2024-06-30T06:33:11Z</time>
      </trkpt>
      <trkpt lat="42.7414" lon="1.80607">
        <ele>901</ele>
        <time>2024-06-30T06:33:14Z</time>
      </trkpt>
      <trkpt lat="42.74138" lon="1.80617">
        <ele>901.4</ele>
        <time>2024-06-30T06:33:17Z</time>
      </trkpt>
      <trkpt lat="42.74138" lon="1.80624">
        <ele>902.2</ele>
        <time>2024-06-30T06:33:19Z</time>
      </trkpt>
      <trkpt lat="42.74138" lon="1.80627">
        <ele>902.4</ele>
        <time>2024-06-30T06:33:20Z</time>
      </trkpt>
      <trkpt lat="42.74139" lon="1.8063">
        <ele>903</ele>
        <time>2024-06-30T06:33:21Z</time>
      </trkpt>
      <trkpt lat="42.74139" lon="1.80634">
        <ele>903.2</ele>
        <time>2024-06-30T06:33:22Z</time>
      </trkpt>
      <trkpt lat="42.74139" lon="1.80637">
        <ele>903.4</ele>
        <time>2024-06-30T06:33:23Z</time>
      </trkpt>
      <trkpt lat="42.74139" lon="1.8064">
        <ele>903.4</ele>
        <time>2024-06-30T06:33:24Z</time>
      </trkpt>
      <trkpt lat="42.74138" lon="1.80644">
        <ele>904</ele>
        <time>2024-06-30T06:33:25Z</time>
      </trkpt>
      <trkpt lat="42.74137" lon="1.80653">
        <ele>904.8</ele>
        <time>2024-06-30T06:33:27Z</time>
      </trkpt>
      <trkpt lat="42.74137" lon="1.80658">
        <ele>905</ele>
        <time>2024-06-30T06:33:28Z</time>
      </trkpt>
      <trkpt lat="42.74137" lon="1.80663">
        <ele>905.2</ele>
        <time>2024-06-30T06:33:29Z</time>
      </trkpt>
      <trkpt lat="42.74137" lon="1.80668">
        <ele>905.6</ele>
        <time>2024-06-30T06:33:30Z</time>
      </trkpt>
      <trkpt lat="42.74137" lon="1.80672">
        <ele>905.6</ele>
        <time>2024-06-30T06:33:31Z</time>
      </trkpt>
      <trkpt lat="42.74137" lon="1.80676">
        <ele>906.2</ele>
        <time>2024-06-30T06:33:32Z</time>
      </trkpt>
      <trkpt lat="42.74137" lon="1.8068">
        <ele>906.4</ele>
        <time>2024-06-30T06:33:33Z</time>
      </trkpt>
      <trkpt lat="42.74137" lon="1.80685">
        <ele>906.8</ele>
        <time>2024-06-30T06:33:34Z</time>
      </trkpt>
      <trkpt lat="42.74136" lon="1.80689">
        <ele>907.2</ele>
        <time>2024-06-30T06:33:35Z</time>
      </trkpt>
      <trkpt lat="42.74135" lon="1.80693">
        <ele>907.6</ele>
        <time>2024-06-30T06:33:36Z</time>
      </trkpt>
      <trkpt lat="42.74135" lon="1.80697">
        <ele>908</ele>
        <time>2024-06-30T06:33:37Z</time>
      </trkpt>
      <trkpt lat="42.74135" lon="1.80703">
        <ele>908.2</ele>
        <time>2024-06-30T06:33:38Z</time>
      </trkpt>
      <trkpt lat="42.74135" lon="1.8071">
        <ele>908.6</ele>
        <time>2024-06-30T06:33:39Z</time>
      </trkpt>
      <trkpt lat="42.74136" lon="1.80715">
        <ele>908.8</ele>
        <time>2024-06-30T06:33:40Z</time>
      </trkpt>
      <trkpt lat="42.74137" lon="1.80719">
        <ele>909.2</ele>
        <time>2024-06-30T06:33:41Z</time>
      </trkpt>
      <trkpt lat="42.74139" lon="1.80723">
        <ele>909.4</ele>
        <time>2024-06-30T06:33:42Z</time>
      </trkpt>
      <trkpt lat="42.74139" lon="1.80729">
        <ele>909.6</ele>
        <time>2024-06-30T06:33:43Z</time>
      </trkpt>
      <trkpt lat="42.74139" lon="1.80734">
        <ele>910</ele>
        <time>2024-06-30T06:33:44Z</time>
      </trkpt>
      <trkpt lat="42.74139" lon="1.8074">
        <ele>910.6</ele>
        <time>2024-06-30T06:33:45Z</time>
      </trkpt>
      <trkpt lat="42.74138" lon="1.80746">
        <ele>910.8</ele>
        <time>2024-06-30T06:33:46Z</time>
      </trkpt>
      <trkpt lat="42.74138" lon="1.80751">
        <ele>911</ele>
        <time>2024-06-30T06:33:47Z</time>
      </trkpt>
      <trkpt lat="42.74139" lon="1.80757">
        <ele>911.4</ele>
        <time>2024-06-30T06:33:48Z</time>
      </trkpt>
      <trkpt lat="42.7414" lon="1.80761">
        <ele>911.6</ele>
        <time>2024-06-30T06:33:49Z</time>
      </trkpt>
      <trkpt lat="42.74139" lon="1.80765">
        <ele>912</ele>
        <time>2024-06-30T06:33:50Z</time>
      </trkpt>
      <trkpt lat="42.74138" lon="1.80769">
        <ele>912.2</ele>
        <time>2024-06-30T06:33:51Z</time>
      </trkpt>
      <trkpt lat="42.74137" lon="1.80773">
        <ele>912.8</ele>
        <time>2024-06-30T06:33:52Z</time>
      </trkpt>
      <trkpt lat="42.74136" lon="1.80777">
        <ele>913</ele>
        <time>2024-06-30T06:33:53Z</time>
      </trkpt>
      <trkpt lat="42.74136" lon="1.80781">
        <ele>913.2</ele>
        <time>2024-06-30T06:33:54Z</time>
      </trkpt>
      <trkpt lat="42.74135" lon="1.80785">
        <ele>913.8</ele>
        <time>2024-06-30T06:33:55Z</time>
      </trkpt>
      <trkpt lat="42.74135" lon="1.80789">
        <ele>914</ele>
        <time>2024-06-30T06:33:56Z</time>
      </trkpt>
      <trkpt lat="42.74134" lon="1.80793">
        <ele>914.4</ele>
        <time>2024-06-30T06:33:57Z</time>
      </trkpt>
      <trkpt lat="42.74133" lon="1.80795">
        <ele>914.6</ele>
        <time>2024-06-30T06:33:58Z</time>
      </trkpt>
      <trkpt lat="42.7413" lon="1.80798">
        <ele>915.2</ele>
        <time>2024-06-30T06:33:59Z</time>
      </trkpt>
      <trkpt lat="42.74129" lon="1.80801">
        <ele>915.4</ele>
        <time>2024-06-30T06:34:00Z</time>
      </trkpt>
      <trkpt lat="42.74128" lon="1.80804">
        <ele>915.6</ele>
        <time>2024-06-30T06:34:01Z</time>
      </trkpt>
      <trkpt lat="42.74126" lon="1.80807">
        <ele>916</ele>
        <time>2024-06-30T06:34:02Z</time>
      </trkpt>
      <trkpt lat="42.74124" lon="1.80811">
        <ele>916</ele>
        <time>2024-06-30T06:34:03Z</time>
      </trkpt>
      <trkpt lat="42.74122" lon="1.80814">
        <ele>916.4</ele>
        <time>2024-06-30T06:34:04Z</time>
      </trkpt>
      <trkpt lat="42.7412" lon="1.80815">
        <ele>916.4</ele>
        <time>2024-06-30T06:34:05Z</time>
      </trkpt>
      <trkpt lat="42.74117" lon="1.80816">
        <ele>916.6</ele>
        <time>2024-06-30T06:34:06Z</time>
      </trkpt>
      <trkpt lat="42.74114" lon="1.80817">
        <ele>917.2</ele>
        <time>2024-06-30T06:34:07Z</time>
      </trkpt>
      <trkpt lat="42.74111" lon="1.80819">
        <ele>917.6</ele>
        <time>2024-06-30T06:34:08Z</time>
      </trkpt>
      <trkpt lat="42.74108" lon="1.80822">
        <ele>918</ele>
        <time>2024-06-30T06:34:09Z</time>
      </trkpt>
      <trkpt lat="42.74105" lon="1.80824">
        <ele>918.2</ele>
        <time>2024-06-30T06:34:10Z</time>
      </trkpt>
      <trkpt lat="42.74102" lon="1.80827">
        <ele>918.6</ele>
        <time>2024-06-30T06:34:11Z</time>
      </trkpt>
      <trkpt lat="42.74099" lon="1.80829">
        <ele>918.8</ele>
        <time>2024-06-30T06:34:12Z</time>
      </trkpt>
      <trkpt lat="42.74096" lon="1.80831">
        <ele>919.2</ele>
        <time>2024-06-30T06:34:13Z</time>
      </trkpt>
      <trkpt lat="42.74093" lon="1.80834">
        <ele>919.2</ele>
        <time>2024-06-30T06:34:14Z</time>
      </trkpt>
      <trkpt lat="42.74091" lon="1.80836">
        <ele>919.8</ele>
        <time>2024-06-30T06:34:15Z</time>
      </trkpt>
      <trkpt lat="42.7409" lon="1.80838">
        <ele>920.2</ele>
        <time>2024-06-30T06:34:16Z</time>
      </trkpt>
      <trkpt lat="42.74088" lon="1.8084">
        <ele>920.6</ele>
        <time>2024-06-30T06:34:17Z</time>
      </trkpt>
      <trkpt lat="42.74085" lon="1.80842">
        <ele>920.8</ele>
        <time>2024-06-30T06:34:18Z</time>
      </trkpt>
      <trkpt lat="42.74084" lon="1.80845">
        <ele>921</ele>
        <time>2024-06-30T06:34:19Z</time>
      </trkpt>
      <trkpt lat="42.74083" lon="1.80848">
        <ele>921.8</ele>
        <time>2024-06-30T06:34:20Z</time>
      </trkpt>
      <trkpt lat="42.74082" lon="1.80851">
        <ele>922</ele>
        <time>2024-06-30T06:34:21Z</time>
      </trkpt>
      <trkpt lat="42.7408" lon="1.80854">
        <ele>922.4</ele>
        <time>2024-06-30T06:34:22Z</time>
      </trkpt>
      <trkpt lat="42.74079" lon="1.80857">
        <ele>922.6</ele>
        <time>2024-06-30T06:34:23Z</time>
      </trkpt>
      <trkpt lat="42.74078" lon="1.80859">
        <ele>923.2</ele>
        <time>2024-06-30T06:34:24Z</time>
      </trkpt>
      <trkpt lat="42.74077" lon="1.80863">
        <ele>923.2</ele>
        <time>2024-06-30T06:34:25Z</time>
      </trkpt>
      <trkpt lat="42.74076" lon="1.80866">
        <ele>923.6</ele>
        <time>2024-06-30T06:34:26Z</time>
      </trkpt>
      <trkpt lat="42.74076" lon="1.8087">
        <ele>923.6</ele>
        <time>2024-06-30T06:34:27Z</time>
      </trkpt>
      <trkpt lat="42.74075" lon="1.80873">
        <ele>924</ele>
        <time>2024-06-30T06:34:28Z</time>
      </trkpt>
      <trkpt lat="42.74074" lon="1.80877">
        <ele>924.4</ele>
        <time>2024-06-30T06:34:29Z</time>
      </trkpt>
      <trkpt lat="42.74074" lon="1.8088">
        <ele>924.4</ele>
        <time>2024-06-30T06:34:30Z</time>
      </trkpt>
      <trkpt lat="42.74073" lon="1.80884">
        <ele>924.8</ele>
        <time>2024-06-30T06:34:31Z</time>
      </trkpt>
      <trkpt lat="42.74072" lon="1.80888">
        <ele>925.2</ele>
        <time>2024-06-30T06:34:32Z</time>
      </trkpt>
      <trkpt lat="42.74071" lon="1.80893">
        <ele>925.6</ele>
        <time>2024-06-30T06:34:33Z</time>
      </trkpt>
      <trkpt lat="42.7407" lon="1.80897">
        <ele>925.6</ele>
        <time>2024-06-30T06:34:34Z</time>
      </trkpt>
      <trkpt lat="42.74069" lon="1.80903">
        <ele>926</ele>
        <time>2024-06-30T06:34:35Z</time>
      </trkpt>
      <trkpt lat="42.74067" lon="1.80908">
        <ele>926.2</ele>
        <time>2024-06-30T06:34:36Z</time>
      </trkpt>
      <trkpt lat="42.74066" lon="1.80915">
        <ele>926.4</ele>
        <time>2024-06-30T06:34:37Z</time>
      </trkpt>
      <trkpt lat="42.74065" lon="1.80921">
        <ele>926.6</ele>
        <time>2024-06-30T06:34:38Z</time>
      </trkpt>
      <trkpt lat="42.74063" lon="1.80927">
        <ele>926.6</ele>
        <time>2024-06-30T06:34:39Z</time>
      </trkpt>
      <trkpt lat="42.74062" lon="1.80934">
        <ele>926.6</ele>
        <time>2024-06-30T06:34:40Z</time>
      </trkpt>
      <trkpt lat="42.7406" lon="1.80941">
        <ele>926.8</ele>
        <time>2024-06-30T06:34:41Z</time>
      </trkpt>
      <trkpt lat="42.74059" lon="1.80948">
        <ele>926.8</ele>
        <time>2024-06-30T06:34:42Z</time>
      </trkpt>
      <trkpt lat="42.74059" lon="1.80956">
        <ele>926.8</ele>
        <time>2024-06-30T06:34:43Z</time>
      </trkpt>
      <trkpt lat="42.74058" lon="1.80963">
        <ele>926.8</ele>
        <time>2024-06-30T06:34:44Z</time>
      </trkpt>
      <trkpt lat="42.74056" lon="1.8097">
        <ele>926.8</ele>
        <time>2024-06-30T06:34:45Z</time>
      </trkpt>
      <trkpt lat="42.74053" lon="1.80977">
        <ele>926.8</ele>
        <time>2024-06-30T06:34:46Z</time>
      </trkpt>
      <trkpt lat="42.74051" lon="1.80983">
        <ele>926.6</ele>
        <time>2024-06-30T06:34:47Z</time>
      </trkpt>
      <trkpt lat="42.74046" lon="1.80989">
        <ele>926.4</ele>
        <time>2024-06-30T06:34:48Z</time>
      </trkpt>
      <trkpt lat="42.7404" lon="1.80996">
        <ele>926.2</ele>
        <time>2024-06-30T06:34:49Z</time>
      </trkpt>
      <trkpt lat="42.74035" lon="1.81002">
        <ele>926.2</ele>
        <time>2024-06-30T06:34:50Z</time>
      </trkpt>
      <trkpt lat="42.7403" lon="1.81009">
        <ele>926</ele>
        <time>2024-06-30T06:34:51Z</time>
      </trkpt>
      <trkpt lat="42.74025" lon="1.81015">
        <ele>926</ele>
        <time>2024-06-30T06:34:52Z</time>
      </trkpt>
      <trkpt lat="42.74021" lon="1.81021">
        <ele>925.4</ele>
        <time>2024-06-30T06:34:53Z</time>
      </trkpt>
      <trkpt lat="42.74017" lon="1.81028">
        <ele>925</ele>
        <time>2024-06-30T06:34:54Z</time>
      </trkpt>
      <trkpt lat="42.74013" lon="1.81036">
        <ele>924.4</ele>
        <time>2024-06-30T06:34:55Z</time>
      </trkpt>
      <trkpt lat="42.74" lon="1.81065">
        <ele>922.6</ele>
        <time>2024-06-30T06:34:58Z</time>
      </trkpt>
      <trkpt lat="42.73996" lon="1.81074">
        <ele>922.2</ele>
        <time>2024-06-30T06:34:59Z</time>
      </trkpt>
      <trkpt lat="42.73989" lon="1.81092">
        <ele>921.6</ele>
        <time>2024-06-30T06:35:01Z</time>
      </trkpt>
      <trkpt lat="42.73985" lon="1.811">
        <ele>921.2</ele>
        <time>2024-06-30T06:35:02Z</time>
      </trkpt>
      <trkpt lat="42.73975" lon="1.81118">
        <ele>920.8</ele>
        <time>2024-06-30T06:35:05Z</time>
      </trkpt>
      <trkpt lat="42.7397" lon="1.81122">
        <ele>920.4</ele>
        <time>2024-06-30T06:35:06Z</time>
      </trkpt>
      <trkpt lat="42.73966" lon="1.81126">
        <ele>920.2</ele>
        <time>2024-06-30T06:35:07Z</time>
      </trkpt>
      <trkpt lat="42.73962" lon="1.8113">
        <ele>920</ele>
        <time>2024-06-30T06:35:08Z</time>
      </trkpt>
      <trkpt lat="42.73958" lon="1.81135">
        <ele>920</ele>
        <time>2024-06-30T06:35:09Z</time>
      </trkpt>
      <trkpt lat="42.73945" lon="1.8115">
        <ele>919.8</ele>
        <time>2024-06-30T06:35:12Z</time>
      </trkpt>
      <trkpt lat="42.73939" lon="1.8116">
        <ele>920</ele>
        <time>2024-06-30T06:35:14Z</time>
      </trkpt>
      <trkpt lat="42.73936" lon="1.81165">
        <ele>920</ele>
        <time>2024-06-30T06:35:15Z</time>
      </trkpt>
      <trkpt lat="42.73934" lon="1.8117">
        <ele>920</ele>
        <time>2024-06-30T06:35:16Z</time>
      </trkpt>
      <trkpt lat="42.73932" lon="1.81175">
        <ele>920.2</ele>
        <time>2024-06-30T06:35:17Z</time>
      </trkpt>
      <trkpt lat="42.73931" lon="1.8118">
        <ele>920.2</ele>
        <time>2024-06-30T06:35:18Z</time>
      </trkpt>
      <trkpt lat="42.73929" lon="1.8119">
        <ele>920.4</ele>
        <time>2024-06-30T06:35:20Z</time>
      </trkpt>
      <trkpt lat="42.7393" lon="1.81195">
        <ele>920.4</ele>
        <time>2024-06-30T06:35:21Z</time>
      </trkpt>
      <trkpt lat="42.7393" lon="1.812">
        <ele>920.6</ele>
        <time>2024-06-30T06:35:22Z</time>
      </trkpt>
      <trkpt lat="42.7393" lon="1.81205">
        <ele>921</ele>
        <time>2024-06-30T06:35:23Z</time>
      </trkpt>
      <trkpt lat="42.73928" lon="1.81208">
        <ele>921.2</ele>
        <time>2024-06-30T06:35:24Z</time>
      </trkpt>
      <trkpt lat="42.73927" lon="1.81211">
        <ele>921.4</ele>
        <time>2024-06-30T06:35:25Z</time>
      </trkpt>
      <trkpt lat="42.73925" lon="1.81213">
        <ele>921.6</ele>
        <time>2024-06-30T06:35:26Z</time>
      </trkpt>
      <trkpt lat="42.73923" lon="1.81216">
        <ele>922</ele>
        <time>2024-06-30T06:35:27Z</time>
      </trkpt>
      <trkpt lat="42.73922" lon="1.81219">
        <ele>922.2</ele>
        <time>2024-06-30T06:35:28Z</time>
      </trkpt>
      <trkpt lat="42.7392" lon="1.81221">
        <ele>922.6</ele>
        <time>2024-06-30T06:35:29Z</time>
      </trkpt>
      <trkpt lat="42.73915" lon="1.81226">
        <ele>923.4</ele>
        <time>2024-06-30T06:35:31Z</time>
      </trkpt>
      <trkpt lat="42.73914" lon="1.81228">
        <ele>923.8</ele>
        <time>2024-06-30T06:35:32Z</time>
      </trkpt>
      <trkpt lat="42.73913" lon="1.81231">
        <ele>924</ele>
        <time>2024-06-30T06:35:33Z</time>
      </trkpt>
      <trkpt lat="42.73911" lon="1.81235">
        <ele>924.6</ele>
        <time>2024-06-30T06:35:34Z</time>
      </trkpt>
      <trkpt lat="42.7391" lon="1.81239">
        <ele>924.8</ele>
        <time>2024-06-30T06:35:35Z</time>
      </trkpt>
      <trkpt lat="42.7391" lon="1.81244">
        <ele>925.4</ele>
        <time>2024-06-30T06:35:36Z</time>
      </trkpt>
      <trkpt lat="42.73909" lon="1.81248">
        <ele>925.8</ele>
        <time>2024-06-30T06:35:37Z</time>
      </trkpt>
      <trkpt lat="42.73909" lon="1.81253">
        <ele>926.4</ele>
        <time>2024-06-30T06:35:38Z</time>
      </trkpt>
      <trkpt lat="42.73909" lon="1.81258">
        <ele>926.8</ele>
        <time>2024-06-30T06:35:39Z</time>
      </trkpt>
      <trkpt lat="42.73908" lon="1.81262">
        <ele>927.8</ele>
        <time>2024-06-30T06:35:40Z</time>
      </trkpt>
      <trkpt lat="42.73908" lon="1.81266">
        <ele>928.2</ele>
        <time>2024-06-30T06:35:41Z</time>
      </trkpt>
      <trkpt lat="42.73907" lon="1.81269">
        <ele>928.4</ele>
        <time>2024-06-30T06:35:42Z</time>
      </trkpt>
      <trkpt lat="42.73907" lon="1.81272">
        <ele>928.6</ele>
        <time>2024-06-30T06:35:43Z</time>
      </trkpt>
      <trkpt lat="42.73905" lon="1.81276">
        <ele>928.8</ele>
        <time>2024-06-30T06:35:44Z</time>
      </trkpt>
      <trkpt lat="42.73904" lon="1.81279">
        <ele>929.2</ele>
        <time>2024-06-30T06:35:45Z</time>
      </trkpt>
      <trkpt lat="42.73903" lon="1.81283">
        <ele>929.4</ele>
        <time>2024-06-30T06:35:46Z</time>
      </trkpt>
      <trkpt lat="42.73903" lon="1.81286">
        <ele>929.6</ele>
        <time>2024-06-30T06:35:47Z</time>
      </trkpt>
      <trkpt lat="42.73903" lon="1.81289">
        <ele>929.8</ele>
        <time>2024-06-30T06:35:48Z</time>
      </trkpt>
      <trkpt lat="42.73902" lon="1.81293">
        <ele>930.2</ele>
        <time>2024-06-30T06:35:49Z</time>
      </trkpt>
      <trkpt lat="42.73899" lon="1.81297">
        <ele>930.6</ele>
        <time>2024-06-30T06:35:50Z</time>
      </trkpt>
      <trkpt lat="42.73897" lon="1.81303">
        <ele>931</ele>
        <time>2024-06-30T06:35:51Z</time>
      </trkpt>
      <trkpt lat="42.73894" lon="1.8131">
        <ele>931.4</ele>
        <time>2024-06-30T06:35:52Z</time>
      </trkpt>
      <trkpt lat="42.73894" lon="1.81314">
        <ele>931.6</ele>
        <time>2024-06-30T06:35:53Z</time>
      </trkpt>
      <trkpt lat="42.73892" lon="1.81318">
        <ele>932.2</ele>
        <time>2024-06-30T06:35:54Z</time>
      </trkpt>
      <trkpt lat="42.7389" lon="1.81321">
        <ele>932.4</ele>
        <time>2024-06-30T06:35:55Z</time>
      </trkpt>
      <trkpt lat="42.73888" lon="1.81323">
        <ele>933.2</ele>
        <time>2024-06-30T06:35:56Z</time>
      </trkpt>
      <trkpt lat="42.73886" lon="1.81326">
        <ele>933.4</ele>
        <time>2024-06-30T06:35:57Z</time>
      </trkpt>
      <trkpt lat="42.73884" lon="1.8133">
        <ele>934</ele>
        <time>2024-06-30T06:35:58Z</time>
      </trkpt>
      <trkpt lat="42.73882" lon="1.81334">
        <ele>934.2</ele>
        <time>2024-06-30T06:35:59Z</time>
      </trkpt>
      <trkpt lat="42.73879" lon="1.81339">
        <ele>934.6</ele>
        <time>2024-06-30T06:36:00Z</time>
      </trkpt>
      <trkpt lat="42.73877" lon="1.81344">
        <ele>935.2</ele>
        <time>2024-06-30T06:36:01Z</time>
      </trkpt>
      <trkpt lat="42.73875" lon="1.81349">
        <ele>935.4</ele>
        <time>2024-06-30T06:36:02Z</time>
      </trkpt>
      <trkpt lat="42.73875" lon="1.81353">
        <ele>935.8</ele>
        <time>2024-06-30T06:36:03Z</time>
      </trkpt>
      <trkpt lat="42.73875" lon="1.81357">
        <ele>936.2</ele>
        <time>2024-06-30T06:36:04Z</time>
      </trkpt>
      <trkpt lat="42.73875" lon="1.81363">
        <ele>936.6</ele>
        <time>2024-06-30T06:36:05Z</time>
      </trkpt>
      <trkpt lat="42.73875" lon="1.81369">
        <ele>936.6</ele>
        <time>2024-06-30T06:36:06Z</time>
      </trkpt>
      <trkpt lat="42.73874" lon="1.81375">
        <ele>937</ele>
        <time>2024-06-30T06:36:07Z</time>
      </trkpt>
      <trkpt lat="42.73874" lon="1.81381">
        <ele>937.2</ele>
        <time>2024-06-30T06:36:08Z</time>
      </trkpt>
      <trkpt lat="42.73873" lon="1.81386">
        <ele>937.2</ele>
        <time>2024-06-30T06:36:09Z</time>
      </trkpt>
      <trkpt lat="42.73873" lon="1.81393">
        <ele>937.4</ele>
        <time>2024-06-30T06:36:10Z</time>
      </trkpt>
      <trkpt lat="42.73872" lon="1.81398">
        <ele>937.6</ele>
        <time>2024-06-30T06:36:11Z</time>
      </trkpt>
      <trkpt lat="42.73871" lon="1.81403">
        <ele>937.6</ele>
        <time>2024-06-30T06:36:12Z</time>
      </trkpt>
      <trkpt lat="42.73871" lon="1.81408">
        <ele>937.8</ele>
        <time>2024-06-30T06:36:13Z</time>
      </trkpt>
      <trkpt lat="42.7387" lon="1.81412">
        <ele>937.8</ele>
        <time>2024-06-30T06:36:14Z</time>
      </trkpt>
      <trkpt lat="42.7387" lon="1.81416">
        <ele>938</ele>
        <time>2024-06-30T06:36:15Z</time>
      </trkpt>
      <trkpt lat="42.7387" lon="1.81419">
        <ele>938</ele>
        <time>2024-06-30T06:36:16Z</time>
      </trkpt>
      <trkpt lat="42.7387" lon="1.81421">
        <ele>938.2</ele>
        <time>2024-06-30T06:36:17Z</time>
      </trkpt>
      <trkpt lat="42.73869" lon="1.81423">
        <ele>938.2</ele>
        <time>2024-06-30T06:36:18Z</time>
      </trkpt>
      <trkpt lat="42.73868" lon="1.81426">
        <ele>938.4</ele>
        <time>2024-06-30T06:36:19Z</time>
      </trkpt>
      <trkpt lat="42.73867" lon="1.81428">
        <ele>938.4</ele>
        <time>2024-06-30T06:36:20Z</time>
      </trkpt>
      <trkpt lat="42.73866" lon="1.81431">
        <ele>938.6</ele>
        <time>2024-06-30T06:36:21Z</time>
      </trkpt>
      <trkpt lat="42.73865" lon="1.81434">
        <ele>938.6</ele>
        <time>2024-06-30T06:36:22Z</time>
      </trkpt>
      <trkpt lat="42.73864" lon="1.81437">
        <ele>938.8</ele>
        <time>2024-06-30T06:36:23Z</time>
      </trkpt>
      <trkpt lat="42.73864" lon="1.81439">
        <ele>938.8</ele>
        <time>2024-06-30T06:36:24Z</time>
      </trkpt>
      <trkpt lat="42.73864" lon="1.81442">
        <ele>939</ele>
        <time>2024-06-30T06:36:25Z</time>
      </trkpt>
      <trkpt lat="42.73864" lon="1.81444">
        <ele>939</ele>
        <time>2024-06-30T06:36:26Z</time>
      </trkpt>
      <trkpt lat="42.73863" lon="1.81447">
        <ele>939.2</ele>
        <time>2024-06-30T06:36:27Z</time>
      </trkpt>
      <trkpt lat="42.73862" lon="1.81451">
        <ele>939.2</ele>
        <time>2024-06-30T06:36:28Z</time>
      </trkpt>
      <trkpt lat="42.73861" lon="1.81455">
        <ele>939.4</ele>
        <time>2024-06-30T06:36:29Z</time>
      </trkpt>
      <trkpt lat="42.7386" lon="1.81458">
        <ele>939.4</ele>
        <time>2024-06-30T06:36:30Z</time>
      </trkpt>
      <trkpt lat="42.73859" lon="1.81459">
        <ele>939.4</ele>
        <time>2024-06-30T06:36:31Z</time>
      </trkpt>
      <trkpt lat="42.73859" lon="1.81461">
        <ele>939.6</ele>
        <time>2024-06-30T06:36:32Z</time>
      </trkpt>
      <trkpt lat="42.73857" lon="1.81464">
        <ele>939.6</ele>
        <time>2024-06-30T06:36:33Z</time>
      </trkpt>
      <trkpt lat="42.73855" lon="1.81466">
        <ele>939.6</ele>
        <time>2024-06-30T06:36:34Z</time>
      </trkpt>
      <trkpt lat="42.73852" lon="1.81469">
        <ele>939.6</ele>
        <time>2024-06-30T06:36:35Z</time>
      </trkpt>
      <trkpt lat="42.73848" lon="1.81476">
        <ele>939.4</ele>
        <time>2024-06-30T06:36:36Z</time>
      </trkpt>
      <trkpt lat="42.73843" lon="1.8148">
        <ele>939.2</ele>
        <time>2024-06-30T06:36:37Z</time>
      </trkpt>
      <trkpt lat="42.73839" lon="1.81485">
        <ele>939</ele>
        <time>2024-06-30T06:36:38Z</time>
      </trkpt>
      <trkpt lat="42.73837" lon="1.81491">
        <ele>938.4</ele>
        <time>2024-06-30T06:36:39Z</time>
      </trkpt>
      <trkpt lat="42.73833" lon="1.81497">
        <ele>938.2</ele>
        <time>2024-06-30T06:36:40Z</time>
      </trkpt>
      <trkpt lat="42.73828" lon="1.81503">
        <ele>937.8</ele>
        <time>2024-06-30T06:36:41Z</time>
      </trkpt>
      <trkpt lat="42.73824" lon="1.81509">
        <ele>937.4</ele>
        <time>2024-06-30T06:36:42Z</time>
      </trkpt>
      <trkpt lat="42.73817" lon="1.8152">
        <ele>936.8</ele>
        <time>2024-06-30T06:36:44Z</time>
      </trkpt>
      <trkpt lat="42.73814" lon="1.81527">
        <ele>936.4</ele>
        <time>2024-06-30T06:36:45Z</time>
      </trkpt>
      <trkpt lat="42.73813" lon="1.81534">
        <ele>936</ele>
        <time>2024-06-30T06:36:46Z</time>
      </trkpt>
      <trkpt lat="42.73812" lon="1.81545">
        <ele>935.8</ele>
        <time>2024-06-30T06:36:48Z</time>
      </trkpt>
      <trkpt lat="42.73811" lon="1.81552">
        <ele>935.8</ele>
        <time>2024-06-30T06:36:49Z</time>
      </trkpt>
      <trkpt lat="42.7381" lon="1.81557">
        <ele>935.6</ele>
        <time>2024-06-30T06:36:50Z</time>
      </trkpt>
      <trkpt lat="42.73806" lon="1.81569">
        <ele>935.6</ele>
        <time>2024-06-30T06:36:52Z</time>
      </trkpt>
      <trkpt lat="42.73803" lon="1.81573">
        <ele>935.8</ele>
        <time>2024-06-30T06:36:53Z</time>
      </trkpt>
      <trkpt lat="42.738" lon="1.81579">
        <ele>935.8</ele>
        <time>2024-06-30T06:36:54Z</time>
      </trkpt>
      <trkpt lat="42.73797" lon="1.81585">
        <ele>936</ele>
        <time>2024-06-30T06:36:55Z</time>
      </trkpt>
      <trkpt lat="42.73791" lon="1.816">
        <ele>936.2</ele>
        <time>2024-06-30T06:36:57Z</time>
      </trkpt>
      <trkpt lat="42.73789" lon="1.81608">
        <ele>936.2</ele>
        <time>2024-06-30T06:36:58Z</time>
      </trkpt>
      <trkpt lat="42.73787" lon="1.81615">
        <ele>936</ele>
        <time>2024-06-30T06:36:59Z</time>
      </trkpt>
      <trkpt lat="42.73783" lon="1.81632">
        <ele>935.4</ele>
        <time>2024-06-30T06:37:01Z</time>
      </trkpt>
      <trkpt lat="42.7378" lon="1.81637">
        <ele>935.4</ele>
        <time>2024-06-30T06:37:02Z</time>
      </trkpt>
      <trkpt lat="42.73778" lon="1.81645">
        <ele>935.2</ele>
        <time>2024-06-30T06:37:03Z</time>
      </trkpt>
      <trkpt lat="42.73776" lon="1.81652">
        <ele>935</ele>
        <time>2024-06-30T06:37:04Z</time>
      </trkpt>
      <trkpt lat="42.73773" lon="1.81674">
        <ele>934.8</ele>
        <time>2024-06-30T06:37:07Z</time>
      </trkpt>
      <trkpt lat="42.73771" lon="1.8168">
        <ele>934.4</ele>
        <time>2024-06-30T06:37:08Z</time>
      </trkpt>
      <trkpt lat="42.73768" lon="1.81685">
        <ele>934</ele>
        <time>2024-06-30T06:37:09Z</time>
      </trkpt>
      <trkpt lat="42.73764" lon="1.81691">
        <ele>933.8</ele>
        <time>2024-06-30T06:37:10Z</time>
      </trkpt>
      <trkpt lat="42.73764" lon="1.81698">
        <ele>933.6</ele>
        <time>2024-06-30T06:37:11Z</time>
      </trkpt>
      <trkpt lat="42.73764" lon="1.81705">
        <ele>933.4</ele>
        <time>2024-06-30T06:37:12Z</time>
      </trkpt>
      <trkpt lat="42.73763" lon="1.81714">
        <ele>933.4</ele>
        <time>2024-06-30T06:37:13Z</time>
      </trkpt>
      <trkpt lat="42.73762" lon="1.81719">
        <ele>933.2</ele>
        <time>2024-06-30T06:37:14Z</time>
      </trkpt>
      <trkpt lat="42.73762" lon="1.81729">
        <ele>932.8</ele>
        <time>2024-06-30T06:37:16Z</time>
      </trkpt>
      <trkpt lat="42.73761" lon="1.81736">
        <ele>932.8</ele>
        <time>2024-06-30T06:37:17Z</time>
      </trkpt>
      <trkpt lat="42.73761" lon="1.81741">
        <ele>932.8</ele>
        <time>2024-06-30T06:37:18Z</time>
      </trkpt>
      <trkpt lat="42.73761" lon="1.81746">
        <ele>932.6</ele>
        <time>2024-06-30T06:37:20Z</time>
      </trkpt>
      <trkpt lat="42.73759" lon="1.81751">
        <ele>932.4</ele>
        <time>2024-06-30T06:37:21Z</time>
      </trkpt>
      <trkpt lat="42.73758" lon="1.81757">
        <ele>932.2</ele>
        <time>2024-06-30T06:37:22Z</time>
      </trkpt>
      <trkpt lat="42.73757" lon="1.81762">
        <ele>932.2</ele>
        <time>2024-06-30T06:37:23Z</time>
      </trkpt>
      <trkpt lat="42.73756" lon="1.81766">
        <ele>932.2</ele>
        <time>2024-06-30T06:37:24Z</time>
      </trkpt>
      <trkpt lat="42.73754" lon="1.81771">
        <ele>932.2</ele>
        <time>2024-06-30T06:37:26Z</time>
      </trkpt>
      <trkpt lat="42.73752" lon="1.81773">
        <ele>932.2</ele>
        <time>2024-06-30T06:37:27Z</time>
      </trkpt>
      <trkpt lat="42.73752" lon="1.81774">
        <ele>932.2</ele>
        <time>2024-06-30T06:37:28Z</time>
      </trkpt>
      <trkpt lat="42.73751" lon="1.81775">
        <ele>932.2</ele>
        <time>2024-06-30T06:37:29Z</time>
      </trkpt>
      <trkpt lat="42.7375" lon="1.81776">
        <ele>932.2</ele>
        <time>2024-06-30T06:37:30Z</time>
      </trkpt>
      <trkpt lat="42.73751" lon="1.81782">
        <ele>932.2</ele>
        <time>2024-06-30T06:37:31Z</time>
      </trkpt>
      <trkpt lat="42.7375" lon="1.81785">
        <ele>932.6</ele>
        <time>2024-06-30T06:37:34Z</time>
      </trkpt>
      <trkpt lat="42.73749" lon="1.8179">
        <ele>932.8</ele>
        <time>2024-06-30T06:37:36Z</time>
      </trkpt>
      <trkpt lat="42.73745" lon="1.81801">
        <ele>933.8</ele>
        <time>2024-06-30T06:37:40Z</time>
      </trkpt>
      <trkpt lat="42.73744" lon="1.81808">
        <ele>934.6</ele>
        <time>2024-06-30T06:37:43Z</time>
      </trkpt>
      <trkpt lat="42.73744" lon="1.8181">
        <ele>935</ele>
        <time>2024-06-30T06:37:44Z</time>
      </trkpt>
      <trkpt lat="42.73742" lon="1.81814">
        <ele>935.6</ele>
        <time>2024-06-30T06:37:46Z</time>
      </trkpt>
      <trkpt lat="42.73736" lon="1.81818">
        <ele>936</ele>
        <time>2024-06-30T06:37:49Z</time>
      </trkpt>
      <trkpt lat="42.73735" lon="1.81819">
        <ele>936.2</ele>
        <time>2024-06-30T06:37:50Z</time>
      </trkpt>
      <trkpt lat="42.73733" lon="1.81821">
        <ele>936.6</ele>
        <time>2024-06-30T06:37:51Z</time>
      </trkpt>
      <trkpt lat="42.73731" lon="1.81822">
        <ele>936.6</ele>
        <time>2024-06-30T06:37:52Z</time>
      </trkpt>
      <trkpt lat="42.73729" lon="1.81822">
        <ele>936.8</ele>
        <time>2024-06-30T06:37:53Z</time>
      </trkpt>
      <trkpt lat="42.73727" lon="1.81823">
        <ele>937.2</ele>
        <time>2024-06-30T06:37:54Z</time>
      </trkpt>
      <trkpt lat="42.73725" lon="1.81825">
        <ele>937.4</ele>
        <time>2024-06-30T06:37:55Z</time>
      </trkpt>
      <trkpt lat="42.73725" lon="1.81827">
        <ele>937.6</ele>
        <time>2024-06-30T06:37:56Z</time>
      </trkpt>
      <trkpt lat="42.73723" lon="1.81829">
        <ele>937.8</ele>
        <time>2024-06-30T06:37:57Z</time>
      </trkpt>
      <trkpt lat="42.7372" lon="1.81831">
        <ele>938.2</ele>
        <time>2024-06-30T06:37:58Z</time>
      </trkpt>
      <trkpt lat="42.73716" lon="1.81835">
        <ele>938.4</ele>
        <time>2024-06-30T06:37:59Z</time>
      </trkpt>
      <trkpt lat="42.73711" lon="1.81839">
        <ele>938.6</ele>
        <time>2024-06-30T06:38:00Z</time>
      </trkpt>
      <trkpt lat="42.73707" lon="1.81844">
        <ele>938.8</ele>
        <time>2024-06-30T06:38:01Z</time>
      </trkpt>
      <trkpt lat="42.73704" lon="1.81847">
        <ele>939.2</ele>
        <time>2024-06-30T06:38:02Z</time>
      </trkpt>
      <trkpt lat="42.73702" lon="1.81848">
        <ele>939.8</ele>
        <time>2024-06-30T06:38:03Z</time>
      </trkpt>
      <trkpt lat="42.73701" lon="1.81852">
        <ele>940</ele>
        <time>2024-06-30T06:38:04Z</time>
      </trkpt>
      <trkpt lat="42.73699" lon="1.81854">
        <ele>940.4</ele>
        <time>2024-06-30T06:38:05Z</time>
      </trkpt>
      <trkpt lat="42.73698" lon="1.81856">
        <ele>940.4</ele>
        <time>2024-06-30T06:38:06Z</time>
      </trkpt>
      <trkpt lat="42.73696" lon="1.81857">
        <ele>940.6</ele>
        <time>2024-06-30T06:38:07Z</time>
      </trkpt>
      <trkpt lat="42.73694" lon="1.81858">
        <ele>940.6</ele>
        <time>2024-06-30T06:38:08Z</time>
      </trkpt>
      <trkpt lat="42.73691" lon="1.8186">
        <ele>940.8</ele>
        <time>2024-06-30T06:38:09Z</time>
      </trkpt>
      <trkpt lat="42.73689" lon="1.81861">
        <ele>941</ele>
        <time>2024-06-30T06:38:10Z</time>
      </trkpt>
      <trkpt lat="42.73687" lon="1.81863">
        <ele>941</ele>
        <time>2024-06-30T06:38:11Z</time>
      </trkpt>
      <trkpt lat="42.73686" lon="1.81865">
        <ele>941.4</ele>
        <time>2024-06-30T06:38:12Z</time>
      </trkpt>
      <trkpt lat="42.73684" lon="1.81867">
        <ele>941.4</ele>
        <time>2024-06-30T06:38:13Z</time>
      </trkpt>
      <trkpt lat="42.73683" lon="1.81869">
        <ele>941.6</ele>
        <time>2024-06-30T06:38:14Z</time>
      </trkpt>
      <trkpt lat="42.73682" lon="1.81871">
        <ele>941.6</ele>
        <time>2024-06-30T06:38:15Z</time>
      </trkpt>
      <trkpt lat="42.73681" lon="1.81873">
        <ele>941.8</ele>
        <time>2024-06-30T06:38:16Z</time>
      </trkpt>
      <trkpt lat="42.7368" lon="1.81875">
        <ele>942</ele>
        <time>2024-06-30T06:38:17Z</time>
      </trkpt>
      <trkpt lat="42.73679" lon="1.81876">
        <ele>942.2</ele>
        <time>2024-06-30T06:38:18Z</time>
      </trkpt>
      <trkpt lat="42.73678" lon="1.81877">
        <ele>942.2</ele>
        <time>2024-06-30T06:38:19Z</time>
      </trkpt>
      <trkpt lat="42.73677" lon="1.81878">
        <ele>942.4</ele>
        <time>2024-06-30T06:38:20Z</time>
      </trkpt>
      <trkpt lat="42.73676" lon="1.8188">
        <ele>942.4</ele>
        <time>2024-06-30T06:38:21Z</time>
      </trkpt>
      <trkpt lat="42.73673" lon="1.81883">
        <ele>942.6</ele>
        <time>2024-06-30T06:38:22Z</time>
      </trkpt>
      <trkpt lat="42.73669" lon="1.81887">
        <ele>942.6</ele>
        <time>2024-06-30T06:38:23Z</time>
      </trkpt>
      <trkpt lat="42.73667" lon="1.8189">
        <ele>942.8</ele>
        <time>2024-06-30T06:38:24Z</time>
      </trkpt>
      <trkpt lat="42.73663" lon="1.81892">
        <ele>942.8</ele>
        <time>2024-06-30T06:38:25Z</time>
      </trkpt>
      <trkpt lat="42.73661" lon="1.81895">
        <ele>943</ele>
        <time>2024-06-30T06:38:26Z</time>
      </trkpt>
      <trkpt lat="42.73658" lon="1.81898">
        <ele>943</ele>
        <time>2024-06-30T06:38:27Z</time>
      </trkpt>
      <trkpt lat="42.73656" lon="1.819">
        <ele>943</ele>
        <time>2024-06-30T06:38:28Z</time>
      </trkpt>
      <trkpt lat="42.73654" lon="1.81903">
        <ele>943.2</ele>
        <time>2024-06-30T06:38:29Z</time>
      </trkpt>
      <trkpt lat="42.73651" lon="1.81906">
        <ele>943.2</ele>
        <time>2024-06-30T06:38:30Z</time>
      </trkpt>
      <trkpt lat="42.73649" lon="1.81908">
        <ele>943.2</ele>
        <time>2024-06-30T06:38:31Z</time>
      </trkpt>
      <trkpt lat="42.73647" lon="1.81911">
        <ele>943.2</ele>
        <time>2024-06-30T06:38:32Z</time>
      </trkpt>
      <trkpt lat="42.73645" lon="1.81915">
        <ele>943.2</ele>
        <time>2024-06-30T06:38:33Z</time>
      </trkpt>
      <trkpt lat="42.73643" lon="1.8192">
        <ele>943.2</ele>
        <time>2024-06-30T06:38:34Z</time>
      </trkpt>
      <trkpt lat="42.73642" lon="1.81924">
        <ele>943.4</ele>
        <time>2024-06-30T06:38:35Z</time>
      </trkpt>
      <trkpt lat="42.73641" lon="1.81929">
        <ele>943.4</ele>
        <time>2024-06-30T06:38:36Z</time>
      </trkpt>
      <trkpt lat="42.73639" lon="1.81933">
        <ele>943.6</ele>
        <time>2024-06-30T06:38:37Z</time>
      </trkpt>
      <trkpt lat="42.73639" lon="1.81939">
        <ele>944</ele>
        <time>2024-06-30T06:38:38Z</time>
      </trkpt>
      <trkpt lat="42.73638" lon="1.81944">
        <ele>944.4</ele>
        <time>2024-06-30T06:38:39Z</time>
      </trkpt>
      <trkpt lat="42.73637" lon="1.81948">
        <ele>944.6</ele>
        <time>2024-06-30T06:38:40Z</time>
      </trkpt>
      <trkpt lat="42.73636" lon="1.81953">
        <ele>945</ele>
        <time>2024-06-30T06:38:41Z</time>
      </trkpt>
      <trkpt lat="42.73635" lon="1.81959">
        <ele>944.8</ele>
        <time>2024-06-30T06:38:42Z</time>
      </trkpt>
      <trkpt lat="42.73634" lon="1.81965">
        <ele>945.6</ele>
        <time>2024-06-30T06:38:43Z</time>
      </trkpt>
      <trkpt lat="42.73632" lon="1.81971">
        <ele>945.8</ele>
        <time>2024-06-30T06:38:44Z</time>
      </trkpt>
      <trkpt lat="42.73631" lon="1.81977">
        <ele>946</ele>
        <time>2024-06-30T06:38:45Z</time>
      </trkpt>
      <trkpt lat="42.73629" lon="1.81984">
        <ele>946.4</ele>
        <time>2024-06-30T06:38:46Z</time>
      </trkpt>
      <trkpt lat="42.73627" lon="1.8199">
        <ele>946.6</ele>
        <time>2024-06-30T06:38:47Z</time>
      </trkpt>
      <trkpt lat="42.73625" lon="1.81997">
        <ele>946.8</ele>
        <time>2024-06-30T06:38:48Z</time>
      </trkpt>
      <trkpt lat="42.73623" lon="1.82003">
        <ele>947</ele>
        <time>2024-06-30T06:38:49Z</time>
      </trkpt>
      <trkpt lat="42.7362" lon="1.82011">
        <ele>947</ele>
        <time>2024-06-30T06:38:50Z</time>
      </trkpt>
      <trkpt lat="42.73618" lon="1.82018">
        <ele>947</ele>
        <time>2024-06-30T06:38:51Z</time>
      </trkpt>
      <trkpt lat="42.73615" lon="1.82025">
        <ele>947</ele>
        <time>2024-06-30T06:38:52Z</time>
      </trkpt>
      <trkpt lat="42.73613" lon="1.82032">
        <ele>947</ele>
        <time>2024-06-30T06:38:53Z</time>
      </trkpt>
      <trkpt lat="42.73612" lon="1.8204">
        <ele>946.8</ele>
        <time>2024-06-30T06:38:54Z</time>
      </trkpt>
      <trkpt lat="42.73611" lon="1.82047">
        <ele>946.6</ele>
        <time>2024-06-30T06:38:55Z</time>
      </trkpt>
      <trkpt lat="42.7361" lon="1.82053">
        <ele>946.4</ele>
        <time>2024-06-30T06:38:56Z</time>
      </trkpt>
      <trkpt lat="42.7361" lon="1.82058">
        <ele>946.2</ele>
        <time>2024-06-30T06:38:57Z</time>
      </trkpt>
      <trkpt lat="42.73608" lon="1.82062">
        <ele>946.2</ele>
        <time>2024-06-30T06:38:58Z</time>
      </trkpt>
      <trkpt lat="42.73605" lon="1.82067">
        <ele>946</ele>
        <time>2024-06-30T06:38:59Z</time>
      </trkpt>
      <trkpt lat="42.73603" lon="1.82072">
        <ele>946</ele>
        <time>2024-06-30T06:39:00Z</time>
      </trkpt>
      <trkpt lat="42.736" lon="1.82076">
        <ele>945.6</ele>
        <time>2024-06-30T06:39:01Z</time>
      </trkpt>
      <trkpt lat="42.73597" lon="1.8208">
        <ele>945.4</ele>
        <time>2024-06-30T06:39:02Z</time>
      </trkpt>
      <trkpt lat="42.73596" lon="1.82085">
        <ele>945.2</ele>
        <time>2024-06-30T06:39:03Z</time>
      </trkpt>
      <trkpt lat="42.73595" lon="1.82089">
        <ele>945</ele>
        <time>2024-06-30T06:39:04Z</time>
      </trkpt>
      <trkpt lat="42.73594" lon="1.82091">
        <ele>944.8</ele>
        <time>2024-06-30T06:39:05Z</time>
      </trkpt>
      <trkpt lat="42.73592" lon="1.82092">
        <ele>944.8</ele>
        <time>2024-06-30T06:39:06Z</time>
      </trkpt>
      <trkpt lat="42.73591" lon="1.82091">
        <ele>944.8</ele>
        <time>2024-06-30T06:39:07Z</time>
      </trkpt>
      <trkpt lat="42.7359" lon="1.82089">
        <ele>944</ele>
        <time>2024-06-30T06:39:08Z</time>
      </trkpt>
      <trkpt lat="42.73587" lon="1.82088">
        <ele>943.6</ele>
        <time>2024-06-30T06:39:09Z</time>
      </trkpt>
      <trkpt lat="42.73585" lon="1.82089">
        <ele>942.8</ele>
        <time>2024-06-30T06:39:10Z</time>
      </trkpt>
      <trkpt lat="42.73583" lon="1.82091">
        <ele>942.2</ele>
        <time>2024-06-30T06:39:11Z</time>
      </trkpt>
      <trkpt lat="42.7358" lon="1.82095">
        <ele>941.4</ele>
        <time>2024-06-30T06:39:12Z</time>
      </trkpt>
      <trkpt lat="42.73574" lon="1.82111">
        <ele>939.8</ele>
        <time>2024-06-30T06:39:15Z</time>
      </trkpt>
      <trkpt lat="42.73571" lon="1.82118">
        <ele>938.8</ele>
        <time>2024-06-30T06:39:16Z</time>
      </trkpt>
      <trkpt lat="42.73567" lon="1.82127">
        <ele>937.8</ele>
        <time>2024-06-30T06:39:17Z</time>
      </trkpt>
      <trkpt lat="42.73564" lon="1.82134">
        <ele>937.4</ele>
        <time>2024-06-30T06:39:18Z</time>
      </trkpt>
      <trkpt lat="42.73559" lon="1.82147">
        <ele>936.4</ele>
        <time>2024-06-30T06:39:20Z</time>
      </trkpt>
      <trkpt lat="42.73557" lon="1.82154">
        <ele>935.8</ele>
        <time>2024-06-30T06:39:21Z</time>
      </trkpt>
      <trkpt lat="42.73556" lon="1.82161">
        <ele>935.6</ele>
        <time>2024-06-30T06:39:22Z</time>
      </trkpt>
      <trkpt lat="42.73556" lon="1.82168">
        <ele>935</ele>
        <time>2024-06-30T06:39:23Z</time>
      </trkpt>
      <trkpt lat="42.73556" lon="1.82173">
        <ele>934.8</ele>
        <time>2024-06-30T06:39:24Z</time>
      </trkpt>
      <trkpt lat="42.73557" lon="1.82179">
        <ele>934.8</ele>
        <time>2024-06-30T06:39:25Z</time>
      </trkpt>
      <trkpt lat="42.73557" lon="1.82185">
        <ele>934.4</ele>
        <time>2024-06-30T06:39:26Z</time>
      </trkpt>
      <trkpt lat="42.73557" lon="1.82193">
        <ele>934.2</ele>
        <time>2024-06-30T06:39:27Z</time>
      </trkpt>
      <trkpt lat="42.73557" lon="1.822">
        <ele>933.6</ele>
        <time>2024-06-30T06:39:28Z</time>
      </trkpt>
      <trkpt lat="42.73557" lon="1.82227">
        <ele>933.4</ele>
        <time>2024-06-30T06:39:32Z</time>
      </trkpt>
      <trkpt lat="42.73557" lon="1.82234">
        <ele>933.4</ele>
        <time>2024-06-30T06:39:33Z</time>
      </trkpt>
      <trkpt lat="42.73556" lon="1.82241">
        <ele>933.4</ele>
        <time>2024-06-30T06:39:34Z</time>
      </trkpt>
      <trkpt lat="42.73557" lon="1.82248">
        <ele>933.8</ele>
        <time>2024-06-30T06:39:35Z</time>
      </trkpt>
      <trkpt lat="42.73557" lon="1.82254">
        <ele>933.8</ele>
        <time>2024-06-30T06:39:36Z</time>
      </trkpt>
      <trkpt lat="42.73558" lon="1.82261">
        <ele>933.8</ele>
        <time>2024-06-30T06:39:37Z</time>
      </trkpt>
      <trkpt lat="42.73563" lon="1.8227">
        <ele>933.8</ele>
        <time>2024-06-30T06:39:38Z</time>
      </trkpt>
      <trkpt lat="42.73563" lon="1.82276">
        <ele>934</ele>
        <time>2024-06-30T06:39:39Z</time>
      </trkpt>
      <trkpt lat="42.73562" lon="1.82282">
        <ele>934</ele>
        <time>2024-06-30T06:39:40Z</time>
      </trkpt>
      <trkpt lat="42.73564" lon="1.82289">
        <ele>934.2</ele>
        <time>2024-06-30T06:39:41Z</time>
      </trkpt>
      <trkpt lat="42.73566" lon="1.82296">
        <ele>934.2</ele>
        <time>2024-06-30T06:39:42Z</time>
      </trkpt>
      <trkpt lat="42.73564" lon="1.823">
        <ele>934.2</ele>
        <time>2024-06-30T06:39:43Z</time>
      </trkpt>
      <trkpt lat="42.73564" lon="1.82305">
        <ele>934.4</ele>
        <time>2024-06-30T06:39:44Z</time>
      </trkpt>
      <trkpt lat="42.73564" lon="1.82314">
        <ele>934.4</ele>
        <time>2024-06-30T06:39:45Z</time>
      </trkpt>
      <trkpt lat="42.73563" lon="1.82321">
        <ele>934.6</ele>
        <time>2024-06-30T06:39:46Z</time>
      </trkpt>
      <trkpt lat="42.7356" lon="1.82333">
        <ele>934.8</ele>
        <time>2024-06-30T06:39:48Z</time>
      </trkpt>
      <trkpt lat="42.73557" lon="1.82346">
        <ele>935</ele>
        <time>2024-06-30T06:39:50Z</time>
      </trkpt>
      <trkpt lat="42.73556" lon="1.82352">
        <ele>935.2</ele>
        <time>2024-06-30T06:39:51Z</time>
      </trkpt>
      <trkpt lat="42.73557" lon="1.82358">
        <ele>935.2</ele>
        <time>2024-06-30T06:39:52Z</time>
      </trkpt>
      <trkpt lat="42.7356" lon="1.82363">
        <ele>935.4</ele>
        <time>2024-06-30T06:39:53Z</time>
      </trkpt>
      <trkpt lat="42.73562" lon="1.82366">
        <ele>935.4</ele>
        <time>2024-06-30T06:39:54Z</time>
      </trkpt>
      <trkpt lat="42.73565" lon="1.8237">
        <ele>935.4</ele>
        <time>2024-06-30T06:39:55Z</time>
      </trkpt>
      <trkpt lat="42.73564" lon="1.82372">
        <ele>935.4</ele>
        <time>2024-06-30T06:39:56Z</time>
      </trkpt>
      <trkpt lat="42.73565" lon="1.82377">
        <ele>935.4</ele>
        <time>2024-06-30T06:39:57Z</time>
      </trkpt>
      <trkpt lat="42.73567" lon="1.82381">
        <ele>935.6</ele>
        <time>2024-06-30T06:39:58Z</time>
      </trkpt>
      <trkpt lat="42.73567" lon="1.82385">
        <ele>935.6</ele>
        <time>2024-06-30T06:39:59Z</time>
      </trkpt>
      <trkpt lat="42.73568" lon="1.8239">
        <ele>935.8</ele>
        <time>2024-06-30T06:40:00Z</time>
      </trkpt>
      <trkpt lat="42.73571" lon="1.82398">
        <ele>936</ele>
        <time>2024-06-30T06:40:01Z</time>
      </trkpt>
      <trkpt lat="42.73571" lon="1.82402">
        <ele>936.2</ele>
        <time>2024-06-30T06:40:02Z</time>
      </trkpt>
      <trkpt lat="42.73572" lon="1.82406">
        <ele>936.4</ele>
        <time>2024-06-30T06:40:03Z</time>
      </trkpt>
      <trkpt lat="42.73572" lon="1.82409">
        <ele>936.6</ele>
        <time>2024-06-30T06:40:04Z</time>
      </trkpt>
      <trkpt lat="42.73573" lon="1.82414">
        <ele>936.8</ele>
        <time>2024-06-30T06:40:05Z</time>
      </trkpt>
      <trkpt lat="42.73575" lon="1.8242">
        <ele>937</ele>
        <time>2024-06-30T06:40:06Z</time>
      </trkpt>
      <trkpt lat="42.73575" lon="1.82424">
        <ele>937.2</ele>
        <time>2024-06-30T06:40:07Z</time>
      </trkpt>
      <trkpt lat="42.73576" lon="1.82431">
        <ele>938</ele>
        <time>2024-06-30T06:40:08Z</time>
      </trkpt>
      <trkpt lat="42.73578" lon="1.8244">
        <ele>938.8</ele>
        <time>2024-06-30T06:40:10Z</time>
      </trkpt>
      <trkpt lat="42.73579" lon="1.82443">
        <ele>939</ele>
        <time>2024-06-30T06:40:11Z</time>
      </trkpt>
      <trkpt lat="42.73581" lon="1.82448">
        <ele>939.2</ele>
        <time>2024-06-30T06:40:12Z</time>
      </trkpt>
      <trkpt lat="42.73582" lon="1.82452">
        <ele>939.6</ele>
        <time>2024-06-30T06:40:13Z</time>
      </trkpt>
      <trkpt lat="42.73582" lon="1.82457">
        <ele>939.8</ele>
        <time>2024-06-30T06:40:14Z</time>
      </trkpt>
      <trkpt lat="42.73581" lon="1.82462">
        <ele>940.2</ele>
        <time>2024-06-30T06:40:15Z</time>
      </trkpt>
      <trkpt lat="42.73579" lon="1.82467">
        <ele>940.4</ele>
        <time>2024-06-30T06:40:16Z</time>
      </trkpt>
      <trkpt lat="42.73579" lon="1.8247">
        <ele>940.8</ele>
        <time>2024-06-30T06:40:17Z</time>
      </trkpt>
      <trkpt lat="42.73579" lon="1.82473">
        <ele>941.4</ele>
        <time>2024-06-30T06:40:18Z</time>
      </trkpt>
      <trkpt lat="42.7358" lon="1.82475">
        <ele>941.4</ele>
        <time>2024-06-30T06:40:19Z</time>
      </trkpt>
      <trkpt lat="42.73581" lon="1.82478">
        <ele>942</ele>
        <time>2024-06-30T06:40:20Z</time>
      </trkpt>
      <trkpt lat="42.73583" lon="1.8248">
        <ele>942.4</ele>
        <time>2024-06-30T06:40:21Z</time>
      </trkpt>
      <trkpt lat="42.73584" lon="1.82481">
        <ele>942.8</ele>
        <time>2024-06-30T06:40:22Z</time>
      </trkpt>
      <trkpt lat="42.73586" lon="1.82483">
        <ele>943</ele>
        <time>2024-06-30T06:40:23Z</time>
      </trkpt>
      <trkpt lat="42.73587" lon="1.82485">
        <ele>943.6</ele>
        <time>2024-06-30T06:40:24Z</time>
      </trkpt>
      <trkpt lat="42.73589" lon="1.82487">
        <ele>943.8</ele>
        <time>2024-06-30T06:40:25Z</time>
      </trkpt>
      <trkpt lat="42.73589" lon="1.82489">
        <ele>944.4</ele>
        <time>2024-06-30T06:40:26Z</time>
      </trkpt>
      <trkpt lat="42.7359" lon="1.8249">
        <ele>945.2</ele>
        <time>2024-06-30T06:40:27Z</time>
      </trkpt>
      <trkpt lat="42.73591" lon="1.82492">
        <ele>945.4</ele>
        <time>2024-06-30T06:40:28Z</time>
      </trkpt>
      <trkpt lat="42.73594" lon="1.82494">
        <ele>946</ele>
        <time>2024-06-30T06:40:29Z</time>
      </trkpt>
      <trkpt lat="42.73596" lon="1.82495">
        <ele>946.4</ele>
        <time>2024-06-30T06:40:30Z</time>
      </trkpt>
      <trkpt lat="42.73597" lon="1.82498">
        <ele>947</ele>
        <time>2024-06-30T06:40:31Z</time>
      </trkpt>
      <trkpt lat="42.73598" lon="1.825">
        <ele>947.4</ele>
        <time>2024-06-30T06:40:32Z</time>
      </trkpt>
      <trkpt lat="42.73599" lon="1.82502">
        <ele>948.2</ele>
        <time>2024-06-30T06:40:33Z</time>
      </trkpt>
      <trkpt lat="42.73599" lon="1.82504">
        <ele>948.6</ele>
        <time>2024-06-30T06:40:34Z</time>
      </trkpt>
      <trkpt lat="42.73599" lon="1.82507">
        <ele>949</ele>
        <time>2024-06-30T06:40:35Z</time>
      </trkpt>
      <trkpt lat="42.736" lon="1.82509">
        <ele>949.6</ele>
        <time>2024-06-30T06:40:36Z</time>
      </trkpt>
      <trkpt lat="42.73601" lon="1.82511">
        <ele>949.8</ele>
        <time>2024-06-30T06:40:37Z</time>
      </trkpt>
      <trkpt lat="42.73602" lon="1.82513">
        <ele>950.4</ele>
        <time>2024-06-30T06:40:38Z</time>
      </trkpt>
      <trkpt lat="42.73603" lon="1.82515">
        <ele>950.8</ele>
        <time>2024-06-30T06:40:39Z</time>
      </trkpt>
      <trkpt lat="42.73603" lon="1.82518">
        <ele>951.6</ele>
        <time>2024-06-30T06:40:40Z</time>
      </trkpt>
      <trkpt lat="42.73605" lon="1.82521">
        <ele>952</ele>
        <time>2024-06-30T06:40:41Z</time>
      </trkpt>
      <trkpt lat="42.73606" lon="1.82523">
        <ele>952.4</ele>
        <time>2024-06-30T06:40:42Z</time>
      </trkpt>
      <trkpt lat="42.73607" lon="1.82529">
        <ele>952.6</ele>
        <time>2024-06-30T06:40:43Z</time>
      </trkpt>
      <trkpt lat="42.73608" lon="1.82533">
        <ele>953</ele>
        <time>2024-06-30T06:40:44Z</time>
      </trkpt>
      <trkpt lat="42.73609" lon="1.82536">
        <ele>953.2</ele>
        <time>2024-06-30T06:40:45Z</time>
      </trkpt>
      <trkpt lat="42.73609" lon="1.82539">
        <ele>953.2</ele>
        <time>2024-06-30T06:40:46Z</time>
      </trkpt>
      <trkpt lat="42.73609" lon="1.82544">
        <ele>953.2</ele>
        <time>2024-06-30T06:40:47Z</time>
      </trkpt>
      <trkpt lat="42.7361" lon="1.82547">
        <ele>953.2</ele>
        <time>2024-06-30T06:40:48Z</time>
      </trkpt>
      <trkpt lat="42.73611" lon="1.82551">
        <ele>953.2</ele>
        <time>2024-06-30T06:40:49Z</time>
      </trkpt>
      <trkpt lat="42.73614" lon="1.82555">
        <ele>953.2</ele>
        <time>2024-06-30T06:40:50Z</time>
      </trkpt>
      <trkpt lat="42.73616" lon="1.82559">
        <ele>952.8</ele>
        <time>2024-06-30T06:40:51Z</time>
      </trkpt>
      <trkpt lat="42.73616" lon="1.82564">
        <ele>952.8</ele>
        <time>2024-06-30T06:40:52Z</time>
      </trkpt>
      <trkpt lat="42.73617" lon="1.82567">
        <ele>951.8</ele>
        <time>2024-06-30T06:40:53Z</time>
      </trkpt>
      <trkpt lat="42.73619" lon="1.8257">
        <ele>951.2</ele>
        <time>2024-06-30T06:40:54Z</time>
      </trkpt>
      <trkpt lat="42.73622" lon="1.82576">
        <ele>950.6</ele>
        <time>2024-06-30T06:40:55Z</time>
      </trkpt>
      <trkpt lat="42.73625" lon="1.82583">
        <ele>949.6</ele>
        <time>2024-06-30T06:40:56Z</time>
      </trkpt>
      <trkpt lat="42.73629" lon="1.82591">
        <ele>949.2</ele>
        <time>2024-06-30T06:40:57Z</time>
      </trkpt>
      <trkpt lat="42.73632" lon="1.82598">
        <ele>948</ele>
        <time>2024-06-30T06:40:58Z</time>
      </trkpt>
      <trkpt lat="42.73635" lon="1.82602">
        <ele>947.4</ele>
        <time>2024-06-30T06:40:59Z</time>
      </trkpt>
      <trkpt lat="42.73638" lon="1.82607">
        <ele>946.4</ele>
        <time>2024-06-30T06:41:00Z</time>
      </trkpt>
      <trkpt lat="42.7364" lon="1.82611">
        <ele>946</ele>
        <time>2024-06-30T06:41:01Z</time>
      </trkpt>
      <trkpt lat="42.73642" lon="1.82617">
        <ele>945.2</ele>
        <time>2024-06-30T06:41:02Z</time>
      </trkpt>
      <trkpt lat="42.73643" lon="1.82622">
        <ele>944.4</ele>
        <time>2024-06-30T06:41:03Z</time>
      </trkpt>
      <trkpt lat="42.73647" lon="1.82626">
        <ele>943.8</ele>
        <time>2024-06-30T06:41:04Z</time>
      </trkpt>
      <trkpt lat="42.73649" lon="1.82629">
        <ele>943.2</ele>
        <time>2024-06-30T06:41:05Z</time>
      </trkpt>
      <trkpt lat="42.73652" lon="1.82631">
        <ele>942.8</ele>
        <time>2024-06-30T06:41:06Z</time>
      </trkpt>
      <trkpt lat="42.73654" lon="1.82634">
        <ele>942</ele>
        <time>2024-06-30T06:41:07Z</time>
      </trkpt>
      <trkpt lat="42.73666" lon="1.82642">
        <ele>941.4</ele>
        <time>2024-06-30T06:41:09Z</time>
      </trkpt>
      <trkpt lat="42.7367" lon="1.82646">
        <ele>941.4</ele>
        <time>2024-06-30T06:41:10Z</time>
      </trkpt>
      <trkpt lat="42.73671" lon="1.82649">
        <ele>941</ele>
        <time>2024-06-30T06:41:11Z</time>
      </trkpt>
      <trkpt lat="42.73675" lon="1.82653">
        <ele>940.8</ele>
        <time>2024-06-30T06:41:12Z</time>
      </trkpt>
      <trkpt lat="42.73676" lon="1.82657">
        <ele>940.6</ele>
        <time>2024-06-30T06:41:13Z</time>
      </trkpt>
      <trkpt lat="42.7368" lon="1.82659">
        <ele>940.4</ele>
        <time>2024-06-30T06:41:14Z</time>
      </trkpt>
      <trkpt lat="42.73684" lon="1.82662">
        <ele>940.2</ele>
        <time>2024-06-30T06:41:15Z</time>
      </trkpt>
      <trkpt lat="42.73688" lon="1.82665">
        <ele>940.2</ele>
        <time>2024-06-30T06:41:16Z</time>
      </trkpt>
      <trkpt lat="42.73691" lon="1.82667">
        <ele>940</ele>
        <time>2024-06-30T06:41:17Z</time>
      </trkpt>
      <trkpt lat="42.73695" lon="1.82668">
        <ele>939.6</ele>
        <time>2024-06-30T06:41:18Z</time>
      </trkpt>
      <trkpt lat="42.73699" lon="1.82668">
        <ele>939.8</ele>
        <time>2024-06-30T06:41:19Z</time>
      </trkpt>
      <trkpt lat="42.73703" lon="1.82668">
        <ele>939.4</ele>
        <time>2024-06-30T06:41:20Z</time>
      </trkpt>
      <trkpt lat="42.73707" lon="1.82668">
        <ele>939.2</ele>
        <time>2024-06-30T06:41:21Z</time>
      </trkpt>
      <trkpt lat="42.7371" lon="1.82668">
        <ele>938.6</ele>
        <time>2024-06-30T06:41:22Z</time>
      </trkpt>
      <trkpt lat="42.73713" lon="1.8267">
        <ele>938.2</ele>
        <time>2024-06-30T06:41:23Z</time>
      </trkpt>
      <trkpt lat="42.73716" lon="1.82673">
        <ele>938</ele>
        <time>2024-06-30T06:41:24Z</time>
      </trkpt>
      <trkpt lat="42.73721" lon="1.82678">
        <ele>936.6</ele>
        <time>2024-06-30T06:41:25Z</time>
      </trkpt>
      <trkpt lat="42.73726" lon="1.82683">
        <ele>936.2</ele>
        <time>2024-06-30T06:41:26Z</time>
      </trkpt>
      <trkpt lat="42.7373" lon="1.82687">
        <ele>935.6</ele>
        <time>2024-06-30T06:41:27Z</time>
      </trkpt>
      <trkpt lat="42.73733" lon="1.82692">
        <ele>934.8</ele>
        <time>2024-06-30T06:41:28Z</time>
      </trkpt>
      <trkpt lat="42.73735" lon="1.82699">
        <ele>933.6</ele>
        <time>2024-06-30T06:41:29Z</time>
      </trkpt>
      <trkpt lat="42.7374" lon="1.827">
        <ele>932.4</ele>
        <time>2024-06-30T06:41:30Z</time>
      </trkpt>
      <trkpt lat="42.73743" lon="1.82701">
        <ele>932</ele>
        <time>2024-06-30T06:41:31Z</time>
      </trkpt>
      <trkpt lat="42.73741" lon="1.82707">
        <ele>930</ele>
        <time>2024-06-30T06:41:32Z</time>
      </trkpt>
      <trkpt lat="42.73738" lon="1.82712">
        <ele>929.2</ele>
        <time>2024-06-30T06:41:33Z</time>
      </trkpt>
      <trkpt lat="42.73735" lon="1.82717">
        <ele>925.4</ele>
        <time>2024-06-30T06:43:18Z</time>
      </trkpt>
      <trkpt lat="42.73733" lon="1.82722">
        <ele>925.4</ele>
        <time>2024-06-30T06:43:19Z</time>
      </trkpt>
      <trkpt lat="42.7373" lon="1.82728">
        <ele>925.4</ele>
        <time>2024-06-30T06:43:20Z</time>
      </trkpt>
      <trkpt lat="42.73728" lon="1.82733">
        <ele>925.4</ele>
        <time>2024-06-30T06:43:21Z</time>
      </trkpt>
      <trkpt lat="42.73725" lon="1.82738">
        <ele>925.4</ele>
        <time>2024-06-30T06:43:22Z</time>
      </trkpt>
      <trkpt lat="42.73722" lon="1.82743">
        <ele>925.4</ele>
        <time>2024-06-30T06:43:24Z</time>
      </trkpt>
      <trkpt lat="42.7372" lon="1.82749">
        <ele>922.4</ele>
        <time>2024-06-30T06:44:33Z</time>
      </trkpt>
      <trkpt lat="42.73717" lon="1.82754">
        <ele>922.8</ele>
        <time>2024-06-30T06:44:34Z</time>
      </trkpt>
      <trkpt lat="42.73715" lon="1.82756">
        <ele>922.8</ele>
        <time>2024-06-30T06:44:35Z</time>
      </trkpt>
      <trkpt lat="42.73713" lon="1.82758">
        <ele>923</ele>
        <time>2024-06-30T06:44:36Z</time>
      </trkpt>
      <trkpt lat="42.7371" lon="1.8276">
        <ele>923.2</ele>
        <time>2024-06-30T06:44:37Z</time>
      </trkpt>
      <trkpt lat="42.73709" lon="1.82762">
        <ele>923.2</ele>
        <time>2024-06-30T06:44:38Z</time>
      </trkpt>
      <trkpt lat="42.73706" lon="1.82765">
        <ele>923.4</ele>
        <time>2024-06-30T06:44:39Z</time>
      </trkpt>
      <trkpt lat="42.73705" lon="1.82769">
        <ele>923.4</ele>
        <time>2024-06-30T06:44:40Z</time>
      </trkpt>
      <trkpt lat="42.73702" lon="1.82771">
        <ele>923.6</ele>
        <time>2024-06-30T06:44:41Z</time>
      </trkpt>
      <trkpt lat="42.73699" lon="1.82773">
        <ele>923.6</ele>
        <time>2024-06-30T06:44:42Z</time>
      </trkpt>
      <trkpt lat="42.73697" lon="1.82776">
        <ele>923.8</ele>
        <time>2024-06-30T06:44:43Z</time>
      </trkpt>
      <trkpt lat="42.73694" lon="1.82778">
        <ele>923.8</ele>
        <time>2024-06-30T06:44:44Z</time>
      </trkpt>
      <trkpt lat="42.7369" lon="1.8278">
        <ele>923.6</ele>
        <time>2024-06-30T06:44:45Z</time>
      </trkpt>
      <trkpt lat="42.73685" lon="1.82783">
        <ele>923.4</ele>
        <time>2024-06-30T06:44:46Z</time>
      </trkpt>
      <trkpt lat="42.73682" lon="1.82786">
        <ele>923.4</ele>
        <time>2024-06-30T06:44:47Z</time>
      </trkpt>
      <trkpt lat="42.73677" lon="1.82788">
        <ele>923.2</ele>
        <time>2024-06-30T06:44:48Z</time>
      </trkpt>
      <trkpt lat="42.73672" lon="1.82791">
        <ele>923.2</ele>
        <time>2024-06-30T06:44:49Z</time>
      </trkpt>
      <trkpt lat="42.73668" lon="1.82794">
        <ele>923.2</ele>
        <time>2024-06-30T06:44:50Z</time>
      </trkpt>
      <trkpt lat="42.73663" lon="1.82795">
        <ele>923</ele>
        <time>2024-06-30T06:44:51Z</time>
      </trkpt>
      <trkpt lat="42.73658" lon="1.82797">
        <ele>923</ele>
        <time>2024-06-30T06:44:52Z</time>
      </trkpt>
      <trkpt lat="42.73653" lon="1.828">
        <ele>922.8</ele>
        <time>2024-06-30T06:44:53Z</time>
      </trkpt>
      <trkpt lat="42.73634" lon="1.82808">
        <ele>922.6</ele>
        <time>2024-06-30T06:44:57Z</time>
      </trkpt>
      <trkpt lat="42.7363" lon="1.8281">
        <ele>922.6</ele>
        <time>2024-06-30T06:44:58Z</time>
      </trkpt>
      <trkpt lat="42.73626" lon="1.82813">
        <ele>922.8</ele>
        <time>2024-06-30T06:44:59Z</time>
      </trkpt>
      <trkpt lat="42.73623" lon="1.82815">
        <ele>923</ele>
        <time>2024-06-30T06:45:00Z</time>
      </trkpt>
      <trkpt lat="42.73621" lon="1.82815">
        <ele>923.4</ele>
        <time>2024-06-30T06:45:01Z</time>
      </trkpt>
      <trkpt lat="42.7362" lon="1.82816">
        <ele>923.8</ele>
        <time>2024-06-30T06:45:02Z</time>
      </trkpt>
      <trkpt lat="42.73618" lon="1.82816">
        <ele>924</ele>
        <time>2024-06-30T06:45:03Z</time>
      </trkpt>
      <trkpt lat="42.73603" lon="1.82822">
        <ele>924</ele>
        <time>2024-06-30T06:45:06Z</time>
      </trkpt>
      <trkpt lat="42.73594" lon="1.82823">
        <ele>923.8</ele>
        <time>2024-06-30T06:45:08Z</time>
      </trkpt>
      <trkpt lat="42.73592" lon="1.82823">
        <ele>923.8</ele>
        <time>2024-06-30T06:45:09Z</time>
      </trkpt>
      <trkpt lat="42.73584" lon="1.82819">
        <ele>923.6</ele>
        <time>2024-06-30T06:45:11Z</time>
      </trkpt>
      <trkpt lat="42.73581" lon="1.82817">
        <ele>923.4</ele>
        <time>2024-06-30T06:45:12Z</time>
      </trkpt>
      <trkpt lat="42.73578" lon="1.82816">
        <ele>923.4</ele>
        <time>2024-06-30T06:45:13Z</time>
      </trkpt>
      <trkpt lat="42.73575" lon="1.82814">
        <ele>923.4</ele>
        <time>2024-06-30T06:45:14Z</time>
      </trkpt>
      <trkpt lat="42.73573" lon="1.82811">
        <ele>923.6</ele>
        <time>2024-06-30T06:45:15Z</time>
      </trkpt>
      <trkpt lat="42.73571" lon="1.82807">
        <ele>924</ele>
        <time>2024-06-30T06:45:16Z</time>
      </trkpt>
      <trkpt lat="42.73569" lon="1.82804">
        <ele>924.4</ele>
        <time>2024-06-30T06:45:17Z</time>
      </trkpt>
      <trkpt lat="42.73563" lon="1.828">
        <ele>925.8</ele>
        <time>2024-06-30T06:45:19Z</time>
      </trkpt>
      <trkpt lat="42.73561" lon="1.82799">
        <ele>926.2</ele>
        <time>2024-06-30T06:45:20Z</time>
      </trkpt>
      <trkpt lat="42.73558" lon="1.82798">
        <ele>927</ele>
        <time>2024-06-30T06:45:21Z</time>
      </trkpt>
      <trkpt lat="42.73549" lon="1.82796">
        <ele>927.6</ele>
        <time>2024-06-30T06:45:23Z</time>
      </trkpt>
      <trkpt lat="42.73543" lon="1.82797">
        <ele>927.8</ele>
        <time>2024-06-30T06:45:24Z</time>
      </trkpt>
      <trkpt lat="42.73538" lon="1.82797">
        <ele>928</ele>
        <time>2024-06-30T06:45:25Z</time>
      </trkpt>
      <trkpt lat="42.73532" lon="1.828">
        <ele>928</ele>
        <time>2024-06-30T06:45:26Z</time>
      </trkpt>
      <trkpt lat="42.73528" lon="1.82804">
        <ele>928.2</ele>
        <time>2024-06-30T06:45:27Z</time>
      </trkpt>
      <trkpt lat="42.73524" lon="1.82807">
        <ele>928</ele>
        <time>2024-06-30T06:45:28Z</time>
      </trkpt>
      <trkpt lat="42.73522" lon="1.8281">
        <ele>928</ele>
        <time>2024-06-30T06:45:29Z</time>
      </trkpt>
      <trkpt lat="42.73521" lon="1.82812">
        <ele>927.8</ele>
        <time>2024-06-30T06:45:30Z</time>
      </trkpt>
      <trkpt lat="42.7352" lon="1.82815">
        <ele>927.8</ele>
        <time>2024-06-30T06:45:31Z</time>
      </trkpt>
      <trkpt lat="42.73517" lon="1.82818">
        <ele>927.6</ele>
        <time>2024-06-30T06:45:32Z</time>
      </trkpt>
      <trkpt lat="42.73515" lon="1.82821">
        <ele>927.6</ele>
        <time>2024-06-30T06:45:33Z</time>
      </trkpt>
      <trkpt lat="42.73512" lon="1.82825">
        <ele>927.6</ele>
        <time>2024-06-30T06:45:34Z</time>
      </trkpt>
      <trkpt lat="42.73509" lon="1.82828">
        <ele>927.8</ele>
        <time>2024-06-30T06:45:35Z</time>
      </trkpt>
      <trkpt lat="42.73505" lon="1.82832">
        <ele>927.8</ele>
        <time>2024-06-30T06:45:36Z</time>
      </trkpt>
      <trkpt lat="42.73502" lon="1.82835">
        <ele>928</ele>
        <time>2024-06-30T06:45:37Z</time>
      </trkpt>
      <trkpt lat="42.735" lon="1.82839">
        <ele>928</ele>
        <time>2024-06-30T06:45:38Z</time>
      </trkpt>
      <trkpt lat="42.73498" lon="1.82842">
        <ele>927.6</ele>
        <time>2024-06-30T06:45:39Z</time>
      </trkpt>
      <trkpt lat="42.73494" lon="1.82847">
        <ele>928</ele>
        <time>2024-06-30T06:45:40Z</time>
      </trkpt>
      <trkpt lat="42.73491" lon="1.82853">
        <ele>928</ele>
        <time>2024-06-30T06:45:41Z</time>
      </trkpt>
      <trkpt lat="42.73488" lon="1.82857">
        <ele>928</ele>
        <time>2024-06-30T06:45:42Z</time>
      </trkpt>
      <trkpt lat="42.73486" lon="1.8286">
        <ele>928</ele>
        <time>2024-06-30T06:45:43Z</time>
      </trkpt>
      <trkpt lat="42.73482" lon="1.82864">
        <ele>928.2</ele>
        <time>2024-06-30T06:45:44Z</time>
      </trkpt>
      <trkpt lat="42.7348" lon="1.82867">
        <ele>928.2</ele>
        <time>2024-06-30T06:45:45Z</time>
      </trkpt>
      <trkpt lat="42.73478" lon="1.8287">
        <ele>928.2</ele>
        <time>2024-06-30T06:45:46Z</time>
      </trkpt>
      <trkpt lat="42.73477" lon="1.82872">
        <ele>928.2</ele>
        <time>2024-06-30T06:45:47Z</time>
      </trkpt>
      <trkpt lat="42.73475" lon="1.82875">
        <ele>928.2</ele>
        <time>2024-06-30T06:45:48Z</time>
      </trkpt>
      <trkpt lat="42.73474" lon="1.82878">
        <ele>928.2</ele>
        <time>2024-06-30T06:45:49Z</time>
      </trkpt>
      <trkpt lat="42.73472" lon="1.82882">
        <ele>928.2</ele>
        <time>2024-06-30T06:45:50Z</time>
      </trkpt>
      <trkpt lat="42.7347" lon="1.82886">
        <ele>928.4</ele>
        <time>2024-06-30T06:45:51Z</time>
      </trkpt>
      <trkpt lat="42.73461" lon="1.82902">
        <ele>929</ele>
        <time>2024-06-30T06:45:55Z</time>
      </trkpt>
      <trkpt lat="42.73459" lon="1.82907">
        <ele>929.2</ele>
        <time>2024-06-30T06:45:56Z</time>
      </trkpt>
      <trkpt lat="42.73457" lon="1.82911">
        <ele>929.2</ele>
        <time>2024-06-30T06:45:57Z</time>
      </trkpt>
      <trkpt lat="42.73454" lon="1.82913">
        <ele>929.2</ele>
        <time>2024-06-30T06:45:58Z</time>
      </trkpt>
      <trkpt lat="42.73452" lon="1.82914">
        <ele>929</ele>
        <time>2024-06-30T06:45:59Z</time>
      </trkpt>
      <trkpt lat="42.73449" lon="1.82917">
        <ele>928.8</ele>
        <time>2024-06-30T06:46:00Z</time>
      </trkpt>
      <trkpt lat="42.73447" lon="1.82921">
        <ele>928.8</ele>
        <time>2024-06-30T06:46:01Z</time>
      </trkpt>
      <trkpt lat="42.73444" lon="1.82925">
        <ele>928.8</ele>
        <time>2024-06-30T06:46:02Z</time>
      </trkpt>
      <trkpt lat="42.73432" lon="1.82936">
        <ele>928.4</ele>
        <time>2024-06-30T06:46:04Z</time>
      </trkpt>
      <trkpt lat="42.73419" lon="1.82946">
        <ele>926.8</ele>
        <time>2024-06-30T06:46:07Z</time>
      </trkpt>
      <trkpt lat="42.73414" lon="1.8295">
        <ele>926.4</ele>
        <time>2024-06-30T06:46:08Z</time>
      </trkpt>
      <trkpt lat="42.7341" lon="1.82953">
        <ele>925.8</ele>
        <time>2024-06-30T06:46:09Z</time>
      </trkpt>
      <trkpt lat="42.73404" lon="1.82956">
        <ele>925.4</ele>
        <time>2024-06-30T06:46:10Z</time>
      </trkpt>
      <trkpt lat="42.73399" lon="1.82958">
        <ele>925</ele>
        <time>2024-06-30T06:46:11Z</time>
      </trkpt>
      <trkpt lat="42.73392" lon="1.82963">
        <ele>925</ele>
        <time>2024-06-30T06:46:12Z</time>
      </trkpt>
      <trkpt lat="42.73378" lon="1.82974">
        <ele>923.8</ele>
        <time>2024-06-30T06:46:14Z</time>
      </trkpt>
      <trkpt lat="42.73375" lon="1.8298">
        <ele>922.4</ele>
        <time>2024-06-30T06:46:15Z</time>
      </trkpt>
      <trkpt lat="42.73371" lon="1.82987">
        <ele>919.8</ele>
        <time>2024-06-30T06:46:16Z</time>
      </trkpt>
      <trkpt lat="42.73367" lon="1.82993">
        <ele>918.8</ele>
        <time>2024-06-30T06:46:17Z</time>
      </trkpt>
      <trkpt lat="42.73363" lon="1.82998">
        <ele>917.4</ele>
        <time>2024-06-30T06:46:18Z</time>
      </trkpt>
      <trkpt lat="42.73362" lon="1.83">
        <ele>916.2</ele>
        <time>2024-06-30T06:46:19Z</time>
      </trkpt>
      <trkpt lat="42.73362" lon="1.83002">
        <ele>915</ele>
        <time>2024-06-30T06:46:20Z</time>
      </trkpt>
      <trkpt lat="42.73362" lon="1.83006">
        <ele>914.6</ele>
        <time>2024-06-30T06:46:21Z</time>
      </trkpt>
      <trkpt lat="42.73361" lon="1.83008">
        <ele>914.4</ele>
        <time>2024-06-30T06:46:22Z</time>
      </trkpt>
      <trkpt lat="42.73359" lon="1.83011">
        <ele>914.2</ele>
        <time>2024-06-30T06:46:23Z</time>
      </trkpt>
      <trkpt lat="42.73358" lon="1.83014">
        <ele>914.2</ele>
        <time>2024-06-30T06:46:24Z</time>
      </trkpt>
      <trkpt lat="42.73358" lon="1.83017">
        <ele>914</ele>
        <time>2024-06-30T06:46:25Z</time>
      </trkpt>
      <trkpt lat="42.73358" lon="1.83019">
        <ele>914</ele>
        <time>2024-06-30T06:46:26Z</time>
      </trkpt>
      <trkpt lat="42.73359" lon="1.83021">
        <ele>914.2</ele>
        <time>2024-06-30T06:46:27Z</time>
      </trkpt>
      <trkpt lat="42.73359" lon="1.83023">
        <ele>914.4</ele>
        <time>2024-06-30T06:46:28Z</time>
      </trkpt>
      <trkpt lat="42.73362" lon="1.83026">
        <ele>914.8</ele>
        <time>2024-06-30T06:46:29Z</time>
      </trkpt>
      <trkpt lat="42.73363" lon="1.83031">
        <ele>915.6</ele>
        <time>2024-06-30T06:46:31Z</time>
      </trkpt>
      <trkpt lat="42.73364" lon="1.83036">
        <ele>916.2</ele>
        <time>2024-06-30T06:46:33Z</time>
      </trkpt>
      <trkpt lat="42.73363" lon="1.83039">
        <ele>916.6</ele>
        <time>2024-06-30T06:46:34Z</time>
      </trkpt>
      <trkpt lat="42.73363" lon="1.83042">
        <ele>917</ele>
        <time>2024-06-30T06:46:35Z</time>
      </trkpt>
      <trkpt lat="42.73365" lon="1.83047">
        <ele>917.4</ele>
        <time>2024-06-30T06:46:36Z</time>
      </trkpt>
      <trkpt lat="42.73365" lon="1.8305">
        <ele>917.6</ele>
        <time>2024-06-30T06:46:37Z</time>
      </trkpt>
      <trkpt lat="42.73365" lon="1.83052">
        <ele>918</ele>
        <time>2024-06-30T06:46:38Z</time>
      </trkpt>
      <trkpt lat="42.73365" lon="1.83058">
        <ele>918.8</ele>
        <time>2024-06-30T06:46:40Z</time>
      </trkpt>
      <trkpt lat="42.73365" lon="1.83061">
        <ele>919.6</ele>
        <time>2024-06-30T06:46:41Z</time>
      </trkpt>
      <trkpt lat="42.73367" lon="1.83067">
        <ele>920.4</ele>
        <time>2024-06-30T06:46:43Z</time>
      </trkpt>
      <trkpt lat="42.73367" lon="1.83069">
        <ele>920.8</ele>
        <time>2024-06-30T06:46:44Z</time>
      </trkpt>
      <trkpt lat="42.73367" lon="1.83072">
        <ele>921.4</ele>
        <time>2024-06-30T06:46:45Z</time>
      </trkpt>
      <trkpt lat="42.73367" lon="1.83074">
        <ele>921.8</ele>
        <time>2024-06-30T06:46:46Z</time>
      </trkpt>
      <trkpt lat="42.73366" lon="1.83076">
        <ele>922.2</ele>
        <time>2024-06-30T06:46:47Z</time>
      </trkpt>
      <trkpt lat="42.73365" lon="1.83078">
        <ele>922.4</ele>
        <time>2024-06-30T06:46:48Z</time>
      </trkpt>
      <trkpt lat="42.73365" lon="1.83081">
        <ele>922.6</ele>
        <time>2024-06-30T06:46:49Z</time>
      </trkpt>
      <trkpt lat="42.73365" lon="1.83086">
        <ele>922.8</ele>
        <time>2024-06-30T06:46:50Z</time>
      </trkpt>
      <trkpt lat="42.73365" lon="1.83088">
        <ele>923</ele>
        <time>2024-06-30T06:46:51Z</time>
      </trkpt>
      <trkpt lat="42.73364" lon="1.8309">
        <ele>923.4</ele>
        <time>2024-06-30T06:46:52Z</time>
      </trkpt>
      <trkpt lat="42.73364" lon="1.83091">
        <ele>923.4</ele>
        <time>2024-06-30T06:46:53Z</time>
      </trkpt>
      <trkpt lat="42.73363" lon="1.83094">
        <ele>923.6</ele>
        <time>2024-06-30T06:46:54Z</time>
      </trkpt>
      <trkpt lat="42.73364" lon="1.83096">
        <ele>923.8</ele>
        <time>2024-06-30T06:46:55Z</time>
      </trkpt>
      <trkpt lat="42.73364" lon="1.83097">
        <ele>924</ele>
        <time>2024-06-30T06:46:56Z</time>
      </trkpt>
      <trkpt lat="42.73364" lon="1.83098">
        <ele>924.2</ele>
        <time>2024-06-30T06:46:57Z</time>
      </trkpt>
      <trkpt lat="42.73365" lon="1.831">
        <ele>924.4</ele>
        <time>2024-06-30T06:46:58Z</time>
      </trkpt>
      <trkpt lat="42.73365" lon="1.83102">
        <ele>924.6</ele>
        <time>2024-06-30T06:46:59Z</time>
      </trkpt>
      <trkpt lat="42.73366" lon="1.83103">
        <ele>925</ele>
        <time>2024-06-30T06:47:00Z</time>
      </trkpt>
      <trkpt lat="42.73365" lon="1.83104">
        <ele>925.2</ele>
        <time>2024-06-30T06:47:01Z</time>
      </trkpt>
      <trkpt lat="42.73364" lon="1.83105">
        <ele>925.4</ele>
        <time>2024-06-30T06:47:02Z</time>
      </trkpt>
      <trkpt lat="42.73364" lon="1.83107">
        <ele>925.8</ele>
        <time>2024-06-30T06:47:03Z</time>
      </trkpt>
      <trkpt lat="42.73364" lon="1.83108">
        <ele>926</ele>
        <time>2024-06-30T06:47:04Z</time>
      </trkpt>
      <trkpt lat="42.73365" lon="1.8311">
        <ele>926.4</ele>
        <time>2024-06-30T06:47:05Z</time>
      </trkpt>
      <trkpt lat="42.73365" lon="1.83112">
        <ele>926.4</ele>
        <time>2024-06-30T06:47:06Z</time>
      </trkpt>
      <trkpt lat="42.73365" lon="1.83115">
        <ele>926.6</ele>
        <time>2024-06-30T06:47:07Z</time>
      </trkpt>
      <trkpt lat="42.73365" lon="1.83117">
        <ele>927</ele>
        <time>2024-06-30T06:47:08Z</time>
      </trkpt>
      <trkpt lat="42.73365" lon="1.83121">
        <ele>927</ele>
        <time>2024-06-30T06:47:09Z</time>
      </trkpt>
      <trkpt lat="42.73365" lon="1.83123">
        <ele>927</ele>
        <time>2024-06-30T06:47:10Z</time>
      </trkpt>
      <trkpt lat="42.73365" lon="1.83125">
        <ele>927.2</ele>
        <time>2024-06-30T06:47:11Z</time>
      </trkpt>
      <trkpt lat="42.73364" lon="1.83126">
        <ele>927.4</ele>
        <time>2024-06-30T06:47:12Z</time>
      </trkpt>
      <trkpt lat="42.73364" lon="1.83128">
        <ele>927.6</ele>
        <time>2024-06-30T06:47:13Z</time>
      </trkpt>
      <trkpt lat="42.73364" lon="1.8313">
        <ele>928.2</ele>
        <time>2024-06-30T06:47:14Z</time>
      </trkpt>
      <trkpt lat="42.73364" lon="1.83131">
        <ele>928.4</ele>
        <time>2024-06-30T06:47:15Z</time>
      </trkpt>
      <trkpt lat="42.73363" lon="1.83134">
        <ele>928.8</ele>
        <time>2024-06-30T06:47:16Z</time>
      </trkpt>
      <trkpt lat="42.73364" lon="1.83137">
        <ele>929</ele>
        <time>2024-06-30T06:47:17Z</time>
      </trkpt>
      <trkpt lat="42.73364" lon="1.8314">
        <ele>929.4</ele>
        <time>2024-06-30T06:47:18Z</time>
      </trkpt>
      <trkpt lat="42.73364" lon="1.83142">
        <ele>929.8</ele>
        <time>2024-06-30T06:47:19Z</time>
      </trkpt>
      <trkpt lat="42.73363" lon="1.83144">
        <ele>930</ele>
        <time>2024-06-30T06:47:20Z</time>
      </trkpt>
      <trkpt lat="42.73363" lon="1.83146">
        <ele>930.4</ele>
        <time>2024-06-30T06:47:21Z</time>
      </trkpt>
      <trkpt lat="42.73363" lon="1.83149">
        <ele>930.4</ele>
        <time>2024-06-30T06:47:22Z</time>
      </trkpt>
      <trkpt lat="42.73362" lon="1.83153">
        <ele>930.8</ele>
        <time>2024-06-30T06:47:23Z</time>
      </trkpt>
      <trkpt lat="42.73362" lon="1.83156">
        <ele>930.8</ele>
        <time>2024-06-30T06:47:24Z</time>
      </trkpt>
      <trkpt lat="42.73362" lon="1.83159">
        <ele>931</ele>
        <time>2024-06-30T06:47:25Z</time>
      </trkpt>
      <trkpt lat="42.73361" lon="1.83162">
        <ele>931.2</ele>
        <time>2024-06-30T06:47:26Z</time>
      </trkpt>
      <trkpt lat="42.7336" lon="1.83164">
        <ele>931.4</ele>
        <time>2024-06-30T06:47:27Z</time>
      </trkpt>
      <trkpt lat="42.73359" lon="1.83166">
        <ele>931.6</ele>
        <time>2024-06-30T06:47:28Z</time>
      </trkpt>
      <trkpt lat="42.73358" lon="1.83169">
        <ele>931.8</ele>
        <time>2024-06-30T06:47:29Z</time>
      </trkpt>
      <trkpt lat="42.73357" lon="1.83173">
        <ele>932</ele>
        <time>2024-06-30T06:47:30Z</time>
      </trkpt>
      <trkpt lat="42.73356" lon="1.83177">
        <ele>932</ele>
        <time>2024-06-30T06:47:31Z</time>
      </trkpt>
      <trkpt lat="42.73356" lon="1.83182">
        <ele>932.2</ele>
        <time>2024-06-30T06:47:32Z</time>
      </trkpt>
      <trkpt lat="42.73356" lon="1.83185">
        <ele>932.6</ele>
        <time>2024-06-30T06:47:33Z</time>
      </trkpt>
      <trkpt lat="42.73355" lon="1.83188">
        <ele>933</ele>
        <time>2024-06-30T06:47:34Z</time>
      </trkpt>
      <trkpt lat="42.73355" lon="1.83192">
        <ele>933.4</ele>
        <time>2024-06-30T06:47:35Z</time>
      </trkpt>
      <trkpt lat="42.73354" lon="1.83195">
        <ele>933.8</ele>
        <time>2024-06-30T06:47:36Z</time>
      </trkpt>
      <trkpt lat="42.73352" lon="1.83196">
        <ele>934.2</ele>
        <time>2024-06-30T06:47:37Z</time>
      </trkpt>
      <trkpt lat="42.73352" lon="1.83198">
        <ele>934.4</ele>
        <time>2024-06-30T06:47:38Z</time>
      </trkpt>
      <trkpt lat="42.73351" lon="1.83201">
        <ele>934.8</ele>
        <time>2024-06-30T06:47:39Z</time>
      </trkpt>
      <trkpt lat="42.7335" lon="1.83204">
        <ele>935</ele>
        <time>2024-06-30T06:47:40Z</time>
      </trkpt>
      <trkpt lat="42.73349" lon="1.83206">
        <ele>935.2</ele>
        <time>2024-06-30T06:47:41Z</time>
      </trkpt>
      <trkpt lat="42.73349" lon="1.83211">
        <ele>935.4</ele>
        <time>2024-06-30T06:47:42Z</time>
      </trkpt>
      <trkpt lat="42.73348" lon="1.83214">
        <ele>935.6</ele>
        <time>2024-06-30T06:47:43Z</time>
      </trkpt>
      <trkpt lat="42.73347" lon="1.83217">
        <ele>935.8</ele>
        <time>2024-06-30T06:47:44Z</time>
      </trkpt>
      <trkpt lat="42.73347" lon="1.8322">
        <ele>936</ele>
        <time>2024-06-30T06:47:45Z</time>
      </trkpt>
      <trkpt lat="42.73347" lon="1.83223">
        <ele>936.2</ele>
        <time>2024-06-30T06:47:46Z</time>
      </trkpt>
      <trkpt lat="42.73346" lon="1.83225">
        <ele>936.4</ele>
        <time>2024-06-30T06:47:47Z</time>
      </trkpt>
      <trkpt lat="42.73345" lon="1.83226">
        <ele>936.6</ele>
        <time>2024-06-30T06:47:48Z</time>
      </trkpt>
      <trkpt lat="42.73343" lon="1.83228">
        <ele>936.6</ele>
        <time>2024-06-30T06:47:49Z</time>
      </trkpt>
      <trkpt lat="42.73342" lon="1.83231">
        <ele>936.8</ele>
        <time>2024-06-30T06:47:50Z</time>
      </trkpt>
      <trkpt lat="42.73341" lon="1.83233">
        <ele>937</ele>
        <time>2024-06-30T06:47:51Z</time>
      </trkpt>
      <trkpt lat="42.7334" lon="1.83235">
        <ele>937.2</ele>
        <time>2024-06-30T06:47:52Z</time>
      </trkpt>
      <trkpt lat="42.73339" lon="1.83238">
        <ele>937.4</ele>
        <time>2024-06-30T06:47:53Z</time>
      </trkpt>
      <trkpt lat="42.73337" lon="1.83241">
        <ele>937.4</ele>
        <time>2024-06-30T06:47:54Z</time>
      </trkpt>
      <trkpt lat="42.73336" lon="1.83244">
        <ele>937.6</ele>
        <time>2024-06-30T06:47:55Z</time>
      </trkpt>
      <trkpt lat="42.73334" lon="1.83248">
        <ele>937.6</ele>
        <time>2024-06-30T06:47:56Z</time>
      </trkpt>
      <trkpt lat="42.73332" lon="1.83251">
        <ele>937.6</ele>
        <time>2024-06-30T06:47:57Z</time>
      </trkpt>
      <trkpt lat="42.73331" lon="1.83255">
        <ele>937.6</ele>
        <time>2024-06-30T06:47:58Z</time>
      </trkpt>
      <trkpt lat="42.7333" lon="1.8326">
        <ele>937.8</ele>
        <time>2024-06-30T06:47:59Z</time>
      </trkpt>
      <trkpt lat="42.73329" lon="1.83263">
        <ele>937.8</ele>
        <time>2024-06-30T06:48:00Z</time>
      </trkpt>
      <trkpt lat="42.73328" lon="1.83268">
        <ele>937.8</ele>
        <time>2024-06-30T06:48:01Z</time>
      </trkpt>
      <trkpt lat="42.73327" lon="1.83272">
        <ele>938</ele>
        <time>2024-06-30T06:48:02Z</time>
      </trkpt>
      <trkpt lat="42.73326" lon="1.83276">
        <ele>938</ele>
        <time>2024-06-30T06:48:03Z</time>
      </trkpt>
      <trkpt lat="42.73327" lon="1.83282">
        <ele>938.2</ele>
        <time>2024-06-30T06:48:04Z</time>
      </trkpt>
      <trkpt lat="42.73328" lon="1.83285">
        <ele>938.2</ele>
        <time>2024-06-30T06:48:05Z</time>
      </trkpt>
      <trkpt lat="42.73328" lon="1.83289">
        <ele>938.4</ele>
        <time>2024-06-30T06:48:06Z</time>
      </trkpt>
      <trkpt lat="42.73327" lon="1.83291">
        <ele>938.4</ele>
        <time>2024-06-30T06:48:07Z</time>
      </trkpt>
      <trkpt lat="42.73326" lon="1.83294">
        <ele>938.6</ele>
        <time>2024-06-30T06:48:08Z</time>
      </trkpt>
      <trkpt lat="42.73326" lon="1.83297">
        <ele>938.8</ele>
        <time>2024-06-30T06:48:09Z</time>
      </trkpt>
      <trkpt lat="42.73326" lon="1.83301">
        <ele>939.4</ele>
        <time>2024-06-30T06:48:10Z</time>
      </trkpt>
      <trkpt lat="42.73325" lon="1.83304">
        <ele>939.8</ele>
        <time>2024-06-30T06:48:11Z</time>
      </trkpt>
      <trkpt lat="42.73325" lon="1.83308">
        <ele>940</ele>
        <time>2024-06-30T06:48:12Z</time>
      </trkpt>
      <trkpt lat="42.73324" lon="1.83311">
        <ele>940.4</ele>
        <time>2024-06-30T06:48:13Z</time>
      </trkpt>
      <trkpt lat="42.73324" lon="1.83315">
        <ele>941</ele>
        <time>2024-06-30T06:48:14Z</time>
      </trkpt>
      <trkpt lat="42.73323" lon="1.83318">
        <ele>941.6</ele>
        <time>2024-06-30T06:48:15Z</time>
      </trkpt>
      <trkpt lat="42.73323" lon="1.83321">
        <ele>941.8</ele>
        <time>2024-06-30T06:48:16Z</time>
      </trkpt>
      <trkpt lat="42.73323" lon="1.83325">
        <ele>942.4</ele>
        <time>2024-06-30T06:48:17Z</time>
      </trkpt>
      <trkpt lat="42.73322" lon="1.83329">
        <ele>942.6</ele>
        <time>2024-06-30T06:48:18Z</time>
      </trkpt>
      <trkpt lat="42.73321" lon="1.83334">
        <ele>943.2</ele>
        <time>2024-06-30T06:48:19Z</time>
      </trkpt>
      <trkpt lat="42.7332" lon="1.83338">
        <ele>944</ele>
        <time>2024-06-30T06:48:20Z</time>
      </trkpt>
      <trkpt lat="42.7332" lon="1.83343">
        <ele>944.2</ele>
        <time>2024-06-30T06:48:21Z</time>
      </trkpt>
      <trkpt lat="42.7332" lon="1.83349">
        <ele>945</ele>
        <time>2024-06-30T06:48:22Z</time>
      </trkpt>
      <trkpt lat="42.7332" lon="1.83354">
        <ele>945.4</ele>
        <time>2024-06-30T06:48:23Z</time>
      </trkpt>
      <trkpt lat="42.73319" lon="1.83358">
        <ele>946.2</ele>
        <time>2024-06-30T06:48:24Z</time>
      </trkpt>
      <trkpt lat="42.73319" lon="1.83362">
        <ele>946.4</ele>
        <time>2024-06-30T06:48:25Z</time>
      </trkpt>
      <trkpt lat="42.73319" lon="1.83367">
        <ele>947.2</ele>
        <time>2024-06-30T06:48:26Z</time>
      </trkpt>
      <trkpt lat="42.73318" lon="1.83371">
        <ele>947.4</ele>
        <time>2024-06-30T06:48:27Z</time>
      </trkpt>
      <trkpt lat="42.73318" lon="1.83375">
        <ele>947.6</ele>
        <time>2024-06-30T06:48:28Z</time>
      </trkpt>
      <trkpt lat="42.73317" lon="1.83379">
        <ele>948.6</ele>
        <time>2024-06-30T06:48:29Z</time>
      </trkpt>
      <trkpt lat="42.73316" lon="1.83382">
        <ele>949</ele>
        <time>2024-06-30T06:48:30Z</time>
      </trkpt>
      <trkpt lat="42.73315" lon="1.83385">
        <ele>949.6</ele>
        <time>2024-06-30T06:48:31Z</time>
      </trkpt>
      <trkpt lat="42.73314" lon="1.83391">
        <ele>950</ele>
        <time>2024-06-30T06:48:32Z</time>
      </trkpt>
      <trkpt lat="42.73314" lon="1.83395">
        <ele>950.8</ele>
        <time>2024-06-30T06:48:33Z</time>
      </trkpt>
      <trkpt lat="42.73313" lon="1.83398">
        <ele>951</ele>
        <time>2024-06-30T06:48:34Z</time>
      </trkpt>
      <trkpt lat="42.73313" lon="1.83402">
        <ele>951.8</ele>
        <time>2024-06-30T06:48:35Z</time>
      </trkpt>
      <trkpt lat="42.73312" lon="1.83406">
        <ele>952</ele>
        <time>2024-06-30T06:48:36Z</time>
      </trkpt>
      <trkpt lat="42.73311" lon="1.83412">
        <ele>952.6</ele>
        <time>2024-06-30T06:48:37Z</time>
      </trkpt>
      <trkpt lat="42.73311" lon="1.83418">
        <ele>953</ele>
        <time>2024-06-30T06:48:38Z</time>
      </trkpt>
      <trkpt lat="42.7331" lon="1.83425">
        <ele>953.2</ele>
        <time>2024-06-30T06:48:39Z</time>
      </trkpt>
      <trkpt lat="42.73309" lon="1.83431">
        <ele>953.4</ele>
        <time>2024-06-30T06:48:40Z</time>
      </trkpt>
      <trkpt lat="42.73309" lon="1.83438">
        <ele>953.6</ele>
        <time>2024-06-30T06:48:41Z</time>
      </trkpt>
      <trkpt lat="42.73308" lon="1.83445">
        <ele>953.8</ele>
        <time>2024-06-30T06:48:42Z</time>
      </trkpt>
      <trkpt lat="42.73307" lon="1.83449">
        <ele>954</ele>
        <time>2024-06-30T06:48:43Z</time>
      </trkpt>
      <trkpt lat="42.73307" lon="1.83454">
        <ele>954</ele>
        <time>2024-06-30T06:48:44Z</time>
      </trkpt>
      <trkpt lat="42.73305" lon="1.83458">
        <ele>954.2</ele>
        <time>2024-06-30T06:48:45Z</time>
      </trkpt>
      <trkpt lat="42.73303" lon="1.83462">
        <ele>954.2</ele>
        <time>2024-06-30T06:48:46Z</time>
      </trkpt>
      <trkpt lat="42.73302" lon="1.83467">
        <ele>954.6</ele>
        <time>2024-06-30T06:48:47Z</time>
      </trkpt>
      <trkpt lat="42.73303" lon="1.83473">
        <ele>954.6</ele>
        <time>2024-06-30T06:48:48Z</time>
      </trkpt>
      <trkpt lat="42.73303" lon="1.83477">
        <ele>954.8</ele>
        <time>2024-06-30T06:48:49Z</time>
      </trkpt>
      <trkpt lat="42.73303" lon="1.83481">
        <ele>954.8</ele>
        <time>2024-06-30T06:48:50Z</time>
      </trkpt>
      <trkpt lat="42.73302" lon="1.83485">
        <ele>955</ele>
        <time>2024-06-30T06:48:51Z</time>
      </trkpt>
      <trkpt lat="42.73301" lon="1.8349">
        <ele>955.2</ele>
        <time>2024-06-30T06:48:52Z</time>
      </trkpt>
      <trkpt lat="42.73301" lon="1.83495">
        <ele>955.8</ele>
        <time>2024-06-30T06:48:53Z</time>
      </trkpt>
      <trkpt lat="42.733" lon="1.835">
        <ele>956.2</ele>
        <time>2024-06-30T06:48:54Z</time>
      </trkpt>
      <trkpt lat="42.733" lon="1.83505">
        <ele>956.8</ele>
        <time>2024-06-30T06:48:55Z</time>
      </trkpt>
      <trkpt lat="42.73299" lon="1.83511">
        <ele>957.2</ele>
        <time>2024-06-30T06:48:56Z</time>
      </trkpt>
      <trkpt lat="42.73299" lon="1.83515">
        <ele>957.4</ele>
        <time>2024-06-30T06:48:57Z</time>
      </trkpt>
      <trkpt lat="42.73299" lon="1.83519">
        <ele>957.8</ele>
        <time>2024-06-30T06:48:58Z</time>
      </trkpt>
      <trkpt lat="42.73298" lon="1.83523">
        <ele>958</ele>
        <time>2024-06-30T06:48:59Z</time>
      </trkpt>
      <trkpt lat="42.73296" lon="1.83528">
        <ele>958.6</ele>
        <time>2024-06-30T06:49:00Z</time>
      </trkpt>
      <trkpt lat="42.73295" lon="1.83531">
        <ele>959</ele>
        <time>2024-06-30T06:49:01Z</time>
      </trkpt>
      <trkpt lat="42.73293" lon="1.83535">
        <ele>959.6</ele>
        <time>2024-06-30T06:49:02Z</time>
      </trkpt>
      <trkpt lat="42.73291" lon="1.83539">
        <ele>959.8</ele>
        <time>2024-06-30T06:49:03Z</time>
      </trkpt>
      <trkpt lat="42.7329" lon="1.83542">
        <ele>960.4</ele>
        <time>2024-06-30T06:49:04Z</time>
      </trkpt>
      <trkpt lat="42.73289" lon="1.83546">
        <ele>960.6</ele>
        <time>2024-06-30T06:49:05Z</time>
      </trkpt>
      <trkpt lat="42.73288" lon="1.83552">
        <ele>961.4</ele>
        <time>2024-06-30T06:49:06Z</time>
      </trkpt>
      <trkpt lat="42.73288" lon="1.83559">
        <ele>962</ele>
        <time>2024-06-30T06:49:07Z</time>
      </trkpt>
      <trkpt lat="42.73287" lon="1.83563">
        <ele>962.4</ele>
        <time>2024-06-30T06:49:08Z</time>
      </trkpt>
      <trkpt lat="42.73286" lon="1.83569">
        <ele>963.4</ele>
        <time>2024-06-30T06:49:09Z</time>
      </trkpt>
      <trkpt lat="42.73286" lon="1.83574">
        <ele>963.8</ele>
        <time>2024-06-30T06:49:10Z</time>
      </trkpt>
      <trkpt lat="42.73286" lon="1.83578">
        <ele>964.4</ele>
        <time>2024-06-30T06:49:11Z</time>
      </trkpt>
      <trkpt lat="42.73286" lon="1.83583">
        <ele>964.6</ele>
        <time>2024-06-30T06:49:12Z</time>
      </trkpt>
      <trkpt lat="42.73285" lon="1.83587">
        <ele>965.2</ele>
        <time>2024-06-30T06:49:13Z</time>
      </trkpt>
      <trkpt lat="42.73287" lon="1.83593">
        <ele>965.8</ele>
        <time>2024-06-30T06:49:14Z</time>
      </trkpt>
      <trkpt lat="42.73288" lon="1.83597">
        <ele>966.4</ele>
        <time>2024-06-30T06:49:15Z</time>
      </trkpt>
      <trkpt lat="42.73288" lon="1.836">
        <ele>967.2</ele>
        <time>2024-06-30T06:49:16Z</time>
      </trkpt>
      <trkpt lat="42.73287" lon="1.83603">
        <ele>967.8</ele>
        <time>2024-06-30T06:49:17Z</time>
      </trkpt>
      <trkpt lat="42.73289" lon="1.83607">
        <ele>968.4</ele>
        <time>2024-06-30T06:49:18Z</time>
      </trkpt>
      <trkpt lat="42.73288" lon="1.83611">
        <ele>968.8</ele>
        <time>2024-06-30T06:49:19Z</time>
      </trkpt>
      <trkpt lat="42.73287" lon="1.83615">
        <ele>969.6</ele>
        <time>2024-06-30T06:49:20Z</time>
      </trkpt>
      <trkpt lat="42.73286" lon="1.83618">
        <ele>969.8</ele>
        <time>2024-06-30T06:49:21Z</time>
      </trkpt>
      <trkpt lat="42.73285" lon="1.83622">
        <ele>970.4</ele>
        <time>2024-06-30T06:49:22Z</time>
      </trkpt>
      <trkpt lat="42.73283" lon="1.83625">
        <ele>970.6</ele>
        <time>2024-06-30T06:49:23Z</time>
      </trkpt>
      <trkpt lat="42.73281" lon="1.83629">
        <ele>971.2</ele>
        <time>2024-06-30T06:49:24Z</time>
      </trkpt>
      <trkpt lat="42.73279" lon="1.83634">
        <ele>972</ele>
        <time>2024-06-30T06:49:25Z</time>
      </trkpt>
      <trkpt lat="42.73278" lon="1.83639">
        <ele>972.6</ele>
        <time>2024-06-30T06:49:26Z</time>
      </trkpt>
      <trkpt lat="42.73278" lon="1.83644">
        <ele>973.6</ele>
        <time>2024-06-30T06:49:27Z</time>
      </trkpt>
      <trkpt lat="42.73278" lon="1.83648">
        <ele>974</ele>
        <time>2024-06-30T06:49:28Z</time>
      </trkpt>
      <trkpt lat="42.73277" lon="1.83653">
        <ele>974.6</ele>
        <time>2024-06-30T06:49:29Z</time>
      </trkpt>
      <trkpt lat="42.73277" lon="1.83656">
        <ele>975</ele>
        <time>2024-06-30T06:49:30Z</time>
      </trkpt>
      <trkpt lat="42.73275" lon="1.8366">
        <ele>975.8</ele>
        <time>2024-06-30T06:49:31Z</time>
      </trkpt>
      <trkpt lat="42.73275" lon="1.83664">
        <ele>976</ele>
        <time>2024-06-30T06:49:32Z</time>
      </trkpt>
      <trkpt lat="42.73274" lon="1.83668">
        <ele>976.6</ele>
        <time>2024-06-30T06:49:33Z</time>
      </trkpt>
      <trkpt lat="42.73273" lon="1.83671">
        <ele>977.2</ele>
        <time>2024-06-30T06:49:34Z</time>
      </trkpt>
      <trkpt lat="42.73271" lon="1.83674">
        <ele>977.4</ele>
        <time>2024-06-30T06:49:35Z</time>
      </trkpt>
      <trkpt lat="42.73269" lon="1.83678">
        <ele>978</ele>
        <time>2024-06-30T06:49:36Z</time>
      </trkpt>
      <trkpt lat="42.73267" lon="1.8368">
        <ele>978.2</ele>
        <time>2024-06-30T06:49:37Z</time>
      </trkpt>
      <trkpt lat="42.73266" lon="1.83683">
        <ele>978.6</ele>
        <time>2024-06-30T06:49:38Z</time>
      </trkpt>
      <trkpt lat="42.73264" lon="1.83689">
        <ele>979</ele>
        <time>2024-06-30T06:49:39Z</time>
      </trkpt>
      <trkpt lat="42.73262" lon="1.83694">
        <ele>979.6</ele>
        <time>2024-06-30T06:49:40Z</time>
      </trkpt>
      <trkpt lat="42.7326" lon="1.83697">
        <ele>980</ele>
        <time>2024-06-30T06:49:41Z</time>
      </trkpt>
      <trkpt lat="42.73258" lon="1.83702">
        <ele>980.4</ele>
        <time>2024-06-30T06:49:42Z</time>
      </trkpt>
      <trkpt lat="42.73257" lon="1.83705">
        <ele>981.2</ele>
        <time>2024-06-30T06:49:43Z</time>
      </trkpt>
      <trkpt lat="42.73256" lon="1.8371">
        <ele>981.4</ele>
        <time>2024-06-30T06:49:44Z</time>
      </trkpt>
      <trkpt lat="42.73254" lon="1.83714">
        <ele>981.8</ele>
        <time>2024-06-30T06:49:45Z</time>
      </trkpt>
      <trkpt lat="42.73254" lon="1.83718">
        <ele>982</ele>
        <time>2024-06-30T06:49:46Z</time>
      </trkpt>
      <trkpt lat="42.73253" lon="1.83723">
        <ele>982.2</ele>
        <time>2024-06-30T06:49:47Z</time>
      </trkpt>
      <trkpt lat="42.73253" lon="1.83726">
        <ele>982.4</ele>
        <time>2024-06-30T06:49:48Z</time>
      </trkpt>
      <trkpt lat="42.73253" lon="1.83733">
        <ele>983</ele>
        <time>2024-06-30T06:49:49Z</time>
      </trkpt>
      <trkpt lat="42.73253" lon="1.83737">
        <ele>983</ele>
        <time>2024-06-30T06:49:50Z</time>
      </trkpt>
      <trkpt lat="42.73253" lon="1.83743">
        <ele>983.4</ele>
        <time>2024-06-30T06:49:51Z</time>
      </trkpt>
      <trkpt lat="42.73253" lon="1.83747">
        <ele>983.8</ele>
        <time>2024-06-30T06:49:52Z</time>
      </trkpt>
      <trkpt lat="42.73252" lon="1.83751">
        <ele>984</ele>
        <time>2024-06-30T06:49:53Z</time>
      </trkpt>
      <trkpt lat="42.73252" lon="1.83756">
        <ele>984.2</ele>
        <time>2024-06-30T06:49:54Z</time>
      </trkpt>
      <trkpt lat="42.73252" lon="1.8376">
        <ele>984.4</ele>
        <time>2024-06-30T06:49:55Z</time>
      </trkpt>
      <trkpt lat="42.73251" lon="1.83764">
        <ele>984.6</ele>
        <time>2024-06-30T06:49:56Z</time>
      </trkpt>
      <trkpt lat="42.7325" lon="1.83769">
        <ele>984.6</ele>
        <time>2024-06-30T06:49:57Z</time>
      </trkpt>
      <trkpt lat="42.7325" lon="1.83772">
        <ele>985</ele>
        <time>2024-06-30T06:49:58Z</time>
      </trkpt>
      <trkpt lat="42.73248" lon="1.83776">
        <ele>985</ele>
        <time>2024-06-30T06:49:59Z</time>
      </trkpt>
      <trkpt lat="42.73247" lon="1.83778">
        <ele>985.4</ele>
        <time>2024-06-30T06:50:00Z</time>
      </trkpt>
      <trkpt lat="42.73246" lon="1.83781">
        <ele>985.6</ele>
        <time>2024-06-30T06:50:01Z</time>
      </trkpt>
      <trkpt lat="42.73244" lon="1.83784">
        <ele>985.8</ele>
        <time>2024-06-30T06:50:02Z</time>
      </trkpt>
      <trkpt lat="42.73243" lon="1.83786">
        <ele>986.2</ele>
        <time>2024-06-30T06:50:03Z</time>
      </trkpt>
      <trkpt lat="42.73241" lon="1.83789">
        <ele>986.6</ele>
        <time>2024-06-30T06:50:04Z</time>
      </trkpt>
      <trkpt lat="42.73239" lon="1.8379">
        <ele>986.8</ele>
        <time>2024-06-30T06:50:05Z</time>
      </trkpt>
      <trkpt lat="42.73238" lon="1.83792">
        <ele>987</ele>
        <time>2024-06-30T06:50:06Z</time>
      </trkpt>
      <trkpt lat="42.73236" lon="1.83794">
        <ele>987.6</ele>
        <time>2024-06-30T06:50:07Z</time>
      </trkpt>
      <trkpt lat="42.73234" lon="1.83796">
        <ele>988</ele>
        <time>2024-06-30T06:50:08Z</time>
      </trkpt>
      <trkpt lat="42.73233" lon="1.83798">
        <ele>988.8</ele>
        <time>2024-06-30T06:50:09Z</time>
      </trkpt>
      <trkpt lat="42.73231" lon="1.838">
        <ele>989.4</ele>
        <time>2024-06-30T06:50:10Z</time>
      </trkpt>
      <trkpt lat="42.7323" lon="1.83802">
        <ele>989.6</ele>
        <time>2024-06-30T06:50:11Z</time>
      </trkpt>
      <trkpt lat="42.73228" lon="1.83804">
        <ele>990.4</ele>
        <time>2024-06-30T06:50:12Z</time>
      </trkpt>
      <trkpt lat="42.73227" lon="1.83807">
        <ele>990.6</ele>
        <time>2024-06-30T06:50:13Z</time>
      </trkpt>
      <trkpt lat="42.73226" lon="1.83809">
        <ele>991.4</ele>
        <time>2024-06-30T06:50:14Z</time>
      </trkpt>
      <trkpt lat="42.73226" lon="1.8381">
        <ele>991.6</ele>
        <time>2024-06-30T06:50:15Z</time>
      </trkpt>
      <trkpt lat="42.73225" lon="1.83812">
        <ele>992.2</ele>
        <time>2024-06-30T06:50:16Z</time>
      </trkpt>
      <trkpt lat="42.73225" lon="1.83814">
        <ele>992.2</ele>
        <time>2024-06-30T06:50:17Z</time>
      </trkpt>
      <trkpt lat="42.73224" lon="1.83817">
        <ele>992.6</ele>
        <time>2024-06-30T06:50:18Z</time>
      </trkpt>
      <trkpt lat="42.73224" lon="1.83819">
        <ele>993.2</ele>
        <time>2024-06-30T06:50:19Z</time>
      </trkpt>
      <trkpt lat="42.73224" lon="1.83822">
        <ele>993.4</ele>
        <time>2024-06-30T06:50:20Z</time>
      </trkpt>
      <trkpt lat="42.73223" lon="1.83823">
        <ele>993.6</ele>
        <time>2024-06-30T06:50:21Z</time>
      </trkpt>
      <trkpt lat="42.73223" lon="1.83825">
        <ele>993.8</ele>
        <time>2024-06-30T06:50:22Z</time>
      </trkpt>
      <trkpt lat="42.73222" lon="1.83826">
        <ele>994.6</ele>
        <time>2024-06-30T06:50:23Z</time>
      </trkpt>
      <trkpt lat="42.73222" lon="1.83828">
        <ele>994.8</ele>
        <time>2024-06-30T06:50:24Z</time>
      </trkpt>
      <trkpt lat="42.73221" lon="1.83829">
        <ele>995.2</ele>
        <time>2024-06-30T06:50:25Z</time>
      </trkpt>
      <trkpt lat="42.7322" lon="1.8383">
        <ele>995.4</ele>
        <time>2024-06-30T06:50:26Z</time>
      </trkpt>
      <trkpt lat="42.7322" lon="1.8383">
        <ele>995.6</ele>
        <time>2024-06-30T06:50:27Z</time>
      </trkpt>
      <trkpt lat="42.7322" lon="1.8383">
        <ele>995.6</ele>
        <time>2024-06-30T06:50:28Z</time>
      </trkpt>
      <trkpt lat="42.73215" lon="1.83834">
        <ele>996</ele>
        <time>2024-06-30T06:51:15Z</time>
      </trkpt>
      <trkpt lat="42.73213" lon="1.83837">
        <ele>996</ele>
        <time>2024-06-30T06:51:16Z</time>
      </trkpt>
      <trkpt lat="42.73211" lon="1.8384">
        <ele>996</ele>
        <time>2024-06-30T06:51:17Z</time>
      </trkpt>
      <trkpt lat="42.73208" lon="1.83843">
        <ele>996</ele>
        <time>2024-06-30T06:51:19Z</time>
      </trkpt>
      <trkpt lat="42.73208" lon="1.83844">
        <ele>996</ele>
        <time>2024-06-30T06:51:20Z</time>
      </trkpt>
      <trkpt lat="42.73207" lon="1.83844">
        <ele>996</ele>
        <time>2024-06-30T06:51:22Z</time>
      </trkpt>
      <trkpt lat="42.73212" lon="1.8384">
        <ele>997</ele>
        <time>2024-06-30T06:54:15Z</time>
      </trkpt>
      <trkpt lat="42.73216" lon="1.83838">
        <ele>997</ele>
        <time>2024-06-30T06:54:17Z</time>
      </trkpt>
      <trkpt lat="42.73218" lon="1.83838">
        <ele>997</ele>
        <time>2024-06-30T06:54:18Z</time>
      </trkpt>
      <trkpt lat="42.7322" lon="1.83839">
        <ele>997</ele>
        <time>2024-06-30T06:54:19Z</time>
      </trkpt>
      <trkpt lat="42.73222" lon="1.83839">
        <ele>997</ele>
        <time>2024-06-30T06:54:20Z</time>
      </trkpt>
      <trkpt lat="42.73223" lon="1.83839">
        <ele>996.8</ele>
        <time>2024-06-30T06:54:21Z</time>
      </trkpt>
      <trkpt lat="42.73225" lon="1.8384">
        <ele>996.8</ele>
        <time>2024-06-30T06:54:22Z</time>
      </trkpt>
      <trkpt lat="42.73227" lon="1.83841">
        <ele>996.8</ele>
        <time>2024-06-30T06:54:23Z</time>
      </trkpt>
      <trkpt lat="42.73235" lon="1.83842">
        <ele>996.8</ele>
        <time>2024-06-30T06:54:27Z</time>
      </trkpt>
      <trkpt lat="42.73237" lon="1.8384">
        <ele>996.8</ele>
        <time>2024-06-30T06:54:28Z</time>
      </trkpt>
      <trkpt lat="42.73238" lon="1.8384">
        <ele>997</ele>
        <time>2024-06-30T06:54:29Z</time>
      </trkpt>
      <trkpt lat="42.7324" lon="1.8384">
        <ele>997.2</ele>
        <time>2024-06-30T06:54:30Z</time>
      </trkpt>
      <trkpt lat="42.73243" lon="1.83839">
        <ele>997.4</ele>
        <time>2024-06-30T06:54:32Z</time>
      </trkpt>
      <trkpt lat="42.73245" lon="1.83838">
        <ele>997.4</ele>
        <time>2024-06-30T06:54:33Z</time>
      </trkpt>
      <trkpt lat="42.73247" lon="1.83837">
        <ele>997.4</ele>
        <time>2024-06-30T06:54:34Z</time>
      </trkpt>
      <trkpt lat="42.73249" lon="1.83837">
        <ele>997.4</ele>
        <time>2024-06-30T06:54:35Z</time>
      </trkpt>
      <trkpt lat="42.73261" lon="1.8383">
        <ele>998.2</ele>
        <time>2024-06-30T06:54:41Z</time>
      </trkpt>
      <trkpt lat="42.73263" lon="1.83828">
        <ele>998.2</ele>
        <time>2024-06-30T06:54:42Z</time>
      </trkpt>
      <trkpt lat="42.73268" lon="1.83823">
        <ele>998.4</ele>
        <time>2024-06-30T06:54:44Z</time>
      </trkpt>
      <trkpt lat="42.7327" lon="1.83821">
        <ele>998.6</ele>
        <time>2024-06-30T06:54:45Z</time>
      </trkpt>
      <trkpt lat="42.73278" lon="1.83811">
        <ele>999.2</ele>
        <time>2024-06-30T06:54:48Z</time>
      </trkpt>
      <trkpt lat="42.73281" lon="1.83809">
        <ele>999.2</ele>
        <time>2024-06-30T06:54:49Z</time>
      </trkpt>
      <trkpt lat="42.73282" lon="1.83807">
        <ele>999.6</ele>
        <time>2024-06-30T06:54:50Z</time>
      </trkpt>
      <trkpt lat="42.73292" lon="1.83792">
        <ele>1000.2</ele>
        <time>2024-06-30T06:54:54Z</time>
      </trkpt>
      <trkpt lat="42.73295" lon="1.83782">
        <ele>1000.6</ele>
        <time>2024-06-30T06:54:56Z</time>
      </trkpt>
      <trkpt lat="42.73295" lon="1.83777">
        <ele>1001</ele>
        <time>2024-06-30T06:54:57Z</time>
      </trkpt>
      <trkpt lat="42.73297" lon="1.83773">
        <ele>1001</ele>
        <time>2024-06-30T06:54:58Z</time>
      </trkpt>
      <trkpt lat="42.73297" lon="1.8377">
        <ele>1001.6</ele>
        <time>2024-06-30T06:54:59Z</time>
      </trkpt>
      <trkpt lat="42.73297" lon="1.83768">
        <ele>1002</ele>
        <time>2024-06-30T06:55:00Z</time>
      </trkpt>
      <trkpt lat="42.73298" lon="1.83766">
        <ele>1002.4</ele>
        <time>2024-06-30T06:55:01Z</time>
      </trkpt>
      <trkpt lat="42.73299" lon="1.83764">
        <ele>1002.6</ele>
        <time>2024-06-30T06:55:02Z</time>
      </trkpt>
      <trkpt lat="42.73299" lon="1.83762">
        <ele>1003</ele>
        <time>2024-06-30T06:55:03Z</time>
      </trkpt>
      <trkpt lat="42.73299" lon="1.8376">
        <ele>1003.4</ele>
        <time>2024-06-30T06:55:04Z</time>
      </trkpt>
      <trkpt lat="42.733" lon="1.83756">
        <ele>1003.4</ele>
        <time>2024-06-30T06:55:05Z</time>
      </trkpt>
      <trkpt lat="42.73301" lon="1.83753">
        <ele>1003.6</ele>
        <time>2024-06-30T06:55:06Z</time>
      </trkpt>
      <trkpt lat="42.73302" lon="1.8375">
        <ele>1003.6</ele>
        <time>2024-06-30T06:55:07Z</time>
      </trkpt>
      <trkpt lat="42.73303" lon="1.83747">
        <ele>1003.8</ele>
        <time>2024-06-30T06:55:08Z</time>
      </trkpt>
      <trkpt lat="42.73303" lon="1.83746">
        <ele>1004</ele>
        <time>2024-06-30T06:55:09Z</time>
      </trkpt>
      <trkpt lat="42.73305" lon="1.83744">
        <ele>1004.2</ele>
        <time>2024-06-30T06:55:10Z</time>
      </trkpt>
      <trkpt lat="42.73306" lon="1.83741">
        <ele>1004.2</ele>
        <time>2024-06-30T06:55:11Z</time>
      </trkpt>
      <trkpt lat="42.73307" lon="1.83739">
        <ele>1004.6</ele>
        <time>2024-06-30T06:55:12Z</time>
      </trkpt>
      <trkpt lat="42.73309" lon="1.83736">
        <ele>1004.8</ele>
        <time>2024-06-30T06:55:13Z</time>
      </trkpt>
      <trkpt lat="42.73311" lon="1.83735">
        <ele>1004.8</ele>
        <time>2024-06-30T06:55:14Z</time>
      </trkpt>
      <trkpt lat="42.73313" lon="1.83734">
        <ele>1005.2</ele>
        <time>2024-06-30T06:55:15Z</time>
      </trkpt>
      <trkpt lat="42.73314" lon="1.83732">
        <ele>1005.4</ele>
        <time>2024-06-30T06:55:16Z</time>
      </trkpt>
      <trkpt lat="42.73316" lon="1.83729">
        <ele>1005.6</ele>
        <time>2024-06-30T06:55:17Z</time>
      </trkpt>
      <trkpt lat="42.73317" lon="1.83727">
        <ele>1005.8</ele>
        <time>2024-06-30T06:55:18Z</time>
      </trkpt>
      <trkpt lat="42.73318" lon="1.83724">
        <ele>1006.2</ele>
        <time>2024-06-30T06:55:19Z</time>
      </trkpt>
      <trkpt lat="42.73319" lon="1.83721">
        <ele>1006.4</ele>
        <time>2024-06-30T06:55:20Z</time>
      </trkpt>
      <trkpt lat="42.7332" lon="1.83719">
        <ele>1007</ele>
        <time>2024-06-30T06:55:21Z</time>
      </trkpt>
      <trkpt lat="42.7332" lon="1.83717">
        <ele>1007.6</ele>
        <time>2024-06-30T06:55:22Z</time>
      </trkpt>
      <trkpt lat="42.73321" lon="1.83715">
        <ele>1008</ele>
        <time>2024-06-30T06:55:23Z</time>
      </trkpt>
      <trkpt lat="42.73322" lon="1.83712">
        <ele>1008.4</ele>
        <time>2024-06-30T06:55:24Z</time>
      </trkpt>
      <trkpt lat="42.73323" lon="1.83709">
        <ele>1008.6</ele>
        <time>2024-06-30T06:55:25Z</time>
      </trkpt>
      <trkpt lat="42.73323" lon="1.83706">
        <ele>1009.2</ele>
        <time>2024-06-30T06:55:26Z</time>
      </trkpt>
      <trkpt lat="42.73325" lon="1.83702">
        <ele>1009.4</ele>
        <time>2024-06-30T06:55:27Z</time>
      </trkpt>
      <trkpt lat="42.73326" lon="1.83699">
        <ele>1010</ele>
        <time>2024-06-30T06:55:28Z</time>
      </trkpt>
      <trkpt lat="42.73327" lon="1.83697">
        <ele>1010.2</ele>
        <time>2024-06-30T06:55:29Z</time>
      </trkpt>
      <trkpt lat="42.73329" lon="1.83694">
        <ele>1010.6</ele>
        <time>2024-06-30T06:55:30Z</time>
      </trkpt>
      <trkpt lat="42.7333" lon="1.83692">
        <ele>1011.4</ele>
        <time>2024-06-30T06:55:32Z</time>
      </trkpt>
      <trkpt lat="42.73331" lon="1.83689">
        <ele>1012.2</ele>
        <time>2024-06-30T06:55:45Z</time>
      </trkpt>
      <trkpt lat="42.73333" lon="1.83687">
        <ele>1012.2</ele>
        <time>2024-06-30T06:55:46Z</time>
      </trkpt>
      <trkpt lat="42.73335" lon="1.83685">
        <ele>1012.2</ele>
        <time>2024-06-30T06:55:47Z</time>
      </trkpt>
      <trkpt lat="42.73338" lon="1.83681">
        <ele>1012.2</ele>
        <time>2024-06-30T06:55:48Z</time>
      </trkpt>
      <trkpt lat="42.73338" lon="1.83681">
        <ele>1012.4</ele>
        <time>2024-06-30T06:55:50Z</time>
      </trkpt>
      <trkpt lat="42.73354" lon="1.83668">
        <ele>1018.6</ele>
        <time>2024-06-30T06:56:15Z</time>
      </trkpt>
      <trkpt lat="42.73355" lon="1.83666">
        <ele>1018.6</ele>
        <time>2024-06-30T06:56:16Z</time>
      </trkpt>
      <trkpt lat="42.73356" lon="1.83664">
        <ele>1018.8</ele>
        <time>2024-06-30T06:56:17Z</time>
      </trkpt>
      <trkpt lat="42.73357" lon="1.83663">
        <ele>1019</ele>
        <time>2024-06-30T06:56:18Z</time>
      </trkpt>
      <trkpt lat="42.73358" lon="1.83661">
        <ele>1019</ele>
        <time>2024-06-30T06:56:19Z</time>
      </trkpt>
      <trkpt lat="42.73359" lon="1.83659">
        <ele>1019.2</ele>
        <time>2024-06-30T06:56:20Z</time>
      </trkpt>
      <trkpt lat="42.73359" lon="1.83657">
        <ele>1019.4</ele>
        <time>2024-06-30T06:56:21Z</time>
      </trkpt>
      <trkpt lat="42.7336" lon="1.83655">
        <ele>1019.6</ele>
        <time>2024-06-30T06:56:22Z</time>
      </trkpt>
      <trkpt lat="42.73361" lon="1.83654">
        <ele>1019.8</ele>
        <time>2024-06-30T06:56:23Z</time>
      </trkpt>
      <trkpt lat="42.73362" lon="1.83652">
        <ele>1020</ele>
        <time>2024-06-30T06:56:24Z</time>
      </trkpt>
      <trkpt lat="42.73364" lon="1.8365">
        <ele>1020.2</ele>
        <time>2024-06-30T06:56:25Z</time>
      </trkpt>
      <trkpt lat="42.73365" lon="1.83648">
        <ele>1020.4</ele>
        <time>2024-06-30T06:56:26Z</time>
      </trkpt>
      <trkpt lat="42.73367" lon="1.83646">
        <ele>1020.4</ele>
        <time>2024-06-30T06:56:27Z</time>
      </trkpt>
      <trkpt lat="42.73368" lon="1.83644">
        <ele>1020.6</ele>
        <time>2024-06-30T06:56:28Z</time>
      </trkpt>
      <trkpt lat="42.73369" lon="1.83642">
        <ele>1020.8</ele>
        <time>2024-06-30T06:56:29Z</time>
      </trkpt>
      <trkpt lat="42.7337" lon="1.8364">
        <ele>1020.8</ele>
        <time>2024-06-30T06:56:30Z</time>
      </trkpt>
      <trkpt lat="42.73372" lon="1.83637">
        <ele>1021.4</ele>
        <time>2024-06-30T06:56:31Z</time>
      </trkpt>
      <trkpt lat="42.73373" lon="1.83635">
        <ele>1021.6</ele>
        <time>2024-06-30T06:56:32Z</time>
      </trkpt>
      <trkpt lat="42.73374" lon="1.83633">
        <ele>1022.6</ele>
        <time>2024-06-30T06:56:33Z</time>
      </trkpt>
      <trkpt lat="42.73375" lon="1.83632">
        <ele>1023.2</ele>
        <time>2024-06-30T06:56:34Z</time>
      </trkpt>
      <trkpt lat="42.73376" lon="1.8363">
        <ele>1023.4</ele>
        <time>2024-06-30T06:56:35Z</time>
      </trkpt>
      <trkpt lat="42.73378" lon="1.83628">
        <ele>1023.8</ele>
        <time>2024-06-30T06:56:36Z</time>
      </trkpt>
      <trkpt lat="42.7338" lon="1.83625">
        <ele>1024.2</ele>
        <time>2024-06-30T06:56:37Z</time>
      </trkpt>
      <trkpt lat="42.73381" lon="1.83623">
        <ele>1025</ele>
        <time>2024-06-30T06:56:38Z</time>
      </trkpt>
      <trkpt lat="42.73383" lon="1.83621">
        <ele>1025.4</ele>
        <time>2024-06-30T06:56:39Z</time>
      </trkpt>
      <trkpt lat="42.73384" lon="1.83619">
        <ele>1025.8</ele>
        <time>2024-06-30T06:56:40Z</time>
      </trkpt>
      <trkpt lat="42.73385" lon="1.83617">
        <ele>1026</ele>
        <time>2024-06-30T06:56:41Z</time>
      </trkpt>
      <trkpt lat="42.73386" lon="1.83615">
        <ele>1026.6</ele>
        <time>2024-06-30T06:56:42Z</time>
      </trkpt>
      <trkpt lat="42.73387" lon="1.83613">
        <ele>1027.4</ele>
        <time>2024-06-30T06:56:43Z</time>
      </trkpt>
      <trkpt lat="42.73388" lon="1.83613">
        <ele>1027.8</ele>
        <time>2024-06-30T06:56:44Z</time>
      </trkpt>
      <trkpt lat="42.73389" lon="1.83611">
        <ele>1028.6</ele>
        <time>2024-06-30T06:56:45Z</time>
      </trkpt>
      <trkpt lat="42.73391" lon="1.83609">
        <ele>1028.8</ele>
        <time>2024-06-30T06:56:46Z</time>
      </trkpt>
      <trkpt lat="42.73392" lon="1.83607">
        <ele>1029.6</ele>
        <time>2024-06-30T06:56:47Z</time>
      </trkpt>
      <trkpt lat="42.73393" lon="1.83605">
        <ele>1030</ele>
        <time>2024-06-30T06:56:48Z</time>
      </trkpt>
      <trkpt lat="42.73394" lon="1.83604">
        <ele>1030.4</ele>
        <time>2024-06-30T06:56:49Z</time>
      </trkpt>
      <trkpt lat="42.73396" lon="1.83603">
        <ele>1030.6</ele>
        <time>2024-06-30T06:56:50Z</time>
      </trkpt>
      <trkpt lat="42.73398" lon="1.83601">
        <ele>1031.2</ele>
        <time>2024-06-30T06:56:51Z</time>
      </trkpt>
      <trkpt lat="42.734" lon="1.836">
        <ele>1031.6</ele>
        <time>2024-06-30T06:56:52Z</time>
      </trkpt>
      <trkpt lat="42.73401" lon="1.83599">
        <ele>1031.8</ele>
        <time>2024-06-30T06:56:53Z</time>
      </trkpt>
      <trkpt lat="42.73402" lon="1.83597">
        <ele>1032</ele>
        <time>2024-06-30T06:56:54Z</time>
      </trkpt>
      <trkpt lat="42.73402" lon="1.83596">
        <ele>1032</ele>
        <time>2024-06-30T06:56:55Z</time>
      </trkpt>
      <trkpt lat="42.73403" lon="1.83594">
        <ele>1032.4</ele>
        <time>2024-06-30T06:56:56Z</time>
      </trkpt>
      <trkpt lat="42.73403" lon="1.83592">
        <ele>1033</ele>
        <time>2024-06-30T06:56:57Z</time>
      </trkpt>
      <trkpt lat="42.73404" lon="1.83592">
        <ele>1033.6</ele>
        <time>2024-06-30T06:56:58Z</time>
      </trkpt>
      <trkpt lat="42.73404" lon="1.83591">
        <ele>1033.8</ele>
        <time>2024-06-30T06:56:59Z</time>
      </trkpt>
      <trkpt lat="42.73405" lon="1.83589">
        <ele>1034</ele>
        <time>2024-06-30T06:57:00Z</time>
      </trkpt>
      <trkpt lat="42.73407" lon="1.83587">
        <ele>1034.4</ele>
        <time>2024-06-30T06:57:01Z</time>
      </trkpt>
      <trkpt lat="42.73408" lon="1.83585">
        <ele>1034.6</ele>
        <time>2024-06-30T06:57:02Z</time>
      </trkpt>
      <trkpt lat="42.73409" lon="1.83583">
        <ele>1035</ele>
        <time>2024-06-30T06:57:03Z</time>
      </trkpt>
      <trkpt lat="42.7341" lon="1.83581">
        <ele>1035.4</ele>
        <time>2024-06-30T06:57:04Z</time>
      </trkpt>
      <trkpt lat="42.73411" lon="1.83578">
        <ele>1035.8</ele>
        <time>2024-06-30T06:57:05Z</time>
      </trkpt>
      <trkpt lat="42.73411" lon="1.83577">
        <ele>1035.8</ele>
        <time>2024-06-30T06:57:06Z</time>
      </trkpt>
      <trkpt lat="42.73411" lon="1.83577">
        <ele>1036.2</ele>
        <time>2024-06-30T06:57:07Z</time>
      </trkpt>
      <trkpt lat="42.73412" lon="1.83576">
        <ele>1036.2</ele>
        <time>2024-06-30T06:57:08Z</time>
      </trkpt>
      <trkpt lat="42.73414" lon="1.83574">
        <ele>1036.4</ele>
        <time>2024-06-30T06:57:09Z</time>
      </trkpt>
      <trkpt lat="42.73415" lon="1.83573">
        <ele>1036.4</ele>
        <time>2024-06-30T06:57:10Z</time>
      </trkpt>
      <trkpt lat="42.73416" lon="1.8357">
        <ele>1036.6</ele>
        <time>2024-06-30T06:57:11Z</time>
      </trkpt>
      <trkpt lat="42.73416" lon="1.8357">
        <ele>1036.8</ele>
        <time>2024-06-30T06:57:12Z</time>
      </trkpt>
      <trkpt lat="42.73416" lon="1.83569">
        <ele>1037</ele>
        <time>2024-06-30T06:57:13Z</time>
      </trkpt>
      <trkpt lat="42.73418" lon="1.83566">
        <ele>1037.4</ele>
        <time>2024-06-30T06:57:14Z</time>
      </trkpt>
      <trkpt lat="42.73418" lon="1.83566">
        <ele>1037.6</ele>
        <time>2024-06-30T06:57:15Z</time>
      </trkpt>
      <trkpt lat="42.73418" lon="1.83566">
        <ele>1037.8</ele>
        <time>2024-06-30T06:57:16Z</time>
      </trkpt>
      <trkpt lat="42.73418" lon="1.83566">
        <ele>1038.2</ele>
        <time>2024-06-30T06:57:18Z</time>
      </trkpt>
      <trkpt lat="42.7345" lon="1.83543">
        <ele>1045.6</ele>
        <time>2024-06-30T06:58:46Z</time>
      </trkpt>
      <trkpt lat="42.73452" lon="1.83542">
        <ele>1046</ele>
        <time>2024-06-30T06:58:47Z</time>
      </trkpt>
      <trkpt lat="42.73454" lon="1.83541">
        <ele>1046.2</ele>
        <time>2024-06-30T06:58:48Z</time>
      </trkpt>
      <trkpt lat="42.73454" lon="1.8354">
        <ele>1046.4</ele>
        <time>2024-06-30T06:58:49Z</time>
      </trkpt>
      <trkpt lat="42.73454" lon="1.8354">
        <ele>1046.8</ele>
        <time>2024-06-30T06:58:51Z</time>
      </trkpt>
      <trkpt lat="42.73466" lon="1.83531">
        <ele>1047.6</ele>
        <time>2024-06-30T06:59:02Z</time>
      </trkpt>
      <trkpt lat="42.73467" lon="1.8353">
        <ele>1047.8</ele>
        <time>2024-06-30T06:59:03Z</time>
      </trkpt>
      <trkpt lat="42.73469" lon="1.83527">
        <ele>1048</ele>
        <time>2024-06-30T06:59:04Z</time>
      </trkpt>
      <trkpt lat="42.73471" lon="1.83523">
        <ele>1048.4</ele>
        <time>2024-06-30T06:59:05Z</time>
      </trkpt>
      <trkpt lat="42.73472" lon="1.83521">
        <ele>1048.4</ele>
        <time>2024-06-30T06:59:06Z</time>
      </trkpt>
      <trkpt lat="42.73473" lon="1.83519">
        <ele>1048.8</ele>
        <time>2024-06-30T06:59:07Z</time>
      </trkpt>
      <trkpt lat="42.73474" lon="1.83517">
        <ele>1048.8</ele>
        <time>2024-06-30T06:59:08Z</time>
      </trkpt>
      <trkpt lat="42.73475" lon="1.83515">
        <ele>1049</ele>
        <time>2024-06-30T06:59:09Z</time>
      </trkpt>
      <trkpt lat="42.73477" lon="1.83513">
        <ele>1049.2</ele>
        <time>2024-06-30T06:59:10Z</time>
      </trkpt>
      <trkpt lat="42.73477" lon="1.83512">
        <ele>1049.4</ele>
        <time>2024-06-30T06:59:11Z</time>
      </trkpt>
      <trkpt lat="42.73478" lon="1.8351">
        <ele>1049.6</ele>
        <time>2024-06-30T06:59:12Z</time>
      </trkpt>
      <trkpt lat="42.7348" lon="1.83508">
        <ele>1049.8</ele>
        <time>2024-06-30T06:59:13Z</time>
      </trkpt>
      <trkpt lat="42.73481" lon="1.83506">
        <ele>1050</ele>
        <time>2024-06-30T06:59:14Z</time>
      </trkpt>
      <trkpt lat="42.73482" lon="1.83505">
        <ele>1050</ele>
        <time>2024-06-30T06:59:15Z</time>
      </trkpt>
      <trkpt lat="42.73483" lon="1.83504">
        <ele>1050.2</ele>
        <time>2024-06-30T06:59:16Z</time>
      </trkpt>
      <trkpt lat="42.73484" lon="1.83502">
        <ele>1050.4</ele>
        <time>2024-06-30T06:59:17Z</time>
      </trkpt>
      <trkpt lat="42.73484" lon="1.83501">
        <ele>1050.8</ele>
        <time>2024-06-30T06:59:18Z</time>
      </trkpt>
      <trkpt lat="42.73485" lon="1.83499">
        <ele>1051</ele>
        <time>2024-06-30T06:59:19Z</time>
      </trkpt>
      <trkpt lat="42.73486" lon="1.83497">
        <ele>1051.6</ele>
        <time>2024-06-30T06:59:20Z</time>
      </trkpt>
      <trkpt lat="42.73487" lon="1.83496">
        <ele>1051.8</ele>
        <time>2024-06-30T06:59:21Z</time>
      </trkpt>
      <trkpt lat="42.73488" lon="1.83494">
        <ele>1052.2</ele>
        <time>2024-06-30T06:59:22Z</time>
      </trkpt>
      <trkpt lat="42.73489" lon="1.83492">
        <ele>1052.4</ele>
        <time>2024-06-30T06:59:23Z</time>
      </trkpt>
      <trkpt lat="42.73489" lon="1.83491">
        <ele>1052.6</ele>
        <time>2024-06-30T06:59:24Z</time>
      </trkpt>
      <trkpt lat="42.7349" lon="1.83489">
        <ele>1052.8</ele>
        <time>2024-06-30T06:59:25Z</time>
      </trkpt>
      <trkpt lat="42.73491" lon="1.83487">
        <ele>1053</ele>
        <time>2024-06-30T06:59:26Z</time>
      </trkpt>
      <trkpt lat="42.73492" lon="1.83485">
        <ele>1054</ele>
        <time>2024-06-30T06:59:27Z</time>
      </trkpt>
      <trkpt lat="42.73492" lon="1.83484">
        <ele>1054.2</ele>
        <time>2024-06-30T06:59:28Z</time>
      </trkpt>
      <trkpt lat="42.73493" lon="1.83483">
        <ele>1054.4</ele>
        <time>2024-06-30T06:59:29Z</time>
      </trkpt>
      <trkpt lat="42.73494" lon="1.83481">
        <ele>1054.6</ele>
        <time>2024-06-30T06:59:30Z</time>
      </trkpt>
      <trkpt lat="42.73494" lon="1.8348">
        <ele>1054.8</ele>
        <time>2024-06-30T06:59:31Z</time>
      </trkpt>
      <trkpt lat="42.73495" lon="1.83479">
        <ele>1055</ele>
        <time>2024-06-30T06:59:32Z</time>
      </trkpt>
      <trkpt lat="42.73495" lon="1.83478">
        <ele>1055.2</ele>
        <time>2024-06-30T06:59:33Z</time>
      </trkpt>
      <trkpt lat="42.73496" lon="1.83476">
        <ele>1055.4</ele>
        <time>2024-06-30T06:59:34Z</time>
      </trkpt>
      <trkpt lat="42.73496" lon="1.83476">
        <ele>1055.6</ele>
        <time>2024-06-30T06:59:35Z</time>
      </trkpt>
      <trkpt lat="42.73496" lon="1.83475">
        <ele>1055.8</ele>
        <time>2024-06-30T06:59:36Z</time>
      </trkpt>
      <trkpt lat="42.73496" lon="1.83475">
        <ele>1056.2</ele>
        <time>2024-06-30T06:59:38Z</time>
      </trkpt>
      <trkpt lat="42.73496" lon="1.83475">
        <ele>1056.8</ele>
        <time>2024-06-30T06:59:40Z</time>
      </trkpt>
      <trkpt lat="42.73498" lon="1.8347">
        <ele>1058.4</ele>
        <time>2024-06-30T07:00:26Z</time>
      </trkpt>
      <trkpt lat="42.73502" lon="1.83462">
        <ele>1058.8</ele>
        <time>2024-06-30T07:00:29Z</time>
      </trkpt>
      <trkpt lat="42.73506" lon="1.83457">
        <ele>1059.4</ele>
        <time>2024-06-30T07:00:31Z</time>
      </trkpt>
      <trkpt lat="42.73508" lon="1.83454">
        <ele>1059.8</ele>
        <time>2024-06-30T07:00:32Z</time>
      </trkpt>
      <trkpt lat="42.73512" lon="1.83448">
        <ele>1061</ele>
        <time>2024-06-30T07:00:34Z</time>
      </trkpt>
      <trkpt lat="42.73515" lon="1.8344">
        <ele>1062.2</ele>
        <time>2024-06-30T07:00:36Z</time>
      </trkpt>
      <trkpt lat="42.73516" lon="1.83437">
        <ele>1062.6</ele>
        <time>2024-06-30T07:00:37Z</time>
      </trkpt>
      <trkpt lat="42.73517" lon="1.83434">
        <ele>1063.2</ele>
        <time>2024-06-30T07:00:38Z</time>
      </trkpt>
      <trkpt lat="42.73518" lon="1.83431">
        <ele>1063.8</ele>
        <time>2024-06-30T07:00:39Z</time>
      </trkpt>
      <trkpt lat="42.73519" lon="1.83429">
        <ele>1064.2</ele>
        <time>2024-06-30T07:00:40Z</time>
      </trkpt>
      <trkpt lat="42.73521" lon="1.83426">
        <ele>1064.8</ele>
        <time>2024-06-30T07:00:41Z</time>
      </trkpt>
      <trkpt lat="42.73522" lon="1.83424">
        <ele>1065</ele>
        <time>2024-06-30T07:00:42Z</time>
      </trkpt>
      <trkpt lat="42.73523" lon="1.83422">
        <ele>1065.6</ele>
        <time>2024-06-30T07:00:43Z</time>
      </trkpt>
      <trkpt lat="42.73525" lon="1.83419">
        <ele>1066</ele>
        <time>2024-06-30T07:00:44Z</time>
      </trkpt>
      <trkpt lat="42.73526" lon="1.83416">
        <ele>1066.6</ele>
        <time>2024-06-30T07:00:45Z</time>
      </trkpt>
      <trkpt lat="42.73528" lon="1.83413">
        <ele>1067</ele>
        <time>2024-06-30T07:00:46Z</time>
      </trkpt>
      <trkpt lat="42.73528" lon="1.83411">
        <ele>1067.2</ele>
        <time>2024-06-30T07:00:47Z</time>
      </trkpt>
      <trkpt lat="42.7353" lon="1.83408">
        <ele>1067.8</ele>
        <time>2024-06-30T07:00:48Z</time>
      </trkpt>
      <trkpt lat="42.73532" lon="1.83405">
        <ele>1068</ele>
        <time>2024-06-30T07:00:49Z</time>
      </trkpt>
      <trkpt lat="42.73533" lon="1.83403">
        <ele>1068.6</ele>
        <time>2024-06-30T07:00:50Z</time>
      </trkpt>
      <trkpt lat="42.73534" lon="1.83401">
        <ele>1068.6</ele>
        <time>2024-06-30T07:00:51Z</time>
      </trkpt>
      <trkpt lat="42.73536" lon="1.83398">
        <ele>1069</ele>
        <time>2024-06-30T07:00:52Z</time>
      </trkpt>
      <trkpt lat="42.73537" lon="1.83395">
        <ele>1069.2</ele>
        <time>2024-06-30T07:00:53Z</time>
      </trkpt>
      <trkpt lat="42.73537" lon="1.83395">
        <ele>1069.4</ele>
        <time>2024-06-30T07:00:54Z</time>
      </trkpt>
      <trkpt lat="42.73539" lon="1.83393">
        <ele>1069.8</ele>
        <time>2024-06-30T07:00:55Z</time>
      </trkpt>
      <trkpt lat="42.73541" lon="1.8339">
        <ele>1070</ele>
        <time>2024-06-30T07:00:56Z</time>
      </trkpt>
      <trkpt lat="42.73542" lon="1.83387">
        <ele>1070.6</ele>
        <time>2024-06-30T07:00:57Z</time>
      </trkpt>
      <trkpt lat="42.73543" lon="1.83385">
        <ele>1070.8</ele>
        <time>2024-06-30T07:00:58Z</time>
      </trkpt>
      <trkpt lat="42.73544" lon="1.83382">
        <ele>1071.4</ele>
        <time>2024-06-30T07:00:59Z</time>
      </trkpt>
      <trkpt lat="42.73545" lon="1.8338">
        <ele>1071.6</ele>
        <time>2024-06-30T07:01:00Z</time>
      </trkpt>
      <trkpt lat="42.73546" lon="1.83378">
        <ele>1072.2</ele>
        <time>2024-06-30T07:01:01Z</time>
      </trkpt>
      <trkpt lat="42.73547" lon="1.83375">
        <ele>1072.4</ele>
        <time>2024-06-30T07:01:02Z</time>
      </trkpt>
      <trkpt lat="42.73548" lon="1.83372">
        <ele>1072.6</ele>
        <time>2024-06-30T07:01:03Z</time>
      </trkpt>
      <trkpt lat="42.73548" lon="1.8337">
        <ele>1073</ele>
        <time>2024-06-30T07:01:04Z</time>
      </trkpt>
      <trkpt lat="42.73549" lon="1.8337">
        <ele>1073.2</ele>
        <time>2024-06-30T07:01:05Z</time>
      </trkpt>
      <trkpt lat="42.7355" lon="1.83368">
        <ele>1073.4</ele>
        <time>2024-06-30T07:01:06Z</time>
      </trkpt>
      <trkpt lat="42.7355" lon="1.83366">
        <ele>1073.6</ele>
        <time>2024-06-30T07:01:07Z</time>
      </trkpt>
      <trkpt lat="42.73551" lon="1.83365">
        <ele>1074.2</ele>
        <time>2024-06-30T07:01:08Z</time>
      </trkpt>
      <trkpt lat="42.73552" lon="1.83363">
        <ele>1074.4</ele>
        <time>2024-06-30T07:01:09Z</time>
      </trkpt>
      <trkpt lat="42.73553" lon="1.83362">
        <ele>1074.6</ele>
        <time>2024-06-30T07:01:10Z</time>
      </trkpt>
      <trkpt lat="42.73554" lon="1.8336">
        <ele>1075</ele>
        <time>2024-06-30T07:01:11Z</time>
      </trkpt>
      <trkpt lat="42.73554" lon="1.83359">
        <ele>1075.4</ele>
        <time>2024-06-30T07:01:12Z</time>
      </trkpt>
      <trkpt lat="42.73555" lon="1.83358">
        <ele>1075.6</ele>
        <time>2024-06-30T07:01:13Z</time>
      </trkpt>
      <trkpt lat="42.73556" lon="1.83357">
        <ele>1075.8</ele>
        <time>2024-06-30T07:01:14Z</time>
      </trkpt>
      <trkpt lat="42.73557" lon="1.83356">
        <ele>1076.4</ele>
        <time>2024-06-30T07:01:15Z</time>
      </trkpt>
      <trkpt lat="42.73558" lon="1.83356">
        <ele>1076.4</ele>
        <time>2024-06-30T07:01:16Z</time>
      </trkpt>
      <trkpt lat="42.73558" lon="1.83355">
        <ele>1076.6</ele>
        <time>2024-06-30T07:01:17Z</time>
      </trkpt>
      <trkpt lat="42.73559" lon="1.83354">
        <ele>1076.8</ele>
        <time>2024-06-30T07:01:18Z</time>
      </trkpt>
      <trkpt lat="42.73559" lon="1.83352">
        <ele>1077</ele>
        <time>2024-06-30T07:01:19Z</time>
      </trkpt>
      <trkpt lat="42.7356" lon="1.83351">
        <ele>1077.2</ele>
        <time>2024-06-30T07:01:20Z</time>
      </trkpt>
      <trkpt lat="42.73561" lon="1.8335">
        <ele>1077.6</ele>
        <time>2024-06-30T07:01:21Z</time>
      </trkpt>
      <trkpt lat="42.73561" lon="1.83349">
        <ele>1077.8</ele>
        <time>2024-06-30T07:01:22Z</time>
      </trkpt>
      <trkpt lat="42.73561" lon="1.83348">
        <ele>1078</ele>
        <time>2024-06-30T07:01:23Z</time>
      </trkpt>
      <trkpt lat="42.73562" lon="1.83347">
        <ele>1078.2</ele>
        <time>2024-06-30T07:01:24Z</time>
      </trkpt>
      <trkpt lat="42.73563" lon="1.83346">
        <ele>1078.2</ele>
        <time>2024-06-30T07:01:25Z</time>
      </trkpt>
      <trkpt lat="42.73563" lon="1.83344">
        <ele>1078.6</ele>
        <time>2024-06-30T07:01:26Z</time>
      </trkpt>
      <trkpt lat="42.73564" lon="1.83342">
        <ele>1078.6</ele>
        <time>2024-06-30T07:01:27Z</time>
      </trkpt>
      <trkpt lat="42.73565" lon="1.8334">
        <ele>1078.8</ele>
        <time>2024-06-30T07:01:28Z</time>
      </trkpt>
      <trkpt lat="42.73565" lon="1.83338">
        <ele>1079</ele>
        <time>2024-06-30T07:01:29Z</time>
      </trkpt>
      <trkpt lat="42.73566" lon="1.83336">
        <ele>1079.2</ele>
        <time>2024-06-30T07:01:30Z</time>
      </trkpt>
      <trkpt lat="42.73567" lon="1.83334">
        <ele>1079.6</ele>
        <time>2024-06-30T07:01:31Z</time>
      </trkpt>
      <trkpt lat="42.73568" lon="1.83332">
        <ele>1079.6</ele>
        <time>2024-06-30T07:01:32Z</time>
      </trkpt>
      <trkpt lat="42.73568" lon="1.83331">
        <ele>1079.8</ele>
        <time>2024-06-30T07:01:33Z</time>
      </trkpt>
      <trkpt lat="42.73568" lon="1.83329">
        <ele>1080</ele>
        <time>2024-06-30T07:01:34Z</time>
      </trkpt>
      <trkpt lat="42.73569" lon="1.83328">
        <ele>1080.4</ele>
        <time>2024-06-30T07:01:35Z</time>
      </trkpt>
      <trkpt lat="42.7357" lon="1.83326">
        <ele>1080.6</ele>
        <time>2024-06-30T07:01:36Z</time>
      </trkpt>
      <trkpt lat="42.7357" lon="1.83324">
        <ele>1081</ele>
        <time>2024-06-30T07:01:37Z</time>
      </trkpt>
      <trkpt lat="42.73571" lon="1.83322">
        <ele>1081.2</ele>
        <time>2024-06-30T07:01:38Z</time>
      </trkpt>
      <trkpt lat="42.73571" lon="1.83321">
        <ele>1081.6</ele>
        <time>2024-06-30T07:01:39Z</time>
      </trkpt>
      <trkpt lat="42.73572" lon="1.83317">
        <ele>1081.8</ele>
        <time>2024-06-30T07:01:40Z</time>
      </trkpt>
      <trkpt lat="42.73573" lon="1.83316">
        <ele>1082</ele>
        <time>2024-06-30T07:01:41Z</time>
      </trkpt>
      <trkpt lat="42.73574" lon="1.83314">
        <ele>1082.2</ele>
        <time>2024-06-30T07:01:42Z</time>
      </trkpt>
      <trkpt lat="42.73575" lon="1.83312">
        <ele>1082.2</ele>
        <time>2024-06-30T07:01:43Z</time>
      </trkpt>
      <trkpt lat="42.73576" lon="1.83309">
        <ele>1082.4</ele>
        <time>2024-06-30T07:01:44Z</time>
      </trkpt>
      <trkpt lat="42.73577" lon="1.83306">
        <ele>1082.6</ele>
        <time>2024-06-30T07:01:45Z</time>
      </trkpt>
      <trkpt lat="42.73578" lon="1.83303">
        <ele>1082.8</ele>
        <time>2024-06-30T07:01:46Z</time>
      </trkpt>
      <trkpt lat="42.73579" lon="1.83299">
        <ele>1083</ele>
        <time>2024-06-30T07:01:47Z</time>
      </trkpt>
      <trkpt lat="42.7358" lon="1.83296">
        <ele>1083.2</ele>
        <time>2024-06-30T07:01:48Z</time>
      </trkpt>
      <trkpt lat="42.73583" lon="1.83292">
        <ele>1083.2</ele>
        <time>2024-06-30T07:01:49Z</time>
      </trkpt>
      <trkpt lat="42.73584" lon="1.83289">
        <ele>1083.4</ele>
        <time>2024-06-30T07:01:50Z</time>
      </trkpt>
      <trkpt lat="42.73585" lon="1.83287">
        <ele>1083.6</ele>
        <time>2024-06-30T07:01:51Z</time>
      </trkpt>
      <trkpt lat="42.73586" lon="1.83284">
        <ele>1083.6</ele>
        <time>2024-06-30T07:01:52Z</time>
      </trkpt>
      <trkpt lat="42.73587" lon="1.83283">
        <ele>1084</ele>
        <time>2024-06-30T07:01:53Z</time>
      </trkpt>
      <trkpt lat="42.73588" lon="1.83281">
        <ele>1084.2</ele>
        <time>2024-06-30T07:01:54Z</time>
      </trkpt>
      <trkpt lat="42.7359" lon="1.83278">
        <ele>1085</ele>
        <time>2024-06-30T07:01:55Z</time>
      </trkpt>
      <trkpt lat="42.73591" lon="1.83276">
        <ele>1085.2</ele>
        <time>2024-06-30T07:01:56Z</time>
      </trkpt>
      <trkpt lat="42.73593" lon="1.83273">
        <ele>1085.6</ele>
        <time>2024-06-30T07:01:57Z</time>
      </trkpt>
      <trkpt lat="42.73594" lon="1.8327">
        <ele>1085.8</ele>
        <time>2024-06-30T07:01:58Z</time>
      </trkpt>
      <trkpt lat="42.73596" lon="1.83268">
        <ele>1086</ele>
        <time>2024-06-30T07:01:59Z</time>
      </trkpt>
      <trkpt lat="42.73597" lon="1.83265">
        <ele>1086.2</ele>
        <time>2024-06-30T07:02:00Z</time>
      </trkpt>
      <trkpt lat="42.73599" lon="1.83262">
        <ele>1086.4</ele>
        <time>2024-06-30T07:02:01Z</time>
      </trkpt>
      <trkpt lat="42.736" lon="1.83258">
        <ele>1086.8</ele>
        <time>2024-06-30T07:02:02Z</time>
      </trkpt>
      <trkpt lat="42.73602" lon="1.83256">
        <ele>1087</ele>
        <time>2024-06-30T07:02:03Z</time>
      </trkpt>
      <trkpt lat="42.73603" lon="1.83253">
        <ele>1087.2</ele>
        <time>2024-06-30T07:02:04Z</time>
      </trkpt>
      <trkpt lat="42.73604" lon="1.83251">
        <ele>1087.4</ele>
        <time>2024-06-30T07:02:05Z</time>
      </trkpt>
      <trkpt lat="42.73606" lon="1.83249">
        <ele>1087.8</ele>
        <time>2024-06-30T07:02:06Z</time>
      </trkpt>
      <trkpt lat="42.73607" lon="1.83248">
        <ele>1088.4</ele>
        <time>2024-06-30T07:02:07Z</time>
      </trkpt>
      <trkpt lat="42.73609" lon="1.83246">
        <ele>1088.8</ele>
        <time>2024-06-30T07:02:08Z</time>
      </trkpt>
      <trkpt lat="42.73611" lon="1.83243">
        <ele>1089.2</ele>
        <time>2024-06-30T07:02:09Z</time>
      </trkpt>
      <trkpt lat="42.73612" lon="1.83241">
        <ele>1089.4</ele>
        <time>2024-06-30T07:02:10Z</time>
      </trkpt>
      <trkpt lat="42.73614" lon="1.83238">
        <ele>1089.8</ele>
        <time>2024-06-30T07:02:11Z</time>
      </trkpt>
      <trkpt lat="42.73615" lon="1.83234">
        <ele>1089.8</ele>
        <time>2024-06-30T07:02:12Z</time>
      </trkpt>
      <trkpt lat="42.73616" lon="1.83231">
        <ele>1090.4</ele>
        <time>2024-06-30T07:02:13Z</time>
      </trkpt>
      <trkpt lat="42.73617" lon="1.83228">
        <ele>1090.6</ele>
        <time>2024-06-30T07:02:14Z</time>
      </trkpt>
      <trkpt lat="42.73619" lon="1.83224">
        <ele>1090.8</ele>
        <time>2024-06-30T07:02:15Z</time>
      </trkpt>
      <trkpt lat="42.7362" lon="1.8322">
        <ele>1091</ele>
        <time>2024-06-30T07:02:16Z</time>
      </trkpt>
      <trkpt lat="42.73622" lon="1.83217">
        <ele>1091.2</ele>
        <time>2024-06-30T07:02:17Z</time>
      </trkpt>
      <trkpt lat="42.73623" lon="1.83212">
        <ele>1091.4</ele>
        <time>2024-06-30T07:02:18Z</time>
      </trkpt>
      <trkpt lat="42.73624" lon="1.83208">
        <ele>1091.6</ele>
        <time>2024-06-30T07:02:19Z</time>
      </trkpt>
      <trkpt lat="42.73625" lon="1.83204">
        <ele>1091.8</ele>
        <time>2024-06-30T07:02:20Z</time>
      </trkpt>
      <trkpt lat="42.73627" lon="1.83202">
        <ele>1092.2</ele>
        <time>2024-06-30T07:02:21Z</time>
      </trkpt>
      <trkpt lat="42.73629" lon="1.83199">
        <ele>1092.8</ele>
        <time>2024-06-30T07:02:22Z</time>
      </trkpt>
      <trkpt lat="42.73634" lon="1.83197">
        <ele>1093</ele>
        <time>2024-06-30T07:02:23Z</time>
      </trkpt>
      <trkpt lat="42.73638" lon="1.83196">
        <ele>1093.2</ele>
        <time>2024-06-30T07:02:24Z</time>
      </trkpt>
      <trkpt lat="42.73643" lon="1.83194">
        <ele>1093.2</ele>
        <time>2024-06-30T07:02:25Z</time>
      </trkpt>
      <trkpt lat="42.73646" lon="1.8319">
        <ele>1093.2</ele>
        <time>2024-06-30T07:02:26Z</time>
      </trkpt>
      <trkpt lat="42.73651" lon="1.83185">
        <ele>1093.2</ele>
        <time>2024-06-30T07:02:27Z</time>
      </trkpt>
      <trkpt lat="42.73654" lon="1.83182">
        <ele>1093.2</ele>
        <time>2024-06-30T07:02:28Z</time>
      </trkpt>
      <trkpt lat="42.73658" lon="1.83178">
        <ele>1093.2</ele>
        <time>2024-06-30T07:02:29Z</time>
      </trkpt>
      <trkpt lat="42.73661" lon="1.83175">
        <ele>1093.4</ele>
        <time>2024-06-30T07:02:30Z</time>
      </trkpt>
      <trkpt lat="42.73663" lon="1.83172">
        <ele>1093.4</ele>
        <time>2024-06-30T07:02:31Z</time>
      </trkpt>
      <trkpt lat="42.73665" lon="1.83171">
        <ele>1093.4</ele>
        <time>2024-06-30T07:02:32Z</time>
      </trkpt>
      <trkpt lat="42.73668" lon="1.83169">
        <ele>1093.2</ele>
        <time>2024-06-30T07:02:33Z</time>
      </trkpt>
      <trkpt lat="42.7367" lon="1.83167">
        <ele>1093.2</ele>
        <time>2024-06-30T07:02:34Z</time>
      </trkpt>
      <trkpt lat="42.73672" lon="1.83165">
        <ele>1093.2</ele>
        <time>2024-06-30T07:02:35Z</time>
      </trkpt>
      <trkpt lat="42.73673" lon="1.83164">
        <ele>1093.6</ele>
        <time>2024-06-30T07:02:36Z</time>
      </trkpt>
      <trkpt lat="42.73675" lon="1.83163">
        <ele>1093.6</ele>
        <time>2024-06-30T07:02:37Z</time>
      </trkpt>
      <trkpt lat="42.73677" lon="1.83161">
        <ele>1094</ele>
        <time>2024-06-30T07:02:38Z</time>
      </trkpt>
      <trkpt lat="42.7368" lon="1.83161">
        <ele>1094</ele>
        <time>2024-06-30T07:02:39Z</time>
      </trkpt>
      <trkpt lat="42.73682" lon="1.83161">
        <ele>1094.8</ele>
        <time>2024-06-30T07:02:40Z</time>
      </trkpt>
      <trkpt lat="42.73684" lon="1.83162">
        <ele>1095</ele>
        <time>2024-06-30T07:02:41Z</time>
      </trkpt>
      <trkpt lat="42.73686" lon="1.83164">
        <ele>1095.2</ele>
        <time>2024-06-30T07:02:42Z</time>
      </trkpt>
      <trkpt lat="42.73687" lon="1.83166">
        <ele>1095.4</ele>
        <time>2024-06-30T07:02:43Z</time>
      </trkpt>
      <trkpt lat="42.73689" lon="1.83171">
        <ele>1095.4</ele>
        <time>2024-06-30T07:02:44Z</time>
      </trkpt>
      <trkpt lat="42.73691" lon="1.83174">
        <ele>1095.4</ele>
        <time>2024-06-30T07:02:45Z</time>
      </trkpt>
      <trkpt lat="42.73692" lon="1.83177">
        <ele>1095.4</ele>
        <time>2024-06-30T07:02:46Z</time>
      </trkpt>
      <trkpt lat="42.73693" lon="1.83182">
        <ele>1095.6</ele>
        <time>2024-06-30T07:02:47Z</time>
      </trkpt>
      <trkpt lat="42.73694" lon="1.83186">
        <ele>1095.6</ele>
        <time>2024-06-30T07:02:48Z</time>
      </trkpt>
      <trkpt lat="42.73696" lon="1.8319">
        <ele>1095.8</ele>
        <time>2024-06-30T07:02:49Z</time>
      </trkpt>
      <trkpt lat="42.73698" lon="1.83194">
        <ele>1095.8</ele>
        <time>2024-06-30T07:02:50Z</time>
      </trkpt>
      <trkpt lat="42.737" lon="1.83198">
        <ele>1095.8</ele>
        <time>2024-06-30T07:02:51Z</time>
      </trkpt>
      <trkpt lat="42.73704" lon="1.83203">
        <ele>1095.8</ele>
        <time>2024-06-30T07:02:52Z</time>
      </trkpt>
      <trkpt lat="42.73706" lon="1.83206">
        <ele>1095.8</ele>
        <time>2024-06-30T07:02:53Z</time>
      </trkpt>
      <trkpt lat="42.73709" lon="1.83209">
        <ele>1095.8</ele>
        <time>2024-06-30T07:02:54Z</time>
      </trkpt>
      <trkpt lat="42.73711" lon="1.8321">
        <ele>1096</ele>
        <time>2024-06-30T07:02:55Z</time>
      </trkpt>
      <trkpt lat="42.73714" lon="1.83213">
        <ele>1096</ele>
        <time>2024-06-30T07:02:56Z</time>
      </trkpt>
      <trkpt lat="42.73717" lon="1.83216">
        <ele>1096</ele>
        <time>2024-06-30T07:02:57Z</time>
      </trkpt>
      <trkpt lat="42.73719" lon="1.8322">
        <ele>1096.6</ele>
        <time>2024-06-30T07:02:58Z</time>
      </trkpt>
      <trkpt lat="42.73722" lon="1.83222">
        <ele>1096.8</ele>
        <time>2024-06-30T07:02:59Z</time>
      </trkpt>
      <trkpt lat="42.73725" lon="1.83225">
        <ele>1097</ele>
        <time>2024-06-30T07:03:00Z</time>
      </trkpt>
      <trkpt lat="42.73729" lon="1.83227">
        <ele>1097.2</ele>
        <time>2024-06-30T07:03:01Z</time>
      </trkpt>
      <trkpt lat="42.73732" lon="1.83229">
        <ele>1097.2</ele>
        <time>2024-06-30T07:03:02Z</time>
      </trkpt>
      <trkpt lat="42.73736" lon="1.8323">
        <ele>1097.2</ele>
        <time>2024-06-30T07:03:03Z</time>
      </trkpt>
      <trkpt lat="42.73739" lon="1.83231">
        <ele>1097.4</ele>
        <time>2024-06-30T07:03:04Z</time>
      </trkpt>
      <trkpt lat="42.73742" lon="1.83232">
        <ele>1097.8</ele>
        <time>2024-06-30T07:03:05Z</time>
      </trkpt>
      <trkpt lat="42.73746" lon="1.83233">
        <ele>1098</ele>
        <time>2024-06-30T07:03:06Z</time>
      </trkpt>
      <trkpt lat="42.7375" lon="1.83234">
        <ele>1098.2</ele>
        <time>2024-06-30T07:03:07Z</time>
      </trkpt>
      <trkpt lat="42.73753" lon="1.83233">
        <ele>1098.2</ele>
        <time>2024-06-30T07:03:08Z</time>
      </trkpt>
      <trkpt lat="42.73757" lon="1.83233">
        <ele>1098.4</ele>
        <time>2024-06-30T07:03:09Z</time>
      </trkpt>
      <trkpt lat="42.73761" lon="1.83233">
        <ele>1098.6</ele>
        <time>2024-06-30T07:03:10Z</time>
      </trkpt>
      <trkpt lat="42.73765" lon="1.83234">
        <ele>1098.8</ele>
        <time>2024-06-30T07:03:11Z</time>
      </trkpt>
      <trkpt lat="42.73769" lon="1.83235">
        <ele>1099</ele>
        <time>2024-06-30T07:03:12Z</time>
      </trkpt>
      <trkpt lat="42.73773" lon="1.83235">
        <ele>1099.4</ele>
        <time>2024-06-30T07:03:13Z</time>
      </trkpt>
      <trkpt lat="42.73778" lon="1.83234">
        <ele>1099.8</ele>
        <time>2024-06-30T07:03:14Z</time>
      </trkpt>
      <trkpt lat="42.73783" lon="1.83232">
        <ele>1100.2</ele>
        <time>2024-06-30T07:03:15Z</time>
      </trkpt>
      <trkpt lat="42.73789" lon="1.8323">
        <ele>1100.6</ele>
        <time>2024-06-30T07:03:16Z</time>
      </trkpt>
      <trkpt lat="42.73793" lon="1.83229">
        <ele>1100.6</ele>
        <time>2024-06-30T07:03:17Z</time>
      </trkpt>
      <trkpt lat="42.73798" lon="1.83228">
        <ele>1100.8</ele>
        <time>2024-06-30T07:03:18Z</time>
      </trkpt>
      <trkpt lat="42.73802" lon="1.83227">
        <ele>1101.2</ele>
        <time>2024-06-30T07:03:19Z</time>
      </trkpt>
      <trkpt lat="42.73805" lon="1.83227">
        <ele>1101.4</ele>
        <time>2024-06-30T07:03:20Z</time>
      </trkpt>
      <trkpt lat="42.7381" lon="1.83227">
        <ele>1102</ele>
        <time>2024-06-30T07:03:21Z</time>
      </trkpt>
      <trkpt lat="42.73813" lon="1.83227">
        <ele>1102.2</ele>
        <time>2024-06-30T07:03:22Z</time>
      </trkpt>
      <trkpt lat="42.73816" lon="1.83226">
        <ele>1102.4</ele>
        <time>2024-06-30T07:03:23Z</time>
      </trkpt>
      <trkpt lat="42.73819" lon="1.83227">
        <ele>1102.4</ele>
        <time>2024-06-30T07:03:24Z</time>
      </trkpt>
      <trkpt lat="42.73821" lon="1.83227">
        <ele>1102.8</ele>
        <time>2024-06-30T07:03:25Z</time>
      </trkpt>
      <trkpt lat="42.73824" lon="1.83227">
        <ele>1103</ele>
        <time>2024-06-30T07:03:26Z</time>
      </trkpt>
      <trkpt lat="42.73827" lon="1.83228">
        <ele>1103.6</ele>
        <time>2024-06-30T07:03:27Z</time>
      </trkpt>
      <trkpt lat="42.73829" lon="1.83228">
        <ele>1103.8</ele>
        <time>2024-06-30T07:03:28Z</time>
      </trkpt>
      <trkpt lat="42.73831" lon="1.83228">
        <ele>1104</ele>
        <time>2024-06-30T07:03:29Z</time>
      </trkpt>
      <trkpt lat="42.73833" lon="1.83229">
        <ele>1104.4</ele>
        <time>2024-06-30T07:03:30Z</time>
      </trkpt>
      <trkpt lat="42.73834" lon="1.83229">
        <ele>1104.6</ele>
        <time>2024-06-30T07:03:31Z</time>
      </trkpt>
      <trkpt lat="42.73837" lon="1.83231">
        <ele>1105</ele>
        <time>2024-06-30T07:03:32Z</time>
      </trkpt>
      <trkpt lat="42.7384" lon="1.83231">
        <ele>1105.2</ele>
        <time>2024-06-30T07:03:33Z</time>
      </trkpt>
      <trkpt lat="42.73842" lon="1.83232">
        <ele>1105.4</ele>
        <time>2024-06-30T07:03:34Z</time>
      </trkpt>
      <trkpt lat="42.73843" lon="1.83232">
        <ele>1105.4</ele>
        <time>2024-06-30T07:03:35Z</time>
      </trkpt>
      <trkpt lat="42.73845" lon="1.83233">
        <ele>1105.6</ele>
        <time>2024-06-30T07:03:36Z</time>
      </trkpt>
      <trkpt lat="42.73847" lon="1.83234">
        <ele>1105.6</ele>
        <time>2024-06-30T07:03:37Z</time>
      </trkpt>
      <trkpt lat="42.73848" lon="1.83235">
        <ele>1105.8</ele>
        <time>2024-06-30T07:03:38Z</time>
      </trkpt>
      <trkpt lat="42.7385" lon="1.83236">
        <ele>1106.4</ele>
        <time>2024-06-30T07:03:39Z</time>
      </trkpt>
      <trkpt lat="42.73852" lon="1.83238">
        <ele>1106.6</ele>
        <time>2024-06-30T07:03:40Z</time>
      </trkpt>
      <trkpt lat="42.73854" lon="1.83239">
        <ele>1107.4</ele>
        <time>2024-06-30T07:03:41Z</time>
      </trkpt>
      <trkpt lat="42.73856" lon="1.83241">
        <ele>1107.6</ele>
        <time>2024-06-30T07:03:42Z</time>
      </trkpt>
      <trkpt lat="42.73858" lon="1.83242">
        <ele>1108.6</ele>
        <time>2024-06-30T07:03:43Z</time>
      </trkpt>
      <trkpt lat="42.7386" lon="1.83243">
        <ele>1109.2</ele>
        <time>2024-06-30T07:03:44Z</time>
      </trkpt>
      <trkpt lat="42.73862" lon="1.83243">
        <ele>1109.8</ele>
        <time>2024-06-30T07:03:45Z</time>
      </trkpt>
      <trkpt lat="42.73864" lon="1.83244">
        <ele>1110</ele>
        <time>2024-06-30T07:03:46Z</time>
      </trkpt>
      <trkpt lat="42.73866" lon="1.83245">
        <ele>1110.4</ele>
        <time>2024-06-30T07:03:47Z</time>
      </trkpt>
      <trkpt lat="42.73868" lon="1.83246">
        <ele>1111</ele>
        <time>2024-06-30T07:03:48Z</time>
      </trkpt>
      <trkpt lat="42.7387" lon="1.83247">
        <ele>1111.2</ele>
        <time>2024-06-30T07:03:49Z</time>
      </trkpt>
      <trkpt lat="42.73872" lon="1.83248">
        <ele>1112</ele>
        <time>2024-06-30T07:03:50Z</time>
      </trkpt>
      <trkpt lat="42.73873" lon="1.8325">
        <ele>1112.4</ele>
        <time>2024-06-30T07:03:51Z</time>
      </trkpt>
      <trkpt lat="42.73875" lon="1.83251">
        <ele>1113.4</ele>
        <time>2024-06-30T07:03:52Z</time>
      </trkpt>
      <trkpt lat="42.73876" lon="1.83251">
        <ele>1113.6</ele>
        <time>2024-06-30T07:03:53Z</time>
      </trkpt>
      <trkpt lat="42.73877" lon="1.83251">
        <ele>1114.2</ele>
        <time>2024-06-30T07:03:54Z</time>
      </trkpt>
      <trkpt lat="42.73879" lon="1.83252">
        <ele>1114.4</ele>
        <time>2024-06-30T07:03:55Z</time>
      </trkpt>
      <trkpt lat="42.73881" lon="1.83252">
        <ele>1115.2</ele>
        <time>2024-06-30T07:03:56Z</time>
      </trkpt>
      <trkpt lat="42.73882" lon="1.83252">
        <ele>1115.8</ele>
        <time>2024-06-30T07:03:57Z</time>
      </trkpt>
      <trkpt lat="42.73882" lon="1.83254">
        <ele>1116</ele>
        <time>2024-06-30T07:03:58Z</time>
      </trkpt>
      <trkpt lat="42.73881" lon="1.83256">
        <ele>1116.8</ele>
        <time>2024-06-30T07:03:59Z</time>
      </trkpt>
      <trkpt lat="42.7388" lon="1.83256">
        <ele>1117.4</ele>
        <time>2024-06-30T07:04:00Z</time>
      </trkpt>
      <trkpt lat="42.73879" lon="1.83258">
        <ele>1118.2</ele>
        <time>2024-06-30T07:04:01Z</time>
      </trkpt>
      <trkpt lat="42.73879" lon="1.83259">
        <ele>1118.6</ele>
        <time>2024-06-30T07:04:02Z</time>
      </trkpt>
      <trkpt lat="42.73879" lon="1.83261">
        <ele>1119</ele>
        <time>2024-06-30T07:04:03Z</time>
      </trkpt>
      <trkpt lat="42.7388" lon="1.83263">
        <ele>1119.2</ele>
        <time>2024-06-30T07:04:04Z</time>
      </trkpt>
      <trkpt lat="42.73881" lon="1.83264">
        <ele>1119.6</ele>
        <time>2024-06-30T07:04:05Z</time>
      </trkpt>
      <trkpt lat="42.73882" lon="1.83265">
        <ele>1120</ele>
        <time>2024-06-30T07:04:06Z</time>
      </trkpt>
      <trkpt lat="42.73883" lon="1.83266">
        <ele>1120.2</ele>
        <time>2024-06-30T07:04:07Z</time>
      </trkpt>
      <trkpt lat="42.73884" lon="1.83266">
        <ele>1120.6</ele>
        <time>2024-06-30T07:04:08Z</time>
      </trkpt>
      <trkpt lat="42.73885" lon="1.83267">
        <ele>1120.8</ele>
        <time>2024-06-30T07:04:09Z</time>
      </trkpt>
      <trkpt lat="42.73886" lon="1.83267">
        <ele>1121.4</ele>
        <time>2024-06-30T07:04:10Z</time>
      </trkpt>
      <trkpt lat="42.73888" lon="1.83268">
        <ele>1121.6</ele>
        <time>2024-06-30T07:04:11Z</time>
      </trkpt>
      <trkpt lat="42.73889" lon="1.83268">
        <ele>1122.2</ele>
        <time>2024-06-30T07:04:12Z</time>
      </trkpt>
      <trkpt lat="42.7389" lon="1.83269">
        <ele>1122.6</ele>
        <time>2024-06-30T07:04:13Z</time>
      </trkpt>
      <trkpt lat="42.73891" lon="1.83269">
        <ele>1123.2</ele>
        <time>2024-06-30T07:04:14Z</time>
      </trkpt>
      <trkpt lat="42.73891" lon="1.83269">
        <ele>1123.6</ele>
        <time>2024-06-30T07:04:15Z</time>
      </trkpt>
      <trkpt lat="42.73892" lon="1.83269">
        <ele>1123.8</ele>
        <time>2024-06-30T07:04:16Z</time>
      </trkpt>
      <trkpt lat="42.73893" lon="1.8327">
        <ele>1124.6</ele>
        <time>2024-06-30T07:04:17Z</time>
      </trkpt>
      <trkpt lat="42.73895" lon="1.83271">
        <ele>1124.8</ele>
        <time>2024-06-30T07:04:18Z</time>
      </trkpt>
      <trkpt lat="42.73896" lon="1.83271">
        <ele>1125.2</ele>
        <time>2024-06-30T07:04:19Z</time>
      </trkpt>
      <trkpt lat="42.73897" lon="1.83272">
        <ele>1125.4</ele>
        <time>2024-06-30T07:04:20Z</time>
      </trkpt>
      <trkpt lat="42.73899" lon="1.83273">
        <ele>1126</ele>
        <time>2024-06-30T07:04:21Z</time>
      </trkpt>
      <trkpt lat="42.739" lon="1.83274">
        <ele>1126.2</ele>
        <time>2024-06-30T07:04:22Z</time>
      </trkpt>
      <trkpt lat="42.739" lon="1.83274">
        <ele>1126.4</ele>
        <time>2024-06-30T07:04:23Z</time>
      </trkpt>
      <trkpt lat="42.73901" lon="1.83274">
        <ele>1126.8</ele>
        <time>2024-06-30T07:04:24Z</time>
      </trkpt>
      <trkpt lat="42.73901" lon="1.83274">
        <ele>1127</ele>
        <time>2024-06-30T07:04:25Z</time>
      </trkpt>
      <trkpt lat="42.73901" lon="1.83274">
        <ele>1127.6</ele>
        <time>2024-06-30T07:04:26Z</time>
      </trkpt>
      <trkpt lat="42.73908" lon="1.83282">
        <ele>1134.2</ele>
        <time>2024-06-30T07:05:19Z</time>
      </trkpt>
      <trkpt lat="42.7391" lon="1.83286">
        <ele>1134.2</ele>
        <time>2024-06-30T07:05:21Z</time>
      </trkpt>
      <trkpt lat="42.73912" lon="1.83288">
        <ele>1134.2</ele>
        <time>2024-06-30T07:05:22Z</time>
      </trkpt>
      <trkpt lat="42.73914" lon="1.83291">
        <ele>1134.2</ele>
        <time>2024-06-30T07:05:23Z</time>
      </trkpt>
      <trkpt lat="42.73921" lon="1.83301">
        <ele>1135.2</ele>
        <time>2024-06-30T07:05:26Z</time>
      </trkpt>
      <trkpt lat="42.73923" lon="1.83305">
        <ele>1136.4</ele>
        <time>2024-06-30T07:05:28Z</time>
      </trkpt>
      <trkpt lat="42.73923" lon="1.83307">
        <ele>1137.4</ele>
        <time>2024-06-30T07:05:29Z</time>
      </trkpt>
      <trkpt lat="42.73923" lon="1.83309">
        <ele>1137.6</ele>
        <time>2024-06-30T07:05:30Z</time>
      </trkpt>
      <trkpt lat="42.73922" lon="1.8331">
        <ele>1138.6</ele>
        <time>2024-06-30T07:05:31Z</time>
      </trkpt>
      <trkpt lat="42.73922" lon="1.8331">
        <ele>1139</ele>
        <time>2024-06-30T07:05:32Z</time>
      </trkpt>
      <trkpt lat="42.73922" lon="1.8331">
        <ele>1140</ele>
        <time>2024-06-30T07:05:33Z</time>
      </trkpt>
      <trkpt lat="42.73946" lon="1.83369">
        <ele>1160.6</ele>
        <time>2024-06-30T07:09:26Z</time>
      </trkpt>
      <trkpt lat="42.73948" lon="1.83369">
        <ele>1160.6</ele>
        <time>2024-06-30T07:09:27Z</time>
      </trkpt>
      <trkpt lat="42.73952" lon="1.83369">
        <ele>1160.8</ele>
        <time>2024-06-30T07:09:29Z</time>
      </trkpt>
      <trkpt lat="42.7396" lon="1.83371">
        <ele>1161.6</ele>
        <time>2024-06-30T07:09:34Z</time>
      </trkpt>
      <trkpt lat="42.73962" lon="1.83371">
        <ele>1161.6</ele>
        <time>2024-06-30T07:09:35Z</time>
      </trkpt>
      <trkpt lat="42.73966" lon="1.83371">
        <ele>1162</ele>
        <time>2024-06-30T07:09:38Z</time>
      </trkpt>
      <trkpt lat="42.73973" lon="1.83374">
        <ele>1162.4</ele>
        <time>2024-06-30T07:09:42Z</time>
      </trkpt>
      <trkpt lat="42.73975" lon="1.83374">
        <ele>1162.8</ele>
        <time>2024-06-30T07:09:43Z</time>
      </trkpt>
      <trkpt lat="42.73986" lon="1.83376">
        <ele>1163.6</ele>
        <time>2024-06-30T07:09:48Z</time>
      </trkpt>
      <trkpt lat="42.73988" lon="1.83375">
        <ele>1164</ele>
        <time>2024-06-30T07:09:49Z</time>
      </trkpt>
      <trkpt lat="42.7399" lon="1.83375">
        <ele>1164</ele>
        <time>2024-06-30T07:09:50Z</time>
      </trkpt>
      <trkpt lat="42.73991" lon="1.83375">
        <ele>1164.4</ele>
        <time>2024-06-30T07:09:51Z</time>
      </trkpt>
      <trkpt lat="42.73994" lon="1.83376">
        <ele>1164.6</ele>
        <time>2024-06-30T07:09:52Z</time>
      </trkpt>
      <trkpt lat="42.73997" lon="1.83377">
        <ele>1164.8</ele>
        <time>2024-06-30T07:09:53Z</time>
      </trkpt>
      <trkpt lat="42.73999" lon="1.83379">
        <ele>1165</ele>
        <time>2024-06-30T07:09:54Z</time>
      </trkpt>
      <trkpt lat="42.74001" lon="1.8338">
        <ele>1165.2</ele>
        <time>2024-06-30T07:09:55Z</time>
      </trkpt>
      <trkpt lat="42.74003" lon="1.8338">
        <ele>1165.4</ele>
        <time>2024-06-30T07:09:56Z</time>
      </trkpt>
      <trkpt lat="42.74006" lon="1.8338">
        <ele>1165.6</ele>
        <time>2024-06-30T07:09:57Z</time>
      </trkpt>
      <trkpt lat="42.74008" lon="1.8338">
        <ele>1166</ele>
        <time>2024-06-30T07:09:58Z</time>
      </trkpt>
      <trkpt lat="42.7401" lon="1.83382">
        <ele>1166</ele>
        <time>2024-06-30T07:09:59Z</time>
      </trkpt>
      <trkpt lat="42.74012" lon="1.83382">
        <ele>1166.4</ele>
        <time>2024-06-30T07:10:00Z</time>
      </trkpt>
      <trkpt lat="42.74014" lon="1.83383">
        <ele>1166.6</ele>
        <time>2024-06-30T07:10:01Z</time>
      </trkpt>
      <trkpt lat="42.74017" lon="1.83383">
        <ele>1166.8</ele>
        <time>2024-06-30T07:10:02Z</time>
      </trkpt>
      <trkpt lat="42.7402" lon="1.83383">
        <ele>1167</ele>
        <time>2024-06-30T07:10:03Z</time>
      </trkpt>
      <trkpt lat="42.74022" lon="1.83383">
        <ele>1167</ele>
        <time>2024-06-30T07:10:04Z</time>
      </trkpt>
      <trkpt lat="42.74025" lon="1.83383">
        <ele>1167.2</ele>
        <time>2024-06-30T07:10:05Z</time>
      </trkpt>
      <trkpt lat="42.74028" lon="1.83383">
        <ele>1167.2</ele>
        <time>2024-06-30T07:10:06Z</time>
      </trkpt>
      <trkpt lat="42.74031" lon="1.83384">
        <ele>1167.6</ele>
        <time>2024-06-30T07:10:07Z</time>
      </trkpt>
      <trkpt lat="42.74034" lon="1.83385">
        <ele>1167.8</ele>
        <time>2024-06-30T07:10:08Z</time>
      </trkpt>
      <trkpt lat="42.74036" lon="1.83385">
        <ele>1168</ele>
        <time>2024-06-30T07:10:09Z</time>
      </trkpt>
      <trkpt lat="42.74038" lon="1.83386">
        <ele>1168.2</ele>
        <time>2024-06-30T07:10:10Z</time>
      </trkpt>
      <trkpt lat="42.74041" lon="1.83387">
        <ele>1168.2</ele>
        <time>2024-06-30T07:10:11Z</time>
      </trkpt>
      <trkpt lat="42.74043" lon="1.83387">
        <ele>1168.4</ele>
        <time>2024-06-30T07:10:12Z</time>
      </trkpt>
      <trkpt lat="42.74046" lon="1.83388">
        <ele>1168.8</ele>
        <time>2024-06-30T07:10:13Z</time>
      </trkpt>
      <trkpt lat="42.74048" lon="1.83388">
        <ele>1169.2</ele>
        <time>2024-06-30T07:10:14Z</time>
      </trkpt>
      <trkpt lat="42.74051" lon="1.83388">
        <ele>1169.4</ele>
        <time>2024-06-30T07:10:15Z</time>
      </trkpt>
      <trkpt lat="42.74053" lon="1.83389">
        <ele>1169.6</ele>
        <time>2024-06-30T07:10:16Z</time>
      </trkpt>
      <trkpt lat="42.74056" lon="1.8339">
        <ele>1169.6</ele>
        <time>2024-06-30T07:10:17Z</time>
      </trkpt>
      <trkpt lat="42.74058" lon="1.8339">
        <ele>1170</ele>
        <time>2024-06-30T07:10:18Z</time>
      </trkpt>
      <trkpt lat="42.7406" lon="1.83392">
        <ele>1170.4</ele>
        <time>2024-06-30T07:10:19Z</time>
      </trkpt>
      <trkpt lat="42.74063" lon="1.83393">
        <ele>1170.6</ele>
        <time>2024-06-30T07:10:20Z</time>
      </trkpt>
      <trkpt lat="42.74065" lon="1.83394">
        <ele>1170.8</ele>
        <time>2024-06-30T07:10:21Z</time>
      </trkpt>
      <trkpt lat="42.74068" lon="1.83395">
        <ele>1171</ele>
        <time>2024-06-30T07:10:22Z</time>
      </trkpt>
      <trkpt lat="42.7407" lon="1.83396">
        <ele>1171.2</ele>
        <time>2024-06-30T07:10:23Z</time>
      </trkpt>
      <trkpt lat="42.74072" lon="1.83397">
        <ele>1171.4</ele>
        <time>2024-06-30T07:10:24Z</time>
      </trkpt>
      <trkpt lat="42.74074" lon="1.83397">
        <ele>1171.6</ele>
        <time>2024-06-30T07:10:25Z</time>
      </trkpt>
      <trkpt lat="42.74076" lon="1.83398">
        <ele>1171.6</ele>
        <time>2024-06-30T07:10:26Z</time>
      </trkpt>
      <trkpt lat="42.74079" lon="1.834">
        <ele>1172</ele>
        <time>2024-06-30T07:10:27Z</time>
      </trkpt>
      <trkpt lat="42.74081" lon="1.83401">
        <ele>1172.2</ele>
        <time>2024-06-30T07:10:28Z</time>
      </trkpt>
      <trkpt lat="42.74083" lon="1.83402">
        <ele>1172.2</ele>
        <time>2024-06-30T07:10:29Z</time>
      </trkpt>
      <trkpt lat="42.74085" lon="1.83403">
        <ele>1172.6</ele>
        <time>2024-06-30T07:10:30Z</time>
      </trkpt>
      <trkpt lat="42.74088" lon="1.83404">
        <ele>1172.6</ele>
        <time>2024-06-30T07:10:31Z</time>
      </trkpt>
      <trkpt lat="42.7409" lon="1.83405">
        <ele>1173</ele>
        <time>2024-06-30T07:10:32Z</time>
      </trkpt>
      <trkpt lat="42.74092" lon="1.83405">
        <ele>1173</ele>
        <time>2024-06-30T07:10:33Z</time>
      </trkpt>
      <trkpt lat="42.74094" lon="1.83406">
        <ele>1173.2</ele>
        <time>2024-06-30T07:10:34Z</time>
      </trkpt>
      <trkpt lat="42.74096" lon="1.83407">
        <ele>1173.4</ele>
        <time>2024-06-30T07:10:35Z</time>
      </trkpt>
      <trkpt lat="42.74099" lon="1.83408">
        <ele>1173.8</ele>
        <time>2024-06-30T07:10:36Z</time>
      </trkpt>
      <trkpt lat="42.74101" lon="1.83409">
        <ele>1173.8</ele>
        <time>2024-06-30T07:10:37Z</time>
      </trkpt>
      <trkpt lat="42.74103" lon="1.8341">
        <ele>1174</ele>
        <time>2024-06-30T07:10:38Z</time>
      </trkpt>
      <trkpt lat="42.74105" lon="1.83412">
        <ele>1174.2</ele>
        <time>2024-06-30T07:10:39Z</time>
      </trkpt>
      <trkpt lat="42.74108" lon="1.83413">
        <ele>1174.4</ele>
        <time>2024-06-30T07:10:40Z</time>
      </trkpt>
      <trkpt lat="42.7411" lon="1.83414">
        <ele>1174.8</ele>
        <time>2024-06-30T07:10:41Z</time>
      </trkpt>
      <trkpt lat="42.74111" lon="1.83416">
        <ele>1174.8</ele>
        <time>2024-06-30T07:10:42Z</time>
      </trkpt>
      <trkpt lat="42.74114" lon="1.83418">
        <ele>1175</ele>
        <time>2024-06-30T07:10:43Z</time>
      </trkpt>
      <trkpt lat="42.74116" lon="1.8342">
        <ele>1175.2</ele>
        <time>2024-06-30T07:10:44Z</time>
      </trkpt>
      <trkpt lat="42.74118" lon="1.83422">
        <ele>1175.6</ele>
        <time>2024-06-30T07:10:45Z</time>
      </trkpt>
      <trkpt lat="42.74119" lon="1.83423">
        <ele>1176</ele>
        <time>2024-06-30T07:10:46Z</time>
      </trkpt>
      <trkpt lat="42.74121" lon="1.83425">
        <ele>1176.2</ele>
        <time>2024-06-30T07:10:47Z</time>
      </trkpt>
      <trkpt lat="42.74123" lon="1.83426">
        <ele>1176.6</ele>
        <time>2024-06-30T07:10:48Z</time>
      </trkpt>
      <trkpt lat="42.74125" lon="1.83427">
        <ele>1176.6</ele>
        <time>2024-06-30T07:10:49Z</time>
      </trkpt>
      <trkpt lat="42.74126" lon="1.83429">
        <ele>1176.8</ele>
        <time>2024-06-30T07:10:50Z</time>
      </trkpt>
      <trkpt lat="42.74128" lon="1.83431">
        <ele>1177</ele>
        <time>2024-06-30T07:10:51Z</time>
      </trkpt>
      <trkpt lat="42.7413" lon="1.83433">
        <ele>1177.2</ele>
        <time>2024-06-30T07:10:52Z</time>
      </trkpt>
      <trkpt lat="42.74132" lon="1.83434">
        <ele>1177.2</ele>
        <time>2024-06-30T07:10:53Z</time>
      </trkpt>
      <trkpt lat="42.74134" lon="1.83436">
        <ele>1177.6</ele>
        <time>2024-06-30T07:10:54Z</time>
      </trkpt>
      <trkpt lat="42.74136" lon="1.83437">
        <ele>1177.8</ele>
        <time>2024-06-30T07:10:55Z</time>
      </trkpt>
      <trkpt lat="42.74138" lon="1.83439">
        <ele>1178</ele>
        <time>2024-06-30T07:10:56Z</time>
      </trkpt>
      <trkpt lat="42.7414" lon="1.83441">
        <ele>1178.2</ele>
        <time>2024-06-30T07:10:57Z</time>
      </trkpt>
      <trkpt lat="42.74142" lon="1.83443">
        <ele>1178.4</ele>
        <time>2024-06-30T07:10:58Z</time>
      </trkpt>
      <trkpt lat="42.74143" lon="1.83445">
        <ele>1178.6</ele>
        <time>2024-06-30T07:10:59Z</time>
      </trkpt>
      <trkpt lat="42.74146" lon="1.83447">
        <ele>1178.8</ele>
        <time>2024-06-30T07:11:00Z</time>
      </trkpt>
      <trkpt lat="42.74148" lon="1.83449">
        <ele>1179</ele>
        <time>2024-06-30T07:11:01Z</time>
      </trkpt>
      <trkpt lat="42.74149" lon="1.83451">
        <ele>1179</ele>
        <time>2024-06-30T07:11:02Z</time>
      </trkpt>
      <trkpt lat="42.74152" lon="1.83453">
        <ele>1179.2</ele>
        <time>2024-06-30T07:11:03Z</time>
      </trkpt>
      <trkpt lat="42.74154" lon="1.83455">
        <ele>1179.6</ele>
        <time>2024-06-30T07:11:04Z</time>
      </trkpt>
      <trkpt lat="42.74156" lon="1.83456">
        <ele>1179.8</ele>
        <time>2024-06-30T07:11:05Z</time>
      </trkpt>
      <trkpt lat="42.74158" lon="1.83458">
        <ele>1180</ele>
        <time>2024-06-30T07:11:06Z</time>
      </trkpt>
      <trkpt lat="42.7416" lon="1.8346">
        <ele>1180.2</ele>
        <time>2024-06-30T07:11:07Z</time>
      </trkpt>
      <trkpt lat="42.74162" lon="1.83463">
        <ele>1180.4</ele>
        <time>2024-06-30T07:11:08Z</time>
      </trkpt>
      <trkpt lat="42.74164" lon="1.83464">
        <ele>1180.4</ele>
        <time>2024-06-30T07:11:09Z</time>
      </trkpt>
      <trkpt lat="42.74166" lon="1.83465">
        <ele>1180.6</ele>
        <time>2024-06-30T07:11:10Z</time>
      </trkpt>
      <trkpt lat="42.74168" lon="1.83466">
        <ele>1180.8</ele>
        <time>2024-06-30T07:11:11Z</time>
      </trkpt>
      <trkpt lat="42.74169" lon="1.83468">
        <ele>1181.2</ele>
        <time>2024-06-30T07:11:12Z</time>
      </trkpt>
      <trkpt lat="42.74171" lon="1.83469">
        <ele>1181.4</ele>
        <time>2024-06-30T07:11:13Z</time>
      </trkpt>
      <trkpt lat="42.74173" lon="1.83471">
        <ele>1181.6</ele>
        <time>2024-06-30T07:11:14Z</time>
      </trkpt>
      <trkpt lat="42.74175" lon="1.83472">
        <ele>1181.8</ele>
        <time>2024-06-30T07:11:15Z</time>
      </trkpt>
      <trkpt lat="42.74176" lon="1.83473">
        <ele>1182</ele>
        <time>2024-06-30T07:11:16Z</time>
      </trkpt>
      <trkpt lat="42.7418" lon="1.83476">
        <ele>1182.2</ele>
        <time>2024-06-30T07:11:17Z</time>
      </trkpt>
      <trkpt lat="42.74182" lon="1.83478">
        <ele>1182.4</ele>
        <time>2024-06-30T07:11:18Z</time>
      </trkpt>
      <trkpt lat="42.74185" lon="1.8348">
        <ele>1182.6</ele>
        <time>2024-06-30T07:11:19Z</time>
      </trkpt>
      <trkpt lat="42.74187" lon="1.83481">
        <ele>1182.8</ele>
        <time>2024-06-30T07:11:20Z</time>
      </trkpt>
      <trkpt lat="42.7419" lon="1.83484">
        <ele>1183</ele>
        <time>2024-06-30T07:11:21Z</time>
      </trkpt>
      <trkpt lat="42.74193" lon="1.83486">
        <ele>1183.4</ele>
        <time>2024-06-30T07:11:22Z</time>
      </trkpt>
      <trkpt lat="42.74195" lon="1.83489">
        <ele>1183.4</ele>
        <time>2024-06-30T07:11:23Z</time>
      </trkpt>
      <trkpt lat="42.74198" lon="1.83492">
        <ele>1183.8</ele>
        <time>2024-06-30T07:11:24Z</time>
      </trkpt>
      <trkpt lat="42.74201" lon="1.83495">
        <ele>1183.8</ele>
        <time>2024-06-30T07:11:25Z</time>
      </trkpt>
      <trkpt lat="42.74204" lon="1.83497">
        <ele>1184.2</ele>
        <time>2024-06-30T07:11:26Z</time>
      </trkpt>
      <trkpt lat="42.74207" lon="1.835">
        <ele>1184.4</ele>
        <time>2024-06-30T07:11:27Z</time>
      </trkpt>
      <trkpt lat="42.74209" lon="1.83502">
        <ele>1184.8</ele>
        <time>2024-06-30T07:11:28Z</time>
      </trkpt>
      <trkpt lat="42.74212" lon="1.83504">
        <ele>1184.8</ele>
        <time>2024-06-30T07:11:29Z</time>
      </trkpt>
      <trkpt lat="42.74214" lon="1.83507">
        <ele>1185</ele>
        <time>2024-06-30T07:11:30Z</time>
      </trkpt>
      <trkpt lat="42.74217" lon="1.83508">
        <ele>1185.4</ele>
        <time>2024-06-30T07:11:31Z</time>
      </trkpt>
      <trkpt lat="42.7422" lon="1.8351">
        <ele>1185.6</ele>
        <time>2024-06-30T07:11:32Z</time>
      </trkpt>
      <trkpt lat="42.74222" lon="1.83513">
        <ele>1185.8</ele>
        <time>2024-06-30T07:11:33Z</time>
      </trkpt>
      <trkpt lat="42.74224" lon="1.83515">
        <ele>1186.2</ele>
        <time>2024-06-30T07:11:34Z</time>
      </trkpt>
      <trkpt lat="42.74228" lon="1.83517">
        <ele>1186.6</ele>
        <time>2024-06-30T07:11:35Z</time>
      </trkpt>
      <trkpt lat="42.74231" lon="1.8352">
        <ele>1186.8</ele>
        <time>2024-06-30T07:11:36Z</time>
      </trkpt>
      <trkpt lat="42.74234" lon="1.83523">
        <ele>1187</ele>
        <time>2024-06-30T07:11:37Z</time>
      </trkpt>
      <trkpt lat="42.74237" lon="1.83526">
        <ele>1187.2</ele>
        <time>2024-06-30T07:11:38Z</time>
      </trkpt>
      <trkpt lat="42.74239" lon="1.83529">
        <ele>1187.6</ele>
        <time>2024-06-30T07:11:39Z</time>
      </trkpt>
      <trkpt lat="42.74242" lon="1.8353">
        <ele>1188</ele>
        <time>2024-06-30T07:11:40Z</time>
      </trkpt>
      <trkpt lat="42.74244" lon="1.83531">
        <ele>1188</ele>
        <time>2024-06-30T07:11:41Z</time>
      </trkpt>
      <trkpt lat="42.74246" lon="1.83533">
        <ele>1188.4</ele>
        <time>2024-06-30T07:11:42Z</time>
      </trkpt>
      <trkpt lat="42.74249" lon="1.83534">
        <ele>1188.4</ele>
        <time>2024-06-30T07:11:43Z</time>
      </trkpt>
      <trkpt lat="42.74251" lon="1.83537">
        <ele>1188.6</ele>
        <time>2024-06-30T07:11:44Z</time>
      </trkpt>
      <trkpt lat="42.74253" lon="1.83539">
        <ele>1188.8</ele>
        <time>2024-06-30T07:11:45Z</time>
      </trkpt>
      <trkpt lat="42.74255" lon="1.83541">
        <ele>1189</ele>
        <time>2024-06-30T07:11:46Z</time>
      </trkpt>
      <trkpt lat="42.74257" lon="1.83543">
        <ele>1189.4</ele>
        <time>2024-06-30T07:11:47Z</time>
      </trkpt>
      <trkpt lat="42.74259" lon="1.83546">
        <ele>1189.8</ele>
        <time>2024-06-30T07:11:48Z</time>
      </trkpt>
      <trkpt lat="42.74261" lon="1.83548">
        <ele>1189.8</ele>
        <time>2024-06-30T07:11:49Z</time>
      </trkpt>
      <trkpt lat="42.74263" lon="1.8355">
        <ele>1190</ele>
        <time>2024-06-30T07:11:50Z</time>
      </trkpt>
      <trkpt lat="42.74264" lon="1.83553">
        <ele>1190.4</ele>
        <time>2024-06-30T07:11:51Z</time>
      </trkpt>
      <trkpt lat="42.74266" lon="1.83555">
        <ele>1190.6</ele>
        <time>2024-06-30T07:11:52Z</time>
      </trkpt>
      <trkpt lat="42.74267" lon="1.83558">
        <ele>1190.8</ele>
        <time>2024-06-30T07:11:53Z</time>
      </trkpt>
      <trkpt lat="42.74269" lon="1.83562">
        <ele>1191</ele>
        <time>2024-06-30T07:11:54Z</time>
      </trkpt>
      <trkpt lat="42.74271" lon="1.83565">
        <ele>1191.2</ele>
        <time>2024-06-30T07:11:55Z</time>
      </trkpt>
      <trkpt lat="42.74272" lon="1.83568">
        <ele>1191.4</ele>
        <time>2024-06-30T07:11:56Z</time>
      </trkpt>
      <trkpt lat="42.74274" lon="1.83572">
        <ele>1191.8</ele>
        <time>2024-06-30T07:11:57Z</time>
      </trkpt>
      <trkpt lat="42.74275" lon="1.83575">
        <ele>1191.8</ele>
        <time>2024-06-30T07:11:58Z</time>
      </trkpt>
      <trkpt lat="42.74276" lon="1.83578">
        <ele>1192</ele>
        <time>2024-06-30T07:11:59Z</time>
      </trkpt>
      <trkpt lat="42.74278" lon="1.83582">
        <ele>1192.2</ele>
        <time>2024-06-30T07:12:00Z</time>
      </trkpt>
      <trkpt lat="42.74279" lon="1.83586">
        <ele>1192.4</ele>
        <time>2024-06-30T07:12:01Z</time>
      </trkpt>
      <trkpt lat="42.7428" lon="1.83589">
        <ele>1193</ele>
        <time>2024-06-30T07:12:02Z</time>
      </trkpt>
      <trkpt lat="42.74281" lon="1.83592">
        <ele>1193.2</ele>
        <time>2024-06-30T07:12:03Z</time>
      </trkpt>
      <trkpt lat="42.74282" lon="1.83596">
        <ele>1193.6</ele>
        <time>2024-06-30T07:12:04Z</time>
      </trkpt>
      <trkpt lat="42.74284" lon="1.83599">
        <ele>1193.6</ele>
        <time>2024-06-30T07:12:05Z</time>
      </trkpt>
      <trkpt lat="42.74285" lon="1.83602">
        <ele>1193.8</ele>
        <time>2024-06-30T07:12:06Z</time>
      </trkpt>
      <trkpt lat="42.74286" lon="1.83605">
        <ele>1194</ele>
        <time>2024-06-30T07:12:07Z</time>
      </trkpt>
      <trkpt lat="42.74288" lon="1.83608">
        <ele>1194.4</ele>
        <time>2024-06-30T07:12:08Z</time>
      </trkpt>
      <trkpt lat="42.7429" lon="1.83611">
        <ele>1194.6</ele>
        <time>2024-06-30T07:12:09Z</time>
      </trkpt>
      <trkpt lat="42.74292" lon="1.83614">
        <ele>1194.8</ele>
        <time>2024-06-30T07:12:10Z</time>
      </trkpt>
      <trkpt lat="42.74294" lon="1.83617">
        <ele>1195.2</ele>
        <time>2024-06-30T07:12:11Z</time>
      </trkpt>
      <trkpt lat="42.74296" lon="1.83619">
        <ele>1195.4</ele>
        <time>2024-06-30T07:12:12Z</time>
      </trkpt>
      <trkpt lat="42.74298" lon="1.83621">
        <ele>1195.6</ele>
        <time>2024-06-30T07:12:13Z</time>
      </trkpt>
      <trkpt lat="42.743" lon="1.83623">
        <ele>1195.8</ele>
        <time>2024-06-30T07:12:14Z</time>
      </trkpt>
      <trkpt lat="42.74303" lon="1.83625">
        <ele>1196.2</ele>
        <time>2024-06-30T07:12:15Z</time>
      </trkpt>
      <trkpt lat="42.74305" lon="1.83627">
        <ele>1196.2</ele>
        <time>2024-06-30T07:12:16Z</time>
      </trkpt>
      <trkpt lat="42.74307" lon="1.8363">
        <ele>1196.8</ele>
        <time>2024-06-30T07:12:17Z</time>
      </trkpt>
      <trkpt lat="42.74308" lon="1.83632">
        <ele>1196.8</ele>
        <time>2024-06-30T07:12:18Z</time>
      </trkpt>
      <trkpt lat="42.74311" lon="1.83633">
        <ele>1197</ele>
        <time>2024-06-30T07:12:19Z</time>
      </trkpt>
      <trkpt lat="42.74313" lon="1.83635">
        <ele>1197.4</ele>
        <time>2024-06-30T07:12:20Z</time>
      </trkpt>
      <trkpt lat="42.74315" lon="1.83637">
        <ele>1197.6</ele>
        <time>2024-06-30T07:12:21Z</time>
      </trkpt>
      <trkpt lat="42.74318" lon="1.83639">
        <ele>1197.8</ele>
        <time>2024-06-30T07:12:22Z</time>
      </trkpt>
      <trkpt lat="42.7432" lon="1.83641">
        <ele>1198</ele>
        <time>2024-06-30T07:12:23Z</time>
      </trkpt>
      <trkpt lat="42.74322" lon="1.83644">
        <ele>1198.4</ele>
        <time>2024-06-30T07:12:24Z</time>
      </trkpt>
      <trkpt lat="42.74325" lon="1.83646">
        <ele>1198.6</ele>
        <time>2024-06-30T07:12:25Z</time>
      </trkpt>
      <trkpt lat="42.74327" lon="1.83648">
        <ele>1198.8</ele>
        <time>2024-06-30T07:12:26Z</time>
      </trkpt>
      <trkpt lat="42.74329" lon="1.8365">
        <ele>1199.2</ele>
        <time>2024-06-30T07:12:27Z</time>
      </trkpt>
      <trkpt lat="42.74331" lon="1.83653">
        <ele>1199.2</ele>
        <time>2024-06-30T07:12:28Z</time>
      </trkpt>
      <trkpt lat="42.74333" lon="1.83654">
        <ele>1199.6</ele>
        <time>2024-06-30T07:12:29Z</time>
      </trkpt>
      <trkpt lat="42.74336" lon="1.83656">
        <ele>1199.8</ele>
        <time>2024-06-30T07:12:30Z</time>
      </trkpt>
      <trkpt lat="42.74338" lon="1.83657">
        <ele>1200</ele>
        <time>2024-06-30T07:12:31Z</time>
      </trkpt>
      <trkpt lat="42.74341" lon="1.83659">
        <ele>1200.2</ele>
        <time>2024-06-30T07:12:32Z</time>
      </trkpt>
      <trkpt lat="42.74344" lon="1.83661">
        <ele>1200.4</ele>
        <time>2024-06-30T07:12:33Z</time>
      </trkpt>
      <trkpt lat="42.74347" lon="1.83662">
        <ele>1200.6</ele>
        <time>2024-06-30T07:12:34Z</time>
      </trkpt>
      <trkpt lat="42.7435" lon="1.83664">
        <ele>1200.8</ele>
        <time>2024-06-30T07:12:35Z</time>
      </trkpt>
      <trkpt lat="42.74353" lon="1.83665">
        <ele>1201</ele>
        <time>2024-06-30T07:12:36Z</time>
      </trkpt>
      <trkpt lat="42.74355" lon="1.83667">
        <ele>1201.2</ele>
        <time>2024-06-30T07:12:37Z</time>
      </trkpt>
      <trkpt lat="42.74358" lon="1.83669">
        <ele>1201.6</ele>
        <time>2024-06-30T07:12:38Z</time>
      </trkpt>
      <trkpt lat="42.74361" lon="1.8367">
        <ele>1201.6</ele>
        <time>2024-06-30T07:12:39Z</time>
      </trkpt>
      <trkpt lat="42.74364" lon="1.83672">
        <ele>1202</ele>
        <time>2024-06-30T07:12:40Z</time>
      </trkpt>
      <trkpt lat="42.74366" lon="1.83673">
        <ele>1202</ele>
        <time>2024-06-30T07:12:41Z</time>
      </trkpt>
      <trkpt lat="42.74369" lon="1.83675">
        <ele>1202.2</ele>
        <time>2024-06-30T07:12:42Z</time>
      </trkpt>
      <trkpt lat="42.74372" lon="1.83676">
        <ele>1202.4</ele>
        <time>2024-06-30T07:12:43Z</time>
      </trkpt>
      <trkpt lat="42.74374" lon="1.83678">
        <ele>1202.8</ele>
        <time>2024-06-30T07:12:44Z</time>
      </trkpt>
      <trkpt lat="42.74377" lon="1.8368">
        <ele>1203.2</ele>
        <time>2024-06-30T07:12:45Z</time>
      </trkpt>
      <trkpt lat="42.7438" lon="1.83681">
        <ele>1203.2</ele>
        <time>2024-06-30T07:12:46Z</time>
      </trkpt>
      <trkpt lat="42.74383" lon="1.83683">
        <ele>1203.4</ele>
        <time>2024-06-30T07:12:47Z</time>
      </trkpt>
      <trkpt lat="42.74386" lon="1.83684">
        <ele>1203.6</ele>
        <time>2024-06-30T07:12:48Z</time>
      </trkpt>
      <trkpt lat="42.74388" lon="1.83685">
        <ele>1204</ele>
        <time>2024-06-30T07:12:49Z</time>
      </trkpt>
      <trkpt lat="42.74391" lon="1.83688">
        <ele>1204.2</ele>
        <time>2024-06-30T07:12:50Z</time>
      </trkpt>
      <trkpt lat="42.74394" lon="1.8369">
        <ele>1204.4</ele>
        <time>2024-06-30T07:12:51Z</time>
      </trkpt>
      <trkpt lat="42.74397" lon="1.83692">
        <ele>1204.4</ele>
        <time>2024-06-30T07:12:52Z</time>
      </trkpt>
      <trkpt lat="42.744" lon="1.83693">
        <ele>1204.8</ele>
        <time>2024-06-30T07:12:53Z</time>
      </trkpt>
      <trkpt lat="42.74402" lon="1.83694">
        <ele>1205</ele>
        <time>2024-06-30T07:12:54Z</time>
      </trkpt>
      <trkpt lat="42.74405" lon="1.83696">
        <ele>1205</ele>
        <time>2024-06-30T07:12:55Z</time>
      </trkpt>
      <trkpt lat="42.74407" lon="1.83697">
        <ele>1205.4</ele>
        <time>2024-06-30T07:12:56Z</time>
      </trkpt>
      <trkpt lat="42.7441" lon="1.83699">
        <ele>1205.6</ele>
        <time>2024-06-30T07:12:57Z</time>
      </trkpt>
      <trkpt lat="42.74412" lon="1.837">
        <ele>1205.8</ele>
        <time>2024-06-30T07:12:58Z</time>
      </trkpt>
      <trkpt lat="42.74415" lon="1.83701">
        <ele>1206</ele>
        <time>2024-06-30T07:12:59Z</time>
      </trkpt>
      <trkpt lat="42.74418" lon="1.83703">
        <ele>1206.2</ele>
        <time>2024-06-30T07:13:00Z</time>
      </trkpt>
      <trkpt lat="42.7442" lon="1.83704">
        <ele>1206.2</ele>
        <time>2024-06-30T07:13:01Z</time>
      </trkpt>
      <trkpt lat="42.74423" lon="1.83707">
        <ele>1206.4</ele>
        <time>2024-06-30T07:13:02Z</time>
      </trkpt>
      <trkpt lat="42.74426" lon="1.83709">
        <ele>1206.8</ele>
        <time>2024-06-30T07:13:03Z</time>
      </trkpt>
      <trkpt lat="42.74429" lon="1.8371">
        <ele>1206.8</ele>
        <time>2024-06-30T07:13:04Z</time>
      </trkpt>
      <trkpt lat="42.74432" lon="1.83712">
        <ele>1207.2</ele>
        <time>2024-06-30T07:13:05Z</time>
      </trkpt>
      <trkpt lat="42.74435" lon="1.83714">
        <ele>1207.2</ele>
        <time>2024-06-30T07:13:06Z</time>
      </trkpt>
      <trkpt lat="42.74437" lon="1.83715">
        <ele>1207.4</ele>
        <time>2024-06-30T07:13:07Z</time>
      </trkpt>
      <trkpt lat="42.7444" lon="1.83717">
        <ele>1207.6</ele>
        <time>2024-06-30T07:13:08Z</time>
      </trkpt>
      <trkpt lat="42.74442" lon="1.83718">
        <ele>1207.8</ele>
        <time>2024-06-30T07:13:09Z</time>
      </trkpt>
      <trkpt lat="42.74445" lon="1.8372">
        <ele>1207.8</ele>
        <time>2024-06-30T07:13:10Z</time>
      </trkpt>
      <trkpt lat="42.74448" lon="1.83721">
        <ele>1208</ele>
        <time>2024-06-30T07:13:11Z</time>
      </trkpt>
      <trkpt lat="42.7445" lon="1.83723">
        <ele>1208.2</ele>
        <time>2024-06-30T07:13:12Z</time>
      </trkpt>
      <trkpt lat="42.74452" lon="1.83725">
        <ele>1208.2</ele>
        <time>2024-06-30T07:13:13Z</time>
      </trkpt>
      <trkpt lat="42.74454" lon="1.83726">
        <ele>1208.6</ele>
        <time>2024-06-30T07:13:14Z</time>
      </trkpt>
      <trkpt lat="42.74457" lon="1.83729">
        <ele>1208.8</ele>
        <time>2024-06-30T07:13:15Z</time>
      </trkpt>
      <trkpt lat="42.7446" lon="1.83731">
        <ele>1208.8</ele>
        <time>2024-06-30T07:13:16Z</time>
      </trkpt>
      <trkpt lat="42.74462" lon="1.83733">
        <ele>1209</ele>
        <time>2024-06-30T07:13:17Z</time>
      </trkpt>
      <trkpt lat="42.74465" lon="1.83735">
        <ele>1209.4</ele>
        <time>2024-06-30T07:13:18Z</time>
      </trkpt>
      <trkpt lat="42.74467" lon="1.83736">
        <ele>1209.6</ele>
        <time>2024-06-30T07:13:19Z</time>
      </trkpt>
      <trkpt lat="42.74469" lon="1.83738">
        <ele>1209.8</ele>
        <time>2024-06-30T07:13:20Z</time>
      </trkpt>
      <trkpt lat="42.74471" lon="1.8374">
        <ele>1210</ele>
        <time>2024-06-30T07:13:21Z</time>
      </trkpt>
      <trkpt lat="42.74473" lon="1.83743">
        <ele>1210</ele>
        <time>2024-06-30T07:13:22Z</time>
      </trkpt>
      <trkpt lat="42.74476" lon="1.83745">
        <ele>1210.6</ele>
        <time>2024-06-30T07:13:23Z</time>
      </trkpt>
      <trkpt lat="42.74479" lon="1.83748">
        <ele>1210.6</ele>
        <time>2024-06-30T07:13:24Z</time>
      </trkpt>
      <trkpt lat="42.74481" lon="1.83751">
        <ele>1211</ele>
        <time>2024-06-30T07:13:25Z</time>
      </trkpt>
      <trkpt lat="42.74484" lon="1.83752">
        <ele>1211.2</ele>
        <time>2024-06-30T07:13:26Z</time>
      </trkpt>
      <trkpt lat="42.74487" lon="1.83755">
        <ele>1211.4</ele>
        <time>2024-06-30T07:13:27Z</time>
      </trkpt>
      <trkpt lat="42.74489" lon="1.83757">
        <ele>1211.6</ele>
        <time>2024-06-30T07:13:28Z</time>
      </trkpt>
      <trkpt lat="42.74492" lon="1.83759">
        <ele>1211.8</ele>
        <time>2024-06-30T07:13:29Z</time>
      </trkpt>
      <trkpt lat="42.74495" lon="1.83762">
        <ele>1211.8</ele>
        <time>2024-06-30T07:13:30Z</time>
      </trkpt>
      <trkpt lat="42.74497" lon="1.83764">
        <ele>1212</ele>
        <time>2024-06-30T07:13:31Z</time>
      </trkpt>
      <trkpt lat="42.745" lon="1.83766">
        <ele>1212.4</ele>
        <time>2024-06-30T07:13:32Z</time>
      </trkpt>
      <trkpt lat="42.74502" lon="1.83768">
        <ele>1212.6</ele>
        <time>2024-06-30T07:13:33Z</time>
      </trkpt>
      <trkpt lat="42.74505" lon="1.83771">
        <ele>1212.8</ele>
        <time>2024-06-30T07:13:34Z</time>
      </trkpt>
      <trkpt lat="42.74507" lon="1.83773">
        <ele>1213</ele>
        <time>2024-06-30T07:13:35Z</time>
      </trkpt>
      <trkpt lat="42.74509" lon="1.83775">
        <ele>1213.2</ele>
        <time>2024-06-30T07:13:36Z</time>
      </trkpt>
      <trkpt lat="42.7451" lon="1.83777">
        <ele>1213.4</ele>
        <time>2024-06-30T07:13:37Z</time>
      </trkpt>
      <trkpt lat="42.74513" lon="1.83781">
        <ele>1213.8</ele>
        <time>2024-06-30T07:13:38Z</time>
      </trkpt>
      <trkpt lat="42.74514" lon="1.83785">
        <ele>1213.8</ele>
        <time>2024-06-30T07:13:39Z</time>
      </trkpt>
      <trkpt lat="42.74516" lon="1.83788">
        <ele>1214</ele>
        <time>2024-06-30T07:13:40Z</time>
      </trkpt>
      <trkpt lat="42.74517" lon="1.83792">
        <ele>1214.4</ele>
        <time>2024-06-30T07:13:41Z</time>
      </trkpt>
      <trkpt lat="42.74519" lon="1.83795">
        <ele>1214.4</ele>
        <time>2024-06-30T07:13:42Z</time>
      </trkpt>
      <trkpt lat="42.74521" lon="1.83799">
        <ele>1214.6</ele>
        <time>2024-06-30T07:13:43Z</time>
      </trkpt>
      <trkpt lat="42.74523" lon="1.83803">
        <ele>1214.8</ele>
        <time>2024-06-30T07:13:44Z</time>
      </trkpt>
      <trkpt lat="42.74524" lon="1.83806">
        <ele>1215.2</ele>
        <time>2024-06-30T07:13:45Z</time>
      </trkpt>
      <trkpt lat="42.74526" lon="1.8381">
        <ele>1215.2</ele>
        <time>2024-06-30T07:13:46Z</time>
      </trkpt>
      <trkpt lat="42.74528" lon="1.83813">
        <ele>1215.6</ele>
        <time>2024-06-30T07:13:47Z</time>
      </trkpt>
      <trkpt lat="42.7453" lon="1.83817">
        <ele>1215.8</ele>
        <time>2024-06-30T07:13:48Z</time>
      </trkpt>
      <trkpt lat="42.74531" lon="1.8382">
        <ele>1216</ele>
        <time>2024-06-30T07:13:49Z</time>
      </trkpt>
      <trkpt lat="42.74533" lon="1.83823">
        <ele>1216.2</ele>
        <time>2024-06-30T07:13:50Z</time>
      </trkpt>
      <trkpt lat="42.74535" lon="1.83827">
        <ele>1216.4</ele>
        <time>2024-06-30T07:13:51Z</time>
      </trkpt>
      <trkpt lat="42.74536" lon="1.83831">
        <ele>1216.8</ele>
        <time>2024-06-30T07:13:52Z</time>
      </trkpt>
      <trkpt lat="42.74538" lon="1.83834">
        <ele>1216.8</ele>
        <time>2024-06-30T07:13:53Z</time>
      </trkpt>
      <trkpt lat="42.74539" lon="1.83837">
        <ele>1217.2</ele>
        <time>2024-06-30T07:13:54Z</time>
      </trkpt>
      <trkpt lat="42.74541" lon="1.83841">
        <ele>1217.4</ele>
        <time>2024-06-30T07:13:55Z</time>
      </trkpt>
      <trkpt lat="42.74543" lon="1.83844">
        <ele>1217.6</ele>
        <time>2024-06-30T07:13:56Z</time>
      </trkpt>
      <trkpt lat="42.74545" lon="1.83847">
        <ele>1217.8</ele>
        <time>2024-06-30T07:13:57Z</time>
      </trkpt>
      <trkpt lat="42.74547" lon="1.83851">
        <ele>1218</ele>
        <time>2024-06-30T07:13:58Z</time>
      </trkpt>
      <trkpt lat="42.74548" lon="1.83854">
        <ele>1218.2</ele>
        <time>2024-06-30T07:13:59Z</time>
      </trkpt>
      <trkpt lat="42.7455" lon="1.83857">
        <ele>1218.4</ele>
        <time>2024-06-30T07:14:00Z</time>
      </trkpt>
      <trkpt lat="42.74552" lon="1.8386">
        <ele>1218.8</ele>
        <time>2024-06-30T07:14:01Z</time>
      </trkpt>
      <trkpt lat="42.74554" lon="1.83863">
        <ele>1219</ele>
        <time>2024-06-30T07:14:02Z</time>
      </trkpt>
      <trkpt lat="42.74556" lon="1.83866">
        <ele>1219.4</ele>
        <time>2024-06-30T07:14:03Z</time>
      </trkpt>
      <trkpt lat="42.74558" lon="1.83869">
        <ele>1219.6</ele>
        <time>2024-06-30T07:14:04Z</time>
      </trkpt>
      <trkpt lat="42.7456" lon="1.83873">
        <ele>1219.8</ele>
        <time>2024-06-30T07:14:05Z</time>
      </trkpt>
      <trkpt lat="42.74561" lon="1.83877">
        <ele>1220</ele>
        <time>2024-06-30T07:14:06Z</time>
      </trkpt>
      <trkpt lat="42.74563" lon="1.83881">
        <ele>1220.2</ele>
        <time>2024-06-30T07:14:07Z</time>
      </trkpt>
      <trkpt lat="42.74565" lon="1.83884">
        <ele>1220.6</ele>
        <time>2024-06-30T07:14:08Z</time>
      </trkpt>
      <trkpt lat="42.74567" lon="1.83888">
        <ele>1220.6</ele>
        <time>2024-06-30T07:14:09Z</time>
      </trkpt>
      <trkpt lat="42.74568" lon="1.83891">
        <ele>1220.8</ele>
        <time>2024-06-30T07:14:10Z</time>
      </trkpt>
      <trkpt lat="42.7457" lon="1.83894">
        <ele>1221</ele>
        <time>2024-06-30T07:14:11Z</time>
      </trkpt>
      <trkpt lat="42.74572" lon="1.83898">
        <ele>1221.4</ele>
        <time>2024-06-30T07:14:12Z</time>
      </trkpt>
      <trkpt lat="42.74573" lon="1.83901">
        <ele>1221.4</ele>
        <time>2024-06-30T07:14:13Z</time>
      </trkpt>
      <trkpt lat="42.74575" lon="1.83904">
        <ele>1221.6</ele>
        <time>2024-06-30T07:14:14Z</time>
      </trkpt>
      <trkpt lat="42.74576" lon="1.83908">
        <ele>1221.8</ele>
        <time>2024-06-30T07:14:15Z</time>
      </trkpt>
      <trkpt lat="42.74578" lon="1.83911">
        <ele>1222</ele>
        <time>2024-06-30T07:14:16Z</time>
      </trkpt>
      <trkpt lat="42.7458" lon="1.83914">
        <ele>1222.2</ele>
        <time>2024-06-30T07:14:17Z</time>
      </trkpt>
      <trkpt lat="42.74582" lon="1.83917">
        <ele>1222.4</ele>
        <time>2024-06-30T07:14:18Z</time>
      </trkpt>
      <trkpt lat="42.74583" lon="1.8392">
        <ele>1222.6</ele>
        <time>2024-06-30T07:14:19Z</time>
      </trkpt>
      <trkpt lat="42.74584" lon="1.83923">
        <ele>1223</ele>
        <time>2024-06-30T07:14:20Z</time>
      </trkpt>
      <trkpt lat="42.74586" lon="1.83927">
        <ele>1223.2</ele>
        <time>2024-06-30T07:14:21Z</time>
      </trkpt>
      <trkpt lat="42.74588" lon="1.83931">
        <ele>1223.2</ele>
        <time>2024-06-30T07:14:22Z</time>
      </trkpt>
      <trkpt lat="42.7459" lon="1.83935">
        <ele>1223.4</ele>
        <time>2024-06-30T07:14:23Z</time>
      </trkpt>
      <trkpt lat="42.74591" lon="1.83938">
        <ele>1223.6</ele>
        <time>2024-06-30T07:14:24Z</time>
      </trkpt>
      <trkpt lat="42.74593" lon="1.83941">
        <ele>1223.8</ele>
        <time>2024-06-30T07:14:25Z</time>
      </trkpt>
      <trkpt lat="42.74594" lon="1.83944">
        <ele>1224.2</ele>
        <time>2024-06-30T07:14:26Z</time>
      </trkpt>
      <trkpt lat="42.74596" lon="1.83947">
        <ele>1224.2</ele>
        <time>2024-06-30T07:14:27Z</time>
      </trkpt>
      <trkpt lat="42.74598" lon="1.8395">
        <ele>1224.2</ele>
        <time>2024-06-30T07:14:28Z</time>
      </trkpt>
      <trkpt lat="42.74599" lon="1.83953">
        <ele>1224.4</ele>
        <time>2024-06-30T07:14:29Z</time>
      </trkpt>
      <trkpt lat="42.74601" lon="1.83956">
        <ele>1224.6</ele>
        <time>2024-06-30T07:14:30Z</time>
      </trkpt>
      <trkpt lat="42.74602" lon="1.8396">
        <ele>1224.8</ele>
        <time>2024-06-30T07:14:31Z</time>
      </trkpt>
      <trkpt lat="42.74604" lon="1.83963">
        <ele>1225</ele>
        <time>2024-06-30T07:14:32Z</time>
      </trkpt>
      <trkpt lat="42.74605" lon="1.83966">
        <ele>1225.2</ele>
        <time>2024-06-30T07:14:33Z</time>
      </trkpt>
      <trkpt lat="42.74606" lon="1.8397">
        <ele>1225.6</ele>
        <time>2024-06-30T07:14:34Z</time>
      </trkpt>
      <trkpt lat="42.74607" lon="1.83973">
        <ele>1225.8</ele>
        <time>2024-06-30T07:14:35Z</time>
      </trkpt>
      <trkpt lat="42.74608" lon="1.83977">
        <ele>1226</ele>
        <time>2024-06-30T07:14:36Z</time>
      </trkpt>
      <trkpt lat="42.74609" lon="1.8398">
        <ele>1226.4</ele>
        <time>2024-06-30T07:14:37Z</time>
      </trkpt>
      <trkpt lat="42.74609" lon="1.83984">
        <ele>1226.4</ele>
        <time>2024-06-30T07:14:38Z</time>
      </trkpt>
      <trkpt lat="42.7461" lon="1.83988">
        <ele>1226.8</ele>
        <time>2024-06-30T07:14:39Z</time>
      </trkpt>
      <trkpt lat="42.74611" lon="1.83992">
        <ele>1226.8</ele>
        <time>2024-06-30T07:14:40Z</time>
      </trkpt>
      <trkpt lat="42.74612" lon="1.83996">
        <ele>1227.2</ele>
        <time>2024-06-30T07:14:41Z</time>
      </trkpt>
      <trkpt lat="42.74613" lon="1.84">
        <ele>1227.4</ele>
        <time>2024-06-30T07:14:42Z</time>
      </trkpt>
      <trkpt lat="42.74614" lon="1.84004">
        <ele>1227.8</ele>
        <time>2024-06-30T07:14:43Z</time>
      </trkpt>
      <trkpt lat="42.74614" lon="1.84007">
        <ele>1228</ele>
        <time>2024-06-30T07:14:44Z</time>
      </trkpt>
      <trkpt lat="42.74615" lon="1.84011">
        <ele>1228.2</ele>
        <time>2024-06-30T07:14:45Z</time>
      </trkpt>
      <trkpt lat="42.74616" lon="1.84015">
        <ele>1228.4</ele>
        <time>2024-06-30T07:14:46Z</time>
      </trkpt>
      <trkpt lat="42.74616" lon="1.84018">
        <ele>1228.6</ele>
        <time>2024-06-30T07:14:47Z</time>
      </trkpt>
      <trkpt lat="42.74617" lon="1.84022">
        <ele>1229</ele>
        <time>2024-06-30T07:14:48Z</time>
      </trkpt>
      <trkpt lat="42.74618" lon="1.84026">
        <ele>1229</ele>
        <time>2024-06-30T07:14:49Z</time>
      </trkpt>
      <trkpt lat="42.74619" lon="1.84029">
        <ele>1229.4</ele>
        <time>2024-06-30T07:14:50Z</time>
      </trkpt>
      <trkpt lat="42.7462" lon="1.84033">
        <ele>1229.4</ele>
        <time>2024-06-30T07:14:51Z</time>
      </trkpt>
      <trkpt lat="42.7462" lon="1.84037">
        <ele>1229.8</ele>
        <time>2024-06-30T07:14:52Z</time>
      </trkpt>
      <trkpt lat="42.74621" lon="1.84041">
        <ele>1230.2</ele>
        <time>2024-06-30T07:14:53Z</time>
      </trkpt>
      <trkpt lat="42.74622" lon="1.84045">
        <ele>1230</ele>
        <time>2024-06-30T07:14:54Z</time>
      </trkpt>
      <trkpt lat="42.74623" lon="1.84048">
        <ele>1230.4</ele>
        <time>2024-06-30T07:14:55Z</time>
      </trkpt>
      <trkpt lat="42.74624" lon="1.84052">
        <ele>1230.4</ele>
        <time>2024-06-30T07:14:56Z</time>
      </trkpt>
      <trkpt lat="42.74625" lon="1.84056">
        <ele>1231</ele>
        <time>2024-06-30T07:14:57Z</time>
      </trkpt>
      <trkpt lat="42.74625" lon="1.8406">
        <ele>1231</ele>
        <time>2024-06-30T07:14:58Z</time>
      </trkpt>
      <trkpt lat="42.74626" lon="1.84064">
        <ele>1231.4</ele>
        <time>2024-06-30T07:14:59Z</time>
      </trkpt>
      <trkpt lat="42.74627" lon="1.84068">
        <ele>1231.4</ele>
        <time>2024-06-30T07:15:00Z</time>
      </trkpt>
      <trkpt lat="42.74628" lon="1.84071">
        <ele>1231.6</ele>
        <time>2024-06-30T07:15:01Z</time>
      </trkpt>
      <trkpt lat="42.7463" lon="1.84075">
        <ele>1232</ele>
        <time>2024-06-30T07:15:02Z</time>
      </trkpt>
      <trkpt lat="42.74631" lon="1.84079">
        <ele>1232.2</ele>
        <time>2024-06-30T07:15:03Z</time>
      </trkpt>
      <trkpt lat="42.74632" lon="1.84083">
        <ele>1232.4</ele>
        <time>2024-06-30T07:15:04Z</time>
      </trkpt>
      <trkpt lat="42.74633" lon="1.84087">
        <ele>1232.4</ele>
        <time>2024-06-30T07:15:05Z</time>
      </trkpt>
      <trkpt lat="42.74634" lon="1.8409">
        <ele>1232.6</ele>
        <time>2024-06-30T07:15:06Z</time>
      </trkpt>
      <trkpt lat="42.74635" lon="1.84094">
        <ele>1232.8</ele>
        <time>2024-06-30T07:15:07Z</time>
      </trkpt>
      <trkpt lat="42.74636" lon="1.84097">
        <ele>1233</ele>
        <time>2024-06-30T07:15:08Z</time>
      </trkpt>
      <trkpt lat="42.74637" lon="1.84101">
        <ele>1233.2</ele>
        <time>2024-06-30T07:15:09Z</time>
      </trkpt>
      <trkpt lat="42.74639" lon="1.84105">
        <ele>1233.4</ele>
        <time>2024-06-30T07:15:10Z</time>
      </trkpt>
      <trkpt lat="42.7464" lon="1.84108">
        <ele>1233.6</ele>
        <time>2024-06-30T07:15:11Z</time>
      </trkpt>
      <trkpt lat="42.74641" lon="1.84112">
        <ele>1233.8</ele>
        <time>2024-06-30T07:15:12Z</time>
      </trkpt>
      <trkpt lat="42.74642" lon="1.84116">
        <ele>1234</ele>
        <time>2024-06-30T07:15:13Z</time>
      </trkpt>
      <trkpt lat="42.74643" lon="1.8412">
        <ele>1234.2</ele>
        <time>2024-06-30T07:15:14Z</time>
      </trkpt>
      <trkpt lat="42.74645" lon="1.84124">
        <ele>1234.4</ele>
        <time>2024-06-30T07:15:15Z</time>
      </trkpt>
      <trkpt lat="42.74646" lon="1.84128">
        <ele>1234.6</ele>
        <time>2024-06-30T07:15:16Z</time>
      </trkpt>
      <trkpt lat="42.74647" lon="1.84131">
        <ele>1234.8</ele>
        <time>2024-06-30T07:15:17Z</time>
      </trkpt>
      <trkpt lat="42.74648" lon="1.84135">
        <ele>1235</ele>
        <time>2024-06-30T07:15:18Z</time>
      </trkpt>
      <trkpt lat="42.74649" lon="1.84139">
        <ele>1235.2</ele>
        <time>2024-06-30T07:15:19Z</time>
      </trkpt>
      <trkpt lat="42.7465" lon="1.84142">
        <ele>1235.4</ele>
        <time>2024-06-30T07:15:20Z</time>
      </trkpt>
      <trkpt lat="42.74652" lon="1.84145">
        <ele>1235.6</ele>
        <time>2024-06-30T07:15:21Z</time>
      </trkpt>
      <trkpt lat="42.74653" lon="1.84149">
        <ele>1235.8</ele>
        <time>2024-06-30T07:15:22Z</time>
      </trkpt>
      <trkpt lat="42.74654" lon="1.84152">
        <ele>1236</ele>
        <time>2024-06-30T07:15:23Z</time>
      </trkpt>
      <trkpt lat="42.74655" lon="1.84156">
        <ele>1236.2</ele>
        <time>2024-06-30T07:15:24Z</time>
      </trkpt>
      <trkpt lat="42.74656" lon="1.84159">
        <ele>1236.4</ele>
        <time>2024-06-30T07:15:25Z</time>
      </trkpt>
      <trkpt lat="42.74658" lon="1.84162">
        <ele>1236.6</ele>
        <time>2024-06-30T07:15:26Z</time>
      </trkpt>
      <trkpt lat="42.74659" lon="1.84165">
        <ele>1236.8</ele>
        <time>2024-06-30T07:15:27Z</time>
      </trkpt>
      <trkpt lat="42.74661" lon="1.84169">
        <ele>1237</ele>
        <time>2024-06-30T07:15:28Z</time>
      </trkpt>
      <trkpt lat="42.74662" lon="1.84172">
        <ele>1237.2</ele>
        <time>2024-06-30T07:15:29Z</time>
      </trkpt>
      <trkpt lat="42.74664" lon="1.84175">
        <ele>1237.4</ele>
        <time>2024-06-30T07:15:30Z</time>
      </trkpt>
      <trkpt lat="42.74666" lon="1.84178">
        <ele>1237.6</ele>
        <time>2024-06-30T07:15:31Z</time>
      </trkpt>
      <trkpt lat="42.74667" lon="1.84181">
        <ele>1237.8</ele>
        <time>2024-06-30T07:15:32Z</time>
      </trkpt>
      <trkpt lat="42.74669" lon="1.84185">
        <ele>1238</ele>
        <time>2024-06-30T07:15:33Z</time>
      </trkpt>
      <trkpt lat="42.74671" lon="1.84188">
        <ele>1238.2</ele>
        <time>2024-06-30T07:15:34Z</time>
      </trkpt>
      <trkpt lat="42.74672" lon="1.8419">
        <ele>1238.4</ele>
        <time>2024-06-30T07:15:35Z</time>
      </trkpt>
      <trkpt lat="42.74674" lon="1.84193">
        <ele>1238.6</ele>
        <time>2024-06-30T07:15:36Z</time>
      </trkpt>
      <trkpt lat="42.74676" lon="1.84196">
        <ele>1239</ele>
        <time>2024-06-30T07:15:37Z</time>
      </trkpt>
      <trkpt lat="42.74677" lon="1.84198">
        <ele>1239</ele>
        <time>2024-06-30T07:15:38Z</time>
      </trkpt>
      <trkpt lat="42.74679" lon="1.84201">
        <ele>1239.2</ele>
        <time>2024-06-30T07:15:39Z</time>
      </trkpt>
      <trkpt lat="42.74681" lon="1.84204">
        <ele>1239.6</ele>
        <time>2024-06-30T07:15:40Z</time>
      </trkpt>
      <trkpt lat="42.74683" lon="1.84206">
        <ele>1239.8</ele>
        <time>2024-06-30T07:15:41Z</time>
      </trkpt>
      <trkpt lat="42.74685" lon="1.84209">
        <ele>1240</ele>
        <time>2024-06-30T07:15:42Z</time>
      </trkpt>
      <trkpt lat="42.74687" lon="1.84212">
        <ele>1240.2</ele>
        <time>2024-06-30T07:15:43Z</time>
      </trkpt>
      <trkpt lat="42.74688" lon="1.84215">
        <ele>1240.6</ele>
        <time>2024-06-30T07:15:44Z</time>
      </trkpt>
      <trkpt lat="42.7469" lon="1.84218">
        <ele>1240.6</ele>
        <time>2024-06-30T07:15:45Z</time>
      </trkpt>
      <trkpt lat="42.74691" lon="1.84221">
        <ele>1240.8</ele>
        <time>2024-06-30T07:15:46Z</time>
      </trkpt>
      <trkpt lat="42.74693" lon="1.84223">
        <ele>1241</ele>
        <time>2024-06-30T07:15:47Z</time>
      </trkpt>
      <trkpt lat="42.74695" lon="1.84226">
        <ele>1241.2</ele>
        <time>2024-06-30T07:15:48Z</time>
      </trkpt>
      <trkpt lat="42.74696" lon="1.84229">
        <ele>1241.4</ele>
        <time>2024-06-30T07:15:49Z</time>
      </trkpt>
      <trkpt lat="42.74697" lon="1.84233">
        <ele>1241.6</ele>
        <time>2024-06-30T07:15:50Z</time>
      </trkpt>
      <trkpt lat="42.74697" lon="1.84237">
        <ele>1241.8</ele>
        <time>2024-06-30T07:15:51Z</time>
      </trkpt>
      <trkpt lat="42.74696" lon="1.8424">
        <ele>1241.6</ele>
        <time>2024-06-30T07:15:52Z</time>
      </trkpt>
      <trkpt lat="42.74694" lon="1.84242">
        <ele>1241.8</ele>
        <time>2024-06-30T07:15:53Z</time>
      </trkpt>
      <trkpt lat="42.74692" lon="1.84241">
        <ele>1242</ele>
        <time>2024-06-30T07:15:54Z</time>
      </trkpt>
      <trkpt lat="42.74689" lon="1.8424">
        <ele>1242.2</ele>
        <time>2024-06-30T07:15:55Z</time>
      </trkpt>
      <trkpt lat="42.74687" lon="1.84237">
        <ele>1242.4</ele>
        <time>2024-06-30T07:15:56Z</time>
      </trkpt>
      <trkpt lat="42.74686" lon="1.84235">
        <ele>1242.6</ele>
        <time>2024-06-30T07:15:57Z</time>
      </trkpt>
      <trkpt lat="42.74684" lon="1.84232">
        <ele>1242.6</ele>
        <time>2024-06-30T07:15:58Z</time>
      </trkpt>
      <trkpt lat="42.74683" lon="1.8423">
        <ele>1242.8</ele>
        <time>2024-06-30T07:15:59Z</time>
      </trkpt>
      <trkpt lat="42.74681" lon="1.84227">
        <ele>1243.4</ele>
        <time>2024-06-30T07:16:00Z</time>
      </trkpt>
      <trkpt lat="42.74679" lon="1.84225">
        <ele>1243.4</ele>
        <time>2024-06-30T07:16:01Z</time>
      </trkpt>
      <trkpt lat="42.74677" lon="1.84222">
        <ele>1243.8</ele>
        <time>2024-06-30T07:16:02Z</time>
      </trkpt>
      <trkpt lat="42.74675" lon="1.84219">
        <ele>1244</ele>
        <time>2024-06-30T07:16:03Z</time>
      </trkpt>
      <trkpt lat="42.74673" lon="1.84216">
        <ele>1244.4</ele>
        <time>2024-06-30T07:16:04Z</time>
      </trkpt>
      <trkpt lat="42.7467" lon="1.84213">
        <ele>1244.6</ele>
        <time>2024-06-30T07:16:05Z</time>
      </trkpt>
      <trkpt lat="42.74668" lon="1.84211">
        <ele>1244.8</ele>
        <time>2024-06-30T07:16:06Z</time>
      </trkpt>
      <trkpt lat="42.74666" lon="1.84208">
        <ele>1245</ele>
        <time>2024-06-30T07:16:07Z</time>
      </trkpt>
      <trkpt lat="42.74663" lon="1.84205">
        <ele>1245.2</ele>
        <time>2024-06-30T07:16:08Z</time>
      </trkpt>
      <trkpt lat="42.7466" lon="1.84202">
        <ele>1245.6</ele>
        <time>2024-06-30T07:16:09Z</time>
      </trkpt>
      <trkpt lat="42.74658" lon="1.842">
        <ele>1246</ele>
        <time>2024-06-30T07:16:10Z</time>
      </trkpt>
      <trkpt lat="42.74655" lon="1.84198">
        <ele>1246.8</ele>
        <time>2024-06-30T07:16:11Z</time>
      </trkpt>
      <trkpt lat="42.74653" lon="1.84195">
        <ele>1247</ele>
        <time>2024-06-30T07:16:12Z</time>
      </trkpt>
      <trkpt lat="42.74651" lon="1.84193">
        <ele>1247.4</ele>
        <time>2024-06-30T07:16:13Z</time>
      </trkpt>
      <trkpt lat="42.74648" lon="1.8419">
        <ele>1247.6</ele>
        <time>2024-06-30T07:16:14Z</time>
      </trkpt>
      <trkpt lat="42.74646" lon="1.84188">
        <ele>1248</ele>
        <time>2024-06-30T07:16:15Z</time>
      </trkpt>
      <trkpt lat="42.74644" lon="1.84185">
        <ele>1248</ele>
        <time>2024-06-30T07:16:16Z</time>
      </trkpt>
      <trkpt lat="42.74642" lon="1.84182">
        <ele>1248.4</ele>
        <time>2024-06-30T07:16:17Z</time>
      </trkpt>
      <trkpt lat="42.7464" lon="1.84179">
        <ele>1248.8</ele>
        <time>2024-06-30T07:16:18Z</time>
      </trkpt>
      <trkpt lat="42.74637" lon="1.84176">
        <ele>1249.2</ele>
        <time>2024-06-30T07:16:19Z</time>
      </trkpt>
      <trkpt lat="42.74635" lon="1.84174">
        <ele>1249.8</ele>
        <time>2024-06-30T07:16:20Z</time>
      </trkpt>
      <trkpt lat="42.74633" lon="1.84172">
        <ele>1250</ele>
        <time>2024-06-30T07:16:21Z</time>
      </trkpt>
      <trkpt lat="42.74632" lon="1.8417">
        <ele>1250.4</ele>
        <time>2024-06-30T07:16:22Z</time>
      </trkpt>
      <trkpt lat="42.7463" lon="1.84169">
        <ele>1250.6</ele>
        <time>2024-06-30T07:16:23Z</time>
      </trkpt>
      <trkpt lat="42.74629" lon="1.84167">
        <ele>1251</ele>
        <time>2024-06-30T07:16:24Z</time>
      </trkpt>
      <trkpt lat="42.74627" lon="1.84165">
        <ele>1251.2</ele>
        <time>2024-06-30T07:16:25Z</time>
      </trkpt>
      <trkpt lat="42.74625" lon="1.84164">
        <ele>1251.4</ele>
        <time>2024-06-30T07:16:26Z</time>
      </trkpt>
      <trkpt lat="42.74622" lon="1.84162">
        <ele>1251.6</ele>
        <time>2024-06-30T07:16:27Z</time>
      </trkpt>
      <trkpt lat="42.74619" lon="1.8416">
        <ele>1251.8</ele>
        <time>2024-06-30T07:16:28Z</time>
      </trkpt>
      <trkpt lat="42.74616" lon="1.84159">
        <ele>1252</ele>
        <time>2024-06-30T07:16:29Z</time>
      </trkpt>
      <trkpt lat="42.74614" lon="1.84157">
        <ele>1252</ele>
        <time>2024-06-30T07:16:30Z</time>
      </trkpt>
      <trkpt lat="42.74611" lon="1.84155">
        <ele>1252.4</ele>
        <time>2024-06-30T07:16:31Z</time>
      </trkpt>
      <trkpt lat="42.74609" lon="1.84153">
        <ele>1252.6</ele>
        <time>2024-06-30T07:16:32Z</time>
      </trkpt>
      <trkpt lat="42.74606" lon="1.84151">
        <ele>1253</ele>
        <time>2024-06-30T07:16:33Z</time>
      </trkpt>
      <trkpt lat="42.74604" lon="1.84148">
        <ele>1253</ele>
        <time>2024-06-30T07:16:34Z</time>
      </trkpt>
      <trkpt lat="42.74601" lon="1.84145">
        <ele>1253.6</ele>
        <time>2024-06-30T07:16:35Z</time>
      </trkpt>
      <trkpt lat="42.74599" lon="1.84142">
        <ele>1253.8</ele>
        <time>2024-06-30T07:16:36Z</time>
      </trkpt>
      <trkpt lat="42.74597" lon="1.84139">
        <ele>1254.2</ele>
        <time>2024-06-30T07:16:37Z</time>
      </trkpt>
      <trkpt lat="42.74594" lon="1.84135">
        <ele>1254.6</ele>
        <time>2024-06-30T07:16:38Z</time>
      </trkpt>
      <trkpt lat="42.74592" lon="1.84132">
        <ele>1254.8</ele>
        <time>2024-06-30T07:16:39Z</time>
      </trkpt>
      <trkpt lat="42.74591" lon="1.84129">
        <ele>1255.2</ele>
        <time>2024-06-30T07:16:40Z</time>
      </trkpt>
      <trkpt lat="42.74589" lon="1.84126">
        <ele>1255.4</ele>
        <time>2024-06-30T07:16:41Z</time>
      </trkpt>
      <trkpt lat="42.74586" lon="1.84123">
        <ele>1255.8</ele>
        <time>2024-06-30T07:16:42Z</time>
      </trkpt>
      <trkpt lat="42.74584" lon="1.8412">
        <ele>1255.8</ele>
        <time>2024-06-30T07:16:43Z</time>
      </trkpt>
      <trkpt lat="42.74582" lon="1.84117">
        <ele>1256.4</ele>
        <time>2024-06-30T07:16:44Z</time>
      </trkpt>
      <trkpt lat="42.7458" lon="1.84114">
        <ele>1256.6</ele>
        <time>2024-06-30T07:16:45Z</time>
      </trkpt>
      <trkpt lat="42.74578" lon="1.84111">
        <ele>1256.8</ele>
        <time>2024-06-30T07:16:46Z</time>
      </trkpt>
      <trkpt lat="42.74575" lon="1.84109">
        <ele>1257.2</ele>
        <time>2024-06-30T07:16:47Z</time>
      </trkpt>
      <trkpt lat="42.74573" lon="1.84107">
        <ele>1257.4</ele>
        <time>2024-06-30T07:16:48Z</time>
      </trkpt>
      <trkpt lat="42.7457" lon="1.84104">
        <ele>1258</ele>
        <time>2024-06-30T07:16:49Z</time>
      </trkpt>
      <trkpt lat="42.74568" lon="1.84101">
        <ele>1258.4</ele>
        <time>2024-06-30T07:16:50Z</time>
      </trkpt>
      <trkpt lat="42.74565" lon="1.84099">
        <ele>1259</ele>
        <time>2024-06-30T07:16:51Z</time>
      </trkpt>
      <trkpt lat="42.74562" lon="1.84096">
        <ele>1259.2</ele>
        <time>2024-06-30T07:16:52Z</time>
      </trkpt>
      <trkpt lat="42.7456" lon="1.84093">
        <ele>1259.8</ele>
        <time>2024-06-30T07:16:53Z</time>
      </trkpt>
      <trkpt lat="42.74557" lon="1.84091">
        <ele>1260</ele>
        <time>2024-06-30T07:16:54Z</time>
      </trkpt>
      <trkpt lat="42.74555" lon="1.84089">
        <ele>1260.4</ele>
        <time>2024-06-30T07:16:55Z</time>
      </trkpt>
      <trkpt lat="42.74552" lon="1.84086">
        <ele>1260.6</ele>
        <time>2024-06-30T07:16:56Z</time>
      </trkpt>
      <trkpt lat="42.7455" lon="1.84083">
        <ele>1260.8</ele>
        <time>2024-06-30T07:16:57Z</time>
      </trkpt>
      <trkpt lat="42.74547" lon="1.84082">
        <ele>1261.2</ele>
        <time>2024-06-30T07:16:58Z</time>
      </trkpt>
      <trkpt lat="42.74545" lon="1.8408">
        <ele>1261.4</ele>
        <time>2024-06-30T07:16:59Z</time>
      </trkpt>
      <trkpt lat="42.74542" lon="1.84078">
        <ele>1262</ele>
        <time>2024-06-30T07:17:00Z</time>
      </trkpt>
      <trkpt lat="42.74539" lon="1.84076">
        <ele>1262.2</ele>
        <time>2024-06-30T07:17:01Z</time>
      </trkpt>
      <trkpt lat="42.74537" lon="1.84074">
        <ele>1262.4</ele>
        <time>2024-06-30T07:17:02Z</time>
      </trkpt>
      <trkpt lat="42.74534" lon="1.84072">
        <ele>1262.6</ele>
        <time>2024-06-30T07:17:03Z</time>
      </trkpt>
      <trkpt lat="42.74532" lon="1.8407">
        <ele>1262.8</ele>
        <time>2024-06-30T07:17:04Z</time>
      </trkpt>
      <trkpt lat="42.74529" lon="1.84068">
        <ele>1263</ele>
        <time>2024-06-30T07:17:05Z</time>
      </trkpt>
      <trkpt lat="42.74527" lon="1.84067">
        <ele>1263.2</ele>
        <time>2024-06-30T07:17:06Z</time>
      </trkpt>
      <trkpt lat="42.74524" lon="1.84066">
        <ele>1264</ele>
        <time>2024-06-30T07:17:07Z</time>
      </trkpt>
      <trkpt lat="42.74522" lon="1.84065">
        <ele>1264.2</ele>
        <time>2024-06-30T07:17:08Z</time>
      </trkpt>
      <trkpt lat="42.74519" lon="1.84063">
        <ele>1264.6</ele>
        <time>2024-06-30T07:17:09Z</time>
      </trkpt>
      <trkpt lat="42.74516" lon="1.84062">
        <ele>1265</ele>
        <time>2024-06-30T07:17:10Z</time>
      </trkpt>
      <trkpt lat="42.74514" lon="1.84061">
        <ele>1265.6</ele>
        <time>2024-06-30T07:17:11Z</time>
      </trkpt>
      <trkpt lat="42.74511" lon="1.84059">
        <ele>1266</ele>
        <time>2024-06-30T07:17:12Z</time>
      </trkpt>
      <trkpt lat="42.74508" lon="1.84058">
        <ele>1266.4</ele>
        <time>2024-06-30T07:17:13Z</time>
      </trkpt>
      <trkpt lat="42.74506" lon="1.84056">
        <ele>1266.6</ele>
        <time>2024-06-30T07:17:14Z</time>
      </trkpt>
      <trkpt lat="42.74503" lon="1.84054">
        <ele>1266.8</ele>
        <time>2024-06-30T07:17:15Z</time>
      </trkpt>
      <trkpt lat="42.74501" lon="1.84052">
        <ele>1267</ele>
        <time>2024-06-30T07:17:16Z</time>
      </trkpt>
      <trkpt lat="42.74499" lon="1.8405">
        <ele>1267.2</ele>
        <time>2024-06-30T07:17:17Z</time>
      </trkpt>
      <trkpt lat="42.74496" lon="1.84049">
        <ele>1267.8</ele>
        <time>2024-06-30T07:17:18Z</time>
      </trkpt>
      <trkpt lat="42.74494" lon="1.84047">
        <ele>1268</ele>
        <time>2024-06-30T07:17:19Z</time>
      </trkpt>
      <trkpt lat="42.74492" lon="1.84045">
        <ele>1268.4</ele>
        <time>2024-06-30T07:17:20Z</time>
      </trkpt>
      <trkpt lat="42.74489" lon="1.84043">
        <ele>1268.8</ele>
        <time>2024-06-30T07:17:21Z</time>
      </trkpt>
      <trkpt lat="42.74487" lon="1.84041">
        <ele>1269.4</ele>
        <time>2024-06-30T07:17:22Z</time>
      </trkpt>
      <trkpt lat="42.74484" lon="1.84039">
        <ele>1269.6</ele>
        <time>2024-06-30T07:17:23Z</time>
      </trkpt>
      <trkpt lat="42.74482" lon="1.84037">
        <ele>1270</ele>
        <time>2024-06-30T07:17:24Z</time>
      </trkpt>
      <trkpt lat="42.7448" lon="1.84036">
        <ele>1270.6</ele>
        <time>2024-06-30T07:17:25Z</time>
      </trkpt>
      <trkpt lat="42.74477" lon="1.84034">
        <ele>1270.8</ele>
        <time>2024-06-30T07:17:26Z</time>
      </trkpt>
      <trkpt lat="42.74475" lon="1.84032">
        <ele>1271.2</ele>
        <time>2024-06-30T07:17:27Z</time>
      </trkpt>
      <trkpt lat="42.74473" lon="1.84031">
        <ele>1271.4</ele>
        <time>2024-06-30T07:17:28Z</time>
      </trkpt>
      <trkpt lat="42.7447" lon="1.84029">
        <ele>1271.6</ele>
        <time>2024-06-30T07:17:29Z</time>
      </trkpt>
      <trkpt lat="42.74468" lon="1.84027">
        <ele>1271.8</ele>
        <time>2024-06-30T07:17:30Z</time>
      </trkpt>
      <trkpt lat="42.74465" lon="1.84025">
        <ele>1272</ele>
        <time>2024-06-30T07:17:31Z</time>
      </trkpt>
      <trkpt lat="42.74463" lon="1.84023">
        <ele>1272.2</ele>
        <time>2024-06-30T07:17:32Z</time>
      </trkpt>
      <trkpt lat="42.74461" lon="1.84021">
        <ele>1272.8</ele>
        <time>2024-06-30T07:17:33Z</time>
      </trkpt>
      <trkpt lat="42.74459" lon="1.8402">
        <ele>1273</ele>
        <time>2024-06-30T07:17:34Z</time>
      </trkpt>
      <trkpt lat="42.74456" lon="1.84018">
        <ele>1273.2</ele>
        <time>2024-06-30T07:17:35Z</time>
      </trkpt>
      <trkpt lat="42.74454" lon="1.84016">
        <ele>1273.6</ele>
        <time>2024-06-30T07:17:36Z</time>
      </trkpt>
      <trkpt lat="42.74452" lon="1.84014">
        <ele>1273.8</ele>
        <time>2024-06-30T07:17:37Z</time>
      </trkpt>
      <trkpt lat="42.7445" lon="1.84012">
        <ele>1274</ele>
        <time>2024-06-30T07:17:38Z</time>
      </trkpt>
      <trkpt lat="42.74448" lon="1.8401">
        <ele>1274</ele>
        <time>2024-06-30T07:17:39Z</time>
      </trkpt>
      <trkpt lat="42.74446" lon="1.84008">
        <ele>1274.4</ele>
        <time>2024-06-30T07:17:40Z</time>
      </trkpt>
      <trkpt lat="42.74444" lon="1.84006">
        <ele>1274.8</ele>
        <time>2024-06-30T07:17:41Z</time>
      </trkpt>
      <trkpt lat="42.74442" lon="1.84005">
        <ele>1275.2</ele>
        <time>2024-06-30T07:17:42Z</time>
      </trkpt>
      <trkpt lat="42.7444" lon="1.84003">
        <ele>1275.6</ele>
        <time>2024-06-30T07:17:43Z</time>
      </trkpt>
      <trkpt lat="42.74438" lon="1.84001">
        <ele>1275.8</ele>
        <time>2024-06-30T07:17:44Z</time>
      </trkpt>
      <trkpt lat="42.74435" lon="1.84">
        <ele>1276.2</ele>
        <time>2024-06-30T07:17:45Z</time>
      </trkpt>
      <trkpt lat="42.74433" lon="1.83998">
        <ele>1276.2</ele>
        <time>2024-06-30T07:17:46Z</time>
      </trkpt>
      <trkpt lat="42.74431" lon="1.83996">
        <ele>1276.8</ele>
        <time>2024-06-30T07:17:47Z</time>
      </trkpt>
      <trkpt lat="42.74429" lon="1.83995">
        <ele>1277</ele>
        <time>2024-06-30T07:17:48Z</time>
      </trkpt>
      <trkpt lat="42.74426" lon="1.83993">
        <ele>1277.4</ele>
        <time>2024-06-30T07:17:49Z</time>
      </trkpt>
      <trkpt lat="42.74424" lon="1.83991">
        <ele>1277.8</ele>
        <time>2024-06-30T07:17:50Z</time>
      </trkpt>
      <trkpt lat="42.74421" lon="1.8399">
        <ele>1278.6</ele>
        <time>2024-06-30T07:17:51Z</time>
      </trkpt>
      <trkpt lat="42.74419" lon="1.83989">
        <ele>1279.2</ele>
        <time>2024-06-30T07:17:52Z</time>
      </trkpt>
      <trkpt lat="42.74417" lon="1.83987">
        <ele>1279.4</ele>
        <time>2024-06-30T07:17:53Z</time>
      </trkpt>
      <trkpt lat="42.74414" lon="1.83985">
        <ele>1280.2</ele>
        <time>2024-06-30T07:17:54Z</time>
      </trkpt>
      <trkpt lat="42.74411" lon="1.83984">
        <ele>1280.4</ele>
        <time>2024-06-30T07:17:55Z</time>
      </trkpt>
      <trkpt lat="42.74409" lon="1.83983">
        <ele>1280.6</ele>
        <time>2024-06-30T07:17:56Z</time>
      </trkpt>
      <trkpt lat="42.74407" lon="1.83982">
        <ele>1280.8</ele>
        <time>2024-06-30T07:17:57Z</time>
      </trkpt>
      <trkpt lat="42.74404" lon="1.83979">
        <ele>1281.2</ele>
        <time>2024-06-30T07:17:58Z</time>
      </trkpt>
      <trkpt lat="42.74401" lon="1.83977">
        <ele>1281.2</ele>
        <time>2024-06-30T07:17:59Z</time>
      </trkpt>
      <trkpt lat="42.74399" lon="1.83976">
        <ele>1281.6</ele>
        <time>2024-06-30T07:18:00Z</time>
      </trkpt>
      <trkpt lat="42.74396" lon="1.83974">
        <ele>1282</ele>
        <time>2024-06-30T07:18:01Z</time>
      </trkpt>
      <trkpt lat="42.74394" lon="1.83973">
        <ele>1282.2</ele>
        <time>2024-06-30T07:18:02Z</time>
      </trkpt>
      <trkpt lat="42.74391" lon="1.83972">
        <ele>1282.8</ele>
        <time>2024-06-30T07:18:03Z</time>
      </trkpt>
      <trkpt lat="42.74389" lon="1.83971">
        <ele>1282.8</ele>
        <time>2024-06-30T07:18:04Z</time>
      </trkpt>
      <trkpt lat="42.74386" lon="1.83969">
        <ele>1283.2</ele>
        <time>2024-06-30T07:18:05Z</time>
      </trkpt>
      <trkpt lat="42.74384" lon="1.83968">
        <ele>1283.4</ele>
        <time>2024-06-30T07:18:06Z</time>
      </trkpt>
      <trkpt lat="42.74381" lon="1.83967">
        <ele>1284</ele>
        <time>2024-06-30T07:18:07Z</time>
      </trkpt>
      <trkpt lat="42.74378" lon="1.83966">
        <ele>1284.2</ele>
        <time>2024-06-30T07:18:08Z</time>
      </trkpt>
      <trkpt lat="42.74376" lon="1.83965">
        <ele>1284.6</ele>
        <time>2024-06-30T07:18:09Z</time>
      </trkpt>
      <trkpt lat="42.74373" lon="1.83965">
        <ele>1284.8</ele>
        <time>2024-06-30T07:18:10Z</time>
      </trkpt>
      <trkpt lat="42.7437" lon="1.83964">
        <ele>1285.2</ele>
        <time>2024-06-30T07:18:11Z</time>
      </trkpt>
      <trkpt lat="42.74367" lon="1.83963">
        <ele>1285.4</ele>
        <time>2024-06-30T07:18:12Z</time>
      </trkpt>
      <trkpt lat="42.74365" lon="1.83962">
        <ele>1285.8</ele>
        <time>2024-06-30T07:18:13Z</time>
      </trkpt>
      <trkpt lat="42.74362" lon="1.83961">
        <ele>1286</ele>
        <time>2024-06-30T07:18:14Z</time>
      </trkpt>
      <trkpt lat="42.7436" lon="1.8396">
        <ele>1286.2</ele>
        <time>2024-06-30T07:18:15Z</time>
      </trkpt>
      <trkpt lat="42.74357" lon="1.83959">
        <ele>1286.4</ele>
        <time>2024-06-30T07:18:16Z</time>
      </trkpt>
      <trkpt lat="42.74355" lon="1.83958">
        <ele>1286.6</ele>
        <time>2024-06-30T07:18:17Z</time>
      </trkpt>
      <trkpt lat="42.74352" lon="1.83958">
        <ele>1287</ele>
        <time>2024-06-30T07:18:18Z</time>
      </trkpt>
      <trkpt lat="42.7435" lon="1.83957">
        <ele>1287.4</ele>
        <time>2024-06-30T07:18:19Z</time>
      </trkpt>
      <trkpt lat="42.74348" lon="1.83956">
        <ele>1287.8</ele>
        <time>2024-06-30T07:18:20Z</time>
      </trkpt>
      <trkpt lat="42.74344" lon="1.83955">
        <ele>1288</ele>
        <time>2024-06-30T07:18:21Z</time>
      </trkpt>
      <trkpt lat="42.74342" lon="1.83954">
        <ele>1288.2</ele>
        <time>2024-06-30T07:18:22Z</time>
      </trkpt>
      <trkpt lat="42.7434" lon="1.83953">
        <ele>1288.6</ele>
        <time>2024-06-30T07:18:23Z</time>
      </trkpt>
      <trkpt lat="42.74337" lon="1.83953">
        <ele>1288.6</ele>
        <time>2024-06-30T07:18:24Z</time>
      </trkpt>
      <trkpt lat="42.74334" lon="1.83952">
        <ele>1289.2</ele>
        <time>2024-06-30T07:18:25Z</time>
      </trkpt>
      <trkpt lat="42.74331" lon="1.83951">
        <ele>1289.4</ele>
        <time>2024-06-30T07:18:26Z</time>
      </trkpt>
      <trkpt lat="42.74327" lon="1.83951">
        <ele>1289.6</ele>
        <time>2024-06-30T07:18:27Z</time>
      </trkpt>
      <trkpt lat="42.74325" lon="1.83951">
        <ele>1289.8</ele>
        <time>2024-06-30T07:18:28Z</time>
      </trkpt>
      <trkpt lat="42.74322" lon="1.8395">
        <ele>1290.2</ele>
        <time>2024-06-30T07:18:29Z</time>
      </trkpt>
      <trkpt lat="42.7432" lon="1.8395">
        <ele>1290.6</ele>
        <time>2024-06-30T07:18:30Z</time>
      </trkpt>
      <trkpt lat="42.74317" lon="1.83949">
        <ele>1291</ele>
        <time>2024-06-30T07:18:31Z</time>
      </trkpt>
      <trkpt lat="42.74313" lon="1.83949">
        <ele>1291.4</ele>
        <time>2024-06-30T07:18:32Z</time>
      </trkpt>
      <trkpt lat="42.74311" lon="1.83948">
        <ele>1291.6</ele>
        <time>2024-06-30T07:18:33Z</time>
      </trkpt>
      <trkpt lat="42.74308" lon="1.83947">
        <ele>1292</ele>
        <time>2024-06-30T07:18:34Z</time>
      </trkpt>
      <trkpt lat="42.74306" lon="1.83946">
        <ele>1292.2</ele>
        <time>2024-06-30T07:18:35Z</time>
      </trkpt>
      <trkpt lat="42.74303" lon="1.83945">
        <ele>1292.6</ele>
        <time>2024-06-30T07:18:36Z</time>
      </trkpt>
      <trkpt lat="42.74301" lon="1.83944">
        <ele>1292.6</ele>
        <time>2024-06-30T07:18:37Z</time>
      </trkpt>
      <trkpt lat="42.74298" lon="1.83943">
        <ele>1293</ele>
        <time>2024-06-30T07:18:38Z</time>
      </trkpt>
      <trkpt lat="42.74295" lon="1.83942">
        <ele>1293.2</ele>
        <time>2024-06-30T07:18:39Z</time>
      </trkpt>
      <trkpt lat="42.74292" lon="1.83942">
        <ele>1293.4</ele>
        <time>2024-06-30T07:18:40Z</time>
      </trkpt>
      <trkpt lat="42.74289" lon="1.83941">
        <ele>1293.8</ele>
        <time>2024-06-30T07:18:41Z</time>
      </trkpt>
      <trkpt lat="42.74286" lon="1.8394">
        <ele>1294</ele>
        <time>2024-06-30T07:18:42Z</time>
      </trkpt>
      <trkpt lat="42.74283" lon="1.83939">
        <ele>1294.4</ele>
        <time>2024-06-30T07:18:43Z</time>
      </trkpt>
      <trkpt lat="42.74281" lon="1.8394">
        <ele>1294.6</ele>
        <time>2024-06-30T07:18:44Z</time>
      </trkpt>
      <trkpt lat="42.74278" lon="1.83941">
        <ele>1294.8</ele>
        <time>2024-06-30T07:18:45Z</time>
      </trkpt>
      <trkpt lat="42.74277" lon="1.83945">
        <ele>1294.8</ele>
        <time>2024-06-30T07:18:46Z</time>
      </trkpt>
      <trkpt lat="42.74277" lon="1.83948">
        <ele>1295</ele>
        <time>2024-06-30T07:18:47Z</time>
      </trkpt>
      <trkpt lat="42.74277" lon="1.8395">
        <ele>1295.2</ele>
        <time>2024-06-30T07:18:48Z</time>
      </trkpt>
      <trkpt lat="42.74279" lon="1.83951">
        <ele>1295.4</ele>
        <time>2024-06-30T07:18:49Z</time>
      </trkpt>
      <trkpt lat="42.74281" lon="1.83953">
        <ele>1295.8</ele>
        <time>2024-06-30T07:18:50Z</time>
      </trkpt>
      <trkpt lat="42.74284" lon="1.83953">
        <ele>1295.8</ele>
        <time>2024-06-30T07:18:51Z</time>
      </trkpt>
      <trkpt lat="42.74287" lon="1.83954">
        <ele>1296.2</ele>
        <time>2024-06-30T07:18:52Z</time>
      </trkpt>
      <trkpt lat="42.7429" lon="1.83955">
        <ele>1296.4</ele>
        <time>2024-06-30T07:18:53Z</time>
      </trkpt>
      <trkpt lat="42.74292" lon="1.83956">
        <ele>1296.6</ele>
        <time>2024-06-30T07:18:54Z</time>
      </trkpt>
      <trkpt lat="42.74295" lon="1.83957">
        <ele>1296.6</ele>
        <time>2024-06-30T07:18:55Z</time>
      </trkpt>
      <trkpt lat="42.74298" lon="1.83957">
        <ele>1296.8</ele>
        <time>2024-06-30T07:18:56Z</time>
      </trkpt>
      <trkpt lat="42.74302" lon="1.83959">
        <ele>1297</ele>
        <time>2024-06-30T07:18:57Z</time>
      </trkpt>
      <trkpt lat="42.74304" lon="1.8396">
        <ele>1297.2</ele>
        <time>2024-06-30T07:18:58Z</time>
      </trkpt>
      <trkpt lat="42.74308" lon="1.83962">
        <ele>1297.4</ele>
        <time>2024-06-30T07:18:59Z</time>
      </trkpt>
      <trkpt lat="42.74311" lon="1.83964">
        <ele>1297.4</ele>
        <time>2024-06-30T07:19:00Z</time>
      </trkpt>
      <trkpt lat="42.74314" lon="1.83966">
        <ele>1297.6</ele>
        <time>2024-06-30T07:19:01Z</time>
      </trkpt>
      <trkpt lat="42.74316" lon="1.83968">
        <ele>1297.8</ele>
        <time>2024-06-30T07:19:02Z</time>
      </trkpt>
      <trkpt lat="42.74319" lon="1.8397">
        <ele>1298</ele>
        <time>2024-06-30T07:19:03Z</time>
      </trkpt>
      <trkpt lat="42.74322" lon="1.83973">
        <ele>1298</ele>
        <time>2024-06-30T07:19:04Z</time>
      </trkpt>
      <trkpt lat="42.74324" lon="1.83975">
        <ele>1298.2</ele>
        <time>2024-06-30T07:19:05Z</time>
      </trkpt>
      <trkpt lat="42.74327" lon="1.83977">
        <ele>1298.2</ele>
        <time>2024-06-30T07:19:06Z</time>
      </trkpt>
      <trkpt lat="42.74329" lon="1.83979">
        <ele>1298.4</ele>
        <time>2024-06-30T07:19:07Z</time>
      </trkpt>
      <trkpt lat="42.74331" lon="1.83981">
        <ele>1298.6</ele>
        <time>2024-06-30T07:19:08Z</time>
      </trkpt>
      <trkpt lat="42.74334" lon="1.83982">
        <ele>1298.8</ele>
        <time>2024-06-30T07:19:09Z</time>
      </trkpt>
      <trkpt lat="42.74336" lon="1.83984">
        <ele>1299</ele>
        <time>2024-06-30T07:19:10Z</time>
      </trkpt>
      <trkpt lat="42.74338" lon="1.83986">
        <ele>1299.2</ele>
        <time>2024-06-30T07:19:11Z</time>
      </trkpt>
      <trkpt lat="42.74339" lon="1.83987">
        <ele>1299.4</ele>
        <time>2024-06-30T07:19:12Z</time>
      </trkpt>
      <trkpt lat="42.74341" lon="1.83988">
        <ele>1299.4</ele>
        <time>2024-06-30T07:19:13Z</time>
      </trkpt>
      <trkpt lat="42.74342" lon="1.83989">
        <ele>1299.8</ele>
        <time>2024-06-30T07:19:14Z</time>
      </trkpt>
      <trkpt lat="42.74343" lon="1.83991">
        <ele>1300</ele>
        <time>2024-06-30T07:19:15Z</time>
      </trkpt>
      <trkpt lat="42.74344" lon="1.83992">
        <ele>1300.4</ele>
        <time>2024-06-30T07:19:16Z</time>
      </trkpt>
      <trkpt lat="42.74345" lon="1.83995">
        <ele>1300.6</ele>
        <time>2024-06-30T07:19:17Z</time>
      </trkpt>
      <trkpt lat="42.74346" lon="1.83997">
        <ele>1300.8</ele>
        <time>2024-06-30T07:19:18Z</time>
      </trkpt>
      <trkpt lat="42.74347" lon="1.84">
        <ele>1301</ele>
        <time>2024-06-30T07:19:19Z</time>
      </trkpt>
      <trkpt lat="42.74349" lon="1.84003">
        <ele>1301</ele>
        <time>2024-06-30T07:19:20Z</time>
      </trkpt>
      <trkpt lat="42.7435" lon="1.84006">
        <ele>1301.4</ele>
        <time>2024-06-30T07:19:21Z</time>
      </trkpt>
      <trkpt lat="42.74352" lon="1.84008">
        <ele>1301.4</ele>
        <time>2024-06-30T07:19:22Z</time>
      </trkpt>
      <trkpt lat="42.74354" lon="1.84011">
        <ele>1301.8</ele>
        <time>2024-06-30T07:19:23Z</time>
      </trkpt>
      <trkpt lat="42.74355" lon="1.84014">
        <ele>1302</ele>
        <time>2024-06-30T07:19:24Z</time>
      </trkpt>
      <trkpt lat="42.74357" lon="1.84017">
        <ele>1302.2</ele>
        <time>2024-06-30T07:19:25Z</time>
      </trkpt>
      <trkpt lat="42.74358" lon="1.84021">
        <ele>1302.4</ele>
        <time>2024-06-30T07:19:26Z</time>
      </trkpt>
      <trkpt lat="42.74359" lon="1.84024">
        <ele>1302.8</ele>
        <time>2024-06-30T07:19:27Z</time>
      </trkpt>
      <trkpt lat="42.7436" lon="1.84028">
        <ele>1303.4</ele>
        <time>2024-06-30T07:19:28Z</time>
      </trkpt>
      <trkpt lat="42.74361" lon="1.84031">
        <ele>1303.6</ele>
        <time>2024-06-30T07:19:29Z</time>
      </trkpt>
      <trkpt lat="42.74363" lon="1.84034">
        <ele>1303.8</ele>
        <time>2024-06-30T07:19:30Z</time>
      </trkpt>
      <trkpt lat="42.74364" lon="1.84037">
        <ele>1304.2</ele>
        <time>2024-06-30T07:19:31Z</time>
      </trkpt>
      <trkpt lat="42.74366" lon="1.84041">
        <ele>1304.4</ele>
        <time>2024-06-30T07:19:32Z</time>
      </trkpt>
      <trkpt lat="42.74367" lon="1.84044">
        <ele>1304.6</ele>
        <time>2024-06-30T07:19:33Z</time>
      </trkpt>
      <trkpt lat="42.74368" lon="1.84047">
        <ele>1305</ele>
        <time>2024-06-30T07:19:34Z</time>
      </trkpt>
      <trkpt lat="42.74369" lon="1.84051">
        <ele>1305.2</ele>
        <time>2024-06-30T07:19:35Z</time>
      </trkpt>
      <trkpt lat="42.7437" lon="1.84054">
        <ele>1305.4</ele>
        <time>2024-06-30T07:19:36Z</time>
      </trkpt>
      <trkpt lat="42.74371" lon="1.84058">
        <ele>1306.2</ele>
        <time>2024-06-30T07:19:37Z</time>
      </trkpt>
      <trkpt lat="42.74372" lon="1.84061">
        <ele>1306.2</ele>
        <time>2024-06-30T07:19:38Z</time>
      </trkpt>
      <trkpt lat="42.74374" lon="1.84064">
        <ele>1306.8</ele>
        <time>2024-06-30T07:19:39Z</time>
      </trkpt>
      <trkpt lat="42.74376" lon="1.84067">
        <ele>1307.2</ele>
        <time>2024-06-30T07:19:40Z</time>
      </trkpt>
      <trkpt lat="42.74378" lon="1.84069">
        <ele>1307.6</ele>
        <time>2024-06-30T07:19:41Z</time>
      </trkpt>
      <trkpt lat="42.74378" lon="1.84073">
        <ele>1308</ele>
        <time>2024-06-30T07:19:42Z</time>
      </trkpt>
      <trkpt lat="42.7438" lon="1.84077">
        <ele>1308.4</ele>
        <time>2024-06-30T07:19:43Z</time>
      </trkpt>
      <trkpt lat="42.74381" lon="1.84081">
        <ele>1308.6</ele>
        <time>2024-06-30T07:19:44Z</time>
      </trkpt>
      <trkpt lat="42.74382" lon="1.84085">
        <ele>1309.4</ele>
        <time>2024-06-30T07:19:45Z</time>
      </trkpt>
      <trkpt lat="42.74383" lon="1.84089">
        <ele>1309.8</ele>
        <time>2024-06-30T07:19:46Z</time>
      </trkpt>
      <trkpt lat="42.74384" lon="1.84092">
        <ele>1310.2</ele>
        <time>2024-06-30T07:19:47Z</time>
      </trkpt>
      <trkpt lat="42.74385" lon="1.84096">
        <ele>1310.4</ele>
        <time>2024-06-30T07:19:48Z</time>
      </trkpt>
      <trkpt lat="42.74387" lon="1.84101">
        <ele>1310.6</ele>
        <time>2024-06-30T07:19:49Z</time>
      </trkpt>
      <trkpt lat="42.74388" lon="1.84105">
        <ele>1310.8</ele>
        <time>2024-06-30T07:19:50Z</time>
      </trkpt>
      <trkpt lat="42.74388" lon="1.84109">
        <ele>1311</ele>
        <time>2024-06-30T07:19:51Z</time>
      </trkpt>
      <trkpt lat="42.74388" lon="1.84112">
        <ele>1311.4</ele>
        <time>2024-06-30T07:19:52Z</time>
      </trkpt>
      <trkpt lat="42.74388" lon="1.84116">
        <ele>1311.8</ele>
        <time>2024-06-30T07:19:53Z</time>
      </trkpt>
      <trkpt lat="42.74388" lon="1.8412">
        <ele>1312.6</ele>
        <time>2024-06-30T07:19:54Z</time>
      </trkpt>
      <trkpt lat="42.74388" lon="1.84124">
        <ele>1313</ele>
        <time>2024-06-30T07:19:55Z</time>
      </trkpt>
      <trkpt lat="42.74389" lon="1.84128">
        <ele>1313.4</ele>
        <time>2024-06-30T07:19:56Z</time>
      </trkpt>
      <trkpt lat="42.7439" lon="1.84132">
        <ele>1313.8</ele>
        <time>2024-06-30T07:19:57Z</time>
      </trkpt>
      <trkpt lat="42.74392" lon="1.84136">
        <ele>1314</ele>
        <time>2024-06-30T07:19:58Z</time>
      </trkpt>
      <trkpt lat="42.74392" lon="1.84138">
        <ele>1314.2</ele>
        <time>2024-06-30T07:19:59Z</time>
      </trkpt>
      <trkpt lat="42.74393" lon="1.84142">
        <ele>1314.4</ele>
        <time>2024-06-30T07:20:00Z</time>
      </trkpt>
      <trkpt lat="42.74394" lon="1.84147">
        <ele>1314.8</ele>
        <time>2024-06-30T07:20:01Z</time>
      </trkpt>
      <trkpt lat="42.74395" lon="1.84152">
        <ele>1315.2</ele>
        <time>2024-06-30T07:20:02Z</time>
      </trkpt>
      <trkpt lat="42.74395" lon="1.84156">
        <ele>1315.6</ele>
        <time>2024-06-30T07:20:03Z</time>
      </trkpt>
      <trkpt lat="42.74396" lon="1.84161">
        <ele>1315.6</ele>
        <time>2024-06-30T07:20:04Z</time>
      </trkpt>
      <trkpt lat="42.74397" lon="1.84165">
        <ele>1316</ele>
        <time>2024-06-30T07:20:05Z</time>
      </trkpt>
      <trkpt lat="42.74398" lon="1.84169">
        <ele>1316.4</ele>
        <time>2024-06-30T07:20:06Z</time>
      </trkpt>
      <trkpt lat="42.74398" lon="1.84172">
        <ele>1316.6</ele>
        <time>2024-06-30T07:20:07Z</time>
      </trkpt>
      <trkpt lat="42.74398" lon="1.84176">
        <ele>1317</ele>
        <time>2024-06-30T07:20:08Z</time>
      </trkpt>
      <trkpt lat="42.74398" lon="1.84179">
        <ele>1317.4</ele>
        <time>2024-06-30T07:20:09Z</time>
      </trkpt>
      <trkpt lat="42.74398" lon="1.84184">
        <ele>1317.8</ele>
        <time>2024-06-30T07:20:10Z</time>
      </trkpt>
      <trkpt lat="42.74398" lon="1.84188">
        <ele>1318</ele>
        <time>2024-06-30T07:20:11Z</time>
      </trkpt>
      <trkpt lat="42.744" lon="1.84192">
        <ele>1318.4</ele>
        <time>2024-06-30T07:20:12Z</time>
      </trkpt>
      <trkpt lat="42.744" lon="1.84196">
        <ele>1318.8</ele>
        <time>2024-06-30T07:20:13Z</time>
      </trkpt>
      <trkpt lat="42.74401" lon="1.84201">
        <ele>1319.4</ele>
        <time>2024-06-30T07:20:14Z</time>
      </trkpt>
      <trkpt lat="42.74402" lon="1.84205">
        <ele>1320.2</ele>
        <time>2024-06-30T07:20:15Z</time>
      </trkpt>
      <trkpt lat="42.74403" lon="1.84208">
        <ele>1320.4</ele>
        <time>2024-06-30T07:20:16Z</time>
      </trkpt>
      <trkpt lat="42.74403" lon="1.84211">
        <ele>1320.8</ele>
        <time>2024-06-30T07:20:17Z</time>
      </trkpt>
      <trkpt lat="42.74404" lon="1.84215">
        <ele>1321.2</ele>
        <time>2024-06-30T07:20:18Z</time>
      </trkpt>
      <trkpt lat="42.74404" lon="1.84218">
        <ele>1321.6</ele>
        <time>2024-06-30T07:20:19Z</time>
      </trkpt>
      <trkpt lat="42.74405" lon="1.84221">
        <ele>1321.8</ele>
        <time>2024-06-30T07:20:20Z</time>
      </trkpt>
      <trkpt lat="42.74406" lon="1.84224">
        <ele>1322</ele>
        <time>2024-06-30T07:20:21Z</time>
      </trkpt>
      <trkpt lat="42.74406" lon="1.84227">
        <ele>1322.2</ele>
        <time>2024-06-30T07:20:22Z</time>
      </trkpt>
      <trkpt lat="42.74407" lon="1.84231">
        <ele>1322.6</ele>
        <time>2024-06-30T07:20:23Z</time>
      </trkpt>
      <trkpt lat="42.74408" lon="1.84234">
        <ele>1323</ele>
        <time>2024-06-30T07:20:24Z</time>
      </trkpt>
      <trkpt lat="42.74409" lon="1.84238">
        <ele>1323.2</ele>
        <time>2024-06-30T07:20:25Z</time>
      </trkpt>
      <trkpt lat="42.7441" lon="1.84241">
        <ele>1323.8</ele>
        <time>2024-06-30T07:20:26Z</time>
      </trkpt>
      <trkpt lat="42.74411" lon="1.84245">
        <ele>1324</ele>
        <time>2024-06-30T07:20:27Z</time>
      </trkpt>
      <trkpt lat="42.74412" lon="1.84249">
        <ele>1324.2</ele>
        <time>2024-06-30T07:20:28Z</time>
      </trkpt>
      <trkpt lat="42.74413" lon="1.84252">
        <ele>1324.6</ele>
        <time>2024-06-30T07:20:29Z</time>
      </trkpt>
      <trkpt lat="42.74415" lon="1.84256">
        <ele>1325</ele>
        <time>2024-06-30T07:20:30Z</time>
      </trkpt>
      <trkpt lat="42.74416" lon="1.84259">
        <ele>1325.2</ele>
        <time>2024-06-30T07:20:31Z</time>
      </trkpt>
      <trkpt lat="42.74418" lon="1.84263">
        <ele>1325.2</ele>
        <time>2024-06-30T07:20:32Z</time>
      </trkpt>
      <trkpt lat="42.74419" lon="1.84268">
        <ele>1325.4</ele>
        <time>2024-06-30T07:20:33Z</time>
      </trkpt>
      <trkpt lat="42.7442" lon="1.84272">
        <ele>1325.8</ele>
        <time>2024-06-30T07:20:34Z</time>
      </trkpt>
      <trkpt lat="42.74422" lon="1.84276">
        <ele>1326.4</ele>
        <time>2024-06-30T07:20:35Z</time>
      </trkpt>
      <trkpt lat="42.74424" lon="1.84279">
        <ele>1326.6</ele>
        <time>2024-06-30T07:20:36Z</time>
      </trkpt>
      <trkpt lat="42.74425" lon="1.84284">
        <ele>1326.8</ele>
        <time>2024-06-30T07:20:37Z</time>
      </trkpt>
      <trkpt lat="42.74426" lon="1.84287">
        <ele>1327</ele>
        <time>2024-06-30T07:20:38Z</time>
      </trkpt>
      <trkpt lat="42.74427" lon="1.8429">
        <ele>1327.6</ele>
        <time>2024-06-30T07:20:39Z</time>
      </trkpt>
      <trkpt lat="42.74428" lon="1.84294">
        <ele>1328</ele>
        <time>2024-06-30T07:20:40Z</time>
      </trkpt>
      <trkpt lat="42.7443" lon="1.843">
        <ele>1328.6</ele>
        <time>2024-06-30T07:20:41Z</time>
      </trkpt>
      <trkpt lat="42.74431" lon="1.84303">
        <ele>1328.8</ele>
        <time>2024-06-30T07:20:42Z</time>
      </trkpt>
      <trkpt lat="42.74431" lon="1.84306">
        <ele>1329.2</ele>
        <time>2024-06-30T07:20:43Z</time>
      </trkpt>
      <trkpt lat="42.74433" lon="1.84309">
        <ele>1329.6</ele>
        <time>2024-06-30T07:20:44Z</time>
      </trkpt>
      <trkpt lat="42.74434" lon="1.84312">
        <ele>1329.6</ele>
        <time>2024-06-30T07:20:45Z</time>
      </trkpt>
      <trkpt lat="42.74435" lon="1.84316">
        <ele>1329.8</ele>
        <time>2024-06-30T07:20:46Z</time>
      </trkpt>
      <trkpt lat="42.74437" lon="1.84319">
        <ele>1330.2</ele>
        <time>2024-06-30T07:20:47Z</time>
      </trkpt>
      <trkpt lat="42.74437" lon="1.84323">
        <ele>1330.4</ele>
        <time>2024-06-30T07:20:48Z</time>
      </trkpt>
      <trkpt lat="42.74437" lon="1.84327">
        <ele>1330.6</ele>
        <time>2024-06-30T07:20:49Z</time>
      </trkpt>
      <trkpt lat="42.74438" lon="1.8433">
        <ele>1330.8</ele>
        <time>2024-06-30T07:20:50Z</time>
      </trkpt>
      <trkpt lat="42.74439" lon="1.84335">
        <ele>1331.2</ele>
        <time>2024-06-30T07:20:51Z</time>
      </trkpt>
      <trkpt lat="42.7444" lon="1.84341">
        <ele>1331.8</ele>
        <time>2024-06-30T07:20:52Z</time>
      </trkpt>
      <trkpt lat="42.74441" lon="1.84345">
        <ele>1332.2</ele>
        <time>2024-06-30T07:20:53Z</time>
      </trkpt>
      <trkpt lat="42.74441" lon="1.84349">
        <ele>1332.4</ele>
        <time>2024-06-30T07:20:54Z</time>
      </trkpt>
      <trkpt lat="42.74441" lon="1.84353">
        <ele>1333</ele>
        <time>2024-06-30T07:20:55Z</time>
      </trkpt>
      <trkpt lat="42.74441" lon="1.84358">
        <ele>1333.4</ele>
        <time>2024-06-30T07:20:56Z</time>
      </trkpt>
      <trkpt lat="42.74441" lon="1.84362">
        <ele>1333.8</ele>
        <time>2024-06-30T07:20:57Z</time>
      </trkpt>
      <trkpt lat="42.74441" lon="1.84366">
        <ele>1334</ele>
        <time>2024-06-30T07:20:58Z</time>
      </trkpt>
      <trkpt lat="42.74441" lon="1.8437">
        <ele>1334.2</ele>
        <time>2024-06-30T07:20:59Z</time>
      </trkpt>
      <trkpt lat="42.74442" lon="1.84373">
        <ele>1334.4</ele>
        <time>2024-06-30T07:21:00Z</time>
      </trkpt>
      <trkpt lat="42.74443" lon="1.84376">
        <ele>1334.8</ele>
        <time>2024-06-30T07:21:01Z</time>
      </trkpt>
      <trkpt lat="42.74445" lon="1.8438">
        <ele>1335.2</ele>
        <time>2024-06-30T07:21:02Z</time>
      </trkpt>
      <trkpt lat="42.74446" lon="1.84383">
        <ele>1335.4</ele>
        <time>2024-06-30T07:21:03Z</time>
      </trkpt>
      <trkpt lat="42.74448" lon="1.84387">
        <ele>1335.6</ele>
        <time>2024-06-30T07:21:04Z</time>
      </trkpt>
      <trkpt lat="42.74449" lon="1.8439">
        <ele>1335.8</ele>
        <time>2024-06-30T07:21:05Z</time>
      </trkpt>
      <trkpt lat="42.74451" lon="1.84393">
        <ele>1336</ele>
        <time>2024-06-30T07:21:06Z</time>
      </trkpt>
      <trkpt lat="42.74453" lon="1.84396">
        <ele>1336.2</ele>
        <time>2024-06-30T07:21:07Z</time>
      </trkpt>
      <trkpt lat="42.74454" lon="1.84399">
        <ele>1336.8</ele>
        <time>2024-06-30T07:21:08Z</time>
      </trkpt>
      <trkpt lat="42.74456" lon="1.84401">
        <ele>1337</ele>
        <time>2024-06-30T07:21:09Z</time>
      </trkpt>
      <trkpt lat="42.74458" lon="1.84404">
        <ele>1337.6</ele>
        <time>2024-06-30T07:21:10Z</time>
      </trkpt>
      <trkpt lat="42.74459" lon="1.84407">
        <ele>1337.8</ele>
        <time>2024-06-30T07:21:11Z</time>
      </trkpt>
      <trkpt lat="42.74461" lon="1.84409">
        <ele>1338</ele>
        <time>2024-06-30T07:21:12Z</time>
      </trkpt>
      <trkpt lat="42.74463" lon="1.84412">
        <ele>1338.6</ele>
        <time>2024-06-30T07:21:13Z</time>
      </trkpt>
      <trkpt lat="42.74465" lon="1.84414">
        <ele>1338.8</ele>
        <time>2024-06-30T07:21:14Z</time>
      </trkpt>
      <trkpt lat="42.74468" lon="1.84416">
        <ele>1339.4</ele>
        <time>2024-06-30T07:21:15Z</time>
      </trkpt>
      <trkpt lat="42.7447" lon="1.84418">
        <ele>1339.6</ele>
        <time>2024-06-30T07:21:16Z</time>
      </trkpt>
      <trkpt lat="42.74472" lon="1.84421">
        <ele>1339.8</ele>
        <time>2024-06-30T07:21:17Z</time>
      </trkpt>
      <trkpt lat="42.74474" lon="1.84423">
        <ele>1340</ele>
        <time>2024-06-30T07:21:18Z</time>
      </trkpt>
      <trkpt lat="42.74476" lon="1.84426">
        <ele>1340.4</ele>
        <time>2024-06-30T07:21:19Z</time>
      </trkpt>
      <trkpt lat="42.74478" lon="1.84429">
        <ele>1340.4</ele>
        <time>2024-06-30T07:21:20Z</time>
      </trkpt>
      <trkpt lat="42.7448" lon="1.84432">
        <ele>1341</ele>
        <time>2024-06-30T07:21:21Z</time>
      </trkpt>
      <trkpt lat="42.74482" lon="1.84435">
        <ele>1341.4</ele>
        <time>2024-06-30T07:21:22Z</time>
      </trkpt>
      <trkpt lat="42.74483" lon="1.84438">
        <ele>1341.8</ele>
        <time>2024-06-30T07:21:23Z</time>
      </trkpt>
      <trkpt lat="42.74484" lon="1.84442">
        <ele>1342.2</ele>
        <time>2024-06-30T07:21:24Z</time>
      </trkpt>
      <trkpt lat="42.74485" lon="1.84446">
        <ele>1342.4</ele>
        <time>2024-06-30T07:21:25Z</time>
      </trkpt>
      <trkpt lat="42.74486" lon="1.8445">
        <ele>1342.6</ele>
        <time>2024-06-30T07:21:26Z</time>
      </trkpt>
      <trkpt lat="42.74487" lon="1.84454">
        <ele>1343</ele>
        <time>2024-06-30T07:21:27Z</time>
      </trkpt>
      <trkpt lat="42.74487" lon="1.84457">
        <ele>1343.4</ele>
        <time>2024-06-30T07:21:28Z</time>
      </trkpt>
      <trkpt lat="42.74488" lon="1.84462">
        <ele>1343.6</ele>
        <time>2024-06-30T07:21:29Z</time>
      </trkpt>
      <trkpt lat="42.74488" lon="1.84466">
        <ele>1344</ele>
        <time>2024-06-30T07:21:30Z</time>
      </trkpt>
      <trkpt lat="42.74489" lon="1.8447">
        <ele>1344.8</ele>
        <time>2024-06-30T07:21:31Z</time>
      </trkpt>
      <trkpt lat="42.74489" lon="1.84474">
        <ele>1344.8</ele>
        <time>2024-06-30T07:21:32Z</time>
      </trkpt>
      <trkpt lat="42.74489" lon="1.84477">
        <ele>1345.2</ele>
        <time>2024-06-30T07:21:33Z</time>
      </trkpt>
      <trkpt lat="42.7449" lon="1.84483">
        <ele>1345.4</ele>
        <time>2024-06-30T07:21:34Z</time>
      </trkpt>
      <trkpt lat="42.74491" lon="1.84488">
        <ele>1346</ele>
        <time>2024-06-30T07:21:35Z</time>
      </trkpt>
      <trkpt lat="42.74491" lon="1.84492">
        <ele>1346.2</ele>
        <time>2024-06-30T07:21:36Z</time>
      </trkpt>
      <trkpt lat="42.74491" lon="1.84496">
        <ele>1346.6</ele>
        <time>2024-06-30T07:21:37Z</time>
      </trkpt>
      <trkpt lat="42.74491" lon="1.84501">
        <ele>1346.6</ele>
        <time>2024-06-30T07:21:38Z</time>
      </trkpt>
      <trkpt lat="42.7449" lon="1.84505">
        <ele>1347</ele>
        <time>2024-06-30T07:21:39Z</time>
      </trkpt>
      <trkpt lat="42.7449" lon="1.84509">
        <ele>1347.2</ele>
        <time>2024-06-30T07:21:40Z</time>
      </trkpt>
      <trkpt lat="42.74491" lon="1.84514">
        <ele>1347.6</ele>
        <time>2024-06-30T07:21:41Z</time>
      </trkpt>
      <trkpt lat="42.74491" lon="1.84519">
        <ele>1348</ele>
        <time>2024-06-30T07:21:42Z</time>
      </trkpt>
      <trkpt lat="42.74491" lon="1.84523">
        <ele>1348.2</ele>
        <time>2024-06-30T07:21:43Z</time>
      </trkpt>
      <trkpt lat="42.7449" lon="1.84528">
        <ele>1348.6</ele>
        <time>2024-06-30T07:21:44Z</time>
      </trkpt>
      <trkpt lat="42.7449" lon="1.84533">
        <ele>1348.6</ele>
        <time>2024-06-30T07:21:45Z</time>
      </trkpt>
      <trkpt lat="42.7449" lon="1.84537">
        <ele>1349.4</ele>
        <time>2024-06-30T07:21:46Z</time>
      </trkpt>
      <trkpt lat="42.7449" lon="1.84541">
        <ele>1349.8</ele>
        <time>2024-06-30T07:21:47Z</time>
      </trkpt>
      <trkpt lat="42.74489" lon="1.84544">
        <ele>1350.2</ele>
        <time>2024-06-30T07:21:48Z</time>
      </trkpt>
      <trkpt lat="42.74489" lon="1.84548">
        <ele>1350.6</ele>
        <time>2024-06-30T07:21:49Z</time>
      </trkpt>
      <trkpt lat="42.74489" lon="1.84552">
        <ele>1351.2</ele>
        <time>2024-06-30T07:21:50Z</time>
      </trkpt>
      <trkpt lat="42.74489" lon="1.84557">
        <ele>1351.4</ele>
        <time>2024-06-30T07:21:51Z</time>
      </trkpt>
      <trkpt lat="42.74489" lon="1.84561">
        <ele>1351.6</ele>
        <time>2024-06-30T07:21:52Z</time>
      </trkpt>
      <trkpt lat="42.74489" lon="1.84566">
        <ele>1352</ele>
        <time>2024-06-30T07:21:53Z</time>
      </trkpt>
      <trkpt lat="42.74488" lon="1.84569">
        <ele>1352.2</ele>
        <time>2024-06-30T07:21:54Z</time>
      </trkpt>
      <trkpt lat="42.74488" lon="1.84573">
        <ele>1352.6</ele>
        <time>2024-06-30T07:21:55Z</time>
      </trkpt>
      <trkpt lat="42.74488" lon="1.84576">
        <ele>1352.8</ele>
        <time>2024-06-30T07:21:56Z</time>
      </trkpt>
      <trkpt lat="42.74488" lon="1.84579">
        <ele>1353</ele>
        <time>2024-06-30T07:21:57Z</time>
      </trkpt>
      <trkpt lat="42.74488" lon="1.84583">
        <ele>1353.2</ele>
        <time>2024-06-30T07:21:58Z</time>
      </trkpt>
      <trkpt lat="42.74488" lon="1.84586">
        <ele>1353.8</ele>
        <time>2024-06-30T07:21:59Z</time>
      </trkpt>
      <trkpt lat="42.74488" lon="1.84588">
        <ele>1354.4</ele>
        <time>2024-06-30T07:22:00Z</time>
      </trkpt>
      <trkpt lat="42.74487" lon="1.84591">
        <ele>1354.4</ele>
        <time>2024-06-30T07:22:01Z</time>
      </trkpt>
      <trkpt lat="42.74487" lon="1.84595">
        <ele>1354.8</ele>
        <time>2024-06-30T07:22:02Z</time>
      </trkpt>
      <trkpt lat="42.74486" lon="1.84598">
        <ele>1354.8</ele>
        <time>2024-06-30T07:22:03Z</time>
      </trkpt>
      <trkpt lat="42.74486" lon="1.84601">
        <ele>1355</ele>
        <time>2024-06-30T07:22:04Z</time>
      </trkpt>
      <trkpt lat="42.74486" lon="1.84604">
        <ele>1355.2</ele>
        <time>2024-06-30T07:22:05Z</time>
      </trkpt>
      <trkpt lat="42.74485" lon="1.84608">
        <ele>1355.8</ele>
        <time>2024-06-30T07:22:06Z</time>
      </trkpt>
      <trkpt lat="42.74485" lon="1.84612">
        <ele>1356</ele>
        <time>2024-06-30T07:22:07Z</time>
      </trkpt>
      <trkpt lat="42.74485" lon="1.84615">
        <ele>1356.6</ele>
        <time>2024-06-30T07:22:08Z</time>
      </trkpt>
      <trkpt lat="42.74484" lon="1.84619">
        <ele>1356.6</ele>
        <time>2024-06-30T07:22:09Z</time>
      </trkpt>
      <trkpt lat="42.74483" lon="1.84622">
        <ele>1357</ele>
        <time>2024-06-30T07:22:10Z</time>
      </trkpt>
      <trkpt lat="42.74483" lon="1.84625">
        <ele>1357.4</ele>
        <time>2024-06-30T07:22:11Z</time>
      </trkpt>
      <trkpt lat="42.74483" lon="1.84629">
        <ele>1357.4</ele>
        <time>2024-06-30T07:22:12Z</time>
      </trkpt>
      <trkpt lat="42.74483" lon="1.84632">
        <ele>1357.6</ele>
        <time>2024-06-30T07:22:13Z</time>
      </trkpt>
      <trkpt lat="42.74483" lon="1.84636">
        <ele>1358</ele>
        <time>2024-06-30T07:22:14Z</time>
      </trkpt>
      <trkpt lat="42.74482" lon="1.84639">
        <ele>1358.4</ele>
        <time>2024-06-30T07:22:15Z</time>
      </trkpt>
      <trkpt lat="42.74482" lon="1.84643">
        <ele>1358.4</ele>
        <time>2024-06-30T07:22:16Z</time>
      </trkpt>
      <trkpt lat="42.74482" lon="1.84645">
        <ele>1358.8</ele>
        <time>2024-06-30T07:22:17Z</time>
      </trkpt>
      <trkpt lat="42.74482" lon="1.84648">
        <ele>1358.8</ele>
        <time>2024-06-30T07:22:18Z</time>
      </trkpt>
      <trkpt lat="42.74482" lon="1.84651">
        <ele>1359.2</ele>
        <time>2024-06-30T07:22:19Z</time>
      </trkpt>
      <trkpt lat="42.74481" lon="1.84654">
        <ele>1359.4</ele>
        <time>2024-06-30T07:22:20Z</time>
      </trkpt>
      <trkpt lat="42.74481" lon="1.84658">
        <ele>1359.6</ele>
        <time>2024-06-30T07:22:21Z</time>
      </trkpt>
      <trkpt lat="42.74481" lon="1.84662">
        <ele>1360</ele>
        <time>2024-06-30T07:22:22Z</time>
      </trkpt>
      <trkpt lat="42.74481" lon="1.84665">
        <ele>1360.2</ele>
        <time>2024-06-30T07:22:23Z</time>
      </trkpt>
      <trkpt lat="42.74481" lon="1.84669">
        <ele>1360.4</ele>
        <time>2024-06-30T07:22:24Z</time>
      </trkpt>
      <trkpt lat="42.74481" lon="1.84672">
        <ele>1360.4</ele>
        <time>2024-06-30T07:22:25Z</time>
      </trkpt>
      <trkpt lat="42.7448" lon="1.84676">
        <ele>1360.8</ele>
        <time>2024-06-30T07:22:26Z</time>
      </trkpt>
      <trkpt lat="42.7448" lon="1.84679">
        <ele>1360.8</ele>
        <time>2024-06-30T07:22:27Z</time>
      </trkpt>
      <trkpt lat="42.74481" lon="1.84682">
        <ele>1361</ele>
        <time>2024-06-30T07:22:28Z</time>
      </trkpt>
      <trkpt lat="42.74481" lon="1.84686">
        <ele>1361.6</ele>
        <time>2024-06-30T07:22:29Z</time>
      </trkpt>
      <trkpt lat="42.7448" lon="1.8469">
        <ele>1361.8</ele>
        <time>2024-06-30T07:22:30Z</time>
      </trkpt>
      <trkpt lat="42.7448" lon="1.84694">
        <ele>1362.2</ele>
        <time>2024-06-30T07:22:31Z</time>
      </trkpt>
      <trkpt lat="42.7448" lon="1.84697">
        <ele>1362.4</ele>
        <time>2024-06-30T07:22:32Z</time>
      </trkpt>
      <trkpt lat="42.74479" lon="1.84701">
        <ele>1363</ele>
        <time>2024-06-30T07:22:33Z</time>
      </trkpt>
      <trkpt lat="42.74479" lon="1.84704">
        <ele>1363.2</ele>
        <time>2024-06-30T07:22:34Z</time>
      </trkpt>
      <trkpt lat="42.74479" lon="1.84708">
        <ele>1363.8</ele>
        <time>2024-06-30T07:22:35Z</time>
      </trkpt>
      <trkpt lat="42.74478" lon="1.84711">
        <ele>1364</ele>
        <time>2024-06-30T07:22:36Z</time>
      </trkpt>
      <trkpt lat="42.74479" lon="1.84713">
        <ele>1364.4</ele>
        <time>2024-06-30T07:22:37Z</time>
      </trkpt>
      <trkpt lat="42.74479" lon="1.84715">
        <ele>1364.6</ele>
        <time>2024-06-30T07:22:38Z</time>
      </trkpt>
      <trkpt lat="42.74479" lon="1.84717">
        <ele>1364.8</ele>
        <time>2024-06-30T07:22:39Z</time>
      </trkpt>
      <trkpt lat="42.74479" lon="1.84719">
        <ele>1365.4</ele>
        <time>2024-06-30T07:22:40Z</time>
      </trkpt>
      <trkpt lat="42.74479" lon="1.84721">
        <ele>1365.4</ele>
        <time>2024-06-30T07:22:41Z</time>
      </trkpt>
      <trkpt lat="42.74479" lon="1.84723">
        <ele>1365.8</ele>
        <time>2024-06-30T07:22:42Z</time>
      </trkpt>
      <trkpt lat="42.74479" lon="1.84726">
        <ele>1365.8</ele>
        <time>2024-06-30T07:22:43Z</time>
      </trkpt>
      <trkpt lat="42.7448" lon="1.84728">
        <ele>1366</ele>
        <time>2024-06-30T07:22:44Z</time>
      </trkpt>
      <trkpt lat="42.7448" lon="1.8473">
        <ele>1366</ele>
        <time>2024-06-30T07:22:45Z</time>
      </trkpt>
      <trkpt lat="42.74481" lon="1.84732">
        <ele>1366.4</ele>
        <time>2024-06-30T07:22:46Z</time>
      </trkpt>
      <trkpt lat="42.74481" lon="1.84735">
        <ele>1366.6</ele>
        <time>2024-06-30T07:22:47Z</time>
      </trkpt>
      <trkpt lat="42.74482" lon="1.84737">
        <ele>1367</ele>
        <time>2024-06-30T07:22:48Z</time>
      </trkpt>
      <trkpt lat="42.74483" lon="1.84739">
        <ele>1367.4</ele>
        <time>2024-06-30T07:22:49Z</time>
      </trkpt>
      <trkpt lat="42.74483" lon="1.84741">
        <ele>1367.4</ele>
        <time>2024-06-30T07:22:50Z</time>
      </trkpt>
      <trkpt lat="42.74484" lon="1.84744">
        <ele>1367.4</ele>
        <time>2024-06-30T07:22:51Z</time>
      </trkpt>
      <trkpt lat="42.74484" lon="1.84746">
        <ele>1367.8</ele>
        <time>2024-06-30T07:22:52Z</time>
      </trkpt>
      <trkpt lat="42.74485" lon="1.84749">
        <ele>1368.2</ele>
        <time>2024-06-30T07:22:53Z</time>
      </trkpt>
      <trkpt lat="42.74485" lon="1.84751">
        <ele>1368.2</ele>
        <time>2024-06-30T07:22:54Z</time>
      </trkpt>
      <trkpt lat="42.74486" lon="1.84755">
        <ele>1368.6</ele>
        <time>2024-06-30T07:22:55Z</time>
      </trkpt>
      <trkpt lat="42.74487" lon="1.84758">
        <ele>1368.6</ele>
        <time>2024-06-30T07:22:56Z</time>
      </trkpt>
      <trkpt lat="42.74487" lon="1.84762">
        <ele>1369</ele>
        <time>2024-06-30T07:22:57Z</time>
      </trkpt>
      <trkpt lat="42.74488" lon="1.84766">
        <ele>1369.8</ele>
        <time>2024-06-30T07:22:58Z</time>
      </trkpt>
      <trkpt lat="42.74488" lon="1.84769">
        <ele>1370</ele>
        <time>2024-06-30T07:22:59Z</time>
      </trkpt>
      <trkpt lat="42.74488" lon="1.84773">
        <ele>1370.6</ele>
        <time>2024-06-30T07:23:00Z</time>
      </trkpt>
      <trkpt lat="42.74488" lon="1.84777">
        <ele>1370.8</ele>
        <time>2024-06-30T07:23:01Z</time>
      </trkpt>
      <trkpt lat="42.74489" lon="1.84781">
        <ele>1371</ele>
        <time>2024-06-30T07:23:02Z</time>
      </trkpt>
      <trkpt lat="42.74489" lon="1.84785">
        <ele>1371.2</ele>
        <time>2024-06-30T07:23:03Z</time>
      </trkpt>
      <trkpt lat="42.74489" lon="1.84788">
        <ele>1371.8</ele>
        <time>2024-06-30T07:23:04Z</time>
      </trkpt>
      <trkpt lat="42.74489" lon="1.84792">
        <ele>1371.8</ele>
        <time>2024-06-30T07:23:05Z</time>
      </trkpt>
      <trkpt lat="42.7449" lon="1.84796">
        <ele>1372.2</ele>
        <time>2024-06-30T07:23:06Z</time>
      </trkpt>
      <trkpt lat="42.7449" lon="1.84799">
        <ele>1372.6</ele>
        <time>2024-06-30T07:23:07Z</time>
      </trkpt>
      <trkpt lat="42.7449" lon="1.84802">
        <ele>1373</ele>
        <time>2024-06-30T07:23:08Z</time>
      </trkpt>
      <trkpt lat="42.7449" lon="1.84805">
        <ele>1373.4</ele>
        <time>2024-06-30T07:23:09Z</time>
      </trkpt>
      <trkpt lat="42.7449" lon="1.84808">
        <ele>1373.6</ele>
        <time>2024-06-30T07:23:10Z</time>
      </trkpt>
      <trkpt lat="42.7449" lon="1.84811">
        <ele>1374</ele>
        <time>2024-06-30T07:23:11Z</time>
      </trkpt>
      <trkpt lat="42.7449" lon="1.84814">
        <ele>1374</ele>
        <time>2024-06-30T07:23:12Z</time>
      </trkpt>
      <trkpt lat="42.7449" lon="1.84818">
        <ele>1374.4</ele>
        <time>2024-06-30T07:23:13Z</time>
      </trkpt>
      <trkpt lat="42.7449" lon="1.8482">
        <ele>1374.6</ele>
        <time>2024-06-30T07:23:14Z</time>
      </trkpt>
      <trkpt lat="42.7449" lon="1.84823">
        <ele>1375</ele>
        <time>2024-06-30T07:23:15Z</time>
      </trkpt>
      <trkpt lat="42.74491" lon="1.84827">
        <ele>1375</ele>
        <time>2024-06-30T07:23:16Z</time>
      </trkpt>
      <trkpt lat="42.74492" lon="1.8483">
        <ele>1375.4</ele>
        <time>2024-06-30T07:23:17Z</time>
      </trkpt>
      <trkpt lat="42.74492" lon="1.84833">
        <ele>1376</ele>
        <time>2024-06-30T07:23:18Z</time>
      </trkpt>
      <trkpt lat="42.74493" lon="1.84835">
        <ele>1376.4</ele>
        <time>2024-06-30T07:23:19Z</time>
      </trkpt>
      <trkpt lat="42.74493" lon="1.84837">
        <ele>1376.8</ele>
        <time>2024-06-30T07:23:20Z</time>
      </trkpt>
      <trkpt lat="42.74493" lon="1.84839">
        <ele>1377</ele>
        <time>2024-06-30T07:23:21Z</time>
      </trkpt>
      <trkpt lat="42.74494" lon="1.84841">
        <ele>1377.4</ele>
        <time>2024-06-30T07:23:22Z</time>
      </trkpt>
      <trkpt lat="42.74495" lon="1.84845">
        <ele>1377.4</ele>
        <time>2024-06-30T07:23:23Z</time>
      </trkpt>
      <trkpt lat="42.74495" lon="1.84848">
        <ele>1377.8</ele>
        <time>2024-06-30T07:23:24Z</time>
      </trkpt>
      <trkpt lat="42.74496" lon="1.84852">
        <ele>1378</ele>
        <time>2024-06-30T07:23:25Z</time>
      </trkpt>
      <trkpt lat="42.74496" lon="1.84856">
        <ele>1378.4</ele>
        <time>2024-06-30T07:23:26Z</time>
      </trkpt>
      <trkpt lat="42.74496" lon="1.84859">
        <ele>1378.8</ele>
        <time>2024-06-30T07:23:27Z</time>
      </trkpt>
      <trkpt lat="42.74497" lon="1.84862">
        <ele>1379</ele>
        <time>2024-06-30T07:23:28Z</time>
      </trkpt>
      <trkpt lat="42.74497" lon="1.84865">
        <ele>1379.2</ele>
        <time>2024-06-30T07:23:29Z</time>
      </trkpt>
      <trkpt lat="42.74497" lon="1.84868">
        <ele>1379.4</ele>
        <time>2024-06-30T07:23:30Z</time>
      </trkpt>
      <trkpt lat="42.74497" lon="1.84871">
        <ele>1380</ele>
        <time>2024-06-30T07:23:31Z</time>
      </trkpt>
      <trkpt lat="42.74497" lon="1.84874">
        <ele>1380</ele>
        <time>2024-06-30T07:23:32Z</time>
      </trkpt>
      <trkpt lat="42.74498" lon="1.84877">
        <ele>1380.2</ele>
        <time>2024-06-30T07:23:33Z</time>
      </trkpt>
      <trkpt lat="42.74498" lon="1.8488">
        <ele>1380.4</ele>
        <time>2024-06-30T07:23:34Z</time>
      </trkpt>
      <trkpt lat="42.74499" lon="1.84885">
        <ele>1380.8</ele>
        <time>2024-06-30T07:23:35Z</time>
      </trkpt>
      <trkpt lat="42.74499" lon="1.84889">
        <ele>1381</ele>
        <time>2024-06-30T07:23:36Z</time>
      </trkpt>
      <trkpt lat="42.74499" lon="1.84892">
        <ele>1381.2</ele>
        <time>2024-06-30T07:23:37Z</time>
      </trkpt>
      <trkpt lat="42.74499" lon="1.84895">
        <ele>1381.6</ele>
        <time>2024-06-30T07:23:38Z</time>
      </trkpt>
      <trkpt lat="42.74499" lon="1.84897">
        <ele>1381.8</ele>
        <time>2024-06-30T07:23:39Z</time>
      </trkpt>
      <trkpt lat="42.74499" lon="1.849">
        <ele>1382.2</ele>
        <time>2024-06-30T07:23:40Z</time>
      </trkpt>
      <trkpt lat="42.74499" lon="1.84906">
        <ele>1382.4</ele>
        <time>2024-06-30T07:23:41Z</time>
      </trkpt>
      <trkpt lat="42.74499" lon="1.84909">
        <ele>1382.8</ele>
        <time>2024-06-30T07:23:42Z</time>
      </trkpt>
      <trkpt lat="42.74499" lon="1.84912">
        <ele>1383</ele>
        <time>2024-06-30T07:23:43Z</time>
      </trkpt>
      <trkpt lat="42.74499" lon="1.84916">
        <ele>1383.2</ele>
        <time>2024-06-30T07:23:44Z</time>
      </trkpt>
      <trkpt lat="42.74498" lon="1.8492">
        <ele>1383.6</ele>
        <time>2024-06-30T07:23:45Z</time>
      </trkpt>
      <trkpt lat="42.74498" lon="1.84922">
        <ele>1383.8</ele>
        <time>2024-06-30T07:23:46Z</time>
      </trkpt>
      <trkpt lat="42.74498" lon="1.84925">
        <ele>1384</ele>
        <time>2024-06-30T07:23:47Z</time>
      </trkpt>
      <trkpt lat="42.74499" lon="1.84928">
        <ele>1384.2</ele>
        <time>2024-06-30T07:23:48Z</time>
      </trkpt>
      <trkpt lat="42.74498" lon="1.84932">
        <ele>1384.4</ele>
        <time>2024-06-30T07:23:49Z</time>
      </trkpt>
      <trkpt lat="42.74498" lon="1.84935">
        <ele>1384.6</ele>
        <time>2024-06-30T07:23:50Z</time>
      </trkpt>
      <trkpt lat="42.74499" lon="1.84939">
        <ele>1384.8</ele>
        <time>2024-06-30T07:23:51Z</time>
      </trkpt>
      <trkpt lat="42.74499" lon="1.84942">
        <ele>1385</ele>
        <time>2024-06-30T07:23:52Z</time>
      </trkpt>
      <trkpt lat="42.74498" lon="1.84944">
        <ele>1385.2</ele>
        <time>2024-06-30T07:23:53Z</time>
      </trkpt>
      <trkpt lat="42.74498" lon="1.84948">
        <ele>1385.4</ele>
        <time>2024-06-30T07:23:54Z</time>
      </trkpt>
      <trkpt lat="42.74498" lon="1.84951">
        <ele>1385.6</ele>
        <time>2024-06-30T07:23:55Z</time>
      </trkpt>
      <trkpt lat="42.74497" lon="1.84954">
        <ele>1385.8</ele>
        <time>2024-06-30T07:23:56Z</time>
      </trkpt>
      <trkpt lat="42.74497" lon="1.84956">
        <ele>1386</ele>
        <time>2024-06-30T07:23:57Z</time>
      </trkpt>
      <trkpt lat="42.74497" lon="1.84959">
        <ele>1386.4</ele>
        <time>2024-06-30T07:23:58Z</time>
      </trkpt>
      <trkpt lat="42.74496" lon="1.84961">
        <ele>1386.6</ele>
        <time>2024-06-30T07:23:59Z</time>
      </trkpt>
      <trkpt lat="42.74495" lon="1.84964">
        <ele>1386.6</ele>
        <time>2024-06-30T07:24:00Z</time>
      </trkpt>
      <trkpt lat="42.74494" lon="1.84967">
        <ele>1387</ele>
        <time>2024-06-30T07:24:01Z</time>
      </trkpt>
      <trkpt lat="42.74493" lon="1.8497">
        <ele>1387.4</ele>
        <time>2024-06-30T07:24:02Z</time>
      </trkpt>
      <trkpt lat="42.74493" lon="1.84973">
        <ele>1387.6</ele>
        <time>2024-06-30T07:24:03Z</time>
      </trkpt>
      <trkpt lat="42.74492" lon="1.84976">
        <ele>1388.4</ele>
        <time>2024-06-30T07:24:04Z</time>
      </trkpt>
      <trkpt lat="42.74491" lon="1.84978">
        <ele>1388.8</ele>
        <time>2024-06-30T07:24:05Z</time>
      </trkpt>
      <trkpt lat="42.74491" lon="1.8498">
        <ele>1389</ele>
        <time>2024-06-30T07:24:06Z</time>
      </trkpt>
      <trkpt lat="42.7449" lon="1.84983">
        <ele>1389.4</ele>
        <time>2024-06-30T07:24:07Z</time>
      </trkpt>
      <trkpt lat="42.74489" lon="1.84984">
        <ele>1389.6</ele>
        <time>2024-06-30T07:24:08Z</time>
      </trkpt>
      <trkpt lat="42.74488" lon="1.84987">
        <ele>1389.8</ele>
        <time>2024-06-30T07:24:09Z</time>
      </trkpt>
      <trkpt lat="42.74487" lon="1.84989">
        <ele>1389.8</ele>
        <time>2024-06-30T07:24:10Z</time>
      </trkpt>
      <trkpt lat="42.74486" lon="1.84991">
        <ele>1390</ele>
        <time>2024-06-30T07:24:11Z</time>
      </trkpt>
      <trkpt lat="42.74485" lon="1.84994">
        <ele>1390.2</ele>
        <time>2024-06-30T07:24:12Z</time>
      </trkpt>
      <trkpt lat="42.74484" lon="1.84997">
        <ele>1390.6</ele>
        <time>2024-06-30T07:24:13Z</time>
      </trkpt>
      <trkpt lat="42.74483" lon="1.85001">
        <ele>1391</ele>
        <time>2024-06-30T07:24:14Z</time>
      </trkpt>
      <trkpt lat="42.74482" lon="1.85004">
        <ele>1391.2</ele>
        <time>2024-06-30T07:24:15Z</time>
      </trkpt>
      <trkpt lat="42.74481" lon="1.85007">
        <ele>1391.6</ele>
        <time>2024-06-30T07:24:16Z</time>
      </trkpt>
      <trkpt lat="42.7448" lon="1.85011">
        <ele>1391.8</ele>
        <time>2024-06-30T07:24:17Z</time>
      </trkpt>
      <trkpt lat="42.74478" lon="1.85013">
        <ele>1392</ele>
        <time>2024-06-30T07:24:18Z</time>
      </trkpt>
      <trkpt lat="42.74477" lon="1.85016">
        <ele>1392.2</ele>
        <time>2024-06-30T07:24:19Z</time>
      </trkpt>
      <trkpt lat="42.74476" lon="1.8502">
        <ele>1392.4</ele>
        <time>2024-06-30T07:24:20Z</time>
      </trkpt>
      <trkpt lat="42.74475" lon="1.85022">
        <ele>1392.8</ele>
        <time>2024-06-30T07:24:21Z</time>
      </trkpt>
      <trkpt lat="42.74474" lon="1.85026">
        <ele>1393.2</ele>
        <time>2024-06-30T07:24:22Z</time>
      </trkpt>
      <trkpt lat="42.74473" lon="1.85029">
        <ele>1393.4</ele>
        <time>2024-06-30T07:24:23Z</time>
      </trkpt>
      <trkpt lat="42.74472" lon="1.85032">
        <ele>1393.6</ele>
        <time>2024-06-30T07:24:24Z</time>
      </trkpt>
      <trkpt lat="42.74471" lon="1.85034">
        <ele>1393.8</ele>
        <time>2024-06-30T07:24:25Z</time>
      </trkpt>
      <trkpt lat="42.7447" lon="1.85036">
        <ele>1394</ele>
        <time>2024-06-30T07:24:26Z</time>
      </trkpt>
      <trkpt lat="42.74469" lon="1.85039">
        <ele>1394.4</ele>
        <time>2024-06-30T07:24:27Z</time>
      </trkpt>
      <trkpt lat="42.74469" lon="1.85043">
        <ele>1394.4</ele>
        <time>2024-06-30T07:24:28Z</time>
      </trkpt>
      <trkpt lat="42.74469" lon="1.85045">
        <ele>1395</ele>
        <time>2024-06-30T07:24:29Z</time>
      </trkpt>
      <trkpt lat="42.74469" lon="1.85048">
        <ele>1395.2</ele>
        <time>2024-06-30T07:24:30Z</time>
      </trkpt>
      <trkpt lat="42.74469" lon="1.8505">
        <ele>1395.4</ele>
        <time>2024-06-30T07:24:31Z</time>
      </trkpt>
      <trkpt lat="42.74468" lon="1.85053">
        <ele>1395.6</ele>
        <time>2024-06-30T07:24:32Z</time>
      </trkpt>
      <trkpt lat="42.74468" lon="1.85056">
        <ele>1395.8</ele>
        <time>2024-06-30T07:24:33Z</time>
      </trkpt>
      <trkpt lat="42.74468" lon="1.85059">
        <ele>1396.2</ele>
        <time>2024-06-30T07:24:34Z</time>
      </trkpt>
      <trkpt lat="42.74468" lon="1.85062">
        <ele>1396.2</ele>
        <time>2024-06-30T07:24:35Z</time>
      </trkpt>
      <trkpt lat="42.74467" lon="1.85065">
        <ele>1396.2</ele>
        <time>2024-06-30T07:24:36Z</time>
      </trkpt>
      <trkpt lat="42.74467" lon="1.8507">
        <ele>1396.4</ele>
        <time>2024-06-30T07:24:37Z</time>
      </trkpt>
      <trkpt lat="42.74467" lon="1.85073">
        <ele>1396.6</ele>
        <time>2024-06-30T07:24:38Z</time>
      </trkpt>
      <trkpt lat="42.74466" lon="1.85076">
        <ele>1396.8</ele>
        <time>2024-06-30T07:24:39Z</time>
      </trkpt>
      <trkpt lat="42.74466" lon="1.85079">
        <ele>1397.2</ele>
        <time>2024-06-30T07:24:40Z</time>
      </trkpt>
      <trkpt lat="42.74465" lon="1.85083">
        <ele>1397.4</ele>
        <time>2024-06-30T07:24:41Z</time>
      </trkpt>
      <trkpt lat="42.74465" lon="1.85087">
        <ele>1397.8</ele>
        <time>2024-06-30T07:24:42Z</time>
      </trkpt>
      <trkpt lat="42.74464" lon="1.85089">
        <ele>1398.2</ele>
        <time>2024-06-30T07:24:43Z</time>
      </trkpt>
      <trkpt lat="42.74464" lon="1.85092">
        <ele>1398.4</ele>
        <time>2024-06-30T07:24:44Z</time>
      </trkpt>
      <trkpt lat="42.74463" lon="1.85095">
        <ele>1398.8</ele>
        <time>2024-06-30T07:24:45Z</time>
      </trkpt>
      <trkpt lat="42.74462" lon="1.85098">
        <ele>1399</ele>
        <time>2024-06-30T07:24:46Z</time>
      </trkpt>
      <trkpt lat="42.74462" lon="1.85101">
        <ele>1399.4</ele>
        <time>2024-06-30T07:24:47Z</time>
      </trkpt>
      <trkpt lat="42.74462" lon="1.85105">
        <ele>1399.6</ele>
        <time>2024-06-30T07:24:48Z</time>
      </trkpt>
      <trkpt lat="42.74462" lon="1.85109">
        <ele>1400</ele>
        <time>2024-06-30T07:24:49Z</time>
      </trkpt>
      <trkpt lat="42.74461" lon="1.85112">
        <ele>1400</ele>
        <time>2024-06-30T07:24:50Z</time>
      </trkpt>
      <trkpt lat="42.74462" lon="1.85115">
        <ele>1400.4</ele>
        <time>2024-06-30T07:24:51Z</time>
      </trkpt>
      <trkpt lat="42.74462" lon="1.85119">
        <ele>1400.6</ele>
        <time>2024-06-30T07:24:52Z</time>
      </trkpt>
      <trkpt lat="42.74462" lon="1.85123">
        <ele>1400.6</ele>
        <time>2024-06-30T07:24:53Z</time>
      </trkpt>
      <trkpt lat="42.74463" lon="1.85126">
        <ele>1401</ele>
        <time>2024-06-30T07:24:54Z</time>
      </trkpt>
      <trkpt lat="42.74464" lon="1.8513">
        <ele>1401.2</ele>
        <time>2024-06-30T07:24:55Z</time>
      </trkpt>
      <trkpt lat="42.74464" lon="1.85132">
        <ele>1401.8</ele>
        <time>2024-06-30T07:24:56Z</time>
      </trkpt>
      <trkpt lat="42.74465" lon="1.85136">
        <ele>1401.8</ele>
        <time>2024-06-30T07:24:57Z</time>
      </trkpt>
      <trkpt lat="42.74466" lon="1.85139">
        <ele>1402.2</ele>
        <time>2024-06-30T07:24:58Z</time>
      </trkpt>
      <trkpt lat="42.74467" lon="1.85142">
        <ele>1402.4</ele>
        <time>2024-06-30T07:24:59Z</time>
      </trkpt>
      <trkpt lat="42.74468" lon="1.85145">
        <ele>1402.6</ele>
        <time>2024-06-30T07:25:00Z</time>
      </trkpt>
      <trkpt lat="42.74469" lon="1.85148">
        <ele>1402.8</ele>
        <time>2024-06-30T07:25:01Z</time>
      </trkpt>
      <trkpt lat="42.7447" lon="1.85151">
        <ele>1403</ele>
        <time>2024-06-30T07:25:02Z</time>
      </trkpt>
      <trkpt lat="42.74471" lon="1.85154">
        <ele>1403.2</ele>
        <time>2024-06-30T07:25:03Z</time>
      </trkpt>
      <trkpt lat="42.74472" lon="1.85158">
        <ele>1403.4</ele>
        <time>2024-06-30T07:25:04Z</time>
      </trkpt>
      <trkpt lat="42.74472" lon="1.85162">
        <ele>1403.6</ele>
        <time>2024-06-30T07:25:05Z</time>
      </trkpt>
      <trkpt lat="42.74474" lon="1.85166">
        <ele>1403.8</ele>
        <time>2024-06-30T07:25:06Z</time>
      </trkpt>
      <trkpt lat="42.74474" lon="1.85169">
        <ele>1404.2</ele>
        <time>2024-06-30T07:25:07Z</time>
      </trkpt>
      <trkpt lat="42.74475" lon="1.85171">
        <ele>1404.2</ele>
        <time>2024-06-30T07:25:08Z</time>
      </trkpt>
      <trkpt lat="42.74476" lon="1.85174">
        <ele>1404.6</ele>
        <time>2024-06-30T07:25:09Z</time>
      </trkpt>
      <trkpt lat="42.74477" lon="1.85178">
        <ele>1404.8</ele>
        <time>2024-06-30T07:25:10Z</time>
      </trkpt>
      <trkpt lat="42.74478" lon="1.8518">
        <ele>1405</ele>
        <time>2024-06-30T07:25:11Z</time>
      </trkpt>
      <trkpt lat="42.74478" lon="1.85182">
        <ele>1405.4</ele>
        <time>2024-06-30T07:25:12Z</time>
      </trkpt>
      <trkpt lat="42.74479" lon="1.85184">
        <ele>1405.6</ele>
        <time>2024-06-30T07:25:13Z</time>
      </trkpt>
      <trkpt lat="42.7448" lon="1.85187">
        <ele>1406</ele>
        <time>2024-06-30T07:25:14Z</time>
      </trkpt>
      <trkpt lat="42.74481" lon="1.85189">
        <ele>1406.2</ele>
        <time>2024-06-30T07:25:15Z</time>
      </trkpt>
      <trkpt lat="42.74481" lon="1.85192">
        <ele>1406.4</ele>
        <time>2024-06-30T07:25:16Z</time>
      </trkpt>
      <trkpt lat="42.74482" lon="1.85194">
        <ele>1406.6</ele>
        <time>2024-06-30T07:25:17Z</time>
      </trkpt>
      <trkpt lat="42.74483" lon="1.85197">
        <ele>1406.8</ele>
        <time>2024-06-30T07:25:18Z</time>
      </trkpt>
      <trkpt lat="42.74483" lon="1.852">
        <ele>1407</ele>
        <time>2024-06-30T07:25:19Z</time>
      </trkpt>
      <trkpt lat="42.74484" lon="1.85203">
        <ele>1407.4</ele>
        <time>2024-06-30T07:25:20Z</time>
      </trkpt>
      <trkpt lat="42.74484" lon="1.85205">
        <ele>1407.8</ele>
        <time>2024-06-30T07:25:21Z</time>
      </trkpt>
      <trkpt lat="42.74485" lon="1.85208">
        <ele>1408</ele>
        <time>2024-06-30T07:25:22Z</time>
      </trkpt>
      <trkpt lat="42.74486" lon="1.85211">
        <ele>1408.2</ele>
        <time>2024-06-30T07:25:23Z</time>
      </trkpt>
      <trkpt lat="42.74486" lon="1.85214">
        <ele>1408.4</ele>
        <time>2024-06-30T07:25:24Z</time>
      </trkpt>
      <trkpt lat="42.74487" lon="1.85217">
        <ele>1408.6</ele>
        <time>2024-06-30T07:25:25Z</time>
      </trkpt>
      <trkpt lat="42.74487" lon="1.85219">
        <ele>1408.8</ele>
        <time>2024-06-30T07:25:26Z</time>
      </trkpt>
      <trkpt lat="42.74488" lon="1.85221">
        <ele>1408.8</ele>
        <time>2024-06-30T07:25:27Z</time>
      </trkpt>
      <trkpt lat="42.74488" lon="1.85222">
        <ele>1409</ele>
        <time>2024-06-30T07:25:28Z</time>
      </trkpt>
      <trkpt lat="42.74489" lon="1.85225">
        <ele>1409.2</ele>
        <time>2024-06-30T07:25:29Z</time>
      </trkpt>
      <trkpt lat="42.7449" lon="1.85228">
        <ele>1409.8</ele>
        <time>2024-06-30T07:25:30Z</time>
      </trkpt>
      <trkpt lat="42.7449" lon="1.85231">
        <ele>1410</ele>
        <time>2024-06-30T07:25:31Z</time>
      </trkpt>
      <trkpt lat="42.7449" lon="1.85235">
        <ele>1410.4</ele>
        <time>2024-06-30T07:25:32Z</time>
      </trkpt>
      <trkpt lat="42.74491" lon="1.85238">
        <ele>1410.4</ele>
        <time>2024-06-30T07:25:33Z</time>
      </trkpt>
      <trkpt lat="42.74492" lon="1.85241">
        <ele>1410.8</ele>
        <time>2024-06-30T07:25:34Z</time>
      </trkpt>
      <trkpt lat="42.74493" lon="1.85244">
        <ele>1410.8</ele>
        <time>2024-06-30T07:25:35Z</time>
      </trkpt>
      <trkpt lat="42.74493" lon="1.85247">
        <ele>1411.2</ele>
        <time>2024-06-30T07:25:36Z</time>
      </trkpt>
      <trkpt lat="42.74494" lon="1.8525">
        <ele>1411.4</ele>
        <time>2024-06-30T07:25:37Z</time>
      </trkpt>
      <trkpt lat="42.74494" lon="1.85253">
        <ele>1411.8</ele>
        <time>2024-06-30T07:25:38Z</time>
      </trkpt>
      <trkpt lat="42.74495" lon="1.85256">
        <ele>1412.2</ele>
        <time>2024-06-30T07:25:39Z</time>
      </trkpt>
      <trkpt lat="42.74495" lon="1.85259">
        <ele>1412.2</ele>
        <time>2024-06-30T07:25:40Z</time>
      </trkpt>
      <trkpt lat="42.74496" lon="1.85261">
        <ele>1412.6</ele>
        <time>2024-06-30T07:25:41Z</time>
      </trkpt>
      <trkpt lat="42.74497" lon="1.85264">
        <ele>1412.8</ele>
        <time>2024-06-30T07:25:42Z</time>
      </trkpt>
      <trkpt lat="42.74498" lon="1.85267">
        <ele>1413.2</ele>
        <time>2024-06-30T07:25:43Z</time>
      </trkpt>
      <trkpt lat="42.74499" lon="1.85271">
        <ele>1413.2</ele>
        <time>2024-06-30T07:25:44Z</time>
      </trkpt>
      <trkpt lat="42.74499" lon="1.85273">
        <ele>1413.4</ele>
        <time>2024-06-30T07:25:45Z</time>
      </trkpt>
      <trkpt lat="42.745" lon="1.85276">
        <ele>1413.4</ele>
        <time>2024-06-30T07:25:46Z</time>
      </trkpt>
      <trkpt lat="42.745" lon="1.85279">
        <ele>1413.8</ele>
        <time>2024-06-30T07:25:47Z</time>
      </trkpt>
      <trkpt lat="42.745" lon="1.85281">
        <ele>1414</ele>
        <time>2024-06-30T07:25:48Z</time>
      </trkpt>
      <trkpt lat="42.74501" lon="1.85285">
        <ele>1414.2</ele>
        <time>2024-06-30T07:25:49Z</time>
      </trkpt>
      <trkpt lat="42.74502" lon="1.85288">
        <ele>1414.4</ele>
        <time>2024-06-30T07:25:50Z</time>
      </trkpt>
      <trkpt lat="42.74502" lon="1.85292">
        <ele>1414.6</ele>
        <time>2024-06-30T07:25:51Z</time>
      </trkpt>
      <trkpt lat="42.74502" lon="1.85296">
        <ele>1414.8</ele>
        <time>2024-06-30T07:25:52Z</time>
      </trkpt>
      <trkpt lat="42.74503" lon="1.853">
        <ele>1415</ele>
        <time>2024-06-30T07:25:53Z</time>
      </trkpt>
      <trkpt lat="42.74504" lon="1.85304">
        <ele>1415.6</ele>
        <time>2024-06-30T07:25:54Z</time>
      </trkpt>
      <trkpt lat="42.74504" lon="1.85308">
        <ele>1416</ele>
        <time>2024-06-30T07:25:55Z</time>
      </trkpt>
      <trkpt lat="42.74505" lon="1.85312">
        <ele>1416.6</ele>
        <time>2024-06-30T07:25:56Z</time>
      </trkpt>
      <trkpt lat="42.74505" lon="1.85316">
        <ele>1416.8</ele>
        <time>2024-06-30T07:25:57Z</time>
      </trkpt>
      <trkpt lat="42.74506" lon="1.85319">
        <ele>1417</ele>
        <time>2024-06-30T07:25:58Z</time>
      </trkpt>
      <trkpt lat="42.74506" lon="1.85323">
        <ele>1417.4</ele>
        <time>2024-06-30T07:25:59Z</time>
      </trkpt>
      <trkpt lat="42.74507" lon="1.85327">
        <ele>1417.6</ele>
        <time>2024-06-30T07:26:00Z</time>
      </trkpt>
      <trkpt lat="42.74507" lon="1.8533">
        <ele>1418</ele>
        <time>2024-06-30T07:26:01Z</time>
      </trkpt>
      <trkpt lat="42.74507" lon="1.85333">
        <ele>1418.2</ele>
        <time>2024-06-30T07:26:02Z</time>
      </trkpt>
      <trkpt lat="42.74508" lon="1.85336">
        <ele>1418.4</ele>
        <time>2024-06-30T07:26:03Z</time>
      </trkpt>
      <trkpt lat="42.74508" lon="1.85339">
        <ele>1418.6</ele>
        <time>2024-06-30T07:26:04Z</time>
      </trkpt>
      <trkpt lat="42.74509" lon="1.85342">
        <ele>1419.2</ele>
        <time>2024-06-30T07:26:05Z</time>
      </trkpt>
      <trkpt lat="42.74509" lon="1.85345">
        <ele>1419.6</ele>
        <time>2024-06-30T07:26:06Z</time>
      </trkpt>
      <trkpt lat="42.74509" lon="1.85349">
        <ele>1420</ele>
        <time>2024-06-30T07:26:07Z</time>
      </trkpt>
      <trkpt lat="42.7451" lon="1.85352">
        <ele>1420.4</ele>
        <time>2024-06-30T07:26:08Z</time>
      </trkpt>
      <trkpt lat="42.74511" lon="1.85355">
        <ele>1420.4</ele>
        <time>2024-06-30T07:26:09Z</time>
      </trkpt>
      <trkpt lat="42.74511" lon="1.85358">
        <ele>1420.8</ele>
        <time>2024-06-30T07:26:10Z</time>
      </trkpt>
      <trkpt lat="42.74512" lon="1.85362">
        <ele>1421</ele>
        <time>2024-06-30T07:26:11Z</time>
      </trkpt>
      <trkpt lat="42.74513" lon="1.85364">
        <ele>1421.4</ele>
        <time>2024-06-30T07:26:12Z</time>
      </trkpt>
      <trkpt lat="42.74514" lon="1.85367">
        <ele>1421.4</ele>
        <time>2024-06-30T07:26:13Z</time>
      </trkpt>
      <trkpt lat="42.74515" lon="1.85371">
        <ele>1422</ele>
        <time>2024-06-30T07:26:14Z</time>
      </trkpt>
      <trkpt lat="42.74516" lon="1.85374">
        <ele>1422</ele>
        <time>2024-06-30T07:26:15Z</time>
      </trkpt>
      <trkpt lat="42.74516" lon="1.85378">
        <ele>1422.2</ele>
        <time>2024-06-30T07:26:16Z</time>
      </trkpt>
      <trkpt lat="42.74517" lon="1.85381">
        <ele>1422.6</ele>
        <time>2024-06-30T07:26:17Z</time>
      </trkpt>
      <trkpt lat="42.74518" lon="1.85384">
        <ele>1423</ele>
        <time>2024-06-30T07:26:18Z</time>
      </trkpt>
      <trkpt lat="42.74518" lon="1.85388">
        <ele>1423.2</ele>
        <time>2024-06-30T07:26:19Z</time>
      </trkpt>
      <trkpt lat="42.74519" lon="1.85392">
        <ele>1423.4</ele>
        <time>2024-06-30T07:26:20Z</time>
      </trkpt>
      <trkpt lat="42.7452" lon="1.85397">
        <ele>1423.6</ele>
        <time>2024-06-30T07:26:21Z</time>
      </trkpt>
      <trkpt lat="42.74521" lon="1.85402">
        <ele>1423.6</ele>
        <time>2024-06-30T07:26:22Z</time>
      </trkpt>
      <trkpt lat="42.74521" lon="1.85407">
        <ele>1424.2</ele>
        <time>2024-06-30T07:26:23Z</time>
      </trkpt>
      <trkpt lat="42.74522" lon="1.85411">
        <ele>1424.6</ele>
        <time>2024-06-30T07:26:24Z</time>
      </trkpt>
      <trkpt lat="42.74523" lon="1.85416">
        <ele>1425</ele>
        <time>2024-06-30T07:26:25Z</time>
      </trkpt>
      <trkpt lat="42.74523" lon="1.85421">
        <ele>1425.2</ele>
        <time>2024-06-30T07:26:26Z</time>
      </trkpt>
      <trkpt lat="42.74525" lon="1.85426">
        <ele>1425.4</ele>
        <time>2024-06-30T07:26:27Z</time>
      </trkpt>
      <trkpt lat="42.74526" lon="1.85431">
        <ele>1425.8</ele>
        <time>2024-06-30T07:26:28Z</time>
      </trkpt>
      <trkpt lat="42.74527" lon="1.85436">
        <ele>1426.2</ele>
        <time>2024-06-30T07:26:29Z</time>
      </trkpt>
      <trkpt lat="42.74528" lon="1.85441">
        <ele>1426.8</ele>
        <time>2024-06-30T07:26:30Z</time>
      </trkpt>
      <trkpt lat="42.74529" lon="1.85447">
        <ele>1427.2</ele>
        <time>2024-06-30T07:26:31Z</time>
      </trkpt>
      <trkpt lat="42.74531" lon="1.85453">
        <ele>1427.6</ele>
        <time>2024-06-30T07:26:32Z</time>
      </trkpt>
      <trkpt lat="42.74532" lon="1.85459">
        <ele>1427.8</ele>
        <time>2024-06-30T07:26:33Z</time>
      </trkpt>
      <trkpt lat="42.74533" lon="1.85464">
        <ele>1428.4</ele>
        <time>2024-06-30T07:26:34Z</time>
      </trkpt>
      <trkpt lat="42.74534" lon="1.8547">
        <ele>1428.6</ele>
        <time>2024-06-30T07:26:35Z</time>
      </trkpt>
      <trkpt lat="42.74535" lon="1.85476">
        <ele>1428.6</ele>
        <time>2024-06-30T07:26:36Z</time>
      </trkpt>
      <trkpt lat="42.74536" lon="1.85482">
        <ele>1429.4</ele>
        <time>2024-06-30T07:26:37Z</time>
      </trkpt>
      <trkpt lat="42.74538" lon="1.85487">
        <ele>1429.8</ele>
        <time>2024-06-30T07:26:38Z</time>
      </trkpt>
      <trkpt lat="42.74539" lon="1.85494">
        <ele>1430.6</ele>
        <time>2024-06-30T07:26:39Z</time>
      </trkpt>
      <trkpt lat="42.74541" lon="1.855">
        <ele>1430.8</ele>
        <time>2024-06-30T07:26:40Z</time>
      </trkpt>
      <trkpt lat="42.74542" lon="1.85505">
        <ele>1431.6</ele>
        <time>2024-06-30T07:26:41Z</time>
      </trkpt>
      <trkpt lat="42.74543" lon="1.8551">
        <ele>1431.8</ele>
        <time>2024-06-30T07:26:42Z</time>
      </trkpt>
      <trkpt lat="42.74544" lon="1.85515">
        <ele>1432.2</ele>
        <time>2024-06-30T07:26:43Z</time>
      </trkpt>
      <trkpt lat="42.74545" lon="1.85521">
        <ele>1432.6</ele>
        <time>2024-06-30T07:26:44Z</time>
      </trkpt>
      <trkpt lat="42.74547" lon="1.85526">
        <ele>1433.4</ele>
        <time>2024-06-30T07:26:45Z</time>
      </trkpt>
      <trkpt lat="42.74547" lon="1.85531">
        <ele>1434.2</ele>
        <time>2024-06-30T07:26:46Z</time>
      </trkpt>
      <trkpt lat="42.74548" lon="1.85536">
        <ele>1434.6</ele>
        <time>2024-06-30T07:26:47Z</time>
      </trkpt>
      <trkpt lat="42.74549" lon="1.85541">
        <ele>1435.4</ele>
        <time>2024-06-30T07:26:48Z</time>
      </trkpt>
      <trkpt lat="42.74549" lon="1.85546">
        <ele>1435.8</ele>
        <time>2024-06-30T07:26:49Z</time>
      </trkpt>
      <trkpt lat="42.7455" lon="1.8555">
        <ele>1436</ele>
        <time>2024-06-30T07:26:50Z</time>
      </trkpt>
      <trkpt lat="42.74551" lon="1.85554">
        <ele>1436.2</ele>
        <time>2024-06-30T07:26:51Z</time>
      </trkpt>
      <trkpt lat="42.74551" lon="1.85559">
        <ele>1436.6</ele>
        <time>2024-06-30T07:26:52Z</time>
      </trkpt>
      <trkpt lat="42.74552" lon="1.85563">
        <ele>1436.8</ele>
        <time>2024-06-30T07:26:53Z</time>
      </trkpt>
      <trkpt lat="42.74553" lon="1.85568">
        <ele>1437.4</ele>
        <time>2024-06-30T07:26:54Z</time>
      </trkpt>
      <trkpt lat="42.74554" lon="1.85572">
        <ele>1438.6</ele>
        <time>2024-06-30T07:26:55Z</time>
      </trkpt>
      <trkpt lat="42.74556" lon="1.85576">
        <ele>1438.8</ele>
        <time>2024-06-30T07:26:56Z</time>
      </trkpt>
      <trkpt lat="42.74557" lon="1.85581">
        <ele>1439.6</ele>
        <time>2024-06-30T07:26:57Z</time>
      </trkpt>
      <trkpt lat="42.74558" lon="1.85585">
        <ele>1439.8</ele>
        <time>2024-06-30T07:26:58Z</time>
      </trkpt>
      <trkpt lat="42.74559" lon="1.8559">
        <ele>1440.4</ele>
        <time>2024-06-30T07:26:59Z</time>
      </trkpt>
      <trkpt lat="42.74559" lon="1.85594">
        <ele>1440.6</ele>
        <time>2024-06-30T07:27:00Z</time>
      </trkpt>
      <trkpt lat="42.7456" lon="1.85598">
        <ele>1441</ele>
        <time>2024-06-30T07:27:01Z</time>
      </trkpt>
      <trkpt lat="42.74561" lon="1.85603">
        <ele>1441</ele>
        <time>2024-06-30T07:27:02Z</time>
      </trkpt>
      <trkpt lat="42.74562" lon="1.85607">
        <ele>1441.6</ele>
        <time>2024-06-30T07:27:03Z</time>
      </trkpt>
      <trkpt lat="42.74563" lon="1.85612">
        <ele>1441.8</ele>
        <time>2024-06-30T07:27:04Z</time>
      </trkpt>
      <trkpt lat="42.74563" lon="1.85616">
        <ele>1442.2</ele>
        <time>2024-06-30T07:27:05Z</time>
      </trkpt>
      <trkpt lat="42.74564" lon="1.85621">
        <ele>1442.4</ele>
        <time>2024-06-30T07:27:06Z</time>
      </trkpt>
      <trkpt lat="42.74565" lon="1.85626">
        <ele>1442.6</ele>
        <time>2024-06-30T07:27:07Z</time>
      </trkpt>
      <trkpt lat="42.74565" lon="1.8563">
        <ele>1443.2</ele>
        <time>2024-06-30T07:27:08Z</time>
      </trkpt>
      <trkpt lat="42.74566" lon="1.85634">
        <ele>1443.6</ele>
        <time>2024-06-30T07:27:09Z</time>
      </trkpt>
      <trkpt lat="42.74567" lon="1.85639">
        <ele>1443.8</ele>
        <time>2024-06-30T07:27:10Z</time>
      </trkpt>
      <trkpt lat="42.74568" lon="1.85643">
        <ele>1444</ele>
        <time>2024-06-30T07:27:11Z</time>
      </trkpt>
      <trkpt lat="42.74569" lon="1.85648">
        <ele>1444.6</ele>
        <time>2024-06-30T07:27:12Z</time>
      </trkpt>
      <trkpt lat="42.74569" lon="1.85652">
        <ele>1445</ele>
        <time>2024-06-30T07:27:13Z</time>
      </trkpt>
      <trkpt lat="42.7457" lon="1.85657">
        <ele>1445.2</ele>
        <time>2024-06-30T07:27:14Z</time>
      </trkpt>
      <trkpt lat="42.74571" lon="1.8566">
        <ele>1445.6</ele>
        <time>2024-06-30T07:27:15Z</time>
      </trkpt>
      <trkpt lat="42.74572" lon="1.85664">
        <ele>1445.8</ele>
        <time>2024-06-30T07:27:16Z</time>
      </trkpt>
      <trkpt lat="42.74574" lon="1.85669">
        <ele>1446.4</ele>
        <time>2024-06-30T07:27:17Z</time>
      </trkpt>
      <trkpt lat="42.74575" lon="1.85673">
        <ele>1446.8</ele>
        <time>2024-06-30T07:27:18Z</time>
      </trkpt>
      <trkpt lat="42.74576" lon="1.85678">
        <ele>1447.4</ele>
        <time>2024-06-30T07:27:19Z</time>
      </trkpt>
      <trkpt lat="42.74577" lon="1.85682">
        <ele>1447.8</ele>
        <time>2024-06-30T07:27:20Z</time>
      </trkpt>
      <trkpt lat="42.74579" lon="1.85686">
        <ele>1448.4</ele>
        <time>2024-06-30T07:27:21Z</time>
      </trkpt>
      <trkpt lat="42.74581" lon="1.8569">
        <ele>1448.4</ele>
        <time>2024-06-30T07:27:22Z</time>
      </trkpt>
      <trkpt lat="42.74583" lon="1.85693">
        <ele>1448.8</ele>
        <time>2024-06-30T07:27:23Z</time>
      </trkpt>
      <trkpt lat="42.74585" lon="1.85697">
        <ele>1449.2</ele>
        <time>2024-06-30T07:27:24Z</time>
      </trkpt>
      <trkpt lat="42.74587" lon="1.85699">
        <ele>1449.2</ele>
        <time>2024-06-30T07:27:25Z</time>
      </trkpt>
      <trkpt lat="42.74589" lon="1.85701">
        <ele>1449.4</ele>
        <time>2024-06-30T07:27:26Z</time>
      </trkpt>
      <trkpt lat="42.74592" lon="1.85702">
        <ele>1449.6</ele>
        <time>2024-06-30T07:27:27Z</time>
      </trkpt>
      <trkpt lat="42.74595" lon="1.85704">
        <ele>1450.2</ele>
        <time>2024-06-30T07:27:28Z</time>
      </trkpt>
      <trkpt lat="42.74598" lon="1.85707">
        <ele>1450.6</ele>
        <time>2024-06-30T07:27:29Z</time>
      </trkpt>
      <trkpt lat="42.74601" lon="1.85709">
        <ele>1451.2</ele>
        <time>2024-06-30T07:27:30Z</time>
      </trkpt>
      <trkpt lat="42.74604" lon="1.85712">
        <ele>1451.2</ele>
        <time>2024-06-30T07:27:31Z</time>
      </trkpt>
      <trkpt lat="42.74607" lon="1.85714">
        <ele>1451.6</ele>
        <time>2024-06-30T07:27:32Z</time>
      </trkpt>
      <trkpt lat="42.7461" lon="1.85716">
        <ele>1452</ele>
        <time>2024-06-30T07:27:33Z</time>
      </trkpt>
      <trkpt lat="42.74612" lon="1.85717">
        <ele>1452.4</ele>
        <time>2024-06-30T07:27:34Z</time>
      </trkpt>
      <trkpt lat="42.74615" lon="1.8572">
        <ele>1452.8</ele>
        <time>2024-06-30T07:27:35Z</time>
      </trkpt>
      <trkpt lat="42.74618" lon="1.85722">
        <ele>1453</ele>
        <time>2024-06-30T07:27:36Z</time>
      </trkpt>
      <trkpt lat="42.74621" lon="1.85724">
        <ele>1453.8</ele>
        <time>2024-06-30T07:27:37Z</time>
      </trkpt>
      <trkpt lat="42.74624" lon="1.85727">
        <ele>1454</ele>
        <time>2024-06-30T07:27:38Z</time>
      </trkpt>
      <trkpt lat="42.74626" lon="1.85729">
        <ele>1454.4</ele>
        <time>2024-06-30T07:27:39Z</time>
      </trkpt>
      <trkpt lat="42.74629" lon="1.85731">
        <ele>1454.6</ele>
        <time>2024-06-30T07:27:40Z</time>
      </trkpt>
      <trkpt lat="42.74631" lon="1.85733">
        <ele>1455</ele>
        <time>2024-06-30T07:27:41Z</time>
      </trkpt>
      <trkpt lat="42.74634" lon="1.85735">
        <ele>1455.2</ele>
        <time>2024-06-30T07:27:42Z</time>
      </trkpt>
      <trkpt lat="42.74637" lon="1.85738">
        <ele>1455.8</ele>
        <time>2024-06-30T07:27:43Z</time>
      </trkpt>
      <trkpt lat="42.74639" lon="1.8574">
        <ele>1456.4</ele>
        <time>2024-06-30T07:27:44Z</time>
      </trkpt>
      <trkpt lat="42.74641" lon="1.85744">
        <ele>1456.6</ele>
        <time>2024-06-30T07:27:45Z</time>
      </trkpt>
      <trkpt lat="42.74644" lon="1.85748">
        <ele>1457.2</ele>
        <time>2024-06-30T07:27:46Z</time>
      </trkpt>
      <trkpt lat="42.74646" lon="1.8575">
        <ele>1457.2</ele>
        <time>2024-06-30T07:27:47Z</time>
      </trkpt>
      <trkpt lat="42.74648" lon="1.85753">
        <ele>1457.8</ele>
        <time>2024-06-30T07:27:48Z</time>
      </trkpt>
      <trkpt lat="42.74651" lon="1.85757">
        <ele>1458</ele>
        <time>2024-06-30T07:27:49Z</time>
      </trkpt>
      <trkpt lat="42.74654" lon="1.85761">
        <ele>1458.8</ele>
        <time>2024-06-30T07:27:50Z</time>
      </trkpt>
      <trkpt lat="42.74656" lon="1.85763">
        <ele>1459.2</ele>
        <time>2024-06-30T07:27:51Z</time>
      </trkpt>
      <trkpt lat="42.74659" lon="1.85767">
        <ele>1459.8</ele>
        <time>2024-06-30T07:27:52Z</time>
      </trkpt>
      <trkpt lat="42.7466" lon="1.85769">
        <ele>1460.2</ele>
        <time>2024-06-30T07:27:53Z</time>
      </trkpt>
      <trkpt lat="42.74663" lon="1.85773">
        <ele>1460.6</ele>
        <time>2024-06-30T07:27:54Z</time>
      </trkpt>
      <trkpt lat="42.74665" lon="1.85776">
        <ele>1461</ele>
        <time>2024-06-30T07:27:55Z</time>
      </trkpt>
      <trkpt lat="42.74667" lon="1.85778">
        <ele>1461.2</ele>
        <time>2024-06-30T07:27:56Z</time>
      </trkpt>
      <trkpt lat="42.7467" lon="1.85781">
        <ele>1461.8</ele>
        <time>2024-06-30T07:27:57Z</time>
      </trkpt>
      <trkpt lat="42.74672" lon="1.85783">
        <ele>1462</ele>
        <time>2024-06-30T07:27:58Z</time>
      </trkpt>
      <trkpt lat="42.74676" lon="1.85786">
        <ele>1462.8</ele>
        <time>2024-06-30T07:27:59Z</time>
      </trkpt>
      <trkpt lat="42.74678" lon="1.85788">
        <ele>1463.2</ele>
        <time>2024-06-30T07:28:00Z</time>
      </trkpt>
      <trkpt lat="42.74681" lon="1.85791">
        <ele>1463.6</ele>
        <time>2024-06-30T07:28:01Z</time>
      </trkpt>
      <trkpt lat="42.74684" lon="1.85794">
        <ele>1464</ele>
        <time>2024-06-30T07:28:02Z</time>
      </trkpt>
      <trkpt lat="42.74688" lon="1.85798">
        <ele>1464.2</ele>
        <time>2024-06-30T07:28:03Z</time>
      </trkpt>
      <trkpt lat="42.74691" lon="1.858">
        <ele>1464.4</ele>
        <time>2024-06-30T07:28:04Z</time>
      </trkpt>
      <trkpt lat="42.74694" lon="1.85804">
        <ele>1464.6</ele>
        <time>2024-06-30T07:28:05Z</time>
      </trkpt>
      <trkpt lat="42.74697" lon="1.85806">
        <ele>1465.4</ele>
        <time>2024-06-30T07:28:06Z</time>
      </trkpt>
      <trkpt lat="42.74699" lon="1.85807">
        <ele>1465.6</ele>
        <time>2024-06-30T07:28:07Z</time>
      </trkpt>
      <trkpt lat="42.74703" lon="1.85808">
        <ele>1466.2</ele>
        <time>2024-06-30T07:28:08Z</time>
      </trkpt>
      <trkpt lat="42.74705" lon="1.8581">
        <ele>1466.4</ele>
        <time>2024-06-30T07:28:09Z</time>
      </trkpt>
      <trkpt lat="42.74708" lon="1.85813">
        <ele>1466.8</ele>
        <time>2024-06-30T07:28:10Z</time>
      </trkpt>
      <trkpt lat="42.74711" lon="1.85817">
        <ele>1467</ele>
        <time>2024-06-30T07:28:11Z</time>
      </trkpt>
      <trkpt lat="42.74713" lon="1.8582">
        <ele>1467</ele>
        <time>2024-06-30T07:28:12Z</time>
      </trkpt>
      <trkpt lat="42.74715" lon="1.85824">
        <ele>1467.4</ele>
        <time>2024-06-30T07:28:13Z</time>
      </trkpt>
      <trkpt lat="42.74718" lon="1.85827">
        <ele>1468</ele>
        <time>2024-06-30T07:28:14Z</time>
      </trkpt>
      <trkpt lat="42.74721" lon="1.8583">
        <ele>1468.4</ele>
        <time>2024-06-30T07:28:15Z</time>
      </trkpt>
      <trkpt lat="42.74723" lon="1.85833">
        <ele>1468.6</ele>
        <time>2024-06-30T07:28:16Z</time>
      </trkpt>
      <trkpt lat="42.74725" lon="1.85835">
        <ele>1469</ele>
        <time>2024-06-30T07:28:17Z</time>
      </trkpt>
      <trkpt lat="42.74728" lon="1.85838">
        <ele>1469</ele>
        <time>2024-06-30T07:28:18Z</time>
      </trkpt>
      <trkpt lat="42.74731" lon="1.8584">
        <ele>1469.2</ele>
        <time>2024-06-30T07:28:19Z</time>
      </trkpt>
      <trkpt lat="42.74734" lon="1.85842">
        <ele>1469.4</ele>
        <time>2024-06-30T07:28:20Z</time>
      </trkpt>
      <trkpt lat="42.74737" lon="1.85843">
        <ele>1469.6</ele>
        <time>2024-06-30T07:28:21Z</time>
      </trkpt>
      <trkpt lat="42.7474" lon="1.85843">
        <ele>1470</ele>
        <time>2024-06-30T07:28:22Z</time>
      </trkpt>
      <trkpt lat="42.74743" lon="1.85844">
        <ele>1470.2</ele>
        <time>2024-06-30T07:28:23Z</time>
      </trkpt>
      <trkpt lat="42.74746" lon="1.85845">
        <ele>1470.6</ele>
        <time>2024-06-30T07:28:24Z</time>
      </trkpt>
      <trkpt lat="42.74749" lon="1.85846">
        <ele>1471</ele>
        <time>2024-06-30T07:28:25Z</time>
      </trkpt>
      <trkpt lat="42.74752" lon="1.85847">
        <ele>1471.6</ele>
        <time>2024-06-30T07:28:26Z</time>
      </trkpt>
      <trkpt lat="42.74755" lon="1.85847">
        <ele>1471.8</ele>
        <time>2024-06-30T07:28:27Z</time>
      </trkpt>
      <trkpt lat="42.74758" lon="1.85848">
        <ele>1472.2</ele>
        <time>2024-06-30T07:28:28Z</time>
      </trkpt>
      <trkpt lat="42.74761" lon="1.85849">
        <ele>1472.4</ele>
        <time>2024-06-30T07:28:29Z</time>
      </trkpt>
      <trkpt lat="42.74764" lon="1.85851">
        <ele>1472.8</ele>
        <time>2024-06-30T07:28:30Z</time>
      </trkpt>
      <trkpt lat="42.74767" lon="1.85853">
        <ele>1473.2</ele>
        <time>2024-06-30T07:28:31Z</time>
      </trkpt>
      <trkpt lat="42.74771" lon="1.85855">
        <ele>1473.2</ele>
        <time>2024-06-30T07:28:32Z</time>
      </trkpt>
      <trkpt lat="42.74774" lon="1.85857">
        <ele>1474</ele>
        <time>2024-06-30T07:28:33Z</time>
      </trkpt>
      <trkpt lat="42.74778" lon="1.85858">
        <ele>1474.2</ele>
        <time>2024-06-30T07:28:34Z</time>
      </trkpt>
      <trkpt lat="42.74781" lon="1.8586">
        <ele>1474.6</ele>
        <time>2024-06-30T07:28:35Z</time>
      </trkpt>
      <trkpt lat="42.74783" lon="1.85861">
        <ele>1474.8</ele>
        <time>2024-06-30T07:28:36Z</time>
      </trkpt>
      <trkpt lat="42.74787" lon="1.85863">
        <ele>1475.6</ele>
        <time>2024-06-30T07:28:37Z</time>
      </trkpt>
      <trkpt lat="42.7479" lon="1.85865">
        <ele>1476.2</ele>
        <time>2024-06-30T07:28:38Z</time>
      </trkpt>
      <trkpt lat="42.74793" lon="1.85868">
        <ele>1476.8</ele>
        <time>2024-06-30T07:28:39Z</time>
      </trkpt>
      <trkpt lat="42.74795" lon="1.8587">
        <ele>1477.2</ele>
        <time>2024-06-30T07:28:40Z</time>
      </trkpt>
      <trkpt lat="42.74798" lon="1.85873">
        <ele>1477.4</ele>
        <time>2024-06-30T07:28:41Z</time>
      </trkpt>
      <trkpt lat="42.748" lon="1.85876">
        <ele>1478</ele>
        <time>2024-06-30T07:28:42Z</time>
      </trkpt>
      <trkpt lat="42.74803" lon="1.85879">
        <ele>1478</ele>
        <time>2024-06-30T07:28:43Z</time>
      </trkpt>
      <trkpt lat="42.74805" lon="1.85883">
        <ele>1478.4</ele>
        <time>2024-06-30T07:28:44Z</time>
      </trkpt>
      <trkpt lat="42.74807" lon="1.85886">
        <ele>1478.6</ele>
        <time>2024-06-30T07:28:45Z</time>
      </trkpt>
      <trkpt lat="42.7481" lon="1.8589">
        <ele>1479.2</ele>
        <time>2024-06-30T07:28:46Z</time>
      </trkpt>
      <trkpt lat="42.74813" lon="1.85895">
        <ele>1479.6</ele>
        <time>2024-06-30T07:28:47Z</time>
      </trkpt>
      <trkpt lat="42.74815" lon="1.85899">
        <ele>1480</ele>
        <time>2024-06-30T07:28:48Z</time>
      </trkpt>
      <trkpt lat="42.74817" lon="1.85903">
        <ele>1480.6</ele>
        <time>2024-06-30T07:28:49Z</time>
      </trkpt>
      <trkpt lat="42.7482" lon="1.85907">
        <ele>1480.6</ele>
        <time>2024-06-30T07:28:50Z</time>
      </trkpt>
      <trkpt lat="42.74822" lon="1.8591">
        <ele>1481</ele>
        <time>2024-06-30T07:28:51Z</time>
      </trkpt>
      <trkpt lat="42.74823" lon="1.85914">
        <ele>1481</ele>
        <time>2024-06-30T07:28:52Z</time>
      </trkpt>
      <trkpt lat="42.74824" lon="1.85916">
        <ele>1481.4</ele>
        <time>2024-06-30T07:28:53Z</time>
      </trkpt>
      <trkpt lat="42.74825" lon="1.8592">
        <ele>1481.8</ele>
        <time>2024-06-30T07:28:54Z</time>
      </trkpt>
      <trkpt lat="42.74826" lon="1.85923">
        <ele>1482.4</ele>
        <time>2024-06-30T07:28:55Z</time>
      </trkpt>
      <trkpt lat="42.74827" lon="1.85928">
        <ele>1482.8</ele>
        <time>2024-06-30T07:28:56Z</time>
      </trkpt>
      <trkpt lat="42.74828" lon="1.85932">
        <ele>1483.2</ele>
        <time>2024-06-30T07:28:57Z</time>
      </trkpt>
      <trkpt lat="42.74828" lon="1.85935">
        <ele>1483.4</ele>
        <time>2024-06-30T07:28:58Z</time>
      </trkpt>
      <trkpt lat="42.7483" lon="1.8594">
        <ele>1483.8</ele>
        <time>2024-06-30T07:28:59Z</time>
      </trkpt>
      <trkpt lat="42.74832" lon="1.85945">
        <ele>1484.4</ele>
        <time>2024-06-30T07:29:00Z</time>
      </trkpt>
      <trkpt lat="42.74834" lon="1.85948">
        <ele>1484.8</ele>
        <time>2024-06-30T07:29:01Z</time>
      </trkpt>
      <trkpt lat="42.74836" lon="1.8595">
        <ele>1485.2</ele>
        <time>2024-06-30T07:29:02Z</time>
      </trkpt>
      <trkpt lat="42.74839" lon="1.8595">
        <ele>1485.4</ele>
        <time>2024-06-30T07:29:03Z</time>
      </trkpt>
      <trkpt lat="42.74841" lon="1.8595">
        <ele>1485.6</ele>
        <time>2024-06-30T07:29:04Z</time>
      </trkpt>
      <trkpt lat="42.74845" lon="1.8595">
        <ele>1486</ele>
        <time>2024-06-30T07:29:05Z</time>
      </trkpt>
      <trkpt lat="42.74849" lon="1.85949">
        <ele>1486.4</ele>
        <time>2024-06-30T07:29:06Z</time>
      </trkpt>
      <trkpt lat="42.74852" lon="1.85948">
        <ele>1486.8</ele>
        <time>2024-06-30T07:29:07Z</time>
      </trkpt>
      <trkpt lat="42.74855" lon="1.85948">
        <ele>1487</ele>
        <time>2024-06-30T07:29:08Z</time>
      </trkpt>
      <trkpt lat="42.74859" lon="1.85948">
        <ele>1487.4</ele>
        <time>2024-06-30T07:29:09Z</time>
      </trkpt>
      <trkpt lat="42.74863" lon="1.85949">
        <ele>1487.4</ele>
        <time>2024-06-30T07:29:10Z</time>
      </trkpt>
      <trkpt lat="42.74866" lon="1.85949">
        <ele>1487.8</ele>
        <time>2024-06-30T07:29:11Z</time>
      </trkpt>
      <trkpt lat="42.74869" lon="1.8595">
        <ele>1488</ele>
        <time>2024-06-30T07:29:12Z</time>
      </trkpt>
      <trkpt lat="42.74872" lon="1.85951">
        <ele>1488.2</ele>
        <time>2024-06-30T07:29:13Z</time>
      </trkpt>
      <trkpt lat="42.74875" lon="1.85951">
        <ele>1488.6</ele>
        <time>2024-06-30T07:29:14Z</time>
      </trkpt>
      <trkpt lat="42.7488" lon="1.85952">
        <ele>1488.8</ele>
        <time>2024-06-30T07:29:15Z</time>
      </trkpt>
      <trkpt lat="42.74883" lon="1.85953">
        <ele>1489</ele>
        <time>2024-06-30T07:29:16Z</time>
      </trkpt>
      <trkpt lat="42.74887" lon="1.85954">
        <ele>1489.4</ele>
        <time>2024-06-30T07:29:17Z</time>
      </trkpt>
      <trkpt lat="42.7489" lon="1.85956">
        <ele>1489.8</ele>
        <time>2024-06-30T07:29:18Z</time>
      </trkpt>
      <trkpt lat="42.74894" lon="1.85958">
        <ele>1490.2</ele>
        <time>2024-06-30T07:29:19Z</time>
      </trkpt>
      <trkpt lat="42.74897" lon="1.85959">
        <ele>1490.8</ele>
        <time>2024-06-30T07:29:20Z</time>
      </trkpt>
      <trkpt lat="42.74901" lon="1.85961">
        <ele>1491</ele>
        <time>2024-06-30T07:29:21Z</time>
      </trkpt>
      <trkpt lat="42.74903" lon="1.85962">
        <ele>1491.8</ele>
        <time>2024-06-30T07:29:22Z</time>
      </trkpt>
      <trkpt lat="42.74905" lon="1.85963">
        <ele>1492.2</ele>
        <time>2024-06-30T07:29:23Z</time>
      </trkpt>
      <trkpt lat="42.74908" lon="1.85965">
        <ele>1492.8</ele>
        <time>2024-06-30T07:29:24Z</time>
      </trkpt>
      <trkpt lat="42.74912" lon="1.85967">
        <ele>1493.4</ele>
        <time>2024-06-30T07:29:25Z</time>
      </trkpt>
      <trkpt lat="42.74915" lon="1.85969">
        <ele>1494</ele>
        <time>2024-06-30T07:29:26Z</time>
      </trkpt>
      <trkpt lat="42.74918" lon="1.85971">
        <ele>1494.4</ele>
        <time>2024-06-30T07:29:27Z</time>
      </trkpt>
      <trkpt lat="42.74921" lon="1.85973">
        <ele>1494.4</ele>
        <time>2024-06-30T07:29:28Z</time>
      </trkpt>
      <trkpt lat="42.74924" lon="1.85976">
        <ele>1494.6</ele>
        <time>2024-06-30T07:29:29Z</time>
      </trkpt>
      <trkpt lat="42.74927" lon="1.85978">
        <ele>1494.6</ele>
        <time>2024-06-30T07:29:30Z</time>
      </trkpt>
      <trkpt lat="42.7493" lon="1.8598">
        <ele>1495</ele>
        <time>2024-06-30T07:29:31Z</time>
      </trkpt>
      <trkpt lat="42.74933" lon="1.85981">
        <ele>1495.2</ele>
        <time>2024-06-30T07:29:32Z</time>
      </trkpt>
      <trkpt lat="42.74936" lon="1.85983">
        <ele>1495.8</ele>
        <time>2024-06-30T07:29:33Z</time>
      </trkpt>
      <trkpt lat="42.74939" lon="1.85985">
        <ele>1496</ele>
        <time>2024-06-30T07:29:34Z</time>
      </trkpt>
      <trkpt lat="42.74942" lon="1.85986">
        <ele>1496.2</ele>
        <time>2024-06-30T07:29:35Z</time>
      </trkpt>
      <trkpt lat="42.74944" lon="1.85987">
        <ele>1496.6</ele>
        <time>2024-06-30T07:29:36Z</time>
      </trkpt>
      <trkpt lat="42.74945" lon="1.85989">
        <ele>1496.8</ele>
        <time>2024-06-30T07:29:37Z</time>
      </trkpt>
      <trkpt lat="42.74945" lon="1.85993">
        <ele>1497.2</ele>
        <time>2024-06-30T07:29:38Z</time>
      </trkpt>
      <trkpt lat="42.74944" lon="1.85995">
        <ele>1497.2</ele>
        <time>2024-06-30T07:29:39Z</time>
      </trkpt>
      <trkpt lat="42.74943" lon="1.85997">
        <ele>1497.4</ele>
        <time>2024-06-30T07:29:40Z</time>
      </trkpt>
      <trkpt lat="42.74941" lon="1.85997">
        <ele>1497.4</ele>
        <time>2024-06-30T07:29:41Z</time>
      </trkpt>
      <trkpt lat="42.7494" lon="1.85997">
        <ele>1497.8</ele>
        <time>2024-06-30T07:29:42Z</time>
      </trkpt>
      <trkpt lat="42.74939" lon="1.85997">
        <ele>1498</ele>
        <time>2024-06-30T07:29:43Z</time>
      </trkpt>
      <trkpt lat="42.74937" lon="1.85997">
        <ele>1498.4</ele>
        <time>2024-06-30T07:29:44Z</time>
      </trkpt>
      <trkpt lat="42.74935" lon="1.85997">
        <ele>1498.6</ele>
        <time>2024-06-30T07:29:45Z</time>
      </trkpt>
      <trkpt lat="42.74933" lon="1.85996">
        <ele>1498.8</ele>
        <time>2024-06-30T07:29:46Z</time>
      </trkpt>
      <trkpt lat="42.74932" lon="1.85996">
        <ele>1499</ele>
        <time>2024-06-30T07:29:47Z</time>
      </trkpt>
      <trkpt lat="42.74931" lon="1.85997">
        <ele>1499.4</ele>
        <time>2024-06-30T07:29:48Z</time>
      </trkpt>
      <trkpt lat="42.74929" lon="1.85997">
        <ele>1499.8</ele>
        <time>2024-06-30T07:29:49Z</time>
      </trkpt>
      <trkpt lat="42.74927" lon="1.85997">
        <ele>1499.8</ele>
        <time>2024-06-30T07:29:50Z</time>
      </trkpt>
      <trkpt lat="42.74925" lon="1.85998">
        <ele>1500.4</ele>
        <time>2024-06-30T07:29:51Z</time>
      </trkpt>
      <trkpt lat="42.74923" lon="1.85998">
        <ele>1500.6</ele>
        <time>2024-06-30T07:29:52Z</time>
      </trkpt>
      <trkpt lat="42.74922" lon="1.86">
        <ele>1501</ele>
        <time>2024-06-30T07:29:53Z</time>
      </trkpt>
      <trkpt lat="42.7492" lon="1.86001">
        <ele>1501.4</ele>
        <time>2024-06-30T07:29:54Z</time>
      </trkpt>
      <trkpt lat="42.74918" lon="1.86002">
        <ele>1502.2</ele>
        <time>2024-06-30T07:29:55Z</time>
      </trkpt>
      <trkpt lat="42.74915" lon="1.86002">
        <ele>1502.8</ele>
        <time>2024-06-30T07:29:56Z</time>
      </trkpt>
      <trkpt lat="42.74913" lon="1.86003">
        <ele>1503.2</ele>
        <time>2024-06-30T07:29:57Z</time>
      </trkpt>
      <trkpt lat="42.74911" lon="1.86004">
        <ele>1504</ele>
        <time>2024-06-30T07:29:58Z</time>
      </trkpt>
      <trkpt lat="42.7491" lon="1.86005">
        <ele>1504.4</ele>
        <time>2024-06-30T07:29:59Z</time>
      </trkpt>
      <trkpt lat="42.74908" lon="1.86006">
        <ele>1504.8</ele>
        <time>2024-06-30T07:30:00Z</time>
      </trkpt>
      <trkpt lat="42.74906" lon="1.86006">
        <ele>1505.2</ele>
        <time>2024-06-30T07:30:01Z</time>
      </trkpt>
      <trkpt lat="42.74903" lon="1.86007">
        <ele>1505.6</ele>
        <time>2024-06-30T07:30:02Z</time>
      </trkpt>
      <trkpt lat="42.749" lon="1.86008">
        <ele>1505.8</ele>
        <time>2024-06-30T07:30:03Z</time>
      </trkpt>
      <trkpt lat="42.74898" lon="1.86008">
        <ele>1506.4</ele>
        <time>2024-06-30T07:30:04Z</time>
      </trkpt>
      <trkpt lat="42.74896" lon="1.86009">
        <ele>1507.2</ele>
        <time>2024-06-30T07:30:05Z</time>
      </trkpt>
      <trkpt lat="42.74893" lon="1.86011">
        <ele>1507.6</ele>
        <time>2024-06-30T07:30:06Z</time>
      </trkpt>
      <trkpt lat="42.74892" lon="1.86012">
        <ele>1508.2</ele>
        <time>2024-06-30T07:30:07Z</time>
      </trkpt>
      <trkpt lat="42.74891" lon="1.86013">
        <ele>1508.4</ele>
        <time>2024-06-30T07:30:08Z</time>
      </trkpt>
      <trkpt lat="42.74889" lon="1.86014">
        <ele>1509</ele>
        <time>2024-06-30T07:30:09Z</time>
      </trkpt>
      <trkpt lat="42.74888" lon="1.86014">
        <ele>1509</ele>
        <time>2024-06-30T07:30:10Z</time>
      </trkpt>
      <trkpt lat="42.74886" lon="1.86015">
        <ele>1509.2</ele>
        <time>2024-06-30T07:30:11Z</time>
      </trkpt>
      <trkpt lat="42.74885" lon="1.86016">
        <ele>1509.6</ele>
        <time>2024-06-30T07:30:12Z</time>
      </trkpt>
      <trkpt lat="42.74884" lon="1.86017">
        <ele>1510.2</ele>
        <time>2024-06-30T07:30:13Z</time>
      </trkpt>
      <trkpt lat="42.74882" lon="1.86019">
        <ele>1510.4</ele>
        <time>2024-06-30T07:30:14Z</time>
      </trkpt>
      <trkpt lat="42.7488" lon="1.8602">
        <ele>1510.8</ele>
        <time>2024-06-30T07:30:15Z</time>
      </trkpt>
      <trkpt lat="42.74878" lon="1.86021">
        <ele>1511</ele>
        <time>2024-06-30T07:30:16Z</time>
      </trkpt>
      <trkpt lat="42.74876" lon="1.86021">
        <ele>1511.2</ele>
        <time>2024-06-30T07:30:17Z</time>
      </trkpt>
      <trkpt lat="42.74874" lon="1.86022">
        <ele>1512</ele>
        <time>2024-06-30T07:30:18Z</time>
      </trkpt>
      <trkpt lat="42.74873" lon="1.86024">
        <ele>1512.2</ele>
        <time>2024-06-30T07:30:19Z</time>
      </trkpt>
      <trkpt lat="42.74871" lon="1.86025">
        <ele>1512.8</ele>
        <time>2024-06-30T07:30:20Z</time>
      </trkpt>
      <trkpt lat="42.74869" lon="1.86027">
        <ele>1513</ele>
        <time>2024-06-30T07:30:21Z</time>
      </trkpt>
      <trkpt lat="42.74867" lon="1.86027">
        <ele>1513.2</ele>
        <time>2024-06-30T07:30:22Z</time>
      </trkpt>
      <trkpt lat="42.74866" lon="1.86029">
        <ele>1513.6</ele>
        <time>2024-06-30T07:30:23Z</time>
      </trkpt>
      <trkpt lat="42.74865" lon="1.86031">
        <ele>1514.2</ele>
        <time>2024-06-30T07:30:24Z</time>
      </trkpt>
      <trkpt lat="42.74863" lon="1.86032">
        <ele>1514.6</ele>
        <time>2024-06-30T07:30:25Z</time>
      </trkpt>
      <trkpt lat="42.7486" lon="1.86034">
        <ele>1515</ele>
        <time>2024-06-30T07:30:26Z</time>
      </trkpt>
      <trkpt lat="42.74858" lon="1.86034">
        <ele>1516</ele>
        <time>2024-06-30T07:30:27Z</time>
      </trkpt>
      <trkpt lat="42.74856" lon="1.86036">
        <ele>1516.2</ele>
        <time>2024-06-30T07:30:28Z</time>
      </trkpt>
      <trkpt lat="42.74855" lon="1.86036">
        <ele>1516.6</ele>
        <time>2024-06-30T07:30:29Z</time>
      </trkpt>
      <trkpt lat="42.74853" lon="1.86036">
        <ele>1516.8</ele>
        <time>2024-06-30T07:30:30Z</time>
      </trkpt>
      <trkpt lat="42.74851" lon="1.86037">
        <ele>1517.2</ele>
        <time>2024-06-30T07:30:31Z</time>
      </trkpt>
      <trkpt lat="42.74848" lon="1.86037">
        <ele>1517.4</ele>
        <time>2024-06-30T07:30:32Z</time>
      </trkpt>
      <trkpt lat="42.74847" lon="1.86038">
        <ele>1517.8</ele>
        <time>2024-06-30T07:30:33Z</time>
      </trkpt>
      <trkpt lat="42.74846" lon="1.8604">
        <ele>1518.2</ele>
        <time>2024-06-30T07:30:34Z</time>
      </trkpt>
      <trkpt lat="42.74843" lon="1.86042">
        <ele>1518.4</ele>
        <time>2024-06-30T07:30:35Z</time>
      </trkpt>
      <trkpt lat="42.7484" lon="1.86044">
        <ele>1518.8</ele>
        <time>2024-06-30T07:30:36Z</time>
      </trkpt>
      <trkpt lat="42.74837" lon="1.86045">
        <ele>1519</ele>
        <time>2024-06-30T07:30:37Z</time>
      </trkpt>
      <trkpt lat="42.74834" lon="1.86046">
        <ele>1519.4</ele>
        <time>2024-06-30T07:30:38Z</time>
      </trkpt>
      <trkpt lat="42.74832" lon="1.86047">
        <ele>1519.6</ele>
        <time>2024-06-30T07:30:39Z</time>
      </trkpt>
      <trkpt lat="42.74831" lon="1.86047">
        <ele>1520</ele>
        <time>2024-06-30T07:30:40Z</time>
      </trkpt>
      <trkpt lat="42.74828" lon="1.86049">
        <ele>1520.4</ele>
        <time>2024-06-30T07:30:41Z</time>
      </trkpt>
      <trkpt lat="42.74825" lon="1.86052">
        <ele>1520.8</ele>
        <time>2024-06-30T07:30:42Z</time>
      </trkpt>
      <trkpt lat="42.74823" lon="1.86053">
        <ele>1521.4</ele>
        <time>2024-06-30T07:30:43Z</time>
      </trkpt>
      <trkpt lat="42.74822" lon="1.86055">
        <ele>1521.6</ele>
        <time>2024-06-30T07:30:44Z</time>
      </trkpt>
      <trkpt lat="42.7482" lon="1.86056">
        <ele>1521.8</ele>
        <time>2024-06-30T07:30:45Z</time>
      </trkpt>
      <trkpt lat="42.74819" lon="1.86056">
        <ele>1522</ele>
        <time>2024-06-30T07:30:46Z</time>
      </trkpt>
      <trkpt lat="42.74818" lon="1.86056">
        <ele>1522.2</ele>
        <time>2024-06-30T07:30:47Z</time>
      </trkpt>
      <trkpt lat="42.74817" lon="1.86055">
        <ele>1522.4</ele>
        <time>2024-06-30T07:30:48Z</time>
      </trkpt>
      <trkpt lat="42.74815" lon="1.86054">
        <ele>1522.6</ele>
        <time>2024-06-30T07:30:49Z</time>
      </trkpt>
      <trkpt lat="42.74813" lon="1.86053">
        <ele>1523</ele>
        <time>2024-06-30T07:30:50Z</time>
      </trkpt>
      <trkpt lat="42.74812" lon="1.86051">
        <ele>1523.4</ele>
        <time>2024-06-30T07:30:51Z</time>
      </trkpt>
      <trkpt lat="42.7481" lon="1.86049">
        <ele>1523.6</ele>
        <time>2024-06-30T07:30:52Z</time>
      </trkpt>
      <trkpt lat="42.74809" lon="1.86047">
        <ele>1523.8</ele>
        <time>2024-06-30T07:30:53Z</time>
      </trkpt>
      <trkpt lat="42.74807" lon="1.86045">
        <ele>1524</ele>
        <time>2024-06-30T07:30:54Z</time>
      </trkpt>
      <trkpt lat="42.74805" lon="1.86043">
        <ele>1524.4</ele>
        <time>2024-06-30T07:30:55Z</time>
      </trkpt>
      <trkpt lat="42.74804" lon="1.86041">
        <ele>1524.8</ele>
        <time>2024-06-30T07:30:56Z</time>
      </trkpt>
      <trkpt lat="42.74802" lon="1.86039">
        <ele>1525</ele>
        <time>2024-06-30T07:30:57Z</time>
      </trkpt>
      <trkpt lat="42.74801" lon="1.86037">
        <ele>1525.2</ele>
        <time>2024-06-30T07:30:58Z</time>
      </trkpt>
      <trkpt lat="42.74799" lon="1.86035">
        <ele>1525.6</ele>
        <time>2024-06-30T07:30:59Z</time>
      </trkpt>
      <trkpt lat="42.74797" lon="1.86033">
        <ele>1526</ele>
        <time>2024-06-30T07:31:00Z</time>
      </trkpt>
      <trkpt lat="42.74796" lon="1.86031">
        <ele>1526.2</ele>
        <time>2024-06-30T07:31:01Z</time>
      </trkpt>
      <trkpt lat="42.74794" lon="1.86028">
        <ele>1526.2</ele>
        <time>2024-06-30T07:31:02Z</time>
      </trkpt>
      <trkpt lat="42.74792" lon="1.86027">
        <ele>1526.6</ele>
        <time>2024-06-30T07:31:03Z</time>
      </trkpt>
      <trkpt lat="42.7479" lon="1.86025">
        <ele>1526.6</ele>
        <time>2024-06-30T07:31:04Z</time>
      </trkpt>
      <trkpt lat="42.74788" lon="1.86022">
        <ele>1526.8</ele>
        <time>2024-06-30T07:31:05Z</time>
      </trkpt>
      <trkpt lat="42.74787" lon="1.8602">
        <ele>1527</ele>
        <time>2024-06-30T07:31:06Z</time>
      </trkpt>
      <trkpt lat="42.74785" lon="1.86017">
        <ele>1527.6</ele>
        <time>2024-06-30T07:31:07Z</time>
      </trkpt>
      <trkpt lat="42.74784" lon="1.86015">
        <ele>1527.6</ele>
        <time>2024-06-30T07:31:08Z</time>
      </trkpt>
      <trkpt lat="42.74783" lon="1.86013">
        <ele>1528</ele>
        <time>2024-06-30T07:31:09Z</time>
      </trkpt>
      <trkpt lat="42.74781" lon="1.8601">
        <ele>1528.2</ele>
        <time>2024-06-30T07:31:10Z</time>
      </trkpt>
      <trkpt lat="42.74778" lon="1.86007">
        <ele>1528.8</ele>
        <time>2024-06-30T07:31:11Z</time>
      </trkpt>
      <trkpt lat="42.74775" lon="1.86004">
        <ele>1529.2</ele>
        <time>2024-06-30T07:31:12Z</time>
      </trkpt>
      <trkpt lat="42.74772" lon="1.86001">
        <ele>1529.2</ele>
        <time>2024-06-30T07:31:13Z</time>
      </trkpt>
      <trkpt lat="42.74769" lon="1.85997">
        <ele>1529.4</ele>
        <time>2024-06-30T07:31:14Z</time>
      </trkpt>
      <trkpt lat="42.74767" lon="1.85994">
        <ele>1529.4</ele>
        <time>2024-06-30T07:31:15Z</time>
      </trkpt>
      <trkpt lat="42.74764" lon="1.85991">
        <ele>1529.6</ele>
        <time>2024-06-30T07:31:16Z</time>
      </trkpt>
      <trkpt lat="42.74761" lon="1.85987">
        <ele>1529.8</ele>
        <time>2024-06-30T07:31:17Z</time>
      </trkpt>
      <trkpt lat="42.74757" lon="1.85983">
        <ele>1529.8</ele>
        <time>2024-06-30T07:31:18Z</time>
      </trkpt>
      <trkpt lat="42.74752" lon="1.85982">
        <ele>1529.8</ele>
        <time>2024-06-30T07:31:19Z</time>
      </trkpt>
      <trkpt lat="42.7475" lon="1.85981">
        <ele>1530</ele>
        <time>2024-06-30T07:31:20Z</time>
      </trkpt>
      <trkpt lat="42.74746" lon="1.85979">
        <ele>1530</ele>
        <time>2024-06-30T07:31:21Z</time>
      </trkpt>
      <trkpt lat="42.74743" lon="1.85976">
        <ele>1530</ele>
        <time>2024-06-30T07:31:22Z</time>
      </trkpt>
      <trkpt lat="42.7474" lon="1.85975">
        <ele>1530.2</ele>
        <time>2024-06-30T07:31:23Z</time>
      </trkpt>
      <trkpt lat="42.74739" lon="1.85975">
        <ele>1530.4</ele>
        <time>2024-06-30T07:31:24Z</time>
      </trkpt>
      <trkpt lat="42.74737" lon="1.85974">
        <ele>1530.8</ele>
        <time>2024-06-30T07:31:25Z</time>
      </trkpt>
      <trkpt lat="42.74734" lon="1.85974">
        <ele>1531</ele>
        <time>2024-06-30T07:31:26Z</time>
      </trkpt>
      <trkpt lat="42.74731" lon="1.85973">
        <ele>1531.2</ele>
        <time>2024-06-30T07:31:27Z</time>
      </trkpt>
      <trkpt lat="42.74728" lon="1.85972">
        <ele>1531.2</ele>
        <time>2024-06-30T07:31:28Z</time>
      </trkpt>
      <trkpt lat="42.74726" lon="1.85972">
        <ele>1531.4</ele>
        <time>2024-06-30T07:31:29Z</time>
      </trkpt>
      <trkpt lat="42.74725" lon="1.85972">
        <ele>1531.6</ele>
        <time>2024-06-30T07:31:30Z</time>
      </trkpt>
      <trkpt lat="42.74723" lon="1.85972">
        <ele>1531.8</ele>
        <time>2024-06-30T07:31:31Z</time>
      </trkpt>
      <trkpt lat="42.74721" lon="1.85972">
        <ele>1531.8</ele>
        <time>2024-06-30T07:31:32Z</time>
      </trkpt>
      <trkpt lat="42.74718" lon="1.85971">
        <ele>1531.8</ele>
        <time>2024-06-30T07:31:33Z</time>
      </trkpt>
      <trkpt lat="42.74716" lon="1.8597">
        <ele>1532</ele>
        <time>2024-06-30T07:31:34Z</time>
      </trkpt>
      <trkpt lat="42.74713" lon="1.8597">
        <ele>1532</ele>
        <time>2024-06-30T07:31:35Z</time>
      </trkpt>
      <trkpt lat="42.74711" lon="1.85969">
        <ele>1532.2</ele>
        <time>2024-06-30T07:31:36Z</time>
      </trkpt>
      <trkpt lat="42.74708" lon="1.85968">
        <ele>1532.4</ele>
        <time>2024-06-30T07:31:37Z</time>
      </trkpt>
      <trkpt lat="42.74707" lon="1.85969">
        <ele>1532.6</ele>
        <time>2024-06-30T07:31:38Z</time>
      </trkpt>
      <trkpt lat="42.74706" lon="1.85969">
        <ele>1532.6</ele>
        <time>2024-06-30T07:31:39Z</time>
      </trkpt>
      <trkpt lat="42.74705" lon="1.85969">
        <ele>1532.8</ele>
        <time>2024-06-30T07:31:40Z</time>
      </trkpt>
      <trkpt lat="42.74702" lon="1.85969">
        <ele>1532.8</ele>
        <time>2024-06-30T07:31:41Z</time>
      </trkpt>
      <trkpt lat="42.74702" lon="1.85969">
        <ele>1533</ele>
        <time>2024-06-30T07:31:42Z</time>
      </trkpt>
      <trkpt lat="42.747" lon="1.85968">
        <ele>1533.4</ele>
        <time>2024-06-30T07:31:43Z</time>
      </trkpt>
      <trkpt lat="42.74699" lon="1.85969">
        <ele>1533.6</ele>
        <time>2024-06-30T07:31:44Z</time>
      </trkpt>
      <trkpt lat="42.74697" lon="1.8597">
        <ele>1534.2</ele>
        <time>2024-06-30T07:31:45Z</time>
      </trkpt>
      <trkpt lat="42.74695" lon="1.85971">
        <ele>1534.4</ele>
        <time>2024-06-30T07:31:46Z</time>
      </trkpt>
      <trkpt lat="42.74695" lon="1.85973">
        <ele>1534.6</ele>
        <time>2024-06-30T07:31:47Z</time>
      </trkpt>
      <trkpt lat="42.74696" lon="1.85974">
        <ele>1534.8</ele>
        <time>2024-06-30T07:31:48Z</time>
      </trkpt>
      <trkpt lat="42.74696" lon="1.85975">
        <ele>1535.4</ele>
        <time>2024-06-30T07:31:49Z</time>
      </trkpt>
      <trkpt lat="42.74696" lon="1.85976">
        <ele>1535.6</ele>
        <time>2024-06-30T07:31:50Z</time>
      </trkpt>
      <trkpt lat="42.74697" lon="1.85976">
        <ele>1535.8</ele>
        <time>2024-06-30T07:31:51Z</time>
      </trkpt>
      <trkpt lat="42.74698" lon="1.85977">
        <ele>1536.2</ele>
        <time>2024-06-30T07:31:52Z</time>
      </trkpt>
      <trkpt lat="42.74699" lon="1.85978">
        <ele>1536.4</ele>
        <time>2024-06-30T07:31:53Z</time>
      </trkpt>
      <trkpt lat="42.74699" lon="1.85978">
        <ele>1536.8</ele>
        <time>2024-06-30T07:31:54Z</time>
      </trkpt>
      <trkpt lat="42.747" lon="1.85978">
        <ele>1537</ele>
        <time>2024-06-30T07:31:55Z</time>
      </trkpt>
      <trkpt lat="42.747" lon="1.85978">
        <ele>1537.2</ele>
        <time>2024-06-30T07:31:56Z</time>
      </trkpt>
      <trkpt lat="42.747" lon="1.85978">
        <ele>1537.4</ele>
        <time>2024-06-30T07:31:57Z</time>
      </trkpt>
      <trkpt lat="42.747" lon="1.85978">
        <ele>1537.8</ele>
        <time>2024-06-30T07:31:58Z</time>
      </trkpt>
      <trkpt lat="42.74701" lon="1.85978">
        <ele>1538.4</ele>
        <time>2024-06-30T07:31:59Z</time>
      </trkpt>
      <trkpt lat="42.74701" lon="1.85978">
        <ele>1538.4</ele>
        <time>2024-06-30T07:32:00Z</time>
      </trkpt>
      <trkpt lat="42.74701" lon="1.85978">
        <ele>1538.8</ele>
        <time>2024-06-30T07:32:01Z</time>
      </trkpt>
      <trkpt lat="42.74701" lon="1.85978">
        <ele>1539</ele>
        <time>2024-06-30T07:32:02Z</time>
      </trkpt>
      <trkpt lat="42.74701" lon="1.85978">
        <ele>1539.4</ele>
        <time>2024-06-30T07:32:04Z</time>
      </trkpt>
      <trkpt lat="42.74713" lon="1.85991">
        <ele>1542.6</ele>
        <time>2024-06-30T07:32:16Z</time>
      </trkpt>
      <trkpt lat="42.74716" lon="1.85993">
        <ele>1543.2</ele>
        <time>2024-06-30T07:32:17Z</time>
      </trkpt>
      <trkpt lat="42.74718" lon="1.85996">
        <ele>1543.6</ele>
        <time>2024-06-30T07:32:18Z</time>
      </trkpt>
      <trkpt lat="42.74721" lon="1.85999">
        <ele>1543.8</ele>
        <time>2024-06-30T07:32:19Z</time>
      </trkpt>
      <trkpt lat="42.74722" lon="1.86">
        <ele>1544</ele>
        <time>2024-06-30T07:32:20Z</time>
      </trkpt>
      <trkpt lat="42.74723" lon="1.86002">
        <ele>1544.4</ele>
        <time>2024-06-30T07:32:21Z</time>
      </trkpt>
      <trkpt lat="42.74725" lon="1.86004">
        <ele>1544.8</ele>
        <time>2024-06-30T07:32:22Z</time>
      </trkpt>
      <trkpt lat="42.74726" lon="1.86005">
        <ele>1545.6</ele>
        <time>2024-06-30T07:32:23Z</time>
      </trkpt>
      <trkpt lat="42.74728" lon="1.86008">
        <ele>1545.8</ele>
        <time>2024-06-30T07:32:24Z</time>
      </trkpt>
      <trkpt lat="42.7473" lon="1.86011">
        <ele>1546.2</ele>
        <time>2024-06-30T07:32:25Z</time>
      </trkpt>
      <trkpt lat="42.74731" lon="1.86014">
        <ele>1546.6</ele>
        <time>2024-06-30T07:32:26Z</time>
      </trkpt>
      <trkpt lat="42.74733" lon="1.86017">
        <ele>1546.8</ele>
        <time>2024-06-30T07:32:27Z</time>
      </trkpt>
      <trkpt lat="42.74734" lon="1.8602">
        <ele>1547.2</ele>
        <time>2024-06-30T07:32:28Z</time>
      </trkpt>
      <trkpt lat="42.74736" lon="1.86024">
        <ele>1547.4</ele>
        <time>2024-06-30T07:32:29Z</time>
      </trkpt>
      <trkpt lat="42.74737" lon="1.86028">
        <ele>1547.8</ele>
        <time>2024-06-30T07:32:30Z</time>
      </trkpt>
      <trkpt lat="42.74739" lon="1.86031">
        <ele>1548</ele>
        <time>2024-06-30T07:32:31Z</time>
      </trkpt>
      <trkpt lat="42.7474" lon="1.86034">
        <ele>1548.2</ele>
        <time>2024-06-30T07:32:32Z</time>
      </trkpt>
      <trkpt lat="42.74741" lon="1.86036">
        <ele>1548.4</ele>
        <time>2024-06-30T07:32:33Z</time>
      </trkpt>
      <trkpt lat="42.74742" lon="1.86037">
        <ele>1549</ele>
        <time>2024-06-30T07:32:34Z</time>
      </trkpt>
      <trkpt lat="42.74743" lon="1.86039">
        <ele>1549.2</ele>
        <time>2024-06-30T07:32:35Z</time>
      </trkpt>
      <trkpt lat="42.74745" lon="1.8604">
        <ele>1549.6</ele>
        <time>2024-06-30T07:32:36Z</time>
      </trkpt>
      <trkpt lat="42.74746" lon="1.86041">
        <ele>1550.2</ele>
        <time>2024-06-30T07:32:37Z</time>
      </trkpt>
      <trkpt lat="42.74747" lon="1.86044">
        <ele>1550.4</ele>
        <time>2024-06-30T07:32:38Z</time>
      </trkpt>
      <trkpt lat="42.74747" lon="1.86046">
        <ele>1550.8</ele>
        <time>2024-06-30T07:32:39Z</time>
      </trkpt>
      <trkpt lat="42.74747" lon="1.86047">
        <ele>1551</ele>
        <time>2024-06-30T07:32:40Z</time>
      </trkpt>
      <trkpt lat="42.74749" lon="1.86049">
        <ele>1551.4</ele>
        <time>2024-06-30T07:32:41Z</time>
      </trkpt>
      <trkpt lat="42.7475" lon="1.86052">
        <ele>1551.6</ele>
        <time>2024-06-30T07:32:42Z</time>
      </trkpt>
      <trkpt lat="42.74751" lon="1.86054">
        <ele>1552</ele>
        <time>2024-06-30T07:32:43Z</time>
      </trkpt>
      <trkpt lat="42.74752" lon="1.86056">
        <ele>1552.2</ele>
        <time>2024-06-30T07:32:44Z</time>
      </trkpt>
      <trkpt lat="42.74753" lon="1.86058">
        <ele>1552.2</ele>
        <time>2024-06-30T07:32:45Z</time>
      </trkpt>
      <trkpt lat="42.74753" lon="1.86059">
        <ele>1552.4</ele>
        <time>2024-06-30T07:32:46Z</time>
      </trkpt>
      <trkpt lat="42.74754" lon="1.86061">
        <ele>1552.4</ele>
        <time>2024-06-30T07:32:47Z</time>
      </trkpt>
      <trkpt lat="42.74756" lon="1.86064">
        <ele>1552.6</ele>
        <time>2024-06-30T07:32:48Z</time>
      </trkpt>
      <trkpt lat="42.74757" lon="1.86066">
        <ele>1552.6</ele>
        <time>2024-06-30T07:32:49Z</time>
      </trkpt>
      <trkpt lat="42.74759" lon="1.86069">
        <ele>1552.8</ele>
        <time>2024-06-30T07:32:50Z</time>
      </trkpt>
      <trkpt lat="42.7476" lon="1.86072">
        <ele>1552.8</ele>
        <time>2024-06-30T07:32:51Z</time>
      </trkpt>
      <trkpt lat="42.74762" lon="1.86076">
        <ele>1553</ele>
        <time>2024-06-30T07:32:52Z</time>
      </trkpt>
      <trkpt lat="42.74763" lon="1.86079">
        <ele>1553.2</ele>
        <time>2024-06-30T07:32:53Z</time>
      </trkpt>
      <trkpt lat="42.74765" lon="1.86082">
        <ele>1553.2</ele>
        <time>2024-06-30T07:32:54Z</time>
      </trkpt>
      <trkpt lat="42.74765" lon="1.86084">
        <ele>1553.4</ele>
        <time>2024-06-30T07:32:55Z</time>
      </trkpt>
      <trkpt lat="42.74767" lon="1.86088">
        <ele>1553.6</ele>
        <time>2024-06-30T07:32:56Z</time>
      </trkpt>
      <trkpt lat="42.74768" lon="1.8609">
        <ele>1553.8</ele>
        <time>2024-06-30T07:32:57Z</time>
      </trkpt>
      <trkpt lat="42.74769" lon="1.86094">
        <ele>1554.2</ele>
        <time>2024-06-30T07:32:58Z</time>
      </trkpt>
      <trkpt lat="42.74771" lon="1.86097">
        <ele>1554.4</ele>
        <time>2024-06-30T07:32:59Z</time>
      </trkpt>
      <trkpt lat="42.74773" lon="1.86101">
        <ele>1554.6</ele>
        <time>2024-06-30T07:33:00Z</time>
      </trkpt>
      <trkpt lat="42.74774" lon="1.86105">
        <ele>1554.8</ele>
        <time>2024-06-30T07:33:01Z</time>
      </trkpt>
      <trkpt lat="42.74775" lon="1.86107">
        <ele>1555</ele>
        <time>2024-06-30T07:33:02Z</time>
      </trkpt>
      <trkpt lat="42.74776" lon="1.8611">
        <ele>1555.2</ele>
        <time>2024-06-30T07:33:03Z</time>
      </trkpt>
      <trkpt lat="42.74776" lon="1.86112">
        <ele>1555.4</ele>
        <time>2024-06-30T07:33:04Z</time>
      </trkpt>
      <trkpt lat="42.74777" lon="1.86114">
        <ele>1555.4</ele>
        <time>2024-06-30T07:33:05Z</time>
      </trkpt>
      <trkpt lat="42.74778" lon="1.86116">
        <ele>1555.8</ele>
        <time>2024-06-30T07:33:06Z</time>
      </trkpt>
      <trkpt lat="42.74777" lon="1.86117">
        <ele>1556</ele>
        <time>2024-06-30T07:33:07Z</time>
      </trkpt>
      <trkpt lat="42.74776" lon="1.86118">
        <ele>1556</ele>
        <time>2024-06-30T07:33:08Z</time>
      </trkpt>
      <trkpt lat="42.74776" lon="1.86118">
        <ele>1556.2</ele>
        <time>2024-06-30T07:33:09Z</time>
      </trkpt>
      <trkpt lat="42.74775" lon="1.86118">
        <ele>1556.4</ele>
        <time>2024-06-30T07:33:10Z</time>
      </trkpt>
      <trkpt lat="42.74776" lon="1.86119">
        <ele>1556.4</ele>
        <time>2024-06-30T07:33:11Z</time>
      </trkpt>
      <trkpt lat="42.74776" lon="1.86118">
        <ele>1556.8</ele>
        <time>2024-06-30T07:33:12Z</time>
      </trkpt>
      <trkpt lat="42.74775" lon="1.86116">
        <ele>1556.8</ele>
        <time>2024-06-30T07:33:13Z</time>
      </trkpt>
      <trkpt lat="42.74774" lon="1.86117">
        <ele>1557.2</ele>
        <time>2024-06-30T07:33:14Z</time>
      </trkpt>
      <trkpt lat="42.74773" lon="1.86115">
        <ele>1557.6</ele>
        <time>2024-06-30T07:33:15Z</time>
      </trkpt>
      <trkpt lat="42.74772" lon="1.86115">
        <ele>1557.8</ele>
        <time>2024-06-30T07:33:16Z</time>
      </trkpt>
      <trkpt lat="42.74771" lon="1.86114">
        <ele>1558.4</ele>
        <time>2024-06-30T07:33:17Z</time>
      </trkpt>
      <trkpt lat="42.7477" lon="1.86113">
        <ele>1558.6</ele>
        <time>2024-06-30T07:33:18Z</time>
      </trkpt>
      <trkpt lat="42.74769" lon="1.86112">
        <ele>1559</ele>
        <time>2024-06-30T07:33:19Z</time>
      </trkpt>
      <trkpt lat="42.74769" lon="1.86112">
        <ele>1559.2</ele>
        <time>2024-06-30T07:33:20Z</time>
      </trkpt>
      <trkpt lat="42.74769" lon="1.86112">
        <ele>1559.4</ele>
        <time>2024-06-30T07:33:21Z</time>
      </trkpt>
      <trkpt lat="42.74769" lon="1.86112">
        <ele>1559.4</ele>
        <time>2024-06-30T07:33:22Z</time>
      </trkpt>
      <trkpt lat="42.74737" lon="1.861">
        <ele>1569.8</ele>
        <time>2024-06-30T07:34:11Z</time>
      </trkpt>
      <trkpt lat="42.74739" lon="1.86104">
        <ele>1570</ele>
        <time>2024-06-30T07:34:12Z</time>
      </trkpt>
      <trkpt lat="42.7474" lon="1.86107">
        <ele>1570.2</ele>
        <time>2024-06-30T07:34:13Z</time>
      </trkpt>
      <trkpt lat="42.74741" lon="1.8611">
        <ele>1570.4</ele>
        <time>2024-06-30T07:34:14Z</time>
      </trkpt>
      <trkpt lat="42.74743" lon="1.86113">
        <ele>1570.6</ele>
        <time>2024-06-30T07:34:15Z</time>
      </trkpt>
      <trkpt lat="42.74745" lon="1.86116">
        <ele>1570.8</ele>
        <time>2024-06-30T07:34:16Z</time>
      </trkpt>
      <trkpt lat="42.74746" lon="1.86119">
        <ele>1571</ele>
        <time>2024-06-30T07:34:17Z</time>
      </trkpt>
      <trkpt lat="42.74747" lon="1.86121">
        <ele>1571.2</ele>
        <time>2024-06-30T07:34:18Z</time>
      </trkpt>
      <trkpt lat="42.74748" lon="1.86124">
        <ele>1571.2</ele>
        <time>2024-06-30T07:34:19Z</time>
      </trkpt>
      <trkpt lat="42.74749" lon="1.86127">
        <ele>1571.4</ele>
        <time>2024-06-30T07:34:20Z</time>
      </trkpt>
      <trkpt lat="42.7475" lon="1.86129">
        <ele>1571.4</ele>
        <time>2024-06-30T07:34:21Z</time>
      </trkpt>
      <trkpt lat="42.74751" lon="1.86133">
        <ele>1571.4</ele>
        <time>2024-06-30T07:34:22Z</time>
      </trkpt>
      <trkpt lat="42.74752" lon="1.86136">
        <ele>1571.6</ele>
        <time>2024-06-30T07:34:23Z</time>
      </trkpt>
      <trkpt lat="42.74753" lon="1.86139">
        <ele>1572</ele>
        <time>2024-06-30T07:34:24Z</time>
      </trkpt>
      <trkpt lat="42.74754" lon="1.86142">
        <ele>1572.4</ele>
        <time>2024-06-30T07:34:25Z</time>
      </trkpt>
      <trkpt lat="42.74755" lon="1.86145">
        <ele>1572.8</ele>
        <time>2024-06-30T07:34:26Z</time>
      </trkpt>
      <trkpt lat="42.74755" lon="1.86147">
        <ele>1573.4</ele>
        <time>2024-06-30T07:34:27Z</time>
      </trkpt>
      <trkpt lat="42.74755" lon="1.86149">
        <ele>1573.6</ele>
        <time>2024-06-30T07:34:28Z</time>
      </trkpt>
      <trkpt lat="42.74756" lon="1.86152">
        <ele>1574</ele>
        <time>2024-06-30T07:34:29Z</time>
      </trkpt>
      <trkpt lat="42.74756" lon="1.86155">
        <ele>1574.2</ele>
        <time>2024-06-30T07:34:30Z</time>
      </trkpt>
      <trkpt lat="42.74757" lon="1.86159">
        <ele>1574.8</ele>
        <time>2024-06-30T07:34:31Z</time>
      </trkpt>
      <trkpt lat="42.74758" lon="1.86161">
        <ele>1575.2</ele>
        <time>2024-06-30T07:34:32Z</time>
      </trkpt>
      <trkpt lat="42.74759" lon="1.86163">
        <ele>1576</ele>
        <time>2024-06-30T07:34:33Z</time>
      </trkpt>
      <trkpt lat="42.74759" lon="1.86164">
        <ele>1576.2</ele>
        <time>2024-06-30T07:34:34Z</time>
      </trkpt>
      <trkpt lat="42.7476" lon="1.86166">
        <ele>1576.4</ele>
        <time>2024-06-30T07:34:35Z</time>
      </trkpt>
      <trkpt lat="42.74761" lon="1.86168">
        <ele>1576.6</ele>
        <time>2024-06-30T07:34:36Z</time>
      </trkpt>
      <trkpt lat="42.74762" lon="1.86169">
        <ele>1577.2</ele>
        <time>2024-06-30T07:34:37Z</time>
      </trkpt>
      <trkpt lat="42.74764" lon="1.86171">
        <ele>1577.6</ele>
        <time>2024-06-30T07:34:38Z</time>
      </trkpt>
      <trkpt lat="42.74766" lon="1.86172">
        <ele>1578</ele>
        <time>2024-06-30T07:34:39Z</time>
      </trkpt>
      <trkpt lat="42.74766" lon="1.86175">
        <ele>1578.4</ele>
        <time>2024-06-30T07:34:40Z</time>
      </trkpt>
      <trkpt lat="42.74767" lon="1.86178">
        <ele>1578.6</ele>
        <time>2024-06-30T07:34:41Z</time>
      </trkpt>
      <trkpt lat="42.74768" lon="1.8618">
        <ele>1578.8</ele>
        <time>2024-06-30T07:34:42Z</time>
      </trkpt>
      <trkpt lat="42.74767" lon="1.86182">
        <ele>1578.8</ele>
        <time>2024-06-30T07:34:43Z</time>
      </trkpt>
      <trkpt lat="42.74767" lon="1.86184">
        <ele>1579.4</ele>
        <time>2024-06-30T07:34:44Z</time>
      </trkpt>
      <trkpt lat="42.74768" lon="1.86186">
        <ele>1579.8</ele>
        <time>2024-06-30T07:34:45Z</time>
      </trkpt>
      <trkpt lat="42.74769" lon="1.86189">
        <ele>1580.4</ele>
        <time>2024-06-30T07:34:46Z</time>
      </trkpt>
      <trkpt lat="42.7477" lon="1.86191">
        <ele>1580.8</ele>
        <time>2024-06-30T07:34:47Z</time>
      </trkpt>
      <trkpt lat="42.7477" lon="1.86193">
        <ele>1581</ele>
        <time>2024-06-30T07:34:48Z</time>
      </trkpt>
      <trkpt lat="42.74772" lon="1.86194">
        <ele>1581.4</ele>
        <time>2024-06-30T07:34:49Z</time>
      </trkpt>
      <trkpt lat="42.74773" lon="1.86195">
        <ele>1581.8</ele>
        <time>2024-06-30T07:34:50Z</time>
      </trkpt>
      <trkpt lat="42.74775" lon="1.86196">
        <ele>1582.2</ele>
        <time>2024-06-30T07:34:51Z</time>
      </trkpt>
      <trkpt lat="42.74777" lon="1.86197">
        <ele>1582.4</ele>
        <time>2024-06-30T07:34:52Z</time>
      </trkpt>
      <trkpt lat="42.74778" lon="1.86199">
        <ele>1582.8</ele>
        <time>2024-06-30T07:34:53Z</time>
      </trkpt>
      <trkpt lat="42.74779" lon="1.862">
        <ele>1583</ele>
        <time>2024-06-30T07:34:54Z</time>
      </trkpt>
      <trkpt lat="42.74781" lon="1.86201">
        <ele>1583.6</ele>
        <time>2024-06-30T07:34:55Z</time>
      </trkpt>
      <trkpt lat="42.74782" lon="1.86202">
        <ele>1584</ele>
        <time>2024-06-30T07:34:56Z</time>
      </trkpt>
      <trkpt lat="42.74783" lon="1.86203">
        <ele>1584.2</ele>
        <time>2024-06-30T07:34:57Z</time>
      </trkpt>
      <trkpt lat="42.74784" lon="1.86203">
        <ele>1584.6</ele>
        <time>2024-06-30T07:34:58Z</time>
      </trkpt>
      <trkpt lat="42.74786" lon="1.86204">
        <ele>1585</ele>
        <time>2024-06-30T07:34:59Z</time>
      </trkpt>
      <trkpt lat="42.74788" lon="1.86205">
        <ele>1585.4</ele>
        <time>2024-06-30T07:35:00Z</time>
      </trkpt>
      <trkpt lat="42.74789" lon="1.86206">
        <ele>1585.8</ele>
        <time>2024-06-30T07:35:01Z</time>
      </trkpt>
      <trkpt lat="42.7479" lon="1.86207">
        <ele>1586.2</ele>
        <time>2024-06-30T07:35:02Z</time>
      </trkpt>
      <trkpt lat="42.74791" lon="1.86209">
        <ele>1586.4</ele>
        <time>2024-06-30T07:35:03Z</time>
      </trkpt>
      <trkpt lat="42.74791" lon="1.86211">
        <ele>1586.6</ele>
        <time>2024-06-30T07:35:04Z</time>
      </trkpt>
      <trkpt lat="42.74792" lon="1.86212">
        <ele>1587.2</ele>
        <time>2024-06-30T07:35:05Z</time>
      </trkpt>
      <trkpt lat="42.74793" lon="1.86212">
        <ele>1587.4</ele>
        <time>2024-06-30T07:35:06Z</time>
      </trkpt>
      <trkpt lat="42.74795" lon="1.86212">
        <ele>1588</ele>
        <time>2024-06-30T07:35:07Z</time>
      </trkpt>
      <trkpt lat="42.74797" lon="1.86213">
        <ele>1588</ele>
        <time>2024-06-30T07:35:08Z</time>
      </trkpt>
      <trkpt lat="42.74798" lon="1.86213">
        <ele>1588.4</ele>
        <time>2024-06-30T07:35:09Z</time>
      </trkpt>
      <trkpt lat="42.748" lon="1.86213">
        <ele>1588.6</ele>
        <time>2024-06-30T07:35:10Z</time>
      </trkpt>
      <trkpt lat="42.74802" lon="1.86214">
        <ele>1588.8</ele>
        <time>2024-06-30T07:35:11Z</time>
      </trkpt>
      <trkpt lat="42.74803" lon="1.86214">
        <ele>1588.8</ele>
        <time>2024-06-30T07:35:12Z</time>
      </trkpt>
      <trkpt lat="42.74803" lon="1.86213">
        <ele>1589</ele>
        <time>2024-06-30T07:35:13Z</time>
      </trkpt>
      <trkpt lat="42.74803" lon="1.86214">
        <ele>1589</ele>
        <time>2024-06-30T07:35:14Z</time>
      </trkpt>
      <trkpt lat="42.74803" lon="1.86214">
        <ele>1589.2</ele>
        <time>2024-06-30T07:35:15Z</time>
      </trkpt>
      <trkpt lat="42.74802" lon="1.86213">
        <ele>1589.2</ele>
        <time>2024-06-30T07:35:16Z</time>
      </trkpt>
      <trkpt lat="42.74801" lon="1.86213">
        <ele>1589.2</ele>
        <time>2024-06-30T07:35:17Z</time>
      </trkpt>
      <trkpt lat="42.748" lon="1.86213">
        <ele>1589.4</ele>
        <time>2024-06-30T07:35:18Z</time>
      </trkpt>
      <trkpt lat="42.74798" lon="1.86214">
        <ele>1589.4</ele>
        <time>2024-06-30T07:35:19Z</time>
      </trkpt>
      <trkpt lat="42.74797" lon="1.86214">
        <ele>1589.4</ele>
        <time>2024-06-30T07:35:20Z</time>
      </trkpt>
      <trkpt lat="42.74796" lon="1.86213">
        <ele>1589.4</ele>
        <time>2024-06-30T07:35:21Z</time>
      </trkpt>
      <trkpt lat="42.74795" lon="1.86213">
        <ele>1589.4</ele>
        <time>2024-06-30T07:35:22Z</time>
      </trkpt>
      <trkpt lat="42.74794" lon="1.86213">
        <ele>1589.4</ele>
        <time>2024-06-30T07:35:23Z</time>
      </trkpt>
      <trkpt lat="42.74792" lon="1.86213">
        <ele>1589.2</ele>
        <time>2024-06-30T07:35:24Z</time>
      </trkpt>
      <trkpt lat="42.74792" lon="1.86213">
        <ele>1589.2</ele>
        <time>2024-06-30T07:35:25Z</time>
      </trkpt>
      <trkpt lat="42.74792" lon="1.86213">
        <ele>1589</ele>
        <time>2024-06-30T07:35:27Z</time>
      </trkpt>
      <trkpt lat="42.74798" lon="1.86214">
        <ele>1589.2</ele>
        <time>2024-06-30T07:38:28Z</time>
      </trkpt>
      <trkpt lat="42.74799" lon="1.86214">
        <ele>1589.4</ele>
        <time>2024-06-30T07:38:29Z</time>
      </trkpt>
      <trkpt lat="42.74811" lon="1.86213">
        <ele>1589.4</ele>
        <time>2024-06-30T07:38:34Z</time>
      </trkpt>
      <trkpt lat="42.74813" lon="1.86213">
        <ele>1589.4</ele>
        <time>2024-06-30T07:38:35Z</time>
      </trkpt>
      <trkpt lat="42.74815" lon="1.86212">
        <ele>1589.6</ele>
        <time>2024-06-30T07:38:36Z</time>
      </trkpt>
      <trkpt lat="42.74821" lon="1.86212">
        <ele>1589.8</ele>
        <time>2024-06-30T07:38:39Z</time>
      </trkpt>
      <trkpt lat="42.74827" lon="1.86211">
        <ele>1590.2</ele>
        <time>2024-06-30T07:38:42Z</time>
      </trkpt>
      <trkpt lat="42.74832" lon="1.86211">
        <ele>1590.4</ele>
        <time>2024-06-30T07:38:44Z</time>
      </trkpt>
      <trkpt lat="42.74834" lon="1.86211">
        <ele>1590.4</ele>
        <time>2024-06-30T07:38:45Z</time>
      </trkpt>
      <trkpt lat="42.74836" lon="1.86211">
        <ele>1590.6</ele>
        <time>2024-06-30T07:38:46Z</time>
      </trkpt>
      <trkpt lat="42.74837" lon="1.86211">
        <ele>1590.6</ele>
        <time>2024-06-30T07:38:47Z</time>
      </trkpt>
      <trkpt lat="42.74839" lon="1.86212">
        <ele>1590.6</ele>
        <time>2024-06-30T07:38:48Z</time>
      </trkpt>
      <trkpt lat="42.74847" lon="1.86213">
        <ele>1591.2</ele>
        <time>2024-06-30T07:38:51Z</time>
      </trkpt>
      <trkpt lat="42.74849" lon="1.86213">
        <ele>1591.2</ele>
        <time>2024-06-30T07:38:52Z</time>
      </trkpt>
      <trkpt lat="42.74865" lon="1.86216">
        <ele>1592.2</ele>
        <time>2024-06-30T07:38:59Z</time>
      </trkpt>
      <trkpt lat="42.74867" lon="1.86217">
        <ele>1592.4</ele>
        <time>2024-06-30T07:39:00Z</time>
      </trkpt>
      <trkpt lat="42.7487" lon="1.86217">
        <ele>1592.6</ele>
        <time>2024-06-30T07:39:01Z</time>
      </trkpt>
      <trkpt lat="42.74872" lon="1.86218">
        <ele>1592.6</ele>
        <time>2024-06-30T07:39:02Z</time>
      </trkpt>
      <trkpt lat="42.74875" lon="1.86219">
        <ele>1592.8</ele>
        <time>2024-06-30T07:39:03Z</time>
      </trkpt>
      <trkpt lat="42.74878" lon="1.8622">
        <ele>1593</ele>
        <time>2024-06-30T07:39:04Z</time>
      </trkpt>
      <trkpt lat="42.74881" lon="1.8622">
        <ele>1593</ele>
        <time>2024-06-30T07:39:05Z</time>
      </trkpt>
      <trkpt lat="42.74883" lon="1.8622">
        <ele>1593.2</ele>
        <time>2024-06-30T07:39:06Z</time>
      </trkpt>
      <trkpt lat="42.74886" lon="1.86221">
        <ele>1593.2</ele>
        <time>2024-06-30T07:39:07Z</time>
      </trkpt>
      <trkpt lat="42.74888" lon="1.86221">
        <ele>1593.6</ele>
        <time>2024-06-30T07:39:08Z</time>
      </trkpt>
      <trkpt lat="42.74891" lon="1.86223">
        <ele>1593.8</ele>
        <time>2024-06-30T07:39:09Z</time>
      </trkpt>
      <trkpt lat="42.74894" lon="1.86224">
        <ele>1594</ele>
        <time>2024-06-30T07:39:10Z</time>
      </trkpt>
      <trkpt lat="42.74897" lon="1.86226">
        <ele>1594.2</ele>
        <time>2024-06-30T07:39:11Z</time>
      </trkpt>
      <trkpt lat="42.749" lon="1.86227">
        <ele>1594.2</ele>
        <time>2024-06-30T07:39:12Z</time>
      </trkpt>
      <trkpt lat="42.74903" lon="1.86227">
        <ele>1594.4</ele>
        <time>2024-06-30T07:39:13Z</time>
      </trkpt>
      <trkpt lat="42.74906" lon="1.86228">
        <ele>1594.4</ele>
        <time>2024-06-30T07:39:14Z</time>
      </trkpt>
      <trkpt lat="42.74909" lon="1.86229">
        <ele>1594.6</ele>
        <time>2024-06-30T07:39:15Z</time>
      </trkpt>
      <trkpt lat="42.74912" lon="1.8623">
        <ele>1594.6</ele>
        <time>2024-06-30T07:39:16Z</time>
      </trkpt>
      <trkpt lat="42.74915" lon="1.86233">
        <ele>1594.8</ele>
        <time>2024-06-30T07:39:17Z</time>
      </trkpt>
      <trkpt lat="42.74918" lon="1.86233">
        <ele>1594.8</ele>
        <time>2024-06-30T07:39:18Z</time>
      </trkpt>
      <trkpt lat="42.7492" lon="1.86234">
        <ele>1594.8</ele>
        <time>2024-06-30T07:39:19Z</time>
      </trkpt>
      <trkpt lat="42.74922" lon="1.86236">
        <ele>1595</ele>
        <time>2024-06-30T07:39:20Z</time>
      </trkpt>
      <trkpt lat="42.74925" lon="1.86238">
        <ele>1595</ele>
        <time>2024-06-30T07:39:21Z</time>
      </trkpt>
      <trkpt lat="42.74928" lon="1.8624">
        <ele>1595</ele>
        <time>2024-06-30T07:39:22Z</time>
      </trkpt>
      <trkpt lat="42.74931" lon="1.86243">
        <ele>1595</ele>
        <time>2024-06-30T07:39:23Z</time>
      </trkpt>
      <trkpt lat="42.74933" lon="1.86244">
        <ele>1595</ele>
        <time>2024-06-30T07:39:24Z</time>
      </trkpt>
      <trkpt lat="42.74935" lon="1.86246">
        <ele>1595.2</ele>
        <time>2024-06-30T07:39:25Z</time>
      </trkpt>
      <trkpt lat="42.74937" lon="1.86247">
        <ele>1595.4</ele>
        <time>2024-06-30T07:39:26Z</time>
      </trkpt>
      <trkpt lat="42.7494" lon="1.86249">
        <ele>1595.6</ele>
        <time>2024-06-30T07:39:27Z</time>
      </trkpt>
      <trkpt lat="42.74942" lon="1.86251">
        <ele>1595.6</ele>
        <time>2024-06-30T07:39:28Z</time>
      </trkpt>
      <trkpt lat="42.74945" lon="1.86253">
        <ele>1595.8</ele>
        <time>2024-06-30T07:39:29Z</time>
      </trkpt>
      <trkpt lat="42.74947" lon="1.86255">
        <ele>1595.8</ele>
        <time>2024-06-30T07:39:30Z</time>
      </trkpt>
      <trkpt lat="42.74949" lon="1.86257">
        <ele>1596</ele>
        <time>2024-06-30T07:39:31Z</time>
      </trkpt>
      <trkpt lat="42.74951" lon="1.86259">
        <ele>1596.2</ele>
        <time>2024-06-30T07:39:32Z</time>
      </trkpt>
      <trkpt lat="42.74954" lon="1.86262">
        <ele>1596.2</ele>
        <time>2024-06-30T07:39:33Z</time>
      </trkpt>
      <trkpt lat="42.74956" lon="1.86264">
        <ele>1596</ele>
        <time>2024-06-30T07:39:34Z</time>
      </trkpt>
      <trkpt lat="42.74957" lon="1.86266">
        <ele>1596.4</ele>
        <time>2024-06-30T07:39:35Z</time>
      </trkpt>
      <trkpt lat="42.74959" lon="1.86267">
        <ele>1596.6</ele>
        <time>2024-06-30T07:39:36Z</time>
      </trkpt>
      <trkpt lat="42.74962" lon="1.8627">
        <ele>1596.8</ele>
        <time>2024-06-30T07:39:37Z</time>
      </trkpt>
      <trkpt lat="42.74965" lon="1.86273">
        <ele>1596.8</ele>
        <time>2024-06-30T07:39:38Z</time>
      </trkpt>
      <trkpt lat="42.74966" lon="1.86274">
        <ele>1597</ele>
        <time>2024-06-30T07:39:39Z</time>
      </trkpt>
      <trkpt lat="42.74969" lon="1.86277">
        <ele>1597.4</ele>
        <time>2024-06-30T07:39:40Z</time>
      </trkpt>
      <trkpt lat="42.74971" lon="1.86279">
        <ele>1597.4</ele>
        <time>2024-06-30T07:39:41Z</time>
      </trkpt>
      <trkpt lat="42.74973" lon="1.86282">
        <ele>1597.6</ele>
        <time>2024-06-30T07:39:42Z</time>
      </trkpt>
      <trkpt lat="42.74975" lon="1.86284">
        <ele>1597.8</ele>
        <time>2024-06-30T07:39:43Z</time>
      </trkpt>
      <trkpt lat="42.74977" lon="1.86286">
        <ele>1598</ele>
        <time>2024-06-30T07:39:44Z</time>
      </trkpt>
      <trkpt lat="42.74979" lon="1.86288">
        <ele>1598.2</ele>
        <time>2024-06-30T07:39:45Z</time>
      </trkpt>
      <trkpt lat="42.74982" lon="1.86292">
        <ele>1598.4</ele>
        <time>2024-06-30T07:39:46Z</time>
      </trkpt>
      <trkpt lat="42.74985" lon="1.86296">
        <ele>1598.8</ele>
        <time>2024-06-30T07:39:47Z</time>
      </trkpt>
      <trkpt lat="42.74987" lon="1.86298">
        <ele>1599</ele>
        <time>2024-06-30T07:39:48Z</time>
      </trkpt>
      <trkpt lat="42.7499" lon="1.86301">
        <ele>1599.2</ele>
        <time>2024-06-30T07:39:49Z</time>
      </trkpt>
      <trkpt lat="42.74993" lon="1.86303">
        <ele>1599.4</ele>
        <time>2024-06-30T07:39:50Z</time>
      </trkpt>
      <trkpt lat="42.74997" lon="1.86306">
        <ele>1599.6</ele>
        <time>2024-06-30T07:39:51Z</time>
      </trkpt>
      <trkpt lat="42.75" lon="1.86309">
        <ele>1599.6</ele>
        <time>2024-06-30T07:39:52Z</time>
      </trkpt>
      <trkpt lat="42.75002" lon="1.86311">
        <ele>1599.6</ele>
        <time>2024-06-30T07:39:53Z</time>
      </trkpt>
      <trkpt lat="42.75005" lon="1.86313">
        <ele>1599.6</ele>
        <time>2024-06-30T07:39:54Z</time>
      </trkpt>
      <trkpt lat="42.75008" lon="1.86317">
        <ele>1599.6</ele>
        <time>2024-06-30T07:39:55Z</time>
      </trkpt>
      <trkpt lat="42.75012" lon="1.86322">
        <ele>1599.6</ele>
        <time>2024-06-30T07:39:56Z</time>
      </trkpt>
      <trkpt lat="42.75016" lon="1.86327">
        <ele>1599.6</ele>
        <time>2024-06-30T07:39:57Z</time>
      </trkpt>
      <trkpt lat="42.7502" lon="1.86334">
        <ele>1599.6</ele>
        <time>2024-06-30T07:39:58Z</time>
      </trkpt>
      <trkpt lat="42.75023" lon="1.86339">
        <ele>1599.4</ele>
        <time>2024-06-30T07:39:59Z</time>
      </trkpt>
      <trkpt lat="42.75028" lon="1.86347">
        <ele>1599.4</ele>
        <time>2024-06-30T07:40:00Z</time>
      </trkpt>
      <trkpt lat="42.75033" lon="1.86354">
        <ele>1599.2</ele>
        <time>2024-06-30T07:40:01Z</time>
      </trkpt>
      <trkpt lat="42.75038" lon="1.86362">
        <ele>1599.2</ele>
        <time>2024-06-30T07:40:02Z</time>
      </trkpt>
      <trkpt lat="42.75043" lon="1.86369">
        <ele>1598.8</ele>
        <time>2024-06-30T07:40:03Z</time>
      </trkpt>
      <trkpt lat="42.75046" lon="1.86375">
        <ele>1598.6</ele>
        <time>2024-06-30T07:40:04Z</time>
      </trkpt>
      <trkpt lat="42.75051" lon="1.86383">
        <ele>1598.2</ele>
        <time>2024-06-30T07:40:05Z</time>
      </trkpt>
      <trkpt lat="42.75056" lon="1.8639">
        <ele>1598.2</ele>
        <time>2024-06-30T07:40:06Z</time>
      </trkpt>
      <trkpt lat="42.7506" lon="1.86396">
        <ele>1598</ele>
        <time>2024-06-30T07:40:07Z</time>
      </trkpt>
      <trkpt lat="42.7507" lon="1.86415">
        <ele>1597.6</ele>
        <time>2024-06-30T07:40:10Z</time>
      </trkpt>
      <trkpt lat="42.75073" lon="1.86421">
        <ele>1597.2</ele>
        <time>2024-06-30T07:40:11Z</time>
      </trkpt>
      <trkpt lat="42.75082" lon="1.86433">
        <ele>1596.8</ele>
        <time>2024-06-30T07:40:13Z</time>
      </trkpt>
      <trkpt lat="42.75105" lon="1.86465">
        <ele>1595.8</ele>
        <time>2024-06-30T07:40:18Z</time>
      </trkpt>
      <trkpt lat="42.7511" lon="1.86472">
        <ele>1595.6</ele>
        <time>2024-06-30T07:40:19Z</time>
      </trkpt>
      <trkpt lat="42.75114" lon="1.86478">
        <ele>1595.2</ele>
        <time>2024-06-30T07:40:20Z</time>
      </trkpt>
      <trkpt lat="42.75126" lon="1.86497">
        <ele>1594.6</ele>
        <time>2024-06-30T07:40:23Z</time>
      </trkpt>
      <trkpt lat="42.75135" lon="1.86509">
        <ele>1594.4</ele>
        <time>2024-06-30T07:40:25Z</time>
      </trkpt>
      <trkpt lat="42.75139" lon="1.86515">
        <ele>1594.2</ele>
        <time>2024-06-30T07:40:26Z</time>
      </trkpt>
      <trkpt lat="42.75144" lon="1.86521">
        <ele>1594.2</ele>
        <time>2024-06-30T07:40:27Z</time>
      </trkpt>
      <trkpt lat="42.75148" lon="1.86526">
        <ele>1594</ele>
        <time>2024-06-30T07:40:28Z</time>
      </trkpt>
      <trkpt lat="42.75156" lon="1.86537">
        <ele>1593.8</ele>
        <time>2024-06-30T07:40:30Z</time>
      </trkpt>
      <trkpt lat="42.7516" lon="1.86543">
        <ele>1593.6</ele>
        <time>2024-06-30T07:40:31Z</time>
      </trkpt>
      <trkpt lat="42.75164" lon="1.86548">
        <ele>1593.4</ele>
        <time>2024-06-30T07:40:32Z</time>
      </trkpt>
      <trkpt lat="42.75168" lon="1.86554">
        <ele>1593.4</ele>
        <time>2024-06-30T07:40:33Z</time>
      </trkpt>
      <trkpt lat="42.75172" lon="1.86559">
        <ele>1593.2</ele>
        <time>2024-06-30T07:40:34Z</time>
      </trkpt>
      <trkpt lat="42.75177" lon="1.86565">
        <ele>1593.2</ele>
        <time>2024-06-30T07:40:35Z</time>
      </trkpt>
      <trkpt lat="42.7518" lon="1.8657">
        <ele>1593</ele>
        <time>2024-06-30T07:40:36Z</time>
      </trkpt>
      <trkpt lat="42.75187" lon="1.86579">
        <ele>1593</ele>
        <time>2024-06-30T07:40:38Z</time>
      </trkpt>
      <trkpt lat="42.75192" lon="1.86585">
        <ele>1593</ele>
        <time>2024-06-30T07:40:39Z</time>
      </trkpt>
      <trkpt lat="42.75196" lon="1.8659">
        <ele>1593</ele>
        <time>2024-06-30T07:40:40Z</time>
      </trkpt>
      <trkpt lat="42.752" lon="1.86595">
        <ele>1593</ele>
        <time>2024-06-30T07:40:41Z</time>
      </trkpt>
      <trkpt lat="42.75204" lon="1.86599">
        <ele>1592.8</ele>
        <time>2024-06-30T07:40:42Z</time>
      </trkpt>
      <trkpt lat="42.75208" lon="1.86605">
        <ele>1592.4</ele>
        <time>2024-06-30T07:40:43Z</time>
      </trkpt>
      <trkpt lat="42.7522" lon="1.86619">
        <ele>1591.6</ele>
        <time>2024-06-30T07:40:46Z</time>
      </trkpt>
      <trkpt lat="42.75223" lon="1.86622">
        <ele>1591.4</ele>
        <time>2024-06-30T07:40:47Z</time>
      </trkpt>
      <trkpt lat="42.75226" lon="1.86624">
        <ele>1591.4</ele>
        <time>2024-06-30T07:40:48Z</time>
      </trkpt>
      <trkpt lat="42.75229" lon="1.86625">
        <ele>1591</ele>
        <time>2024-06-30T07:40:49Z</time>
      </trkpt>
      <trkpt lat="42.75232" lon="1.86625">
        <ele>1591</ele>
        <time>2024-06-30T07:40:50Z</time>
      </trkpt>
      <trkpt lat="42.75234" lon="1.86624">
        <ele>1590.8</ele>
        <time>2024-06-30T07:40:51Z</time>
      </trkpt>
      <trkpt lat="42.75237" lon="1.86623">
        <ele>1590.2</ele>
        <time>2024-06-30T07:40:52Z</time>
      </trkpt>
      <trkpt lat="42.75241" lon="1.86621">
        <ele>1590.2</ele>
        <time>2024-06-30T07:40:53Z</time>
      </trkpt>
      <trkpt lat="42.75245" lon="1.8662">
        <ele>1589.8</ele>
        <time>2024-06-30T07:40:54Z</time>
      </trkpt>
      <trkpt lat="42.75252" lon="1.86619">
        <ele>1589.4</ele>
        <time>2024-06-30T07:40:56Z</time>
      </trkpt>
      <trkpt lat="42.75255" lon="1.86622">
        <ele>1589.4</ele>
        <time>2024-06-30T07:40:57Z</time>
      </trkpt>
      <trkpt lat="42.75256" lon="1.86625">
        <ele>1589.4</ele>
        <time>2024-06-30T07:40:58Z</time>
      </trkpt>
      <trkpt lat="42.75257" lon="1.8663">
        <ele>1589.4</ele>
        <time>2024-06-30T07:40:59Z</time>
      </trkpt>
      <trkpt lat="42.75258" lon="1.86635">
        <ele>1589.4</ele>
        <time>2024-06-30T07:41:00Z</time>
      </trkpt>
      <trkpt lat="42.7526" lon="1.86638">
        <ele>1589.4</ele>
        <time>2024-06-30T07:41:01Z</time>
      </trkpt>
      <trkpt lat="42.75263" lon="1.86641">
        <ele>1589.4</ele>
        <time>2024-06-30T07:41:02Z</time>
      </trkpt>
      <trkpt lat="42.75271" lon="1.86641">
        <ele>1590</ele>
        <time>2024-06-30T07:41:05Z</time>
      </trkpt>
      <trkpt lat="42.75275" lon="1.8664">
        <ele>1590</ele>
        <time>2024-06-30T07:41:06Z</time>
      </trkpt>
      <trkpt lat="42.75277" lon="1.86637">
        <ele>1590</ele>
        <time>2024-06-30T07:41:07Z</time>
      </trkpt>
      <trkpt lat="42.7528" lon="1.86634">
        <ele>1590.2</ele>
        <time>2024-06-30T07:41:08Z</time>
      </trkpt>
      <trkpt lat="42.75282" lon="1.86631">
        <ele>1590.2</ele>
        <time>2024-06-30T07:41:09Z</time>
      </trkpt>
      <trkpt lat="42.75287" lon="1.86625">
        <ele>1590.6</ele>
        <time>2024-06-30T07:41:11Z</time>
      </trkpt>
      <trkpt lat="42.75296" lon="1.86609">
        <ele>1591.4</ele>
        <time>2024-06-30T07:41:15Z</time>
      </trkpt>
      <trkpt lat="42.75298" lon="1.86604">
        <ele>1591.6</ele>
        <time>2024-06-30T07:41:16Z</time>
      </trkpt>
      <trkpt lat="42.75319" lon="1.86575">
        <ele>1592.6</ele>
        <time>2024-06-30T07:41:23Z</time>
      </trkpt>
      <trkpt lat="42.75325" lon="1.86567">
        <ele>1592.8</ele>
        <time>2024-06-30T07:41:25Z</time>
      </trkpt>
      <trkpt lat="42.7533" lon="1.8656">
        <ele>1593.2</ele>
        <time>2024-06-30T07:41:27Z</time>
      </trkpt>
      <trkpt lat="42.75333" lon="1.86558">
        <ele>1593.6</ele>
        <time>2024-06-30T07:41:28Z</time>
      </trkpt>
      <trkpt lat="42.75336" lon="1.86555">
        <ele>1593.6</ele>
        <time>2024-06-30T07:41:29Z</time>
      </trkpt>
      <trkpt lat="42.75339" lon="1.86552">
        <ele>1593.6</ele>
        <time>2024-06-30T07:41:30Z</time>
      </trkpt>
      <trkpt lat="42.75342" lon="1.86549">
        <ele>1593.8</ele>
        <time>2024-06-30T07:41:31Z</time>
      </trkpt>
      <trkpt lat="42.75345" lon="1.86545">
        <ele>1593.8</ele>
        <time>2024-06-30T07:41:32Z</time>
      </trkpt>
      <trkpt lat="42.75348" lon="1.86541">
        <ele>1593.8</ele>
        <time>2024-06-30T07:41:33Z</time>
      </trkpt>
      <trkpt lat="42.75351" lon="1.86537">
        <ele>1593.8</ele>
        <time>2024-06-30T07:41:34Z</time>
      </trkpt>
      <trkpt lat="42.75354" lon="1.86533">
        <ele>1593.8</ele>
        <time>2024-06-30T07:41:35Z</time>
      </trkpt>
      <trkpt lat="42.75357" lon="1.86529">
        <ele>1594</ele>
        <time>2024-06-30T07:41:36Z</time>
      </trkpt>
      <trkpt lat="42.75359" lon="1.86525">
        <ele>1594</ele>
        <time>2024-06-30T07:41:37Z</time>
      </trkpt>
      <trkpt lat="42.75361" lon="1.86521">
        <ele>1594</ele>
        <time>2024-06-30T07:41:38Z</time>
      </trkpt>
      <trkpt lat="42.75364" lon="1.86517">
        <ele>1594</ele>
        <time>2024-06-30T07:41:39Z</time>
      </trkpt>
      <trkpt lat="42.75366" lon="1.86514">
        <ele>1594</ele>
        <time>2024-06-30T07:41:40Z</time>
      </trkpt>
      <trkpt lat="42.75369" lon="1.8651">
        <ele>1594.2</ele>
        <time>2024-06-30T07:41:41Z</time>
      </trkpt>
      <trkpt lat="42.75372" lon="1.86506">
        <ele>1594.2</ele>
        <time>2024-06-30T07:41:42Z</time>
      </trkpt>
      <trkpt lat="42.75374" lon="1.86504">
        <ele>1594.4</ele>
        <time>2024-06-30T07:41:43Z</time>
      </trkpt>
      <trkpt lat="42.75378" lon="1.86499">
        <ele>1594.6</ele>
        <time>2024-06-30T07:41:44Z</time>
      </trkpt>
      <trkpt lat="42.75383" lon="1.86493">
        <ele>1595</ele>
        <time>2024-06-30T07:41:46Z</time>
      </trkpt>
      <trkpt lat="42.75389" lon="1.86486">
        <ele>1595.4</ele>
        <time>2024-06-30T07:41:48Z</time>
      </trkpt>
      <trkpt lat="42.75395" lon="1.86477">
        <ele>1595.8</ele>
        <time>2024-06-30T07:41:50Z</time>
      </trkpt>
      <trkpt lat="42.75398" lon="1.86473">
        <ele>1595.8</ele>
        <time>2024-06-30T07:41:51Z</time>
      </trkpt>
      <trkpt lat="42.75401" lon="1.8647">
        <ele>1596</ele>
        <time>2024-06-30T07:41:52Z</time>
      </trkpt>
      <trkpt lat="42.75405" lon="1.86465">
        <ele>1596.2</ele>
        <time>2024-06-30T07:41:53Z</time>
      </trkpt>
      <trkpt lat="42.75409" lon="1.8646">
        <ele>1596.2</ele>
        <time>2024-06-30T07:41:54Z</time>
      </trkpt>
      <trkpt lat="42.75411" lon="1.86457">
        <ele>1596.4</ele>
        <time>2024-06-30T07:41:55Z</time>
      </trkpt>
      <trkpt lat="42.75415" lon="1.86453">
        <ele>1596.4</ele>
        <time>2024-06-30T07:41:56Z</time>
      </trkpt>
      <trkpt lat="42.75418" lon="1.86449">
        <ele>1596.6</ele>
        <time>2024-06-30T07:41:57Z</time>
      </trkpt>
      <trkpt lat="42.75421" lon="1.86445">
        <ele>1596.6</ele>
        <time>2024-06-30T07:41:58Z</time>
      </trkpt>
      <trkpt lat="42.75424" lon="1.8644">
        <ele>1596.6</ele>
        <time>2024-06-30T07:41:59Z</time>
      </trkpt>
      <trkpt lat="42.75427" lon="1.86436">
        <ele>1596.8</ele>
        <time>2024-06-30T07:42:00Z</time>
      </trkpt>
      <trkpt lat="42.7543" lon="1.86432">
        <ele>1597</ele>
        <time>2024-06-30T07:42:01Z</time>
      </trkpt>
      <trkpt lat="42.75434" lon="1.86427">
        <ele>1597.2</ele>
        <time>2024-06-30T07:42:02Z</time>
      </trkpt>
      <trkpt lat="42.75437" lon="1.86423">
        <ele>1597.2</ele>
        <time>2024-06-30T07:42:03Z</time>
      </trkpt>
      <trkpt lat="42.7544" lon="1.86419">
        <ele>1597.2</ele>
        <time>2024-06-30T07:42:04Z</time>
      </trkpt>
      <trkpt lat="42.75444" lon="1.86414">
        <ele>1597.2</ele>
        <time>2024-06-30T07:42:05Z</time>
      </trkpt>
      <trkpt lat="42.75447" lon="1.8641">
        <ele>1597.2</ele>
        <time>2024-06-30T07:42:06Z</time>
      </trkpt>
      <trkpt lat="42.7545" lon="1.86405">
        <ele>1597.2</ele>
        <time>2024-06-30T07:42:07Z</time>
      </trkpt>
      <trkpt lat="42.75453" lon="1.864">
        <ele>1597.2</ele>
        <time>2024-06-30T07:42:08Z</time>
      </trkpt>
      <trkpt lat="42.75457" lon="1.86395">
        <ele>1597.2</ele>
        <time>2024-06-30T07:42:09Z</time>
      </trkpt>
      <trkpt lat="42.7546" lon="1.86391">
        <ele>1597.2</ele>
        <time>2024-06-30T07:42:10Z</time>
      </trkpt>
      <trkpt lat="42.75463" lon="1.86387">
        <ele>1597.2</ele>
        <time>2024-06-30T07:42:11Z</time>
      </trkpt>
      <trkpt lat="42.75467" lon="1.86383">
        <ele>1597</ele>
        <time>2024-06-30T07:42:12Z</time>
      </trkpt>
      <trkpt lat="42.75476" lon="1.86368">
        <ele>1596.6</ele>
        <time>2024-06-30T07:42:15Z</time>
      </trkpt>
      <trkpt lat="42.75478" lon="1.86362">
        <ele>1596.4</ele>
        <time>2024-06-30T07:42:16Z</time>
      </trkpt>
      <trkpt lat="42.75479" lon="1.86354">
        <ele>1596.2</ele>
        <time>2024-06-30T07:42:17Z</time>
      </trkpt>
      <trkpt lat="42.7548" lon="1.86347">
        <ele>1596</ele>
        <time>2024-06-30T07:42:18Z</time>
      </trkpt>
      <trkpt lat="42.75481" lon="1.86341">
        <ele>1596</ele>
        <time>2024-06-30T07:42:19Z</time>
      </trkpt>
      <trkpt lat="42.7548" lon="1.86327">
        <ele>1595.8</ele>
        <time>2024-06-30T07:42:21Z</time>
      </trkpt>
      <trkpt lat="42.75478" lon="1.86322">
        <ele>1595.6</ele>
        <time>2024-06-30T07:42:22Z</time>
      </trkpt>
      <trkpt lat="42.75474" lon="1.86315">
        <ele>1595.6</ele>
        <time>2024-06-30T07:42:23Z</time>
      </trkpt>
      <trkpt lat="42.75472" lon="1.86311">
        <ele>1595.6</ele>
        <time>2024-06-30T07:42:24Z</time>
      </trkpt>
      <trkpt lat="42.75468" lon="1.86305">
        <ele>1595.4</ele>
        <time>2024-06-30T07:42:25Z</time>
      </trkpt>
      <trkpt lat="42.75465" lon="1.86299">
        <ele>1595.2</ele>
        <time>2024-06-30T07:42:26Z</time>
      </trkpt>
      <trkpt lat="42.75458" lon="1.86284">
        <ele>1594.6</ele>
        <time>2024-06-30T07:42:28Z</time>
      </trkpt>
      <trkpt lat="42.7545" lon="1.86269">
        <ele>1593.4</ele>
        <time>2024-06-30T07:42:30Z</time>
      </trkpt>
      <trkpt lat="42.75448" lon="1.86262">
        <ele>1592.6</ele>
        <time>2024-06-30T07:42:31Z</time>
      </trkpt>
      <trkpt lat="42.75445" lon="1.86253">
        <ele>1592.2</ele>
        <time>2024-06-30T07:42:32Z</time>
      </trkpt>
      <trkpt lat="42.75444" lon="1.86244">
        <ele>1591.4</ele>
        <time>2024-06-30T07:42:33Z</time>
      </trkpt>
      <trkpt lat="42.75442" lon="1.86234">
        <ele>1591.2</ele>
        <time>2024-06-30T07:42:34Z</time>
      </trkpt>
      <trkpt lat="42.75442" lon="1.86224">
        <ele>1590.2</ele>
        <time>2024-06-30T07:42:35Z</time>
      </trkpt>
      <trkpt lat="42.75442" lon="1.86202">
        <ele>1588.6</ele>
        <time>2024-06-30T07:42:37Z</time>
      </trkpt>
      <trkpt lat="42.75441" lon="1.86164">
        <ele>1586</ele>
        <time>2024-06-30T07:42:40Z</time>
      </trkpt>
      <trkpt lat="42.75441" lon="1.86156">
        <ele>1585.4</ele>
        <time>2024-06-30T07:42:41Z</time>
      </trkpt>
      <trkpt lat="42.75442" lon="1.86147">
        <ele>1584.6</ele>
        <time>2024-06-30T07:42:42Z</time>
      </trkpt>
      <trkpt lat="42.75442" lon="1.86139">
        <ele>1584.4</ele>
        <time>2024-06-30T07:42:43Z</time>
      </trkpt>
      <trkpt lat="42.75443" lon="1.86132">
        <ele>1584.2</ele>
        <time>2024-06-30T07:42:44Z</time>
      </trkpt>
      <trkpt lat="42.75443" lon="1.86125">
        <ele>1584</ele>
        <time>2024-06-30T07:42:45Z</time>
      </trkpt>
      <trkpt lat="42.75443" lon="1.86118">
        <ele>1583.8</ele>
        <time>2024-06-30T07:42:46Z</time>
      </trkpt>
      <trkpt lat="42.75442" lon="1.86111">
        <ele>1583.8</ele>
        <time>2024-06-30T07:42:47Z</time>
      </trkpt>
      <trkpt lat="42.75442" lon="1.86103">
        <ele>1583.8</ele>
        <time>2024-06-30T07:42:48Z</time>
      </trkpt>
      <trkpt lat="42.75441" lon="1.86086">
        <ele>1583.8</ele>
        <time>2024-06-30T07:42:50Z</time>
      </trkpt>
      <trkpt lat="42.75441" lon="1.86081">
        <ele>1584</ele>
        <time>2024-06-30T07:42:51Z</time>
      </trkpt>
      <trkpt lat="42.75442" lon="1.86074">
        <ele>1584</ele>
        <time>2024-06-30T07:42:52Z</time>
      </trkpt>
      <trkpt lat="42.75443" lon="1.86067">
        <ele>1584.2</ele>
        <time>2024-06-30T07:42:53Z</time>
      </trkpt>
      <trkpt lat="42.75449" lon="1.86053">
        <ele>1584.4</ele>
        <time>2024-06-30T07:42:55Z</time>
      </trkpt>
      <trkpt lat="42.75453" lon="1.86049">
        <ele>1584.6</ele>
        <time>2024-06-30T07:42:56Z</time>
      </trkpt>
      <trkpt lat="42.75457" lon="1.86045">
        <ele>1584.6</ele>
        <time>2024-06-30T07:42:57Z</time>
      </trkpt>
      <trkpt lat="42.75462" lon="1.86039">
        <ele>1584.6</ele>
        <time>2024-06-30T07:42:58Z</time>
      </trkpt>
      <trkpt lat="42.75466" lon="1.86034">
        <ele>1584.6</ele>
        <time>2024-06-30T07:42:59Z</time>
      </trkpt>
      <trkpt lat="42.75468" lon="1.86029">
        <ele>1584.6</ele>
        <time>2024-06-30T07:43:00Z</time>
      </trkpt>
      <trkpt lat="42.75469" lon="1.86021">
        <ele>1584.6</ele>
        <time>2024-06-30T07:43:01Z</time>
      </trkpt>
      <trkpt lat="42.7547" lon="1.86013">
        <ele>1584.6</ele>
        <time>2024-06-30T07:43:02Z</time>
      </trkpt>
      <trkpt lat="42.75472" lon="1.86004">
        <ele>1584.6</ele>
        <time>2024-06-30T07:43:03Z</time>
      </trkpt>
      <trkpt lat="42.75476" lon="1.85983">
        <ele>1584.2</ele>
        <time>2024-06-30T07:43:05Z</time>
      </trkpt>
      <trkpt lat="42.75477" lon="1.85972">
        <ele>1584.4</ele>
        <time>2024-06-30T07:43:06Z</time>
      </trkpt>
      <trkpt lat="42.75478" lon="1.85959">
        <ele>1583.6</ele>
        <time>2024-06-30T07:43:07Z</time>
      </trkpt>
      <trkpt lat="42.75479" lon="1.85949">
        <ele>1583.4</ele>
        <time>2024-06-30T07:43:08Z</time>
      </trkpt>
      <trkpt lat="42.7548" lon="1.85941">
        <ele>1582.8</ele>
        <time>2024-06-30T07:43:09Z</time>
      </trkpt>
      <trkpt lat="42.75481" lon="1.85931">
        <ele>1582.6</ele>
        <time>2024-06-30T07:43:10Z</time>
      </trkpt>
      <trkpt lat="42.75482" lon="1.85921">
        <ele>1582.2</ele>
        <time>2024-06-30T07:43:11Z</time>
      </trkpt>
      <trkpt lat="42.75483" lon="1.8591">
        <ele>1582</ele>
        <time>2024-06-30T07:43:12Z</time>
      </trkpt>
      <trkpt lat="42.75482" lon="1.85896">
        <ele>1580.4</ele>
        <time>2024-06-30T07:43:13Z</time>
      </trkpt>
      <trkpt lat="42.75481" lon="1.85886">
        <ele>1579.2</ele>
        <time>2024-06-30T07:43:14Z</time>
      </trkpt>
      <trkpt lat="42.75481" lon="1.85874">
        <ele>1578.8</ele>
        <time>2024-06-30T07:43:15Z</time>
      </trkpt>
      <trkpt lat="42.75482" lon="1.8586">
        <ele>1578.2</ele>
        <time>2024-06-30T07:43:16Z</time>
      </trkpt>
      <trkpt lat="42.75483" lon="1.85849">
        <ele>1577.4</ele>
        <time>2024-06-30T07:43:17Z</time>
      </trkpt>
      <trkpt lat="42.75483" lon="1.8584">
        <ele>1575.4</ele>
        <time>2024-06-30T07:43:18Z</time>
      </trkpt>
      <trkpt lat="42.75483" lon="1.85817">
        <ele>1574.2</ele>
        <time>2024-06-30T07:43:20Z</time>
      </trkpt>
      <trkpt lat="42.75481" lon="1.8581">
        <ele>1573.6</ele>
        <time>2024-06-30T07:43:21Z</time>
      </trkpt>
      <trkpt lat="42.75479" lon="1.85802">
        <ele>1572.6</ele>
        <time>2024-06-30T07:43:22Z</time>
      </trkpt>
      <trkpt lat="42.75477" lon="1.85797">
        <ele>1571.8</ele>
        <time>2024-06-30T07:43:23Z</time>
      </trkpt>
      <trkpt lat="42.75476" lon="1.85791">
        <ele>1571.4</ele>
        <time>2024-06-30T07:43:24Z</time>
      </trkpt>
      <trkpt lat="42.75476" lon="1.85784">
        <ele>1571</ele>
        <time>2024-06-30T07:43:25Z</time>
      </trkpt>
      <trkpt lat="42.75475" lon="1.85778">
        <ele>1570.2</ele>
        <time>2024-06-30T07:43:26Z</time>
      </trkpt>
      <trkpt lat="42.75474" lon="1.85772">
        <ele>1569.4</ele>
        <time>2024-06-30T07:43:27Z</time>
      </trkpt>
      <trkpt lat="42.75474" lon="1.85767">
        <ele>1569.2</ele>
        <time>2024-06-30T07:43:28Z</time>
      </trkpt>
      <trkpt lat="42.75474" lon="1.85762">
        <ele>1569</ele>
        <time>2024-06-30T07:43:29Z</time>
      </trkpt>
      <trkpt lat="42.75474" lon="1.85757">
        <ele>1568.8</ele>
        <time>2024-06-30T07:43:30Z</time>
      </trkpt>
      <trkpt lat="42.75475" lon="1.85754">
        <ele>1568.8</ele>
        <time>2024-06-30T07:43:31Z</time>
      </trkpt>
      <trkpt lat="42.75475" lon="1.85751">
        <ele>1569</ele>
        <time>2024-06-30T07:43:32Z</time>
      </trkpt>
      <trkpt lat="42.75476" lon="1.85749">
        <ele>1569.2</ele>
        <time>2024-06-30T07:43:33Z</time>
      </trkpt>
      <trkpt lat="42.75476" lon="1.85746">
        <ele>1569.4</ele>
        <time>2024-06-30T07:43:34Z</time>
      </trkpt>
      <trkpt lat="42.75478" lon="1.85743">
        <ele>1569.4</ele>
        <time>2024-06-30T07:43:35Z</time>
      </trkpt>
      <trkpt lat="42.75482" lon="1.85728">
        <ele>1570.2</ele>
        <time>2024-06-30T07:43:40Z</time>
      </trkpt>
      <trkpt lat="42.75483" lon="1.85725">
        <ele>1570.4</ele>
        <time>2024-06-30T07:43:41Z</time>
      </trkpt>
      <trkpt lat="42.75482" lon="1.85719">
        <ele>1570.6</ele>
        <time>2024-06-30T07:43:42Z</time>
      </trkpt>
      <trkpt lat="42.7548" lon="1.85712">
        <ele>1570.6</ele>
        <time>2024-06-30T07:43:43Z</time>
      </trkpt>
      <trkpt lat="42.75478" lon="1.85705">
        <ele>1570.6</ele>
        <time>2024-06-30T07:43:44Z</time>
      </trkpt>
      <trkpt lat="42.75474" lon="1.85697">
        <ele>1570.6</ele>
        <time>2024-06-30T07:43:45Z</time>
      </trkpt>
      <trkpt lat="42.7547" lon="1.85688">
        <ele>1570.8</ele>
        <time>2024-06-30T07:43:46Z</time>
      </trkpt>
      <trkpt lat="42.75467" lon="1.8568">
        <ele>1570.8</ele>
        <time>2024-06-30T07:43:47Z</time>
      </trkpt>
      <trkpt lat="42.75464" lon="1.85674">
        <ele>1570.8</ele>
        <time>2024-06-30T07:43:48Z</time>
      </trkpt>
      <trkpt lat="42.7546" lon="1.85669">
        <ele>1570.6</ele>
        <time>2024-06-30T07:43:49Z</time>
      </trkpt>
      <trkpt lat="42.75457" lon="1.85665">
        <ele>1570.6</ele>
        <time>2024-06-30T07:43:50Z</time>
      </trkpt>
      <trkpt lat="42.75454" lon="1.85663">
        <ele>1570.6</ele>
        <time>2024-06-30T07:43:51Z</time>
      </trkpt>
      <trkpt lat="42.75447" lon="1.85656">
        <ele>1570</ele>
        <time>2024-06-30T07:43:53Z</time>
      </trkpt>
      <trkpt lat="42.75441" lon="1.85645">
        <ele>1569.8</ele>
        <time>2024-06-30T07:43:55Z</time>
      </trkpt>
      <trkpt lat="42.75438" lon="1.8564">
        <ele>1569.8</ele>
        <time>2024-06-30T07:43:56Z</time>
      </trkpt>
      <trkpt lat="42.75436" lon="1.85634">
        <ele>1569.8</ele>
        <time>2024-06-30T07:43:57Z</time>
      </trkpt>
      <trkpt lat="42.75435" lon="1.8563">
        <ele>1570.4</ele>
        <time>2024-06-30T07:43:58Z</time>
      </trkpt>
      <trkpt lat="42.75434" lon="1.85626">
        <ele>1570.6</ele>
        <time>2024-06-30T07:43:59Z</time>
      </trkpt>
      <trkpt lat="42.75433" lon="1.8562">
        <ele>1570.8</ele>
        <time>2024-06-30T07:44:00Z</time>
      </trkpt>
      <trkpt lat="42.7543" lon="1.85603">
        <ele>1571.6</ele>
        <time>2024-06-30T07:44:03Z</time>
      </trkpt>
      <trkpt lat="42.75429" lon="1.85594">
        <ele>1572.4</ele>
        <time>2024-06-30T07:44:05Z</time>
      </trkpt>
      <trkpt lat="42.75426" lon="1.85587">
        <ele>1572.2</ele>
        <time>2024-06-30T07:44:06Z</time>
      </trkpt>
      <trkpt lat="42.75426" lon="1.85583">
        <ele>1572.4</ele>
        <time>2024-06-30T07:44:07Z</time>
      </trkpt>
      <trkpt lat="42.75424" lon="1.85568">
        <ele>1573</ele>
        <time>2024-06-30T07:44:11Z</time>
      </trkpt>
      <trkpt lat="42.75419" lon="1.85564">
        <ele>1573.2</ele>
        <time>2024-06-30T07:44:12Z</time>
      </trkpt>
      <trkpt lat="42.75417" lon="1.85558">
        <ele>1573.2</ele>
        <time>2024-06-30T07:44:13Z</time>
      </trkpt>
      <trkpt lat="42.75415" lon="1.85553">
        <ele>1573.6</ele>
        <time>2024-06-30T07:44:14Z</time>
      </trkpt>
      <trkpt lat="42.75412" lon="1.85549">
        <ele>1573.6</ele>
        <time>2024-06-30T07:44:15Z</time>
      </trkpt>
      <trkpt lat="42.75411" lon="1.85544">
        <ele>1574</ele>
        <time>2024-06-30T07:44:16Z</time>
      </trkpt>
      <trkpt lat="42.75409" lon="1.8554">
        <ele>1574.2</ele>
        <time>2024-06-30T07:44:17Z</time>
      </trkpt>
      <trkpt lat="42.75407" lon="1.85538">
        <ele>1574.4</ele>
        <time>2024-06-30T07:44:18Z</time>
      </trkpt>
      <trkpt lat="42.75404" lon="1.85534">
        <ele>1574.8</ele>
        <time>2024-06-30T07:44:19Z</time>
      </trkpt>
      <trkpt lat="42.75402" lon="1.8553">
        <ele>1574.8</ele>
        <time>2024-06-30T07:44:20Z</time>
      </trkpt>
      <trkpt lat="42.754" lon="1.85527">
        <ele>1575.2</ele>
        <time>2024-06-30T07:44:21Z</time>
      </trkpt>
      <trkpt lat="42.75398" lon="1.85523">
        <ele>1575.4</ele>
        <time>2024-06-30T07:44:22Z</time>
      </trkpt>
      <trkpt lat="42.75397" lon="1.8552">
        <ele>1575.4</ele>
        <time>2024-06-30T07:44:23Z</time>
      </trkpt>
      <trkpt lat="42.75395" lon="1.85516">
        <ele>1575.6</ele>
        <time>2024-06-30T07:44:24Z</time>
      </trkpt>
      <trkpt lat="42.75393" lon="1.85511">
        <ele>1575.8</ele>
        <time>2024-06-30T07:44:25Z</time>
      </trkpt>
      <trkpt lat="42.75391" lon="1.85508">
        <ele>1575.8</ele>
        <time>2024-06-30T07:44:26Z</time>
      </trkpt>
      <trkpt lat="42.7539" lon="1.85505">
        <ele>1576</ele>
        <time>2024-06-30T07:44:27Z</time>
      </trkpt>
      <trkpt lat="42.75388" lon="1.85502">
        <ele>1576.2</ele>
        <time>2024-06-30T07:44:28Z</time>
      </trkpt>
      <trkpt lat="42.75386" lon="1.85499">
        <ele>1576.2</ele>
        <time>2024-06-30T07:44:29Z</time>
      </trkpt>
      <trkpt lat="42.75384" lon="1.85496">
        <ele>1576.6</ele>
        <time>2024-06-30T07:44:30Z</time>
      </trkpt>
      <trkpt lat="42.75382" lon="1.85492">
        <ele>1576.8</ele>
        <time>2024-06-30T07:44:31Z</time>
      </trkpt>
      <trkpt lat="42.7538" lon="1.8549">
        <ele>1577.2</ele>
        <time>2024-06-30T07:44:32Z</time>
      </trkpt>
      <trkpt lat="42.75377" lon="1.85487">
        <ele>1577.4</ele>
        <time>2024-06-30T07:44:33Z</time>
      </trkpt>
      <trkpt lat="42.75374" lon="1.85483">
        <ele>1577.6</ele>
        <time>2024-06-30T07:44:34Z</time>
      </trkpt>
      <trkpt lat="42.75371" lon="1.8548">
        <ele>1577.8</ele>
        <time>2024-06-30T07:44:35Z</time>
      </trkpt>
      <trkpt lat="42.7537" lon="1.85477">
        <ele>1577.8</ele>
        <time>2024-06-30T07:44:36Z</time>
      </trkpt>
      <trkpt lat="42.75369" lon="1.85473">
        <ele>1578.2</ele>
        <time>2024-06-30T07:44:37Z</time>
      </trkpt>
      <trkpt lat="42.75368" lon="1.85469">
        <ele>1578.4</ele>
        <time>2024-06-30T07:44:38Z</time>
      </trkpt>
      <trkpt lat="42.75368" lon="1.85466">
        <ele>1578.6</ele>
        <time>2024-06-30T07:44:39Z</time>
      </trkpt>
      <trkpt lat="42.75369" lon="1.85463">
        <ele>1578.8</ele>
        <time>2024-06-30T07:44:40Z</time>
      </trkpt>
      <trkpt lat="42.7537" lon="1.85462">
        <ele>1579</ele>
        <time>2024-06-30T07:44:41Z</time>
      </trkpt>
      <trkpt lat="42.75371" lon="1.85459">
        <ele>1579</ele>
        <time>2024-06-30T07:44:42Z</time>
      </trkpt>
      <trkpt lat="42.75371" lon="1.85456">
        <ele>1579.2</ele>
        <time>2024-06-30T07:44:43Z</time>
      </trkpt>
      <trkpt lat="42.75372" lon="1.85452">
        <ele>1579.4</ele>
        <time>2024-06-30T07:44:44Z</time>
      </trkpt>
      <trkpt lat="42.75372" lon="1.85448">
        <ele>1579.4</ele>
        <time>2024-06-30T07:44:45Z</time>
      </trkpt>
      <trkpt lat="42.75374" lon="1.85442">
        <ele>1579.6</ele>
        <time>2024-06-30T07:44:46Z</time>
      </trkpt>
      <trkpt lat="42.75376" lon="1.85437">
        <ele>1579.6</ele>
        <time>2024-06-30T07:44:47Z</time>
      </trkpt>
      <trkpt lat="42.75377" lon="1.85432">
        <ele>1579.6</ele>
        <time>2024-06-30T07:44:48Z</time>
      </trkpt>
      <trkpt lat="42.75378" lon="1.85425">
        <ele>1579.6</ele>
        <time>2024-06-30T07:44:49Z</time>
      </trkpt>
      <trkpt lat="42.75379" lon="1.85418">
        <ele>1579.6</ele>
        <time>2024-06-30T07:44:50Z</time>
      </trkpt>
      <trkpt lat="42.7538" lon="1.85412">
        <ele>1579.6</ele>
        <time>2024-06-30T07:44:51Z</time>
      </trkpt>
      <trkpt lat="42.75381" lon="1.85405">
        <ele>1579.6</ele>
        <time>2024-06-30T07:44:52Z</time>
      </trkpt>
      <trkpt lat="42.75383" lon="1.85399">
        <ele>1579.4</ele>
        <time>2024-06-30T07:44:53Z</time>
      </trkpt>
      <trkpt lat="42.75385" lon="1.85393">
        <ele>1579.4</ele>
        <time>2024-06-30T07:44:54Z</time>
      </trkpt>
      <trkpt lat="42.75388" lon="1.85386">
        <ele>1579.4</ele>
        <time>2024-06-30T07:44:55Z</time>
      </trkpt>
      <trkpt lat="42.7539" lon="1.8538">
        <ele>1579.4</ele>
        <time>2024-06-30T07:44:56Z</time>
      </trkpt>
      <trkpt lat="42.75392" lon="1.85372">
        <ele>1579.4</ele>
        <time>2024-06-30T07:44:57Z</time>
      </trkpt>
      <trkpt lat="42.75395" lon="1.85366">
        <ele>1579.4</ele>
        <time>2024-06-30T07:44:58Z</time>
      </trkpt>
      <trkpt lat="42.75397" lon="1.85358">
        <ele>1579.4</ele>
        <time>2024-06-30T07:44:59Z</time>
      </trkpt>
      <trkpt lat="42.75399" lon="1.85353">
        <ele>1579.4</ele>
        <time>2024-06-30T07:45:00Z</time>
      </trkpt>
      <trkpt lat="42.75401" lon="1.85347">
        <ele>1579.4</ele>
        <time>2024-06-30T07:45:01Z</time>
      </trkpt>
      <trkpt lat="42.75402" lon="1.85339">
        <ele>1579.4</ele>
        <time>2024-06-30T07:45:02Z</time>
      </trkpt>
      <trkpt lat="42.75403" lon="1.85333">
        <ele>1579.2</ele>
        <time>2024-06-30T07:45:03Z</time>
      </trkpt>
      <trkpt lat="42.75404" lon="1.85326">
        <ele>1579.2</ele>
        <time>2024-06-30T07:45:04Z</time>
      </trkpt>
      <trkpt lat="42.75408" lon="1.85316">
        <ele>1579</ele>
        <time>2024-06-30T07:45:06Z</time>
      </trkpt>
      <trkpt lat="42.75411" lon="1.8531">
        <ele>1579</ele>
        <time>2024-06-30T07:45:07Z</time>
      </trkpt>
      <trkpt lat="42.75413" lon="1.85306">
        <ele>1578.4</ele>
        <time>2024-06-30T07:45:08Z</time>
      </trkpt>
      <trkpt lat="42.75415" lon="1.85302">
        <ele>1578.2</ele>
        <time>2024-06-30T07:45:09Z</time>
      </trkpt>
      <trkpt lat="42.75416" lon="1.85296">
        <ele>1578.2</ele>
        <time>2024-06-30T07:45:10Z</time>
      </trkpt>
      <trkpt lat="42.75418" lon="1.8529">
        <ele>1578.2</ele>
        <time>2024-06-30T07:45:11Z</time>
      </trkpt>
      <trkpt lat="42.75423" lon="1.85272">
        <ele>1577.6</ele>
        <time>2024-06-30T07:45:13Z</time>
      </trkpt>
      <trkpt lat="42.75424" lon="1.85256">
        <ele>1577</ele>
        <time>2024-06-30T07:45:15Z</time>
      </trkpt>
      <trkpt lat="42.75425" lon="1.85245">
        <ele>1576.4</ele>
        <time>2024-06-30T07:45:16Z</time>
      </trkpt>
      <trkpt lat="42.75426" lon="1.85236">
        <ele>1576.2</ele>
        <time>2024-06-30T07:45:17Z</time>
      </trkpt>
      <trkpt lat="42.75425" lon="1.85223">
        <ele>1575.8</ele>
        <time>2024-06-30T07:45:18Z</time>
      </trkpt>
      <trkpt lat="42.75425" lon="1.85216">
        <ele>1575.8</ele>
        <time>2024-06-30T07:45:19Z</time>
      </trkpt>
      <trkpt lat="42.75425" lon="1.85212">
        <ele>1574.4</ele>
        <time>2024-06-30T07:45:20Z</time>
      </trkpt>
      <trkpt lat="42.75425" lon="1.85209">
        <ele>1573.8</ele>
        <time>2024-06-30T07:45:21Z</time>
      </trkpt>
      <trkpt lat="42.75425" lon="1.85202">
        <ele>1572.2</ele>
        <time>2024-06-30T07:45:22Z</time>
      </trkpt>
      <trkpt lat="42.75424" lon="1.8519">
        <ele>1571.2</ele>
        <time>2024-06-30T07:45:23Z</time>
      </trkpt>
      <trkpt lat="42.75423" lon="1.85173">
        <ele>1569.6</ele>
        <time>2024-06-30T07:45:24Z</time>
      </trkpt>
      <trkpt lat="42.75423" lon="1.85163">
        <ele>1568.6</ele>
        <time>2024-06-30T07:45:25Z</time>
      </trkpt>
      <trkpt lat="42.75425" lon="1.85156">
        <ele>1566.8</ele>
        <time>2024-06-30T07:45:26Z</time>
      </trkpt>
      <trkpt lat="42.75428" lon="1.85151">
        <ele>1566.2</ele>
        <time>2024-06-30T07:45:27Z</time>
      </trkpt>
      <trkpt lat="42.75432" lon="1.85143">
        <ele>1564.6</ele>
        <time>2024-06-30T07:45:28Z</time>
      </trkpt>
      <trkpt lat="42.75436" lon="1.85138">
        <ele>1563.2</ele>
        <time>2024-06-30T07:45:29Z</time>
      </trkpt>
      <trkpt lat="42.7544" lon="1.85135">
        <ele>1562.8</ele>
        <time>2024-06-30T07:45:30Z</time>
      </trkpt>
      <trkpt lat="42.75443" lon="1.85134">
        <ele>1561.6</ele>
        <time>2024-06-30T07:45:31Z</time>
      </trkpt>
      <trkpt lat="42.75446" lon="1.85132">
        <ele>1561.2</ele>
        <time>2024-06-30T07:45:32Z</time>
      </trkpt>
      <trkpt lat="42.75448" lon="1.8513">
        <ele>1560.2</ele>
        <time>2024-06-30T07:45:33Z</time>
      </trkpt>
      <trkpt lat="42.7545" lon="1.85126">
        <ele>1560</ele>
        <time>2024-06-30T07:45:34Z</time>
      </trkpt>
      <trkpt lat="42.75453" lon="1.85122">
        <ele>1559.6</ele>
        <time>2024-06-30T07:45:35Z</time>
      </trkpt>
      <trkpt lat="42.75465" lon="1.85113">
        <ele>1559.6</ele>
        <time>2024-06-30T07:45:37Z</time>
      </trkpt>
      <trkpt lat="42.7547" lon="1.8511">
        <ele>1559.4</ele>
        <time>2024-06-30T07:45:38Z</time>
      </trkpt>
      <trkpt lat="42.75475" lon="1.85108">
        <ele>1559.4</ele>
        <time>2024-06-30T07:45:39Z</time>
      </trkpt>
      <trkpt lat="42.75479" lon="1.85103">
        <ele>1559.4</ele>
        <time>2024-06-30T07:45:40Z</time>
      </trkpt>
      <trkpt lat="42.75483" lon="1.85096">
        <ele>1559.2</ele>
        <time>2024-06-30T07:45:41Z</time>
      </trkpt>
      <trkpt lat="42.75487" lon="1.8509">
        <ele>1559</ele>
        <time>2024-06-30T07:45:42Z</time>
      </trkpt>
      <trkpt lat="42.75492" lon="1.85083">
        <ele>1558.8</ele>
        <time>2024-06-30T07:45:43Z</time>
      </trkpt>
      <trkpt lat="42.75497" lon="1.85076">
        <ele>1558.6</ele>
        <time>2024-06-30T07:45:44Z</time>
      </trkpt>
      <trkpt lat="42.75504" lon="1.85062">
        <ele>1556</ele>
        <time>2024-06-30T07:45:46Z</time>
      </trkpt>
      <trkpt lat="42.75507" lon="1.85051">
        <ele>1554</ele>
        <time>2024-06-30T07:45:47Z</time>
      </trkpt>
      <trkpt lat="42.75512" lon="1.85042">
        <ele>1551.8</ele>
        <time>2024-06-30T07:45:48Z</time>
      </trkpt>
      <trkpt lat="42.75515" lon="1.85037">
        <ele>1549.2</ele>
        <time>2024-06-30T07:45:49Z</time>
      </trkpt>
      <trkpt lat="42.75518" lon="1.85032">
        <ele>1547.6</ele>
        <time>2024-06-30T07:45:50Z</time>
      </trkpt>
      <trkpt lat="42.75522" lon="1.85024">
        <ele>1544</ele>
        <time>2024-06-30T07:45:51Z</time>
      </trkpt>
      <trkpt lat="42.75524" lon="1.85016">
        <ele>1542.4</ele>
        <time>2024-06-30T07:45:52Z</time>
      </trkpt>
      <trkpt lat="42.75526" lon="1.85005">
        <ele>1539.2</ele>
        <time>2024-06-30T07:45:53Z</time>
      </trkpt>
      <trkpt lat="42.75528" lon="1.84993">
        <ele>1537.8</ele>
        <time>2024-06-30T07:45:54Z</time>
      </trkpt>
      <trkpt lat="42.75531" lon="1.84983">
        <ele>1534.8</ele>
        <time>2024-06-30T07:45:55Z</time>
      </trkpt>
      <trkpt lat="42.75533" lon="1.84975">
        <ele>1533</ele>
        <time>2024-06-30T07:45:56Z</time>
      </trkpt>
      <trkpt lat="42.75532" lon="1.84962">
        <ele>1531.4</ele>
        <time>2024-06-30T07:45:57Z</time>
      </trkpt>
      <trkpt lat="42.7553" lon="1.84953">
        <ele>1528.2</ele>
        <time>2024-06-30T07:45:58Z</time>
      </trkpt>
      <trkpt lat="42.75528" lon="1.84944">
        <ele>1526.2</ele>
        <time>2024-06-30T07:45:59Z</time>
      </trkpt>
      <trkpt lat="42.75526" lon="1.84932">
        <ele>1523.6</ele>
        <time>2024-06-30T07:46:00Z</time>
      </trkpt>
      <trkpt lat="42.75525" lon="1.84917">
        <ele>1522.4</ele>
        <time>2024-06-30T07:46:01Z</time>
      </trkpt>
      <trkpt lat="42.75524" lon="1.84908">
        <ele>1520.2</ele>
        <time>2024-06-30T07:46:02Z</time>
      </trkpt>
      <trkpt lat="42.75524" lon="1.849">
        <ele>1519</ele>
        <time>2024-06-30T07:46:03Z</time>
      </trkpt>
      <trkpt lat="42.75524" lon="1.84886">
        <ele>1517.6</ele>
        <time>2024-06-30T07:46:04Z</time>
      </trkpt>
      <trkpt lat="42.75524" lon="1.84878">
        <ele>1516.2</ele>
        <time>2024-06-30T07:46:05Z</time>
      </trkpt>
      <trkpt lat="42.75523" lon="1.84853">
        <ele>1514.2</ele>
        <time>2024-06-30T07:46:07Z</time>
      </trkpt>
      <trkpt lat="42.75527" lon="1.84836">
        <ele>1513.4</ele>
        <time>2024-06-30T07:46:08Z</time>
      </trkpt>
      <trkpt lat="42.75532" lon="1.84826">
        <ele>1512.4</ele>
        <time>2024-06-30T07:46:09Z</time>
      </trkpt>
      <trkpt lat="42.75535" lon="1.84817">
        <ele>1510.8</ele>
        <time>2024-06-30T07:46:10Z</time>
      </trkpt>
      <trkpt lat="42.75537" lon="1.84802">
        <ele>1508.8</ele>
        <time>2024-06-30T07:46:11Z</time>
      </trkpt>
      <trkpt lat="42.75534" lon="1.84789">
        <ele>1508.2</ele>
        <time>2024-06-30T07:46:12Z</time>
      </trkpt>
      <trkpt lat="42.75533" lon="1.84776">
        <ele>1505.4</ele>
        <time>2024-06-30T07:46:13Z</time>
      </trkpt>
      <trkpt lat="42.75531" lon="1.84763">
        <ele>1503.2</ele>
        <time>2024-06-30T07:46:14Z</time>
      </trkpt>
      <trkpt lat="42.75528" lon="1.8475">
        <ele>1502.4</ele>
        <time>2024-06-30T07:46:15Z</time>
      </trkpt>
      <trkpt lat="42.75525" lon="1.84738">
        <ele>1499.4</ele>
        <time>2024-06-30T07:46:16Z</time>
      </trkpt>
      <trkpt lat="42.75523" lon="1.84729">
        <ele>1498.2</ele>
        <time>2024-06-30T07:46:17Z</time>
      </trkpt>
      <trkpt lat="42.75521" lon="1.84724">
        <ele>1497</ele>
        <time>2024-06-30T07:46:18Z</time>
      </trkpt>
      <trkpt lat="42.75519" lon="1.84716">
        <ele>1496.2</ele>
        <time>2024-06-30T07:46:19Z</time>
      </trkpt>
      <trkpt lat="42.75519" lon="1.84714">
        <ele>1494.8</ele>
        <time>2024-06-30T07:46:20Z</time>
      </trkpt>
      <trkpt lat="42.75519" lon="1.84712">
        <ele>1494.2</ele>
        <time>2024-06-30T07:46:21Z</time>
      </trkpt>
      <trkpt lat="42.7552" lon="1.84712">
        <ele>1492.8</ele>
        <time>2024-06-30T07:46:22Z</time>
      </trkpt>
      <trkpt lat="42.75521" lon="1.84711">
        <ele>1491.8</ele>
        <time>2024-06-30T07:46:23Z</time>
      </trkpt>
      <trkpt lat="42.75521" lon="1.84711">
        <ele>1491.2</ele>
        <time>2024-06-30T07:46:24Z</time>
      </trkpt>
      <trkpt lat="42.75521" lon="1.84711">
        <ele>1490.6</ele>
        <time>2024-06-30T07:46:25Z</time>
      </trkpt>
      <trkpt lat="42.7552" lon="1.84709">
        <ele>1490</ele>
        <time>2024-06-30T07:46:26Z</time>
      </trkpt>
      <trkpt lat="42.75518" lon="1.84707">
        <ele>1489</ele>
        <time>2024-06-30T07:46:27Z</time>
      </trkpt>
      <trkpt lat="42.75516" lon="1.84705">
        <ele>1488.8</ele>
        <time>2024-06-30T07:46:28Z</time>
      </trkpt>
      <trkpt lat="42.75513" lon="1.84701">
        <ele>1488.2</ele>
        <time>2024-06-30T07:46:29Z</time>
      </trkpt>
      <trkpt lat="42.75511" lon="1.84684">
        <ele>1487.6</ele>
        <time>2024-06-30T07:46:31Z</time>
      </trkpt>
      <trkpt lat="42.7551" lon="1.84677">
        <ele>1487</ele>
        <time>2024-06-30T07:46:32Z</time>
      </trkpt>
      <trkpt lat="42.7551" lon="1.8467">
        <ele>1486.6</ele>
        <time>2024-06-30T07:46:33Z</time>
      </trkpt>
      <trkpt lat="42.75511" lon="1.84665">
        <ele>1486.2</ele>
        <time>2024-06-30T07:46:34Z</time>
      </trkpt>
      <trkpt lat="42.75511" lon="1.84664">
        <ele>1486.2</ele>
        <time>2024-06-30T07:46:35Z</time>
      </trkpt>
      <trkpt lat="42.75511" lon="1.84664">
        <ele>1485.2</ele>
        <time>2024-06-30T07:46:37Z</time>
      </trkpt>
      <trkpt lat="42.7551" lon="1.84665">
        <ele>1484</ele>
        <time>2024-06-30T07:46:38Z</time>
      </trkpt>
      <trkpt lat="42.7551" lon="1.84668">
        <ele>1483.6</ele>
        <time>2024-06-30T07:46:39Z</time>
      </trkpt>
      <trkpt lat="42.75511" lon="1.84672">
        <ele>1482.8</ele>
        <time>2024-06-30T07:46:40Z</time>
      </trkpt>
      <trkpt lat="42.75513" lon="1.84679">
        <ele>1482.2</ele>
        <time>2024-06-30T07:46:42Z</time>
      </trkpt>
      <trkpt lat="42.7552" lon="1.84695">
        <ele>1482</ele>
        <time>2024-06-30T07:46:47Z</time>
      </trkpt>
      <trkpt lat="42.75522" lon="1.84698">
        <ele>1482.4</ele>
        <time>2024-06-30T07:46:48Z</time>
      </trkpt>
      <trkpt lat="42.75525" lon="1.84705">
        <ele>1484</ele>
        <time>2024-06-30T07:46:50Z</time>
      </trkpt>
      <trkpt lat="42.75525" lon="1.84708">
        <ele>1484.2</ele>
        <time>2024-06-30T07:46:51Z</time>
      </trkpt>
      <trkpt lat="42.75526" lon="1.84711">
        <ele>1484.8</ele>
        <time>2024-06-30T07:46:52Z</time>
      </trkpt>
      <trkpt lat="42.75527" lon="1.84713">
        <ele>1485</ele>
        <time>2024-06-30T07:46:53Z</time>
      </trkpt>
      <trkpt lat="42.75527" lon="1.84713">
        <ele>1485.6</ele>
        <time>2024-06-30T07:46:54Z</time>
      </trkpt>
      <trkpt lat="42.75528" lon="1.84714">
        <ele>1486</ele>
        <time>2024-06-30T07:46:55Z</time>
      </trkpt>
      <trkpt lat="42.75529" lon="1.84715">
        <ele>1486.4</ele>
        <time>2024-06-30T07:46:56Z</time>
      </trkpt>
      <trkpt lat="42.75531" lon="1.84716">
        <ele>1486.4</ele>
        <time>2024-06-30T07:46:57Z</time>
      </trkpt>
      <trkpt lat="42.75533" lon="1.84718">
        <ele>1486.6</ele>
        <time>2024-06-30T07:46:58Z</time>
      </trkpt>
      <trkpt lat="42.75541" lon="1.84731">
        <ele>1487.2</ele>
        <time>2024-06-30T07:47:01Z</time>
      </trkpt>
      <trkpt lat="42.75555" lon="1.84757">
        <ele>1487.8</ele>
        <time>2024-06-30T07:47:05Z</time>
      </trkpt>
      <trkpt lat="42.7556" lon="1.84766">
        <ele>1487.8</ele>
        <time>2024-06-30T07:47:06Z</time>
      </trkpt>
      <trkpt lat="42.75572" lon="1.84786">
        <ele>1488.4</ele>
        <time>2024-06-30T07:47:09Z</time>
      </trkpt>
      <trkpt lat="42.75576" lon="1.84793">
        <ele>1488.4</ele>
        <time>2024-06-30T07:47:10Z</time>
      </trkpt>
      <trkpt lat="42.7558" lon="1.848">
        <ele>1488.4</ele>
        <time>2024-06-30T07:47:11Z</time>
      </trkpt>
      <trkpt lat="42.75584" lon="1.84807">
        <ele>1488.6</ele>
        <time>2024-06-30T07:47:12Z</time>
      </trkpt>
      <trkpt lat="42.75587" lon="1.84812">
        <ele>1488.6</ele>
        <time>2024-06-30T07:47:13Z</time>
      </trkpt>
      <trkpt lat="42.7559" lon="1.84819">
        <ele>1488.6</ele>
        <time>2024-06-30T07:47:14Z</time>
      </trkpt>
      <trkpt lat="42.75593" lon="1.84825">
        <ele>1488.6</ele>
        <time>2024-06-30T07:47:15Z</time>
      </trkpt>
      <trkpt lat="42.75596" lon="1.84831">
        <ele>1488.4</ele>
        <time>2024-06-30T07:47:16Z</time>
      </trkpt>
      <trkpt lat="42.756" lon="1.84837">
        <ele>1488.4</ele>
        <time>2024-06-30T07:47:17Z</time>
      </trkpt>
      <trkpt lat="42.75604" lon="1.84844">
        <ele>1488.2</ele>
        <time>2024-06-30T07:47:18Z</time>
      </trkpt>
      <trkpt lat="42.75607" lon="1.84851">
        <ele>1488.2</ele>
        <time>2024-06-30T07:47:19Z</time>
      </trkpt>
      <trkpt lat="42.75611" lon="1.8486">
        <ele>1488.2</ele>
        <time>2024-06-30T07:47:20Z</time>
      </trkpt>
      <trkpt lat="42.75615" lon="1.84869">
        <ele>1488.2</ele>
        <time>2024-06-30T07:47:21Z</time>
      </trkpt>
      <trkpt lat="42.75618" lon="1.84877">
        <ele>1488</ele>
        <time>2024-06-30T07:47:22Z</time>
      </trkpt>
      <trkpt lat="42.75621" lon="1.84885">
        <ele>1488</ele>
        <time>2024-06-30T07:47:23Z</time>
      </trkpt>
      <trkpt lat="42.75624" lon="1.84894">
        <ele>1487.8</ele>
        <time>2024-06-30T07:47:24Z</time>
      </trkpt>
      <trkpt lat="42.75639" lon="1.84951">
        <ele>1487</ele>
        <time>2024-06-30T07:47:29Z</time>
      </trkpt>
      <trkpt lat="42.75647" lon="1.84978">
        <ele>1486.2</ele>
        <time>2024-06-30T07:47:31Z</time>
      </trkpt>
      <trkpt lat="42.75653" lon="1.84999">
        <ele>1484.8</ele>
        <time>2024-06-30T07:47:33Z</time>
      </trkpt>
      <trkpt lat="42.75664" lon="1.85021">
        <ele>1483.4</ele>
        <time>2024-06-30T07:47:35Z</time>
      </trkpt>
      <trkpt lat="42.75667" lon="1.85028">
        <ele>1483.2</ele>
        <time>2024-06-30T07:47:36Z</time>
      </trkpt>
      <trkpt lat="42.75672" lon="1.85036">
        <ele>1482.8</ele>
        <time>2024-06-30T07:47:37Z</time>
      </trkpt>
      <trkpt lat="42.75678" lon="1.85043">
        <ele>1482.6</ele>
        <time>2024-06-30T07:47:38Z</time>
      </trkpt>
      <trkpt lat="42.75683" lon="1.85049">
        <ele>1482.2</ele>
        <time>2024-06-30T07:47:39Z</time>
      </trkpt>
      <trkpt lat="42.75687" lon="1.85056">
        <ele>1482</ele>
        <time>2024-06-30T07:47:40Z</time>
      </trkpt>
      <trkpt lat="42.75691" lon="1.85062">
        <ele>1481.4</ele>
        <time>2024-06-30T07:47:41Z</time>
      </trkpt>
      <trkpt lat="42.75695" lon="1.85068">
        <ele>1481.4</ele>
        <time>2024-06-30T07:47:42Z</time>
      </trkpt>
      <trkpt lat="42.757" lon="1.85074">
        <ele>1481.2</ele>
        <time>2024-06-30T07:47:43Z</time>
      </trkpt>
      <trkpt lat="42.75703" lon="1.85081">
        <ele>1481.2</ele>
        <time>2024-06-30T07:47:44Z</time>
      </trkpt>
      <trkpt lat="42.75706" lon="1.85089">
        <ele>1481.2</ele>
        <time>2024-06-30T07:47:45Z</time>
      </trkpt>
      <trkpt lat="42.75708" lon="1.85096">
        <ele>1481.2</ele>
        <time>2024-06-30T07:47:46Z</time>
      </trkpt>
      <trkpt lat="42.7571" lon="1.85103">
        <ele>1481.2</ele>
        <time>2024-06-30T07:47:47Z</time>
      </trkpt>
      <trkpt lat="42.75711" lon="1.85108">
        <ele>1481.2</ele>
        <time>2024-06-30T07:47:48Z</time>
      </trkpt>
      <trkpt lat="42.75713" lon="1.85114">
        <ele>1481.2</ele>
        <time>2024-06-30T07:47:49Z</time>
      </trkpt>
      <trkpt lat="42.75715" lon="1.85119">
        <ele>1481.2</ele>
        <time>2024-06-30T07:47:50Z</time>
      </trkpt>
      <trkpt lat="42.75718" lon="1.85126">
        <ele>1481.4</ele>
        <time>2024-06-30T07:47:51Z</time>
      </trkpt>
      <trkpt lat="42.75727" lon="1.85152">
        <ele>1482</ele>
        <time>2024-06-30T07:47:55Z</time>
      </trkpt>
      <trkpt lat="42.75729" lon="1.85159">
        <ele>1482</ele>
        <time>2024-06-30T07:47:56Z</time>
      </trkpt>
      <trkpt lat="42.75731" lon="1.85171">
        <ele>1482.2</ele>
        <time>2024-06-30T07:47:58Z</time>
      </trkpt>
      <trkpt lat="42.75733" lon="1.85184">
        <ele>1483.2</ele>
        <time>2024-06-30T07:48:00Z</time>
      </trkpt>
      <trkpt lat="42.75733" lon="1.85189">
        <ele>1483.6</ele>
        <time>2024-06-30T07:48:01Z</time>
      </trkpt>
      <trkpt lat="42.75733" lon="1.85194">
        <ele>1484</ele>
        <time>2024-06-30T07:48:02Z</time>
      </trkpt>
      <trkpt lat="42.75734" lon="1.85198">
        <ele>1484.2</ele>
        <time>2024-06-30T07:48:03Z</time>
      </trkpt>
      <trkpt lat="42.75735" lon="1.85203">
        <ele>1484.2</ele>
        <time>2024-06-30T07:48:04Z</time>
      </trkpt>
      <trkpt lat="42.75735" lon="1.85207">
        <ele>1484.4</ele>
        <time>2024-06-30T07:48:05Z</time>
      </trkpt>
      <trkpt lat="42.75735" lon="1.8521">
        <ele>1485.4</ele>
        <time>2024-06-30T07:48:06Z</time>
      </trkpt>
      <trkpt lat="42.75735" lon="1.85213">
        <ele>1485.8</ele>
        <time>2024-06-30T07:48:07Z</time>
      </trkpt>
      <trkpt lat="42.75734" lon="1.85221">
        <ele>1486.8</ele>
        <time>2024-06-30T07:48:09Z</time>
      </trkpt>
      <trkpt lat="42.75734" lon="1.85225">
        <ele>1487.4</ele>
        <time>2024-06-30T07:48:10Z</time>
      </trkpt>
      <trkpt lat="42.75734" lon="1.8523">
        <ele>1487.6</ele>
        <time>2024-06-30T07:48:11Z</time>
      </trkpt>
      <trkpt lat="42.75736" lon="1.85235">
        <ele>1488</ele>
        <time>2024-06-30T07:48:12Z</time>
      </trkpt>
      <trkpt lat="42.75738" lon="1.8524">
        <ele>1488.2</ele>
        <time>2024-06-30T07:48:13Z</time>
      </trkpt>
      <trkpt lat="42.7574" lon="1.85246">
        <ele>1488.2</ele>
        <time>2024-06-30T07:48:14Z</time>
      </trkpt>
      <trkpt lat="42.75742" lon="1.85252">
        <ele>1488.4</ele>
        <time>2024-06-30T07:48:15Z</time>
      </trkpt>
      <trkpt lat="42.75743" lon="1.85259">
        <ele>1488.6</ele>
        <time>2024-06-30T07:48:16Z</time>
      </trkpt>
      <trkpt lat="42.75744" lon="1.85266">
        <ele>1488.6</ele>
        <time>2024-06-30T07:48:17Z</time>
      </trkpt>
      <trkpt lat="42.75744" lon="1.85273">
        <ele>1488.6</ele>
        <time>2024-06-30T07:48:18Z</time>
      </trkpt>
      <trkpt lat="42.75745" lon="1.8528">
        <ele>1488.6</ele>
        <time>2024-06-30T07:48:19Z</time>
      </trkpt>
      <trkpt lat="42.75746" lon="1.85285">
        <ele>1488.6</ele>
        <time>2024-06-30T07:48:20Z</time>
      </trkpt>
      <trkpt lat="42.75748" lon="1.85288">
        <ele>1488.4</ele>
        <time>2024-06-30T07:48:21Z</time>
      </trkpt>
      <trkpt lat="42.7575" lon="1.8529">
        <ele>1488.4</ele>
        <time>2024-06-30T07:48:22Z</time>
      </trkpt>
      <trkpt lat="42.75754" lon="1.85291">
        <ele>1488.2</ele>
        <time>2024-06-30T07:48:23Z</time>
      </trkpt>
      <trkpt lat="42.75757" lon="1.85292">
        <ele>1487.8</ele>
        <time>2024-06-30T07:48:24Z</time>
      </trkpt>
      <trkpt lat="42.75761" lon="1.85293">
        <ele>1487.4</ele>
        <time>2024-06-30T07:48:25Z</time>
      </trkpt>
      <trkpt lat="42.75765" lon="1.85292">
        <ele>1486.8</ele>
        <time>2024-06-30T07:48:26Z</time>
      </trkpt>
      <trkpt lat="42.75768" lon="1.8529">
        <ele>1486.4</ele>
        <time>2024-06-30T07:48:27Z</time>
      </trkpt>
      <trkpt lat="42.7577" lon="1.85288">
        <ele>1485.8</ele>
        <time>2024-06-30T07:48:28Z</time>
      </trkpt>
      <trkpt lat="42.75774" lon="1.85286">
        <ele>1485</ele>
        <time>2024-06-30T07:48:29Z</time>
      </trkpt>
      <trkpt lat="42.75778" lon="1.85284">
        <ele>1484.4</ele>
        <time>2024-06-30T07:48:30Z</time>
      </trkpt>
      <trkpt lat="42.75783" lon="1.85282">
        <ele>1483.8</ele>
        <time>2024-06-30T07:48:31Z</time>
      </trkpt>
      <trkpt lat="42.75795" lon="1.85281">
        <ele>1481.6</ele>
        <time>2024-06-30T07:48:33Z</time>
      </trkpt>
      <trkpt lat="42.75801" lon="1.85282">
        <ele>1480.6</ele>
        <time>2024-06-30T07:48:34Z</time>
      </trkpt>
      <trkpt lat="42.75805" lon="1.85285">
        <ele>1479.4</ele>
        <time>2024-06-30T07:48:35Z</time>
      </trkpt>
      <trkpt lat="42.7581" lon="1.85289">
        <ele>1479.2</ele>
        <time>2024-06-30T07:48:36Z</time>
      </trkpt>
      <trkpt lat="42.75816" lon="1.85295">
        <ele>1477</ele>
        <time>2024-06-30T07:48:37Z</time>
      </trkpt>
      <trkpt lat="42.75821" lon="1.85302">
        <ele>1475.8</ele>
        <time>2024-06-30T07:48:38Z</time>
      </trkpt>
      <trkpt lat="42.75827" lon="1.85309">
        <ele>1475</ele>
        <time>2024-06-30T07:48:39Z</time>
      </trkpt>
      <trkpt lat="42.75831" lon="1.85316">
        <ele>1473.6</ele>
        <time>2024-06-30T07:48:40Z</time>
      </trkpt>
      <trkpt lat="42.75833" lon="1.85323">
        <ele>1472.8</ele>
        <time>2024-06-30T07:48:41Z</time>
      </trkpt>
      <trkpt lat="42.75834" lon="1.8533">
        <ele>1470.4</ele>
        <time>2024-06-30T07:48:42Z</time>
      </trkpt>
      <trkpt lat="42.75836" lon="1.85336">
        <ele>1469.8</ele>
        <time>2024-06-30T07:48:43Z</time>
      </trkpt>
      <trkpt lat="42.75839" lon="1.85342">
        <ele>1468</ele>
        <time>2024-06-30T07:48:44Z</time>
      </trkpt>
      <trkpt lat="42.75842" lon="1.85346">
        <ele>1467.4</ele>
        <time>2024-06-30T07:48:45Z</time>
      </trkpt>
      <trkpt lat="42.75845" lon="1.85351">
        <ele>1465.4</ele>
        <time>2024-06-30T07:48:46Z</time>
      </trkpt>
      <trkpt lat="42.75849" lon="1.85355">
        <ele>1463.8</ele>
        <time>2024-06-30T07:48:47Z</time>
      </trkpt>
      <trkpt lat="42.75855" lon="1.85359">
        <ele>1463</ele>
        <time>2024-06-30T07:48:48Z</time>
      </trkpt>
      <trkpt lat="42.7586" lon="1.85362">
        <ele>1462</ele>
        <time>2024-06-30T07:48:49Z</time>
      </trkpt>
      <trkpt lat="42.75866" lon="1.85362">
        <ele>1461.6</ele>
        <time>2024-06-30T07:48:50Z</time>
      </trkpt>
      <trkpt lat="42.75871" lon="1.85358">
        <ele>1460</ele>
        <time>2024-06-30T07:48:51Z</time>
      </trkpt>
      <trkpt lat="42.75875" lon="1.85351">
        <ele>1458.8</ele>
        <time>2024-06-30T07:48:52Z</time>
      </trkpt>
      <trkpt lat="42.75879" lon="1.85344">
        <ele>1457</ele>
        <time>2024-06-30T07:48:53Z</time>
      </trkpt>
      <trkpt lat="42.75884" lon="1.85336">
        <ele>1456.2</ele>
        <time>2024-06-30T07:48:54Z</time>
      </trkpt>
      <trkpt lat="42.75888" lon="1.85328">
        <ele>1455.2</ele>
        <time>2024-06-30T07:48:55Z</time>
      </trkpt>
      <trkpt lat="42.75893" lon="1.85319">
        <ele>1453.4</ele>
        <time>2024-06-30T07:48:56Z</time>
      </trkpt>
      <trkpt lat="42.75899" lon="1.85309">
        <ele>1452.2</ele>
        <time>2024-06-30T07:48:57Z</time>
      </trkpt>
      <trkpt lat="42.75905" lon="1.85297">
        <ele>1451</ele>
        <time>2024-06-30T07:48:58Z</time>
      </trkpt>
      <trkpt lat="42.75908" lon="1.8529">
        <ele>1450.4</ele>
        <time>2024-06-30T07:48:59Z</time>
      </trkpt>
      <trkpt lat="42.75913" lon="1.85281">
        <ele>1448.8</ele>
        <time>2024-06-30T07:49:00Z</time>
      </trkpt>
      <trkpt lat="42.75919" lon="1.8527">
        <ele>1448.2</ele>
        <time>2024-06-30T07:49:01Z</time>
      </trkpt>
      <trkpt lat="42.75928" lon="1.85257">
        <ele>1446.6</ele>
        <time>2024-06-30T07:49:02Z</time>
      </trkpt>
      <trkpt lat="42.75941" lon="1.85235">
        <ele>1443.6</ele>
        <time>2024-06-30T07:49:04Z</time>
      </trkpt>
      <trkpt lat="42.75945" lon="1.85225">
        <ele>1442</ele>
        <time>2024-06-30T07:49:05Z</time>
      </trkpt>
      <trkpt lat="42.75951" lon="1.85214">
        <ele>1441.4</ele>
        <time>2024-06-30T07:49:06Z</time>
      </trkpt>
      <trkpt lat="42.75959" lon="1.85205">
        <ele>1440.2</ele>
        <time>2024-06-30T07:49:07Z</time>
      </trkpt>
      <trkpt lat="42.75967" lon="1.85196">
        <ele>1439.6</ele>
        <time>2024-06-30T07:49:08Z</time>
      </trkpt>
      <trkpt lat="42.75972" lon="1.85191">
        <ele>1438.2</ele>
        <time>2024-06-30T07:49:09Z</time>
      </trkpt>
      <trkpt lat="42.75978" lon="1.85188">
        <ele>1437.6</ele>
        <time>2024-06-30T07:49:10Z</time>
      </trkpt>
      <trkpt lat="42.75985" lon="1.85186">
        <ele>1436.4</ele>
        <time>2024-06-30T07:49:11Z</time>
      </trkpt>
      <trkpt lat="42.75991" lon="1.85183">
        <ele>1436</ele>
        <time>2024-06-30T07:49:12Z</time>
      </trkpt>
      <trkpt lat="42.75997" lon="1.8518">
        <ele>1434.6</ele>
        <time>2024-06-30T07:49:13Z</time>
      </trkpt>
      <trkpt lat="42.76002" lon="1.85175">
        <ele>1434</ele>
        <time>2024-06-30T07:49:14Z</time>
      </trkpt>
      <trkpt lat="42.76009" lon="1.85168">
        <ele>1433.8</ele>
        <time>2024-06-30T07:49:15Z</time>
      </trkpt>
      <trkpt lat="42.76014" lon="1.8516">
        <ele>1432</ele>
        <time>2024-06-30T07:49:16Z</time>
      </trkpt>
      <trkpt lat="42.7602" lon="1.85152">
        <ele>1431.6</ele>
        <time>2024-06-30T07:49:17Z</time>
      </trkpt>
      <trkpt lat="42.76025" lon="1.85144">
        <ele>1430</ele>
        <time>2024-06-30T07:49:18Z</time>
      </trkpt>
      <trkpt lat="42.76029" lon="1.85137">
        <ele>1429.2</ele>
        <time>2024-06-30T07:49:19Z</time>
      </trkpt>
      <trkpt lat="42.76035" lon="1.8513">
        <ele>1428</ele>
        <time>2024-06-30T07:49:20Z</time>
      </trkpt>
      <trkpt lat="42.76041" lon="1.85124">
        <ele>1427.4</ele>
        <time>2024-06-30T07:49:21Z</time>
      </trkpt>
      <trkpt lat="42.76049" lon="1.85122">
        <ele>1426</ele>
        <time>2024-06-30T07:49:22Z</time>
      </trkpt>
      <trkpt lat="42.76056" lon="1.85124">
        <ele>1424.2</ele>
        <time>2024-06-30T07:49:23Z</time>
      </trkpt>
      <trkpt lat="42.76071" lon="1.85127">
        <ele>1421.8</ele>
        <time>2024-06-30T07:49:25Z</time>
      </trkpt>
      <trkpt lat="42.76079" lon="1.85128">
        <ele>1421</ele>
        <time>2024-06-30T07:49:26Z</time>
      </trkpt>
      <trkpt lat="42.76088" lon="1.85125">
        <ele>1419.2</ele>
        <time>2024-06-30T07:49:27Z</time>
      </trkpt>
      <trkpt lat="42.76105" lon="1.85124">
        <ele>1417.4</ele>
        <time>2024-06-30T07:49:29Z</time>
      </trkpt>
      <trkpt lat="42.76112" lon="1.85124">
        <ele>1416.6</ele>
        <time>2024-06-30T07:49:30Z</time>
      </trkpt>
      <trkpt lat="42.76118" lon="1.85124">
        <ele>1415.8</ele>
        <time>2024-06-30T07:49:31Z</time>
      </trkpt>
      <trkpt lat="42.76124" lon="1.85124">
        <ele>1415.2</ele>
        <time>2024-06-30T07:49:32Z</time>
      </trkpt>
      <trkpt lat="42.76129" lon="1.85125">
        <ele>1414.8</ele>
        <time>2024-06-30T07:49:33Z</time>
      </trkpt>
      <trkpt lat="42.76133" lon="1.85127">
        <ele>1414.2</ele>
        <time>2024-06-30T07:49:34Z</time>
      </trkpt>
      <trkpt lat="42.76136" lon="1.85127">
        <ele>1414</ele>
        <time>2024-06-30T07:49:35Z</time>
      </trkpt>
      <trkpt lat="42.76139" lon="1.85127">
        <ele>1413.8</ele>
        <time>2024-06-30T07:49:36Z</time>
      </trkpt>
      <trkpt lat="42.76142" lon="1.85127">
        <ele>1413.8</ele>
        <time>2024-06-30T07:49:37Z</time>
      </trkpt>
      <trkpt lat="42.76143" lon="1.85126">
        <ele>1413.8</ele>
        <time>2024-06-30T07:49:38Z</time>
      </trkpt>
      <trkpt lat="42.76144" lon="1.85124">
        <ele>1413.8</ele>
        <time>2024-06-30T07:49:39Z</time>
      </trkpt>
      <trkpt lat="42.76146" lon="1.85123">
        <ele>1413.8</ele>
        <time>2024-06-30T07:49:40Z</time>
      </trkpt>
      <trkpt lat="42.76148" lon="1.85123">
        <ele>1413.8</ele>
        <time>2024-06-30T07:49:41Z</time>
      </trkpt>
      <trkpt lat="42.76153" lon="1.85122">
        <ele>1414</ele>
        <time>2024-06-30T07:49:43Z</time>
      </trkpt>
      <trkpt lat="42.76156" lon="1.85121">
        <ele>1414.2</ele>
        <time>2024-06-30T07:49:44Z</time>
      </trkpt>
      <trkpt lat="42.76168" lon="1.85113">
        <ele>1415.2</ele>
        <time>2024-06-30T07:49:48Z</time>
      </trkpt>
      <trkpt lat="42.76173" lon="1.85111">
        <ele>1415.6</ele>
        <time>2024-06-30T07:49:49Z</time>
      </trkpt>
      <trkpt lat="42.76184" lon="1.85106">
        <ele>1416.2</ele>
        <time>2024-06-30T07:49:51Z</time>
      </trkpt>
      <trkpt lat="42.76194" lon="1.85098">
        <ele>1416.8</ele>
        <time>2024-06-30T07:49:53Z</time>
      </trkpt>
      <trkpt lat="42.76198" lon="1.85094">
        <ele>1417.2</ele>
        <time>2024-06-30T07:49:54Z</time>
      </trkpt>
      <trkpt lat="42.76201" lon="1.85092">
        <ele>1417.2</ele>
        <time>2024-06-30T07:49:55Z</time>
      </trkpt>
      <trkpt lat="42.76206" lon="1.85089">
        <ele>1417.4</ele>
        <time>2024-06-30T07:49:56Z</time>
      </trkpt>
      <trkpt lat="42.76223" lon="1.85079">
        <ele>1418</ele>
        <time>2024-06-30T07:49:59Z</time>
      </trkpt>
      <trkpt lat="42.7623" lon="1.85074">
        <ele>1418</ele>
        <time>2024-06-30T07:50:00Z</time>
      </trkpt>
      <trkpt lat="42.76236" lon="1.85066">
        <ele>1418</ele>
        <time>2024-06-30T07:50:01Z</time>
      </trkpt>
      <trkpt lat="42.76259" lon="1.85047">
        <ele>1417.8</ele>
        <time>2024-06-30T07:50:04Z</time>
      </trkpt>
      <trkpt lat="42.76285" lon="1.85027">
        <ele>1416.6</ele>
        <time>2024-06-30T07:50:07Z</time>
      </trkpt>
      <trkpt lat="42.76303" lon="1.85022">
        <ele>1415.8</ele>
        <time>2024-06-30T07:50:09Z</time>
      </trkpt>
      <trkpt lat="42.7631" lon="1.8502">
        <ele>1415.4</ele>
        <time>2024-06-30T07:50:10Z</time>
      </trkpt>
      <trkpt lat="42.76318" lon="1.85017">
        <ele>1415.2</ele>
        <time>2024-06-30T07:50:11Z</time>
      </trkpt>
      <trkpt lat="42.76326" lon="1.85015">
        <ele>1414.8</ele>
        <time>2024-06-30T07:50:12Z</time>
      </trkpt>
      <trkpt lat="42.76332" lon="1.85012">
        <ele>1414</ele>
        <time>2024-06-30T07:50:13Z</time>
      </trkpt>
      <trkpt lat="42.76338" lon="1.85008">
        <ele>1413</ele>
        <time>2024-06-30T07:50:14Z</time>
      </trkpt>
      <trkpt lat="42.76345" lon="1.85006">
        <ele>1412.2</ele>
        <time>2024-06-30T07:50:15Z</time>
      </trkpt>
      <trkpt lat="42.76352" lon="1.85006">
        <ele>1411.4</ele>
        <time>2024-06-30T07:50:16Z</time>
      </trkpt>
      <trkpt lat="42.76356" lon="1.85008">
        <ele>1409.8</ele>
        <time>2024-06-30T07:50:17Z</time>
      </trkpt>
      <trkpt lat="42.76361" lon="1.85015">
        <ele>1409.2</ele>
        <time>2024-06-30T07:50:18Z</time>
      </trkpt>
      <trkpt lat="42.76367" lon="1.85022">
        <ele>1408</ele>
        <time>2024-06-30T07:50:19Z</time>
      </trkpt>
      <trkpt lat="42.76372" lon="1.85027">
        <ele>1407.2</ele>
        <time>2024-06-30T07:50:20Z</time>
      </trkpt>
      <trkpt lat="42.76385" lon="1.85026">
        <ele>1405.6</ele>
        <time>2024-06-30T07:50:21Z</time>
      </trkpt>
      <trkpt lat="42.76409" lon="1.85025">
        <ele>1402.8</ele>
        <time>2024-06-30T07:50:23Z</time>
      </trkpt>
      <trkpt lat="42.76417" lon="1.85026">
        <ele>1402</ele>
        <time>2024-06-30T07:50:24Z</time>
      </trkpt>
      <trkpt lat="42.76426" lon="1.85026">
        <ele>1400.6</ele>
        <time>2024-06-30T07:50:25Z</time>
      </trkpt>
      <trkpt lat="42.76434" lon="1.85026">
        <ele>1399.2</ele>
        <time>2024-06-30T07:50:26Z</time>
      </trkpt>
      <trkpt lat="42.7645" lon="1.85027">
        <ele>1397</ele>
        <time>2024-06-30T07:50:28Z</time>
      </trkpt>
      <trkpt lat="42.76459" lon="1.85027">
        <ele>1396.4</ele>
        <time>2024-06-30T07:50:29Z</time>
      </trkpt>
      <trkpt lat="42.76467" lon="1.8503">
        <ele>1394.6</ele>
        <time>2024-06-30T07:50:30Z</time>
      </trkpt>
      <trkpt lat="42.76476" lon="1.85034">
        <ele>1393.4</ele>
        <time>2024-06-30T07:50:31Z</time>
      </trkpt>
      <trkpt lat="42.76484" lon="1.85036">
        <ele>1392</ele>
        <time>2024-06-30T07:50:32Z</time>
      </trkpt>
      <trkpt lat="42.76492" lon="1.85039">
        <ele>1391.2</ele>
        <time>2024-06-30T07:50:33Z</time>
      </trkpt>
      <trkpt lat="42.76499" lon="1.85043">
        <ele>1390</ele>
        <time>2024-06-30T07:50:34Z</time>
      </trkpt>
      <trkpt lat="42.76506" lon="1.8505">
        <ele>1388.8</ele>
        <time>2024-06-30T07:50:35Z</time>
      </trkpt>
      <trkpt lat="42.76521" lon="1.85067">
        <ele>1386.6</ele>
        <time>2024-06-30T07:50:37Z</time>
      </trkpt>
      <trkpt lat="42.76528" lon="1.85075">
        <ele>1386.2</ele>
        <time>2024-06-30T07:50:38Z</time>
      </trkpt>
      <trkpt lat="42.76535" lon="1.85081">
        <ele>1384.8</ele>
        <time>2024-06-30T07:50:39Z</time>
      </trkpt>
      <trkpt lat="42.76543" lon="1.85087">
        <ele>1383.2</ele>
        <time>2024-06-30T07:50:40Z</time>
      </trkpt>
      <trkpt lat="42.76551" lon="1.8509">
        <ele>1381.2</ele>
        <time>2024-06-30T07:50:41Z</time>
      </trkpt>
      <trkpt lat="42.76559" lon="1.85093">
        <ele>1380.4</ele>
        <time>2024-06-30T07:50:42Z</time>
      </trkpt>
      <trkpt lat="42.76567" lon="1.85094">
        <ele>1379.2</ele>
        <time>2024-06-30T07:50:43Z</time>
      </trkpt>
      <trkpt lat="42.76575" lon="1.85095">
        <ele>1377.6</ele>
        <time>2024-06-30T07:50:44Z</time>
      </trkpt>
      <trkpt lat="42.76583" lon="1.85097">
        <ele>1377.4</ele>
        <time>2024-06-30T07:50:45Z</time>
      </trkpt>
      <trkpt lat="42.7659" lon="1.85098">
        <ele>1374.4</ele>
        <time>2024-06-30T07:50:46Z</time>
      </trkpt>
      <trkpt lat="42.76595" lon="1.85101">
        <ele>1373.4</ele>
        <time>2024-06-30T07:50:47Z</time>
      </trkpt>
      <trkpt lat="42.76601" lon="1.85103">
        <ele>1371.6</ele>
        <time>2024-06-30T07:50:48Z</time>
      </trkpt>
      <trkpt lat="42.76607" lon="1.85106">
        <ele>1370.8</ele>
        <time>2024-06-30T07:50:49Z</time>
      </trkpt>
      <trkpt lat="42.76613" lon="1.85109">
        <ele>1368.8</ele>
        <time>2024-06-30T07:50:50Z</time>
      </trkpt>
      <trkpt lat="42.76622" lon="1.85118">
        <ele>1364.6</ele>
        <time>2024-06-30T07:50:52Z</time>
      </trkpt>
      <trkpt lat="42.76625" lon="1.85124">
        <ele>1363</ele>
        <time>2024-06-30T07:50:53Z</time>
      </trkpt>
      <trkpt lat="42.76628" lon="1.85129">
        <ele>1362.4</ele>
        <time>2024-06-30T07:50:54Z</time>
      </trkpt>
      <trkpt lat="42.76629" lon="1.85134">
        <ele>1360.8</ele>
        <time>2024-06-30T07:50:55Z</time>
      </trkpt>
      <trkpt lat="42.76631" lon="1.85139">
        <ele>1360.2</ele>
        <time>2024-06-30T07:50:56Z</time>
      </trkpt>
      <trkpt lat="42.76632" lon="1.85146">
        <ele>1359.2</ele>
        <time>2024-06-30T07:50:57Z</time>
      </trkpt>
      <trkpt lat="42.76635" lon="1.85161">
        <ele>1358.2</ele>
        <time>2024-06-30T07:50:59Z</time>
      </trkpt>
      <trkpt lat="42.76636" lon="1.85169">
        <ele>1357.8</ele>
        <time>2024-06-30T07:51:00Z</time>
      </trkpt>
      <trkpt lat="42.7664" lon="1.85188">
        <ele>1356.6</ele>
        <time>2024-06-30T07:51:02Z</time>
      </trkpt>
      <trkpt lat="42.76644" lon="1.85207">
        <ele>1355.8</ele>
        <time>2024-06-30T07:51:04Z</time>
      </trkpt>
      <trkpt lat="42.76644" lon="1.85217">
        <ele>1355.6</ele>
        <time>2024-06-30T07:51:05Z</time>
      </trkpt>
      <trkpt lat="42.76641" lon="1.85227">
        <ele>1355.2</ele>
        <time>2024-06-30T07:51:06Z</time>
      </trkpt>
      <trkpt lat="42.76638" lon="1.85233">
        <ele>1355</ele>
        <time>2024-06-30T07:51:07Z</time>
      </trkpt>
      <trkpt lat="42.76633" lon="1.8524">
        <ele>1354.6</ele>
        <time>2024-06-30T07:51:08Z</time>
      </trkpt>
      <trkpt lat="42.76628" lon="1.85245">
        <ele>1354.2</ele>
        <time>2024-06-30T07:51:09Z</time>
      </trkpt>
      <trkpt lat="42.76624" lon="1.8525">
        <ele>1353.6</ele>
        <time>2024-06-30T07:51:10Z</time>
      </trkpt>
      <trkpt lat="42.76619" lon="1.85255">
        <ele>1353</ele>
        <time>2024-06-30T07:51:11Z</time>
      </trkpt>
      <trkpt lat="42.76615" lon="1.8526">
        <ele>1352.8</ele>
        <time>2024-06-30T07:51:12Z</time>
      </trkpt>
      <trkpt lat="42.76612" lon="1.85265">
        <ele>1352.6</ele>
        <time>2024-06-30T07:51:13Z</time>
      </trkpt>
      <trkpt lat="42.76609" lon="1.8527">
        <ele>1352.6</ele>
        <time>2024-06-30T07:51:14Z</time>
      </trkpt>
      <trkpt lat="42.76606" lon="1.85275">
        <ele>1352.4</ele>
        <time>2024-06-30T07:51:15Z</time>
      </trkpt>
      <trkpt lat="42.76604" lon="1.85279">
        <ele>1352.4</ele>
        <time>2024-06-30T07:51:16Z</time>
      </trkpt>
      <trkpt lat="42.76601" lon="1.85283">
        <ele>1352.4</ele>
        <time>2024-06-30T07:51:17Z</time>
      </trkpt>
      <trkpt lat="42.76599" lon="1.85287">
        <ele>1352.4</ele>
        <time>2024-06-30T07:51:18Z</time>
      </trkpt>
      <trkpt lat="42.76597" lon="1.85292">
        <ele>1352.4</ele>
        <time>2024-06-30T07:51:19Z</time>
      </trkpt>
      <trkpt lat="42.76591" lon="1.85308">
        <ele>1352.6</ele>
        <time>2024-06-30T07:51:22Z</time>
      </trkpt>
      <trkpt lat="42.76585" lon="1.85321">
        <ele>1352.8</ele>
        <time>2024-06-30T07:51:24Z</time>
      </trkpt>
      <trkpt lat="42.76581" lon="1.85327">
        <ele>1353</ele>
        <time>2024-06-30T07:51:25Z</time>
      </trkpt>
      <trkpt lat="42.76575" lon="1.85337">
        <ele>1353.4</ele>
        <time>2024-06-30T07:51:27Z</time>
      </trkpt>
      <trkpt lat="42.76569" lon="1.85343">
        <ele>1353.6</ele>
        <time>2024-06-30T07:51:28Z</time>
      </trkpt>
      <trkpt lat="42.76564" lon="1.85347">
        <ele>1353.6</ele>
        <time>2024-06-30T07:51:29Z</time>
      </trkpt>
      <trkpt lat="42.76553" lon="1.85352">
        <ele>1354</ele>
        <time>2024-06-30T07:51:31Z</time>
      </trkpt>
      <trkpt lat="42.76547" lon="1.85354">
        <ele>1354</ele>
        <time>2024-06-30T07:51:32Z</time>
      </trkpt>
      <trkpt lat="42.76538" lon="1.85356">
        <ele>1354</ele>
        <time>2024-06-30T07:51:33Z</time>
      </trkpt>
      <trkpt lat="42.76522" lon="1.85359">
        <ele>1353.8</ele>
        <time>2024-06-30T07:51:35Z</time>
      </trkpt>
      <trkpt lat="42.76504" lon="1.85363">
        <ele>1353.4</ele>
        <time>2024-06-30T07:51:37Z</time>
      </trkpt>
      <trkpt lat="42.76492" lon="1.85365">
        <ele>1353</ele>
        <time>2024-06-30T07:51:38Z</time>
      </trkpt>
      <trkpt lat="42.76482" lon="1.85364">
        <ele>1351.6</ele>
        <time>2024-06-30T07:51:39Z</time>
      </trkpt>
      <trkpt lat="42.76463" lon="1.85359">
        <ele>1350.8</ele>
        <time>2024-06-30T07:51:41Z</time>
      </trkpt>
      <trkpt lat="42.76453" lon="1.85353">
        <ele>1350.4</ele>
        <time>2024-06-30T07:51:42Z</time>
      </trkpt>
      <trkpt lat="42.76442" lon="1.85342">
        <ele>1349.8</ele>
        <time>2024-06-30T07:51:43Z</time>
      </trkpt>
      <trkpt lat="42.76434" lon="1.85332">
        <ele>1348.8</ele>
        <time>2024-06-30T07:51:44Z</time>
      </trkpt>
      <trkpt lat="42.76427" lon="1.85324">
        <ele>1348.6</ele>
        <time>2024-06-30T07:51:45Z</time>
      </trkpt>
      <trkpt lat="42.76418" lon="1.85318">
        <ele>1347.6</ele>
        <time>2024-06-30T07:51:46Z</time>
      </trkpt>
      <trkpt lat="42.76408" lon="1.85314">
        <ele>1346.8</ele>
        <time>2024-06-30T07:51:47Z</time>
      </trkpt>
      <trkpt lat="42.764" lon="1.85314">
        <ele>1345.8</ele>
        <time>2024-06-30T07:51:48Z</time>
      </trkpt>
      <trkpt lat="42.7639" lon="1.85316">
        <ele>1345</ele>
        <time>2024-06-30T07:51:49Z</time>
      </trkpt>
      <trkpt lat="42.76381" lon="1.85321">
        <ele>1344.4</ele>
        <time>2024-06-30T07:51:50Z</time>
      </trkpt>
      <trkpt lat="42.76372" lon="1.85327">
        <ele>1343</ele>
        <time>2024-06-30T07:51:51Z</time>
      </trkpt>
      <trkpt lat="42.76363" lon="1.85334">
        <ele>1342.6</ele>
        <time>2024-06-30T07:51:52Z</time>
      </trkpt>
      <trkpt lat="42.76354" lon="1.85341">
        <ele>1341.4</ele>
        <time>2024-06-30T07:51:53Z</time>
      </trkpt>
      <trkpt lat="42.76336" lon="1.85358">
        <ele>1340</ele>
        <time>2024-06-30T07:51:55Z</time>
      </trkpt>
      <trkpt lat="42.76323" lon="1.85379">
        <ele>1338.4</ele>
        <time>2024-06-30T07:51:57Z</time>
      </trkpt>
      <trkpt lat="42.76318" lon="1.85391">
        <ele>1337.4</ele>
        <time>2024-06-30T07:51:58Z</time>
      </trkpt>
      <trkpt lat="42.76313" lon="1.85403">
        <ele>1337</ele>
        <time>2024-06-30T07:51:59Z</time>
      </trkpt>
      <trkpt lat="42.76308" lon="1.85415">
        <ele>1335.6</ele>
        <time>2024-06-30T07:52:00Z</time>
      </trkpt>
      <trkpt lat="42.76303" lon="1.85427">
        <ele>1335.4</ele>
        <time>2024-06-30T07:52:01Z</time>
      </trkpt>
      <trkpt lat="42.76298" lon="1.85438">
        <ele>1334.6</ele>
        <time>2024-06-30T07:52:02Z</time>
      </trkpt>
      <trkpt lat="42.76293" lon="1.85449">
        <ele>1334.2</ele>
        <time>2024-06-30T07:52:03Z</time>
      </trkpt>
      <trkpt lat="42.76287" lon="1.85459">
        <ele>1333.6</ele>
        <time>2024-06-30T07:52:04Z</time>
      </trkpt>
      <trkpt lat="42.76281" lon="1.85465">
        <ele>1333</ele>
        <time>2024-06-30T07:52:05Z</time>
      </trkpt>
      <trkpt lat="42.76277" lon="1.85469">
        <ele>1332.2</ele>
        <time>2024-06-30T07:52:06Z</time>
      </trkpt>
      <trkpt lat="42.76272" lon="1.85476">
        <ele>1331.4</ele>
        <time>2024-06-30T07:52:07Z</time>
      </trkpt>
      <trkpt lat="42.7627" lon="1.85483">
        <ele>1331.2</ele>
        <time>2024-06-30T07:52:08Z</time>
      </trkpt>
      <trkpt lat="42.7627" lon="1.85489">
        <ele>1331</ele>
        <time>2024-06-30T07:52:09Z</time>
      </trkpt>
      <trkpt lat="42.76271" lon="1.85495">
        <ele>1331</ele>
        <time>2024-06-30T07:52:10Z</time>
      </trkpt>
      <trkpt lat="42.76272" lon="1.855">
        <ele>1330.8</ele>
        <time>2024-06-30T07:52:11Z</time>
      </trkpt>
      <trkpt lat="42.76274" lon="1.85507">
        <ele>1330.8</ele>
        <time>2024-06-30T07:52:12Z</time>
      </trkpt>
      <trkpt lat="42.76277" lon="1.85513">
        <ele>1330.8</ele>
        <time>2024-06-30T07:52:13Z</time>
      </trkpt>
      <trkpt lat="42.76281" lon="1.85519">
        <ele>1330.8</ele>
        <time>2024-06-30T07:52:14Z</time>
      </trkpt>
      <trkpt lat="42.76284" lon="1.85525">
        <ele>1331</ele>
        <time>2024-06-30T07:52:15Z</time>
      </trkpt>
      <trkpt lat="42.76306" lon="1.85561">
        <ele>1332.6</ele>
        <time>2024-06-30T07:52:21Z</time>
      </trkpt>
      <trkpt lat="42.76309" lon="1.85566">
        <ele>1333.2</ele>
        <time>2024-06-30T07:52:22Z</time>
      </trkpt>
      <trkpt lat="42.76317" lon="1.85576">
        <ele>1333.6</ele>
        <time>2024-06-30T07:52:24Z</time>
      </trkpt>
      <trkpt lat="42.76324" lon="1.85587">
        <ele>1334</ele>
        <time>2024-06-30T07:52:26Z</time>
      </trkpt>
      <trkpt lat="42.76327" lon="1.85592">
        <ele>1334.2</ele>
        <time>2024-06-30T07:52:27Z</time>
      </trkpt>
      <trkpt lat="42.76329" lon="1.85596">
        <ele>1334.4</ele>
        <time>2024-06-30T07:52:28Z</time>
      </trkpt>
      <trkpt lat="42.76333" lon="1.856">
        <ele>1334.6</ele>
        <time>2024-06-30T07:52:29Z</time>
      </trkpt>
      <trkpt lat="42.76336" lon="1.85604">
        <ele>1334.8</ele>
        <time>2024-06-30T07:52:30Z</time>
      </trkpt>
      <trkpt lat="42.76346" lon="1.85616">
        <ele>1335.4</ele>
        <time>2024-06-30T07:52:33Z</time>
      </trkpt>
      <trkpt lat="42.76349" lon="1.85619">
        <ele>1335.6</ele>
        <time>2024-06-30T07:52:34Z</time>
      </trkpt>
      <trkpt lat="42.76354" lon="1.8562">
        <ele>1335.6</ele>
        <time>2024-06-30T07:52:35Z</time>
      </trkpt>
      <trkpt lat="42.76359" lon="1.85622">
        <ele>1335.6</ele>
        <time>2024-06-30T07:52:36Z</time>
      </trkpt>
      <trkpt lat="42.76364" lon="1.85625">
        <ele>1335.4</ele>
        <time>2024-06-30T07:52:37Z</time>
      </trkpt>
      <trkpt lat="42.76368" lon="1.85631">
        <ele>1335.2</ele>
        <time>2024-06-30T07:52:38Z</time>
      </trkpt>
      <trkpt lat="42.76371" lon="1.85635">
        <ele>1335.2</ele>
        <time>2024-06-30T07:52:39Z</time>
      </trkpt>
      <trkpt lat="42.76375" lon="1.85639">
        <ele>1335</ele>
        <time>2024-06-30T07:52:40Z</time>
      </trkpt>
      <trkpt lat="42.76381" lon="1.85647">
        <ele>1334.2</ele>
        <time>2024-06-30T07:52:42Z</time>
      </trkpt>
      <trkpt lat="42.76385" lon="1.85651">
        <ele>1333.2</ele>
        <time>2024-06-30T07:52:43Z</time>
      </trkpt>
      <trkpt lat="42.76389" lon="1.85655">
        <ele>1332.8</ele>
        <time>2024-06-30T07:52:44Z</time>
      </trkpt>
      <trkpt lat="42.76394" lon="1.85661">
        <ele>1331.6</ele>
        <time>2024-06-30T07:52:45Z</time>
      </trkpt>
      <trkpt lat="42.76404" lon="1.85676">
        <ele>1329.8</ele>
        <time>2024-06-30T07:52:47Z</time>
      </trkpt>
      <trkpt lat="42.76408" lon="1.85688">
        <ele>1328</ele>
        <time>2024-06-30T07:52:49Z</time>
      </trkpt>
      <trkpt lat="42.76411" lon="1.85695">
        <ele>1327.6</ele>
        <time>2024-06-30T07:52:50Z</time>
      </trkpt>
      <trkpt lat="42.76415" lon="1.85703">
        <ele>1326.8</ele>
        <time>2024-06-30T07:52:51Z</time>
      </trkpt>
      <trkpt lat="42.76419" lon="1.85711">
        <ele>1326.4</ele>
        <time>2024-06-30T07:52:52Z</time>
      </trkpt>
      <trkpt lat="42.76425" lon="1.85731">
        <ele>1325.8</ele>
        <time>2024-06-30T07:52:54Z</time>
      </trkpt>
      <trkpt lat="42.76429" lon="1.85741">
        <ele>1325.6</ele>
        <time>2024-06-30T07:52:55Z</time>
      </trkpt>
      <trkpt lat="42.76431" lon="1.85751">
        <ele>1325.4</ele>
        <time>2024-06-30T07:52:56Z</time>
      </trkpt>
      <trkpt lat="42.76433" lon="1.85766">
        <ele>1324.6</ele>
        <time>2024-06-30T07:52:58Z</time>
      </trkpt>
      <trkpt lat="42.76434" lon="1.85773">
        <ele>1324.6</ele>
        <time>2024-06-30T07:52:59Z</time>
      </trkpt>
      <trkpt lat="42.76435" lon="1.8578">
        <ele>1324.2</ele>
        <time>2024-06-30T07:53:00Z</time>
      </trkpt>
      <trkpt lat="42.76437" lon="1.85785">
        <ele>1324.2</ele>
        <time>2024-06-30T07:53:01Z</time>
      </trkpt>
      <trkpt lat="42.76438" lon="1.85792">
        <ele>1324</ele>
        <time>2024-06-30T07:53:02Z</time>
      </trkpt>
      <trkpt lat="42.76441" lon="1.85799">
        <ele>1323.8</ele>
        <time>2024-06-30T07:53:03Z</time>
      </trkpt>
      <trkpt lat="42.76442" lon="1.85806">
        <ele>1323.8</ele>
        <time>2024-06-30T07:53:04Z</time>
      </trkpt>
      <trkpt lat="42.76444" lon="1.85812">
        <ele>1323.4</ele>
        <time>2024-06-30T07:53:05Z</time>
      </trkpt>
      <trkpt lat="42.76444" lon="1.85818">
        <ele>1323.2</ele>
        <time>2024-06-30T07:53:06Z</time>
      </trkpt>
      <trkpt lat="42.76444" lon="1.85825">
        <ele>1323.2</ele>
        <time>2024-06-30T07:53:07Z</time>
      </trkpt>
      <trkpt lat="42.76446" lon="1.85833">
        <ele>1323</ele>
        <time>2024-06-30T07:53:08Z</time>
      </trkpt>
      <trkpt lat="42.76447" lon="1.85845">
        <ele>1322.8</ele>
        <time>2024-06-30T07:53:10Z</time>
      </trkpt>
      <trkpt lat="42.76447" lon="1.8585">
        <ele>1322.4</ele>
        <time>2024-06-30T07:53:11Z</time>
      </trkpt>
      <trkpt lat="42.76448" lon="1.85857">
        <ele>1322</ele>
        <time>2024-06-30T07:53:12Z</time>
      </trkpt>
      <trkpt lat="42.76455" lon="1.85872">
        <ele>1321.6</ele>
        <time>2024-06-30T07:53:14Z</time>
      </trkpt>
      <trkpt lat="42.76458" lon="1.8588">
        <ele>1321.6</ele>
        <time>2024-06-30T07:53:15Z</time>
      </trkpt>
      <trkpt lat="42.76462" lon="1.8589">
        <ele>1321.4</ele>
        <time>2024-06-30T07:53:16Z</time>
      </trkpt>
      <trkpt lat="42.76465" lon="1.85901">
        <ele>1321.2</ele>
        <time>2024-06-30T07:53:17Z</time>
      </trkpt>
      <trkpt lat="42.76466" lon="1.85911">
        <ele>1320.8</ele>
        <time>2024-06-30T07:53:18Z</time>
      </trkpt>
      <trkpt lat="42.7647" lon="1.85924">
        <ele>1320.6</ele>
        <time>2024-06-30T07:53:19Z</time>
      </trkpt>
      <trkpt lat="42.76474" lon="1.85936">
        <ele>1320</ele>
        <time>2024-06-30T07:53:20Z</time>
      </trkpt>
      <trkpt lat="42.76485" lon="1.85958">
        <ele>1319</ele>
        <time>2024-06-30T07:53:22Z</time>
      </trkpt>
      <trkpt lat="42.7649" lon="1.85968">
        <ele>1318.4</ele>
        <time>2024-06-30T07:53:23Z</time>
      </trkpt>
      <trkpt lat="42.76495" lon="1.85979">
        <ele>1317.8</ele>
        <time>2024-06-30T07:53:24Z</time>
      </trkpt>
      <trkpt lat="42.76498" lon="1.85988">
        <ele>1316.8</ele>
        <time>2024-06-30T07:53:25Z</time>
      </trkpt>
      <trkpt lat="42.76501" lon="1.85999">
        <ele>1316.4</ele>
        <time>2024-06-30T07:53:26Z</time>
      </trkpt>
      <trkpt lat="42.76504" lon="1.86008">
        <ele>1315.4</ele>
        <time>2024-06-30T07:53:27Z</time>
      </trkpt>
      <trkpt lat="42.76504" lon="1.86017">
        <ele>1315</ele>
        <time>2024-06-30T07:53:28Z</time>
      </trkpt>
      <trkpt lat="42.76505" lon="1.86025">
        <ele>1314.4</ele>
        <time>2024-06-30T07:53:29Z</time>
      </trkpt>
      <trkpt lat="42.76506" lon="1.86033">
        <ele>1313.6</ele>
        <time>2024-06-30T07:53:30Z</time>
      </trkpt>
      <trkpt lat="42.76509" lon="1.86043">
        <ele>1313.2</ele>
        <time>2024-06-30T07:53:31Z</time>
      </trkpt>
      <trkpt lat="42.7651" lon="1.86052">
        <ele>1312.6</ele>
        <time>2024-06-30T07:53:32Z</time>
      </trkpt>
      <trkpt lat="42.76513" lon="1.8606">
        <ele>1312.4</ele>
        <time>2024-06-30T07:53:33Z</time>
      </trkpt>
      <trkpt lat="42.76514" lon="1.86069">
        <ele>1312.2</ele>
        <time>2024-06-30T07:53:34Z</time>
      </trkpt>
      <trkpt lat="42.76522" lon="1.86091">
        <ele>1311.6</ele>
        <time>2024-06-30T07:53:36Z</time>
      </trkpt>
      <trkpt lat="42.76525" lon="1.86099">
        <ele>1311.6</ele>
        <time>2024-06-30T07:53:37Z</time>
      </trkpt>
      <trkpt lat="42.76529" lon="1.86108">
        <ele>1311</ele>
        <time>2024-06-30T07:53:38Z</time>
      </trkpt>
      <trkpt lat="42.76533" lon="1.86116">
        <ele>1310.4</ele>
        <time>2024-06-30T07:53:39Z</time>
      </trkpt>
      <trkpt lat="42.76535" lon="1.86123">
        <ele>1310</ele>
        <time>2024-06-30T07:53:40Z</time>
      </trkpt>
      <trkpt lat="42.76537" lon="1.8613">
        <ele>1309.4</ele>
        <time>2024-06-30T07:53:41Z</time>
      </trkpt>
      <trkpt lat="42.76539" lon="1.86132">
        <ele>1309</ele>
        <time>2024-06-30T07:53:42Z</time>
      </trkpt>
      <trkpt lat="42.76542" lon="1.86133">
        <ele>1308.4</ele>
        <time>2024-06-30T07:53:43Z</time>
      </trkpt>
      <trkpt lat="42.76545" lon="1.86133">
        <ele>1308</ele>
        <time>2024-06-30T07:53:44Z</time>
      </trkpt>
      <trkpt lat="42.76548" lon="1.86134">
        <ele>1307</ele>
        <time>2024-06-30T07:53:45Z</time>
      </trkpt>
      <trkpt lat="42.7655" lon="1.86137">
        <ele>1306.4</ele>
        <time>2024-06-30T07:53:46Z</time>
      </trkpt>
      <trkpt lat="42.76554" lon="1.86142">
        <ele>1305.2</ele>
        <time>2024-06-30T07:53:47Z</time>
      </trkpt>
      <trkpt lat="42.76559" lon="1.86148">
        <ele>1303.8</ele>
        <time>2024-06-30T07:53:48Z</time>
      </trkpt>
      <trkpt lat="42.76572" lon="1.86166">
        <ele>1302.2</ele>
        <time>2024-06-30T07:53:51Z</time>
      </trkpt>
      <trkpt lat="42.76578" lon="1.86173">
        <ele>1301.6</ele>
        <time>2024-06-30T07:53:53Z</time>
      </trkpt>
      <trkpt lat="42.76582" lon="1.86178">
        <ele>1301.2</ele>
        <time>2024-06-30T07:53:54Z</time>
      </trkpt>
      <trkpt lat="42.76586" lon="1.86183">
        <ele>1301</ele>
        <time>2024-06-30T07:53:55Z</time>
      </trkpt>
      <trkpt lat="42.7659" lon="1.86185">
        <ele>1299.8</ele>
        <time>2024-06-30T07:53:56Z</time>
      </trkpt>
      <trkpt lat="42.76596" lon="1.86189">
        <ele>1298.4</ele>
        <time>2024-06-30T07:53:57Z</time>
      </trkpt>
      <trkpt lat="42.76612" lon="1.86198">
        <ele>1297.6</ele>
        <time>2024-06-30T07:53:58Z</time>
      </trkpt>
      <trkpt lat="42.7662" lon="1.86205">
        <ele>1296.4</ele>
        <time>2024-06-30T07:53:59Z</time>
      </trkpt>
      <trkpt lat="42.76627" lon="1.86212">
        <ele>1295.8</ele>
        <time>2024-06-30T07:54:00Z</time>
      </trkpt>
      <trkpt lat="42.76635" lon="1.8622">
        <ele>1294.2</ele>
        <time>2024-06-30T07:54:01Z</time>
      </trkpt>
      <trkpt lat="42.7664" lon="1.86226">
        <ele>1293.6</ele>
        <time>2024-06-30T07:54:02Z</time>
      </trkpt>
      <trkpt lat="42.76644" lon="1.86235">
        <ele>1292.6</ele>
        <time>2024-06-30T07:54:03Z</time>
      </trkpt>
      <trkpt lat="42.7665" lon="1.86243">
        <ele>1291.6</ele>
        <time>2024-06-30T07:54:04Z</time>
      </trkpt>
      <trkpt lat="42.76653" lon="1.86251">
        <ele>1290.6</ele>
        <time>2024-06-30T07:54:05Z</time>
      </trkpt>
      <trkpt lat="42.76662" lon="1.8627">
        <ele>1289.6</ele>
        <time>2024-06-30T07:54:07Z</time>
      </trkpt>
      <trkpt lat="42.76663" lon="1.86277">
        <ele>1288.8</ele>
        <time>2024-06-30T07:54:08Z</time>
      </trkpt>
      <trkpt lat="42.76664" lon="1.86285">
        <ele>1288.4</ele>
        <time>2024-06-30T07:54:09Z</time>
      </trkpt>
      <trkpt lat="42.7667" lon="1.86304">
        <ele>1287.6</ele>
        <time>2024-06-30T07:54:11Z</time>
      </trkpt>
      <trkpt lat="42.76672" lon="1.86313">
        <ele>1287.4</ele>
        <time>2024-06-30T07:54:12Z</time>
      </trkpt>
      <trkpt lat="42.76673" lon="1.86323">
        <ele>1287.2</ele>
        <time>2024-06-30T07:54:13Z</time>
      </trkpt>
      <trkpt lat="42.76673" lon="1.86332">
        <ele>1286.8</ele>
        <time>2024-06-30T07:54:14Z</time>
      </trkpt>
      <trkpt lat="42.76673" lon="1.8634">
        <ele>1286.4</ele>
        <time>2024-06-30T07:54:15Z</time>
      </trkpt>
      <trkpt lat="42.76673" lon="1.86349">
        <ele>1286.2</ele>
        <time>2024-06-30T07:54:16Z</time>
      </trkpt>
      <trkpt lat="42.76673" lon="1.86359">
        <ele>1285.8</ele>
        <time>2024-06-30T07:54:17Z</time>
      </trkpt>
      <trkpt lat="42.76671" lon="1.86376">
        <ele>1284.8</ele>
        <time>2024-06-30T07:54:19Z</time>
      </trkpt>
      <trkpt lat="42.76671" lon="1.86385">
        <ele>1284.4</ele>
        <time>2024-06-30T07:54:20Z</time>
      </trkpt>
      <trkpt lat="42.7667" lon="1.86392">
        <ele>1284.2</ele>
        <time>2024-06-30T07:54:21Z</time>
      </trkpt>
      <trkpt lat="42.76668" lon="1.86399">
        <ele>1284</ele>
        <time>2024-06-30T07:54:22Z</time>
      </trkpt>
      <trkpt lat="42.76667" lon="1.86407">
        <ele>1283.8</ele>
        <time>2024-06-30T07:54:23Z</time>
      </trkpt>
      <trkpt lat="42.76669" lon="1.86417">
        <ele>1283.4</ele>
        <time>2024-06-30T07:54:24Z</time>
      </trkpt>
      <trkpt lat="42.76672" lon="1.86428">
        <ele>1282.8</ele>
        <time>2024-06-30T07:54:25Z</time>
      </trkpt>
      <trkpt lat="42.76675" lon="1.86437">
        <ele>1282.4</ele>
        <time>2024-06-30T07:54:26Z</time>
      </trkpt>
      <trkpt lat="42.76678" lon="1.86444">
        <ele>1282</ele>
        <time>2024-06-30T07:54:27Z</time>
      </trkpt>
      <trkpt lat="42.76682" lon="1.86449">
        <ele>1281.8</ele>
        <time>2024-06-30T07:54:28Z</time>
      </trkpt>
      <trkpt lat="42.76687" lon="1.86454">
        <ele>1281.6</ele>
        <time>2024-06-30T07:54:29Z</time>
      </trkpt>
      <trkpt lat="42.76693" lon="1.86459">
        <ele>1281.4</ele>
        <time>2024-06-30T07:54:30Z</time>
      </trkpt>
      <trkpt lat="42.76695" lon="1.86464">
        <ele>1281.2</ele>
        <time>2024-06-30T07:54:31Z</time>
      </trkpt>
      <trkpt lat="42.76696" lon="1.8647">
        <ele>1280.6</ele>
        <time>2024-06-30T07:54:32Z</time>
      </trkpt>
      <trkpt lat="42.76696" lon="1.86477">
        <ele>1280</ele>
        <time>2024-06-30T07:54:33Z</time>
      </trkpt>
      <trkpt lat="42.76694" lon="1.86483">
        <ele>1278.2</ele>
        <time>2024-06-30T07:54:34Z</time>
      </trkpt>
      <trkpt lat="42.76692" lon="1.86486">
        <ele>1276.6</ele>
        <time>2024-06-30T07:54:35Z</time>
      </trkpt>
      <trkpt lat="42.76691" lon="1.86489">
        <ele>1276.2</ele>
        <time>2024-06-30T07:54:36Z</time>
      </trkpt>
      <trkpt lat="42.7669" lon="1.86491">
        <ele>1274.2</ele>
        <time>2024-06-30T07:54:37Z</time>
      </trkpt>
      <trkpt lat="42.76691" lon="1.86493">
        <ele>1273.8</ele>
        <time>2024-06-30T07:54:38Z</time>
      </trkpt>
      <trkpt lat="42.76692" lon="1.86493">
        <ele>1273</ele>
        <time>2024-06-30T07:54:39Z</time>
      </trkpt>
      <trkpt lat="42.76696" lon="1.86487">
        <ele>1271.8</ele>
        <time>2024-06-30T07:54:41Z</time>
      </trkpt>
      <trkpt lat="42.76707" lon="1.86482">
        <ele>1270.8</ele>
        <time>2024-06-30T07:54:44Z</time>
      </trkpt>
      <trkpt lat="42.76711" lon="1.86483">
        <ele>1270.8</ele>
        <time>2024-06-30T07:54:45Z</time>
      </trkpt>
      <trkpt lat="42.76715" lon="1.86486">
        <ele>1270.4</ele>
        <time>2024-06-30T07:54:46Z</time>
      </trkpt>
      <trkpt lat="42.76718" lon="1.86488">
        <ele>1270</ele>
        <time>2024-06-30T07:54:47Z</time>
      </trkpt>
      <trkpt lat="42.76721" lon="1.8649">
        <ele>1270</ele>
        <time>2024-06-30T07:54:48Z</time>
      </trkpt>
      <trkpt lat="42.76724" lon="1.86492">
        <ele>1270</ele>
        <time>2024-06-30T07:54:49Z</time>
      </trkpt>
      <trkpt lat="42.76727" lon="1.86495">
        <ele>1269.8</ele>
        <time>2024-06-30T07:54:50Z</time>
      </trkpt>
      <trkpt lat="42.76732" lon="1.86498">
        <ele>1269.8</ele>
        <time>2024-06-30T07:54:51Z</time>
      </trkpt>
      <trkpt lat="42.76737" lon="1.86503">
        <ele>1270</ele>
        <time>2024-06-30T07:54:53Z</time>
      </trkpt>
      <trkpt lat="42.76745" lon="1.86516">
        <ele>1270.6</ele>
        <time>2024-06-30T07:54:56Z</time>
      </trkpt>
      <trkpt lat="42.76766" lon="1.86539">
        <ele>1271</ele>
        <time>2024-06-30T07:55:00Z</time>
      </trkpt>
      <trkpt lat="42.76773" lon="1.86545">
        <ele>1271.2</ele>
        <time>2024-06-30T07:55:01Z</time>
      </trkpt>
      <trkpt lat="42.76776" lon="1.86549">
        <ele>1271.2</ele>
        <time>2024-06-30T07:55:02Z</time>
      </trkpt>
      <trkpt lat="42.76779" lon="1.86553">
        <ele>1271.2</ele>
        <time>2024-06-30T07:55:03Z</time>
      </trkpt>
      <trkpt lat="42.76782" lon="1.86558">
        <ele>1271.2</ele>
        <time>2024-06-30T07:55:04Z</time>
      </trkpt>
      <trkpt lat="42.76786" lon="1.86562">
        <ele>1271.2</ele>
        <time>2024-06-30T07:55:05Z</time>
      </trkpt>
      <trkpt lat="42.7679" lon="1.86568">
        <ele>1271.2</ele>
        <time>2024-06-30T07:55:06Z</time>
      </trkpt>
      <trkpt lat="42.76795" lon="1.86573">
        <ele>1271.2</ele>
        <time>2024-06-30T07:55:07Z</time>
      </trkpt>
      <trkpt lat="42.76803" lon="1.86583">
        <ele>1271.4</ele>
        <time>2024-06-30T07:55:09Z</time>
      </trkpt>
      <trkpt lat="42.76806" lon="1.86587">
        <ele>1271.6</ele>
        <time>2024-06-30T07:55:10Z</time>
      </trkpt>
      <trkpt lat="42.7681" lon="1.86591">
        <ele>1271.8</ele>
        <time>2024-06-30T07:55:11Z</time>
      </trkpt>
      <trkpt lat="42.76816" lon="1.86599">
        <ele>1272.4</ele>
        <time>2024-06-30T07:55:13Z</time>
      </trkpt>
      <trkpt lat="42.76826" lon="1.86607">
        <ele>1272.8</ele>
        <time>2024-06-30T07:55:15Z</time>
      </trkpt>
      <trkpt lat="42.76839" lon="1.86618">
        <ele>1273</ele>
        <time>2024-06-30T07:55:18Z</time>
      </trkpt>
      <trkpt lat="42.76843" lon="1.86618">
        <ele>1273.2</ele>
        <time>2024-06-30T07:55:19Z</time>
      </trkpt>
      <trkpt lat="42.76849" lon="1.86615">
        <ele>1273</ele>
        <time>2024-06-30T07:55:20Z</time>
      </trkpt>
      <trkpt lat="42.76854" lon="1.8661">
        <ele>1273</ele>
        <time>2024-06-30T07:55:21Z</time>
      </trkpt>
      <trkpt lat="42.76864" lon="1.866">
        <ele>1272.8</ele>
        <time>2024-06-30T07:55:23Z</time>
      </trkpt>
      <trkpt lat="42.76877" lon="1.86593">
        <ele>1271.4</ele>
        <time>2024-06-30T07:55:25Z</time>
      </trkpt>
      <trkpt lat="42.76891" lon="1.8659">
        <ele>1270.2</ele>
        <time>2024-06-30T07:55:27Z</time>
      </trkpt>
      <trkpt lat="42.76898" lon="1.8659">
        <ele>1269</ele>
        <time>2024-06-30T07:55:28Z</time>
      </trkpt>
      <trkpt lat="42.76906" lon="1.86589">
        <ele>1268.4</ele>
        <time>2024-06-30T07:55:29Z</time>
      </trkpt>
      <trkpt lat="42.76914" lon="1.8659">
        <ele>1266.8</ele>
        <time>2024-06-30T07:55:30Z</time>
      </trkpt>
      <trkpt lat="42.76931" lon="1.86596">
        <ele>1265.6</ele>
        <time>2024-06-30T07:55:32Z</time>
      </trkpt>
      <trkpt lat="42.76938" lon="1.86599">
        <ele>1265</ele>
        <time>2024-06-30T07:55:33Z</time>
      </trkpt>
      <trkpt lat="42.76946" lon="1.86602">
        <ele>1264.4</ele>
        <time>2024-06-30T07:55:34Z</time>
      </trkpt>
      <trkpt lat="42.76953" lon="1.86604">
        <ele>1262.8</ele>
        <time>2024-06-30T07:55:35Z</time>
      </trkpt>
      <trkpt lat="42.76959" lon="1.86607">
        <ele>1262.2</ele>
        <time>2024-06-30T07:55:36Z</time>
      </trkpt>
      <trkpt lat="42.76965" lon="1.8661">
        <ele>1260.8</ele>
        <time>2024-06-30T07:55:37Z</time>
      </trkpt>
      <trkpt lat="42.7697" lon="1.86614">
        <ele>1260</ele>
        <time>2024-06-30T07:55:38Z</time>
      </trkpt>
      <trkpt lat="42.76975" lon="1.86619">
        <ele>1259.4</ele>
        <time>2024-06-30T07:55:39Z</time>
      </trkpt>
      <trkpt lat="42.76985" lon="1.86628">
        <ele>1258.8</ele>
        <time>2024-06-30T07:55:41Z</time>
      </trkpt>
      <trkpt lat="42.76991" lon="1.86631">
        <ele>1258.4</ele>
        <time>2024-06-30T07:55:42Z</time>
      </trkpt>
      <trkpt lat="42.76996" lon="1.86635">
        <ele>1258</ele>
        <time>2024-06-30T07:55:43Z</time>
      </trkpt>
      <trkpt lat="42.77" lon="1.86638">
        <ele>1257.2</ele>
        <time>2024-06-30T07:55:44Z</time>
      </trkpt>
      <trkpt lat="42.77004" lon="1.86643">
        <ele>1256.8</ele>
        <time>2024-06-30T07:55:45Z</time>
      </trkpt>
      <trkpt lat="42.77008" lon="1.86649">
        <ele>1256.2</ele>
        <time>2024-06-30T07:55:46Z</time>
      </trkpt>
      <trkpt lat="42.77016" lon="1.8666">
        <ele>1255.4</ele>
        <time>2024-06-30T07:55:48Z</time>
      </trkpt>
      <trkpt lat="42.7702" lon="1.86665">
        <ele>1255.2</ele>
        <time>2024-06-30T07:55:49Z</time>
      </trkpt>
      <trkpt lat="42.77024" lon="1.86671">
        <ele>1255.2</ele>
        <time>2024-06-30T07:55:50Z</time>
      </trkpt>
      <trkpt lat="42.77028" lon="1.86677">
        <ele>1254.8</ele>
        <time>2024-06-30T07:55:51Z</time>
      </trkpt>
      <trkpt lat="42.77035" lon="1.86699">
        <ele>1254.6</ele>
        <time>2024-06-30T07:55:54Z</time>
      </trkpt>
      <trkpt lat="42.77042" lon="1.86719">
        <ele>1254.4</ele>
        <time>2024-06-30T07:55:57Z</time>
      </trkpt>
      <trkpt lat="42.77047" lon="1.86733">
        <ele>1254.2</ele>
        <time>2024-06-30T07:55:59Z</time>
      </trkpt>
      <trkpt lat="42.77052" lon="1.86748">
        <ele>1253.6</ele>
        <time>2024-06-30T07:56:01Z</time>
      </trkpt>
      <trkpt lat="42.77055" lon="1.86763">
        <ele>1253.8</ele>
        <time>2024-06-30T07:56:03Z</time>
      </trkpt>
      <trkpt lat="42.7706" lon="1.86788">
        <ele>1253.8</ele>
        <time>2024-06-30T07:56:06Z</time>
      </trkpt>
      <trkpt lat="42.77062" lon="1.86795">
        <ele>1253.8</ele>
        <time>2024-06-30T07:56:07Z</time>
      </trkpt>
      <trkpt lat="42.77069" lon="1.86816">
        <ele>1253.8</ele>
        <time>2024-06-30T07:56:10Z</time>
      </trkpt>
      <trkpt lat="42.7707" lon="1.86822">
        <ele>1253.8</ele>
        <time>2024-06-30T07:56:11Z</time>
      </trkpt>
      <trkpt lat="42.77071" lon="1.86827">
        <ele>1253.8</ele>
        <time>2024-06-30T07:56:12Z</time>
      </trkpt>
      <trkpt lat="42.77073" lon="1.86833">
        <ele>1253.8</ele>
        <time>2024-06-30T07:56:13Z</time>
      </trkpt>
      <trkpt lat="42.77077" lon="1.86846">
        <ele>1253.4</ele>
        <time>2024-06-30T07:56:15Z</time>
      </trkpt>
      <trkpt lat="42.77079" lon="1.86853">
        <ele>1253.4</ele>
        <time>2024-06-30T07:56:16Z</time>
      </trkpt>
      <trkpt lat="42.77081" lon="1.8686">
        <ele>1253.2</ele>
        <time>2024-06-30T07:56:17Z</time>
      </trkpt>
      <trkpt lat="42.77084" lon="1.8688">
        <ele>1253</ele>
        <time>2024-06-30T07:56:20Z</time>
      </trkpt>
      <trkpt lat="42.77084" lon="1.86885">
        <ele>1253</ele>
        <time>2024-06-30T07:56:21Z</time>
      </trkpt>
      <trkpt lat="42.77085" lon="1.86891">
        <ele>1252.8</ele>
        <time>2024-06-30T07:56:22Z</time>
      </trkpt>
      <trkpt lat="42.77091" lon="1.86903">
        <ele>1252.4</ele>
        <time>2024-06-30T07:56:24Z</time>
      </trkpt>
      <trkpt lat="42.77094" lon="1.86909">
        <ele>1252.4</ele>
        <time>2024-06-30T07:56:25Z</time>
      </trkpt>
      <trkpt lat="42.77103" lon="1.86927">
        <ele>1252</ele>
        <time>2024-06-30T07:56:28Z</time>
      </trkpt>
      <trkpt lat="42.77104" lon="1.86934">
        <ele>1252</ele>
        <time>2024-06-30T07:56:29Z</time>
      </trkpt>
      <trkpt lat="42.77105" lon="1.8694">
        <ele>1251.8</ele>
        <time>2024-06-30T07:56:30Z</time>
      </trkpt>
      <trkpt lat="42.77106" lon="1.86946">
        <ele>1251.8</ele>
        <time>2024-06-30T07:56:31Z</time>
      </trkpt>
      <trkpt lat="42.77109" lon="1.86951">
        <ele>1251.8</ele>
        <time>2024-06-30T07:56:32Z</time>
      </trkpt>
      <trkpt lat="42.77113" lon="1.86955">
        <ele>1251.4</ele>
        <time>2024-06-30T07:56:33Z</time>
      </trkpt>
      <trkpt lat="42.77119" lon="1.86958">
        <ele>1251.2</ele>
        <time>2024-06-30T07:56:34Z</time>
      </trkpt>
      <trkpt lat="42.77125" lon="1.86961">
        <ele>1250.8</ele>
        <time>2024-06-30T07:56:35Z</time>
      </trkpt>
      <trkpt lat="42.77132" lon="1.86963">
        <ele>1250.6</ele>
        <time>2024-06-30T07:56:36Z</time>
      </trkpt>
      <trkpt lat="42.7714" lon="1.86964">
        <ele>1250.4</ele>
        <time>2024-06-30T07:56:37Z</time>
      </trkpt>
      <trkpt lat="42.77148" lon="1.86964">
        <ele>1250.2</ele>
        <time>2024-06-30T07:56:38Z</time>
      </trkpt>
      <trkpt lat="42.77163" lon="1.86963">
        <ele>1249</ele>
        <time>2024-06-30T07:56:40Z</time>
      </trkpt>
      <trkpt lat="42.7718" lon="1.86961">
        <ele>1247.8</ele>
        <time>2024-06-30T07:56:42Z</time>
      </trkpt>
      <trkpt lat="42.77196" lon="1.86961">
        <ele>1246.6</ele>
        <time>2024-06-30T07:56:44Z</time>
      </trkpt>
      <trkpt lat="42.77203" lon="1.86961">
        <ele>1246.2</ele>
        <time>2024-06-30T07:56:45Z</time>
      </trkpt>
      <trkpt lat="42.7721" lon="1.86961">
        <ele>1245.2</ele>
        <time>2024-06-30T07:56:46Z</time>
      </trkpt>
      <trkpt lat="42.77217" lon="1.86961">
        <ele>1244.4</ele>
        <time>2024-06-30T07:56:47Z</time>
      </trkpt>
      <trkpt lat="42.77225" lon="1.86961">
        <ele>1244</ele>
        <time>2024-06-30T07:56:48Z</time>
      </trkpt>
      <trkpt lat="42.77232" lon="1.86962">
        <ele>1243.2</ele>
        <time>2024-06-30T07:56:49Z</time>
      </trkpt>
      <trkpt lat="42.77237" lon="1.86964">
        <ele>1243</ele>
        <time>2024-06-30T07:56:50Z</time>
      </trkpt>
      <trkpt lat="42.77243" lon="1.86966">
        <ele>1242.4</ele>
        <time>2024-06-30T07:56:51Z</time>
      </trkpt>
      <trkpt lat="42.77248" lon="1.86968">
        <ele>1242.2</ele>
        <time>2024-06-30T07:56:52Z</time>
      </trkpt>
      <trkpt lat="42.77253" lon="1.8697">
        <ele>1241.8</ele>
        <time>2024-06-30T07:56:53Z</time>
      </trkpt>
      <trkpt lat="42.77273" lon="1.86976">
        <ele>1240.4</ele>
        <time>2024-06-30T07:56:56Z</time>
      </trkpt>
      <trkpt lat="42.77279" lon="1.86979">
        <ele>1240.2</ele>
        <time>2024-06-30T07:56:57Z</time>
      </trkpt>
      <trkpt lat="42.77285" lon="1.86981">
        <ele>1239.6</ele>
        <time>2024-06-30T07:56:58Z</time>
      </trkpt>
      <trkpt lat="42.7729" lon="1.86982">
        <ele>1239.4</ele>
        <time>2024-06-30T07:56:59Z</time>
      </trkpt>
      <trkpt lat="42.77295" lon="1.86984">
        <ele>1239.2</ele>
        <time>2024-06-30T07:57:00Z</time>
      </trkpt>
      <trkpt lat="42.77301" lon="1.86988">
        <ele>1239</ele>
        <time>2024-06-30T07:57:01Z</time>
      </trkpt>
      <trkpt lat="42.77313" lon="1.86994">
        <ele>1238</ele>
        <time>2024-06-30T07:57:03Z</time>
      </trkpt>
      <trkpt lat="42.77329" lon="1.87002">
        <ele>1237.6</ele>
        <time>2024-06-30T07:57:06Z</time>
      </trkpt>
      <trkpt lat="42.77333" lon="1.87004">
        <ele>1237.6</ele>
        <time>2024-06-30T07:57:07Z</time>
      </trkpt>
      <trkpt lat="42.77355" lon="1.87016">
        <ele>1236.8</ele>
        <time>2024-06-30T07:57:11Z</time>
      </trkpt>
      <trkpt lat="42.77361" lon="1.87018">
        <ele>1236.4</ele>
        <time>2024-06-30T07:57:12Z</time>
      </trkpt>
      <trkpt lat="42.77398" lon="1.87031">
        <ele>1235.6</ele>
        <time>2024-06-30T07:57:18Z</time>
      </trkpt>
      <trkpt lat="42.7741" lon="1.87034">
        <ele>1235.2</ele>
        <time>2024-06-30T07:57:20Z</time>
      </trkpt>
      <trkpt lat="42.7742" lon="1.87037">
        <ele>1235</ele>
        <time>2024-06-30T07:57:22Z</time>
      </trkpt>
      <trkpt lat="42.77426" lon="1.87039">
        <ele>1235</ele>
        <time>2024-06-30T07:57:23Z</time>
      </trkpt>
      <trkpt lat="42.77431" lon="1.8704">
        <ele>1235</ele>
        <time>2024-06-30T07:57:24Z</time>
      </trkpt>
      <trkpt lat="42.77437" lon="1.87042">
        <ele>1234.8</ele>
        <time>2024-06-30T07:57:25Z</time>
      </trkpt>
      <trkpt lat="42.77443" lon="1.87043">
        <ele>1234.8</ele>
        <time>2024-06-30T07:57:26Z</time>
      </trkpt>
      <trkpt lat="42.77492" lon="1.87056">
        <ele>1234.2</ele>
        <time>2024-06-30T07:57:34Z</time>
      </trkpt>
      <trkpt lat="42.77519" lon="1.87059">
        <ele>1233.6</ele>
        <time>2024-06-30T07:57:38Z</time>
      </trkpt>
      <trkpt lat="42.77525" lon="1.87059">
        <ele>1233.4</ele>
        <time>2024-06-30T07:57:39Z</time>
      </trkpt>
      <trkpt lat="42.77537" lon="1.87059">
        <ele>1233.2</ele>
        <time>2024-06-30T07:57:41Z</time>
      </trkpt>
      <trkpt lat="42.77549" lon="1.87058">
        <ele>1232.8</ele>
        <time>2024-06-30T07:57:43Z</time>
      </trkpt>
      <trkpt lat="42.77554" lon="1.87057">
        <ele>1232.8</ele>
        <time>2024-06-30T07:57:44Z</time>
      </trkpt>
      <trkpt lat="42.77558" lon="1.87056">
        <ele>1232.6</ele>
        <time>2024-06-30T07:57:45Z</time>
      </trkpt>
      <trkpt lat="42.77563" lon="1.87055">
        <ele>1232.4</ele>
        <time>2024-06-30T07:57:46Z</time>
      </trkpt>
      <trkpt lat="42.77567" lon="1.87055">
        <ele>1232.4</ele>
        <time>2024-06-30T07:57:47Z</time>
      </trkpt>
      <trkpt lat="42.77573" lon="1.87056">
        <ele>1232.2</ele>
        <time>2024-06-30T07:57:48Z</time>
      </trkpt>
      <trkpt lat="42.77582" lon="1.87059">
        <ele>1232.2</ele>
        <time>2024-06-30T07:57:50Z</time>
      </trkpt>
      <trkpt lat="42.77617" lon="1.87078">
        <ele>1231.8</ele>
        <time>2024-06-30T07:57:56Z</time>
      </trkpt>
      <trkpt lat="42.77623" lon="1.87081">
        <ele>1231.8</ele>
        <time>2024-06-30T07:57:57Z</time>
      </trkpt>
      <trkpt lat="42.77627" lon="1.87083">
        <ele>1231.6</ele>
        <time>2024-06-30T07:57:58Z</time>
      </trkpt>
      <trkpt lat="42.77633" lon="1.87086">
        <ele>1231.6</ele>
        <time>2024-06-30T07:57:59Z</time>
      </trkpt>
      <trkpt lat="42.7765" lon="1.87093">
        <ele>1231.6</ele>
        <time>2024-06-30T07:58:02Z</time>
      </trkpt>
      <trkpt lat="42.77655" lon="1.87097">
        <ele>1231.4</ele>
        <time>2024-06-30T07:58:03Z</time>
      </trkpt>
      <trkpt lat="42.7767" lon="1.87112">
        <ele>1231.4</ele>
        <time>2024-06-30T07:58:06Z</time>
      </trkpt>
      <trkpt lat="42.777" lon="1.87153">
        <ele>1230.8</ele>
        <time>2024-06-30T07:58:13Z</time>
      </trkpt>
      <trkpt lat="42.77713" lon="1.87171">
        <ele>1230.8</ele>
        <time>2024-06-30T07:58:16Z</time>
      </trkpt>
      <trkpt lat="42.77723" lon="1.87181">
        <ele>1230.4</ele>
        <time>2024-06-30T07:58:18Z</time>
      </trkpt>
      <trkpt lat="42.77727" lon="1.87186">
        <ele>1230.2</ele>
        <time>2024-06-30T07:58:19Z</time>
      </trkpt>
      <trkpt lat="42.7774" lon="1.87201">
        <ele>1229.8</ele>
        <time>2024-06-30T07:58:22Z</time>
      </trkpt>
      <trkpt lat="42.77745" lon="1.87206">
        <ele>1229.8</ele>
        <time>2024-06-30T07:58:23Z</time>
      </trkpt>
      <trkpt lat="42.77749" lon="1.8721">
        <ele>1229.8</ele>
        <time>2024-06-30T07:58:24Z</time>
      </trkpt>
      <trkpt lat="42.77754" lon="1.87215">
        <ele>1229.6</ele>
        <time>2024-06-30T07:58:25Z</time>
      </trkpt>
      <trkpt lat="42.77758" lon="1.87219">
        <ele>1229.6</ele>
        <time>2024-06-30T07:58:26Z</time>
      </trkpt>
      <trkpt lat="42.77763" lon="1.87223">
        <ele>1229.4</ele>
        <time>2024-06-30T07:58:27Z</time>
      </trkpt>
      <trkpt lat="42.77794" lon="1.87244">
        <ele>1228.8</ele>
        <time>2024-06-30T07:58:33Z</time>
      </trkpt>
      <trkpt lat="42.77799" lon="1.87246">
        <ele>1229</ele>
        <time>2024-06-30T07:58:34Z</time>
      </trkpt>
      <trkpt lat="42.77816" lon="1.8725">
        <ele>1228.8</ele>
        <time>2024-06-30T07:58:37Z</time>
      </trkpt>
      <trkpt lat="42.77821" lon="1.87252">
        <ele>1228.6</ele>
        <time>2024-06-30T07:58:38Z</time>
      </trkpt>
      <trkpt lat="42.77826" lon="1.87254">
        <ele>1228.6</ele>
        <time>2024-06-30T07:58:39Z</time>
      </trkpt>
      <trkpt lat="42.77832" lon="1.87257">
        <ele>1228.6</ele>
        <time>2024-06-30T07:58:40Z</time>
      </trkpt>
      <trkpt lat="42.77842" lon="1.87265">
        <ele>1228.2</ele>
        <time>2024-06-30T07:58:42Z</time>
      </trkpt>
      <trkpt lat="42.77851" lon="1.87276">
        <ele>1228</ele>
        <time>2024-06-30T07:58:44Z</time>
      </trkpt>
      <trkpt lat="42.7789" lon="1.87328">
        <ele>1227.8</ele>
        <time>2024-06-30T07:58:53Z</time>
      </trkpt>
      <trkpt lat="42.77914" lon="1.87357">
        <ele>1227.6</ele>
        <time>2024-06-30T07:58:58Z</time>
      </trkpt>
      <trkpt lat="42.77918" lon="1.87361">
        <ele>1227.6</ele>
        <time>2024-06-30T07:58:59Z</time>
      </trkpt>
      <trkpt lat="42.77933" lon="1.87374">
        <ele>1227</ele>
        <time>2024-06-30T07:59:02Z</time>
      </trkpt>
      <trkpt lat="42.77938" lon="1.87378">
        <ele>1227</ele>
        <time>2024-06-30T07:59:03Z</time>
      </trkpt>
      <trkpt lat="42.77943" lon="1.87382">
        <ele>1227</ele>
        <time>2024-06-30T07:59:04Z</time>
      </trkpt>
      <trkpt lat="42.77949" lon="1.87386">
        <ele>1227</ele>
        <time>2024-06-30T07:59:05Z</time>
      </trkpt>
      <trkpt lat="42.77954" lon="1.87391">
        <ele>1226.8</ele>
        <time>2024-06-30T07:59:06Z</time>
      </trkpt>
      <trkpt lat="42.77959" lon="1.87395">
        <ele>1226.8</ele>
        <time>2024-06-30T07:59:07Z</time>
      </trkpt>
      <trkpt lat="42.77965" lon="1.87399">
        <ele>1226.8</ele>
        <time>2024-06-30T07:59:08Z</time>
      </trkpt>
      <trkpt lat="42.77971" lon="1.87403">
        <ele>1226.6</ele>
        <time>2024-06-30T07:59:09Z</time>
      </trkpt>
      <trkpt lat="42.7799" lon="1.87415">
        <ele>1226.4</ele>
        <time>2024-06-30T07:59:12Z</time>
      </trkpt>
      <trkpt lat="42.7801" lon="1.87431">
        <ele>1226.2</ele>
        <time>2024-06-30T07:59:16Z</time>
      </trkpt>
      <trkpt lat="42.7802" lon="1.8744">
        <ele>1225.8</ele>
        <time>2024-06-30T07:59:18Z</time>
      </trkpt>
      <trkpt lat="42.78035" lon="1.87452">
        <ele>1225.4</ele>
        <time>2024-06-30T07:59:21Z</time>
      </trkpt>
      <trkpt lat="42.78045" lon="1.87461">
        <ele>1225.4</ele>
        <time>2024-06-30T07:59:23Z</time>
      </trkpt>
      <trkpt lat="42.78055" lon="1.87469">
        <ele>1225</ele>
        <time>2024-06-30T07:59:25Z</time>
      </trkpt>
      <trkpt lat="42.7806" lon="1.87473">
        <ele>1224.8</ele>
        <time>2024-06-30T07:59:26Z</time>
      </trkpt>
      <trkpt lat="42.78066" lon="1.87477">
        <ele>1224.8</ele>
        <time>2024-06-30T07:59:27Z</time>
      </trkpt>
      <trkpt lat="42.78076" lon="1.87486">
        <ele>1224.6</ele>
        <time>2024-06-30T07:59:29Z</time>
      </trkpt>
      <trkpt lat="42.78085" lon="1.87497">
        <ele>1224.4</ele>
        <time>2024-06-30T07:59:31Z</time>
      </trkpt>
      <trkpt lat="42.78089" lon="1.87503">
        <ele>1224.4</ele>
        <time>2024-06-30T07:59:32Z</time>
      </trkpt>
      <trkpt lat="42.78092" lon="1.87509">
        <ele>1224.2</ele>
        <time>2024-06-30T07:59:33Z</time>
      </trkpt>
      <trkpt lat="42.78094" lon="1.87514">
        <ele>1224.2</ele>
        <time>2024-06-30T07:59:34Z</time>
      </trkpt>
      <trkpt lat="42.78094" lon="1.87518">
        <ele>1224</ele>
        <time>2024-06-30T07:59:35Z</time>
      </trkpt>
      <trkpt lat="42.78093" lon="1.87521">
        <ele>1223.8</ele>
        <time>2024-06-30T07:59:36Z</time>
      </trkpt>
      <trkpt lat="42.78091" lon="1.87522">
        <ele>1223.8</ele>
        <time>2024-06-30T07:59:37Z</time>
      </trkpt>
      <trkpt lat="42.78089" lon="1.87522">
        <ele>1223.4</ele>
        <time>2024-06-30T07:59:38Z</time>
      </trkpt>
      <trkpt lat="42.78087" lon="1.87521">
        <ele>1223.2</ele>
        <time>2024-06-30T07:59:39Z</time>
      </trkpt>
      <trkpt lat="42.78077" lon="1.87518">
        <ele>1222</ele>
        <time>2024-06-30T07:59:42Z</time>
      </trkpt>
      <trkpt lat="42.78066" lon="1.87518">
        <ele>1221.6</ele>
        <time>2024-06-30T07:59:45Z</time>
      </trkpt>
      <trkpt lat="42.78029" lon="1.87515">
        <ele>1221.2</ele>
        <time>2024-06-30T07:59:54Z</time>
      </trkpt>
      <trkpt lat="42.78026" lon="1.87515">
        <ele>1221.2</ele>
        <time>2024-06-30T07:59:55Z</time>
      </trkpt>
      <trkpt lat="42.78013" lon="1.87517">
        <ele>1221.4</ele>
        <time>2024-06-30T07:59:58Z</time>
      </trkpt>
      <trkpt lat="42.78006" lon="1.87519">
        <ele>1221.4</ele>
        <time>2024-06-30T08:00:00Z</time>
      </trkpt>
      <trkpt lat="42.77997" lon="1.87521">
        <ele>1222.2</ele>
        <time>2024-06-30T08:00:02Z</time>
      </trkpt>
      <trkpt lat="42.77992" lon="1.87522">
        <ele>1222.4</ele>
        <time>2024-06-30T08:00:03Z</time>
      </trkpt>
      <trkpt lat="42.77989" lon="1.87525">
        <ele>1222.4</ele>
        <time>2024-06-30T08:00:04Z</time>
      </trkpt>
      <trkpt lat="42.77985" lon="1.87529">
        <ele>1222.6</ele>
        <time>2024-06-30T08:00:05Z</time>
      </trkpt>
      <trkpt lat="42.77974" lon="1.8754">
        <ele>1223</ele>
        <time>2024-06-30T08:00:08Z</time>
      </trkpt>
      <trkpt lat="42.77971" lon="1.87543">
        <ele>1223</ele>
        <time>2024-06-30T08:00:09Z</time>
      </trkpt>
      <trkpt lat="42.77967" lon="1.87546">
        <ele>1223.2</ele>
        <time>2024-06-30T08:00:10Z</time>
      </trkpt>
      <trkpt lat="42.77964" lon="1.8755">
        <ele>1223.2</ele>
        <time>2024-06-30T08:00:11Z</time>
      </trkpt>
      <trkpt lat="42.7796" lon="1.87554">
        <ele>1223.4</ele>
        <time>2024-06-30T08:00:12Z</time>
      </trkpt>
      <trkpt lat="42.77953" lon="1.8756">
        <ele>1223.6</ele>
        <time>2024-06-30T08:00:14Z</time>
      </trkpt>
      <trkpt lat="42.77938" lon="1.8757">
        <ele>1223.6</ele>
        <time>2024-06-30T08:00:17Z</time>
      </trkpt>
      <trkpt lat="42.77928" lon="1.87575">
        <ele>1224</ele>
        <time>2024-06-30T08:00:19Z</time>
      </trkpt>
      <trkpt lat="42.7792" lon="1.87579">
        <ele>1224.2</ele>
        <time>2024-06-30T08:00:21Z</time>
      </trkpt>
      <trkpt lat="42.77917" lon="1.8758">
        <ele>1224.2</ele>
        <time>2024-06-30T08:00:22Z</time>
      </trkpt>
      <trkpt lat="42.77913" lon="1.87579">
        <ele>1224.6</ele>
        <time>2024-06-30T08:00:23Z</time>
      </trkpt>
      <trkpt lat="42.77909" lon="1.87578">
        <ele>1224.6</ele>
        <time>2024-06-30T08:00:24Z</time>
      </trkpt>
      <trkpt lat="42.77905" lon="1.87577">
        <ele>1225</ele>
        <time>2024-06-30T08:00:25Z</time>
      </trkpt>
      <trkpt lat="42.77901" lon="1.87576">
        <ele>1225</ele>
        <time>2024-06-30T08:00:26Z</time>
      </trkpt>
      <trkpt lat="42.77897" lon="1.87576">
        <ele>1225.4</ele>
        <time>2024-06-30T08:00:27Z</time>
      </trkpt>
      <trkpt lat="42.77894" lon="1.87575">
        <ele>1225.6</ele>
        <time>2024-06-30T08:00:28Z</time>
      </trkpt>
      <trkpt lat="42.7789" lon="1.87575">
        <ele>1226</ele>
        <time>2024-06-30T08:00:29Z</time>
      </trkpt>
      <trkpt lat="42.77886" lon="1.87575">
        <ele>1226.2</ele>
        <time>2024-06-30T08:00:30Z</time>
      </trkpt>
      <trkpt lat="42.77883" lon="1.87576">
        <ele>1226.2</ele>
        <time>2024-06-30T08:00:31Z</time>
      </trkpt>
      <trkpt lat="42.77879" lon="1.87578">
        <ele>1226.4</ele>
        <time>2024-06-30T08:00:32Z</time>
      </trkpt>
      <trkpt lat="42.77875" lon="1.87579">
        <ele>1226.4</ele>
        <time>2024-06-30T08:00:33Z</time>
      </trkpt>
      <trkpt lat="42.77872" lon="1.87581">
        <ele>1226.6</ele>
        <time>2024-06-30T08:00:34Z</time>
      </trkpt>
      <trkpt lat="42.77868" lon="1.87582">
        <ele>1226.8</ele>
        <time>2024-06-30T08:00:35Z</time>
      </trkpt>
      <trkpt lat="42.77866" lon="1.87584">
        <ele>1227</ele>
        <time>2024-06-30T08:00:36Z</time>
      </trkpt>
      <trkpt lat="42.77863" lon="1.87586">
        <ele>1227</ele>
        <time>2024-06-30T08:00:37Z</time>
      </trkpt>
      <trkpt lat="42.7786" lon="1.87587">
        <ele>1227.6</ele>
        <time>2024-06-30T08:00:38Z</time>
      </trkpt>
      <trkpt lat="42.77857" lon="1.87589">
        <ele>1227.8</ele>
        <time>2024-06-30T08:00:39Z</time>
      </trkpt>
      <trkpt lat="42.77855" lon="1.87591">
        <ele>1227.8</ele>
        <time>2024-06-30T08:00:40Z</time>
      </trkpt>
      <trkpt lat="42.77853" lon="1.87592">
        <ele>1228.4</ele>
        <time>2024-06-30T08:00:41Z</time>
      </trkpt>
      <trkpt lat="42.7785" lon="1.87593">
        <ele>1228.6</ele>
        <time>2024-06-30T08:00:42Z</time>
      </trkpt>
      <trkpt lat="42.77847" lon="1.87593">
        <ele>1229</ele>
        <time>2024-06-30T08:00:43Z</time>
      </trkpt>
      <trkpt lat="42.77844" lon="1.87594">
        <ele>1229.2</ele>
        <time>2024-06-30T08:00:44Z</time>
      </trkpt>
      <trkpt lat="42.77841" lon="1.87594">
        <ele>1229.8</ele>
        <time>2024-06-30T08:00:45Z</time>
      </trkpt>
      <trkpt lat="42.77838" lon="1.87593">
        <ele>1230</ele>
        <time>2024-06-30T08:00:46Z</time>
      </trkpt>
      <trkpt lat="42.77836" lon="1.87592">
        <ele>1230.2</ele>
        <time>2024-06-30T08:00:47Z</time>
      </trkpt>
      <trkpt lat="42.77833" lon="1.87592">
        <ele>1230.6</ele>
        <time>2024-06-30T08:00:48Z</time>
      </trkpt>
      <trkpt lat="42.77831" lon="1.87591">
        <ele>1230.6</ele>
        <time>2024-06-30T08:00:49Z</time>
      </trkpt>
      <trkpt lat="42.77829" lon="1.8759">
        <ele>1231</ele>
        <time>2024-06-30T08:00:50Z</time>
      </trkpt>
      <trkpt lat="42.77826" lon="1.87589">
        <ele>1231.2</ele>
        <time>2024-06-30T08:00:51Z</time>
      </trkpt>
      <trkpt lat="42.77824" lon="1.87588">
        <ele>1231.6</ele>
        <time>2024-06-30T08:00:52Z</time>
      </trkpt>
      <trkpt lat="42.77821" lon="1.87587">
        <ele>1231.6</ele>
        <time>2024-06-30T08:00:53Z</time>
      </trkpt>
      <trkpt lat="42.77819" lon="1.87586">
        <ele>1231.8</ele>
        <time>2024-06-30T08:00:54Z</time>
      </trkpt>
      <trkpt lat="42.77816" lon="1.87584">
        <ele>1232</ele>
        <time>2024-06-30T08:00:55Z</time>
      </trkpt>
      <trkpt lat="42.77813" lon="1.87582">
        <ele>1232.4</ele>
        <time>2024-06-30T08:00:56Z</time>
      </trkpt>
      <trkpt lat="42.7781" lon="1.87581">
        <ele>1232.8</ele>
        <time>2024-06-30T08:00:57Z</time>
      </trkpt>
      <trkpt lat="42.77808" lon="1.8758">
        <ele>1232.8</ele>
        <time>2024-06-30T08:00:58Z</time>
      </trkpt>
      <trkpt lat="42.77805" lon="1.87579">
        <ele>1233</ele>
        <time>2024-06-30T08:00:59Z</time>
      </trkpt>
      <trkpt lat="42.77802" lon="1.87578">
        <ele>1233.2</ele>
        <time>2024-06-30T08:01:00Z</time>
      </trkpt>
      <trkpt lat="42.77799" lon="1.87578">
        <ele>1233.6</ele>
        <time>2024-06-30T08:01:01Z</time>
      </trkpt>
      <trkpt lat="42.77796" lon="1.87578">
        <ele>1233.8</ele>
        <time>2024-06-30T08:01:02Z</time>
      </trkpt>
      <trkpt lat="42.77794" lon="1.87578">
        <ele>1233.8</ele>
        <time>2024-06-30T08:01:03Z</time>
      </trkpt>
      <trkpt lat="42.7779" lon="1.87577">
        <ele>1234</ele>
        <time>2024-06-30T08:01:04Z</time>
      </trkpt>
      <trkpt lat="42.77788" lon="1.87577">
        <ele>1234</ele>
        <time>2024-06-30T08:01:05Z</time>
      </trkpt>
      <trkpt lat="42.77785" lon="1.87577">
        <ele>1234.6</ele>
        <time>2024-06-30T08:01:06Z</time>
      </trkpt>
      <trkpt lat="42.77781" lon="1.87578">
        <ele>1234.6</ele>
        <time>2024-06-30T08:01:07Z</time>
      </trkpt>
      <trkpt lat="42.77779" lon="1.87578">
        <ele>1235.2</ele>
        <time>2024-06-30T08:01:08Z</time>
      </trkpt>
      <trkpt lat="42.77777" lon="1.87578">
        <ele>1235.6</ele>
        <time>2024-06-30T08:01:09Z</time>
      </trkpt>
      <trkpt lat="42.77774" lon="1.87578">
        <ele>1236</ele>
        <time>2024-06-30T08:01:10Z</time>
      </trkpt>
      <trkpt lat="42.77772" lon="1.87579">
        <ele>1236.2</ele>
        <time>2024-06-30T08:01:11Z</time>
      </trkpt>
      <trkpt lat="42.7777" lon="1.8758">
        <ele>1237</ele>
        <time>2024-06-30T08:01:12Z</time>
      </trkpt>
      <trkpt lat="42.77768" lon="1.87581">
        <ele>1237.4</ele>
        <time>2024-06-30T08:01:13Z</time>
      </trkpt>
      <trkpt lat="42.77766" lon="1.87582">
        <ele>1237.6</ele>
        <time>2024-06-30T08:01:14Z</time>
      </trkpt>
      <trkpt lat="42.77765" lon="1.87584">
        <ele>1238.4</ele>
        <time>2024-06-30T08:01:15Z</time>
      </trkpt>
      <trkpt lat="42.77763" lon="1.87585">
        <ele>1238.6</ele>
        <time>2024-06-30T08:01:16Z</time>
      </trkpt>
      <trkpt lat="42.77762" lon="1.87586">
        <ele>1238.8</ele>
        <time>2024-06-30T08:01:17Z</time>
      </trkpt>
      <trkpt lat="42.7776" lon="1.87586">
        <ele>1239</ele>
        <time>2024-06-30T08:01:18Z</time>
      </trkpt>
      <trkpt lat="42.77758" lon="1.87588">
        <ele>1239.2</ele>
        <time>2024-06-30T08:01:19Z</time>
      </trkpt>
      <trkpt lat="42.77756" lon="1.87591">
        <ele>1239.4</ele>
        <time>2024-06-30T08:01:20Z</time>
      </trkpt>
      <trkpt lat="42.77755" lon="1.87592">
        <ele>1239.6</ele>
        <time>2024-06-30T08:01:21Z</time>
      </trkpt>
      <trkpt lat="42.77754" lon="1.87593">
        <ele>1239.6</ele>
        <time>2024-06-30T08:01:22Z</time>
      </trkpt>
      <trkpt lat="42.77752" lon="1.87596">
        <ele>1239.6</ele>
        <time>2024-06-30T08:01:23Z</time>
      </trkpt>
      <trkpt lat="42.77749" lon="1.87598">
        <ele>1239.8</ele>
        <time>2024-06-30T08:01:24Z</time>
      </trkpt>
      <trkpt lat="42.77748" lon="1.87601">
        <ele>1240.2</ele>
        <time>2024-06-30T08:01:25Z</time>
      </trkpt>
      <trkpt lat="42.77747" lon="1.87603">
        <ele>1240.6</ele>
        <time>2024-06-30T08:01:26Z</time>
      </trkpt>
      <trkpt lat="42.77745" lon="1.87605">
        <ele>1240.6</ele>
        <time>2024-06-30T08:01:27Z</time>
      </trkpt>
      <trkpt lat="42.77743" lon="1.87608">
        <ele>1240.8</ele>
        <time>2024-06-30T08:01:28Z</time>
      </trkpt>
      <trkpt lat="42.77741" lon="1.87611">
        <ele>1241</ele>
        <time>2024-06-30T08:01:29Z</time>
      </trkpt>
      <trkpt lat="42.77739" lon="1.87612">
        <ele>1241.2</ele>
        <time>2024-06-30T08:01:30Z</time>
      </trkpt>
      <trkpt lat="42.77737" lon="1.87615">
        <ele>1241.2</ele>
        <time>2024-06-30T08:01:31Z</time>
      </trkpt>
      <trkpt lat="42.77736" lon="1.87616">
        <ele>1241.2</ele>
        <time>2024-06-30T08:01:32Z</time>
      </trkpt>
      <trkpt lat="42.77734" lon="1.8762">
        <ele>1241.4</ele>
        <time>2024-06-30T08:01:33Z</time>
      </trkpt>
      <trkpt lat="42.77733" lon="1.87622">
        <ele>1241.8</ele>
        <time>2024-06-30T08:01:34Z</time>
      </trkpt>
      <trkpt lat="42.77731" lon="1.87625">
        <ele>1242.2</ele>
        <time>2024-06-30T08:01:35Z</time>
      </trkpt>
      <trkpt lat="42.7773" lon="1.87627">
        <ele>1242.4</ele>
        <time>2024-06-30T08:01:36Z</time>
      </trkpt>
      <trkpt lat="42.77729" lon="1.87628">
        <ele>1242.6</ele>
        <time>2024-06-30T08:01:37Z</time>
      </trkpt>
      <trkpt lat="42.77727" lon="1.8763">
        <ele>1242.8</ele>
        <time>2024-06-30T08:01:38Z</time>
      </trkpt>
      <trkpt lat="42.77725" lon="1.87632">
        <ele>1243.2</ele>
        <time>2024-06-30T08:01:39Z</time>
      </trkpt>
      <trkpt lat="42.77723" lon="1.87635">
        <ele>1243.6</ele>
        <time>2024-06-30T08:01:40Z</time>
      </trkpt>
      <trkpt lat="42.77721" lon="1.87638">
        <ele>1243.8</ele>
        <time>2024-06-30T08:01:41Z</time>
      </trkpt>
      <trkpt lat="42.7772" lon="1.87642">
        <ele>1244.4</ele>
        <time>2024-06-30T08:01:42Z</time>
      </trkpt>
      <trkpt lat="42.77719" lon="1.87645">
        <ele>1244.6</ele>
        <time>2024-06-30T08:01:43Z</time>
      </trkpt>
      <trkpt lat="42.77718" lon="1.87648">
        <ele>1244.8</ele>
        <time>2024-06-30T08:01:44Z</time>
      </trkpt>
      <trkpt lat="42.77716" lon="1.87651">
        <ele>1244.8</ele>
        <time>2024-06-30T08:01:45Z</time>
      </trkpt>
      <trkpt lat="42.77714" lon="1.87653">
        <ele>1245</ele>
        <time>2024-06-30T08:01:46Z</time>
      </trkpt>
      <trkpt lat="42.77713" lon="1.87656">
        <ele>1245.2</ele>
        <time>2024-06-30T08:01:47Z</time>
      </trkpt>
      <trkpt lat="42.77712" lon="1.87659">
        <ele>1245.4</ele>
        <time>2024-06-30T08:01:48Z</time>
      </trkpt>
      <trkpt lat="42.77711" lon="1.87663">
        <ele>1246.2</ele>
        <time>2024-06-30T08:01:49Z</time>
      </trkpt>
      <trkpt lat="42.77709" lon="1.87667">
        <ele>1246.4</ele>
        <time>2024-06-30T08:01:50Z</time>
      </trkpt>
      <trkpt lat="42.77708" lon="1.8767">
        <ele>1246.6</ele>
        <time>2024-06-30T08:01:51Z</time>
      </trkpt>
      <trkpt lat="42.77707" lon="1.87673">
        <ele>1246.6</ele>
        <time>2024-06-30T08:01:52Z</time>
      </trkpt>
      <trkpt lat="42.77705" lon="1.87675">
        <ele>1246.8</ele>
        <time>2024-06-30T08:01:53Z</time>
      </trkpt>
      <trkpt lat="42.77704" lon="1.87678">
        <ele>1247.2</ele>
        <time>2024-06-30T08:01:54Z</time>
      </trkpt>
      <trkpt lat="42.77702" lon="1.8768">
        <ele>1247.6</ele>
        <time>2024-06-30T08:01:55Z</time>
      </trkpt>
      <trkpt lat="42.777" lon="1.87683">
        <ele>1248</ele>
        <time>2024-06-30T08:01:56Z</time>
      </trkpt>
      <trkpt lat="42.77698" lon="1.87686">
        <ele>1248</ele>
        <time>2024-06-30T08:01:57Z</time>
      </trkpt>
      <trkpt lat="42.77696" lon="1.87688">
        <ele>1248.6</ele>
        <time>2024-06-30T08:01:58Z</time>
      </trkpt>
      <trkpt lat="42.77693" lon="1.87691">
        <ele>1248.8</ele>
        <time>2024-06-30T08:01:59Z</time>
      </trkpt>
      <trkpt lat="42.7769" lon="1.87692">
        <ele>1249.2</ele>
        <time>2024-06-30T08:02:00Z</time>
      </trkpt>
      <trkpt lat="42.77687" lon="1.87692">
        <ele>1249.4</ele>
        <time>2024-06-30T08:02:01Z</time>
      </trkpt>
      <trkpt lat="42.77685" lon="1.87692">
        <ele>1249.8</ele>
        <time>2024-06-30T08:02:02Z</time>
      </trkpt>
      <trkpt lat="42.77683" lon="1.8769">
        <ele>1250</ele>
        <time>2024-06-30T08:02:03Z</time>
      </trkpt>
      <trkpt lat="42.7768" lon="1.87687">
        <ele>1250.4</ele>
        <time>2024-06-30T08:02:04Z</time>
      </trkpt>
      <trkpt lat="42.77678" lon="1.87684">
        <ele>1250.8</ele>
        <time>2024-06-30T08:02:05Z</time>
      </trkpt>
      <trkpt lat="42.77676" lon="1.87681">
        <ele>1250.8</ele>
        <time>2024-06-30T08:02:06Z</time>
      </trkpt>
      <trkpt lat="42.77675" lon="1.87678">
        <ele>1251.2</ele>
        <time>2024-06-30T08:02:07Z</time>
      </trkpt>
      <trkpt lat="42.77672" lon="1.87675">
        <ele>1251.4</ele>
        <time>2024-06-30T08:02:08Z</time>
      </trkpt>
      <trkpt lat="42.7767" lon="1.87672">
        <ele>1251.6</ele>
        <time>2024-06-30T08:02:09Z</time>
      </trkpt>
      <trkpt lat="42.77667" lon="1.87669">
        <ele>1251.8</ele>
        <time>2024-06-30T08:02:10Z</time>
      </trkpt>
      <trkpt lat="42.77665" lon="1.87668">
        <ele>1252</ele>
        <time>2024-06-30T08:02:11Z</time>
      </trkpt>
      <trkpt lat="42.77662" lon="1.87666">
        <ele>1252</ele>
        <time>2024-06-30T08:02:12Z</time>
      </trkpt>
      <trkpt lat="42.77659" lon="1.87665">
        <ele>1252.2</ele>
        <time>2024-06-30T08:02:13Z</time>
      </trkpt>
      <trkpt lat="42.77657" lon="1.87664">
        <ele>1252.6</ele>
        <time>2024-06-30T08:02:14Z</time>
      </trkpt>
      <trkpt lat="42.77654" lon="1.87663">
        <ele>1252.6</ele>
        <time>2024-06-30T08:02:15Z</time>
      </trkpt>
      <trkpt lat="42.77651" lon="1.87662">
        <ele>1253.2</ele>
        <time>2024-06-30T08:02:16Z</time>
      </trkpt>
      <trkpt lat="42.77648" lon="1.87661">
        <ele>1253.2</ele>
        <time>2024-06-30T08:02:17Z</time>
      </trkpt>
      <trkpt lat="42.77646" lon="1.87661">
        <ele>1253.4</ele>
        <time>2024-06-30T08:02:18Z</time>
      </trkpt>
      <trkpt lat="42.77644" lon="1.8766">
        <ele>1253.6</ele>
        <time>2024-06-30T08:02:19Z</time>
      </trkpt>
      <trkpt lat="42.77641" lon="1.87659">
        <ele>1253.6</ele>
        <time>2024-06-30T08:02:20Z</time>
      </trkpt>
      <trkpt lat="42.77638" lon="1.87658">
        <ele>1253.6</ele>
        <time>2024-06-30T08:02:21Z</time>
      </trkpt>
      <trkpt lat="42.77635" lon="1.87658">
        <ele>1253.8</ele>
        <time>2024-06-30T08:02:22Z</time>
      </trkpt>
      <trkpt lat="42.77632" lon="1.87657">
        <ele>1254.4</ele>
        <time>2024-06-30T08:02:23Z</time>
      </trkpt>
      <trkpt lat="42.77629" lon="1.87657">
        <ele>1254.6</ele>
        <time>2024-06-30T08:02:24Z</time>
      </trkpt>
      <trkpt lat="42.77626" lon="1.87656">
        <ele>1255</ele>
        <time>2024-06-30T08:02:25Z</time>
      </trkpt>
      <trkpt lat="42.77624" lon="1.87656">
        <ele>1255</ele>
        <time>2024-06-30T08:02:26Z</time>
      </trkpt>
      <trkpt lat="42.77621" lon="1.87655">
        <ele>1255.2</ele>
        <time>2024-06-30T08:02:27Z</time>
      </trkpt>
      <trkpt lat="42.77619" lon="1.87655">
        <ele>1255.2</ele>
        <time>2024-06-30T08:02:28Z</time>
      </trkpt>
      <trkpt lat="42.77616" lon="1.87655">
        <ele>1255.4</ele>
        <time>2024-06-30T08:02:29Z</time>
      </trkpt>
      <trkpt lat="42.77613" lon="1.87654">
        <ele>1255.6</ele>
        <time>2024-06-30T08:02:30Z</time>
      </trkpt>
      <trkpt lat="42.77611" lon="1.87654">
        <ele>1255.8</ele>
        <time>2024-06-30T08:02:31Z</time>
      </trkpt>
      <trkpt lat="42.77608" lon="1.87654">
        <ele>1256</ele>
        <time>2024-06-30T08:02:32Z</time>
      </trkpt>
      <trkpt lat="42.77605" lon="1.87654">
        <ele>1256.2</ele>
        <time>2024-06-30T08:02:33Z</time>
      </trkpt>
      <trkpt lat="42.77603" lon="1.87653">
        <ele>1256.4</ele>
        <time>2024-06-30T08:02:34Z</time>
      </trkpt>
      <trkpt lat="42.776" lon="1.87653">
        <ele>1256.6</ele>
        <time>2024-06-30T08:02:35Z</time>
      </trkpt>
      <trkpt lat="42.77598" lon="1.87654">
        <ele>1256.8</ele>
        <time>2024-06-30T08:02:36Z</time>
      </trkpt>
      <trkpt lat="42.77595" lon="1.87654">
        <ele>1257</ele>
        <time>2024-06-30T08:02:37Z</time>
      </trkpt>
      <trkpt lat="42.77592" lon="1.87655">
        <ele>1257.4</ele>
        <time>2024-06-30T08:02:38Z</time>
      </trkpt>
      <trkpt lat="42.7759" lon="1.87656">
        <ele>1258</ele>
        <time>2024-06-30T08:02:39Z</time>
      </trkpt>
      <trkpt lat="42.77587" lon="1.87657">
        <ele>1258.2</ele>
        <time>2024-06-30T08:02:40Z</time>
      </trkpt>
      <trkpt lat="42.77585" lon="1.87658">
        <ele>1258.6</ele>
        <time>2024-06-30T08:02:41Z</time>
      </trkpt>
      <trkpt lat="42.77582" lon="1.8766">
        <ele>1258.8</ele>
        <time>2024-06-30T08:02:42Z</time>
      </trkpt>
      <trkpt lat="42.7758" lon="1.87661">
        <ele>1259.2</ele>
        <time>2024-06-30T08:02:43Z</time>
      </trkpt>
      <trkpt lat="42.77577" lon="1.87663">
        <ele>1259.4</ele>
        <time>2024-06-30T08:02:44Z</time>
      </trkpt>
      <trkpt lat="42.77575" lon="1.87665">
        <ele>1259.8</ele>
        <time>2024-06-30T08:02:45Z</time>
      </trkpt>
      <trkpt lat="42.77573" lon="1.87666">
        <ele>1260</ele>
        <time>2024-06-30T08:02:46Z</time>
      </trkpt>
      <trkpt lat="42.7757" lon="1.87668">
        <ele>1260.2</ele>
        <time>2024-06-30T08:02:47Z</time>
      </trkpt>
      <trkpt lat="42.77568" lon="1.8767">
        <ele>1260.4</ele>
        <time>2024-06-30T08:02:48Z</time>
      </trkpt>
      <trkpt lat="42.77566" lon="1.87671">
        <ele>1260.4</ele>
        <time>2024-06-30T08:02:49Z</time>
      </trkpt>
      <trkpt lat="42.77564" lon="1.87672">
        <ele>1260.6</ele>
        <time>2024-06-30T08:02:50Z</time>
      </trkpt>
      <trkpt lat="42.77561" lon="1.87673">
        <ele>1260.8</ele>
        <time>2024-06-30T08:02:51Z</time>
      </trkpt>
      <trkpt lat="42.77559" lon="1.87673">
        <ele>1261</ele>
        <time>2024-06-30T08:02:52Z</time>
      </trkpt>
      <trkpt lat="42.77557" lon="1.87673">
        <ele>1261.2</ele>
        <time>2024-06-30T08:02:53Z</time>
      </trkpt>
      <trkpt lat="42.77554" lon="1.87673">
        <ele>1261.8</ele>
        <time>2024-06-30T08:02:54Z</time>
      </trkpt>
      <trkpt lat="42.77552" lon="1.87674">
        <ele>1262</ele>
        <time>2024-06-30T08:02:55Z</time>
      </trkpt>
      <trkpt lat="42.7755" lon="1.87676">
        <ele>1262.2</ele>
        <time>2024-06-30T08:02:56Z</time>
      </trkpt>
      <trkpt lat="42.7755" lon="1.87679">
        <ele>1262.6</ele>
        <time>2024-06-30T08:02:57Z</time>
      </trkpt>
      <trkpt lat="42.77551" lon="1.87681">
        <ele>1262.8</ele>
        <time>2024-06-30T08:02:58Z</time>
      </trkpt>
      <trkpt lat="42.77552" lon="1.87683">
        <ele>1263.4</ele>
        <time>2024-06-30T08:02:59Z</time>
      </trkpt>
      <trkpt lat="42.77554" lon="1.87685">
        <ele>1263.6</ele>
        <time>2024-06-30T08:03:00Z</time>
      </trkpt>
      <trkpt lat="42.77556" lon="1.87687">
        <ele>1264</ele>
        <time>2024-06-30T08:03:01Z</time>
      </trkpt>
      <trkpt lat="42.77558" lon="1.87689">
        <ele>1264.2</ele>
        <time>2024-06-30T08:03:02Z</time>
      </trkpt>
      <trkpt lat="42.7756" lon="1.87691">
        <ele>1265</ele>
        <time>2024-06-30T08:03:03Z</time>
      </trkpt>
      <trkpt lat="42.77563" lon="1.87694">
        <ele>1266</ele>
        <time>2024-06-30T08:03:04Z</time>
      </trkpt>
      <trkpt lat="42.77564" lon="1.87697">
        <ele>1266.2</ele>
        <time>2024-06-30T08:03:05Z</time>
      </trkpt>
      <trkpt lat="42.77566" lon="1.877">
        <ele>1266.8</ele>
        <time>2024-06-30T08:03:06Z</time>
      </trkpt>
      <trkpt lat="42.77568" lon="1.87704">
        <ele>1267</ele>
        <time>2024-06-30T08:03:07Z</time>
      </trkpt>
      <trkpt lat="42.7757" lon="1.87707">
        <ele>1267.4</ele>
        <time>2024-06-30T08:03:08Z</time>
      </trkpt>
      <trkpt lat="42.77571" lon="1.87711">
        <ele>1267.6</ele>
        <time>2024-06-30T08:03:09Z</time>
      </trkpt>
      <trkpt lat="42.77573" lon="1.87714">
        <ele>1268</ele>
        <time>2024-06-30T08:03:10Z</time>
      </trkpt>
      <trkpt lat="42.77574" lon="1.87718">
        <ele>1268</ele>
        <time>2024-06-30T08:03:11Z</time>
      </trkpt>
      <trkpt lat="42.77576" lon="1.87722">
        <ele>1268.2</ele>
        <time>2024-06-30T08:03:12Z</time>
      </trkpt>
      <trkpt lat="42.77577" lon="1.87726">
        <ele>1268.6</ele>
        <time>2024-06-30T08:03:13Z</time>
      </trkpt>
      <trkpt lat="42.77579" lon="1.87729">
        <ele>1268.8</ele>
        <time>2024-06-30T08:03:14Z</time>
      </trkpt>
      <trkpt lat="42.7758" lon="1.87733">
        <ele>1269</ele>
        <time>2024-06-30T08:03:15Z</time>
      </trkpt>
      <trkpt lat="42.77581" lon="1.87736">
        <ele>1269.2</ele>
        <time>2024-06-30T08:03:16Z</time>
      </trkpt>
      <trkpt lat="42.77582" lon="1.87739">
        <ele>1269.4</ele>
        <time>2024-06-30T08:03:17Z</time>
      </trkpt>
      <trkpt lat="42.77583" lon="1.87742">
        <ele>1269.4</ele>
        <time>2024-06-30T08:03:18Z</time>
      </trkpt>
      <trkpt lat="42.77584" lon="1.87745">
        <ele>1269.6</ele>
        <time>2024-06-30T08:03:19Z</time>
      </trkpt>
      <trkpt lat="42.77586" lon="1.87749">
        <ele>1269.8</ele>
        <time>2024-06-30T08:03:20Z</time>
      </trkpt>
      <trkpt lat="42.77587" lon="1.87752">
        <ele>1270</ele>
        <time>2024-06-30T08:03:21Z</time>
      </trkpt>
      <trkpt lat="42.77588" lon="1.87755">
        <ele>1270.4</ele>
        <time>2024-06-30T08:03:22Z</time>
      </trkpt>
      <trkpt lat="42.77589" lon="1.87758">
        <ele>1270.6</ele>
        <time>2024-06-30T08:03:23Z</time>
      </trkpt>
      <trkpt lat="42.7759" lon="1.87761">
        <ele>1271</ele>
        <time>2024-06-30T08:03:24Z</time>
      </trkpt>
      <trkpt lat="42.77592" lon="1.87764">
        <ele>1271.2</ele>
        <time>2024-06-30T08:03:25Z</time>
      </trkpt>
      <trkpt lat="42.77593" lon="1.87767">
        <ele>1271.8</ele>
        <time>2024-06-30T08:03:26Z</time>
      </trkpt>
      <trkpt lat="42.77595" lon="1.8777">
        <ele>1272</ele>
        <time>2024-06-30T08:03:27Z</time>
      </trkpt>
      <trkpt lat="42.77596" lon="1.87773">
        <ele>1272.4</ele>
        <time>2024-06-30T08:03:28Z</time>
      </trkpt>
      <trkpt lat="42.77598" lon="1.87776">
        <ele>1272.6</ele>
        <time>2024-06-30T08:03:29Z</time>
      </trkpt>
      <trkpt lat="42.77599" lon="1.87779">
        <ele>1272.8</ele>
        <time>2024-06-30T08:03:30Z</time>
      </trkpt>
      <trkpt lat="42.77601" lon="1.87782">
        <ele>1273.2</ele>
        <time>2024-06-30T08:03:31Z</time>
      </trkpt>
      <trkpt lat="42.77603" lon="1.87785">
        <ele>1273.4</ele>
        <time>2024-06-30T08:03:32Z</time>
      </trkpt>
      <trkpt lat="42.77604" lon="1.87788">
        <ele>1274</ele>
        <time>2024-06-30T08:03:33Z</time>
      </trkpt>
      <trkpt lat="42.77606" lon="1.87791">
        <ele>1274.2</ele>
        <time>2024-06-30T08:03:34Z</time>
      </trkpt>
      <trkpt lat="42.77608" lon="1.87794">
        <ele>1274.6</ele>
        <time>2024-06-30T08:03:35Z</time>
      </trkpt>
      <trkpt lat="42.77609" lon="1.87797">
        <ele>1274.6</ele>
        <time>2024-06-30T08:03:36Z</time>
      </trkpt>
      <trkpt lat="42.77611" lon="1.87801">
        <ele>1275.2</ele>
        <time>2024-06-30T08:03:37Z</time>
      </trkpt>
      <trkpt lat="42.77612" lon="1.87804">
        <ele>1275.8</ele>
        <time>2024-06-30T08:03:38Z</time>
      </trkpt>
      <trkpt lat="42.77613" lon="1.87807">
        <ele>1276</ele>
        <time>2024-06-30T08:03:39Z</time>
      </trkpt>
      <trkpt lat="42.77614" lon="1.8781">
        <ele>1276.4</ele>
        <time>2024-06-30T08:03:40Z</time>
      </trkpt>
      <trkpt lat="42.77616" lon="1.87814">
        <ele>1276.6</ele>
        <time>2024-06-30T08:03:41Z</time>
      </trkpt>
      <trkpt lat="42.77617" lon="1.87817">
        <ele>1276.8</ele>
        <time>2024-06-30T08:03:42Z</time>
      </trkpt>
      <trkpt lat="42.77618" lon="1.8782">
        <ele>1277</ele>
        <time>2024-06-30T08:03:43Z</time>
      </trkpt>
      <trkpt lat="42.77619" lon="1.87824">
        <ele>1277.6</ele>
        <time>2024-06-30T08:03:44Z</time>
      </trkpt>
      <trkpt lat="42.7762" lon="1.87828">
        <ele>1278.2</ele>
        <time>2024-06-30T08:03:45Z</time>
      </trkpt>
      <trkpt lat="42.77621" lon="1.87831">
        <ele>1278.4</ele>
        <time>2024-06-30T08:03:46Z</time>
      </trkpt>
      <trkpt lat="42.77622" lon="1.87835">
        <ele>1278.8</ele>
        <time>2024-06-30T08:03:47Z</time>
      </trkpt>
      <trkpt lat="42.77623" lon="1.87839">
        <ele>1278.8</ele>
        <time>2024-06-30T08:03:48Z</time>
      </trkpt>
      <trkpt lat="42.77624" lon="1.87842">
        <ele>1279.4</ele>
        <time>2024-06-30T08:03:49Z</time>
      </trkpt>
      <trkpt lat="42.77624" lon="1.87846">
        <ele>1279.4</ele>
        <time>2024-06-30T08:03:50Z</time>
      </trkpt>
      <trkpt lat="42.77625" lon="1.87849">
        <ele>1279.4</ele>
        <time>2024-06-30T08:03:51Z</time>
      </trkpt>
      <trkpt lat="42.77625" lon="1.87853">
        <ele>1279.6</ele>
        <time>2024-06-30T08:03:52Z</time>
      </trkpt>
      <trkpt lat="42.77625" lon="1.87857">
        <ele>1280</ele>
        <time>2024-06-30T08:03:53Z</time>
      </trkpt>
      <trkpt lat="42.77625" lon="1.87862">
        <ele>1280</ele>
        <time>2024-06-30T08:03:54Z</time>
      </trkpt>
      <trkpt lat="42.77626" lon="1.87866">
        <ele>1280.2</ele>
        <time>2024-06-30T08:03:55Z</time>
      </trkpt>
      <trkpt lat="42.77626" lon="1.8787">
        <ele>1280.6</ele>
        <time>2024-06-30T08:03:56Z</time>
      </trkpt>
      <trkpt lat="42.77626" lon="1.87873">
        <ele>1280.8</ele>
        <time>2024-06-30T08:03:57Z</time>
      </trkpt>
      <trkpt lat="42.77626" lon="1.87878">
        <ele>1281.2</ele>
        <time>2024-06-30T08:03:58Z</time>
      </trkpt>
      <trkpt lat="42.77626" lon="1.87883">
        <ele>1281.4</ele>
        <time>2024-06-30T08:03:59Z</time>
      </trkpt>
      <trkpt lat="42.77627" lon="1.87887">
        <ele>1281.6</ele>
        <time>2024-06-30T08:04:00Z</time>
      </trkpt>
      <trkpt lat="42.77628" lon="1.87892">
        <ele>1281.8</ele>
        <time>2024-06-30T08:04:01Z</time>
      </trkpt>
      <trkpt lat="42.77628" lon="1.87896">
        <ele>1282</ele>
        <time>2024-06-30T08:04:02Z</time>
      </trkpt>
      <trkpt lat="42.77629" lon="1.879">
        <ele>1282</ele>
        <time>2024-06-30T08:04:03Z</time>
      </trkpt>
      <trkpt lat="42.77629" lon="1.87904">
        <ele>1282.2</ele>
        <time>2024-06-30T08:04:04Z</time>
      </trkpt>
      <trkpt lat="42.7763" lon="1.87909">
        <ele>1282.4</ele>
        <time>2024-06-30T08:04:05Z</time>
      </trkpt>
      <trkpt lat="42.77631" lon="1.87913">
        <ele>1282.6</ele>
        <time>2024-06-30T08:04:06Z</time>
      </trkpt>
      <trkpt lat="42.77632" lon="1.87917">
        <ele>1282.8</ele>
        <time>2024-06-30T08:04:07Z</time>
      </trkpt>
      <trkpt lat="42.77632" lon="1.87921">
        <ele>1283</ele>
        <time>2024-06-30T08:04:08Z</time>
      </trkpt>
      <trkpt lat="42.77634" lon="1.87925">
        <ele>1283.2</ele>
        <time>2024-06-30T08:04:09Z</time>
      </trkpt>
      <trkpt lat="42.77635" lon="1.87929">
        <ele>1283.2</ele>
        <time>2024-06-30T08:04:10Z</time>
      </trkpt>
      <trkpt lat="42.77636" lon="1.87933">
        <ele>1283.6</ele>
        <time>2024-06-30T08:04:11Z</time>
      </trkpt>
      <trkpt lat="42.77637" lon="1.87936">
        <ele>1284</ele>
        <time>2024-06-30T08:04:12Z</time>
      </trkpt>
      <trkpt lat="42.77638" lon="1.8794">
        <ele>1284.2</ele>
        <time>2024-06-30T08:04:13Z</time>
      </trkpt>
      <trkpt lat="42.7764" lon="1.87943">
        <ele>1284.6</ele>
        <time>2024-06-30T08:04:14Z</time>
      </trkpt>
      <trkpt lat="42.77641" lon="1.87946">
        <ele>1285</ele>
        <time>2024-06-30T08:04:15Z</time>
      </trkpt>
      <trkpt lat="42.77642" lon="1.87949">
        <ele>1285.4</ele>
        <time>2024-06-30T08:04:16Z</time>
      </trkpt>
      <trkpt lat="42.77644" lon="1.87953">
        <ele>1285.6</ele>
        <time>2024-06-30T08:04:17Z</time>
      </trkpt>
      <trkpt lat="42.77645" lon="1.87956">
        <ele>1285.8</ele>
        <time>2024-06-30T08:04:18Z</time>
      </trkpt>
      <trkpt lat="42.77647" lon="1.87959">
        <ele>1285.8</ele>
        <time>2024-06-30T08:04:19Z</time>
      </trkpt>
      <trkpt lat="42.77648" lon="1.87962">
        <ele>1286</ele>
        <time>2024-06-30T08:04:20Z</time>
      </trkpt>
      <trkpt lat="42.77649" lon="1.87964">
        <ele>1286.6</ele>
        <time>2024-06-30T08:04:21Z</time>
      </trkpt>
      <trkpt lat="42.77651" lon="1.87967">
        <ele>1287</ele>
        <time>2024-06-30T08:04:22Z</time>
      </trkpt>
      <trkpt lat="42.77652" lon="1.87971">
        <ele>1287.6</ele>
        <time>2024-06-30T08:04:23Z</time>
      </trkpt>
      <trkpt lat="42.77653" lon="1.87973">
        <ele>1287.8</ele>
        <time>2024-06-30T08:04:24Z</time>
      </trkpt>
      <trkpt lat="42.77654" lon="1.87976">
        <ele>1288.2</ele>
        <time>2024-06-30T08:04:25Z</time>
      </trkpt>
      <trkpt lat="42.77656" lon="1.87979">
        <ele>1288.4</ele>
        <time>2024-06-30T08:04:26Z</time>
      </trkpt>
      <trkpt lat="42.77657" lon="1.87982">
        <ele>1288.8</ele>
        <time>2024-06-30T08:04:27Z</time>
      </trkpt>
      <trkpt lat="42.77659" lon="1.87985">
        <ele>1289.2</ele>
        <time>2024-06-30T08:04:28Z</time>
      </trkpt>
      <trkpt lat="42.7766" lon="1.87988">
        <ele>1289.4</ele>
        <time>2024-06-30T08:04:29Z</time>
      </trkpt>
      <trkpt lat="42.77661" lon="1.8799">
        <ele>1290</ele>
        <time>2024-06-30T08:04:30Z</time>
      </trkpt>
      <trkpt lat="42.77663" lon="1.87993">
        <ele>1290.2</ele>
        <time>2024-06-30T08:04:31Z</time>
      </trkpt>
      <trkpt lat="42.77664" lon="1.87996">
        <ele>1290.6</ele>
        <time>2024-06-30T08:04:32Z</time>
      </trkpt>
      <trkpt lat="42.77665" lon="1.87999">
        <ele>1290.6</ele>
        <time>2024-06-30T08:04:33Z</time>
      </trkpt>
      <trkpt lat="42.77666" lon="1.88002">
        <ele>1291</ele>
        <time>2024-06-30T08:04:34Z</time>
      </trkpt>
      <trkpt lat="42.77667" lon="1.88005">
        <ele>1291.2</ele>
        <time>2024-06-30T08:04:35Z</time>
      </trkpt>
      <trkpt lat="42.77668" lon="1.88009">
        <ele>1291.6</ele>
        <time>2024-06-30T08:04:36Z</time>
      </trkpt>
      <trkpt lat="42.7767" lon="1.88012">
        <ele>1292.2</ele>
        <time>2024-06-30T08:04:37Z</time>
      </trkpt>
      <trkpt lat="42.77671" lon="1.88016">
        <ele>1292.4</ele>
        <time>2024-06-30T08:04:38Z</time>
      </trkpt>
      <trkpt lat="42.77672" lon="1.8802">
        <ele>1292.6</ele>
        <time>2024-06-30T08:04:39Z</time>
      </trkpt>
      <trkpt lat="42.77673" lon="1.88024">
        <ele>1292.8</ele>
        <time>2024-06-30T08:04:40Z</time>
      </trkpt>
      <trkpt lat="42.77675" lon="1.88028">
        <ele>1293.2</ele>
        <time>2024-06-30T08:04:41Z</time>
      </trkpt>
      <trkpt lat="42.77676" lon="1.88032">
        <ele>1293.4</ele>
        <time>2024-06-30T08:04:42Z</time>
      </trkpt>
      <trkpt lat="42.77677" lon="1.88036">
        <ele>1294</ele>
        <time>2024-06-30T08:04:43Z</time>
      </trkpt>
      <trkpt lat="42.77678" lon="1.8804">
        <ele>1294.2</ele>
        <time>2024-06-30T08:04:44Z</time>
      </trkpt>
      <trkpt lat="42.77678" lon="1.88045">
        <ele>1294.4</ele>
        <time>2024-06-30T08:04:45Z</time>
      </trkpt>
      <trkpt lat="42.77678" lon="1.88049">
        <ele>1294.6</ele>
        <time>2024-06-30T08:04:46Z</time>
      </trkpt>
      <trkpt lat="42.77679" lon="1.88054">
        <ele>1294.6</ele>
        <time>2024-06-30T08:04:47Z</time>
      </trkpt>
      <trkpt lat="42.77679" lon="1.88059">
        <ele>1294.8</ele>
        <time>2024-06-30T08:04:48Z</time>
      </trkpt>
      <trkpt lat="42.7768" lon="1.88063">
        <ele>1295</ele>
        <time>2024-06-30T08:04:49Z</time>
      </trkpt>
      <trkpt lat="42.7768" lon="1.88068">
        <ele>1295.2</ele>
        <time>2024-06-30T08:04:50Z</time>
      </trkpt>
      <trkpt lat="42.77681" lon="1.88073">
        <ele>1295.4</ele>
        <time>2024-06-30T08:04:51Z</time>
      </trkpt>
      <trkpt lat="42.77682" lon="1.88078">
        <ele>1295.8</ele>
        <time>2024-06-30T08:04:52Z</time>
      </trkpt>
      <trkpt lat="42.77683" lon="1.88083">
        <ele>1296</ele>
        <time>2024-06-30T08:04:53Z</time>
      </trkpt>
      <trkpt lat="42.77684" lon="1.88087">
        <ele>1296.2</ele>
        <time>2024-06-30T08:04:54Z</time>
      </trkpt>
      <trkpt lat="42.77685" lon="1.88092">
        <ele>1296.2</ele>
        <time>2024-06-30T08:04:55Z</time>
      </trkpt>
      <trkpt lat="42.77686" lon="1.88095">
        <ele>1296.6</ele>
        <time>2024-06-30T08:04:56Z</time>
      </trkpt>
      <trkpt lat="42.77686" lon="1.88099">
        <ele>1296.8</ele>
        <time>2024-06-30T08:04:57Z</time>
      </trkpt>
      <trkpt lat="42.77687" lon="1.88102">
        <ele>1296.8</ele>
        <time>2024-06-30T08:04:58Z</time>
      </trkpt>
      <trkpt lat="42.77687" lon="1.88106">
        <ele>1297.2</ele>
        <time>2024-06-30T08:04:59Z</time>
      </trkpt>
      <trkpt lat="42.77688" lon="1.88109">
        <ele>1297.4</ele>
        <time>2024-06-30T08:05:00Z</time>
      </trkpt>
      <trkpt lat="42.77689" lon="1.88112">
        <ele>1298</ele>
        <time>2024-06-30T08:05:01Z</time>
      </trkpt>
      <trkpt lat="42.7769" lon="1.88115">
        <ele>1298.2</ele>
        <time>2024-06-30T08:05:02Z</time>
      </trkpt>
      <trkpt lat="42.7769" lon="1.88118">
        <ele>1298.4</ele>
        <time>2024-06-30T08:05:03Z</time>
      </trkpt>
      <trkpt lat="42.77691" lon="1.88121">
        <ele>1298.6</ele>
        <time>2024-06-30T08:05:04Z</time>
      </trkpt>
      <trkpt lat="42.77691" lon="1.88125">
        <ele>1298.8</ele>
        <time>2024-06-30T08:05:05Z</time>
      </trkpt>
      <trkpt lat="42.77692" lon="1.88129">
        <ele>1299.2</ele>
        <time>2024-06-30T08:05:06Z</time>
      </trkpt>
      <trkpt lat="42.77693" lon="1.88133">
        <ele>1299.4</ele>
        <time>2024-06-30T08:05:07Z</time>
      </trkpt>
      <trkpt lat="42.77694" lon="1.88137">
        <ele>1299.8</ele>
        <time>2024-06-30T08:05:08Z</time>
      </trkpt>
      <trkpt lat="42.77695" lon="1.88141">
        <ele>1300.2</ele>
        <time>2024-06-30T08:05:09Z</time>
      </trkpt>
      <trkpt lat="42.77696" lon="1.88145">
        <ele>1300.2</ele>
        <time>2024-06-30T08:05:10Z</time>
      </trkpt>
      <trkpt lat="42.77697" lon="1.88148">
        <ele>1300.8</ele>
        <time>2024-06-30T08:05:11Z</time>
      </trkpt>
      <trkpt lat="42.77697" lon="1.88152">
        <ele>1301.2</ele>
        <time>2024-06-30T08:05:12Z</time>
      </trkpt>
      <trkpt lat="42.77698" lon="1.88155">
        <ele>1301.6</ele>
        <time>2024-06-30T08:05:13Z</time>
      </trkpt>
      <trkpt lat="42.777" lon="1.88158">
        <ele>1301.8</ele>
        <time>2024-06-30T08:05:14Z</time>
      </trkpt>
      <trkpt lat="42.77701" lon="1.88162">
        <ele>1302</ele>
        <time>2024-06-30T08:05:15Z</time>
      </trkpt>
      <trkpt lat="42.77702" lon="1.88165">
        <ele>1302</ele>
        <time>2024-06-30T08:05:16Z</time>
      </trkpt>
      <trkpt lat="42.77703" lon="1.88169">
        <ele>1302.2</ele>
        <time>2024-06-30T08:05:17Z</time>
      </trkpt>
      <trkpt lat="42.77705" lon="1.88173">
        <ele>1302.8</ele>
        <time>2024-06-30T08:05:18Z</time>
      </trkpt>
      <trkpt lat="42.77706" lon="1.88176">
        <ele>1303</ele>
        <time>2024-06-30T08:05:19Z</time>
      </trkpt>
      <trkpt lat="42.77706" lon="1.88178">
        <ele>1303.4</ele>
        <time>2024-06-30T08:05:20Z</time>
      </trkpt>
      <trkpt lat="42.77707" lon="1.8818">
        <ele>1303.6</ele>
        <time>2024-06-30T08:05:21Z</time>
      </trkpt>
      <trkpt lat="42.77707" lon="1.88182">
        <ele>1304</ele>
        <time>2024-06-30T08:05:22Z</time>
      </trkpt>
      <trkpt lat="42.77708" lon="1.88185">
        <ele>1304.2</ele>
        <time>2024-06-30T08:05:23Z</time>
      </trkpt>
      <trkpt lat="42.77709" lon="1.88188">
        <ele>1304.8</ele>
        <time>2024-06-30T08:05:24Z</time>
      </trkpt>
      <trkpt lat="42.7771" lon="1.88192">
        <ele>1305</ele>
        <time>2024-06-30T08:05:25Z</time>
      </trkpt>
      <trkpt lat="42.77712" lon="1.88195">
        <ele>1305.2</ele>
        <time>2024-06-30T08:05:26Z</time>
      </trkpt>
      <trkpt lat="42.77713" lon="1.88198">
        <ele>1305.2</ele>
        <time>2024-06-30T08:05:27Z</time>
      </trkpt>
      <trkpt lat="42.77714" lon="1.88201">
        <ele>1305.2</ele>
        <time>2024-06-30T08:05:28Z</time>
      </trkpt>
      <trkpt lat="42.77716" lon="1.88204">
        <ele>1305.8</ele>
        <time>2024-06-30T08:05:29Z</time>
      </trkpt>
      <trkpt lat="42.77717" lon="1.88207">
        <ele>1306.2</ele>
        <time>2024-06-30T08:05:30Z</time>
      </trkpt>
      <trkpt lat="42.77719" lon="1.88211">
        <ele>1306.8</ele>
        <time>2024-06-30T08:05:31Z</time>
      </trkpt>
      <trkpt lat="42.77721" lon="1.88214">
        <ele>1307</ele>
        <time>2024-06-30T08:05:32Z</time>
      </trkpt>
      <trkpt lat="42.77722" lon="1.88218">
        <ele>1307.4</ele>
        <time>2024-06-30T08:05:33Z</time>
      </trkpt>
      <trkpt lat="42.77724" lon="1.88222">
        <ele>1307.4</ele>
        <time>2024-06-30T08:05:34Z</time>
      </trkpt>
      <trkpt lat="42.77726" lon="1.88226">
        <ele>1307.6</ele>
        <time>2024-06-30T08:05:35Z</time>
      </trkpt>
      <trkpt lat="42.77728" lon="1.8823">
        <ele>1308.2</ele>
        <time>2024-06-30T08:05:36Z</time>
      </trkpt>
      <trkpt lat="42.77729" lon="1.88234">
        <ele>1308.2</ele>
        <time>2024-06-30T08:05:37Z</time>
      </trkpt>
      <trkpt lat="42.77731" lon="1.88238">
        <ele>1308.6</ele>
        <time>2024-06-30T08:05:38Z</time>
      </trkpt>
      <trkpt lat="42.77733" lon="1.88242">
        <ele>1308.8</ele>
        <time>2024-06-30T08:05:39Z</time>
      </trkpt>
      <trkpt lat="42.77735" lon="1.88245">
        <ele>1309</ele>
        <time>2024-06-30T08:05:40Z</time>
      </trkpt>
      <trkpt lat="42.77736" lon="1.88249">
        <ele>1309.2</ele>
        <time>2024-06-30T08:05:41Z</time>
      </trkpt>
      <trkpt lat="42.77738" lon="1.88253">
        <ele>1309.4</ele>
        <time>2024-06-30T08:05:42Z</time>
      </trkpt>
      <trkpt lat="42.7774" lon="1.88257">
        <ele>1309.6</ele>
        <time>2024-06-30T08:05:43Z</time>
      </trkpt>
      <trkpt lat="42.7774" lon="1.88261">
        <ele>1309.6</ele>
        <time>2024-06-30T08:05:44Z</time>
      </trkpt>
      <trkpt lat="42.77741" lon="1.88265">
        <ele>1310</ele>
        <time>2024-06-30T08:05:45Z</time>
      </trkpt>
      <trkpt lat="42.77742" lon="1.8827">
        <ele>1310.2</ele>
        <time>2024-06-30T08:05:46Z</time>
      </trkpt>
      <trkpt lat="42.77743" lon="1.88274">
        <ele>1310.8</ele>
        <time>2024-06-30T08:05:47Z</time>
      </trkpt>
      <trkpt lat="42.77745" lon="1.88278">
        <ele>1310.8</ele>
        <time>2024-06-30T08:05:48Z</time>
      </trkpt>
      <trkpt lat="42.77746" lon="1.88283">
        <ele>1311</ele>
        <time>2024-06-30T08:05:49Z</time>
      </trkpt>
      <trkpt lat="42.77747" lon="1.88287">
        <ele>1311</ele>
        <time>2024-06-30T08:05:50Z</time>
      </trkpt>
      <trkpt lat="42.77748" lon="1.8829">
        <ele>1311.2</ele>
        <time>2024-06-30T08:05:51Z</time>
      </trkpt>
      <trkpt lat="42.77749" lon="1.88294">
        <ele>1311.2</ele>
        <time>2024-06-30T08:05:52Z</time>
      </trkpt>
      <trkpt lat="42.7775" lon="1.88296">
        <ele>1311.4</ele>
        <time>2024-06-30T08:05:53Z</time>
      </trkpt>
      <trkpt lat="42.77751" lon="1.88299">
        <ele>1311.6</ele>
        <time>2024-06-30T08:05:54Z</time>
      </trkpt>
      <trkpt lat="42.77752" lon="1.88303">
        <ele>1311.6</ele>
        <time>2024-06-30T08:05:55Z</time>
      </trkpt>
      <trkpt lat="42.77753" lon="1.88306">
        <ele>1311.8</ele>
        <time>2024-06-30T08:05:56Z</time>
      </trkpt>
      <trkpt lat="42.77754" lon="1.88309">
        <ele>1312</ele>
        <time>2024-06-30T08:05:57Z</time>
      </trkpt>
      <trkpt lat="42.77755" lon="1.88312">
        <ele>1312.2</ele>
        <time>2024-06-30T08:05:58Z</time>
      </trkpt>
      <trkpt lat="42.77756" lon="1.88315">
        <ele>1312.2</ele>
        <time>2024-06-30T08:05:59Z</time>
      </trkpt>
      <trkpt lat="42.77757" lon="1.88318">
        <ele>1312.4</ele>
        <time>2024-06-30T08:06:00Z</time>
      </trkpt>
      <trkpt lat="42.77758" lon="1.88321">
        <ele>1312.6</ele>
        <time>2024-06-30T08:06:01Z</time>
      </trkpt>
      <trkpt lat="42.77759" lon="1.88324">
        <ele>1312.6</ele>
        <time>2024-06-30T08:06:02Z</time>
      </trkpt>
      <trkpt lat="42.7776" lon="1.88327">
        <ele>1312.8</ele>
        <time>2024-06-30T08:06:03Z</time>
      </trkpt>
      <trkpt lat="42.77761" lon="1.88331">
        <ele>1312.8</ele>
        <time>2024-06-30T08:06:04Z</time>
      </trkpt>
      <trkpt lat="42.77762" lon="1.88334">
        <ele>1313</ele>
        <time>2024-06-30T08:06:05Z</time>
      </trkpt>
      <trkpt lat="42.77763" lon="1.88337">
        <ele>1313.2</ele>
        <time>2024-06-30T08:06:06Z</time>
      </trkpt>
      <trkpt lat="42.77763" lon="1.88341">
        <ele>1313.6</ele>
        <time>2024-06-30T08:06:07Z</time>
      </trkpt>
      <trkpt lat="42.77764" lon="1.88344">
        <ele>1313.8</ele>
        <time>2024-06-30T08:06:08Z</time>
      </trkpt>
      <trkpt lat="42.77765" lon="1.88348">
        <ele>1314</ele>
        <time>2024-06-30T08:06:09Z</time>
      </trkpt>
      <trkpt lat="42.77766" lon="1.88352">
        <ele>1314.2</ele>
        <time>2024-06-30T08:06:10Z</time>
      </trkpt>
      <trkpt lat="42.77767" lon="1.88356">
        <ele>1314.2</ele>
        <time>2024-06-30T08:06:11Z</time>
      </trkpt>
      <trkpt lat="42.77768" lon="1.88359">
        <ele>1314.4</ele>
        <time>2024-06-30T08:06:12Z</time>
      </trkpt>
      <trkpt lat="42.77769" lon="1.88363">
        <ele>1314.4</ele>
        <time>2024-06-30T08:06:13Z</time>
      </trkpt>
      <trkpt lat="42.77769" lon="1.88367">
        <ele>1314.6</ele>
        <time>2024-06-30T08:06:14Z</time>
      </trkpt>
      <trkpt lat="42.7777" lon="1.88371">
        <ele>1314.6</ele>
        <time>2024-06-30T08:06:15Z</time>
      </trkpt>
      <trkpt lat="42.77771" lon="1.88375">
        <ele>1314.8</ele>
        <time>2024-06-30T08:06:16Z</time>
      </trkpt>
      <trkpt lat="42.77772" lon="1.8838">
        <ele>1315</ele>
        <time>2024-06-30T08:06:17Z</time>
      </trkpt>
      <trkpt lat="42.77772" lon="1.88384">
        <ele>1315</ele>
        <time>2024-06-30T08:06:18Z</time>
      </trkpt>
      <trkpt lat="42.77773" lon="1.88388">
        <ele>1315.4</ele>
        <time>2024-06-30T08:06:19Z</time>
      </trkpt>
      <trkpt lat="42.77773" lon="1.88392">
        <ele>1315.4</ele>
        <time>2024-06-30T08:06:20Z</time>
      </trkpt>
      <trkpt lat="42.77774" lon="1.88396">
        <ele>1315.6</ele>
        <time>2024-06-30T08:06:21Z</time>
      </trkpt>
      <trkpt lat="42.77774" lon="1.88401">
        <ele>1315.6</ele>
        <time>2024-06-30T08:06:22Z</time>
      </trkpt>
      <trkpt lat="42.77775" lon="1.88405">
        <ele>1316</ele>
        <time>2024-06-30T08:06:23Z</time>
      </trkpt>
      <trkpt lat="42.77776" lon="1.8841">
        <ele>1316.2</ele>
        <time>2024-06-30T08:06:24Z</time>
      </trkpt>
      <trkpt lat="42.77776" lon="1.88414">
        <ele>1316.4</ele>
        <time>2024-06-30T08:06:25Z</time>
      </trkpt>
      <trkpt lat="42.77777" lon="1.88418">
        <ele>1316.6</ele>
        <time>2024-06-30T08:06:26Z</time>
      </trkpt>
      <trkpt lat="42.77778" lon="1.88422">
        <ele>1316.6</ele>
        <time>2024-06-30T08:06:27Z</time>
      </trkpt>
      <trkpt lat="42.77779" lon="1.88426">
        <ele>1316.6</ele>
        <time>2024-06-30T08:06:28Z</time>
      </trkpt>
      <trkpt lat="42.77781" lon="1.8843">
        <ele>1316.6</ele>
        <time>2024-06-30T08:06:29Z</time>
      </trkpt>
      <trkpt lat="42.77782" lon="1.88435">
        <ele>1316.6</ele>
        <time>2024-06-30T08:06:30Z</time>
      </trkpt>
      <trkpt lat="42.77783" lon="1.88439">
        <ele>1317</ele>
        <time>2024-06-30T08:06:31Z</time>
      </trkpt>
      <trkpt lat="42.77784" lon="1.88444">
        <ele>1317</ele>
        <time>2024-06-30T08:06:32Z</time>
      </trkpt>
      <trkpt lat="42.77785" lon="1.88449">
        <ele>1317.2</ele>
        <time>2024-06-30T08:06:33Z</time>
      </trkpt>
      <trkpt lat="42.77787" lon="1.88453">
        <ele>1317.4</ele>
        <time>2024-06-30T08:06:34Z</time>
      </trkpt>
      <trkpt lat="42.77788" lon="1.88458">
        <ele>1317.4</ele>
        <time>2024-06-30T08:06:35Z</time>
      </trkpt>
      <trkpt lat="42.77789" lon="1.88463">
        <ele>1317.2</ele>
        <time>2024-06-30T08:06:36Z</time>
      </trkpt>
      <trkpt lat="42.77791" lon="1.88468">
        <ele>1317.4</ele>
        <time>2024-06-30T08:06:37Z</time>
      </trkpt>
      <trkpt lat="42.77792" lon="1.88472">
        <ele>1317.4</ele>
        <time>2024-06-30T08:06:38Z</time>
      </trkpt>
      <trkpt lat="42.77793" lon="1.88477">
        <ele>1317.6</ele>
        <time>2024-06-30T08:06:39Z</time>
      </trkpt>
      <trkpt lat="42.77794" lon="1.88482">
        <ele>1317.6</ele>
        <time>2024-06-30T08:06:40Z</time>
      </trkpt>
      <trkpt lat="42.77795" lon="1.88487">
        <ele>1317.6</ele>
        <time>2024-06-30T08:06:41Z</time>
      </trkpt>
      <trkpt lat="42.77796" lon="1.88492">
        <ele>1317.8</ele>
        <time>2024-06-30T08:06:42Z</time>
      </trkpt>
      <trkpt lat="42.77798" lon="1.88497">
        <ele>1317.8</ele>
        <time>2024-06-30T08:06:43Z</time>
      </trkpt>
      <trkpt lat="42.77799" lon="1.88501">
        <ele>1318</ele>
        <time>2024-06-30T08:06:44Z</time>
      </trkpt>
      <trkpt lat="42.778" lon="1.88506">
        <ele>1318</ele>
        <time>2024-06-30T08:06:45Z</time>
      </trkpt>
      <trkpt lat="42.77801" lon="1.88511">
        <ele>1318</ele>
        <time>2024-06-30T08:06:46Z</time>
      </trkpt>
      <trkpt lat="42.77803" lon="1.88516">
        <ele>1318</ele>
        <time>2024-06-30T08:06:47Z</time>
      </trkpt>
      <trkpt lat="42.77806" lon="1.88525">
        <ele>1318.4</ele>
        <time>2024-06-30T08:06:49Z</time>
      </trkpt>
      <trkpt lat="42.77815" lon="1.88553">
        <ele>1318.6</ele>
        <time>2024-06-30T08:06:55Z</time>
      </trkpt>
      <trkpt lat="42.77819" lon="1.88566">
        <ele>1318.8</ele>
        <time>2024-06-30T08:06:58Z</time>
      </trkpt>
      <trkpt lat="42.7782" lon="1.88571">
        <ele>1318.8</ele>
        <time>2024-06-30T08:06:59Z</time>
      </trkpt>
      <trkpt lat="42.77822" lon="1.88575">
        <ele>1319</ele>
        <time>2024-06-30T08:07:00Z</time>
      </trkpt>
      <trkpt lat="42.77826" lon="1.88589">
        <ele>1319</ele>
        <time>2024-06-30T08:07:03Z</time>
      </trkpt>
      <trkpt lat="42.77829" lon="1.88597">
        <ele>1319.2</ele>
        <time>2024-06-30T08:07:05Z</time>
      </trkpt>
      <trkpt lat="42.7783" lon="1.88601">
        <ele>1319.2</ele>
        <time>2024-06-30T08:07:06Z</time>
      </trkpt>
      <trkpt lat="42.77834" lon="1.88609">
        <ele>1319.6</ele>
        <time>2024-06-30T08:07:08Z</time>
      </trkpt>
      <trkpt lat="42.77835" lon="1.88613">
        <ele>1319.8</ele>
        <time>2024-06-30T08:07:09Z</time>
      </trkpt>
      <trkpt lat="42.77837" lon="1.88616">
        <ele>1320</ele>
        <time>2024-06-30T08:07:10Z</time>
      </trkpt>
      <trkpt lat="42.77839" lon="1.8862">
        <ele>1320</ele>
        <time>2024-06-30T08:07:11Z</time>
      </trkpt>
      <trkpt lat="42.77841" lon="1.88623">
        <ele>1320.2</ele>
        <time>2024-06-30T08:07:12Z</time>
      </trkpt>
      <trkpt lat="42.77852" lon="1.88644">
        <ele>1320.6</ele>
        <time>2024-06-30T08:07:17Z</time>
      </trkpt>
      <trkpt lat="42.7786" lon="1.88657">
        <ele>1321</ele>
        <time>2024-06-30T08:07:21Z</time>
      </trkpt>
      <trkpt lat="42.77864" lon="1.88664">
        <ele>1321</ele>
        <time>2024-06-30T08:07:23Z</time>
      </trkpt>
      <trkpt lat="42.77865" lon="1.88666">
        <ele>1321.2</ele>
        <time>2024-06-30T08:07:24Z</time>
      </trkpt>
      <trkpt lat="42.77867" lon="1.88669">
        <ele>1321.6</ele>
        <time>2024-06-30T08:07:25Z</time>
      </trkpt>
      <trkpt lat="42.77869" lon="1.88672">
        <ele>1321.8</ele>
        <time>2024-06-30T08:07:26Z</time>
      </trkpt>
      <trkpt lat="42.7787" lon="1.88674">
        <ele>1322</ele>
        <time>2024-06-30T08:07:27Z</time>
      </trkpt>
      <trkpt lat="42.77872" lon="1.88677">
        <ele>1322.2</ele>
        <time>2024-06-30T08:07:28Z</time>
      </trkpt>
      <trkpt lat="42.77873" lon="1.8868">
        <ele>1322.4</ele>
        <time>2024-06-30T08:07:29Z</time>
      </trkpt>
      <trkpt lat="42.77874" lon="1.88682">
        <ele>1322.6</ele>
        <time>2024-06-30T08:07:30Z</time>
      </trkpt>
      <trkpt lat="42.77875" lon="1.88685">
        <ele>1322.8</ele>
        <time>2024-06-30T08:07:31Z</time>
      </trkpt>
      <trkpt lat="42.77877" lon="1.88688">
        <ele>1323.2</ele>
        <time>2024-06-30T08:07:32Z</time>
      </trkpt>
      <trkpt lat="42.77878" lon="1.8869">
        <ele>1323.8</ele>
        <time>2024-06-30T08:07:33Z</time>
      </trkpt>
      <trkpt lat="42.77879" lon="1.88693">
        <ele>1324</ele>
        <time>2024-06-30T08:07:34Z</time>
      </trkpt>
      <trkpt lat="42.7788" lon="1.88695">
        <ele>1324.2</ele>
        <time>2024-06-30T08:07:35Z</time>
      </trkpt>
      <trkpt lat="42.77881" lon="1.88697">
        <ele>1324.6</ele>
        <time>2024-06-30T08:07:36Z</time>
      </trkpt>
      <trkpt lat="42.77881" lon="1.88698">
        <ele>1325</ele>
        <time>2024-06-30T08:07:38Z</time>
      </trkpt>
      <trkpt lat="42.77884" lon="1.88706">
        <ele>1325.6</ele>
        <time>2024-06-30T08:08:06Z</time>
      </trkpt>
      <trkpt lat="42.77893" lon="1.88732">
        <ele>1325.6</ele>
        <time>2024-06-30T08:08:11Z</time>
      </trkpt>
      <trkpt lat="42.77897" lon="1.88744">
        <ele>1325.6</ele>
        <time>2024-06-30T08:08:13Z</time>
      </trkpt>
      <trkpt lat="42.77907" lon="1.88773">
        <ele>1325.8</ele>
        <time>2024-06-30T08:08:18Z</time>
      </trkpt>
      <trkpt lat="42.77928" lon="1.88824">
        <ele>1325.6</ele>
        <time>2024-06-30T08:08:27Z</time>
      </trkpt>
      <trkpt lat="42.7793" lon="1.88829">
        <ele>1325.6</ele>
        <time>2024-06-30T08:08:28Z</time>
      </trkpt>
      <trkpt lat="42.77933" lon="1.88834">
        <ele>1325.6</ele>
        <time>2024-06-30T08:08:29Z</time>
      </trkpt>
      <trkpt lat="42.77935" lon="1.88838">
        <ele>1325.6</ele>
        <time>2024-06-30T08:08:30Z</time>
      </trkpt>
      <trkpt lat="42.77938" lon="1.88843">
        <ele>1325.8</ele>
        <time>2024-06-30T08:08:31Z</time>
      </trkpt>
      <trkpt lat="42.7794" lon="1.88847">
        <ele>1325.8</ele>
        <time>2024-06-30T08:08:32Z</time>
      </trkpt>
      <trkpt lat="42.77942" lon="1.88852">
        <ele>1325.8</ele>
        <time>2024-06-30T08:08:33Z</time>
      </trkpt>
      <trkpt lat="42.77944" lon="1.88856">
        <ele>1326</ele>
        <time>2024-06-30T08:08:34Z</time>
      </trkpt>
      <trkpt lat="42.77946" lon="1.88861">
        <ele>1326.2</ele>
        <time>2024-06-30T08:08:35Z</time>
      </trkpt>
      <trkpt lat="42.77948" lon="1.88866">
        <ele>1326.2</ele>
        <time>2024-06-30T08:08:36Z</time>
      </trkpt>
      <trkpt lat="42.7795" lon="1.8887">
        <ele>1326.4</ele>
        <time>2024-06-30T08:08:37Z</time>
      </trkpt>
      <trkpt lat="42.77952" lon="1.88875">
        <ele>1326.6</ele>
        <time>2024-06-30T08:08:38Z</time>
      </trkpt>
      <trkpt lat="42.77953" lon="1.88879">
        <ele>1326.8</ele>
        <time>2024-06-30T08:08:39Z</time>
      </trkpt>
      <trkpt lat="42.77955" lon="1.88884">
        <ele>1326.8</ele>
        <time>2024-06-30T08:08:40Z</time>
      </trkpt>
      <trkpt lat="42.77956" lon="1.88889">
        <ele>1327.2</ele>
        <time>2024-06-30T08:08:41Z</time>
      </trkpt>
      <trkpt lat="42.77958" lon="1.88893">
        <ele>1327.4</ele>
        <time>2024-06-30T08:08:42Z</time>
      </trkpt>
      <trkpt lat="42.77959" lon="1.88897">
        <ele>1327.6</ele>
        <time>2024-06-30T08:08:43Z</time>
      </trkpt>
      <trkpt lat="42.7796" lon="1.889">
        <ele>1327.8</ele>
        <time>2024-06-30T08:08:44Z</time>
      </trkpt>
      <trkpt lat="42.77961" lon="1.88902">
        <ele>1328</ele>
        <time>2024-06-30T08:08:45Z</time>
      </trkpt>
      <trkpt lat="42.77963" lon="1.88904">
        <ele>1328.2</ele>
        <time>2024-06-30T08:08:46Z</time>
      </trkpt>
      <trkpt lat="42.77963" lon="1.88907">
        <ele>1328.4</ele>
        <time>2024-06-30T08:08:47Z</time>
      </trkpt>
      <trkpt lat="42.77963" lon="1.88911">
        <ele>1328.6</ele>
        <time>2024-06-30T08:08:48Z</time>
      </trkpt>
      <trkpt lat="42.77963" lon="1.88914">
        <ele>1328.6</ele>
        <time>2024-06-30T08:08:49Z</time>
      </trkpt>
      <trkpt lat="42.77962" lon="1.88919">
        <ele>1328.6</ele>
        <time>2024-06-30T08:08:50Z</time>
      </trkpt>
      <trkpt lat="42.77962" lon="1.88923">
        <ele>1328.8</ele>
        <time>2024-06-30T08:08:51Z</time>
      </trkpt>
      <trkpt lat="42.77962" lon="1.88929">
        <ele>1328.8</ele>
        <time>2024-06-30T08:08:52Z</time>
      </trkpt>
      <trkpt lat="42.77961" lon="1.88934">
        <ele>1328.8</ele>
        <time>2024-06-30T08:08:53Z</time>
      </trkpt>
      <trkpt lat="42.77961" lon="1.88941">
        <ele>1328.8</ele>
        <time>2024-06-30T08:08:54Z</time>
      </trkpt>
      <trkpt lat="42.7796" lon="1.88948">
        <ele>1328.8</ele>
        <time>2024-06-30T08:08:55Z</time>
      </trkpt>
      <trkpt lat="42.7796" lon="1.88956">
        <ele>1328.6</ele>
        <time>2024-06-30T08:08:56Z</time>
      </trkpt>
      <trkpt lat="42.77959" lon="1.88965">
        <ele>1328.6</ele>
        <time>2024-06-30T08:08:57Z</time>
      </trkpt>
      <trkpt lat="42.7796" lon="1.88974">
        <ele>1328.6</ele>
        <time>2024-06-30T08:08:58Z</time>
      </trkpt>
      <trkpt lat="42.7796" lon="1.88984">
        <ele>1328.2</ele>
        <time>2024-06-30T08:08:59Z</time>
      </trkpt>
      <trkpt lat="42.77962" lon="1.88995">
        <ele>1327.8</ele>
        <time>2024-06-30T08:09:00Z</time>
      </trkpt>
      <trkpt lat="42.77965" lon="1.89005">
        <ele>1327.6</ele>
        <time>2024-06-30T08:09:01Z</time>
      </trkpt>
      <trkpt lat="42.77971" lon="1.89023">
        <ele>1326.8</ele>
        <time>2024-06-30T08:09:03Z</time>
      </trkpt>
      <trkpt lat="42.77979" lon="1.89046">
        <ele>1326.2</ele>
        <time>2024-06-30T08:09:05Z</time>
      </trkpt>
      <trkpt lat="42.77982" lon="1.89057">
        <ele>1325.6</ele>
        <time>2024-06-30T08:09:06Z</time>
      </trkpt>
      <trkpt lat="42.77992" lon="1.8909">
        <ele>1324.2</ele>
        <time>2024-06-30T08:09:09Z</time>
      </trkpt>
      <trkpt lat="42.78002" lon="1.89127">
        <ele>1322.8</ele>
        <time>2024-06-30T08:09:12Z</time>
      </trkpt>
      <trkpt lat="42.78007" lon="1.89152">
        <ele>1321.8</ele>
        <time>2024-06-30T08:09:14Z</time>
      </trkpt>
      <trkpt lat="42.78011" lon="1.89163">
        <ele>1321.2</ele>
        <time>2024-06-30T08:09:15Z</time>
      </trkpt>
      <trkpt lat="42.78014" lon="1.89173">
        <ele>1320.2</ele>
        <time>2024-06-30T08:09:16Z</time>
      </trkpt>
      <trkpt lat="42.78018" lon="1.89181">
        <ele>1319.8</ele>
        <time>2024-06-30T08:09:17Z</time>
      </trkpt>
      <trkpt lat="42.78022" lon="1.89187">
        <ele>1318.8</ele>
        <time>2024-06-30T08:09:18Z</time>
      </trkpt>
      <trkpt lat="42.78026" lon="1.8919">
        <ele>1318.4</ele>
        <time>2024-06-30T08:09:19Z</time>
      </trkpt>
      <trkpt lat="42.7803" lon="1.89191">
        <ele>1317.4</ele>
        <time>2024-06-30T08:09:20Z</time>
      </trkpt>
      <trkpt lat="42.78034" lon="1.89191">
        <ele>1317</ele>
        <time>2024-06-30T08:09:21Z</time>
      </trkpt>
      <trkpt lat="42.78039" lon="1.89191">
        <ele>1315.8</ele>
        <time>2024-06-30T08:09:22Z</time>
      </trkpt>
      <trkpt lat="42.78044" lon="1.89193">
        <ele>1315.2</ele>
        <time>2024-06-30T08:09:23Z</time>
      </trkpt>
      <trkpt lat="42.78049" lon="1.89195">
        <ele>1314.2</ele>
        <time>2024-06-30T08:09:24Z</time>
      </trkpt>
      <trkpt lat="42.78064" lon="1.89202">
        <ele>1312.8</ele>
        <time>2024-06-30T08:09:27Z</time>
      </trkpt>
      <trkpt lat="42.78069" lon="1.89203">
        <ele>1312.8</ele>
        <time>2024-06-30T08:09:28Z</time>
      </trkpt>
      <trkpt lat="42.78084" lon="1.89205">
        <ele>1311.6</ele>
        <time>2024-06-30T08:09:31Z</time>
      </trkpt>
      <trkpt lat="42.78094" lon="1.89205">
        <ele>1311</ele>
        <time>2024-06-30T08:09:33Z</time>
      </trkpt>
      <trkpt lat="42.78099" lon="1.89207">
        <ele>1310.8</ele>
        <time>2024-06-30T08:09:34Z</time>
      </trkpt>
      <trkpt lat="42.78102" lon="1.89208">
        <ele>1311</ele>
        <time>2024-06-30T08:09:35Z</time>
      </trkpt>
      <trkpt lat="42.78106" lon="1.89209">
        <ele>1311</ele>
        <time>2024-06-30T08:09:36Z</time>
      </trkpt>
      <trkpt lat="42.78109" lon="1.8921">
        <ele>1311</ele>
        <time>2024-06-30T08:09:37Z</time>
      </trkpt>
      <trkpt lat="42.78113" lon="1.89211">
        <ele>1311</ele>
        <time>2024-06-30T08:09:38Z</time>
      </trkpt>
      <trkpt lat="42.78132" lon="1.89215">
        <ele>1311.2</ele>
        <time>2024-06-30T08:09:42Z</time>
      </trkpt>
      <trkpt lat="42.78141" lon="1.89219">
        <ele>1311.2</ele>
        <time>2024-06-30T08:09:44Z</time>
      </trkpt>
      <trkpt lat="42.78149" lon="1.89226">
        <ele>1311.2</ele>
        <time>2024-06-30T08:09:46Z</time>
      </trkpt>
      <trkpt lat="42.78177" lon="1.89251">
        <ele>1311.6</ele>
        <time>2024-06-30T08:09:53Z</time>
      </trkpt>
      <trkpt lat="42.78186" lon="1.89258">
        <ele>1311.6</ele>
        <time>2024-06-30T08:09:55Z</time>
      </trkpt>
      <trkpt lat="42.78208" lon="1.89269">
        <ele>1311.6</ele>
        <time>2024-06-30T08:09:59Z</time>
      </trkpt>
      <trkpt lat="42.78223" lon="1.89278">
        <ele>1311.6</ele>
        <time>2024-06-30T08:10:02Z</time>
      </trkpt>
      <trkpt lat="42.78242" lon="1.8929">
        <ele>1311.6</ele>
        <time>2024-06-30T08:10:06Z</time>
      </trkpt>
      <trkpt lat="42.78246" lon="1.8929">
        <ele>1311.6</ele>
        <time>2024-06-30T08:10:07Z</time>
      </trkpt>
      <trkpt lat="42.78249" lon="1.89291">
        <ele>1311.6</ele>
        <time>2024-06-30T08:10:08Z</time>
      </trkpt>
      <trkpt lat="42.78252" lon="1.89294">
        <ele>1311.6</ele>
        <time>2024-06-30T08:10:09Z</time>
      </trkpt>
      <trkpt lat="42.78254" lon="1.89296">
        <ele>1311.8</ele>
        <time>2024-06-30T08:10:10Z</time>
      </trkpt>
      <trkpt lat="42.78258" lon="1.89299">
        <ele>1312</ele>
        <time>2024-06-30T08:10:11Z</time>
      </trkpt>
      <trkpt lat="42.78261" lon="1.89301">
        <ele>1312.6</ele>
        <time>2024-06-30T08:10:12Z</time>
      </trkpt>
      <trkpt lat="42.78264" lon="1.89305">
        <ele>1312.6</ele>
        <time>2024-06-30T08:10:13Z</time>
      </trkpt>
      <trkpt lat="42.78267" lon="1.89308">
        <ele>1312.8</ele>
        <time>2024-06-30T08:10:14Z</time>
      </trkpt>
      <trkpt lat="42.78269" lon="1.8931">
        <ele>1312.8</ele>
        <time>2024-06-30T08:10:15Z</time>
      </trkpt>
      <trkpt lat="42.78272" lon="1.89312">
        <ele>1313</ele>
        <time>2024-06-30T08:10:16Z</time>
      </trkpt>
      <trkpt lat="42.78275" lon="1.89315">
        <ele>1313.2</ele>
        <time>2024-06-30T08:10:17Z</time>
      </trkpt>
      <trkpt lat="42.78277" lon="1.89317">
        <ele>1313.2</ele>
        <time>2024-06-30T08:10:18Z</time>
      </trkpt>
      <trkpt lat="42.78279" lon="1.8932">
        <ele>1313.4</ele>
        <time>2024-06-30T08:10:19Z</time>
      </trkpt>
      <trkpt lat="42.78285" lon="1.89325">
        <ele>1313.8</ele>
        <time>2024-06-30T08:10:21Z</time>
      </trkpt>
      <trkpt lat="42.7829" lon="1.8933">
        <ele>1314.4</ele>
        <time>2024-06-30T08:10:23Z</time>
      </trkpt>
      <trkpt lat="42.78292" lon="1.89333">
        <ele>1314.8</ele>
        <time>2024-06-30T08:10:24Z</time>
      </trkpt>
      <trkpt lat="42.78294" lon="1.89335">
        <ele>1315.2</ele>
        <time>2024-06-30T08:10:25Z</time>
      </trkpt>
      <trkpt lat="42.78296" lon="1.89337">
        <ele>1315.6</ele>
        <time>2024-06-30T08:10:26Z</time>
      </trkpt>
      <trkpt lat="42.78299" lon="1.8934">
        <ele>1315.6</ele>
        <time>2024-06-30T08:10:27Z</time>
      </trkpt>
      <trkpt lat="42.78302" lon="1.89343">
        <ele>1316</ele>
        <time>2024-06-30T08:10:28Z</time>
      </trkpt>
      <trkpt lat="42.78304" lon="1.89345">
        <ele>1316.2</ele>
        <time>2024-06-30T08:10:29Z</time>
      </trkpt>
      <trkpt lat="42.78307" lon="1.89348">
        <ele>1316.4</ele>
        <time>2024-06-30T08:10:30Z</time>
      </trkpt>
      <trkpt lat="42.78311" lon="1.89351">
        <ele>1316.6</ele>
        <time>2024-06-30T08:10:31Z</time>
      </trkpt>
      <trkpt lat="42.78314" lon="1.89355">
        <ele>1316.8</ele>
        <time>2024-06-30T08:10:32Z</time>
      </trkpt>
      <trkpt lat="42.78317" lon="1.89358">
        <ele>1317</ele>
        <time>2024-06-30T08:10:33Z</time>
      </trkpt>
      <trkpt lat="42.7832" lon="1.89361">
        <ele>1317</ele>
        <time>2024-06-30T08:10:34Z</time>
      </trkpt>
      <trkpt lat="42.78324" lon="1.89364">
        <ele>1317.4</ele>
        <time>2024-06-30T08:10:35Z</time>
      </trkpt>
      <trkpt lat="42.78327" lon="1.89366">
        <ele>1317.4</ele>
        <time>2024-06-30T08:10:36Z</time>
      </trkpt>
      <trkpt lat="42.78331" lon="1.89369">
        <ele>1317.6</ele>
        <time>2024-06-30T08:10:37Z</time>
      </trkpt>
      <trkpt lat="42.78334" lon="1.89372">
        <ele>1317.6</ele>
        <time>2024-06-30T08:10:38Z</time>
      </trkpt>
      <trkpt lat="42.78338" lon="1.89375">
        <ele>1317.6</ele>
        <time>2024-06-30T08:10:39Z</time>
      </trkpt>
      <trkpt lat="42.78341" lon="1.89377">
        <ele>1317.8</ele>
        <time>2024-06-30T08:10:40Z</time>
      </trkpt>
      <trkpt lat="42.78344" lon="1.8938">
        <ele>1318</ele>
        <time>2024-06-30T08:10:41Z</time>
      </trkpt>
      <trkpt lat="42.78347" lon="1.89382">
        <ele>1318</ele>
        <time>2024-06-30T08:10:42Z</time>
      </trkpt>
      <trkpt lat="42.7835" lon="1.89384">
        <ele>1318.2</ele>
        <time>2024-06-30T08:10:43Z</time>
      </trkpt>
      <trkpt lat="42.78352" lon="1.89386">
        <ele>1318.2</ele>
        <time>2024-06-30T08:10:44Z</time>
      </trkpt>
      <trkpt lat="42.78355" lon="1.89388">
        <ele>1318.2</ele>
        <time>2024-06-30T08:10:45Z</time>
      </trkpt>
      <trkpt lat="42.78357" lon="1.89391">
        <ele>1318.2</ele>
        <time>2024-06-30T08:10:46Z</time>
      </trkpt>
      <trkpt lat="42.78359" lon="1.89393">
        <ele>1318.4</ele>
        <time>2024-06-30T08:10:47Z</time>
      </trkpt>
      <trkpt lat="42.78362" lon="1.89394">
        <ele>1318.4</ele>
        <time>2024-06-30T08:10:48Z</time>
      </trkpt>
      <trkpt lat="42.78364" lon="1.89396">
        <ele>1318.6</ele>
        <time>2024-06-30T08:10:49Z</time>
      </trkpt>
      <trkpt lat="42.78367" lon="1.89399">
        <ele>1319.2</ele>
        <time>2024-06-30T08:10:50Z</time>
      </trkpt>
      <trkpt lat="42.78369" lon="1.89401">
        <ele>1320</ele>
        <time>2024-06-30T08:10:51Z</time>
      </trkpt>
      <trkpt lat="42.78372" lon="1.89403">
        <ele>1320.2</ele>
        <time>2024-06-30T08:10:52Z</time>
      </trkpt>
      <trkpt lat="42.78374" lon="1.89406">
        <ele>1320.4</ele>
        <time>2024-06-30T08:10:53Z</time>
      </trkpt>
      <trkpt lat="42.78377" lon="1.89408">
        <ele>1320.6</ele>
        <time>2024-06-30T08:10:54Z</time>
      </trkpt>
      <trkpt lat="42.7838" lon="1.89411">
        <ele>1321</ele>
        <time>2024-06-30T08:10:55Z</time>
      </trkpt>
      <trkpt lat="42.78383" lon="1.89414">
        <ele>1321.2</ele>
        <time>2024-06-30T08:10:56Z</time>
      </trkpt>
      <trkpt lat="42.78386" lon="1.89417">
        <ele>1321.6</ele>
        <time>2024-06-30T08:10:57Z</time>
      </trkpt>
      <trkpt lat="42.78388" lon="1.8942">
        <ele>1322</ele>
        <time>2024-06-30T08:10:58Z</time>
      </trkpt>
      <trkpt lat="42.78391" lon="1.89423">
        <ele>1322.2</ele>
        <time>2024-06-30T08:10:59Z</time>
      </trkpt>
      <trkpt lat="42.78393" lon="1.89425">
        <ele>1322.6</ele>
        <time>2024-06-30T08:11:00Z</time>
      </trkpt>
      <trkpt lat="42.78396" lon="1.89428">
        <ele>1322.6</ele>
        <time>2024-06-30T08:11:01Z</time>
      </trkpt>
      <trkpt lat="42.78398" lon="1.89431">
        <ele>1323.2</ele>
        <time>2024-06-30T08:11:02Z</time>
      </trkpt>
      <trkpt lat="42.784" lon="1.89433">
        <ele>1323.6</ele>
        <time>2024-06-30T08:11:03Z</time>
      </trkpt>
      <trkpt lat="42.78403" lon="1.89436">
        <ele>1324</ele>
        <time>2024-06-30T08:11:04Z</time>
      </trkpt>
      <trkpt lat="42.78406" lon="1.89439">
        <ele>1324.2</ele>
        <time>2024-06-30T08:11:05Z</time>
      </trkpt>
      <trkpt lat="42.78409" lon="1.89442">
        <ele>1324.4</ele>
        <time>2024-06-30T08:11:06Z</time>
      </trkpt>
      <trkpt lat="42.78412" lon="1.89445">
        <ele>1324.8</ele>
        <time>2024-06-30T08:11:07Z</time>
      </trkpt>
      <trkpt lat="42.78415" lon="1.89449">
        <ele>1325</ele>
        <time>2024-06-30T08:11:08Z</time>
      </trkpt>
      <trkpt lat="42.78419" lon="1.89452">
        <ele>1325.2</ele>
        <time>2024-06-30T08:11:09Z</time>
      </trkpt>
      <trkpt lat="42.78423" lon="1.89456">
        <ele>1325.2</ele>
        <time>2024-06-30T08:11:10Z</time>
      </trkpt>
      <trkpt lat="42.78427" lon="1.89459">
        <ele>1325.2</ele>
        <time>2024-06-30T08:11:11Z</time>
      </trkpt>
      <trkpt lat="42.78431" lon="1.89462">
        <ele>1325.2</ele>
        <time>2024-06-30T08:11:12Z</time>
      </trkpt>
      <trkpt lat="42.78435" lon="1.89465">
        <ele>1325.2</ele>
        <time>2024-06-30T08:11:13Z</time>
      </trkpt>
      <trkpt lat="42.78439" lon="1.89467">
        <ele>1325.2</ele>
        <time>2024-06-30T08:11:14Z</time>
      </trkpt>
      <trkpt lat="42.78443" lon="1.89469">
        <ele>1325.2</ele>
        <time>2024-06-30T08:11:15Z</time>
      </trkpt>
      <trkpt lat="42.78448" lon="1.89472">
        <ele>1325.2</ele>
        <time>2024-06-30T08:11:16Z</time>
      </trkpt>
      <trkpt lat="42.78452" lon="1.89473">
        <ele>1325.2</ele>
        <time>2024-06-30T08:11:17Z</time>
      </trkpt>
      <trkpt lat="42.78457" lon="1.89475">
        <ele>1325.2</ele>
        <time>2024-06-30T08:11:18Z</time>
      </trkpt>
      <trkpt lat="42.78463" lon="1.89476">
        <ele>1325.2</ele>
        <time>2024-06-30T08:11:19Z</time>
      </trkpt>
      <trkpt lat="42.78468" lon="1.89476">
        <ele>1325</ele>
        <time>2024-06-30T08:11:20Z</time>
      </trkpt>
      <trkpt lat="42.78474" lon="1.89475">
        <ele>1324.8</ele>
        <time>2024-06-30T08:11:21Z</time>
      </trkpt>
      <trkpt lat="42.78479" lon="1.89475">
        <ele>1324.8</ele>
        <time>2024-06-30T08:11:22Z</time>
      </trkpt>
      <trkpt lat="42.78485" lon="1.89474">
        <ele>1324.6</ele>
        <time>2024-06-30T08:11:23Z</time>
      </trkpt>
      <trkpt lat="42.78491" lon="1.89472">
        <ele>1324.4</ele>
        <time>2024-06-30T08:11:24Z</time>
      </trkpt>
      <trkpt lat="42.78496" lon="1.8947">
        <ele>1323.8</ele>
        <time>2024-06-30T08:11:25Z</time>
      </trkpt>
      <trkpt lat="42.78502" lon="1.89467">
        <ele>1323.8</ele>
        <time>2024-06-30T08:11:26Z</time>
      </trkpt>
      <trkpt lat="42.78507" lon="1.89464">
        <ele>1323.6</ele>
        <time>2024-06-30T08:11:27Z</time>
      </trkpt>
      <trkpt lat="42.78517" lon="1.89457">
        <ele>1323.6</ele>
        <time>2024-06-30T08:11:29Z</time>
      </trkpt>
      <trkpt lat="42.78521" lon="1.89454">
        <ele>1323.4</ele>
        <time>2024-06-30T08:11:30Z</time>
      </trkpt>
      <trkpt lat="42.7853" lon="1.89447">
        <ele>1323.4</ele>
        <time>2024-06-30T08:11:32Z</time>
      </trkpt>
      <trkpt lat="42.78535" lon="1.89444">
        <ele>1323.4</ele>
        <time>2024-06-30T08:11:33Z</time>
      </trkpt>
      <trkpt lat="42.78539" lon="1.89442">
        <ele>1323.6</ele>
        <time>2024-06-30T08:11:34Z</time>
      </trkpt>
      <trkpt lat="42.78543" lon="1.8944">
        <ele>1323.6</ele>
        <time>2024-06-30T08:11:35Z</time>
      </trkpt>
      <trkpt lat="42.78548" lon="1.89439">
        <ele>1323.6</ele>
        <time>2024-06-30T08:11:36Z</time>
      </trkpt>
      <trkpt lat="42.78565" lon="1.89433">
        <ele>1323.4</ele>
        <time>2024-06-30T08:11:40Z</time>
      </trkpt>
      <trkpt lat="42.78569" lon="1.89432">
        <ele>1323.6</ele>
        <time>2024-06-30T08:11:41Z</time>
      </trkpt>
      <trkpt lat="42.78572" lon="1.89431">
        <ele>1323.6</ele>
        <time>2024-06-30T08:11:42Z</time>
      </trkpt>
      <trkpt lat="42.78575" lon="1.89431">
        <ele>1323.6</ele>
        <time>2024-06-30T08:11:43Z</time>
      </trkpt>
      <trkpt lat="42.78578" lon="1.89431">
        <ele>1323.6</ele>
        <time>2024-06-30T08:11:44Z</time>
      </trkpt>
      <trkpt lat="42.7858" lon="1.89431">
        <ele>1323.8</ele>
        <time>2024-06-30T08:11:45Z</time>
      </trkpt>
      <trkpt lat="42.78582" lon="1.8943">
        <ele>1323.8</ele>
        <time>2024-06-30T08:11:46Z</time>
      </trkpt>
      <trkpt lat="42.78584" lon="1.89431">
        <ele>1324</ele>
        <time>2024-06-30T08:11:47Z</time>
      </trkpt>
      <trkpt lat="42.78588" lon="1.89433">
        <ele>1324</ele>
        <time>2024-06-30T08:11:49Z</time>
      </trkpt>
      <trkpt lat="42.7859" lon="1.89434">
        <ele>1324</ele>
        <time>2024-06-30T08:11:50Z</time>
      </trkpt>
      <trkpt lat="42.78593" lon="1.89435">
        <ele>1324</ele>
        <time>2024-06-30T08:11:51Z</time>
      </trkpt>
      <trkpt lat="42.78595" lon="1.89436">
        <ele>1324.6</ele>
        <time>2024-06-30T08:11:52Z</time>
      </trkpt>
      <trkpt lat="42.78598" lon="1.89437">
        <ele>1324.6</ele>
        <time>2024-06-30T08:11:53Z</time>
      </trkpt>
      <trkpt lat="42.78616" lon="1.8944">
        <ele>1325.8</ele>
        <time>2024-06-30T08:11:59Z</time>
      </trkpt>
      <trkpt lat="42.78626" lon="1.89443">
        <ele>1326.4</ele>
        <time>2024-06-30T08:12:02Z</time>
      </trkpt>
      <trkpt lat="42.78628" lon="1.89444">
        <ele>1327</ele>
        <time>2024-06-30T08:12:03Z</time>
      </trkpt>
      <trkpt lat="42.78631" lon="1.89443">
        <ele>1327.8</ele>
        <time>2024-06-30T08:12:04Z</time>
      </trkpt>
      <trkpt lat="42.78632" lon="1.89441">
        <ele>1328.2</ele>
        <time>2024-06-30T08:12:05Z</time>
      </trkpt>
      <trkpt lat="42.78633" lon="1.89437">
        <ele>1329</ele>
        <time>2024-06-30T08:12:06Z</time>
      </trkpt>
      <trkpt lat="42.78633" lon="1.89434">
        <ele>1329.4</ele>
        <time>2024-06-30T08:12:07Z</time>
      </trkpt>
      <trkpt lat="42.78632" lon="1.8943">
        <ele>1330</ele>
        <time>2024-06-30T08:12:08Z</time>
      </trkpt>
      <trkpt lat="42.78631" lon="1.89427">
        <ele>1330</ele>
        <time>2024-06-30T08:12:09Z</time>
      </trkpt>
      <trkpt lat="42.7863" lon="1.89424">
        <ele>1330.4</ele>
        <time>2024-06-30T08:12:10Z</time>
      </trkpt>
      <trkpt lat="42.7863" lon="1.8942">
        <ele>1330.4</ele>
        <time>2024-06-30T08:12:11Z</time>
      </trkpt>
      <trkpt lat="42.7863" lon="1.89417">
        <ele>1330.8</ele>
        <time>2024-06-30T08:12:12Z</time>
      </trkpt>
      <trkpt lat="42.78631" lon="1.89414">
        <ele>1331.4</ele>
        <time>2024-06-30T08:12:13Z</time>
      </trkpt>
      <trkpt lat="42.78631" lon="1.89411">
        <ele>1331.8</ele>
        <time>2024-06-30T08:12:14Z</time>
      </trkpt>
      <trkpt lat="42.78631" lon="1.89407">
        <ele>1332.6</ele>
        <time>2024-06-30T08:12:15Z</time>
      </trkpt>
      <trkpt lat="42.78632" lon="1.89403">
        <ele>1332.8</ele>
        <time>2024-06-30T08:12:16Z</time>
      </trkpt>
      <trkpt lat="42.78633" lon="1.89397">
        <ele>1333.4</ele>
        <time>2024-06-30T08:12:17Z</time>
      </trkpt>
      <trkpt lat="42.78633" lon="1.89395">
        <ele>1333.6</ele>
        <time>2024-06-30T08:12:18Z</time>
      </trkpt>
      <trkpt lat="42.78633" lon="1.89393">
        <ele>1334</ele>
        <time>2024-06-30T08:12:19Z</time>
      </trkpt>
      <trkpt lat="42.78634" lon="1.89387">
        <ele>1334.4</ele>
        <time>2024-06-30T08:12:20Z</time>
      </trkpt>
      <trkpt lat="42.78634" lon="1.89386">
        <ele>1335</ele>
        <time>2024-06-30T08:12:21Z</time>
      </trkpt>
      <trkpt lat="42.78635" lon="1.89382">
        <ele>1336.2</ele>
        <time>2024-06-30T08:12:22Z</time>
      </trkpt>
      <trkpt lat="42.78635" lon="1.89378">
        <ele>1336.6</ele>
        <time>2024-06-30T08:12:23Z</time>
      </trkpt>
      <trkpt lat="42.78635" lon="1.89375">
        <ele>1337.2</ele>
        <time>2024-06-30T08:12:24Z</time>
      </trkpt>
      <trkpt lat="42.78638" lon="1.89368">
        <ele>1337.4</ele>
        <time>2024-06-30T08:12:25Z</time>
      </trkpt>
      <trkpt lat="42.7864" lon="1.89366">
        <ele>1337.8</ele>
        <time>2024-06-30T08:12:26Z</time>
      </trkpt>
      <trkpt lat="42.78642" lon="1.89365">
        <ele>1338</ele>
        <time>2024-06-30T08:12:27Z</time>
      </trkpt>
      <trkpt lat="42.78642" lon="1.89365">
        <ele>1338.4</ele>
        <time>2024-06-30T08:12:28Z</time>
      </trkpt>
      <trkpt lat="42.78647" lon="1.89364">
        <ele>1338.6</ele>
        <time>2024-06-30T08:12:29Z</time>
      </trkpt>
      <trkpt lat="42.78649" lon="1.89364">
        <ele>1338.8</ele>
        <time>2024-06-30T08:12:30Z</time>
      </trkpt>
      <trkpt lat="42.78651" lon="1.89364">
        <ele>1339.2</ele>
        <time>2024-06-30T08:12:31Z</time>
      </trkpt>
      <trkpt lat="42.78653" lon="1.89364">
        <ele>1339.2</ele>
        <time>2024-06-30T08:12:32Z</time>
      </trkpt>
      <trkpt lat="42.78657" lon="1.89364">
        <ele>1339.8</ele>
        <time>2024-06-30T08:12:33Z</time>
      </trkpt>
      <trkpt lat="42.78658" lon="1.89364">
        <ele>1340</ele>
        <time>2024-06-30T08:12:34Z</time>
      </trkpt>
      <trkpt lat="42.7866" lon="1.89364">
        <ele>1340.2</ele>
        <time>2024-06-30T08:12:35Z</time>
      </trkpt>
      <trkpt lat="42.7866" lon="1.89364">
        <ele>1340.4</ele>
        <time>2024-06-30T08:12:36Z</time>
      </trkpt>
      <trkpt lat="42.78665" lon="1.89366">
        <ele>1340.8</ele>
        <time>2024-06-30T08:12:37Z</time>
      </trkpt>
      <trkpt lat="42.78666" lon="1.89367">
        <ele>1341.4</ele>
        <time>2024-06-30T08:12:38Z</time>
      </trkpt>
      <trkpt lat="42.78668" lon="1.89369">
        <ele>1341.6</ele>
        <time>2024-06-30T08:12:39Z</time>
      </trkpt>
      <trkpt lat="42.78668" lon="1.89369">
        <ele>1342</ele>
        <time>2024-06-30T08:12:40Z</time>
      </trkpt>
      <trkpt lat="42.78673" lon="1.89374">
        <ele>1342.2</ele>
        <time>2024-06-30T08:12:41Z</time>
      </trkpt>
      <trkpt lat="42.78673" lon="1.89374">
        <ele>1343.2</ele>
        <time>2024-06-30T08:12:42Z</time>
      </trkpt>
      <trkpt lat="42.78675" lon="1.89378">
        <ele>1343.4</ele>
        <time>2024-06-30T08:12:43Z</time>
      </trkpt>
      <trkpt lat="42.78677" lon="1.89386">
        <ele>1343.8</ele>
        <time>2024-06-30T08:12:44Z</time>
      </trkpt>
      <trkpt lat="42.78676" lon="1.89389">
        <ele>1344</ele>
        <time>2024-06-30T08:12:45Z</time>
      </trkpt>
      <trkpt lat="42.78675" lon="1.89392">
        <ele>1344.4</ele>
        <time>2024-06-30T08:12:46Z</time>
      </trkpt>
      <trkpt lat="42.78674" lon="1.89395">
        <ele>1344.6</ele>
        <time>2024-06-30T08:12:47Z</time>
      </trkpt>
      <trkpt lat="42.78674" lon="1.89395">
        <ele>1344.8</ele>
        <time>2024-06-30T08:12:48Z</time>
      </trkpt>
      <trkpt lat="42.78674" lon="1.89398">
        <ele>1345.6</ele>
        <time>2024-06-30T08:12:49Z</time>
      </trkpt>
      <trkpt lat="42.78674" lon="1.89403">
        <ele>1345.8</ele>
        <time>2024-06-30T08:12:50Z</time>
      </trkpt>
      <trkpt lat="42.78674" lon="1.89405">
        <ele>1346</ele>
        <time>2024-06-30T08:12:51Z</time>
      </trkpt>
      <trkpt lat="42.78674" lon="1.89407">
        <ele>1346.2</ele>
        <time>2024-06-30T08:12:52Z</time>
      </trkpt>
      <trkpt lat="42.78674" lon="1.89409">
        <ele>1346.4</ele>
        <time>2024-06-30T08:12:53Z</time>
      </trkpt>
      <trkpt lat="42.78674" lon="1.89409">
        <ele>1346.6</ele>
        <time>2024-06-30T08:12:54Z</time>
      </trkpt>
      <trkpt lat="42.78674" lon="1.8941">
        <ele>1346.8</ele>
        <time>2024-06-30T08:12:55Z</time>
      </trkpt>
      <trkpt lat="42.78674" lon="1.8941">
        <ele>1347</ele>
        <time>2024-06-30T08:12:56Z</time>
      </trkpt>
      <trkpt lat="42.78674" lon="1.8941">
        <ele>1347.4</ele>
        <time>2024-06-30T08:12:58Z</time>
      </trkpt>
      <trkpt lat="42.78671" lon="1.89414">
        <ele>1346.8</ele>
        <time>2024-06-30T08:15:36Z</time>
      </trkpt>
      <trkpt lat="42.78671" lon="1.89419">
        <ele>1346.8</ele>
        <time>2024-06-30T08:15:38Z</time>
      </trkpt>
      <trkpt lat="42.78672" lon="1.89421">
        <ele>1346.8</ele>
        <time>2024-06-30T08:15:39Z</time>
      </trkpt>
      <trkpt lat="42.78674" lon="1.89422">
        <ele>1346.8</ele>
        <time>2024-06-30T08:15:40Z</time>
      </trkpt>
      <trkpt lat="42.78675" lon="1.89423">
        <ele>1346.8</ele>
        <time>2024-06-30T08:15:41Z</time>
      </trkpt>
      <trkpt lat="42.78678" lon="1.89426">
        <ele>1346.8</ele>
        <time>2024-06-30T08:15:43Z</time>
      </trkpt>
      <trkpt lat="42.78679" lon="1.89428">
        <ele>1346.8</ele>
        <time>2024-06-30T08:15:44Z</time>
      </trkpt>
      <trkpt lat="42.78681" lon="1.89431">
        <ele>1346.8</ele>
        <time>2024-06-30T08:15:45Z</time>
      </trkpt>
      <trkpt lat="42.78682" lon="1.89433">
        <ele>1346.8</ele>
        <time>2024-06-30T08:15:46Z</time>
      </trkpt>
      <trkpt lat="42.78691" lon="1.89447">
        <ele>1346.6</ele>
        <time>2024-06-30T08:15:52Z</time>
      </trkpt>
      <trkpt lat="42.78695" lon="1.89456">
        <ele>1346.6</ele>
        <time>2024-06-30T08:15:54Z</time>
      </trkpt>
      <trkpt lat="42.78695" lon="1.89456">
        <ele>1346.6</ele>
        <time>2024-06-30T08:15:55Z</time>
      </trkpt>
      <trkpt lat="42.78697" lon="1.8946">
        <ele>1346.6</ele>
        <time>2024-06-30T08:15:56Z</time>
      </trkpt>
      <trkpt lat="42.78697" lon="1.89463">
        <ele>1346.6</ele>
        <time>2024-06-30T08:15:57Z</time>
      </trkpt>
      <trkpt lat="42.78696" lon="1.8947">
        <ele>1346.6</ele>
        <time>2024-06-30T08:15:59Z</time>
      </trkpt>
      <trkpt lat="42.78696" lon="1.8947">
        <ele>1346.6</ele>
        <time>2024-06-30T08:16:00Z</time>
      </trkpt>
      <trkpt lat="42.78691" lon="1.89482">
        <ele>1346.6</ele>
        <time>2024-06-30T08:16:02Z</time>
      </trkpt>
      <trkpt lat="42.78689" lon="1.89484">
        <ele>1346.6</ele>
        <time>2024-06-30T08:16:03Z</time>
      </trkpt>
      <trkpt lat="42.78689" lon="1.89487">
        <ele>1346.4</ele>
        <time>2024-06-30T08:16:04Z</time>
      </trkpt>
      <trkpt lat="42.78691" lon="1.8949">
        <ele>1345.8</ele>
        <time>2024-06-30T08:16:05Z</time>
      </trkpt>
      <trkpt lat="42.78694" lon="1.89493">
        <ele>1345.6</ele>
        <time>2024-06-30T08:16:06Z</time>
      </trkpt>
      <trkpt lat="42.787" lon="1.89501">
        <ele>1344.4</ele>
        <time>2024-06-30T08:16:08Z</time>
      </trkpt>
      <trkpt lat="42.78705" lon="1.89512">
        <ele>1343.4</ele>
        <time>2024-06-30T08:16:10Z</time>
      </trkpt>
      <trkpt lat="42.78707" lon="1.89518">
        <ele>1343.2</ele>
        <time>2024-06-30T08:16:11Z</time>
      </trkpt>
      <trkpt lat="42.78708" lon="1.89526">
        <ele>1342.6</ele>
        <time>2024-06-30T08:16:12Z</time>
      </trkpt>
      <trkpt lat="42.78709" lon="1.89534">
        <ele>1342.6</ele>
        <time>2024-06-30T08:16:13Z</time>
      </trkpt>
      <trkpt lat="42.78709" lon="1.89541">
        <ele>1341.8</ele>
        <time>2024-06-30T08:16:14Z</time>
      </trkpt>
      <trkpt lat="42.78711" lon="1.89555">
        <ele>1340.6</ele>
        <time>2024-06-30T08:16:16Z</time>
      </trkpt>
      <trkpt lat="42.78714" lon="1.8956">
        <ele>1339.6</ele>
        <time>2024-06-30T08:16:17Z</time>
      </trkpt>
      <trkpt lat="42.78717" lon="1.89565">
        <ele>1339.2</ele>
        <time>2024-06-30T08:16:18Z</time>
      </trkpt>
      <trkpt lat="42.78722" lon="1.89569">
        <ele>1338.2</ele>
        <time>2024-06-30T08:16:19Z</time>
      </trkpt>
      <trkpt lat="42.78727" lon="1.89572">
        <ele>1337.8</ele>
        <time>2024-06-30T08:16:20Z</time>
      </trkpt>
      <trkpt lat="42.78731" lon="1.89575">
        <ele>1337</ele>
        <time>2024-06-30T08:16:21Z</time>
      </trkpt>
      <trkpt lat="42.78733" lon="1.89577">
        <ele>1335.6</ele>
        <time>2024-06-30T08:16:22Z</time>
      </trkpt>
      <trkpt lat="42.78734" lon="1.89579">
        <ele>1335</ele>
        <time>2024-06-30T08:16:23Z</time>
      </trkpt>
      <trkpt lat="42.78734" lon="1.89581">
        <ele>1334</ele>
        <time>2024-06-30T08:16:24Z</time>
      </trkpt>
      <trkpt lat="42.78732" lon="1.89582">
        <ele>1333.8</ele>
        <time>2024-06-30T08:16:25Z</time>
      </trkpt>
      <trkpt lat="42.7873" lon="1.89583">
        <ele>1332.8</ele>
        <time>2024-06-30T08:16:26Z</time>
      </trkpt>
      <trkpt lat="42.78725" lon="1.89586">
        <ele>1331.4</ele>
        <time>2024-06-30T08:16:28Z</time>
      </trkpt>
      <trkpt lat="42.78725" lon="1.89589">
        <ele>1331</ele>
        <time>2024-06-30T08:16:29Z</time>
      </trkpt>
      <trkpt lat="42.78726" lon="1.89592">
        <ele>1330.2</ele>
        <time>2024-06-30T08:16:30Z</time>
      </trkpt>
      <trkpt lat="42.78734" lon="1.89594">
        <ele>1329.4</ele>
        <time>2024-06-30T08:16:32Z</time>
      </trkpt>
      <trkpt lat="42.78739" lon="1.89595">
        <ele>1328.8</ele>
        <time>2024-06-30T08:16:33Z</time>
      </trkpt>
      <trkpt lat="42.78747" lon="1.89595">
        <ele>1328.6</ele>
        <time>2024-06-30T08:16:35Z</time>
      </trkpt>
      <trkpt lat="42.78749" lon="1.89598">
        <ele>1328.2</ele>
        <time>2024-06-30T08:16:36Z</time>
      </trkpt>
      <trkpt lat="42.78747" lon="1.89601">
        <ele>1327.4</ele>
        <time>2024-06-30T08:16:37Z</time>
      </trkpt>
      <trkpt lat="42.78745" lon="1.89606">
        <ele>1326.8</ele>
        <time>2024-06-30T08:16:38Z</time>
      </trkpt>
      <trkpt lat="42.78741" lon="1.89609">
        <ele>1326.4</ele>
        <time>2024-06-30T08:16:39Z</time>
      </trkpt>
      <trkpt lat="42.78738" lon="1.89612">
        <ele>1326.2</ele>
        <time>2024-06-30T08:16:40Z</time>
      </trkpt>
      <trkpt lat="42.78733" lon="1.89612">
        <ele>1326</ele>
        <time>2024-06-30T08:16:41Z</time>
      </trkpt>
      <trkpt lat="42.78724" lon="1.89611">
        <ele>1326</ele>
        <time>2024-06-30T08:16:43Z</time>
      </trkpt>
      <trkpt lat="42.7872" lon="1.89609">
        <ele>1325.6</ele>
        <time>2024-06-30T08:16:44Z</time>
      </trkpt>
      <trkpt lat="42.78716" lon="1.89607">
        <ele>1324.4</ele>
        <time>2024-06-30T08:16:45Z</time>
      </trkpt>
      <trkpt lat="42.78709" lon="1.89602">
        <ele>1322.8</ele>
        <time>2024-06-30T08:16:47Z</time>
      </trkpt>
      <trkpt lat="42.78707" lon="1.89598">
        <ele>1322.6</ele>
        <time>2024-06-30T08:16:48Z</time>
      </trkpt>
      <trkpt lat="42.78705" lon="1.89596">
        <ele>1322.2</ele>
        <time>2024-06-30T08:16:49Z</time>
      </trkpt>
      <trkpt lat="42.78703" lon="1.89595">
        <ele>1322</ele>
        <time>2024-06-30T08:16:50Z</time>
      </trkpt>
      <trkpt lat="42.78702" lon="1.89596">
        <ele>1321.8</ele>
        <time>2024-06-30T08:16:51Z</time>
      </trkpt>
      <trkpt lat="42.78703" lon="1.89598">
        <ele>1321.6</ele>
        <time>2024-06-30T08:16:52Z</time>
      </trkpt>
      <trkpt lat="42.78703" lon="1.89601">
        <ele>1321.6</ele>
        <time>2024-06-30T08:16:53Z</time>
      </trkpt>
      <trkpt lat="42.78707" lon="1.89617">
        <ele>1321.4</ele>
        <time>2024-06-30T08:16:56Z</time>
      </trkpt>
      <trkpt lat="42.7871" lon="1.89623">
        <ele>1321.2</ele>
        <time>2024-06-30T08:16:57Z</time>
      </trkpt>
      <trkpt lat="42.78713" lon="1.89629">
        <ele>1321.2</ele>
        <time>2024-06-30T08:16:58Z</time>
      </trkpt>
      <trkpt lat="42.78717" lon="1.89634">
        <ele>1321</ele>
        <time>2024-06-30T08:16:59Z</time>
      </trkpt>
      <trkpt lat="42.78719" lon="1.8964">
        <ele>1320.8</ele>
        <time>2024-06-30T08:17:00Z</time>
      </trkpt>
      <trkpt lat="42.78721" lon="1.89646">
        <ele>1319.8</ele>
        <time>2024-06-30T08:17:01Z</time>
      </trkpt>
      <trkpt lat="42.78723" lon="1.89651">
        <ele>1319.2</ele>
        <time>2024-06-30T08:17:02Z</time>
      </trkpt>
      <trkpt lat="42.78725" lon="1.89652">
        <ele>1318.4</ele>
        <time>2024-06-30T08:17:03Z</time>
      </trkpt>
      <trkpt lat="42.78728" lon="1.89654">
        <ele>1318</ele>
        <time>2024-06-30T08:17:04Z</time>
      </trkpt>
      <trkpt lat="42.7873" lon="1.89657">
        <ele>1317.2</ele>
        <time>2024-06-30T08:17:05Z</time>
      </trkpt>
      <trkpt lat="42.78733" lon="1.8966">
        <ele>1317</ele>
        <time>2024-06-30T08:17:06Z</time>
      </trkpt>
      <trkpt lat="42.78736" lon="1.89664">
        <ele>1316.6</ele>
        <time>2024-06-30T08:17:07Z</time>
      </trkpt>
      <trkpt lat="42.78739" lon="1.89667">
        <ele>1316</ele>
        <time>2024-06-30T08:17:08Z</time>
      </trkpt>
      <trkpt lat="42.78742" lon="1.8967">
        <ele>1315.4</ele>
        <time>2024-06-30T08:17:09Z</time>
      </trkpt>
      <trkpt lat="42.78746" lon="1.89672">
        <ele>1314</ele>
        <time>2024-06-30T08:17:10Z</time>
      </trkpt>
      <trkpt lat="42.78749" lon="1.89676">
        <ele>1312.2</ele>
        <time>2024-06-30T08:17:12Z</time>
      </trkpt>
      <trkpt lat="42.78749" lon="1.89681">
        <ele>1311.8</ele>
        <time>2024-06-30T08:17:13Z</time>
      </trkpt>
      <trkpt lat="42.78748" lon="1.89686">
        <ele>1310.8</ele>
        <time>2024-06-30T08:17:14Z</time>
      </trkpt>
      <trkpt lat="42.78744" lon="1.89697">
        <ele>1308.8</ele>
        <time>2024-06-30T08:17:16Z</time>
      </trkpt>
      <trkpt lat="42.78742" lon="1.89703">
        <ele>1307.8</ele>
        <time>2024-06-30T08:17:17Z</time>
      </trkpt>
      <trkpt lat="42.78737" lon="1.89715">
        <ele>1306</ele>
        <time>2024-06-30T08:17:19Z</time>
      </trkpt>
      <trkpt lat="42.78734" lon="1.89719">
        <ele>1305.6</ele>
        <time>2024-06-30T08:17:20Z</time>
      </trkpt>
      <trkpt lat="42.78731" lon="1.89721">
        <ele>1304.2</ele>
        <time>2024-06-30T08:17:21Z</time>
      </trkpt>
      <trkpt lat="42.78729" lon="1.89719">
        <ele>1303.8</ele>
        <time>2024-06-30T08:17:22Z</time>
      </trkpt>
      <trkpt lat="42.78727" lon="1.89717">
        <ele>1303.2</ele>
        <time>2024-06-30T08:17:23Z</time>
      </trkpt>
      <trkpt lat="42.78726" lon="1.89718">
        <ele>1302</ele>
        <time>2024-06-30T08:17:24Z</time>
      </trkpt>
      <trkpt lat="42.78726" lon="1.8972">
        <ele>1301.2</ele>
        <time>2024-06-30T08:17:25Z</time>
      </trkpt>
      <trkpt lat="42.78727" lon="1.89722">
        <ele>1300.2</ele>
        <time>2024-06-30T08:17:26Z</time>
      </trkpt>
      <trkpt lat="42.78729" lon="1.89723">
        <ele>1299.8</ele>
        <time>2024-06-30T08:17:27Z</time>
      </trkpt>
      <trkpt lat="42.78734" lon="1.89726">
        <ele>1299</ele>
        <time>2024-06-30T08:17:28Z</time>
      </trkpt>
      <trkpt lat="42.78738" lon="1.89729">
        <ele>1298.6</ele>
        <time>2024-06-30T08:17:29Z</time>
      </trkpt>
      <trkpt lat="42.78743" lon="1.89732">
        <ele>1298</ele>
        <time>2024-06-30T08:17:30Z</time>
      </trkpt>
      <trkpt lat="42.78747" lon="1.89736">
        <ele>1297.6</ele>
        <time>2024-06-30T08:17:31Z</time>
      </trkpt>
      <trkpt lat="42.7875" lon="1.89749">
        <ele>1296.6</ele>
        <time>2024-06-30T08:17:33Z</time>
      </trkpt>
      <trkpt lat="42.78749" lon="1.89758">
        <ele>1296.4</ele>
        <time>2024-06-30T08:17:34Z</time>
      </trkpt>
      <trkpt lat="42.78747" lon="1.89768">
        <ele>1295.8</ele>
        <time>2024-06-30T08:17:35Z</time>
      </trkpt>
      <trkpt lat="42.78747" lon="1.89778">
        <ele>1295.6</ele>
        <time>2024-06-30T08:17:36Z</time>
      </trkpt>
      <trkpt lat="42.78748" lon="1.89786">
        <ele>1294.6</ele>
        <time>2024-06-30T08:17:37Z</time>
      </trkpt>
      <trkpt lat="42.78748" lon="1.89794">
        <ele>1294</ele>
        <time>2024-06-30T08:17:38Z</time>
      </trkpt>
      <trkpt lat="42.7875" lon="1.89809">
        <ele>1293.2</ele>
        <time>2024-06-30T08:17:39Z</time>
      </trkpt>
      <trkpt lat="42.78753" lon="1.89818">
        <ele>1292.2</ele>
        <time>2024-06-30T08:17:40Z</time>
      </trkpt>
      <trkpt lat="42.78757" lon="1.89825">
        <ele>1291.8</ele>
        <time>2024-06-30T08:17:41Z</time>
      </trkpt>
      <trkpt lat="42.78761" lon="1.89829">
        <ele>1290.8</ele>
        <time>2024-06-30T08:17:42Z</time>
      </trkpt>
      <trkpt lat="42.78764" lon="1.89832">
        <ele>1290</ele>
        <time>2024-06-30T08:17:43Z</time>
      </trkpt>
      <trkpt lat="42.78767" lon="1.89835">
        <ele>1289</ele>
        <time>2024-06-30T08:17:44Z</time>
      </trkpt>
      <trkpt lat="42.7877" lon="1.89836">
        <ele>1288.4</ele>
        <time>2024-06-30T08:17:45Z</time>
      </trkpt>
      <trkpt lat="42.78772" lon="1.89837">
        <ele>1287.4</ele>
        <time>2024-06-30T08:17:46Z</time>
      </trkpt>
      <trkpt lat="42.78773" lon="1.89836">
        <ele>1286</ele>
        <time>2024-06-30T08:17:47Z</time>
      </trkpt>
      <trkpt lat="42.78773" lon="1.89836">
        <ele>1285</ele>
        <time>2024-06-30T08:17:48Z</time>
      </trkpt>
      <trkpt lat="42.78773" lon="1.89836">
        <ele>1283.8</ele>
        <time>2024-06-30T08:17:49Z</time>
      </trkpt>
      <trkpt lat="42.78773" lon="1.89836">
        <ele>1283.2</ele>
        <time>2024-06-30T08:17:50Z</time>
      </trkpt>
      <trkpt lat="42.78776" lon="1.89835">
        <ele>1280.2</ele>
        <time>2024-06-30T08:18:07Z</time>
      </trkpt>
      <trkpt lat="42.78787" lon="1.89829">
        <ele>1280</ele>
        <time>2024-06-30T08:18:10Z</time>
      </trkpt>
      <trkpt lat="42.78787" lon="1.89829">
        <ele>1279.8</ele>
        <time>2024-06-30T08:18:11Z</time>
      </trkpt>
      <trkpt lat="42.78813" lon="1.89809">
        <ele>1279.2</ele>
        <time>2024-06-30T08:18:15Z</time>
      </trkpt>
      <trkpt lat="42.7882" lon="1.89805">
        <ele>1279</ele>
        <time>2024-06-30T08:18:16Z</time>
      </trkpt>
      <trkpt lat="42.78834" lon="1.89796">
        <ele>1278.4</ele>
        <time>2024-06-30T08:18:19Z</time>
      </trkpt>
      <trkpt lat="42.78845" lon="1.89785">
        <ele>1278.2</ele>
        <time>2024-06-30T08:18:20Z</time>
      </trkpt>
      <trkpt lat="42.78849" lon="1.89777">
        <ele>1277.6</ele>
        <time>2024-06-30T08:18:21Z</time>
      </trkpt>
      <trkpt lat="42.78853" lon="1.89769">
        <ele>1277.4</ele>
        <time>2024-06-30T08:18:22Z</time>
      </trkpt>
      <trkpt lat="42.78857" lon="1.8976">
        <ele>1277</ele>
        <time>2024-06-30T08:18:23Z</time>
      </trkpt>
      <trkpt lat="42.7886" lon="1.8975">
        <ele>1276.4</ele>
        <time>2024-06-30T08:18:24Z</time>
      </trkpt>
      <trkpt lat="42.78865" lon="1.89732">
        <ele>1275.8</ele>
        <time>2024-06-30T08:18:26Z</time>
      </trkpt>
      <trkpt lat="42.78867" lon="1.89715">
        <ele>1275.2</ele>
        <time>2024-06-30T08:18:28Z</time>
      </trkpt>
      <trkpt lat="42.78867" lon="1.89708">
        <ele>1275</ele>
        <time>2024-06-30T08:18:29Z</time>
      </trkpt>
      <trkpt lat="42.78867" lon="1.89701">
        <ele>1274.6</ele>
        <time>2024-06-30T08:18:30Z</time>
      </trkpt>
      <trkpt lat="42.78867" lon="1.89694">
        <ele>1274.4</ele>
        <time>2024-06-30T08:18:31Z</time>
      </trkpt>
      <trkpt lat="42.78868" lon="1.89688">
        <ele>1274.2</ele>
        <time>2024-06-30T08:18:32Z</time>
      </trkpt>
      <trkpt lat="42.7887" lon="1.89682">
        <ele>1274</ele>
        <time>2024-06-30T08:18:33Z</time>
      </trkpt>
      <trkpt lat="42.78871" lon="1.89676">
        <ele>1274</ele>
        <time>2024-06-30T08:18:34Z</time>
      </trkpt>
      <trkpt lat="42.78873" lon="1.8967">
        <ele>1273.8</ele>
        <time>2024-06-30T08:18:35Z</time>
      </trkpt>
      <trkpt lat="42.78876" lon="1.89659">
        <ele>1273.8</ele>
        <time>2024-06-30T08:18:37Z</time>
      </trkpt>
      <trkpt lat="42.78877" lon="1.89653">
        <ele>1273.8</ele>
        <time>2024-06-30T08:18:38Z</time>
      </trkpt>
      <trkpt lat="42.78878" lon="1.89646">
        <ele>1273.6</ele>
        <time>2024-06-30T08:18:39Z</time>
      </trkpt>
      <trkpt lat="42.78881" lon="1.89609">
        <ele>1273.8</ele>
        <time>2024-06-30T08:18:45Z</time>
      </trkpt>
      <trkpt lat="42.78883" lon="1.89592">
        <ele>1273.8</ele>
        <time>2024-06-30T08:18:48Z</time>
      </trkpt>
      <trkpt lat="42.78887" lon="1.89581">
        <ele>1274.2</ele>
        <time>2024-06-30T08:18:50Z</time>
      </trkpt>
      <trkpt lat="42.78888" lon="1.89575">
        <ele>1274.4</ele>
        <time>2024-06-30T08:18:51Z</time>
      </trkpt>
      <trkpt lat="42.78892" lon="1.89565">
        <ele>1274.6</ele>
        <time>2024-06-30T08:18:53Z</time>
      </trkpt>
      <trkpt lat="42.78893" lon="1.89559">
        <ele>1274.6</ele>
        <time>2024-06-30T08:18:54Z</time>
      </trkpt>
      <trkpt lat="42.78893" lon="1.89554">
        <ele>1274.6</ele>
        <time>2024-06-30T08:18:55Z</time>
      </trkpt>
      <trkpt lat="42.78894" lon="1.89549">
        <ele>1274.8</ele>
        <time>2024-06-30T08:18:56Z</time>
      </trkpt>
      <trkpt lat="42.78893" lon="1.89533">
        <ele>1275</ele>
        <time>2024-06-30T08:18:59Z</time>
      </trkpt>
      <trkpt lat="42.78893" lon="1.89528">
        <ele>1275.6</ele>
        <time>2024-06-30T08:19:00Z</time>
      </trkpt>
      <trkpt lat="42.78892" lon="1.89522">
        <ele>1275.8</ele>
        <time>2024-06-30T08:19:01Z</time>
      </trkpt>
      <trkpt lat="42.78892" lon="1.89517">
        <ele>1276.2</ele>
        <time>2024-06-30T08:19:02Z</time>
      </trkpt>
      <trkpt lat="42.78892" lon="1.89512">
        <ele>1276.6</ele>
        <time>2024-06-30T08:19:03Z</time>
      </trkpt>
      <trkpt lat="42.78891" lon="1.89507">
        <ele>1276.8</ele>
        <time>2024-06-30T08:19:04Z</time>
      </trkpt>
      <trkpt lat="42.78891" lon="1.89502">
        <ele>1277</ele>
        <time>2024-06-30T08:19:05Z</time>
      </trkpt>
      <trkpt lat="42.78889" lon="1.89483">
        <ele>1277.6</ele>
        <time>2024-06-30T08:19:09Z</time>
      </trkpt>
      <trkpt lat="42.78888" lon="1.89477">
        <ele>1277.8</ele>
        <time>2024-06-30T08:19:10Z</time>
      </trkpt>
      <trkpt lat="42.78887" lon="1.89472">
        <ele>1278.2</ele>
        <time>2024-06-30T08:19:11Z</time>
      </trkpt>
      <trkpt lat="42.78886" lon="1.89467">
        <ele>1278.6</ele>
        <time>2024-06-30T08:19:12Z</time>
      </trkpt>
      <trkpt lat="42.78884" lon="1.89462">
        <ele>1278.8</ele>
        <time>2024-06-30T08:19:13Z</time>
      </trkpt>
      <trkpt lat="42.78883" lon="1.89456">
        <ele>1278.8</ele>
        <time>2024-06-30T08:19:14Z</time>
      </trkpt>
      <trkpt lat="42.78882" lon="1.89451">
        <ele>1279</ele>
        <time>2024-06-30T08:19:15Z</time>
      </trkpt>
      <trkpt lat="42.7888" lon="1.89446">
        <ele>1279</ele>
        <time>2024-06-30T08:19:16Z</time>
      </trkpt>
      <trkpt lat="42.78879" lon="1.89442">
        <ele>1279</ele>
        <time>2024-06-30T08:19:17Z</time>
      </trkpt>
      <trkpt lat="42.78877" lon="1.89437">
        <ele>1279.2</ele>
        <time>2024-06-30T08:19:18Z</time>
      </trkpt>
      <trkpt lat="42.78875" lon="1.89432">
        <ele>1279.2</ele>
        <time>2024-06-30T08:19:19Z</time>
      </trkpt>
      <trkpt lat="42.78873" lon="1.89428">
        <ele>1279.2</ele>
        <time>2024-06-30T08:19:20Z</time>
      </trkpt>
      <trkpt lat="42.78871" lon="1.89424">
        <ele>1279.4</ele>
        <time>2024-06-30T08:19:21Z</time>
      </trkpt>
      <trkpt lat="42.78869" lon="1.89419">
        <ele>1279.4</ele>
        <time>2024-06-30T08:19:22Z</time>
      </trkpt>
      <trkpt lat="42.78867" lon="1.89415">
        <ele>1279.8</ele>
        <time>2024-06-30T08:19:23Z</time>
      </trkpt>
      <trkpt lat="42.78865" lon="1.89411">
        <ele>1280</ele>
        <time>2024-06-30T08:19:24Z</time>
      </trkpt>
      <trkpt lat="42.78862" lon="1.89408">
        <ele>1280.2</ele>
        <time>2024-06-30T08:19:25Z</time>
      </trkpt>
      <trkpt lat="42.7886" lon="1.89404">
        <ele>1280.4</ele>
        <time>2024-06-30T08:19:26Z</time>
      </trkpt>
      <trkpt lat="42.78857" lon="1.894">
        <ele>1280.6</ele>
        <time>2024-06-30T08:19:27Z</time>
      </trkpt>
      <trkpt lat="42.78854" lon="1.89397">
        <ele>1280.6</ele>
        <time>2024-06-30T08:19:28Z</time>
      </trkpt>
      <trkpt lat="42.78851" lon="1.89394">
        <ele>1280.6</ele>
        <time>2024-06-30T08:19:29Z</time>
      </trkpt>
      <trkpt lat="42.78851" lon="1.89394">
        <ele>1280.8</ele>
        <time>2024-06-30T08:19:30Z</time>
      </trkpt>
      <trkpt lat="42.78847" lon="1.89389">
        <ele>1280.8</ele>
        <time>2024-06-30T08:19:31Z</time>
      </trkpt>
      <trkpt lat="42.78846" lon="1.89387">
        <ele>1281</ele>
        <time>2024-06-30T08:19:32Z</time>
      </trkpt>
      <trkpt lat="42.78844" lon="1.89386">
        <ele>1281</ele>
        <time>2024-06-30T08:19:33Z</time>
      </trkpt>
      <trkpt lat="42.78843" lon="1.89384">
        <ele>1281.2</ele>
        <time>2024-06-30T08:19:34Z</time>
      </trkpt>
      <trkpt lat="42.78841" lon="1.89381">
        <ele>1281.4</ele>
        <time>2024-06-30T08:19:35Z</time>
      </trkpt>
      <trkpt lat="42.78841" lon="1.89378">
        <ele>1281.6</ele>
        <time>2024-06-30T08:19:36Z</time>
      </trkpt>
      <trkpt lat="42.78841" lon="1.89375">
        <ele>1282</ele>
        <time>2024-06-30T08:19:37Z</time>
      </trkpt>
      <trkpt lat="42.78842" lon="1.89373">
        <ele>1282.2</ele>
        <time>2024-06-30T08:19:38Z</time>
      </trkpt>
      <trkpt lat="42.78843" lon="1.8937">
        <ele>1282.8</ele>
        <time>2024-06-30T08:19:39Z</time>
      </trkpt>
      <trkpt lat="42.78843" lon="1.8937">
        <ele>1283.6</ele>
        <time>2024-06-30T08:19:40Z</time>
      </trkpt>
      <trkpt lat="42.78847" lon="1.89366">
        <ele>1284</ele>
        <time>2024-06-30T08:19:41Z</time>
      </trkpt>
      <trkpt lat="42.78849" lon="1.89364">
        <ele>1284.4</ele>
        <time>2024-06-30T08:19:42Z</time>
      </trkpt>
      <trkpt lat="42.78851" lon="1.89362">
        <ele>1284.6</ele>
        <time>2024-06-30T08:19:43Z</time>
      </trkpt>
      <trkpt lat="42.78853" lon="1.8936">
        <ele>1284.8</ele>
        <time>2024-06-30T08:19:44Z</time>
      </trkpt>
      <trkpt lat="42.78854" lon="1.89358">
        <ele>1285</ele>
        <time>2024-06-30T08:19:45Z</time>
      </trkpt>
      <trkpt lat="42.78857" lon="1.89355">
        <ele>1285.2</ele>
        <time>2024-06-30T08:19:46Z</time>
      </trkpt>
      <trkpt lat="42.78858" lon="1.89353">
        <ele>1285.6</ele>
        <time>2024-06-30T08:19:47Z</time>
      </trkpt>
      <trkpt lat="42.7886" lon="1.89351">
        <ele>1285.8</ele>
        <time>2024-06-30T08:19:48Z</time>
      </trkpt>
      <trkpt lat="42.78861" lon="1.89349">
        <ele>1286</ele>
        <time>2024-06-30T08:19:49Z</time>
      </trkpt>
      <trkpt lat="42.78863" lon="1.89346">
        <ele>1286.2</ele>
        <time>2024-06-30T08:19:50Z</time>
      </trkpt>
      <trkpt lat="42.78864" lon="1.89344">
        <ele>1286.2</ele>
        <time>2024-06-30T08:19:51Z</time>
      </trkpt>
      <trkpt lat="42.78865" lon="1.89342">
        <ele>1286.2</ele>
        <time>2024-06-30T08:19:52Z</time>
      </trkpt>
      <trkpt lat="42.78866" lon="1.8934">
        <ele>1286.4</ele>
        <time>2024-06-30T08:19:53Z</time>
      </trkpt>
      <trkpt lat="42.78867" lon="1.89338">
        <ele>1286.4</ele>
        <time>2024-06-30T08:19:54Z</time>
      </trkpt>
      <trkpt lat="42.78867" lon="1.89338">
        <ele>1286.6</ele>
        <time>2024-06-30T08:19:55Z</time>
      </trkpt>
      <trkpt lat="42.78869" lon="1.89335">
        <ele>1286.6</ele>
        <time>2024-06-30T08:19:56Z</time>
      </trkpt>
      <trkpt lat="42.78869" lon="1.89333">
        <ele>1286.8</ele>
        <time>2024-06-30T08:19:57Z</time>
      </trkpt>
      <trkpt lat="42.78869" lon="1.89331">
        <ele>1287</ele>
        <time>2024-06-30T08:19:58Z</time>
      </trkpt>
      <trkpt lat="42.78868" lon="1.89328">
        <ele>1287</ele>
        <time>2024-06-30T08:19:59Z</time>
      </trkpt>
      <trkpt lat="42.78868" lon="1.89325">
        <ele>1287.4</ele>
        <time>2024-06-30T08:20:00Z</time>
      </trkpt>
      <trkpt lat="42.78869" lon="1.89323">
        <ele>1287.6</ele>
        <time>2024-06-30T08:20:01Z</time>
      </trkpt>
      <trkpt lat="42.7887" lon="1.89321">
        <ele>1288.2</ele>
        <time>2024-06-30T08:20:02Z</time>
      </trkpt>
      <trkpt lat="42.7887" lon="1.89319">
        <ele>1288.6</ele>
        <time>2024-06-30T08:20:03Z</time>
      </trkpt>
      <trkpt lat="42.7887" lon="1.89316">
        <ele>1288.6</ele>
        <time>2024-06-30T08:20:04Z</time>
      </trkpt>
      <trkpt lat="42.7887" lon="1.89314">
        <ele>1289.2</ele>
        <time>2024-06-30T08:20:05Z</time>
      </trkpt>
      <trkpt lat="42.7887" lon="1.89311">
        <ele>1289.4</ele>
        <time>2024-06-30T08:20:06Z</time>
      </trkpt>
      <trkpt lat="42.7887" lon="1.89309">
        <ele>1289.8</ele>
        <time>2024-06-30T08:20:07Z</time>
      </trkpt>
      <trkpt lat="42.7887" lon="1.89306">
        <ele>1289.8</ele>
        <time>2024-06-30T08:20:08Z</time>
      </trkpt>
      <trkpt lat="42.7887" lon="1.89304">
        <ele>1290</ele>
        <time>2024-06-30T08:20:09Z</time>
      </trkpt>
      <trkpt lat="42.7887" lon="1.89301">
        <ele>1290.4</ele>
        <time>2024-06-30T08:20:10Z</time>
      </trkpt>
      <trkpt lat="42.7887" lon="1.89298">
        <ele>1290.4</ele>
        <time>2024-06-30T08:20:11Z</time>
      </trkpt>
      <trkpt lat="42.7887" lon="1.89296">
        <ele>1290.8</ele>
        <time>2024-06-30T08:20:12Z</time>
      </trkpt>
      <trkpt lat="42.7887" lon="1.89294">
        <ele>1291</ele>
        <time>2024-06-30T08:20:13Z</time>
      </trkpt>
      <trkpt lat="42.7887" lon="1.89291">
        <ele>1291.4</ele>
        <time>2024-06-30T08:20:14Z</time>
      </trkpt>
      <trkpt lat="42.78869" lon="1.89289">
        <ele>1291.6</ele>
        <time>2024-06-30T08:20:15Z</time>
      </trkpt>
      <trkpt lat="42.7887" lon="1.89287">
        <ele>1292</ele>
        <time>2024-06-30T08:20:16Z</time>
      </trkpt>
      <trkpt lat="42.7887" lon="1.89284">
        <ele>1292.2</ele>
        <time>2024-06-30T08:20:17Z</time>
      </trkpt>
      <trkpt lat="42.7887" lon="1.89281">
        <ele>1292.4</ele>
        <time>2024-06-30T08:20:18Z</time>
      </trkpt>
      <trkpt lat="42.7887" lon="1.89281">
        <ele>1293</ele>
        <time>2024-06-30T08:20:19Z</time>
      </trkpt>
      <trkpt lat="42.7887" lon="1.89277">
        <ele>1293.2</ele>
        <time>2024-06-30T08:20:20Z</time>
      </trkpt>
      <trkpt lat="42.7887" lon="1.89274">
        <ele>1293.6</ele>
        <time>2024-06-30T08:20:21Z</time>
      </trkpt>
      <trkpt lat="42.78869" lon="1.89271">
        <ele>1293.8</ele>
        <time>2024-06-30T08:20:22Z</time>
      </trkpt>
      <trkpt lat="42.78869" lon="1.89269">
        <ele>1294.2</ele>
        <time>2024-06-30T08:20:23Z</time>
      </trkpt>
      <trkpt lat="42.78869" lon="1.89266">
        <ele>1294.4</ele>
        <time>2024-06-30T08:20:24Z</time>
      </trkpt>
      <trkpt lat="42.7887" lon="1.89264">
        <ele>1294.6</ele>
        <time>2024-06-30T08:20:25Z</time>
      </trkpt>
      <trkpt lat="42.7887" lon="1.89262">
        <ele>1294.8</ele>
        <time>2024-06-30T08:20:26Z</time>
      </trkpt>
      <trkpt lat="42.7887" lon="1.89259">
        <ele>1295</ele>
        <time>2024-06-30T08:20:27Z</time>
      </trkpt>
      <trkpt lat="42.78871" lon="1.89257">
        <ele>1295.2</ele>
        <time>2024-06-30T08:20:28Z</time>
      </trkpt>
      <trkpt lat="42.78872" lon="1.89254">
        <ele>1295.4</ele>
        <time>2024-06-30T08:20:29Z</time>
      </trkpt>
      <trkpt lat="42.78872" lon="1.89251">
        <ele>1295.6</ele>
        <time>2024-06-30T08:20:30Z</time>
      </trkpt>
      <trkpt lat="42.78872" lon="1.89248">
        <ele>1295.8</ele>
        <time>2024-06-30T08:20:31Z</time>
      </trkpt>
      <trkpt lat="42.78873" lon="1.89246">
        <ele>1296.2</ele>
        <time>2024-06-30T08:20:32Z</time>
      </trkpt>
      <trkpt lat="42.78874" lon="1.89243">
        <ele>1296.6</ele>
        <time>2024-06-30T08:20:33Z</time>
      </trkpt>
      <trkpt lat="42.78875" lon="1.89241">
        <ele>1296.6</ele>
        <time>2024-06-30T08:20:34Z</time>
      </trkpt>
      <trkpt lat="42.78875" lon="1.89238">
        <ele>1297</ele>
        <time>2024-06-30T08:20:35Z</time>
      </trkpt>
      <trkpt lat="42.78876" lon="1.89235">
        <ele>1297</ele>
        <time>2024-06-30T08:20:36Z</time>
      </trkpt>
      <trkpt lat="42.78877" lon="1.89232">
        <ele>1297.2</ele>
        <time>2024-06-30T08:20:37Z</time>
      </trkpt>
      <trkpt lat="42.78878" lon="1.8923">
        <ele>1297.4</ele>
        <time>2024-06-30T08:20:38Z</time>
      </trkpt>
      <trkpt lat="42.78879" lon="1.89227">
        <ele>1297.6</ele>
        <time>2024-06-30T08:20:39Z</time>
      </trkpt>
      <trkpt lat="42.78881" lon="1.89224">
        <ele>1297.8</ele>
        <time>2024-06-30T08:20:40Z</time>
      </trkpt>
      <trkpt lat="42.78883" lon="1.89221">
        <ele>1298</ele>
        <time>2024-06-30T08:20:41Z</time>
      </trkpt>
      <trkpt lat="42.78885" lon="1.89219">
        <ele>1298.2</ele>
        <time>2024-06-30T08:20:42Z</time>
      </trkpt>
      <trkpt lat="42.78887" lon="1.89217">
        <ele>1298.4</ele>
        <time>2024-06-30T08:20:43Z</time>
      </trkpt>
      <trkpt lat="42.78888" lon="1.89214">
        <ele>1298.6</ele>
        <time>2024-06-30T08:20:44Z</time>
      </trkpt>
      <trkpt lat="42.7889" lon="1.89212">
        <ele>1298.6</ele>
        <time>2024-06-30T08:20:45Z</time>
      </trkpt>
      <trkpt lat="42.78892" lon="1.89209">
        <ele>1298.8</ele>
        <time>2024-06-30T08:20:46Z</time>
      </trkpt>
      <trkpt lat="42.78893" lon="1.89206">
        <ele>1299.2</ele>
        <time>2024-06-30T08:20:47Z</time>
      </trkpt>
      <trkpt lat="42.78895" lon="1.89204">
        <ele>1299.4</ele>
        <time>2024-06-30T08:20:48Z</time>
      </trkpt>
      <trkpt lat="42.78896" lon="1.89202">
        <ele>1299.6</ele>
        <time>2024-06-30T08:20:49Z</time>
      </trkpt>
      <trkpt lat="42.78898" lon="1.892">
        <ele>1299.6</ele>
        <time>2024-06-30T08:20:50Z</time>
      </trkpt>
      <trkpt lat="42.78899" lon="1.89198">
        <ele>1299.8</ele>
        <time>2024-06-30T08:20:51Z</time>
      </trkpt>
      <trkpt lat="42.78901" lon="1.89196">
        <ele>1300</ele>
        <time>2024-06-30T08:20:52Z</time>
      </trkpt>
      <trkpt lat="42.78902" lon="1.89194">
        <ele>1300.2</ele>
        <time>2024-06-30T08:20:53Z</time>
      </trkpt>
      <trkpt lat="42.78904" lon="1.89193">
        <ele>1300.4</ele>
        <time>2024-06-30T08:20:54Z</time>
      </trkpt>
      <trkpt lat="42.78905" lon="1.89191">
        <ele>1300.6</ele>
        <time>2024-06-30T08:20:55Z</time>
      </trkpt>
      <trkpt lat="42.78906" lon="1.89189">
        <ele>1300.8</ele>
        <time>2024-06-30T08:20:56Z</time>
      </trkpt>
      <trkpt lat="42.78908" lon="1.89187">
        <ele>1301</ele>
        <time>2024-06-30T08:20:57Z</time>
      </trkpt>
      <trkpt lat="42.7891" lon="1.89184">
        <ele>1301.4</ele>
        <time>2024-06-30T08:20:58Z</time>
      </trkpt>
      <trkpt lat="42.78912" lon="1.89182">
        <ele>1301.4</ele>
        <time>2024-06-30T08:20:59Z</time>
      </trkpt>
      <trkpt lat="42.78913" lon="1.8918">
        <ele>1301.6</ele>
        <time>2024-06-30T08:21:00Z</time>
      </trkpt>
      <trkpt lat="42.78914" lon="1.89178">
        <ele>1301.6</ele>
        <time>2024-06-30T08:21:01Z</time>
      </trkpt>
      <trkpt lat="42.78915" lon="1.89176">
        <ele>1301.8</ele>
        <time>2024-06-30T08:21:02Z</time>
      </trkpt>
      <trkpt lat="42.78916" lon="1.89174">
        <ele>1302.2</ele>
        <time>2024-06-30T08:21:03Z</time>
      </trkpt>
      <trkpt lat="42.78918" lon="1.89172">
        <ele>1302.2</ele>
        <time>2024-06-30T08:21:04Z</time>
      </trkpt>
      <trkpt lat="42.78919" lon="1.89169">
        <ele>1302.6</ele>
        <time>2024-06-30T08:21:05Z</time>
      </trkpt>
      <trkpt lat="42.78919" lon="1.89167">
        <ele>1302.8</ele>
        <time>2024-06-30T08:21:06Z</time>
      </trkpt>
      <trkpt lat="42.7892" lon="1.89165">
        <ele>1303</ele>
        <time>2024-06-30T08:21:07Z</time>
      </trkpt>
      <trkpt lat="42.78921" lon="1.89164">
        <ele>1303</ele>
        <time>2024-06-30T08:21:08Z</time>
      </trkpt>
      <trkpt lat="42.78922" lon="1.89161">
        <ele>1303.2</ele>
        <time>2024-06-30T08:21:09Z</time>
      </trkpt>
      <trkpt lat="42.78922" lon="1.89159">
        <ele>1303.6</ele>
        <time>2024-06-30T08:21:10Z</time>
      </trkpt>
      <trkpt lat="42.78923" lon="1.89157">
        <ele>1303.8</ele>
        <time>2024-06-30T08:21:11Z</time>
      </trkpt>
      <trkpt lat="42.78923" lon="1.89154">
        <ele>1304</ele>
        <time>2024-06-30T08:21:12Z</time>
      </trkpt>
      <trkpt lat="42.78924" lon="1.89152">
        <ele>1304.4</ele>
        <time>2024-06-30T08:21:13Z</time>
      </trkpt>
      <trkpt lat="42.78924" lon="1.8915">
        <ele>1304.8</ele>
        <time>2024-06-30T08:21:14Z</time>
      </trkpt>
      <trkpt lat="42.78925" lon="1.89147">
        <ele>1304.8</ele>
        <time>2024-06-30T08:21:15Z</time>
      </trkpt>
      <trkpt lat="42.78925" lon="1.89145">
        <ele>1305.4</ele>
        <time>2024-06-30T08:21:16Z</time>
      </trkpt>
      <trkpt lat="42.78925" lon="1.89143">
        <ele>1305.6</ele>
        <time>2024-06-30T08:21:17Z</time>
      </trkpt>
      <trkpt lat="42.78926" lon="1.89139">
        <ele>1305.8</ele>
        <time>2024-06-30T08:21:18Z</time>
      </trkpt>
      <trkpt lat="42.78926" lon="1.89137">
        <ele>1306.2</ele>
        <time>2024-06-30T08:21:19Z</time>
      </trkpt>
      <trkpt lat="42.78927" lon="1.89134">
        <ele>1306.6</ele>
        <time>2024-06-30T08:21:20Z</time>
      </trkpt>
      <trkpt lat="42.78927" lon="1.89131">
        <ele>1307</ele>
        <time>2024-06-30T08:21:21Z</time>
      </trkpt>
      <trkpt lat="42.78928" lon="1.89128">
        <ele>1307.2</ele>
        <time>2024-06-30T08:21:22Z</time>
      </trkpt>
      <trkpt lat="42.78928" lon="1.89125">
        <ele>1307.4</ele>
        <time>2024-06-30T08:21:23Z</time>
      </trkpt>
      <trkpt lat="42.78928" lon="1.89121">
        <ele>1307.6</ele>
        <time>2024-06-30T08:21:24Z</time>
      </trkpt>
      <trkpt lat="42.78929" lon="1.89118">
        <ele>1307.8</ele>
        <time>2024-06-30T08:21:25Z</time>
      </trkpt>
      <trkpt lat="42.78929" lon="1.89115">
        <ele>1308</ele>
        <time>2024-06-30T08:21:26Z</time>
      </trkpt>
      <trkpt lat="42.78929" lon="1.89112">
        <ele>1308</ele>
        <time>2024-06-30T08:21:27Z</time>
      </trkpt>
      <trkpt lat="42.78929" lon="1.89108">
        <ele>1308.2</ele>
        <time>2024-06-30T08:21:28Z</time>
      </trkpt>
      <trkpt lat="42.7893" lon="1.89105">
        <ele>1308.4</ele>
        <time>2024-06-30T08:21:29Z</time>
      </trkpt>
      <trkpt lat="42.78931" lon="1.89102">
        <ele>1308.6</ele>
        <time>2024-06-30T08:21:30Z</time>
      </trkpt>
      <trkpt lat="42.78932" lon="1.891">
        <ele>1308.6</ele>
        <time>2024-06-30T08:21:31Z</time>
      </trkpt>
      <trkpt lat="42.78934" lon="1.89096">
        <ele>1308.8</ele>
        <time>2024-06-30T08:21:32Z</time>
      </trkpt>
      <trkpt lat="42.78935" lon="1.89093">
        <ele>1309</ele>
        <time>2024-06-30T08:21:33Z</time>
      </trkpt>
      <trkpt lat="42.78937" lon="1.8909">
        <ele>1309</ele>
        <time>2024-06-30T08:21:34Z</time>
      </trkpt>
      <trkpt lat="42.78938" lon="1.89087">
        <ele>1309.2</ele>
        <time>2024-06-30T08:21:35Z</time>
      </trkpt>
      <trkpt lat="42.7894" lon="1.89084">
        <ele>1309.2</ele>
        <time>2024-06-30T08:21:36Z</time>
      </trkpt>
      <trkpt lat="42.78942" lon="1.89081">
        <ele>1309.2</ele>
        <time>2024-06-30T08:21:37Z</time>
      </trkpt>
      <trkpt lat="42.78943" lon="1.89078">
        <ele>1309.2</ele>
        <time>2024-06-30T08:21:38Z</time>
      </trkpt>
      <trkpt lat="42.78945" lon="1.89073">
        <ele>1309.4</ele>
        <time>2024-06-30T08:21:39Z</time>
      </trkpt>
      <trkpt lat="42.78946" lon="1.89069">
        <ele>1309.4</ele>
        <time>2024-06-30T08:21:40Z</time>
      </trkpt>
      <trkpt lat="42.78947" lon="1.89063">
        <ele>1309.4</ele>
        <time>2024-06-30T08:21:41Z</time>
      </trkpt>
      <trkpt lat="42.78947" lon="1.89057">
        <ele>1309.4</ele>
        <time>2024-06-30T08:21:42Z</time>
      </trkpt>
      <trkpt lat="42.78947" lon="1.89051">
        <ele>1309.4</ele>
        <time>2024-06-30T08:21:43Z</time>
      </trkpt>
      <trkpt lat="42.78944" lon="1.89041">
        <ele>1309.4</ele>
        <time>2024-06-30T08:21:44Z</time>
      </trkpt>
      <trkpt lat="42.78942" lon="1.89035">
        <ele>1309.4</ele>
        <time>2024-06-30T08:21:45Z</time>
      </trkpt>
      <trkpt lat="42.7894" lon="1.89028">
        <ele>1309.2</ele>
        <time>2024-06-30T08:21:46Z</time>
      </trkpt>
      <trkpt lat="42.78935" lon="1.89014">
        <ele>1309.2</ele>
        <time>2024-06-30T08:21:47Z</time>
      </trkpt>
      <trkpt lat="42.78932" lon="1.89004">
        <ele>1308.4</ele>
        <time>2024-06-30T08:21:48Z</time>
      </trkpt>
      <trkpt lat="42.78929" lon="1.88996">
        <ele>1307.6</ele>
        <time>2024-06-30T08:21:49Z</time>
      </trkpt>
      <trkpt lat="42.78926" lon="1.88989">
        <ele>1307.2</ele>
        <time>2024-06-30T08:21:50Z</time>
      </trkpt>
      <trkpt lat="42.78923" lon="1.88982">
        <ele>1306.8</ele>
        <time>2024-06-30T08:21:51Z</time>
      </trkpt>
      <trkpt lat="42.78919" lon="1.88976">
        <ele>1306.4</ele>
        <time>2024-06-30T08:21:52Z</time>
      </trkpt>
      <trkpt lat="42.78916" lon="1.88969">
        <ele>1305.8</ele>
        <time>2024-06-30T08:21:53Z</time>
      </trkpt>
      <trkpt lat="42.78913" lon="1.88962">
        <ele>1305.4</ele>
        <time>2024-06-30T08:21:54Z</time>
      </trkpt>
      <trkpt lat="42.7891" lon="1.88954">
        <ele>1304.2</ele>
        <time>2024-06-30T08:21:55Z</time>
      </trkpt>
      <trkpt lat="42.78904" lon="1.88938">
        <ele>1302.6</ele>
        <time>2024-06-30T08:21:57Z</time>
      </trkpt>
      <trkpt lat="42.78898" lon="1.8892">
        <ele>1301.4</ele>
        <time>2024-06-30T08:21:59Z</time>
      </trkpt>
      <trkpt lat="42.78894" lon="1.88913">
        <ele>1300</ele>
        <time>2024-06-30T08:22:00Z</time>
      </trkpt>
      <trkpt lat="42.78887" lon="1.88898">
        <ele>1297.8</ele>
        <time>2024-06-30T08:22:02Z</time>
      </trkpt>
      <trkpt lat="42.78884" lon="1.8889">
        <ele>1296.4</ele>
        <time>2024-06-30T08:22:03Z</time>
      </trkpt>
      <trkpt lat="42.78874" lon="1.88872">
        <ele>1293.4</ele>
        <time>2024-06-30T08:22:05Z</time>
      </trkpt>
      <trkpt lat="42.78865" lon="1.88854">
        <ele>1291</ele>
        <time>2024-06-30T08:22:07Z</time>
      </trkpt>
      <trkpt lat="42.78857" lon="1.88838">
        <ele>1288.2</ele>
        <time>2024-06-30T08:22:09Z</time>
      </trkpt>
      <trkpt lat="42.78853" lon="1.88832">
        <ele>1287</ele>
        <time>2024-06-30T08:22:10Z</time>
      </trkpt>
      <trkpt lat="42.78847" lon="1.88826">
        <ele>1286.4</ele>
        <time>2024-06-30T08:22:11Z</time>
      </trkpt>
      <trkpt lat="42.78841" lon="1.88821">
        <ele>1283.8</ele>
        <time>2024-06-30T08:22:12Z</time>
      </trkpt>
      <trkpt lat="42.78836" lon="1.88816">
        <ele>1283</ele>
        <time>2024-06-30T08:22:13Z</time>
      </trkpt>
      <trkpt lat="42.78832" lon="1.88811">
        <ele>1280.6</ele>
        <time>2024-06-30T08:22:14Z</time>
      </trkpt>
      <trkpt lat="42.78822" lon="1.88801">
        <ele>1279.6</ele>
        <time>2024-06-30T08:22:15Z</time>
      </trkpt>
      <trkpt lat="42.78816" lon="1.88793">
        <ele>1278.4</ele>
        <time>2024-06-30T08:22:16Z</time>
      </trkpt>
      <trkpt lat="42.78809" lon="1.88784">
        <ele>1277.8</ele>
        <time>2024-06-30T08:22:17Z</time>
      </trkpt>
      <trkpt lat="42.78802" lon="1.88775">
        <ele>1275.8</ele>
        <time>2024-06-30T08:22:18Z</time>
      </trkpt>
      <trkpt lat="42.78795" lon="1.88764">
        <ele>1274.4</ele>
        <time>2024-06-30T08:22:19Z</time>
      </trkpt>
      <trkpt lat="42.78789" lon="1.88753">
        <ele>1273.6</ele>
        <time>2024-06-30T08:22:20Z</time>
      </trkpt>
      <trkpt lat="42.78783" lon="1.88742">
        <ele>1272.2</ele>
        <time>2024-06-30T08:22:21Z</time>
      </trkpt>
      <trkpt lat="42.78779" lon="1.88732">
        <ele>1271.2</ele>
        <time>2024-06-30T08:22:22Z</time>
      </trkpt>
      <trkpt lat="42.78776" lon="1.88721">
        <ele>1269.8</ele>
        <time>2024-06-30T08:22:23Z</time>
      </trkpt>
      <trkpt lat="42.78772" lon="1.88711">
        <ele>1269.2</ele>
        <time>2024-06-30T08:22:24Z</time>
      </trkpt>
      <trkpt lat="42.78769" lon="1.88701">
        <ele>1267.2</ele>
        <time>2024-06-30T08:22:25Z</time>
      </trkpt>
      <trkpt lat="42.78768" lon="1.88691">
        <ele>1265</ele>
        <time>2024-06-30T08:22:26Z</time>
      </trkpt>
      <trkpt lat="42.78764" lon="1.88678">
        <ele>1264</ele>
        <time>2024-06-30T08:22:27Z</time>
      </trkpt>
      <trkpt lat="42.78761" lon="1.88665">
        <ele>1261.6</ele>
        <time>2024-06-30T08:22:28Z</time>
      </trkpt>
      <trkpt lat="42.78755" lon="1.88654">
        <ele>1259.8</ele>
        <time>2024-06-30T08:22:29Z</time>
      </trkpt>
      <trkpt lat="42.7875" lon="1.88643">
        <ele>1257.6</ele>
        <time>2024-06-30T08:22:30Z</time>
      </trkpt>
      <trkpt lat="42.78744" lon="1.88633">
        <ele>1256.6</ele>
        <time>2024-06-30T08:22:31Z</time>
      </trkpt>
      <trkpt lat="42.7874" lon="1.88624">
        <ele>1255</ele>
        <time>2024-06-30T08:22:32Z</time>
      </trkpt>
      <trkpt lat="42.78736" lon="1.88616">
        <ele>1253.6</ele>
        <time>2024-06-30T08:22:33Z</time>
      </trkpt>
      <trkpt lat="42.78731" lon="1.88606">
        <ele>1251.2</ele>
        <time>2024-06-30T08:22:34Z</time>
      </trkpt>
      <trkpt lat="42.78726" lon="1.88593">
        <ele>1248.4</ele>
        <time>2024-06-30T08:22:35Z</time>
      </trkpt>
      <trkpt lat="42.78722" lon="1.88583">
        <ele>1247.2</ele>
        <time>2024-06-30T08:22:36Z</time>
      </trkpt>
      <trkpt lat="42.7872" lon="1.88574">
        <ele>1244.4</ele>
        <time>2024-06-30T08:22:37Z</time>
      </trkpt>
      <trkpt lat="42.78719" lon="1.88565">
        <ele>1243</ele>
        <time>2024-06-30T08:22:38Z</time>
      </trkpt>
      <trkpt lat="42.78719" lon="1.88559">
        <ele>1240.8</ele>
        <time>2024-06-30T08:22:39Z</time>
      </trkpt>
      <trkpt lat="42.7872" lon="1.88556">
        <ele>1239</ele>
        <time>2024-06-30T08:22:40Z</time>
      </trkpt>
      <trkpt lat="42.78718" lon="1.88554">
        <ele>1238.4</ele>
        <time>2024-06-30T08:22:41Z</time>
      </trkpt>
      <trkpt lat="42.78716" lon="1.88551">
        <ele>1236.8</ele>
        <time>2024-06-30T08:22:42Z</time>
      </trkpt>
      <trkpt lat="42.78714" lon="1.88548">
        <ele>1236</ele>
        <time>2024-06-30T08:22:43Z</time>
      </trkpt>
      <trkpt lat="42.78708" lon="1.88539">
        <ele>1234.8</ele>
        <time>2024-06-30T08:22:44Z</time>
      </trkpt>
      <trkpt lat="42.78703" lon="1.88532">
        <ele>1234.4</ele>
        <time>2024-06-30T08:22:45Z</time>
      </trkpt>
      <trkpt lat="42.78699" lon="1.88526">
        <ele>1233.8</ele>
        <time>2024-06-30T08:22:46Z</time>
      </trkpt>
      <trkpt lat="42.78694" lon="1.8852">
        <ele>1233.6</ele>
        <time>2024-06-30T08:22:47Z</time>
      </trkpt>
      <trkpt lat="42.78687" lon="1.88515">
        <ele>1232.6</ele>
        <time>2024-06-30T08:22:48Z</time>
      </trkpt>
      <trkpt lat="42.78681" lon="1.88512">
        <ele>1231.2</ele>
        <time>2024-06-30T08:22:49Z</time>
      </trkpt>
      <trkpt lat="42.78677" lon="1.88511">
        <ele>1230.6</ele>
        <time>2024-06-30T08:22:50Z</time>
      </trkpt>
      <trkpt lat="42.78674" lon="1.88509">
        <ele>1230</ele>
        <time>2024-06-30T08:22:51Z</time>
      </trkpt>
      <trkpt lat="42.78673" lon="1.88506">
        <ele>1229.8</ele>
        <time>2024-06-30T08:22:52Z</time>
      </trkpt>
      <trkpt lat="42.78672" lon="1.88503">
        <ele>1229.4</ele>
        <time>2024-06-30T08:22:53Z</time>
      </trkpt>
      <trkpt lat="42.78669" lon="1.88497">
        <ele>1229.4</ele>
        <time>2024-06-30T08:22:54Z</time>
      </trkpt>
      <trkpt lat="42.78666" lon="1.88489">
        <ele>1229.2</ele>
        <time>2024-06-30T08:22:55Z</time>
      </trkpt>
      <trkpt lat="42.78664" lon="1.88479">
        <ele>1228.6</ele>
        <time>2024-06-30T08:22:56Z</time>
      </trkpt>
      <trkpt lat="42.78661" lon="1.88463">
        <ele>1228.2</ele>
        <time>2024-06-30T08:22:58Z</time>
      </trkpt>
      <trkpt lat="42.78658" lon="1.88456">
        <ele>1227.6</ele>
        <time>2024-06-30T08:22:59Z</time>
      </trkpt>
      <trkpt lat="42.78655" lon="1.88448">
        <ele>1225.2</ele>
        <time>2024-06-30T08:23:00Z</time>
      </trkpt>
      <trkpt lat="42.78652" lon="1.88439">
        <ele>1224.2</ele>
        <time>2024-06-30T08:23:01Z</time>
      </trkpt>
      <trkpt lat="42.78649" lon="1.88429">
        <ele>1222.8</ele>
        <time>2024-06-30T08:23:02Z</time>
      </trkpt>
      <trkpt lat="42.78647" lon="1.8842">
        <ele>1221.8</ele>
        <time>2024-06-30T08:23:03Z</time>
      </trkpt>
      <trkpt lat="42.78644" lon="1.88411">
        <ele>1220.6</ele>
        <time>2024-06-30T08:23:04Z</time>
      </trkpt>
      <trkpt lat="42.78642" lon="1.88405">
        <ele>1219.2</ele>
        <time>2024-06-30T08:23:05Z</time>
      </trkpt>
      <trkpt lat="42.78642" lon="1.88402">
        <ele>1218.6</ele>
        <time>2024-06-30T08:23:06Z</time>
      </trkpt>
      <trkpt lat="42.78642" lon="1.88399">
        <ele>1217.8</ele>
        <time>2024-06-30T08:23:07Z</time>
      </trkpt>
      <trkpt lat="42.78643" lon="1.88396">
        <ele>1216.4</ele>
        <time>2024-06-30T08:23:08Z</time>
      </trkpt>
      <trkpt lat="42.78646" lon="1.88392">
        <ele>1214.6</ele>
        <time>2024-06-30T08:23:09Z</time>
      </trkpt>
      <trkpt lat="42.78653" lon="1.88382">
        <ele>1213.4</ele>
        <time>2024-06-30T08:23:11Z</time>
      </trkpt>
      <trkpt lat="42.7866" lon="1.88371">
        <ele>1212.4</ele>
        <time>2024-06-30T08:23:13Z</time>
      </trkpt>
      <trkpt lat="42.78668" lon="1.88361">
        <ele>1211.2</ele>
        <time>2024-06-30T08:23:15Z</time>
      </trkpt>
      <trkpt lat="42.78674" lon="1.88352">
        <ele>1210.6</ele>
        <time>2024-06-30T08:23:17Z</time>
      </trkpt>
      <trkpt lat="42.78676" lon="1.88347">
        <ele>1210</ele>
        <time>2024-06-30T08:23:18Z</time>
      </trkpt>
      <trkpt lat="42.78679" lon="1.88341">
        <ele>1209.8</ele>
        <time>2024-06-30T08:23:19Z</time>
      </trkpt>
      <trkpt lat="42.7868" lon="1.88337">
        <ele>1209.6</ele>
        <time>2024-06-30T08:23:20Z</time>
      </trkpt>
      <trkpt lat="42.78682" lon="1.88332">
        <ele>1209.6</ele>
        <time>2024-06-30T08:23:21Z</time>
      </trkpt>
      <trkpt lat="42.78684" lon="1.88327">
        <ele>1209.6</ele>
        <time>2024-06-30T08:23:22Z</time>
      </trkpt>
      <trkpt lat="42.78686" lon="1.88323">
        <ele>1209.4</ele>
        <time>2024-06-30T08:23:23Z</time>
      </trkpt>
      <trkpt lat="42.78689" lon="1.88319">
        <ele>1209.4</ele>
        <time>2024-06-30T08:23:24Z</time>
      </trkpt>
      <trkpt lat="42.78693" lon="1.88311">
        <ele>1209.4</ele>
        <time>2024-06-30T08:23:26Z</time>
      </trkpt>
      <trkpt lat="42.78694" lon="1.88307">
        <ele>1209.4</ele>
        <time>2024-06-30T08:23:27Z</time>
      </trkpt>
      <trkpt lat="42.78696" lon="1.88303">
        <ele>1209.6</ele>
        <time>2024-06-30T08:23:28Z</time>
      </trkpt>
      <trkpt lat="42.78698" lon="1.88299">
        <ele>1209.8</ele>
        <time>2024-06-30T08:23:29Z</time>
      </trkpt>
      <trkpt lat="42.787" lon="1.88295">
        <ele>1210</ele>
        <time>2024-06-30T08:23:30Z</time>
      </trkpt>
      <trkpt lat="42.78701" lon="1.88291">
        <ele>1210.2</ele>
        <time>2024-06-30T08:23:31Z</time>
      </trkpt>
      <trkpt lat="42.78703" lon="1.88288">
        <ele>1210.2</ele>
        <time>2024-06-30T08:23:32Z</time>
      </trkpt>
      <trkpt lat="42.78705" lon="1.88284">
        <ele>1210.2</ele>
        <time>2024-06-30T08:23:33Z</time>
      </trkpt>
      <trkpt lat="42.78707" lon="1.88282">
        <ele>1210.2</ele>
        <time>2024-06-30T08:23:34Z</time>
      </trkpt>
      <trkpt lat="42.78709" lon="1.88278">
        <ele>1210.4</ele>
        <time>2024-06-30T08:23:35Z</time>
      </trkpt>
      <trkpt lat="42.7871" lon="1.88274">
        <ele>1210.4</ele>
        <time>2024-06-30T08:23:36Z</time>
      </trkpt>
      <trkpt lat="42.78712" lon="1.8827">
        <ele>1210.6</ele>
        <time>2024-06-30T08:23:37Z</time>
      </trkpt>
      <trkpt lat="42.78713" lon="1.88266">
        <ele>1210.6</ele>
        <time>2024-06-30T08:23:38Z</time>
      </trkpt>
      <trkpt lat="42.78715" lon="1.88263">
        <ele>1210.8</ele>
        <time>2024-06-30T08:23:39Z</time>
      </trkpt>
      <trkpt lat="42.78716" lon="1.8826">
        <ele>1211</ele>
        <time>2024-06-30T08:23:40Z</time>
      </trkpt>
      <trkpt lat="42.78717" lon="1.88257">
        <ele>1211.2</ele>
        <time>2024-06-30T08:23:41Z</time>
      </trkpt>
      <trkpt lat="42.78717" lon="1.88253">
        <ele>1211.6</ele>
        <time>2024-06-30T08:23:42Z</time>
      </trkpt>
      <trkpt lat="42.78718" lon="1.88249">
        <ele>1211.8</ele>
        <time>2024-06-30T08:23:43Z</time>
      </trkpt>
      <trkpt lat="42.78718" lon="1.88245">
        <ele>1211.8</ele>
        <time>2024-06-30T08:23:44Z</time>
      </trkpt>
      <trkpt lat="42.78718" lon="1.88242">
        <ele>1212</ele>
        <time>2024-06-30T08:23:45Z</time>
      </trkpt>
      <trkpt lat="42.78718" lon="1.88238">
        <ele>1212.2</ele>
        <time>2024-06-30T08:23:46Z</time>
      </trkpt>
      <trkpt lat="42.78718" lon="1.88234">
        <ele>1212.4</ele>
        <time>2024-06-30T08:23:47Z</time>
      </trkpt>
      <trkpt lat="42.78718" lon="1.8823">
        <ele>1212.6</ele>
        <time>2024-06-30T08:23:48Z</time>
      </trkpt>
      <trkpt lat="42.78718" lon="1.88227">
        <ele>1213</ele>
        <time>2024-06-30T08:23:49Z</time>
      </trkpt>
      <trkpt lat="42.78719" lon="1.88223">
        <ele>1213.2</ele>
        <time>2024-06-30T08:23:50Z</time>
      </trkpt>
      <trkpt lat="42.7872" lon="1.8822">
        <ele>1213.6</ele>
        <time>2024-06-30T08:23:51Z</time>
      </trkpt>
      <trkpt lat="42.78725" lon="1.88205">
        <ele>1214.2</ele>
        <time>2024-06-30T08:23:56Z</time>
      </trkpt>
      <trkpt lat="42.78726" lon="1.88202">
        <ele>1214.2</ele>
        <time>2024-06-30T08:23:57Z</time>
      </trkpt>
      <trkpt lat="42.78728" lon="1.88198">
        <ele>1214.4</ele>
        <time>2024-06-30T08:23:58Z</time>
      </trkpt>
      <trkpt lat="42.78729" lon="1.88195">
        <ele>1214.6</ele>
        <time>2024-06-30T08:23:59Z</time>
      </trkpt>
      <trkpt lat="42.78731" lon="1.88192">
        <ele>1215</ele>
        <time>2024-06-30T08:24:00Z</time>
      </trkpt>
      <trkpt lat="42.78732" lon="1.88189">
        <ele>1215.2</ele>
        <time>2024-06-30T08:24:01Z</time>
      </trkpt>
      <trkpt lat="42.78734" lon="1.88186">
        <ele>1215.4</ele>
        <time>2024-06-30T08:24:02Z</time>
      </trkpt>
      <trkpt lat="42.78735" lon="1.88183">
        <ele>1215.6</ele>
        <time>2024-06-30T08:24:03Z</time>
      </trkpt>
      <trkpt lat="42.78736" lon="1.8818">
        <ele>1215.6</ele>
        <time>2024-06-30T08:24:04Z</time>
      </trkpt>
      <trkpt lat="42.78738" lon="1.88176">
        <ele>1216</ele>
        <time>2024-06-30T08:24:05Z</time>
      </trkpt>
      <trkpt lat="42.78739" lon="1.88173">
        <ele>1216</ele>
        <time>2024-06-30T08:24:06Z</time>
      </trkpt>
      <trkpt lat="42.78739" lon="1.88169">
        <ele>1216.2</ele>
        <time>2024-06-30T08:24:07Z</time>
      </trkpt>
      <trkpt lat="42.7874" lon="1.88166">
        <ele>1216.2</ele>
        <time>2024-06-30T08:24:08Z</time>
      </trkpt>
      <trkpt lat="42.7874" lon="1.88162">
        <ele>1216.4</ele>
        <time>2024-06-30T08:24:09Z</time>
      </trkpt>
      <trkpt lat="42.7874" lon="1.88158">
        <ele>1216.6</ele>
        <time>2024-06-30T08:24:10Z</time>
      </trkpt>
      <trkpt lat="42.7874" lon="1.88154">
        <ele>1217</ele>
        <time>2024-06-30T08:24:11Z</time>
      </trkpt>
      <trkpt lat="42.7874" lon="1.8815">
        <ele>1217.2</ele>
        <time>2024-06-30T08:24:12Z</time>
      </trkpt>
      <trkpt lat="42.78741" lon="1.88146">
        <ele>1217.4</ele>
        <time>2024-06-30T08:24:13Z</time>
      </trkpt>
      <trkpt lat="42.78741" lon="1.88142">
        <ele>1217.6</ele>
        <time>2024-06-30T08:24:14Z</time>
      </trkpt>
      <trkpt lat="42.78742" lon="1.88139">
        <ele>1218</ele>
        <time>2024-06-30T08:24:15Z</time>
      </trkpt>
      <trkpt lat="42.78742" lon="1.88134">
        <ele>1218.2</ele>
        <time>2024-06-30T08:24:16Z</time>
      </trkpt>
      <trkpt lat="42.78742" lon="1.88131">
        <ele>1218.4</ele>
        <time>2024-06-30T08:24:17Z</time>
      </trkpt>
      <trkpt lat="42.78743" lon="1.88126">
        <ele>1218.6</ele>
        <time>2024-06-30T08:24:18Z</time>
      </trkpt>
      <trkpt lat="42.78744" lon="1.88122">
        <ele>1218.8</ele>
        <time>2024-06-30T08:24:19Z</time>
      </trkpt>
      <trkpt lat="42.78744" lon="1.88119">
        <ele>1218.8</ele>
        <time>2024-06-30T08:24:20Z</time>
      </trkpt>
      <trkpt lat="42.78744" lon="1.88114">
        <ele>1219</ele>
        <time>2024-06-30T08:24:21Z</time>
      </trkpt>
      <trkpt lat="42.78745" lon="1.88111">
        <ele>1219</ele>
        <time>2024-06-30T08:24:22Z</time>
      </trkpt>
      <trkpt lat="42.78746" lon="1.88107">
        <ele>1219.2</ele>
        <time>2024-06-30T08:24:23Z</time>
      </trkpt>
      <trkpt lat="42.78746" lon="1.88103">
        <ele>1219.4</ele>
        <time>2024-06-30T08:24:24Z</time>
      </trkpt>
      <trkpt lat="42.78747" lon="1.881">
        <ele>1219.6</ele>
        <time>2024-06-30T08:24:25Z</time>
      </trkpt>
      <trkpt lat="42.78747" lon="1.88097">
        <ele>1219.8</ele>
        <time>2024-06-30T08:24:26Z</time>
      </trkpt>
      <trkpt lat="42.78747" lon="1.88093">
        <ele>1220</ele>
        <time>2024-06-30T08:24:27Z</time>
      </trkpt>
      <trkpt lat="42.78747" lon="1.88089">
        <ele>1220.4</ele>
        <time>2024-06-30T08:24:28Z</time>
      </trkpt>
      <trkpt lat="42.78747" lon="1.88086">
        <ele>1220.6</ele>
        <time>2024-06-30T08:24:29Z</time>
      </trkpt>
      <trkpt lat="42.78747" lon="1.88083">
        <ele>1221</ele>
        <time>2024-06-30T08:24:30Z</time>
      </trkpt>
      <trkpt lat="42.78747" lon="1.8808">
        <ele>1221</ele>
        <time>2024-06-30T08:24:31Z</time>
      </trkpt>
      <trkpt lat="42.78747" lon="1.88076">
        <ele>1221.4</ele>
        <time>2024-06-30T08:24:32Z</time>
      </trkpt>
      <trkpt lat="42.78748" lon="1.88073">
        <ele>1221.6</ele>
        <time>2024-06-30T08:24:33Z</time>
      </trkpt>
      <trkpt lat="42.78748" lon="1.8807">
        <ele>1222</ele>
        <time>2024-06-30T08:24:34Z</time>
      </trkpt>
      <trkpt lat="42.78748" lon="1.88067">
        <ele>1222.4</ele>
        <time>2024-06-30T08:24:35Z</time>
      </trkpt>
      <trkpt lat="42.78748" lon="1.88064">
        <ele>1222.6</ele>
        <time>2024-06-30T08:24:36Z</time>
      </trkpt>
      <trkpt lat="42.78748" lon="1.88061">
        <ele>1222.8</ele>
        <time>2024-06-30T08:24:37Z</time>
      </trkpt>
      <trkpt lat="42.78748" lon="1.88058">
        <ele>1223</ele>
        <time>2024-06-30T08:24:38Z</time>
      </trkpt>
      <trkpt lat="42.78748" lon="1.88055">
        <ele>1223.4</ele>
        <time>2024-06-30T08:24:39Z</time>
      </trkpt>
      <trkpt lat="42.78748" lon="1.88052">
        <ele>1223.6</ele>
        <time>2024-06-30T08:24:40Z</time>
      </trkpt>
      <trkpt lat="42.78748" lon="1.88049">
        <ele>1223.8</ele>
        <time>2024-06-30T08:24:41Z</time>
      </trkpt>
      <trkpt lat="42.78748" lon="1.88046">
        <ele>1224.2</ele>
        <time>2024-06-30T08:24:42Z</time>
      </trkpt>
      <trkpt lat="42.78748" lon="1.88043">
        <ele>1224.6</ele>
        <time>2024-06-30T08:24:43Z</time>
      </trkpt>
      <trkpt lat="42.78748" lon="1.8804">
        <ele>1224.8</ele>
        <time>2024-06-30T08:24:44Z</time>
      </trkpt>
      <trkpt lat="42.78748" lon="1.88037">
        <ele>1225</ele>
        <time>2024-06-30T08:24:45Z</time>
      </trkpt>
      <trkpt lat="42.78748" lon="1.88034">
        <ele>1225.2</ele>
        <time>2024-06-30T08:24:46Z</time>
      </trkpt>
      <trkpt lat="42.78748" lon="1.88031">
        <ele>1225.4</ele>
        <time>2024-06-30T08:24:47Z</time>
      </trkpt>
      <trkpt lat="42.78748" lon="1.88028">
        <ele>1225.8</ele>
        <time>2024-06-30T08:24:48Z</time>
      </trkpt>
      <trkpt lat="42.78748" lon="1.88025">
        <ele>1226</ele>
        <time>2024-06-30T08:24:49Z</time>
      </trkpt>
      <trkpt lat="42.78747" lon="1.88022">
        <ele>1226.4</ele>
        <time>2024-06-30T08:24:50Z</time>
      </trkpt>
      <trkpt lat="42.78747" lon="1.88018">
        <ele>1226.8</ele>
        <time>2024-06-30T08:24:51Z</time>
      </trkpt>
      <trkpt lat="42.78747" lon="1.88015">
        <ele>1226.8</ele>
        <time>2024-06-30T08:24:52Z</time>
      </trkpt>
      <trkpt lat="42.78747" lon="1.88013">
        <ele>1227.2</ele>
        <time>2024-06-30T08:24:53Z</time>
      </trkpt>
      <trkpt lat="42.78747" lon="1.8801">
        <ele>1227.4</ele>
        <time>2024-06-30T08:24:54Z</time>
      </trkpt>
      <trkpt lat="42.78747" lon="1.88007">
        <ele>1227.6</ele>
        <time>2024-06-30T08:24:55Z</time>
      </trkpt>
      <trkpt lat="42.78747" lon="1.88004">
        <ele>1227.6</ele>
        <time>2024-06-30T08:24:56Z</time>
      </trkpt>
      <trkpt lat="42.78747" lon="1.88001">
        <ele>1227.8</ele>
        <time>2024-06-30T08:24:57Z</time>
      </trkpt>
      <trkpt lat="42.78747" lon="1.87998">
        <ele>1228.4</ele>
        <time>2024-06-30T08:24:58Z</time>
      </trkpt>
      <trkpt lat="42.78746" lon="1.87995">
        <ele>1228.6</ele>
        <time>2024-06-30T08:24:59Z</time>
      </trkpt>
      <trkpt lat="42.78746" lon="1.87992">
        <ele>1229</ele>
        <time>2024-06-30T08:25:00Z</time>
      </trkpt>
      <trkpt lat="42.78745" lon="1.8799">
        <ele>1229.2</ele>
        <time>2024-06-30T08:25:01Z</time>
      </trkpt>
      <trkpt lat="42.78745" lon="1.87987">
        <ele>1229.6</ele>
        <time>2024-06-30T08:25:02Z</time>
      </trkpt>
      <trkpt lat="42.78745" lon="1.87984">
        <ele>1229.8</ele>
        <time>2024-06-30T08:25:03Z</time>
      </trkpt>
      <trkpt lat="42.78744" lon="1.87982">
        <ele>1230.2</ele>
        <time>2024-06-30T08:25:04Z</time>
      </trkpt>
      <trkpt lat="42.78744" lon="1.87979">
        <ele>1230.6</ele>
        <time>2024-06-30T08:25:05Z</time>
      </trkpt>
      <trkpt lat="42.78744" lon="1.87977">
        <ele>1230.6</ele>
        <time>2024-06-30T08:25:06Z</time>
      </trkpt>
      <trkpt lat="42.78743" lon="1.87974">
        <ele>1231</ele>
        <time>2024-06-30T08:25:07Z</time>
      </trkpt>
      <trkpt lat="42.78742" lon="1.87972">
        <ele>1231.2</ele>
        <time>2024-06-30T08:25:08Z</time>
      </trkpt>
      <trkpt lat="42.78742" lon="1.87969">
        <ele>1231.4</ele>
        <time>2024-06-30T08:25:09Z</time>
      </trkpt>
      <trkpt lat="42.78742" lon="1.87967">
        <ele>1231.4</ele>
        <time>2024-06-30T08:25:10Z</time>
      </trkpt>
      <trkpt lat="42.78742" lon="1.87964">
        <ele>1232</ele>
        <time>2024-06-30T08:25:11Z</time>
      </trkpt>
      <trkpt lat="42.78743" lon="1.87962">
        <ele>1232.2</ele>
        <time>2024-06-30T08:25:12Z</time>
      </trkpt>
      <trkpt lat="42.78743" lon="1.87961">
        <ele>1232.4</ele>
        <time>2024-06-30T08:25:13Z</time>
      </trkpt>
      <trkpt lat="42.78744" lon="1.87959">
        <ele>1233</ele>
        <time>2024-06-30T08:25:14Z</time>
      </trkpt>
      <trkpt lat="42.78746" lon="1.87958">
        <ele>1233.2</ele>
        <time>2024-06-30T08:25:15Z</time>
      </trkpt>
      <trkpt lat="42.78747" lon="1.87957">
        <ele>1233.4</ele>
        <time>2024-06-30T08:25:16Z</time>
      </trkpt>
      <trkpt lat="42.78749" lon="1.87956">
        <ele>1233.6</ele>
        <time>2024-06-30T08:25:17Z</time>
      </trkpt>
      <trkpt lat="42.78751" lon="1.87955">
        <ele>1234</ele>
        <time>2024-06-30T08:25:18Z</time>
      </trkpt>
      <trkpt lat="42.78753" lon="1.87953">
        <ele>1234</ele>
        <time>2024-06-30T08:25:19Z</time>
      </trkpt>
      <trkpt lat="42.78754" lon="1.87951">
        <ele>1234.2</ele>
        <time>2024-06-30T08:25:20Z</time>
      </trkpt>
      <trkpt lat="42.78755" lon="1.8795">
        <ele>1234.4</ele>
        <time>2024-06-30T08:25:21Z</time>
      </trkpt>
      <trkpt lat="42.78755" lon="1.8795">
        <ele>1234.6</ele>
        <time>2024-06-30T08:25:22Z</time>
      </trkpt>
      <trkpt lat="42.78755" lon="1.8795">
        <ele>1234.6</ele>
        <time>2024-06-30T08:25:23Z</time>
      </trkpt>
      <trkpt lat="42.78755" lon="1.8795">
        <ele>1234.6</ele>
        <time>2024-06-30T08:25:24Z</time>
      </trkpt>
      <trkpt lat="42.78753" lon="1.87956">
        <ele>1235</ele>
        <time>2024-06-30T08:36:39Z</time>
      </trkpt>
      <trkpt lat="42.7875" lon="1.87955">
        <ele>1234.8</ele>
        <time>2024-06-30T08:36:41Z</time>
      </trkpt>
      <trkpt lat="42.78749" lon="1.87955">
        <ele>1234.8</ele>
        <time>2024-06-30T08:36:42Z</time>
      </trkpt>
      <trkpt lat="42.78747" lon="1.87955">
        <ele>1234.8</ele>
        <time>2024-06-30T08:36:43Z</time>
      </trkpt>
      <trkpt lat="42.7874" lon="1.87953">
        <ele>1234.8</ele>
        <time>2024-06-30T08:36:47Z</time>
      </trkpt>
      <trkpt lat="42.78739" lon="1.87952">
        <ele>1235</ele>
        <time>2024-06-30T08:36:48Z</time>
      </trkpt>
      <trkpt lat="42.78738" lon="1.8795">
        <ele>1235</ele>
        <time>2024-06-30T08:36:49Z</time>
      </trkpt>
      <trkpt lat="42.78738" lon="1.87948">
        <ele>1235</ele>
        <time>2024-06-30T08:36:50Z</time>
      </trkpt>
      <trkpt lat="42.78739" lon="1.87947">
        <ele>1235</ele>
        <time>2024-06-30T08:36:51Z</time>
      </trkpt>
      <trkpt lat="42.78739" lon="1.87945">
        <ele>1235</ele>
        <time>2024-06-30T08:36:52Z</time>
      </trkpt>
      <trkpt lat="42.78738" lon="1.87943">
        <ele>1235</ele>
        <time>2024-06-30T08:36:53Z</time>
      </trkpt>
      <trkpt lat="42.78738" lon="1.87938">
        <ele>1235.2</ele>
        <time>2024-06-30T08:36:55Z</time>
      </trkpt>
      <trkpt lat="42.78739" lon="1.87937">
        <ele>1235.2</ele>
        <time>2024-06-30T08:36:56Z</time>
      </trkpt>
      <trkpt lat="42.78739" lon="1.87935">
        <ele>1235.2</ele>
        <time>2024-06-30T08:36:57Z</time>
      </trkpt>
      <trkpt lat="42.7874" lon="1.87934">
        <ele>1235.2</ele>
        <time>2024-06-30T08:36:58Z</time>
      </trkpt>
      <trkpt lat="42.78742" lon="1.87932">
        <ele>1235.2</ele>
        <time>2024-06-30T08:36:59Z</time>
      </trkpt>
      <trkpt lat="42.78743" lon="1.87932">
        <ele>1235.2</ele>
        <time>2024-06-30T08:37:00Z</time>
      </trkpt>
      <trkpt lat="42.78746" lon="1.87931">
        <ele>1235.2</ele>
        <time>2024-06-30T08:37:02Z</time>
      </trkpt>
      <trkpt lat="42.78748" lon="1.87931">
        <ele>1235.4</ele>
        <time>2024-06-30T08:37:03Z</time>
      </trkpt>
      <trkpt lat="42.78754" lon="1.87927">
        <ele>1235.6</ele>
        <time>2024-06-30T08:37:07Z</time>
      </trkpt>
      <trkpt lat="42.78756" lon="1.87927">
        <ele>1235.6</ele>
        <time>2024-06-30T08:37:08Z</time>
      </trkpt>
      <trkpt lat="42.78757" lon="1.87927">
        <ele>1235.8</ele>
        <time>2024-06-30T08:37:09Z</time>
      </trkpt>
      <trkpt lat="42.78758" lon="1.87927">
        <ele>1235.8</ele>
        <time>2024-06-30T08:37:10Z</time>
      </trkpt>
      <trkpt lat="42.7876" lon="1.87928">
        <ele>1236</ele>
        <time>2024-06-30T08:37:11Z</time>
      </trkpt>
      <trkpt lat="42.78761" lon="1.87929">
        <ele>1236.2</ele>
        <time>2024-06-30T08:37:12Z</time>
      </trkpt>
      <trkpt lat="42.78763" lon="1.87928">
        <ele>1236.4</ele>
        <time>2024-06-30T08:37:13Z</time>
      </trkpt>
      <trkpt lat="42.78766" lon="1.87928">
        <ele>1236.6</ele>
        <time>2024-06-30T08:37:15Z</time>
      </trkpt>
      <trkpt lat="42.78767" lon="1.87928">
        <ele>1236.6</ele>
        <time>2024-06-30T08:37:16Z</time>
      </trkpt>
      <trkpt lat="42.78769" lon="1.87929">
        <ele>1236.8</ele>
        <time>2024-06-30T08:37:17Z</time>
      </trkpt>
      <trkpt lat="42.78772" lon="1.87929">
        <ele>1237.2</ele>
        <time>2024-06-30T08:37:19Z</time>
      </trkpt>
      <trkpt lat="42.78773" lon="1.8793">
        <ele>1237.2</ele>
        <time>2024-06-30T08:37:20Z</time>
      </trkpt>
      <trkpt lat="42.78774" lon="1.8793">
        <ele>1237.6</ele>
        <time>2024-06-30T08:37:21Z</time>
      </trkpt>
      <trkpt lat="42.78776" lon="1.8793">
        <ele>1237.8</ele>
        <time>2024-06-30T08:37:22Z</time>
      </trkpt>
      <trkpt lat="42.78782" lon="1.87932">
        <ele>1238.4</ele>
        <time>2024-06-30T08:37:26Z</time>
      </trkpt>
      <trkpt lat="42.78783" lon="1.87933">
        <ele>1238.4</ele>
        <time>2024-06-30T08:37:27Z</time>
      </trkpt>
      <trkpt lat="42.78784" lon="1.87934">
        <ele>1238.6</ele>
        <time>2024-06-30T08:37:28Z</time>
      </trkpt>
      <trkpt lat="42.78785" lon="1.87935">
        <ele>1238.8</ele>
        <time>2024-06-30T08:37:29Z</time>
      </trkpt>
      <trkpt lat="42.78786" lon="1.87936">
        <ele>1238.8</ele>
        <time>2024-06-30T08:37:30Z</time>
      </trkpt>
      <trkpt lat="42.78788" lon="1.87938">
        <ele>1238.8</ele>
        <time>2024-06-30T08:37:31Z</time>
      </trkpt>
      <trkpt lat="42.78789" lon="1.87939">
        <ele>1239</ele>
        <time>2024-06-30T08:37:32Z</time>
      </trkpt>
      <trkpt lat="42.78791" lon="1.8794">
        <ele>1239.2</ele>
        <time>2024-06-30T08:37:33Z</time>
      </trkpt>
      <trkpt lat="42.78792" lon="1.87941">
        <ele>1239.2</ele>
        <time>2024-06-30T08:37:34Z</time>
      </trkpt>
      <trkpt lat="42.78794" lon="1.87943">
        <ele>1239.4</ele>
        <time>2024-06-30T08:37:35Z</time>
      </trkpt>
      <trkpt lat="42.78795" lon="1.87944">
        <ele>1239.4</ele>
        <time>2024-06-30T08:37:36Z</time>
      </trkpt>
      <trkpt lat="42.78796" lon="1.87945">
        <ele>1239.6</ele>
        <time>2024-06-30T08:37:37Z</time>
      </trkpt>
      <trkpt lat="42.78797" lon="1.87947">
        <ele>1239.6</ele>
        <time>2024-06-30T08:37:38Z</time>
      </trkpt>
      <trkpt lat="42.78799" lon="1.87948">
        <ele>1239.8</ele>
        <time>2024-06-30T08:37:39Z</time>
      </trkpt>
      <trkpt lat="42.788" lon="1.8795">
        <ele>1240</ele>
        <time>2024-06-30T08:37:40Z</time>
      </trkpt>
      <trkpt lat="42.78801" lon="1.87951">
        <ele>1240</ele>
        <time>2024-06-30T08:37:41Z</time>
      </trkpt>
      <trkpt lat="42.78802" lon="1.87953">
        <ele>1240.2</ele>
        <time>2024-06-30T08:37:42Z</time>
      </trkpt>
      <trkpt lat="42.78803" lon="1.87955">
        <ele>1240.2</ele>
        <time>2024-06-30T08:37:43Z</time>
      </trkpt>
      <trkpt lat="42.78803" lon="1.87957">
        <ele>1240.2</ele>
        <time>2024-06-30T08:37:44Z</time>
      </trkpt>
      <trkpt lat="42.78805" lon="1.87959">
        <ele>1240.2</ele>
        <time>2024-06-30T08:37:45Z</time>
      </trkpt>
      <trkpt lat="42.78805" lon="1.87961">
        <ele>1240.4</ele>
        <time>2024-06-30T08:37:46Z</time>
      </trkpt>
      <trkpt lat="42.78806" lon="1.87963">
        <ele>1240.4</ele>
        <time>2024-06-30T08:37:47Z</time>
      </trkpt>
      <trkpt lat="42.78806" lon="1.87966">
        <ele>1240.4</ele>
        <time>2024-06-30T08:37:48Z</time>
      </trkpt>
      <trkpt lat="42.78806" lon="1.87968">
        <ele>1240.4</ele>
        <time>2024-06-30T08:37:49Z</time>
      </trkpt>
      <trkpt lat="42.78806" lon="1.87971">
        <ele>1240.4</ele>
        <time>2024-06-30T08:37:50Z</time>
      </trkpt>
      <trkpt lat="42.78807" lon="1.87975">
        <ele>1240.4</ele>
        <time>2024-06-30T08:37:51Z</time>
      </trkpt>
      <trkpt lat="42.78808" lon="1.87978">
        <ele>1240.4</ele>
        <time>2024-06-30T08:37:52Z</time>
      </trkpt>
      <trkpt lat="42.78809" lon="1.87981">
        <ele>1240.4</ele>
        <time>2024-06-30T08:37:53Z</time>
      </trkpt>
      <trkpt lat="42.78809" lon="1.87983">
        <ele>1240.4</ele>
        <time>2024-06-30T08:37:54Z</time>
      </trkpt>
      <trkpt lat="42.7881" lon="1.87986">
        <ele>1240.4</ele>
        <time>2024-06-30T08:37:55Z</time>
      </trkpt>
      <trkpt lat="42.78811" lon="1.87988">
        <ele>1240.2</ele>
        <time>2024-06-30T08:37:56Z</time>
      </trkpt>
      <trkpt lat="42.78811" lon="1.87991">
        <ele>1240</ele>
        <time>2024-06-30T08:37:57Z</time>
      </trkpt>
      <trkpt lat="42.78816" lon="1.88006">
        <ele>1239.6</ele>
        <time>2024-06-30T08:38:01Z</time>
      </trkpt>
      <trkpt lat="42.78824" lon="1.88029">
        <ele>1238.4</ele>
        <time>2024-06-30T08:38:06Z</time>
      </trkpt>
      <trkpt lat="42.7883" lon="1.88041">
        <ele>1237.6</ele>
        <time>2024-06-30T08:38:09Z</time>
      </trkpt>
      <trkpt lat="42.78835" lon="1.88049">
        <ele>1237.4</ele>
        <time>2024-06-30T08:38:11Z</time>
      </trkpt>
      <trkpt lat="42.78849" lon="1.8807">
        <ele>1237.2</ele>
        <time>2024-06-30T08:38:16Z</time>
      </trkpt>
      <trkpt lat="42.78862" lon="1.88087">
        <ele>1237.2</ele>
        <time>2024-06-30T08:38:20Z</time>
      </trkpt>
      <trkpt lat="42.78878" lon="1.88103">
        <ele>1236.6</ele>
        <time>2024-06-30T08:38:24Z</time>
      </trkpt>
      <trkpt lat="42.78882" lon="1.88107">
        <ele>1236.4</ele>
        <time>2024-06-30T08:38:25Z</time>
      </trkpt>
      <trkpt lat="42.78914" lon="1.88138">
        <ele>1235.8</ele>
        <time>2024-06-30T08:38:33Z</time>
      </trkpt>
      <trkpt lat="42.78927" lon="1.88149">
        <ele>1235.4</ele>
        <time>2024-06-30T08:38:36Z</time>
      </trkpt>
      <trkpt lat="42.78956" lon="1.8818">
        <ele>1234.4</ele>
        <time>2024-06-30T08:38:43Z</time>
      </trkpt>
      <trkpt lat="42.78959" lon="1.88184">
        <ele>1234.2</ele>
        <time>2024-06-30T08:38:44Z</time>
      </trkpt>
      <trkpt lat="42.78973" lon="1.88204">
        <ele>1233.8</ele>
        <time>2024-06-30T08:38:48Z</time>
      </trkpt>
      <trkpt lat="42.78976" lon="1.88209">
        <ele>1233.8</ele>
        <time>2024-06-30T08:38:49Z</time>
      </trkpt>
      <trkpt lat="42.78979" lon="1.88214">
        <ele>1233.8</ele>
        <time>2024-06-30T08:38:50Z</time>
      </trkpt>
      <trkpt lat="42.78987" lon="1.88229">
        <ele>1234</ele>
        <time>2024-06-30T08:38:53Z</time>
      </trkpt>
      <trkpt lat="42.78992" lon="1.88239">
        <ele>1234</ele>
        <time>2024-06-30T08:38:55Z</time>
      </trkpt>
      <trkpt lat="42.78994" lon="1.88245">
        <ele>1234</ele>
        <time>2024-06-30T08:38:56Z</time>
      </trkpt>
      <trkpt lat="42.78996" lon="1.8825">
        <ele>1234</ele>
        <time>2024-06-30T08:38:57Z</time>
      </trkpt>
      <trkpt lat="42.78998" lon="1.88256">
        <ele>1234</ele>
        <time>2024-06-30T08:38:58Z</time>
      </trkpt>
      <trkpt lat="42.79" lon="1.88261">
        <ele>1234.2</ele>
        <time>2024-06-30T08:38:59Z</time>
      </trkpt>
      <trkpt lat="42.79001" lon="1.88266">
        <ele>1234.2</ele>
        <time>2024-06-30T08:39:00Z</time>
      </trkpt>
      <trkpt lat="42.79002" lon="1.88272">
        <ele>1234.2</ele>
        <time>2024-06-30T08:39:01Z</time>
      </trkpt>
      <trkpt lat="42.79004" lon="1.88277">
        <ele>1234.2</ele>
        <time>2024-06-30T08:39:02Z</time>
      </trkpt>
      <trkpt lat="42.79005" lon="1.88281">
        <ele>1234.2</ele>
        <time>2024-06-30T08:39:03Z</time>
      </trkpt>
      <trkpt lat="42.79006" lon="1.88286">
        <ele>1234.2</ele>
        <time>2024-06-30T08:39:04Z</time>
      </trkpt>
      <trkpt lat="42.79006" lon="1.8829">
        <ele>1234.2</ele>
        <time>2024-06-30T08:39:05Z</time>
      </trkpt>
      <trkpt lat="42.79007" lon="1.88295">
        <ele>1234.2</ele>
        <time>2024-06-30T08:39:06Z</time>
      </trkpt>
      <trkpt lat="42.79007" lon="1.88299">
        <ele>1234.2</ele>
        <time>2024-06-30T08:39:07Z</time>
      </trkpt>
      <trkpt lat="42.79008" lon="1.88304">
        <ele>1234.2</ele>
        <time>2024-06-30T08:39:08Z</time>
      </trkpt>
      <trkpt lat="42.79012" lon="1.8834">
        <ele>1234</ele>
        <time>2024-06-30T08:39:14Z</time>
      </trkpt>
      <trkpt lat="42.79013" lon="1.88347">
        <ele>1234</ele>
        <time>2024-06-30T08:39:15Z</time>
      </trkpt>
      <trkpt lat="42.79017" lon="1.88368">
        <ele>1234</ele>
        <time>2024-06-30T08:39:18Z</time>
      </trkpt>
      <trkpt lat="42.79019" lon="1.88374">
        <ele>1233.8</ele>
        <time>2024-06-30T08:39:19Z</time>
      </trkpt>
      <trkpt lat="42.79022" lon="1.8838">
        <ele>1233.8</ele>
        <time>2024-06-30T08:39:20Z</time>
      </trkpt>
      <trkpt lat="42.79026" lon="1.88384">
        <ele>1233.4</ele>
        <time>2024-06-30T08:39:21Z</time>
      </trkpt>
      <trkpt lat="42.7903" lon="1.88387">
        <ele>1233.2</ele>
        <time>2024-06-30T08:39:22Z</time>
      </trkpt>
      <trkpt lat="42.79035" lon="1.8839">
        <ele>1232.8</ele>
        <time>2024-06-30T08:39:23Z</time>
      </trkpt>
      <trkpt lat="42.79039" lon="1.88393">
        <ele>1232.6</ele>
        <time>2024-06-30T08:39:24Z</time>
      </trkpt>
      <trkpt lat="42.79043" lon="1.88396">
        <ele>1232.4</ele>
        <time>2024-06-30T08:39:25Z</time>
      </trkpt>
      <trkpt lat="42.79047" lon="1.884">
        <ele>1232.4</ele>
        <time>2024-06-30T08:39:26Z</time>
      </trkpt>
      <trkpt lat="42.79077" lon="1.88423">
        <ele>1232</ele>
        <time>2024-06-30T08:39:33Z</time>
      </trkpt>
      <trkpt lat="42.79102" lon="1.88441">
        <ele>1231.2</ele>
        <time>2024-06-30T08:39:38Z</time>
      </trkpt>
      <trkpt lat="42.79115" lon="1.88451">
        <ele>1230.8</ele>
        <time>2024-06-30T08:39:41Z</time>
      </trkpt>
      <trkpt lat="42.79134" lon="1.88465">
        <ele>1230</ele>
        <time>2024-06-30T08:39:45Z</time>
      </trkpt>
      <trkpt lat="42.79152" lon="1.88479">
        <ele>1229.8</ele>
        <time>2024-06-30T08:39:49Z</time>
      </trkpt>
      <trkpt lat="42.79156" lon="1.88482">
        <ele>1229.8</ele>
        <time>2024-06-30T08:39:50Z</time>
      </trkpt>
      <trkpt lat="42.79159" lon="1.88486">
        <ele>1229.8</ele>
        <time>2024-06-30T08:39:51Z</time>
      </trkpt>
      <trkpt lat="42.79163" lon="1.8849">
        <ele>1229.8</ele>
        <time>2024-06-30T08:39:52Z</time>
      </trkpt>
      <trkpt lat="42.79166" lon="1.88493">
        <ele>1229.8</ele>
        <time>2024-06-30T08:39:53Z</time>
      </trkpt>
      <trkpt lat="42.79169" lon="1.88496">
        <ele>1229.8</ele>
        <time>2024-06-30T08:39:54Z</time>
      </trkpt>
      <trkpt lat="42.79172" lon="1.885">
        <ele>1229.8</ele>
        <time>2024-06-30T08:39:55Z</time>
      </trkpt>
      <trkpt lat="42.79175" lon="1.88503">
        <ele>1230</ele>
        <time>2024-06-30T08:39:56Z</time>
      </trkpt>
      <trkpt lat="42.79199" lon="1.88534">
        <ele>1230.8</ele>
        <time>2024-06-30T08:40:03Z</time>
      </trkpt>
      <trkpt lat="42.79218" lon="1.88558">
        <ele>1230.8</ele>
        <time>2024-06-30T08:40:09Z</time>
      </trkpt>
      <trkpt lat="42.7922" lon="1.88561">
        <ele>1230.6</ele>
        <time>2024-06-30T08:40:10Z</time>
      </trkpt>
      <trkpt lat="42.79223" lon="1.88564">
        <ele>1230.6</ele>
        <time>2024-06-30T08:40:11Z</time>
      </trkpt>
      <trkpt lat="42.79225" lon="1.88567">
        <ele>1230.6</ele>
        <time>2024-06-30T08:40:12Z</time>
      </trkpt>
      <trkpt lat="42.79228" lon="1.8857">
        <ele>1230.6</ele>
        <time>2024-06-30T08:40:13Z</time>
      </trkpt>
      <trkpt lat="42.7923" lon="1.88572">
        <ele>1230.6</ele>
        <time>2024-06-30T08:40:14Z</time>
      </trkpt>
      <trkpt lat="42.79236" lon="1.8858">
        <ele>1230.8</ele>
        <time>2024-06-30T08:40:17Z</time>
      </trkpt>
      <trkpt lat="42.79239" lon="1.88582">
        <ele>1230.8</ele>
        <time>2024-06-30T08:40:18Z</time>
      </trkpt>
      <trkpt lat="42.79241" lon="1.88584">
        <ele>1231</ele>
        <time>2024-06-30T08:40:19Z</time>
      </trkpt>
      <trkpt lat="42.79244" lon="1.88586">
        <ele>1231.2</ele>
        <time>2024-06-30T08:40:20Z</time>
      </trkpt>
      <trkpt lat="42.79246" lon="1.88589">
        <ele>1231.2</ele>
        <time>2024-06-30T08:40:21Z</time>
      </trkpt>
      <trkpt lat="42.79249" lon="1.88591">
        <ele>1231.2</ele>
        <time>2024-06-30T08:40:22Z</time>
      </trkpt>
      <trkpt lat="42.79251" lon="1.88593">
        <ele>1231.4</ele>
        <time>2024-06-30T08:40:23Z</time>
      </trkpt>
      <trkpt lat="42.79253" lon="1.88594">
        <ele>1231.2</ele>
        <time>2024-06-30T08:40:24Z</time>
      </trkpt>
      <trkpt lat="42.79256" lon="1.88596">
        <ele>1231.6</ele>
        <time>2024-06-30T08:40:25Z</time>
      </trkpt>
      <trkpt lat="42.79258" lon="1.88598">
        <ele>1231.6</ele>
        <time>2024-06-30T08:40:26Z</time>
      </trkpt>
      <trkpt lat="42.7926" lon="1.88599">
        <ele>1231.6</ele>
        <time>2024-06-30T08:40:27Z</time>
      </trkpt>
      <trkpt lat="42.79264" lon="1.88601">
        <ele>1231.6</ele>
        <time>2024-06-30T08:40:29Z</time>
      </trkpt>
      <trkpt lat="42.79265" lon="1.88601">
        <ele>1231.8</ele>
        <time>2024-06-30T08:40:30Z</time>
      </trkpt>
      <trkpt lat="42.79266" lon="1.88602">
        <ele>1232</ele>
        <time>2024-06-30T08:40:31Z</time>
      </trkpt>
      <trkpt lat="42.79266" lon="1.88602">
        <ele>1232</ele>
        <time>2024-06-30T08:40:32Z</time>
      </trkpt>
      <trkpt lat="42.79266" lon="1.88602">
        <ele>1232.2</ele>
        <time>2024-06-30T08:40:33Z</time>
      </trkpt>
      <trkpt lat="42.79266" lon="1.88602">
        <ele>1232.2</ele>
        <time>2024-06-30T08:40:34Z</time>
      </trkpt>
      <trkpt lat="42.79269" lon="1.88605">
        <ele>1230.8</ele>
        <time>2024-06-30T08:42:09Z</time>
      </trkpt>
      <trkpt lat="42.79283" lon="1.88619">
        <ele>1230.6</ele>
        <time>2024-06-30T08:42:13Z</time>
      </trkpt>
      <trkpt lat="42.79288" lon="1.88623">
        <ele>1230.6</ele>
        <time>2024-06-30T08:42:14Z</time>
      </trkpt>
      <trkpt lat="42.79311" lon="1.88646">
        <ele>1230</ele>
        <time>2024-06-30T08:42:19Z</time>
      </trkpt>
      <trkpt lat="42.79324" lon="1.88662">
        <ele>1229.8</ele>
        <time>2024-06-30T08:42:22Z</time>
      </trkpt>
      <trkpt lat="42.79347" lon="1.88693">
        <ele>1229.8</ele>
        <time>2024-06-30T08:42:28Z</time>
      </trkpt>
      <trkpt lat="42.79362" lon="1.88718">
        <ele>1229.6</ele>
        <time>2024-06-30T08:42:32Z</time>
      </trkpt>
      <trkpt lat="42.79365" lon="1.88724">
        <ele>1229.6</ele>
        <time>2024-06-30T08:42:33Z</time>
      </trkpt>
      <trkpt lat="42.79376" lon="1.88741">
        <ele>1229.8</ele>
        <time>2024-06-30T08:42:36Z</time>
      </trkpt>
      <trkpt lat="42.79383" lon="1.88753">
        <ele>1229.4</ele>
        <time>2024-06-30T08:42:38Z</time>
      </trkpt>
      <trkpt lat="42.79387" lon="1.88758">
        <ele>1229.4</ele>
        <time>2024-06-30T08:42:39Z</time>
      </trkpt>
      <trkpt lat="42.79392" lon="1.88769">
        <ele>1229.2</ele>
        <time>2024-06-30T08:42:41Z</time>
      </trkpt>
      <trkpt lat="42.79394" lon="1.88775">
        <ele>1229.2</ele>
        <time>2024-06-30T08:42:42Z</time>
      </trkpt>
      <trkpt lat="42.79396" lon="1.88781">
        <ele>1229.4</ele>
        <time>2024-06-30T08:42:43Z</time>
      </trkpt>
      <trkpt lat="42.79398" lon="1.88788">
        <ele>1229.4</ele>
        <time>2024-06-30T08:42:44Z</time>
      </trkpt>
      <trkpt lat="42.79401" lon="1.88795">
        <ele>1229.4</ele>
        <time>2024-06-30T08:42:45Z</time>
      </trkpt>
      <trkpt lat="42.7941" lon="1.88809">
        <ele>1229.2</ele>
        <time>2024-06-30T08:42:47Z</time>
      </trkpt>
      <trkpt lat="42.79434" lon="1.88839">
        <ele>1229.2</ele>
        <time>2024-06-30T08:42:52Z</time>
      </trkpt>
      <trkpt lat="42.79438" lon="1.88844">
        <ele>1229.2</ele>
        <time>2024-06-30T08:42:53Z</time>
      </trkpt>
      <trkpt lat="42.79442" lon="1.88849">
        <ele>1229</ele>
        <time>2024-06-30T08:42:54Z</time>
      </trkpt>
      <trkpt lat="42.79447" lon="1.88854">
        <ele>1229</ele>
        <time>2024-06-30T08:42:55Z</time>
      </trkpt>
      <trkpt lat="42.79459" lon="1.8887">
        <ele>1228.8</ele>
        <time>2024-06-30T08:42:58Z</time>
      </trkpt>
      <trkpt lat="42.79464" lon="1.88876">
        <ele>1228.6</ele>
        <time>2024-06-30T08:42:59Z</time>
      </trkpt>
      <trkpt lat="42.79468" lon="1.88881">
        <ele>1228.4</ele>
        <time>2024-06-30T08:43:00Z</time>
      </trkpt>
      <trkpt lat="42.79472" lon="1.88886">
        <ele>1228.4</ele>
        <time>2024-06-30T08:43:01Z</time>
      </trkpt>
      <trkpt lat="42.7948" lon="1.88897">
        <ele>1228</ele>
        <time>2024-06-30T08:43:03Z</time>
      </trkpt>
      <trkpt lat="42.79491" lon="1.88916">
        <ele>1227.4</ele>
        <time>2024-06-30T08:43:06Z</time>
      </trkpt>
      <trkpt lat="42.79495" lon="1.88922">
        <ele>1227.2</ele>
        <time>2024-06-30T08:43:07Z</time>
      </trkpt>
      <trkpt lat="42.79518" lon="1.88947">
        <ele>1227.2</ele>
        <time>2024-06-30T08:43:12Z</time>
      </trkpt>
      <trkpt lat="42.7955" lon="1.88977">
        <ele>1226.2</ele>
        <time>2024-06-30T08:43:18Z</time>
      </trkpt>
      <trkpt lat="42.7956" lon="1.88986">
        <ele>1226.2</ele>
        <time>2024-06-30T08:43:20Z</time>
      </trkpt>
      <trkpt lat="42.79564" lon="1.8899">
        <ele>1226</ele>
        <time>2024-06-30T08:43:21Z</time>
      </trkpt>
      <trkpt lat="42.79569" lon="1.88994">
        <ele>1225.8</ele>
        <time>2024-06-30T08:43:22Z</time>
      </trkpt>
      <trkpt lat="42.79574" lon="1.88996">
        <ele>1225.6</ele>
        <time>2024-06-30T08:43:23Z</time>
      </trkpt>
      <trkpt lat="42.79578" lon="1.88998">
        <ele>1225.6</ele>
        <time>2024-06-30T08:43:24Z</time>
      </trkpt>
      <trkpt lat="42.79582" lon="1.88999">
        <ele>1225.6</ele>
        <time>2024-06-30T08:43:25Z</time>
      </trkpt>
      <trkpt lat="42.79586" lon="1.89001">
        <ele>1225.6</ele>
        <time>2024-06-30T08:43:26Z</time>
      </trkpt>
      <trkpt lat="42.79589" lon="1.89002">
        <ele>1225.6</ele>
        <time>2024-06-30T08:43:27Z</time>
      </trkpt>
      <trkpt lat="42.79591" lon="1.89003">
        <ele>1225.6</ele>
        <time>2024-06-30T08:43:28Z</time>
      </trkpt>
      <trkpt lat="42.79594" lon="1.89005">
        <ele>1225.8</ele>
        <time>2024-06-30T08:43:29Z</time>
      </trkpt>
      <trkpt lat="42.79596" lon="1.89007">
        <ele>1226</ele>
        <time>2024-06-30T08:43:30Z</time>
      </trkpt>
      <trkpt lat="42.79599" lon="1.8901">
        <ele>1226.2</ele>
        <time>2024-06-30T08:43:31Z</time>
      </trkpt>
      <trkpt lat="42.79607" lon="1.89019">
        <ele>1226.8</ele>
        <time>2024-06-30T08:43:34Z</time>
      </trkpt>
      <trkpt lat="42.79616" lon="1.89029">
        <ele>1227.4</ele>
        <time>2024-06-30T08:43:37Z</time>
      </trkpt>
      <trkpt lat="42.79627" lon="1.8904">
        <ele>1227.6</ele>
        <time>2024-06-30T08:43:40Z</time>
      </trkpt>
      <trkpt lat="42.79634" lon="1.89047">
        <ele>1227.8</ele>
        <time>2024-06-30T08:43:42Z</time>
      </trkpt>
      <trkpt lat="42.79646" lon="1.89063">
        <ele>1228</ele>
        <time>2024-06-30T08:43:45Z</time>
      </trkpt>
      <trkpt lat="42.7968" lon="1.89111">
        <ele>1227.6</ele>
        <time>2024-06-30T08:43:54Z</time>
      </trkpt>
      <trkpt lat="42.79689" lon="1.89123">
        <ele>1227.4</ele>
        <time>2024-06-30T08:43:57Z</time>
      </trkpt>
      <trkpt lat="42.79691" lon="1.89125">
        <ele>1227.4</ele>
        <time>2024-06-30T08:43:58Z</time>
      </trkpt>
      <trkpt lat="42.79693" lon="1.89126">
        <ele>1227.2</ele>
        <time>2024-06-30T08:43:59Z</time>
      </trkpt>
      <trkpt lat="42.79695" lon="1.89129">
        <ele>1227.2</ele>
        <time>2024-06-30T08:44:00Z</time>
      </trkpt>
      <trkpt lat="42.79697" lon="1.89131">
        <ele>1227.2</ele>
        <time>2024-06-30T08:44:01Z</time>
      </trkpt>
      <trkpt lat="42.797" lon="1.89134">
        <ele>1227</ele>
        <time>2024-06-30T08:44:02Z</time>
      </trkpt>
      <trkpt lat="42.79708" lon="1.89143">
        <ele>1226.8</ele>
        <time>2024-06-30T08:44:05Z</time>
      </trkpt>
      <trkpt lat="42.79733" lon="1.8918">
        <ele>1228.2</ele>
        <time>2024-06-30T08:44:14Z</time>
      </trkpt>
      <trkpt lat="42.79747" lon="1.89202">
        <ele>1228.8</ele>
        <time>2024-06-30T08:44:19Z</time>
      </trkpt>
      <trkpt lat="42.79753" lon="1.89211">
        <ele>1229</ele>
        <time>2024-06-30T08:44:21Z</time>
      </trkpt>
      <trkpt lat="42.79782" lon="1.89252">
        <ele>1229.6</ele>
        <time>2024-06-30T08:44:29Z</time>
      </trkpt>
      <trkpt lat="42.79794" lon="1.89268">
        <ele>1229.6</ele>
        <time>2024-06-30T08:44:32Z</time>
      </trkpt>
      <trkpt lat="42.79808" lon="1.89292">
        <ele>1228.6</ele>
        <time>2024-06-30T08:44:36Z</time>
      </trkpt>
      <trkpt lat="42.79813" lon="1.893">
        <ele>1228.4</ele>
        <time>2024-06-30T08:44:37Z</time>
      </trkpt>
      <trkpt lat="42.79822" lon="1.89319">
        <ele>1227.6</ele>
        <time>2024-06-30T08:44:39Z</time>
      </trkpt>
      <trkpt lat="42.79831" lon="1.8934">
        <ele>1226.6</ele>
        <time>2024-06-30T08:44:41Z</time>
      </trkpt>
      <trkpt lat="42.79848" lon="1.89369">
        <ele>1225.4</ele>
        <time>2024-06-30T08:44:44Z</time>
      </trkpt>
      <trkpt lat="42.79854" lon="1.89378">
        <ele>1224.4</ele>
        <time>2024-06-30T08:44:45Z</time>
      </trkpt>
      <trkpt lat="42.7986" lon="1.89387">
        <ele>1223.4</ele>
        <time>2024-06-30T08:44:46Z</time>
      </trkpt>
      <trkpt lat="42.79867" lon="1.89394">
        <ele>1223</ele>
        <time>2024-06-30T08:44:47Z</time>
      </trkpt>
      <trkpt lat="42.79873" lon="1.894">
        <ele>1222.2</ele>
        <time>2024-06-30T08:44:48Z</time>
      </trkpt>
      <trkpt lat="42.79878" lon="1.89406">
        <ele>1221.4</ele>
        <time>2024-06-30T08:44:49Z</time>
      </trkpt>
      <trkpt lat="42.79882" lon="1.89411">
        <ele>1220.6</ele>
        <time>2024-06-30T08:44:50Z</time>
      </trkpt>
      <trkpt lat="42.79884" lon="1.89417">
        <ele>1220.4</ele>
        <time>2024-06-30T08:44:51Z</time>
      </trkpt>
      <trkpt lat="42.79885" lon="1.89423">
        <ele>1219.6</ele>
        <time>2024-06-30T08:44:52Z</time>
      </trkpt>
      <trkpt lat="42.79888" lon="1.89429">
        <ele>1219</ele>
        <time>2024-06-30T08:44:53Z</time>
      </trkpt>
      <trkpt lat="42.79891" lon="1.89435">
        <ele>1218.6</ele>
        <time>2024-06-30T08:44:54Z</time>
      </trkpt>
      <trkpt lat="42.79895" lon="1.89442">
        <ele>1217.8</ele>
        <time>2024-06-30T08:44:55Z</time>
      </trkpt>
      <trkpt lat="42.79899" lon="1.89451">
        <ele>1217.4</ele>
        <time>2024-06-30T08:44:56Z</time>
      </trkpt>
      <trkpt lat="42.79904" lon="1.8946">
        <ele>1216.4</ele>
        <time>2024-06-30T08:44:57Z</time>
      </trkpt>
      <trkpt lat="42.79919" lon="1.89482">
        <ele>1214.4</ele>
        <time>2024-06-30T08:44:59Z</time>
      </trkpt>
      <trkpt lat="42.79927" lon="1.89493">
        <ele>1213.2</ele>
        <time>2024-06-30T08:45:00Z</time>
      </trkpt>
      <trkpt lat="42.79936" lon="1.89503">
        <ele>1212.8</ele>
        <time>2024-06-30T08:45:01Z</time>
      </trkpt>
      <trkpt lat="42.79946" lon="1.89515">
        <ele>1211.8</ele>
        <time>2024-06-30T08:45:02Z</time>
      </trkpt>
      <trkpt lat="42.79954" lon="1.89524">
        <ele>1211.2</ele>
        <time>2024-06-30T08:45:03Z</time>
      </trkpt>
      <trkpt lat="42.7996" lon="1.89531">
        <ele>1210</ele>
        <time>2024-06-30T08:45:04Z</time>
      </trkpt>
      <trkpt lat="42.79967" lon="1.8954">
        <ele>1209.6</ele>
        <time>2024-06-30T08:45:05Z</time>
      </trkpt>
      <trkpt lat="42.79976" lon="1.89549">
        <ele>1208.6</ele>
        <time>2024-06-30T08:45:06Z</time>
      </trkpt>
      <trkpt lat="42.79983" lon="1.89556">
        <ele>1208.2</ele>
        <time>2024-06-30T08:45:07Z</time>
      </trkpt>
      <trkpt lat="42.7999" lon="1.89562">
        <ele>1206.6</ele>
        <time>2024-06-30T08:45:08Z</time>
      </trkpt>
      <trkpt lat="42.79995" lon="1.89568">
        <ele>1204.8</ele>
        <time>2024-06-30T08:45:09Z</time>
      </trkpt>
      <trkpt lat="42.8" lon="1.89577">
        <ele>1204.2</ele>
        <time>2024-06-30T08:45:10Z</time>
      </trkpt>
      <trkpt lat="42.80003" lon="1.89587">
        <ele>1202.8</ele>
        <time>2024-06-30T08:45:11Z</time>
      </trkpt>
      <trkpt lat="42.80006" lon="1.89597">
        <ele>1201.4</ele>
        <time>2024-06-30T08:45:12Z</time>
      </trkpt>
      <trkpt lat="42.80009" lon="1.89608">
        <ele>1201</ele>
        <time>2024-06-30T08:45:13Z</time>
      </trkpt>
      <trkpt lat="42.80011" lon="1.89618">
        <ele>1200.4</ele>
        <time>2024-06-30T08:45:14Z</time>
      </trkpt>
      <trkpt lat="42.80013" lon="1.89632">
        <ele>1199.8</ele>
        <time>2024-06-30T08:45:15Z</time>
      </trkpt>
      <trkpt lat="42.80014" lon="1.89644">
        <ele>1199.2</ele>
        <time>2024-06-30T08:45:16Z</time>
      </trkpt>
      <trkpt lat="42.80015" lon="1.89667">
        <ele>1198.2</ele>
        <time>2024-06-30T08:45:18Z</time>
      </trkpt>
      <trkpt lat="42.80018" lon="1.8969">
        <ele>1197.4</ele>
        <time>2024-06-30T08:45:20Z</time>
      </trkpt>
      <trkpt lat="42.80021" lon="1.89697">
        <ele>1194.4</ele>
        <time>2024-06-30T08:45:21Z</time>
      </trkpt>
      <trkpt lat="42.80025" lon="1.89702">
        <ele>1193.6</ele>
        <time>2024-06-30T08:45:22Z</time>
      </trkpt>
      <trkpt lat="42.80029" lon="1.89704">
        <ele>1192</ele>
        <time>2024-06-30T08:45:23Z</time>
      </trkpt>
      <trkpt lat="42.80035" lon="1.89705">
        <ele>1191.6</ele>
        <time>2024-06-30T08:45:24Z</time>
      </trkpt>
      <trkpt lat="42.80041" lon="1.89704">
        <ele>1190.8</ele>
        <time>2024-06-30T08:45:25Z</time>
      </trkpt>
      <trkpt lat="42.80047" lon="1.89704">
        <ele>1190</ele>
        <time>2024-06-30T08:45:26Z</time>
      </trkpt>
      <trkpt lat="42.80053" lon="1.89703">
        <ele>1189.4</ele>
        <time>2024-06-30T08:45:27Z</time>
      </trkpt>
      <trkpt lat="42.80072" lon="1.89701">
        <ele>1188.2</ele>
        <time>2024-06-30T08:45:30Z</time>
      </trkpt>
      <trkpt lat="42.80091" lon="1.89698">
        <ele>1187</ele>
        <time>2024-06-30T08:45:33Z</time>
      </trkpt>
      <trkpt lat="42.80116" lon="1.89694">
        <ele>1186.4</ele>
        <time>2024-06-30T08:45:37Z</time>
      </trkpt>
      <trkpt lat="42.80164" lon="1.89686">
        <ele>1185.8</ele>
        <time>2024-06-30T08:45:44Z</time>
      </trkpt>
      <trkpt lat="42.80191" lon="1.89686">
        <ele>1184.6</ele>
        <time>2024-06-30T08:45:48Z</time>
      </trkpt>
      <trkpt lat="42.80197" lon="1.89687">
        <ele>1184.6</ele>
        <time>2024-06-30T08:45:49Z</time>
      </trkpt>
      <trkpt lat="42.80202" lon="1.89689">
        <ele>1184.4</ele>
        <time>2024-06-30T08:45:50Z</time>
      </trkpt>
      <trkpt lat="42.80207" lon="1.89691">
        <ele>1184.2</ele>
        <time>2024-06-30T08:45:51Z</time>
      </trkpt>
      <trkpt lat="42.80217" lon="1.897">
        <ele>1184</ele>
        <time>2024-06-30T08:45:53Z</time>
      </trkpt>
      <trkpt lat="42.80223" lon="1.89707">
        <ele>1183.8</ele>
        <time>2024-06-30T08:45:54Z</time>
      </trkpt>
      <trkpt lat="42.80227" lon="1.89712">
        <ele>1183.8</ele>
        <time>2024-06-30T08:45:55Z</time>
      </trkpt>
      <trkpt lat="42.80232" lon="1.89718">
        <ele>1183.6</ele>
        <time>2024-06-30T08:45:56Z</time>
      </trkpt>
      <trkpt lat="42.8025" lon="1.89738">
        <ele>1183</ele>
        <time>2024-06-30T08:45:59Z</time>
      </trkpt>
      <trkpt lat="42.80254" lon="1.89742">
        <ele>1183</ele>
        <time>2024-06-30T08:46:00Z</time>
      </trkpt>
      <trkpt lat="42.80258" lon="1.89746">
        <ele>1182.4</ele>
        <time>2024-06-30T08:46:01Z</time>
      </trkpt>
      <trkpt lat="42.80263" lon="1.89748">
        <ele>1182.2</ele>
        <time>2024-06-30T08:46:02Z</time>
      </trkpt>
      <trkpt lat="42.80267" lon="1.89747">
        <ele>1181.6</ele>
        <time>2024-06-30T08:46:03Z</time>
      </trkpt>
      <trkpt lat="42.80269" lon="1.89744">
        <ele>1181.2</ele>
        <time>2024-06-30T08:46:04Z</time>
      </trkpt>
      <trkpt lat="42.8027" lon="1.89741">
        <ele>1180.6</ele>
        <time>2024-06-30T08:46:05Z</time>
      </trkpt>
      <trkpt lat="42.8027" lon="1.89737">
        <ele>1180</ele>
        <time>2024-06-30T08:46:06Z</time>
      </trkpt>
      <trkpt lat="42.80271" lon="1.89733">
        <ele>1179.6</ele>
        <time>2024-06-30T08:46:07Z</time>
      </trkpt>
      <trkpt lat="42.80271" lon="1.89728">
        <ele>1179.2</ele>
        <time>2024-06-30T08:46:08Z</time>
      </trkpt>
      <trkpt lat="42.80271" lon="1.89725">
        <ele>1179.2</ele>
        <time>2024-06-30T08:46:09Z</time>
      </trkpt>
      <trkpt lat="42.80272" lon="1.89722">
        <ele>1179.2</ele>
        <time>2024-06-30T08:46:10Z</time>
      </trkpt>
      <trkpt lat="42.80273" lon="1.89718">
        <ele>1179.2</ele>
        <time>2024-06-30T08:46:11Z</time>
      </trkpt>
      <trkpt lat="42.80275" lon="1.89715">
        <ele>1179.2</ele>
        <time>2024-06-30T08:46:12Z</time>
      </trkpt>
      <trkpt lat="42.80277" lon="1.89713">
        <ele>1179.4</ele>
        <time>2024-06-30T08:46:13Z</time>
      </trkpt>
      <trkpt lat="42.8028" lon="1.89711">
        <ele>1179.6</ele>
        <time>2024-06-30T08:46:14Z</time>
      </trkpt>
      <trkpt lat="42.80287" lon="1.89709">
        <ele>1179.6</ele>
        <time>2024-06-30T08:46:16Z</time>
      </trkpt>
      <trkpt lat="42.80291" lon="1.89708">
        <ele>1179.8</ele>
        <time>2024-06-30T08:46:17Z</time>
      </trkpt>
      <trkpt lat="42.80296" lon="1.89709">
        <ele>1179.8</ele>
        <time>2024-06-30T08:46:18Z</time>
      </trkpt>
      <trkpt lat="42.80299" lon="1.89708">
        <ele>1180</ele>
        <time>2024-06-30T08:46:19Z</time>
      </trkpt>
      <trkpt lat="42.80308" lon="1.89708">
        <ele>1180.4</ele>
        <time>2024-06-30T08:46:21Z</time>
      </trkpt>
      <trkpt lat="42.80324" lon="1.89708">
        <ele>1180.4</ele>
        <time>2024-06-30T08:46:24Z</time>
      </trkpt>
      <trkpt lat="42.80339" lon="1.89709">
        <ele>1179.8</ele>
        <time>2024-06-30T08:46:27Z</time>
      </trkpt>
      <trkpt lat="42.80355" lon="1.89707">
        <ele>1180</ele>
        <time>2024-06-30T08:46:30Z</time>
      </trkpt>
      <trkpt lat="42.80363" lon="1.89704">
        <ele>1180</ele>
        <time>2024-06-30T08:46:32Z</time>
      </trkpt>
      <trkpt lat="42.80367" lon="1.89703">
        <ele>1179.8</ele>
        <time>2024-06-30T08:46:33Z</time>
      </trkpt>
      <trkpt lat="42.80371" lon="1.89701">
        <ele>1179.8</ele>
        <time>2024-06-30T08:46:34Z</time>
      </trkpt>
      <trkpt lat="42.80374" lon="1.897">
        <ele>1180</ele>
        <time>2024-06-30T08:46:35Z</time>
      </trkpt>
      <trkpt lat="42.80382" lon="1.89697">
        <ele>1180.2</ele>
        <time>2024-06-30T08:46:37Z</time>
      </trkpt>
      <trkpt lat="42.80386" lon="1.89695">
        <ele>1180.4</ele>
        <time>2024-06-30T08:46:38Z</time>
      </trkpt>
      <trkpt lat="42.8039" lon="1.89694">
        <ele>1180.6</ele>
        <time>2024-06-30T08:46:39Z</time>
      </trkpt>
      <trkpt lat="42.80394" lon="1.89692">
        <ele>1180.6</ele>
        <time>2024-06-30T08:46:40Z</time>
      </trkpt>
      <trkpt lat="42.80398" lon="1.89691">
        <ele>1180.8</ele>
        <time>2024-06-30T08:46:41Z</time>
      </trkpt>
      <trkpt lat="42.80401" lon="1.8969">
        <ele>1181.2</ele>
        <time>2024-06-30T08:46:42Z</time>
      </trkpt>
      <trkpt lat="42.80404" lon="1.89689">
        <ele>1181.4</ele>
        <time>2024-06-30T08:46:43Z</time>
      </trkpt>
      <trkpt lat="42.80409" lon="1.89688">
        <ele>1181.2</ele>
        <time>2024-06-30T08:46:44Z</time>
      </trkpt>
      <trkpt lat="42.8042" lon="1.89685">
        <ele>1181.6</ele>
        <time>2024-06-30T08:46:47Z</time>
      </trkpt>
      <trkpt lat="42.80444" lon="1.89678">
        <ele>1182.4</ele>
        <time>2024-06-30T08:46:53Z</time>
      </trkpt>
      <trkpt lat="42.80478" lon="1.89664">
        <ele>1183.6</ele>
        <time>2024-06-30T08:47:01Z</time>
      </trkpt>
      <trkpt lat="42.80482" lon="1.89662">
        <ele>1184</ele>
        <time>2024-06-30T08:47:02Z</time>
      </trkpt>
      <trkpt lat="42.80486" lon="1.8966">
        <ele>1184.2</ele>
        <time>2024-06-30T08:47:03Z</time>
      </trkpt>
      <trkpt lat="42.8049" lon="1.89658">
        <ele>1184.6</ele>
        <time>2024-06-30T08:47:04Z</time>
      </trkpt>
      <trkpt lat="42.80494" lon="1.89656">
        <ele>1184.6</ele>
        <time>2024-06-30T08:47:05Z</time>
      </trkpt>
      <trkpt lat="42.80498" lon="1.89655">
        <ele>1184.8</ele>
        <time>2024-06-30T08:47:06Z</time>
      </trkpt>
      <trkpt lat="42.80503" lon="1.89653">
        <ele>1184.8</ele>
        <time>2024-06-30T08:47:07Z</time>
      </trkpt>
      <trkpt lat="42.80507" lon="1.89652">
        <ele>1184.8</ele>
        <time>2024-06-30T08:47:08Z</time>
      </trkpt>
      <trkpt lat="42.80511" lon="1.8965">
        <ele>1184.8</ele>
        <time>2024-06-30T08:47:09Z</time>
      </trkpt>
      <trkpt lat="42.80516" lon="1.89649">
        <ele>1184.8</ele>
        <time>2024-06-30T08:47:10Z</time>
      </trkpt>
      <trkpt lat="42.8052" lon="1.89647">
        <ele>1185</ele>
        <time>2024-06-30T08:47:11Z</time>
      </trkpt>
      <trkpt lat="42.80524" lon="1.89646">
        <ele>1185</ele>
        <time>2024-06-30T08:47:12Z</time>
      </trkpt>
      <trkpt lat="42.80527" lon="1.89645">
        <ele>1185.2</ele>
        <time>2024-06-30T08:47:13Z</time>
      </trkpt>
      <trkpt lat="42.80531" lon="1.89643">
        <ele>1185.2</ele>
        <time>2024-06-30T08:47:14Z</time>
      </trkpt>
      <trkpt lat="42.80534" lon="1.89642">
        <ele>1185.4</ele>
        <time>2024-06-30T08:47:15Z</time>
      </trkpt>
      <trkpt lat="42.80538" lon="1.8964">
        <ele>1185.4</ele>
        <time>2024-06-30T08:47:16Z</time>
      </trkpt>
      <trkpt lat="42.80542" lon="1.89639">
        <ele>1185.4</ele>
        <time>2024-06-30T08:47:17Z</time>
      </trkpt>
      <trkpt lat="42.80546" lon="1.89636">
        <ele>1185.4</ele>
        <time>2024-06-30T08:47:18Z</time>
      </trkpt>
      <trkpt lat="42.8055" lon="1.89634">
        <ele>1185.4</ele>
        <time>2024-06-30T08:47:19Z</time>
      </trkpt>
      <trkpt lat="42.80554" lon="1.89632">
        <ele>1185.6</ele>
        <time>2024-06-30T08:47:20Z</time>
      </trkpt>
      <trkpt lat="42.80557" lon="1.89631">
        <ele>1185.6</ele>
        <time>2024-06-30T08:47:21Z</time>
      </trkpt>
      <trkpt lat="42.80561" lon="1.89629">
        <ele>1185.6</ele>
        <time>2024-06-30T08:47:22Z</time>
      </trkpt>
      <trkpt lat="42.80565" lon="1.89626">
        <ele>1185.6</ele>
        <time>2024-06-30T08:47:23Z</time>
      </trkpt>
      <trkpt lat="42.8057" lon="1.89626">
        <ele>1185.6</ele>
        <time>2024-06-30T08:47:24Z</time>
      </trkpt>
      <trkpt lat="42.80574" lon="1.89624">
        <ele>1185.6</ele>
        <time>2024-06-30T08:47:25Z</time>
      </trkpt>
      <trkpt lat="42.80583" lon="1.89618">
        <ele>1185.6</ele>
        <time>2024-06-30T08:47:27Z</time>
      </trkpt>
      <trkpt lat="42.80585" lon="1.89614">
        <ele>1185.6</ele>
        <time>2024-06-30T08:47:28Z</time>
      </trkpt>
      <trkpt lat="42.80586" lon="1.89609">
        <ele>1185.6</ele>
        <time>2024-06-30T08:47:29Z</time>
      </trkpt>
      <trkpt lat="42.80586" lon="1.89606">
        <ele>1185.6</ele>
        <time>2024-06-30T08:47:30Z</time>
      </trkpt>
      <trkpt lat="42.80585" lon="1.89603">
        <ele>1185.6</ele>
        <time>2024-06-30T08:47:31Z</time>
      </trkpt>
      <trkpt lat="42.80584" lon="1.89602">
        <ele>1185.4</ele>
        <time>2024-06-30T08:47:32Z</time>
      </trkpt>
      <trkpt lat="42.80582" lon="1.896">
        <ele>1185.6</ele>
        <time>2024-06-30T08:47:33Z</time>
      </trkpt>
      <trkpt lat="42.80581" lon="1.89597">
        <ele>1185.6</ele>
        <time>2024-06-30T08:47:34Z</time>
      </trkpt>
      <trkpt lat="42.8058" lon="1.89595">
        <ele>1185.6</ele>
        <time>2024-06-30T08:47:35Z</time>
      </trkpt>
      <trkpt lat="42.80579" lon="1.89593">
        <ele>1185.6</ele>
        <time>2024-06-30T08:47:36Z</time>
      </trkpt>
      <trkpt lat="42.80578" lon="1.89591">
        <ele>1185.6</ele>
        <time>2024-06-30T08:47:37Z</time>
      </trkpt>
      <trkpt lat="42.80577" lon="1.89588">
        <ele>1185.8</ele>
        <time>2024-06-30T08:47:38Z</time>
      </trkpt>
      <trkpt lat="42.80575" lon="1.89586">
        <ele>1185.8</ele>
        <time>2024-06-30T08:47:39Z</time>
      </trkpt>
      <trkpt lat="42.80574" lon="1.89583">
        <ele>1186</ele>
        <time>2024-06-30T08:47:40Z</time>
      </trkpt>
      <trkpt lat="42.80572" lon="1.8958">
        <ele>1186.4</ele>
        <time>2024-06-30T08:47:41Z</time>
      </trkpt>
      <trkpt lat="42.80569" lon="1.8957">
        <ele>1187.2</ele>
        <time>2024-06-30T08:47:45Z</time>
      </trkpt>
      <trkpt lat="42.80567" lon="1.89567">
        <ele>1187.6</ele>
        <time>2024-06-30T08:47:46Z</time>
      </trkpt>
      <trkpt lat="42.80564" lon="1.89562">
        <ele>1188.4</ele>
        <time>2024-06-30T08:47:48Z</time>
      </trkpt>
      <trkpt lat="42.80561" lon="1.89555">
        <ele>1189.2</ele>
        <time>2024-06-30T08:47:51Z</time>
      </trkpt>
      <trkpt lat="42.80559" lon="1.89551">
        <ele>1189.4</ele>
        <time>2024-06-30T08:47:52Z</time>
      </trkpt>
      <trkpt lat="42.80558" lon="1.89549">
        <ele>1189.8</ele>
        <time>2024-06-30T08:47:53Z</time>
      </trkpt>
      <trkpt lat="42.80557" lon="1.89546">
        <ele>1190</ele>
        <time>2024-06-30T08:47:54Z</time>
      </trkpt>
      <trkpt lat="42.80556" lon="1.89544">
        <ele>1190.2</ele>
        <time>2024-06-30T08:47:55Z</time>
      </trkpt>
      <trkpt lat="42.80555" lon="1.89541">
        <ele>1190.6</ele>
        <time>2024-06-30T08:47:56Z</time>
      </trkpt>
      <trkpt lat="42.80554" lon="1.8954">
        <ele>1190.8</ele>
        <time>2024-06-30T08:47:57Z</time>
      </trkpt>
      <trkpt lat="42.80553" lon="1.89537">
        <ele>1191.2</ele>
        <time>2024-06-30T08:47:58Z</time>
      </trkpt>
      <trkpt lat="42.80552" lon="1.89535">
        <ele>1191.4</ele>
        <time>2024-06-30T08:47:59Z</time>
      </trkpt>
      <trkpt lat="42.80551" lon="1.89533">
        <ele>1191.8</ele>
        <time>2024-06-30T08:48:00Z</time>
      </trkpt>
      <trkpt lat="42.80549" lon="1.8953">
        <ele>1192</ele>
        <time>2024-06-30T08:48:01Z</time>
      </trkpt>
      <trkpt lat="42.80548" lon="1.89527">
        <ele>1192.4</ele>
        <time>2024-06-30T08:48:02Z</time>
      </trkpt>
      <trkpt lat="42.80547" lon="1.89525">
        <ele>1192.6</ele>
        <time>2024-06-30T08:48:03Z</time>
      </trkpt>
      <trkpt lat="42.80546" lon="1.89522">
        <ele>1192.8</ele>
        <time>2024-06-30T08:48:04Z</time>
      </trkpt>
      <trkpt lat="42.80545" lon="1.8952">
        <ele>1193.4</ele>
        <time>2024-06-30T08:48:05Z</time>
      </trkpt>
      <trkpt lat="42.80544" lon="1.89518">
        <ele>1193.6</ele>
        <time>2024-06-30T08:48:06Z</time>
      </trkpt>
      <trkpt lat="42.80543" lon="1.89515">
        <ele>1194.2</ele>
        <time>2024-06-30T08:48:07Z</time>
      </trkpt>
      <trkpt lat="42.80541" lon="1.89512">
        <ele>1194.4</ele>
        <time>2024-06-30T08:48:08Z</time>
      </trkpt>
      <trkpt lat="42.80541" lon="1.8951">
        <ele>1194.6</ele>
        <time>2024-06-30T08:48:09Z</time>
      </trkpt>
      <trkpt lat="42.8054" lon="1.89508">
        <ele>1195</ele>
        <time>2024-06-30T08:48:10Z</time>
      </trkpt>
      <trkpt lat="42.80538" lon="1.89505">
        <ele>1195</ele>
        <time>2024-06-30T08:48:11Z</time>
      </trkpt>
      <trkpt lat="42.80537" lon="1.89503">
        <ele>1195.2</ele>
        <time>2024-06-30T08:48:12Z</time>
      </trkpt>
      <trkpt lat="42.80536" lon="1.89501">
        <ele>1195.4</ele>
        <time>2024-06-30T08:48:13Z</time>
      </trkpt>
      <trkpt lat="42.80535" lon="1.89498">
        <ele>1195.8</ele>
        <time>2024-06-30T08:48:14Z</time>
      </trkpt>
      <trkpt lat="42.80534" lon="1.89496">
        <ele>1196.2</ele>
        <time>2024-06-30T08:48:15Z</time>
      </trkpt>
      <trkpt lat="42.80533" lon="1.89493">
        <ele>1196.4</ele>
        <time>2024-06-30T08:48:16Z</time>
      </trkpt>
      <trkpt lat="42.80531" lon="1.8949">
        <ele>1196.8</ele>
        <time>2024-06-30T08:48:17Z</time>
      </trkpt>
      <trkpt lat="42.8053" lon="1.89487">
        <ele>1197</ele>
        <time>2024-06-30T08:48:18Z</time>
      </trkpt>
      <trkpt lat="42.80529" lon="1.89484">
        <ele>1197.6</ele>
        <time>2024-06-30T08:48:19Z</time>
      </trkpt>
      <trkpt lat="42.80528" lon="1.8948">
        <ele>1198</ele>
        <time>2024-06-30T08:48:20Z</time>
      </trkpt>
      <trkpt lat="42.80526" lon="1.89477">
        <ele>1198.4</ele>
        <time>2024-06-30T08:48:21Z</time>
      </trkpt>
      <trkpt lat="42.80525" lon="1.89474">
        <ele>1198.6</ele>
        <time>2024-06-30T08:48:22Z</time>
      </trkpt>
      <trkpt lat="42.80524" lon="1.89471">
        <ele>1199</ele>
        <time>2024-06-30T08:48:23Z</time>
      </trkpt>
      <trkpt lat="42.80523" lon="1.89468">
        <ele>1199.6</ele>
        <time>2024-06-30T08:48:24Z</time>
      </trkpt>
      <trkpt lat="42.80521" lon="1.89465">
        <ele>1199.8</ele>
        <time>2024-06-30T08:48:25Z</time>
      </trkpt>
      <trkpt lat="42.8052" lon="1.89462">
        <ele>1200</ele>
        <time>2024-06-30T08:48:26Z</time>
      </trkpt>
      <trkpt lat="42.80519" lon="1.8946">
        <ele>1200.2</ele>
        <time>2024-06-30T08:48:27Z</time>
      </trkpt>
      <trkpt lat="42.80518" lon="1.89457">
        <ele>1201</ele>
        <time>2024-06-30T08:48:28Z</time>
      </trkpt>
      <trkpt lat="42.80517" lon="1.89454">
        <ele>1201.4</ele>
        <time>2024-06-30T08:48:29Z</time>
      </trkpt>
      <trkpt lat="42.80516" lon="1.89451">
        <ele>1201.8</ele>
        <time>2024-06-30T08:48:30Z</time>
      </trkpt>
      <trkpt lat="42.80515" lon="1.89449">
        <ele>1202.4</ele>
        <time>2024-06-30T08:48:31Z</time>
      </trkpt>
      <trkpt lat="42.80514" lon="1.89446">
        <ele>1202.6</ele>
        <time>2024-06-30T08:48:32Z</time>
      </trkpt>
      <trkpt lat="42.80513" lon="1.89443">
        <ele>1203</ele>
        <time>2024-06-30T08:48:33Z</time>
      </trkpt>
      <trkpt lat="42.80511" lon="1.89441">
        <ele>1203.2</ele>
        <time>2024-06-30T08:48:34Z</time>
      </trkpt>
      <trkpt lat="42.8051" lon="1.89438">
        <ele>1203.8</ele>
        <time>2024-06-30T08:48:35Z</time>
      </trkpt>
      <trkpt lat="42.80508" lon="1.89436">
        <ele>1204.2</ele>
        <time>2024-06-30T08:48:36Z</time>
      </trkpt>
      <trkpt lat="42.80507" lon="1.89433">
        <ele>1204.6</ele>
        <time>2024-06-30T08:48:37Z</time>
      </trkpt>
      <trkpt lat="42.80506" lon="1.8943">
        <ele>1205.4</ele>
        <time>2024-06-30T08:48:38Z</time>
      </trkpt>
      <trkpt lat="42.80505" lon="1.89427">
        <ele>1205.6</ele>
        <time>2024-06-30T08:48:39Z</time>
      </trkpt>
      <trkpt lat="42.80504" lon="1.89424">
        <ele>1206.2</ele>
        <time>2024-06-30T08:48:40Z</time>
      </trkpt>
      <trkpt lat="42.80504" lon="1.89421">
        <ele>1206.4</ele>
        <time>2024-06-30T08:48:41Z</time>
      </trkpt>
      <trkpt lat="42.80504" lon="1.89418">
        <ele>1206.8</ele>
        <time>2024-06-30T08:48:42Z</time>
      </trkpt>
      <trkpt lat="42.80504" lon="1.89415">
        <ele>1207</ele>
        <time>2024-06-30T08:48:43Z</time>
      </trkpt>
      <trkpt lat="42.80505" lon="1.89412">
        <ele>1207.6</ele>
        <time>2024-06-30T08:48:44Z</time>
      </trkpt>
      <trkpt lat="42.80506" lon="1.8941">
        <ele>1208</ele>
        <time>2024-06-30T08:48:45Z</time>
      </trkpt>
      <trkpt lat="42.80508" lon="1.89408">
        <ele>1208.2</ele>
        <time>2024-06-30T08:48:46Z</time>
      </trkpt>
      <trkpt lat="42.80509" lon="1.89406">
        <ele>1208.4</ele>
        <time>2024-06-30T08:48:47Z</time>
      </trkpt>
      <trkpt lat="42.80512" lon="1.89404">
        <ele>1208.6</ele>
        <time>2024-06-30T08:48:48Z</time>
      </trkpt>
      <trkpt lat="42.80514" lon="1.89402">
        <ele>1208.8</ele>
        <time>2024-06-30T08:48:49Z</time>
      </trkpt>
      <trkpt lat="42.80517" lon="1.894">
        <ele>1209</ele>
        <time>2024-06-30T08:48:50Z</time>
      </trkpt>
      <trkpt lat="42.80519" lon="1.89397">
        <ele>1209.2</ele>
        <time>2024-06-30T08:48:51Z</time>
      </trkpt>
      <trkpt lat="42.80522" lon="1.89394">
        <ele>1209.2</ele>
        <time>2024-06-30T08:48:52Z</time>
      </trkpt>
      <trkpt lat="42.80524" lon="1.89392">
        <ele>1209.4</ele>
        <time>2024-06-30T08:48:53Z</time>
      </trkpt>
      <trkpt lat="42.80527" lon="1.89389">
        <ele>1209.4</ele>
        <time>2024-06-30T08:48:54Z</time>
      </trkpt>
      <trkpt lat="42.8053" lon="1.89386">
        <ele>1209.4</ele>
        <time>2024-06-30T08:48:55Z</time>
      </trkpt>
      <trkpt lat="42.80532" lon="1.89384">
        <ele>1209.4</ele>
        <time>2024-06-30T08:48:56Z</time>
      </trkpt>
      <trkpt lat="42.80534" lon="1.89382">
        <ele>1209.4</ele>
        <time>2024-06-30T08:48:57Z</time>
      </trkpt>
      <trkpt lat="42.80536" lon="1.8938">
        <ele>1209.4</ele>
        <time>2024-06-30T08:48:58Z</time>
      </trkpt>
      <trkpt lat="42.80538" lon="1.89378">
        <ele>1209.6</ele>
        <time>2024-06-30T08:48:59Z</time>
      </trkpt>
      <trkpt lat="42.8054" lon="1.89377">
        <ele>1209.6</ele>
        <time>2024-06-30T08:49:00Z</time>
      </trkpt>
      <trkpt lat="42.80542" lon="1.89374">
        <ele>1209.8</ele>
        <time>2024-06-30T08:49:01Z</time>
      </trkpt>
      <trkpt lat="42.80544" lon="1.89372">
        <ele>1209.8</ele>
        <time>2024-06-30T08:49:02Z</time>
      </trkpt>
      <trkpt lat="42.80546" lon="1.89369">
        <ele>1210</ele>
        <time>2024-06-30T08:49:03Z</time>
      </trkpt>
      <trkpt lat="42.80548" lon="1.89367">
        <ele>1210.2</ele>
        <time>2024-06-30T08:49:04Z</time>
      </trkpt>
      <trkpt lat="42.80551" lon="1.89364">
        <ele>1210.4</ele>
        <time>2024-06-30T08:49:05Z</time>
      </trkpt>
      <trkpt lat="42.80554" lon="1.89361">
        <ele>1210.4</ele>
        <time>2024-06-30T08:49:06Z</time>
      </trkpt>
      <trkpt lat="42.80557" lon="1.89357">
        <ele>1210.4</ele>
        <time>2024-06-30T08:49:07Z</time>
      </trkpt>
      <trkpt lat="42.80561" lon="1.89353">
        <ele>1210.4</ele>
        <time>2024-06-30T08:49:08Z</time>
      </trkpt>
      <trkpt lat="42.80564" lon="1.89349">
        <ele>1210.4</ele>
        <time>2024-06-30T08:49:09Z</time>
      </trkpt>
      <trkpt lat="42.80568" lon="1.89346">
        <ele>1210.4</ele>
        <time>2024-06-30T08:49:10Z</time>
      </trkpt>
      <trkpt lat="42.80573" lon="1.89342">
        <ele>1210.4</ele>
        <time>2024-06-30T08:49:11Z</time>
      </trkpt>
      <trkpt lat="42.80576" lon="1.89339">
        <ele>1210.4</ele>
        <time>2024-06-30T08:49:12Z</time>
      </trkpt>
      <trkpt lat="42.8058" lon="1.89337">
        <ele>1210.2</ele>
        <time>2024-06-30T08:49:13Z</time>
      </trkpt>
      <trkpt lat="42.80585" lon="1.89334">
        <ele>1210</ele>
        <time>2024-06-30T08:49:14Z</time>
      </trkpt>
      <trkpt lat="42.80589" lon="1.89331">
        <ele>1209.8</ele>
        <time>2024-06-30T08:49:15Z</time>
      </trkpt>
      <trkpt lat="42.80594" lon="1.89328">
        <ele>1209.8</ele>
        <time>2024-06-30T08:49:16Z</time>
      </trkpt>
      <trkpt lat="42.80599" lon="1.89324">
        <ele>1209.8</ele>
        <time>2024-06-30T08:49:17Z</time>
      </trkpt>
      <trkpt lat="42.8062" lon="1.89307">
        <ele>1209</ele>
        <time>2024-06-30T08:49:21Z</time>
      </trkpt>
      <trkpt lat="42.80627" lon="1.89302">
        <ele>1208.8</ele>
        <time>2024-06-30T08:49:22Z</time>
      </trkpt>
      <trkpt lat="42.8065" lon="1.89284">
        <ele>1207.8</ele>
        <time>2024-06-30T08:49:25Z</time>
      </trkpt>
      <trkpt lat="42.80658" lon="1.89279">
        <ele>1207.6</ele>
        <time>2024-06-30T08:49:26Z</time>
      </trkpt>
      <trkpt lat="42.80665" lon="1.89274">
        <ele>1206.8</ele>
        <time>2024-06-30T08:49:27Z</time>
      </trkpt>
      <trkpt lat="42.80671" lon="1.89269">
        <ele>1206.6</ele>
        <time>2024-06-30T08:49:28Z</time>
      </trkpt>
      <trkpt lat="42.80677" lon="1.89266">
        <ele>1205.8</ele>
        <time>2024-06-30T08:49:29Z</time>
      </trkpt>
      <trkpt lat="42.80685" lon="1.89263">
        <ele>1205.6</ele>
        <time>2024-06-30T08:49:30Z</time>
      </trkpt>
      <trkpt lat="42.80692" lon="1.89263">
        <ele>1205.2</ele>
        <time>2024-06-30T08:49:31Z</time>
      </trkpt>
      <trkpt lat="42.80713" lon="1.89261">
        <ele>1204.6</ele>
        <time>2024-06-30T08:49:33Z</time>
      </trkpt>
      <trkpt lat="42.80725" lon="1.8926">
        <ele>1204</ele>
        <time>2024-06-30T08:49:34Z</time>
      </trkpt>
      <trkpt lat="42.80749" lon="1.89259">
        <ele>1202.8</ele>
        <time>2024-06-30T08:49:36Z</time>
      </trkpt>
      <trkpt lat="42.8076" lon="1.89261">
        <ele>1202.4</ele>
        <time>2024-06-30T08:49:37Z</time>
      </trkpt>
      <trkpt lat="42.80771" lon="1.89263">
        <ele>1201</ele>
        <time>2024-06-30T08:49:38Z</time>
      </trkpt>
      <trkpt lat="42.80781" lon="1.89265">
        <ele>1200</ele>
        <time>2024-06-30T08:49:39Z</time>
      </trkpt>
      <trkpt lat="42.80791" lon="1.89268">
        <ele>1199.4</ele>
        <time>2024-06-30T08:49:40Z</time>
      </trkpt>
      <trkpt lat="42.80801" lon="1.89269">
        <ele>1198.4</ele>
        <time>2024-06-30T08:49:41Z</time>
      </trkpt>
      <trkpt lat="42.80811" lon="1.89269">
        <ele>1198.2</ele>
        <time>2024-06-30T08:49:42Z</time>
      </trkpt>
      <trkpt lat="42.80821" lon="1.89268">
        <ele>1197</ele>
        <time>2024-06-30T08:49:43Z</time>
      </trkpt>
      <trkpt lat="42.80831" lon="1.89265">
        <ele>1196.2</ele>
        <time>2024-06-30T08:49:44Z</time>
      </trkpt>
      <trkpt lat="42.80841" lon="1.89261">
        <ele>1195.2</ele>
        <time>2024-06-30T08:49:45Z</time>
      </trkpt>
      <trkpt lat="42.80861" lon="1.89249">
        <ele>1194.2</ele>
        <time>2024-06-30T08:49:47Z</time>
      </trkpt>
      <trkpt lat="42.80893" lon="1.89235">
        <ele>1192.6</ele>
        <time>2024-06-30T08:49:50Z</time>
      </trkpt>
      <trkpt lat="42.80902" lon="1.89235">
        <ele>1192.2</ele>
        <time>2024-06-30T08:49:51Z</time>
      </trkpt>
      <trkpt lat="42.80909" lon="1.89238">
        <ele>1191</ele>
        <time>2024-06-30T08:49:52Z</time>
      </trkpt>
      <trkpt lat="42.80919" lon="1.8924">
        <ele>1190</ele>
        <time>2024-06-30T08:49:53Z</time>
      </trkpt>
      <trkpt lat="42.80929" lon="1.89241">
        <ele>1189</ele>
        <time>2024-06-30T08:49:54Z</time>
      </trkpt>
      <trkpt lat="42.80942" lon="1.8924">
        <ele>1188</ele>
        <time>2024-06-30T08:49:55Z</time>
      </trkpt>
      <trkpt lat="42.80963" lon="1.89237">
        <ele>1186.4</ele>
        <time>2024-06-30T08:49:57Z</time>
      </trkpt>
      <trkpt lat="42.80984" lon="1.89234">
        <ele>1183</ele>
        <time>2024-06-30T08:49:59Z</time>
      </trkpt>
      <trkpt lat="42.80995" lon="1.89232">
        <ele>1181.4</ele>
        <time>2024-06-30T08:50:00Z</time>
      </trkpt>
      <trkpt lat="42.81002" lon="1.89229">
        <ele>1180.6</ele>
        <time>2024-06-30T08:50:01Z</time>
      </trkpt>
      <trkpt lat="42.81009" lon="1.89225">
        <ele>1179</ele>
        <time>2024-06-30T08:50:02Z</time>
      </trkpt>
      <trkpt lat="42.81016" lon="1.8922">
        <ele>1178.2</ele>
        <time>2024-06-30T08:50:03Z</time>
      </trkpt>
      <trkpt lat="42.8102" lon="1.89214">
        <ele>1176.2</ele>
        <time>2024-06-30T08:50:04Z</time>
      </trkpt>
      <trkpt lat="42.81024" lon="1.89205">
        <ele>1174.8</ele>
        <time>2024-06-30T08:50:05Z</time>
      </trkpt>
      <trkpt lat="42.81027" lon="1.89196">
        <ele>1173</ele>
        <time>2024-06-30T08:50:06Z</time>
      </trkpt>
      <trkpt lat="42.81028" lon="1.89186">
        <ele>1171.4</ele>
        <time>2024-06-30T08:50:07Z</time>
      </trkpt>
      <trkpt lat="42.81029" lon="1.89176">
        <ele>1170.8</ele>
        <time>2024-06-30T08:50:08Z</time>
      </trkpt>
      <trkpt lat="42.8103" lon="1.89165">
        <ele>1169.8</ele>
        <time>2024-06-30T08:50:09Z</time>
      </trkpt>
      <trkpt lat="42.81031" lon="1.89157">
        <ele>1168.8</ele>
        <time>2024-06-30T08:50:10Z</time>
      </trkpt>
      <trkpt lat="42.81032" lon="1.89148">
        <ele>1167.4</ele>
        <time>2024-06-30T08:50:11Z</time>
      </trkpt>
      <trkpt lat="42.81033" lon="1.89138">
        <ele>1167.2</ele>
        <time>2024-06-30T08:50:12Z</time>
      </trkpt>
      <trkpt lat="42.81035" lon="1.8913">
        <ele>1166.6</ele>
        <time>2024-06-30T08:50:13Z</time>
      </trkpt>
      <trkpt lat="42.81037" lon="1.89122">
        <ele>1166.4</ele>
        <time>2024-06-30T08:50:14Z</time>
      </trkpt>
      <trkpt lat="42.81039" lon="1.89117">
        <ele>1166.2</ele>
        <time>2024-06-30T08:50:15Z</time>
      </trkpt>
      <trkpt lat="42.81042" lon="1.89111">
        <ele>1165.4</ele>
        <time>2024-06-30T08:50:16Z</time>
      </trkpt>
      <trkpt lat="42.81045" lon="1.89108">
        <ele>1165</ele>
        <time>2024-06-30T08:50:17Z</time>
      </trkpt>
      <trkpt lat="42.81049" lon="1.89108">
        <ele>1164.8</ele>
        <time>2024-06-30T08:50:18Z</time>
      </trkpt>
      <trkpt lat="42.81052" lon="1.8911">
        <ele>1164.8</ele>
        <time>2024-06-30T08:50:19Z</time>
      </trkpt>
      <trkpt lat="42.81056" lon="1.89112">
        <ele>1164.4</ele>
        <time>2024-06-30T08:50:20Z</time>
      </trkpt>
      <trkpt lat="42.8106" lon="1.89116">
        <ele>1164.2</ele>
        <time>2024-06-30T08:50:21Z</time>
      </trkpt>
      <trkpt lat="42.81064" lon="1.89119">
        <ele>1164</ele>
        <time>2024-06-30T08:50:22Z</time>
      </trkpt>
      <trkpt lat="42.81068" lon="1.89122">
        <ele>1164</ele>
        <time>2024-06-30T08:50:23Z</time>
      </trkpt>
      <trkpt lat="42.81075" lon="1.89125">
        <ele>1163.4</ele>
        <time>2024-06-30T08:50:25Z</time>
      </trkpt>
      <trkpt lat="42.81079" lon="1.89126">
        <ele>1163.2</ele>
        <time>2024-06-30T08:50:26Z</time>
      </trkpt>
      <trkpt lat="42.81084" lon="1.89126">
        <ele>1163</ele>
        <time>2024-06-30T08:50:27Z</time>
      </trkpt>
      <trkpt lat="42.81088" lon="1.89126">
        <ele>1163</ele>
        <time>2024-06-30T08:50:28Z</time>
      </trkpt>
      <trkpt lat="42.81091" lon="1.89126">
        <ele>1162.8</ele>
        <time>2024-06-30T08:50:29Z</time>
      </trkpt>
      <trkpt lat="42.81095" lon="1.89126">
        <ele>1162.8</ele>
        <time>2024-06-30T08:50:30Z</time>
      </trkpt>
      <trkpt lat="42.81099" lon="1.89125">
        <ele>1162.6</ele>
        <time>2024-06-30T08:50:31Z</time>
      </trkpt>
      <trkpt lat="42.81102" lon="1.89125">
        <ele>1162.6</ele>
        <time>2024-06-30T08:50:32Z</time>
      </trkpt>
      <trkpt lat="42.81105" lon="1.89124">
        <ele>1162.6</ele>
        <time>2024-06-30T08:50:33Z</time>
      </trkpt>
      <trkpt lat="42.81108" lon="1.89124">
        <ele>1162.6</ele>
        <time>2024-06-30T08:50:34Z</time>
      </trkpt>
      <trkpt lat="42.81111" lon="1.89124">
        <ele>1162.6</ele>
        <time>2024-06-30T08:50:35Z</time>
      </trkpt>
      <trkpt lat="42.81115" lon="1.89123">
        <ele>1162.6</ele>
        <time>2024-06-30T08:50:36Z</time>
      </trkpt>
      <trkpt lat="42.81118" lon="1.89123">
        <ele>1162.6</ele>
        <time>2024-06-30T08:50:37Z</time>
      </trkpt>
      <trkpt lat="42.81121" lon="1.89122">
        <ele>1162.6</ele>
        <time>2024-06-30T08:50:38Z</time>
      </trkpt>
      <trkpt lat="42.81123" lon="1.89123">
        <ele>1162.8</ele>
        <time>2024-06-30T08:50:39Z</time>
      </trkpt>
      <trkpt lat="42.81125" lon="1.89123">
        <ele>1163</ele>
        <time>2024-06-30T08:50:40Z</time>
      </trkpt>
      <trkpt lat="42.81128" lon="1.89123">
        <ele>1163.2</ele>
        <time>2024-06-30T08:50:41Z</time>
      </trkpt>
      <trkpt lat="42.8113" lon="1.89123">
        <ele>1163.4</ele>
        <time>2024-06-30T08:50:42Z</time>
      </trkpt>
      <trkpt lat="42.81132" lon="1.89122">
        <ele>1163.8</ele>
        <time>2024-06-30T08:50:43Z</time>
      </trkpt>
      <trkpt lat="42.81134" lon="1.89122">
        <ele>1163.8</ele>
        <time>2024-06-30T08:50:44Z</time>
      </trkpt>
      <trkpt lat="42.81137" lon="1.8912">
        <ele>1163.8</ele>
        <time>2024-06-30T08:50:45Z</time>
      </trkpt>
      <trkpt lat="42.81138" lon="1.89119">
        <ele>1163.8</ele>
        <time>2024-06-30T08:50:46Z</time>
      </trkpt>
      <trkpt lat="42.8114" lon="1.89118">
        <ele>1164</ele>
        <time>2024-06-30T08:50:47Z</time>
      </trkpt>
      <trkpt lat="42.81142" lon="1.89116">
        <ele>1164</ele>
        <time>2024-06-30T08:50:48Z</time>
      </trkpt>
      <trkpt lat="42.81144" lon="1.89115">
        <ele>1164.2</ele>
        <time>2024-06-30T08:50:49Z</time>
      </trkpt>
      <trkpt lat="42.81146" lon="1.89113">
        <ele>1164.2</ele>
        <time>2024-06-30T08:50:50Z</time>
      </trkpt>
      <trkpt lat="42.81147" lon="1.89112">
        <ele>1164.6</ele>
        <time>2024-06-30T08:50:51Z</time>
      </trkpt>
      <trkpt lat="42.81149" lon="1.89111">
        <ele>1164.6</ele>
        <time>2024-06-30T08:50:52Z</time>
      </trkpt>
      <trkpt lat="42.81151" lon="1.89111">
        <ele>1164.8</ele>
        <time>2024-06-30T08:50:53Z</time>
      </trkpt>
      <trkpt lat="42.81153" lon="1.89111">
        <ele>1164.8</ele>
        <time>2024-06-30T08:50:54Z</time>
      </trkpt>
      <trkpt lat="42.81155" lon="1.89111">
        <ele>1165.2</ele>
        <time>2024-06-30T08:50:55Z</time>
      </trkpt>
      <trkpt lat="42.81156" lon="1.89112">
        <ele>1165.4</ele>
        <time>2024-06-30T08:50:56Z</time>
      </trkpt>
      <trkpt lat="42.81156" lon="1.89112">
        <ele>1165.4</ele>
        <time>2024-06-30T08:50:57Z</time>
      </trkpt>
      <trkpt lat="42.81158" lon="1.89111">
        <ele>1165.4</ele>
        <time>2024-06-30T08:50:58Z</time>
      </trkpt>
      <trkpt lat="42.8116" lon="1.8911">
        <ele>1165.6</ele>
        <time>2024-06-30T08:50:59Z</time>
      </trkpt>
      <trkpt lat="42.81162" lon="1.89109">
        <ele>1166</ele>
        <time>2024-06-30T08:51:00Z</time>
      </trkpt>
      <trkpt lat="42.81165" lon="1.89109">
        <ele>1166.4</ele>
        <time>2024-06-30T08:51:01Z</time>
      </trkpt>
      <trkpt lat="42.81167" lon="1.89108">
        <ele>1166.4</ele>
        <time>2024-06-30T08:51:02Z</time>
      </trkpt>
      <trkpt lat="42.81169" lon="1.89108">
        <ele>1166.4</ele>
        <time>2024-06-30T08:51:03Z</time>
      </trkpt>
      <trkpt lat="42.81177" lon="1.89105">
        <ele>1166.8</ele>
        <time>2024-06-30T08:51:06Z</time>
      </trkpt>
      <trkpt lat="42.8118" lon="1.89104">
        <ele>1167.2</ele>
        <time>2024-06-30T08:51:07Z</time>
      </trkpt>
      <trkpt lat="42.81183" lon="1.89104">
        <ele>1167.4</ele>
        <time>2024-06-30T08:51:08Z</time>
      </trkpt>
      <trkpt lat="42.81186" lon="1.89103">
        <ele>1167.4</ele>
        <time>2024-06-30T08:51:09Z</time>
      </trkpt>
      <trkpt lat="42.81189" lon="1.89103">
        <ele>1167.6</ele>
        <time>2024-06-30T08:51:10Z</time>
      </trkpt>
      <trkpt lat="42.81191" lon="1.89103">
        <ele>1167.8</ele>
        <time>2024-06-30T08:51:11Z</time>
      </trkpt>
      <trkpt lat="42.81194" lon="1.89102">
        <ele>1168</ele>
        <time>2024-06-30T08:51:12Z</time>
      </trkpt>
      <trkpt lat="42.81197" lon="1.89102">
        <ele>1168</ele>
        <time>2024-06-30T08:51:13Z</time>
      </trkpt>
      <trkpt lat="42.812" lon="1.89102">
        <ele>1168.4</ele>
        <time>2024-06-30T08:51:14Z</time>
      </trkpt>
      <trkpt lat="42.81204" lon="1.89102">
        <ele>1168.8</ele>
        <time>2024-06-30T08:51:15Z</time>
      </trkpt>
      <trkpt lat="42.81207" lon="1.89102">
        <ele>1168.8</ele>
        <time>2024-06-30T08:51:16Z</time>
      </trkpt>
      <trkpt lat="42.8121" lon="1.89102">
        <ele>1169</ele>
        <time>2024-06-30T08:51:17Z</time>
      </trkpt>
      <trkpt lat="42.81212" lon="1.89102">
        <ele>1169</ele>
        <time>2024-06-30T08:51:18Z</time>
      </trkpt>
      <trkpt lat="42.81215" lon="1.89102">
        <ele>1169.4</ele>
        <time>2024-06-30T08:51:19Z</time>
      </trkpt>
      <trkpt lat="42.81218" lon="1.89102">
        <ele>1169.4</ele>
        <time>2024-06-30T08:51:20Z</time>
      </trkpt>
      <trkpt lat="42.81222" lon="1.89102">
        <ele>1169.8</ele>
        <time>2024-06-30T08:51:21Z</time>
      </trkpt>
      <trkpt lat="42.81224" lon="1.89102">
        <ele>1170</ele>
        <time>2024-06-30T08:51:22Z</time>
      </trkpt>
      <trkpt lat="42.81227" lon="1.89103">
        <ele>1170.2</ele>
        <time>2024-06-30T08:51:23Z</time>
      </trkpt>
      <trkpt lat="42.8123" lon="1.89103">
        <ele>1170.6</ele>
        <time>2024-06-30T08:51:24Z</time>
      </trkpt>
      <trkpt lat="42.81233" lon="1.89104">
        <ele>1170.8</ele>
        <time>2024-06-30T08:51:25Z</time>
      </trkpt>
      <trkpt lat="42.81236" lon="1.89104">
        <ele>1171.2</ele>
        <time>2024-06-30T08:51:26Z</time>
      </trkpt>
      <trkpt lat="42.81239" lon="1.89104">
        <ele>1171.2</ele>
        <time>2024-06-30T08:51:27Z</time>
      </trkpt>
      <trkpt lat="42.81242" lon="1.89104">
        <ele>1171.4</ele>
        <time>2024-06-30T08:51:28Z</time>
      </trkpt>
      <trkpt lat="42.81245" lon="1.89105">
        <ele>1171.8</ele>
        <time>2024-06-30T08:51:29Z</time>
      </trkpt>
      <trkpt lat="42.81247" lon="1.89105">
        <ele>1172</ele>
        <time>2024-06-30T08:51:30Z</time>
      </trkpt>
      <trkpt lat="42.81251" lon="1.89105">
        <ele>1172.2</ele>
        <time>2024-06-30T08:51:31Z</time>
      </trkpt>
      <trkpt lat="42.81254" lon="1.89106">
        <ele>1172.2</ele>
        <time>2024-06-30T08:51:32Z</time>
      </trkpt>
      <trkpt lat="42.81257" lon="1.89106">
        <ele>1172.6</ele>
        <time>2024-06-30T08:51:33Z</time>
      </trkpt>
      <trkpt lat="42.8126" lon="1.89106">
        <ele>1172.8</ele>
        <time>2024-06-30T08:51:34Z</time>
      </trkpt>
      <trkpt lat="42.81262" lon="1.89107">
        <ele>1173</ele>
        <time>2024-06-30T08:51:35Z</time>
      </trkpt>
      <trkpt lat="42.81266" lon="1.89107">
        <ele>1173.4</ele>
        <time>2024-06-30T08:51:36Z</time>
      </trkpt>
      <trkpt lat="42.81268" lon="1.89108">
        <ele>1173.6</ele>
        <time>2024-06-30T08:51:37Z</time>
      </trkpt>
      <trkpt lat="42.81272" lon="1.89108">
        <ele>1173.8</ele>
        <time>2024-06-30T08:51:38Z</time>
      </trkpt>
      <trkpt lat="42.81275" lon="1.89107">
        <ele>1174</ele>
        <time>2024-06-30T08:51:39Z</time>
      </trkpt>
      <trkpt lat="42.81277" lon="1.89107">
        <ele>1174.2</ele>
        <time>2024-06-30T08:51:40Z</time>
      </trkpt>
      <trkpt lat="42.8128" lon="1.89108">
        <ele>1174.4</ele>
        <time>2024-06-30T08:51:41Z</time>
      </trkpt>
      <trkpt lat="42.81282" lon="1.89108">
        <ele>1174.6</ele>
        <time>2024-06-30T08:51:42Z</time>
      </trkpt>
      <trkpt lat="42.81285" lon="1.89109">
        <ele>1175</ele>
        <time>2024-06-30T08:51:43Z</time>
      </trkpt>
      <trkpt lat="42.81288" lon="1.89111">
        <ele>1175.2</ele>
        <time>2024-06-30T08:51:44Z</time>
      </trkpt>
      <trkpt lat="42.8129" lon="1.89112">
        <ele>1175.4</ele>
        <time>2024-06-30T08:51:45Z</time>
      </trkpt>
      <trkpt lat="42.81292" lon="1.89114">
        <ele>1175.6</ele>
        <time>2024-06-30T08:51:46Z</time>
      </trkpt>
      <trkpt lat="42.81294" lon="1.89117">
        <ele>1175.8</ele>
        <time>2024-06-30T08:51:47Z</time>
      </trkpt>
      <trkpt lat="42.81296" lon="1.8912">
        <ele>1176</ele>
        <time>2024-06-30T08:51:48Z</time>
      </trkpt>
      <trkpt lat="42.81298" lon="1.89122">
        <ele>1176.2</ele>
        <time>2024-06-30T08:51:49Z</time>
      </trkpt>
      <trkpt lat="42.81301" lon="1.89125">
        <ele>1176.4</ele>
        <time>2024-06-30T08:51:50Z</time>
      </trkpt>
      <trkpt lat="42.81302" lon="1.89127">
        <ele>1176.4</ele>
        <time>2024-06-30T08:51:51Z</time>
      </trkpt>
      <trkpt lat="42.81304" lon="1.89129">
        <ele>1177</ele>
        <time>2024-06-30T08:51:52Z</time>
      </trkpt>
      <trkpt lat="42.81306" lon="1.89131">
        <ele>1177</ele>
        <time>2024-06-30T08:51:53Z</time>
      </trkpt>
      <trkpt lat="42.81308" lon="1.89133">
        <ele>1177.4</ele>
        <time>2024-06-30T08:51:54Z</time>
      </trkpt>
      <trkpt lat="42.8131" lon="1.89136">
        <ele>1177.4</ele>
        <time>2024-06-30T08:51:55Z</time>
      </trkpt>
      <trkpt lat="42.81313" lon="1.89139">
        <ele>1177.8</ele>
        <time>2024-06-30T08:51:56Z</time>
      </trkpt>
      <trkpt lat="42.81315" lon="1.89142">
        <ele>1178.2</ele>
        <time>2024-06-30T08:51:57Z</time>
      </trkpt>
      <trkpt lat="42.81318" lon="1.89144">
        <ele>1178.4</ele>
        <time>2024-06-30T08:51:58Z</time>
      </trkpt>
      <trkpt lat="42.8132" lon="1.89147">
        <ele>1178.8</ele>
        <time>2024-06-30T08:51:59Z</time>
      </trkpt>
      <trkpt lat="42.81322" lon="1.89149">
        <ele>1179</ele>
        <time>2024-06-30T08:52:00Z</time>
      </trkpt>
      <trkpt lat="42.81325" lon="1.89151">
        <ele>1179.2</ele>
        <time>2024-06-30T08:52:01Z</time>
      </trkpt>
      <trkpt lat="42.81327" lon="1.89152">
        <ele>1179.4</ele>
        <time>2024-06-30T08:52:02Z</time>
      </trkpt>
      <trkpt lat="42.81331" lon="1.89154">
        <ele>1179.6</ele>
        <time>2024-06-30T08:52:03Z</time>
      </trkpt>
      <trkpt lat="42.81333" lon="1.89155">
        <ele>1179.8</ele>
        <time>2024-06-30T08:52:04Z</time>
      </trkpt>
      <trkpt lat="42.81335" lon="1.89156">
        <ele>1180</ele>
        <time>2024-06-30T08:52:05Z</time>
      </trkpt>
      <trkpt lat="42.81339" lon="1.89158">
        <ele>1180.4</ele>
        <time>2024-06-30T08:52:06Z</time>
      </trkpt>
      <trkpt lat="42.81341" lon="1.89159">
        <ele>1180.6</ele>
        <time>2024-06-30T08:52:07Z</time>
      </trkpt>
      <trkpt lat="42.81344" lon="1.8916">
        <ele>1180.8</ele>
        <time>2024-06-30T08:52:08Z</time>
      </trkpt>
      <trkpt lat="42.81346" lon="1.89161">
        <ele>1180.8</ele>
        <time>2024-06-30T08:52:09Z</time>
      </trkpt>
      <trkpt lat="42.81348" lon="1.89162">
        <ele>1181</ele>
        <time>2024-06-30T08:52:10Z</time>
      </trkpt>
      <trkpt lat="42.81351" lon="1.89163">
        <ele>1181.6</ele>
        <time>2024-06-30T08:52:11Z</time>
      </trkpt>
      <trkpt lat="42.81354" lon="1.89164">
        <ele>1181.8</ele>
        <time>2024-06-30T08:52:12Z</time>
      </trkpt>
      <trkpt lat="42.81357" lon="1.89164">
        <ele>1182</ele>
        <time>2024-06-30T08:52:13Z</time>
      </trkpt>
      <trkpt lat="42.81359" lon="1.89165">
        <ele>1182.2</ele>
        <time>2024-06-30T08:52:14Z</time>
      </trkpt>
      <trkpt lat="42.81362" lon="1.89165">
        <ele>1182.6</ele>
        <time>2024-06-30T08:52:15Z</time>
      </trkpt>
      <trkpt lat="42.81365" lon="1.89165">
        <ele>1182.8</ele>
        <time>2024-06-30T08:52:16Z</time>
      </trkpt>
      <trkpt lat="42.81367" lon="1.89166">
        <ele>1183</ele>
        <time>2024-06-30T08:52:17Z</time>
      </trkpt>
      <trkpt lat="42.81369" lon="1.89166">
        <ele>1183.2</ele>
        <time>2024-06-30T08:52:18Z</time>
      </trkpt>
      <trkpt lat="42.81372" lon="1.89166">
        <ele>1183.4</ele>
        <time>2024-06-30T08:52:19Z</time>
      </trkpt>
      <trkpt lat="42.81375" lon="1.89166">
        <ele>1183.8</ele>
        <time>2024-06-30T08:52:20Z</time>
      </trkpt>
      <trkpt lat="42.81377" lon="1.89166">
        <ele>1184</ele>
        <time>2024-06-30T08:52:21Z</time>
      </trkpt>
      <trkpt lat="42.8138" lon="1.89166">
        <ele>1184.2</ele>
        <time>2024-06-30T08:52:22Z</time>
      </trkpt>
      <trkpt lat="42.81383" lon="1.89165">
        <ele>1184.4</ele>
        <time>2024-06-30T08:52:23Z</time>
      </trkpt>
      <trkpt lat="42.81385" lon="1.89165">
        <ele>1184.6</ele>
        <time>2024-06-30T08:52:24Z</time>
      </trkpt>
      <trkpt lat="42.81387" lon="1.89165">
        <ele>1184.8</ele>
        <time>2024-06-30T08:52:25Z</time>
      </trkpt>
      <trkpt lat="42.8139" lon="1.89164">
        <ele>1185</ele>
        <time>2024-06-30T08:52:26Z</time>
      </trkpt>
      <trkpt lat="42.81392" lon="1.89163">
        <ele>1185.4</ele>
        <time>2024-06-30T08:52:27Z</time>
      </trkpt>
      <trkpt lat="42.81394" lon="1.89162">
        <ele>1185.6</ele>
        <time>2024-06-30T08:52:28Z</time>
      </trkpt>
      <trkpt lat="42.81396" lon="1.89161">
        <ele>1186</ele>
        <time>2024-06-30T08:52:29Z</time>
      </trkpt>
      <trkpt lat="42.81399" lon="1.89159">
        <ele>1186.2</ele>
        <time>2024-06-30T08:52:30Z</time>
      </trkpt>
      <trkpt lat="42.81401" lon="1.89158">
        <ele>1186.4</ele>
        <time>2024-06-30T08:52:31Z</time>
      </trkpt>
      <trkpt lat="42.81403" lon="1.89157">
        <ele>1186.6</ele>
        <time>2024-06-30T08:52:32Z</time>
      </trkpt>
      <trkpt lat="42.81405" lon="1.89155">
        <ele>1186.8</ele>
        <time>2024-06-30T08:52:33Z</time>
      </trkpt>
      <trkpt lat="42.81407" lon="1.89154">
        <ele>1187.4</ele>
        <time>2024-06-30T08:52:34Z</time>
      </trkpt>
      <trkpt lat="42.81409" lon="1.89154">
        <ele>1187.2</ele>
        <time>2024-06-30T08:52:35Z</time>
      </trkpt>
      <trkpt lat="42.81411" lon="1.89152">
        <ele>1187.8</ele>
        <time>2024-06-30T08:52:36Z</time>
      </trkpt>
      <trkpt lat="42.81413" lon="1.89151">
        <ele>1187.8</ele>
        <time>2024-06-30T08:52:37Z</time>
      </trkpt>
      <trkpt lat="42.81415" lon="1.89149">
        <ele>1188</ele>
        <time>2024-06-30T08:52:38Z</time>
      </trkpt>
      <trkpt lat="42.81417" lon="1.89147">
        <ele>1188.2</ele>
        <time>2024-06-30T08:52:39Z</time>
      </trkpt>
      <trkpt lat="42.81419" lon="1.89145">
        <ele>1188.8</ele>
        <time>2024-06-30T08:52:40Z</time>
      </trkpt>
      <trkpt lat="42.81421" lon="1.89143">
        <ele>1189</ele>
        <time>2024-06-30T08:52:41Z</time>
      </trkpt>
      <trkpt lat="42.81422" lon="1.89141">
        <ele>1189.2</ele>
        <time>2024-06-30T08:52:42Z</time>
      </trkpt>
      <trkpt lat="42.81424" lon="1.8914">
        <ele>1189.4</ele>
        <time>2024-06-30T08:52:43Z</time>
      </trkpt>
      <trkpt lat="42.81426" lon="1.8914">
        <ele>1189.6</ele>
        <time>2024-06-30T08:52:44Z</time>
      </trkpt>
      <trkpt lat="42.81428" lon="1.89141">
        <ele>1189.8</ele>
        <time>2024-06-30T08:52:45Z</time>
      </trkpt>
      <trkpt lat="42.8143" lon="1.89143">
        <ele>1190</ele>
        <time>2024-06-30T08:52:46Z</time>
      </trkpt>
      <trkpt lat="42.81432" lon="1.89145">
        <ele>1190.2</ele>
        <time>2024-06-30T08:52:47Z</time>
      </trkpt>
      <trkpt lat="42.81434" lon="1.89146">
        <ele>1190.2</ele>
        <time>2024-06-30T08:52:48Z</time>
      </trkpt>
      <trkpt lat="42.81436" lon="1.89148">
        <ele>1190.6</ele>
        <time>2024-06-30T08:52:49Z</time>
      </trkpt>
      <trkpt lat="42.81438" lon="1.89149">
        <ele>1190.8</ele>
        <time>2024-06-30T08:52:50Z</time>
      </trkpt>
      <trkpt lat="42.8144" lon="1.8915">
        <ele>1190.6</ele>
        <time>2024-06-30T08:52:51Z</time>
      </trkpt>
      <trkpt lat="42.81443" lon="1.89152">
        <ele>1190.8</ele>
        <time>2024-06-30T08:52:52Z</time>
      </trkpt>
      <trkpt lat="42.81445" lon="1.89153">
        <ele>1191.2</ele>
        <time>2024-06-30T08:52:53Z</time>
      </trkpt>
      <trkpt lat="42.81447" lon="1.89154">
        <ele>1191.4</ele>
        <time>2024-06-30T08:52:54Z</time>
      </trkpt>
      <trkpt lat="42.81449" lon="1.89156">
        <ele>1191.6</ele>
        <time>2024-06-30T08:52:55Z</time>
      </trkpt>
      <trkpt lat="42.81451" lon="1.89157">
        <ele>1191.8</ele>
        <time>2024-06-30T08:52:56Z</time>
      </trkpt>
      <trkpt lat="42.81453" lon="1.89159">
        <ele>1192.2</ele>
        <time>2024-06-30T08:52:57Z</time>
      </trkpt>
      <trkpt lat="42.81454" lon="1.8916">
        <ele>1192.4</ele>
        <time>2024-06-30T08:52:58Z</time>
      </trkpt>
      <trkpt lat="42.81456" lon="1.89161">
        <ele>1192.8</ele>
        <time>2024-06-30T08:52:59Z</time>
      </trkpt>
      <trkpt lat="42.81458" lon="1.89163">
        <ele>1193</ele>
        <time>2024-06-30T08:53:00Z</time>
      </trkpt>
      <trkpt lat="42.8146" lon="1.89165">
        <ele>1193.2</ele>
        <time>2024-06-30T08:53:01Z</time>
      </trkpt>
      <trkpt lat="42.81461" lon="1.89167">
        <ele>1193.6</ele>
        <time>2024-06-30T08:53:02Z</time>
      </trkpt>
      <trkpt lat="42.81463" lon="1.89169">
        <ele>1193.8</ele>
        <time>2024-06-30T08:53:03Z</time>
      </trkpt>
      <trkpt lat="42.81464" lon="1.8917">
        <ele>1194.4</ele>
        <time>2024-06-30T08:53:04Z</time>
      </trkpt>
      <trkpt lat="42.81465" lon="1.89172">
        <ele>1194.6</ele>
        <time>2024-06-30T08:53:05Z</time>
      </trkpt>
      <trkpt lat="42.81466" lon="1.89173">
        <ele>1194.8</ele>
        <time>2024-06-30T08:53:06Z</time>
      </trkpt>
      <trkpt lat="42.81468" lon="1.89174">
        <ele>1195</ele>
        <time>2024-06-30T08:53:07Z</time>
      </trkpt>
      <trkpt lat="42.81469" lon="1.89175">
        <ele>1195.4</ele>
        <time>2024-06-30T08:53:08Z</time>
      </trkpt>
      <trkpt lat="42.81471" lon="1.89176">
        <ele>1195.8</ele>
        <time>2024-06-30T08:53:09Z</time>
      </trkpt>
      <trkpt lat="42.81473" lon="1.89177">
        <ele>1196</ele>
        <time>2024-06-30T08:53:10Z</time>
      </trkpt>
      <trkpt lat="42.81474" lon="1.89178">
        <ele>1196.2</ele>
        <time>2024-06-30T08:53:11Z</time>
      </trkpt>
      <trkpt lat="42.81476" lon="1.8918">
        <ele>1196.4</ele>
        <time>2024-06-30T08:53:12Z</time>
      </trkpt>
      <trkpt lat="42.81478" lon="1.89181">
        <ele>1196.8</ele>
        <time>2024-06-30T08:53:13Z</time>
      </trkpt>
      <trkpt lat="42.8148" lon="1.89182">
        <ele>1197</ele>
        <time>2024-06-30T08:53:14Z</time>
      </trkpt>
      <trkpt lat="42.81483" lon="1.89183">
        <ele>1197.4</ele>
        <time>2024-06-30T08:53:15Z</time>
      </trkpt>
      <trkpt lat="42.81485" lon="1.89185">
        <ele>1197.4</ele>
        <time>2024-06-30T08:53:16Z</time>
      </trkpt>
      <trkpt lat="42.81487" lon="1.89186">
        <ele>1197.8</ele>
        <time>2024-06-30T08:53:17Z</time>
      </trkpt>
      <trkpt lat="42.81489" lon="1.89188">
        <ele>1197.8</ele>
        <time>2024-06-30T08:53:18Z</time>
      </trkpt>
      <trkpt lat="42.81491" lon="1.89189">
        <ele>1198</ele>
        <time>2024-06-30T08:53:19Z</time>
      </trkpt>
      <trkpt lat="42.81493" lon="1.89191">
        <ele>1198.4</ele>
        <time>2024-06-30T08:53:20Z</time>
      </trkpt>
      <trkpt lat="42.81495" lon="1.89195">
        <ele>1198.8</ele>
        <time>2024-06-30T08:53:21Z</time>
      </trkpt>
      <trkpt lat="42.81497" lon="1.89197">
        <ele>1199.2</ele>
        <time>2024-06-30T08:53:22Z</time>
      </trkpt>
      <trkpt lat="42.815" lon="1.89199">
        <ele>1199.4</ele>
        <time>2024-06-30T08:53:23Z</time>
      </trkpt>
      <trkpt lat="42.81501" lon="1.89201">
        <ele>1200</ele>
        <time>2024-06-30T08:53:24Z</time>
      </trkpt>
      <trkpt lat="42.81504" lon="1.89203">
        <ele>1200.6</ele>
        <time>2024-06-30T08:53:25Z</time>
      </trkpt>
      <trkpt lat="42.81506" lon="1.89205">
        <ele>1200.8</ele>
        <time>2024-06-30T08:53:26Z</time>
      </trkpt>
      <trkpt lat="42.81508" lon="1.89206">
        <ele>1201.4</ele>
        <time>2024-06-30T08:53:27Z</time>
      </trkpt>
      <trkpt lat="42.8151" lon="1.89208">
        <ele>1201.6</ele>
        <time>2024-06-30T08:53:28Z</time>
      </trkpt>
      <trkpt lat="42.81513" lon="1.89211">
        <ele>1202.2</ele>
        <time>2024-06-30T08:53:29Z</time>
      </trkpt>
      <trkpt lat="42.81515" lon="1.89213">
        <ele>1202.8</ele>
        <time>2024-06-30T08:53:30Z</time>
      </trkpt>
      <trkpt lat="42.81518" lon="1.89215">
        <ele>1203.2</ele>
        <time>2024-06-30T08:53:31Z</time>
      </trkpt>
      <trkpt lat="42.81519" lon="1.89217">
        <ele>1203.6</ele>
        <time>2024-06-30T08:53:32Z</time>
      </trkpt>
      <trkpt lat="42.8152" lon="1.8922">
        <ele>1203.8</ele>
        <time>2024-06-30T08:53:33Z</time>
      </trkpt>
      <trkpt lat="42.81522" lon="1.89223">
        <ele>1204.2</ele>
        <time>2024-06-30T08:53:34Z</time>
      </trkpt>
      <trkpt lat="42.81525" lon="1.89225">
        <ele>1204.4</ele>
        <time>2024-06-30T08:53:35Z</time>
      </trkpt>
      <trkpt lat="42.81527" lon="1.89227">
        <ele>1204.8</ele>
        <time>2024-06-30T08:53:36Z</time>
      </trkpt>
      <trkpt lat="42.81529" lon="1.8923">
        <ele>1205.6</ele>
        <time>2024-06-30T08:53:37Z</time>
      </trkpt>
      <trkpt lat="42.81531" lon="1.89232">
        <ele>1205.8</ele>
        <time>2024-06-30T08:53:38Z</time>
      </trkpt>
      <trkpt lat="42.81532" lon="1.89234">
        <ele>1206.4</ele>
        <time>2024-06-30T08:53:39Z</time>
      </trkpt>
      <trkpt lat="42.81534" lon="1.89237">
        <ele>1206.6</ele>
        <time>2024-06-30T08:53:40Z</time>
      </trkpt>
      <trkpt lat="42.81535" lon="1.89238">
        <ele>1207.2</ele>
        <time>2024-06-30T08:53:41Z</time>
      </trkpt>
      <trkpt lat="42.81538" lon="1.89241">
        <ele>1207.4</ele>
        <time>2024-06-30T08:53:42Z</time>
      </trkpt>
      <trkpt lat="42.8154" lon="1.89243">
        <ele>1207.8</ele>
        <time>2024-06-30T08:53:43Z</time>
      </trkpt>
      <trkpt lat="42.81542" lon="1.89245">
        <ele>1208.2</ele>
        <time>2024-06-30T08:53:44Z</time>
      </trkpt>
      <trkpt lat="42.81543" lon="1.89247">
        <ele>1208.6</ele>
        <time>2024-06-30T08:53:45Z</time>
      </trkpt>
      <trkpt lat="42.81545" lon="1.8925">
        <ele>1209</ele>
        <time>2024-06-30T08:53:46Z</time>
      </trkpt>
      <trkpt lat="42.81546" lon="1.89251">
        <ele>1209.4</ele>
        <time>2024-06-30T08:53:47Z</time>
      </trkpt>
      <trkpt lat="42.81547" lon="1.89254">
        <ele>1209.8</ele>
        <time>2024-06-30T08:53:48Z</time>
      </trkpt>
      <trkpt lat="42.81548" lon="1.89256">
        <ele>1210</ele>
        <time>2024-06-30T08:53:49Z</time>
      </trkpt>
      <trkpt lat="42.81549" lon="1.89259">
        <ele>1210.4</ele>
        <time>2024-06-30T08:53:50Z</time>
      </trkpt>
      <trkpt lat="42.81549" lon="1.89261">
        <ele>1210.6</ele>
        <time>2024-06-30T08:53:51Z</time>
      </trkpt>
      <trkpt lat="42.81548" lon="1.89263">
        <ele>1211.4</ele>
        <time>2024-06-30T08:53:52Z</time>
      </trkpt>
      <trkpt lat="42.81547" lon="1.89265">
        <ele>1212.2</ele>
        <time>2024-06-30T08:53:53Z</time>
      </trkpt>
      <trkpt lat="42.81544" lon="1.89266">
        <ele>1212.6</ele>
        <time>2024-06-30T08:53:54Z</time>
      </trkpt>
      <trkpt lat="42.81541" lon="1.89266">
        <ele>1213.2</ele>
        <time>2024-06-30T08:53:55Z</time>
      </trkpt>
      <trkpt lat="42.81539" lon="1.89265">
        <ele>1213.4</ele>
        <time>2024-06-30T08:53:56Z</time>
      </trkpt>
      <trkpt lat="42.81536" lon="1.89264">
        <ele>1213.8</ele>
        <time>2024-06-30T08:53:57Z</time>
      </trkpt>
      <trkpt lat="42.81533" lon="1.89263">
        <ele>1214.2</ele>
        <time>2024-06-30T08:53:58Z</time>
      </trkpt>
      <trkpt lat="42.81531" lon="1.89263">
        <ele>1214.8</ele>
        <time>2024-06-30T08:53:59Z</time>
      </trkpt>
      <trkpt lat="42.81528" lon="1.89262">
        <ele>1215.4</ele>
        <time>2024-06-30T08:54:00Z</time>
      </trkpt>
      <trkpt lat="42.81526" lon="1.89262">
        <ele>1215.8</ele>
        <time>2024-06-30T08:54:01Z</time>
      </trkpt>
      <trkpt lat="42.81522" lon="1.89262">
        <ele>1216.2</ele>
        <time>2024-06-30T08:54:02Z</time>
      </trkpt>
      <trkpt lat="42.81519" lon="1.89261">
        <ele>1216.4</ele>
        <time>2024-06-30T08:54:03Z</time>
      </trkpt>
      <trkpt lat="42.81516" lon="1.89261">
        <ele>1216.6</ele>
        <time>2024-06-30T08:54:04Z</time>
      </trkpt>
      <trkpt lat="42.81513" lon="1.89261">
        <ele>1216.8</ele>
        <time>2024-06-30T08:54:05Z</time>
      </trkpt>
      <trkpt lat="42.8151" lon="1.89261">
        <ele>1217.2</ele>
        <time>2024-06-30T08:54:06Z</time>
      </trkpt>
      <trkpt lat="42.81507" lon="1.8926">
        <ele>1217.4</ele>
        <time>2024-06-30T08:54:07Z</time>
      </trkpt>
      <trkpt lat="42.81504" lon="1.8926">
        <ele>1217.6</ele>
        <time>2024-06-30T08:54:08Z</time>
      </trkpt>
      <trkpt lat="42.81501" lon="1.8926">
        <ele>1217.8</ele>
        <time>2024-06-30T08:54:09Z</time>
      </trkpt>
      <trkpt lat="42.81497" lon="1.8926">
        <ele>1217.8</ele>
        <time>2024-06-30T08:54:10Z</time>
      </trkpt>
      <trkpt lat="42.81495" lon="1.89261">
        <ele>1218</ele>
        <time>2024-06-30T08:54:11Z</time>
      </trkpt>
      <trkpt lat="42.81492" lon="1.89262">
        <ele>1218.2</ele>
        <time>2024-06-30T08:54:12Z</time>
      </trkpt>
      <trkpt lat="42.8149" lon="1.89263">
        <ele>1218.6</ele>
        <time>2024-06-30T08:54:13Z</time>
      </trkpt>
      <trkpt lat="42.81487" lon="1.89264">
        <ele>1218.8</ele>
        <time>2024-06-30T08:54:14Z</time>
      </trkpt>
      <trkpt lat="42.81485" lon="1.89266">
        <ele>1218.8</ele>
        <time>2024-06-30T08:54:15Z</time>
      </trkpt>
      <trkpt lat="42.81483" lon="1.89269">
        <ele>1219</ele>
        <time>2024-06-30T08:54:16Z</time>
      </trkpt>
      <trkpt lat="42.81481" lon="1.89272">
        <ele>1219.2</ele>
        <time>2024-06-30T08:54:17Z</time>
      </trkpt>
      <trkpt lat="42.8148" lon="1.89275">
        <ele>1219.6</ele>
        <time>2024-06-30T08:54:18Z</time>
      </trkpt>
      <trkpt lat="42.81478" lon="1.89279">
        <ele>1219.8</ele>
        <time>2024-06-30T08:54:19Z</time>
      </trkpt>
      <trkpt lat="42.81478" lon="1.89282">
        <ele>1220</ele>
        <time>2024-06-30T08:54:20Z</time>
      </trkpt>
      <trkpt lat="42.81477" lon="1.89285">
        <ele>1220.4</ele>
        <time>2024-06-30T08:54:21Z</time>
      </trkpt>
      <trkpt lat="42.81477" lon="1.89289">
        <ele>1220.4</ele>
        <time>2024-06-30T08:54:22Z</time>
      </trkpt>
      <trkpt lat="42.81477" lon="1.89292">
        <ele>1220.8</ele>
        <time>2024-06-30T08:54:23Z</time>
      </trkpt>
      <trkpt lat="42.81477" lon="1.89296">
        <ele>1221</ele>
        <time>2024-06-30T08:54:24Z</time>
      </trkpt>
      <trkpt lat="42.81477" lon="1.893">
        <ele>1221</ele>
        <time>2024-06-30T08:54:25Z</time>
      </trkpt>
      <trkpt lat="42.81477" lon="1.89304">
        <ele>1221.2</ele>
        <time>2024-06-30T08:54:26Z</time>
      </trkpt>
      <trkpt lat="42.81478" lon="1.89308">
        <ele>1221.8</ele>
        <time>2024-06-30T08:54:27Z</time>
      </trkpt>
      <trkpt lat="42.81477" lon="1.89311">
        <ele>1222.6</ele>
        <time>2024-06-30T08:54:28Z</time>
      </trkpt>
      <trkpt lat="42.81477" lon="1.89314">
        <ele>1223.2</ele>
        <time>2024-06-30T08:54:29Z</time>
      </trkpt>
      <trkpt lat="42.81477" lon="1.89317">
        <ele>1223.6</ele>
        <time>2024-06-30T08:54:30Z</time>
      </trkpt>
      <trkpt lat="42.81478" lon="1.8932">
        <ele>1223.8</ele>
        <time>2024-06-30T08:54:31Z</time>
      </trkpt>
      <trkpt lat="42.81478" lon="1.89323">
        <ele>1224.2</ele>
        <time>2024-06-30T08:54:32Z</time>
      </trkpt>
      <trkpt lat="42.81478" lon="1.89325">
        <ele>1224.4</ele>
        <time>2024-06-30T08:54:33Z</time>
      </trkpt>
      <trkpt lat="42.81479" lon="1.89327">
        <ele>1224.8</ele>
        <time>2024-06-30T08:54:34Z</time>
      </trkpt>
      <trkpt lat="42.81481" lon="1.89329">
        <ele>1225.2</ele>
        <time>2024-06-30T08:54:35Z</time>
      </trkpt>
      <trkpt lat="42.81483" lon="1.8933">
        <ele>1225.4</ele>
        <time>2024-06-30T08:54:36Z</time>
      </trkpt>
      <trkpt lat="42.81485" lon="1.8933">
        <ele>1226</ele>
        <time>2024-06-30T08:54:37Z</time>
      </trkpt>
      <trkpt lat="42.81487" lon="1.8933">
        <ele>1226.4</ele>
        <time>2024-06-30T08:54:38Z</time>
      </trkpt>
      <trkpt lat="42.81489" lon="1.8933">
        <ele>1227</ele>
        <time>2024-06-30T08:54:39Z</time>
      </trkpt>
      <trkpt lat="42.81491" lon="1.89329">
        <ele>1227.4</ele>
        <time>2024-06-30T08:54:40Z</time>
      </trkpt>
      <trkpt lat="42.81493" lon="1.89329">
        <ele>1227.6</ele>
        <time>2024-06-30T08:54:41Z</time>
      </trkpt>
      <trkpt lat="42.81495" lon="1.89328">
        <ele>1227.8</ele>
        <time>2024-06-30T08:54:42Z</time>
      </trkpt>
      <trkpt lat="42.81498" lon="1.89327">
        <ele>1228.2</ele>
        <time>2024-06-30T08:54:43Z</time>
      </trkpt>
      <trkpt lat="42.815" lon="1.89327">
        <ele>1228.8</ele>
        <time>2024-06-30T08:54:44Z</time>
      </trkpt>
      <trkpt lat="42.81503" lon="1.89327">
        <ele>1229</ele>
        <time>2024-06-30T08:54:45Z</time>
      </trkpt>
      <trkpt lat="42.81505" lon="1.89328">
        <ele>1229.4</ele>
        <time>2024-06-30T08:54:46Z</time>
      </trkpt>
      <trkpt lat="42.81507" lon="1.89329">
        <ele>1230</ele>
        <time>2024-06-30T08:54:47Z</time>
      </trkpt>
      <trkpt lat="42.8151" lon="1.8933">
        <ele>1230.8</ele>
        <time>2024-06-30T08:54:48Z</time>
      </trkpt>
      <trkpt lat="42.81512" lon="1.89332">
        <ele>1231</ele>
        <time>2024-06-30T08:54:49Z</time>
      </trkpt>
      <trkpt lat="42.81514" lon="1.89334">
        <ele>1231.6</ele>
        <time>2024-06-30T08:54:50Z</time>
      </trkpt>
      <trkpt lat="42.81515" lon="1.89335">
        <ele>1232</ele>
        <time>2024-06-30T08:54:51Z</time>
      </trkpt>
      <trkpt lat="42.81517" lon="1.89337">
        <ele>1232.2</ele>
        <time>2024-06-30T08:54:52Z</time>
      </trkpt>
      <trkpt lat="42.81519" lon="1.89339">
        <ele>1232.6</ele>
        <time>2024-06-30T08:54:53Z</time>
      </trkpt>
      <trkpt lat="42.8152" lon="1.89341">
        <ele>1232.6</ele>
        <time>2024-06-30T08:54:54Z</time>
      </trkpt>
      <trkpt lat="42.81522" lon="1.89343">
        <ele>1233</ele>
        <time>2024-06-30T08:54:55Z</time>
      </trkpt>
      <trkpt lat="42.81523" lon="1.89345">
        <ele>1233.2</ele>
        <time>2024-06-30T08:54:56Z</time>
      </trkpt>
      <trkpt lat="42.81523" lon="1.89348">
        <ele>1233.4</ele>
        <time>2024-06-30T08:54:57Z</time>
      </trkpt>
      <trkpt lat="42.81523" lon="1.89351">
        <ele>1233.4</ele>
        <time>2024-06-30T08:54:58Z</time>
      </trkpt>
      <trkpt lat="42.81524" lon="1.89354">
        <ele>1233.6</ele>
        <time>2024-06-30T08:54:59Z</time>
      </trkpt>
      <trkpt lat="42.81523" lon="1.89357">
        <ele>1233.8</ele>
        <time>2024-06-30T08:55:00Z</time>
      </trkpt>
      <trkpt lat="42.81523" lon="1.89359">
        <ele>1234</ele>
        <time>2024-06-30T08:55:01Z</time>
      </trkpt>
      <trkpt lat="42.81522" lon="1.89362">
        <ele>1234.6</ele>
        <time>2024-06-30T08:55:02Z</time>
      </trkpt>
      <trkpt lat="42.81521" lon="1.89365">
        <ele>1234.8</ele>
        <time>2024-06-30T08:55:03Z</time>
      </trkpt>
      <trkpt lat="42.8152" lon="1.89368">
        <ele>1235.4</ele>
        <time>2024-06-30T08:55:04Z</time>
      </trkpt>
      <trkpt lat="42.81519" lon="1.8937">
        <ele>1235.6</ele>
        <time>2024-06-30T08:55:05Z</time>
      </trkpt>
      <trkpt lat="42.81518" lon="1.89374">
        <ele>1235.6</ele>
        <time>2024-06-30T08:55:06Z</time>
      </trkpt>
      <trkpt lat="42.81516" lon="1.89376">
        <ele>1236</ele>
        <time>2024-06-30T08:55:07Z</time>
      </trkpt>
      <trkpt lat="42.81515" lon="1.89379">
        <ele>1236</ele>
        <time>2024-06-30T08:55:08Z</time>
      </trkpt>
      <trkpt lat="42.81514" lon="1.89382">
        <ele>1236.6</ele>
        <time>2024-06-30T08:55:09Z</time>
      </trkpt>
      <trkpt lat="42.81513" lon="1.89385">
        <ele>1236.8</ele>
        <time>2024-06-30T08:55:10Z</time>
      </trkpt>
      <trkpt lat="42.81512" lon="1.89387">
        <ele>1237</ele>
        <time>2024-06-30T08:55:11Z</time>
      </trkpt>
      <trkpt lat="42.81511" lon="1.8939">
        <ele>1237.4</ele>
        <time>2024-06-30T08:55:12Z</time>
      </trkpt>
      <trkpt lat="42.8151" lon="1.89393">
        <ele>1237.6</ele>
        <time>2024-06-30T08:55:13Z</time>
      </trkpt>
      <trkpt lat="42.81508" lon="1.89395">
        <ele>1238</ele>
        <time>2024-06-30T08:55:14Z</time>
      </trkpt>
      <trkpt lat="42.81507" lon="1.89397">
        <ele>1238.2</ele>
        <time>2024-06-30T08:55:15Z</time>
      </trkpt>
      <trkpt lat="42.81506" lon="1.894">
        <ele>1238.6</ele>
        <time>2024-06-30T08:55:16Z</time>
      </trkpt>
      <trkpt lat="42.81505" lon="1.89403">
        <ele>1239</ele>
        <time>2024-06-30T08:55:17Z</time>
      </trkpt>
      <trkpt lat="42.81504" lon="1.89405">
        <ele>1239.4</ele>
        <time>2024-06-30T08:55:18Z</time>
      </trkpt>
      <trkpt lat="42.81503" lon="1.89408">
        <ele>1239.8</ele>
        <time>2024-06-30T08:55:19Z</time>
      </trkpt>
      <trkpt lat="42.81502" lon="1.89411">
        <ele>1240</ele>
        <time>2024-06-30T08:55:20Z</time>
      </trkpt>
      <trkpt lat="42.815" lon="1.89414">
        <ele>1240.4</ele>
        <time>2024-06-30T08:55:21Z</time>
      </trkpt>
      <trkpt lat="42.81499" lon="1.89417">
        <ele>1240.4</ele>
        <time>2024-06-30T08:55:22Z</time>
      </trkpt>
      <trkpt lat="42.81498" lon="1.8942">
        <ele>1241</ele>
        <time>2024-06-30T08:55:23Z</time>
      </trkpt>
      <trkpt lat="42.81497" lon="1.89422">
        <ele>1241.4</ele>
        <time>2024-06-30T08:55:24Z</time>
      </trkpt>
      <trkpt lat="42.81496" lon="1.89425">
        <ele>1241.8</ele>
        <time>2024-06-30T08:55:25Z</time>
      </trkpt>
      <trkpt lat="42.81496" lon="1.89428">
        <ele>1242.2</ele>
        <time>2024-06-30T08:55:26Z</time>
      </trkpt>
      <trkpt lat="42.81495" lon="1.8943">
        <ele>1242.4</ele>
        <time>2024-06-30T08:55:27Z</time>
      </trkpt>
      <trkpt lat="42.81494" lon="1.89433">
        <ele>1242.6</ele>
        <time>2024-06-30T08:55:28Z</time>
      </trkpt>
      <trkpt lat="42.81493" lon="1.89435">
        <ele>1242.8</ele>
        <time>2024-06-30T08:55:29Z</time>
      </trkpt>
      <trkpt lat="42.81493" lon="1.89438">
        <ele>1243</ele>
        <time>2024-06-30T08:55:30Z</time>
      </trkpt>
      <trkpt lat="42.81492" lon="1.89441">
        <ele>1243</ele>
        <time>2024-06-30T08:55:31Z</time>
      </trkpt>
      <trkpt lat="42.81491" lon="1.89443">
        <ele>1243.6</ele>
        <time>2024-06-30T08:55:32Z</time>
      </trkpt>
      <trkpt lat="42.8149" lon="1.89445">
        <ele>1244.2</ele>
        <time>2024-06-30T08:55:33Z</time>
      </trkpt>
      <trkpt lat="42.81489" lon="1.89447">
        <ele>1244.2</ele>
        <time>2024-06-30T08:55:34Z</time>
      </trkpt>
      <trkpt lat="42.81488" lon="1.8945">
        <ele>1244.6</ele>
        <time>2024-06-30T08:55:35Z</time>
      </trkpt>
      <trkpt lat="42.81488" lon="1.89452">
        <ele>1244.8</ele>
        <time>2024-06-30T08:55:36Z</time>
      </trkpt>
      <trkpt lat="42.81487" lon="1.89455">
        <ele>1245.2</ele>
        <time>2024-06-30T08:55:37Z</time>
      </trkpt>
      <trkpt lat="42.81486" lon="1.89458">
        <ele>1245.4</ele>
        <time>2024-06-30T08:55:38Z</time>
      </trkpt>
      <trkpt lat="42.81485" lon="1.8946">
        <ele>1245.8</ele>
        <time>2024-06-30T08:55:39Z</time>
      </trkpt>
      <trkpt lat="42.81485" lon="1.89463">
        <ele>1246.2</ele>
        <time>2024-06-30T08:55:40Z</time>
      </trkpt>
      <trkpt lat="42.81485" lon="1.89466">
        <ele>1246.8</ele>
        <time>2024-06-30T08:55:41Z</time>
      </trkpt>
      <trkpt lat="42.81485" lon="1.89469">
        <ele>1247</ele>
        <time>2024-06-30T08:55:42Z</time>
      </trkpt>
      <trkpt lat="42.81484" lon="1.89471">
        <ele>1247.4</ele>
        <time>2024-06-30T08:55:43Z</time>
      </trkpt>
      <trkpt lat="42.81484" lon="1.89473">
        <ele>1248.2</ele>
        <time>2024-06-30T08:55:44Z</time>
      </trkpt>
      <trkpt lat="42.81484" lon="1.89476">
        <ele>1248.4</ele>
        <time>2024-06-30T08:55:45Z</time>
      </trkpt>
      <trkpt lat="42.81484" lon="1.89478">
        <ele>1249</ele>
        <time>2024-06-30T08:55:46Z</time>
      </trkpt>
      <trkpt lat="42.81484" lon="1.89481">
        <ele>1249.2</ele>
        <time>2024-06-30T08:55:47Z</time>
      </trkpt>
      <trkpt lat="42.81485" lon="1.89484">
        <ele>1249.8</ele>
        <time>2024-06-30T08:55:48Z</time>
      </trkpt>
      <trkpt lat="42.81486" lon="1.89487">
        <ele>1250</ele>
        <time>2024-06-30T08:55:49Z</time>
      </trkpt>
      <trkpt lat="42.81487" lon="1.89489">
        <ele>1250</ele>
        <time>2024-06-30T08:55:50Z</time>
      </trkpt>
      <trkpt lat="42.81488" lon="1.89492">
        <ele>1250.4</ele>
        <time>2024-06-30T08:55:51Z</time>
      </trkpt>
      <trkpt lat="42.81488" lon="1.89494">
        <ele>1250.6</ele>
        <time>2024-06-30T08:55:52Z</time>
      </trkpt>
      <trkpt lat="42.81488" lon="1.89497">
        <ele>1250.8</ele>
        <time>2024-06-30T08:55:53Z</time>
      </trkpt>
      <trkpt lat="42.81488" lon="1.89499">
        <ele>1251</ele>
        <time>2024-06-30T08:55:54Z</time>
      </trkpt>
      <trkpt lat="42.81487" lon="1.89501">
        <ele>1252</ele>
        <time>2024-06-30T08:55:55Z</time>
      </trkpt>
      <trkpt lat="42.81486" lon="1.89503">
        <ele>1252.6</ele>
        <time>2024-06-30T08:55:56Z</time>
      </trkpt>
      <trkpt lat="42.81485" lon="1.89505">
        <ele>1252.8</ele>
        <time>2024-06-30T08:55:57Z</time>
      </trkpt>
      <trkpt lat="42.81484" lon="1.89507">
        <ele>1253.2</ele>
        <time>2024-06-30T08:55:58Z</time>
      </trkpt>
      <trkpt lat="42.81484" lon="1.89509">
        <ele>1253.6</ele>
        <time>2024-06-30T08:55:59Z</time>
      </trkpt>
      <trkpt lat="42.81484" lon="1.89511">
        <ele>1254</ele>
        <time>2024-06-30T08:56:00Z</time>
      </trkpt>
      <trkpt lat="42.81486" lon="1.89513">
        <ele>1254.2</ele>
        <time>2024-06-30T08:56:01Z</time>
      </trkpt>
      <trkpt lat="42.81487" lon="1.89516">
        <ele>1254.6</ele>
        <time>2024-06-30T08:56:02Z</time>
      </trkpt>
      <trkpt lat="42.81488" lon="1.89517">
        <ele>1255.2</ele>
        <time>2024-06-30T08:56:03Z</time>
      </trkpt>
      <trkpt lat="42.81489" lon="1.89519">
        <ele>1255.4</ele>
        <time>2024-06-30T08:56:04Z</time>
      </trkpt>
      <trkpt lat="42.8149" lon="1.89521">
        <ele>1255.6</ele>
        <time>2024-06-30T08:56:05Z</time>
      </trkpt>
      <trkpt lat="42.81492" lon="1.89522">
        <ele>1255.8</ele>
        <time>2024-06-30T08:56:06Z</time>
      </trkpt>
      <trkpt lat="42.81493" lon="1.89524">
        <ele>1256.2</ele>
        <time>2024-06-30T08:56:07Z</time>
      </trkpt>
      <trkpt lat="42.81494" lon="1.89527">
        <ele>1256.4</ele>
        <time>2024-06-30T08:56:08Z</time>
      </trkpt>
      <trkpt lat="42.81495" lon="1.89529">
        <ele>1256.8</ele>
        <time>2024-06-30T08:56:09Z</time>
      </trkpt>
      <trkpt lat="42.81495" lon="1.89532">
        <ele>1257.2</ele>
        <time>2024-06-30T08:56:10Z</time>
      </trkpt>
      <trkpt lat="42.81496" lon="1.89534">
        <ele>1257.6</ele>
        <time>2024-06-30T08:56:11Z</time>
      </trkpt>
      <trkpt lat="42.81497" lon="1.89536">
        <ele>1258</ele>
        <time>2024-06-30T08:56:12Z</time>
      </trkpt>
      <trkpt lat="42.81498" lon="1.89539">
        <ele>1258.2</ele>
        <time>2024-06-30T08:56:13Z</time>
      </trkpt>
      <trkpt lat="42.81499" lon="1.89541">
        <ele>1258.4</ele>
        <time>2024-06-30T08:56:14Z</time>
      </trkpt>
      <trkpt lat="42.81499" lon="1.89544">
        <ele>1258.6</ele>
        <time>2024-06-30T08:56:15Z</time>
      </trkpt>
      <trkpt lat="42.815" lon="1.89546">
        <ele>1259</ele>
        <time>2024-06-30T08:56:16Z</time>
      </trkpt>
      <trkpt lat="42.81501" lon="1.89548">
        <ele>1259.4</ele>
        <time>2024-06-30T08:56:17Z</time>
      </trkpt>
      <trkpt lat="42.81502" lon="1.8955">
        <ele>1259.8</ele>
        <time>2024-06-30T08:56:18Z</time>
      </trkpt>
      <trkpt lat="42.81503" lon="1.89553">
        <ele>1260</ele>
        <time>2024-06-30T08:56:19Z</time>
      </trkpt>
      <trkpt lat="42.81504" lon="1.89555">
        <ele>1260.2</ele>
        <time>2024-06-30T08:56:20Z</time>
      </trkpt>
      <trkpt lat="42.81505" lon="1.89558">
        <ele>1260.6</ele>
        <time>2024-06-30T08:56:21Z</time>
      </trkpt>
      <trkpt lat="42.81505" lon="1.8956">
        <ele>1260.8</ele>
        <time>2024-06-30T08:56:22Z</time>
      </trkpt>
      <trkpt lat="42.81506" lon="1.89562">
        <ele>1261</ele>
        <time>2024-06-30T08:56:23Z</time>
      </trkpt>
      <trkpt lat="42.81507" lon="1.89564">
        <ele>1261</ele>
        <time>2024-06-30T08:56:24Z</time>
      </trkpt>
      <trkpt lat="42.81507" lon="1.89566">
        <ele>1261.4</ele>
        <time>2024-06-30T08:56:25Z</time>
      </trkpt>
      <trkpt lat="42.81508" lon="1.89569">
        <ele>1261.8</ele>
        <time>2024-06-30T08:56:26Z</time>
      </trkpt>
      <trkpt lat="42.81508" lon="1.89572">
        <ele>1262</ele>
        <time>2024-06-30T08:56:27Z</time>
      </trkpt>
      <trkpt lat="42.81509" lon="1.89574">
        <ele>1262.2</ele>
        <time>2024-06-30T08:56:28Z</time>
      </trkpt>
      <trkpt lat="42.8151" lon="1.89577">
        <ele>1262.4</ele>
        <time>2024-06-30T08:56:29Z</time>
      </trkpt>
      <trkpt lat="42.8151" lon="1.89579">
        <ele>1262.6</ele>
        <time>2024-06-30T08:56:30Z</time>
      </trkpt>
      <trkpt lat="42.81511" lon="1.89582">
        <ele>1262.6</ele>
        <time>2024-06-30T08:56:31Z</time>
      </trkpt>
      <trkpt lat="42.81511" lon="1.89584">
        <ele>1262.8</ele>
        <time>2024-06-30T08:56:32Z</time>
      </trkpt>
      <trkpt lat="42.81512" lon="1.89586">
        <ele>1263.2</ele>
        <time>2024-06-30T08:56:33Z</time>
      </trkpt>
      <trkpt lat="42.81512" lon="1.89589">
        <ele>1263.6</ele>
        <time>2024-06-30T08:56:34Z</time>
      </trkpt>
      <trkpt lat="42.81513" lon="1.89591">
        <ele>1263.8</ele>
        <time>2024-06-30T08:56:35Z</time>
      </trkpt>
      <trkpt lat="42.81514" lon="1.89594">
        <ele>1264</ele>
        <time>2024-06-30T08:56:36Z</time>
      </trkpt>
      <trkpt lat="42.81515" lon="1.89597">
        <ele>1264.2</ele>
        <time>2024-06-30T08:56:37Z</time>
      </trkpt>
      <trkpt lat="42.81515" lon="1.896">
        <ele>1264.2</ele>
        <time>2024-06-30T08:56:38Z</time>
      </trkpt>
      <trkpt lat="42.81516" lon="1.89603">
        <ele>1264.6</ele>
        <time>2024-06-30T08:56:39Z</time>
      </trkpt>
      <trkpt lat="42.81516" lon="1.89605">
        <ele>1264.8</ele>
        <time>2024-06-30T08:56:40Z</time>
      </trkpt>
      <trkpt lat="42.81516" lon="1.89608">
        <ele>1264.8</ele>
        <time>2024-06-30T08:56:41Z</time>
      </trkpt>
      <trkpt lat="42.81517" lon="1.89611">
        <ele>1265.2</ele>
        <time>2024-06-30T08:56:42Z</time>
      </trkpt>
      <trkpt lat="42.81517" lon="1.89614">
        <ele>1265.4</ele>
        <time>2024-06-30T08:56:43Z</time>
      </trkpt>
      <trkpt lat="42.81518" lon="1.89617">
        <ele>1265.8</ele>
        <time>2024-06-30T08:56:44Z</time>
      </trkpt>
      <trkpt lat="42.81518" lon="1.89619">
        <ele>1266.2</ele>
        <time>2024-06-30T08:56:45Z</time>
      </trkpt>
      <trkpt lat="42.81518" lon="1.89622">
        <ele>1266.6</ele>
        <time>2024-06-30T08:56:46Z</time>
      </trkpt>
      <trkpt lat="42.81518" lon="1.89625">
        <ele>1267</ele>
        <time>2024-06-30T08:56:47Z</time>
      </trkpt>
      <trkpt lat="42.81519" lon="1.89627">
        <ele>1267.4</ele>
        <time>2024-06-30T08:56:48Z</time>
      </trkpt>
      <trkpt lat="42.81519" lon="1.8963">
        <ele>1267.6</ele>
        <time>2024-06-30T08:56:49Z</time>
      </trkpt>
      <trkpt lat="42.8152" lon="1.89634">
        <ele>1267.8</ele>
        <time>2024-06-30T08:56:50Z</time>
      </trkpt>
      <trkpt lat="42.81521" lon="1.89636">
        <ele>1268.2</ele>
        <time>2024-06-30T08:56:51Z</time>
      </trkpt>
      <trkpt lat="42.81521" lon="1.89639">
        <ele>1268.4</ele>
        <time>2024-06-30T08:56:52Z</time>
      </trkpt>
      <trkpt lat="42.81521" lon="1.89642">
        <ele>1268.6</ele>
        <time>2024-06-30T08:56:53Z</time>
      </trkpt>
      <trkpt lat="42.81521" lon="1.89645">
        <ele>1268.8</ele>
        <time>2024-06-30T08:56:54Z</time>
      </trkpt>
      <trkpt lat="42.81521" lon="1.89648">
        <ele>1269</ele>
        <time>2024-06-30T08:56:55Z</time>
      </trkpt>
      <trkpt lat="42.81522" lon="1.89652">
        <ele>1269.6</ele>
        <time>2024-06-30T08:56:56Z</time>
      </trkpt>
      <trkpt lat="42.81522" lon="1.89655">
        <ele>1269.8</ele>
        <time>2024-06-30T08:56:57Z</time>
      </trkpt>
      <trkpt lat="42.81522" lon="1.89658">
        <ele>1270</ele>
        <time>2024-06-30T08:56:58Z</time>
      </trkpt>
      <trkpt lat="42.81523" lon="1.89661">
        <ele>1270</ele>
        <time>2024-06-30T08:56:59Z</time>
      </trkpt>
      <trkpt lat="42.81523" lon="1.89664">
        <ele>1270.4</ele>
        <time>2024-06-30T08:57:00Z</time>
      </trkpt>
      <trkpt lat="42.81523" lon="1.89667">
        <ele>1270.4</ele>
        <time>2024-06-30T08:57:01Z</time>
      </trkpt>
      <trkpt lat="42.81523" lon="1.8967">
        <ele>1271.4</ele>
        <time>2024-06-30T08:57:02Z</time>
      </trkpt>
      <trkpt lat="42.81524" lon="1.89673">
        <ele>1271.8</ele>
        <time>2024-06-30T08:57:03Z</time>
      </trkpt>
      <trkpt lat="42.81524" lon="1.89676">
        <ele>1272</ele>
        <time>2024-06-30T08:57:04Z</time>
      </trkpt>
      <trkpt lat="42.81525" lon="1.89678">
        <ele>1272.4</ele>
        <time>2024-06-30T08:57:05Z</time>
      </trkpt>
      <trkpt lat="42.81525" lon="1.89681">
        <ele>1272.6</ele>
        <time>2024-06-30T08:57:06Z</time>
      </trkpt>
      <trkpt lat="42.81525" lon="1.89683">
        <ele>1272.8</ele>
        <time>2024-06-30T08:57:07Z</time>
      </trkpt>
      <trkpt lat="42.81526" lon="1.89685">
        <ele>1272.8</ele>
        <time>2024-06-30T08:57:08Z</time>
      </trkpt>
      <trkpt lat="42.81526" lon="1.89688">
        <ele>1273.2</ele>
        <time>2024-06-30T08:57:09Z</time>
      </trkpt>
      <trkpt lat="42.81526" lon="1.89691">
        <ele>1273.2</ele>
        <time>2024-06-30T08:57:10Z</time>
      </trkpt>
      <trkpt lat="42.81526" lon="1.89693">
        <ele>1273.4</ele>
        <time>2024-06-30T08:57:11Z</time>
      </trkpt>
      <trkpt lat="42.81526" lon="1.89696">
        <ele>1273.6</ele>
        <time>2024-06-30T08:57:12Z</time>
      </trkpt>
      <trkpt lat="42.81527" lon="1.89698">
        <ele>1273.6</ele>
        <time>2024-06-30T08:57:13Z</time>
      </trkpt>
      <trkpt lat="42.81527" lon="1.89701">
        <ele>1273.8</ele>
        <time>2024-06-30T08:57:14Z</time>
      </trkpt>
      <trkpt lat="42.81527" lon="1.89704">
        <ele>1274</ele>
        <time>2024-06-30T08:57:15Z</time>
      </trkpt>
      <trkpt lat="42.81527" lon="1.89707">
        <ele>1274.2</ele>
        <time>2024-06-30T08:57:16Z</time>
      </trkpt>
      <trkpt lat="42.81527" lon="1.8971">
        <ele>1274.4</ele>
        <time>2024-06-30T08:57:17Z</time>
      </trkpt>
      <trkpt lat="42.81527" lon="1.89713">
        <ele>1274.6</ele>
        <time>2024-06-30T08:57:18Z</time>
      </trkpt>
      <trkpt lat="42.81527" lon="1.89713">
        <ele>1274.6</ele>
        <time>2024-06-30T08:57:19Z</time>
      </trkpt>
      <trkpt lat="42.81527" lon="1.89718">
        <ele>1274.8</ele>
        <time>2024-06-30T08:57:20Z</time>
      </trkpt>
      <trkpt lat="42.81528" lon="1.89721">
        <ele>1274.8</ele>
        <time>2024-06-30T08:57:21Z</time>
      </trkpt>
      <trkpt lat="42.81528" lon="1.89724">
        <ele>1275</ele>
        <time>2024-06-30T08:57:22Z</time>
      </trkpt>
      <trkpt lat="42.81528" lon="1.89726">
        <ele>1275.2</ele>
        <time>2024-06-30T08:57:23Z</time>
      </trkpt>
      <trkpt lat="42.81529" lon="1.89729">
        <ele>1275.2</ele>
        <time>2024-06-30T08:57:24Z</time>
      </trkpt>
      <trkpt lat="42.8153" lon="1.89732">
        <ele>1275.4</ele>
        <time>2024-06-30T08:57:25Z</time>
      </trkpt>
      <trkpt lat="42.8153" lon="1.89735">
        <ele>1275.6</ele>
        <time>2024-06-30T08:57:26Z</time>
      </trkpt>
      <trkpt lat="42.81531" lon="1.89738">
        <ele>1275.6</ele>
        <time>2024-06-30T08:57:27Z</time>
      </trkpt>
      <trkpt lat="42.81531" lon="1.89741">
        <ele>1276.2</ele>
        <time>2024-06-30T08:57:28Z</time>
      </trkpt>
      <trkpt lat="42.81532" lon="1.89744">
        <ele>1276.2</ele>
        <time>2024-06-30T08:57:29Z</time>
      </trkpt>
      <trkpt lat="42.81533" lon="1.89746">
        <ele>1276.2</ele>
        <time>2024-06-30T08:57:30Z</time>
      </trkpt>
      <trkpt lat="42.81534" lon="1.8975">
        <ele>1276.2</ele>
        <time>2024-06-30T08:57:31Z</time>
      </trkpt>
      <trkpt lat="42.81534" lon="1.89752">
        <ele>1276.4</ele>
        <time>2024-06-30T08:57:32Z</time>
      </trkpt>
      <trkpt lat="42.81536" lon="1.89755">
        <ele>1276.6</ele>
        <time>2024-06-30T08:57:33Z</time>
      </trkpt>
      <trkpt lat="42.81537" lon="1.89757">
        <ele>1276.6</ele>
        <time>2024-06-30T08:57:34Z</time>
      </trkpt>
      <trkpt lat="42.81538" lon="1.8976">
        <ele>1277</ele>
        <time>2024-06-30T08:57:35Z</time>
      </trkpt>
      <trkpt lat="42.8154" lon="1.89762">
        <ele>1277</ele>
        <time>2024-06-30T08:57:36Z</time>
      </trkpt>
      <trkpt lat="42.81541" lon="1.89764">
        <ele>1277</ele>
        <time>2024-06-30T08:57:37Z</time>
      </trkpt>
      <trkpt lat="42.81543" lon="1.89766">
        <ele>1277</ele>
        <time>2024-06-30T08:57:38Z</time>
      </trkpt>
      <trkpt lat="42.81545" lon="1.89768">
        <ele>1277.2</ele>
        <time>2024-06-30T08:57:39Z</time>
      </trkpt>
      <trkpt lat="42.81547" lon="1.8977">
        <ele>1277.2</ele>
        <time>2024-06-30T08:57:40Z</time>
      </trkpt>
      <trkpt lat="42.81549" lon="1.89772">
        <ele>1277.4</ele>
        <time>2024-06-30T08:57:41Z</time>
      </trkpt>
      <trkpt lat="42.81551" lon="1.89774">
        <ele>1277.4</ele>
        <time>2024-06-30T08:57:42Z</time>
      </trkpt>
      <trkpt lat="42.81552" lon="1.89777">
        <ele>1277.4</ele>
        <time>2024-06-30T08:57:43Z</time>
      </trkpt>
      <trkpt lat="42.81553" lon="1.89778">
        <ele>1277.6</ele>
        <time>2024-06-30T08:57:44Z</time>
      </trkpt>
      <trkpt lat="42.81555" lon="1.8978">
        <ele>1277.6</ele>
        <time>2024-06-30T08:57:45Z</time>
      </trkpt>
      <trkpt lat="42.81557" lon="1.89782">
        <ele>1277.6</ele>
        <time>2024-06-30T08:57:46Z</time>
      </trkpt>
      <trkpt lat="42.81558" lon="1.89784">
        <ele>1277.8</ele>
        <time>2024-06-30T08:57:47Z</time>
      </trkpt>
      <trkpt lat="42.8156" lon="1.89786">
        <ele>1278</ele>
        <time>2024-06-30T08:57:48Z</time>
      </trkpt>
      <trkpt lat="42.81562" lon="1.89788">
        <ele>1278.4</ele>
        <time>2024-06-30T08:57:49Z</time>
      </trkpt>
      <trkpt lat="42.81563" lon="1.8979">
        <ele>1278.4</ele>
        <time>2024-06-30T08:57:50Z</time>
      </trkpt>
      <trkpt lat="42.81565" lon="1.89791">
        <ele>1278.6</ele>
        <time>2024-06-30T08:57:51Z</time>
      </trkpt>
      <trkpt lat="42.81566" lon="1.89793">
        <ele>1278.6</ele>
        <time>2024-06-30T08:57:52Z</time>
      </trkpt>
      <trkpt lat="42.81568" lon="1.89794">
        <ele>1279</ele>
        <time>2024-06-30T08:57:53Z</time>
      </trkpt>
      <trkpt lat="42.81569" lon="1.89795">
        <ele>1279.2</ele>
        <time>2024-06-30T08:57:54Z</time>
      </trkpt>
      <trkpt lat="42.81571" lon="1.89797">
        <ele>1279.2</ele>
        <time>2024-06-30T08:57:55Z</time>
      </trkpt>
      <trkpt lat="42.81573" lon="1.89798">
        <ele>1279.6</ele>
        <time>2024-06-30T08:57:56Z</time>
      </trkpt>
      <trkpt lat="42.81575" lon="1.89799">
        <ele>1279.8</ele>
        <time>2024-06-30T08:57:57Z</time>
      </trkpt>
      <trkpt lat="42.81577" lon="1.89801">
        <ele>1280</ele>
        <time>2024-06-30T08:57:58Z</time>
      </trkpt>
      <trkpt lat="42.81578" lon="1.89802">
        <ele>1280</ele>
        <time>2024-06-30T08:57:59Z</time>
      </trkpt>
      <trkpt lat="42.8158" lon="1.89803">
        <ele>1280.2</ele>
        <time>2024-06-30T08:58:00Z</time>
      </trkpt>
      <trkpt lat="42.81581" lon="1.89805">
        <ele>1280.2</ele>
        <time>2024-06-30T08:58:01Z</time>
      </trkpt>
      <trkpt lat="42.81583" lon="1.89807">
        <ele>1280.6</ele>
        <time>2024-06-30T08:58:02Z</time>
      </trkpt>
      <trkpt lat="42.81585" lon="1.89809">
        <ele>1280.8</ele>
        <time>2024-06-30T08:58:03Z</time>
      </trkpt>
      <trkpt lat="42.81587" lon="1.8981">
        <ele>1281</ele>
        <time>2024-06-30T08:58:04Z</time>
      </trkpt>
      <trkpt lat="42.81589" lon="1.89811">
        <ele>1281</ele>
        <time>2024-06-30T08:58:05Z</time>
      </trkpt>
      <trkpt lat="42.81591" lon="1.89813">
        <ele>1281.2</ele>
        <time>2024-06-30T08:58:06Z</time>
      </trkpt>
      <trkpt lat="42.81593" lon="1.89814">
        <ele>1281.4</ele>
        <time>2024-06-30T08:58:07Z</time>
      </trkpt>
      <trkpt lat="42.81595" lon="1.89815">
        <ele>1281.6</ele>
        <time>2024-06-30T08:58:08Z</time>
      </trkpt>
      <trkpt lat="42.81597" lon="1.89815">
        <ele>1281.8</ele>
        <time>2024-06-30T08:58:09Z</time>
      </trkpt>
      <trkpt lat="42.81599" lon="1.89816">
        <ele>1282.2</ele>
        <time>2024-06-30T08:58:10Z</time>
      </trkpt>
      <trkpt lat="42.81601" lon="1.89816">
        <ele>1282.2</ele>
        <time>2024-06-30T08:58:11Z</time>
      </trkpt>
      <trkpt lat="42.81603" lon="1.89817">
        <ele>1282.6</ele>
        <time>2024-06-30T08:58:12Z</time>
      </trkpt>
      <trkpt lat="42.81605" lon="1.89818">
        <ele>1282.6</ele>
        <time>2024-06-30T08:58:13Z</time>
      </trkpt>
      <trkpt lat="42.81606" lon="1.8982">
        <ele>1282.8</ele>
        <time>2024-06-30T08:58:14Z</time>
      </trkpt>
      <trkpt lat="42.81608" lon="1.89821">
        <ele>1282.8</ele>
        <time>2024-06-30T08:58:15Z</time>
      </trkpt>
      <trkpt lat="42.8161" lon="1.89821">
        <ele>1283.2</ele>
        <time>2024-06-30T08:58:16Z</time>
      </trkpt>
      <trkpt lat="42.81612" lon="1.89822">
        <ele>1283.2</ele>
        <time>2024-06-30T08:58:17Z</time>
      </trkpt>
      <trkpt lat="42.81614" lon="1.89822">
        <ele>1283.6</ele>
        <time>2024-06-30T08:58:18Z</time>
      </trkpt>
      <trkpt lat="42.81615" lon="1.89823">
        <ele>1284</ele>
        <time>2024-06-30T08:58:19Z</time>
      </trkpt>
      <trkpt lat="42.81617" lon="1.89824">
        <ele>1284.2</ele>
        <time>2024-06-30T08:58:20Z</time>
      </trkpt>
      <trkpt lat="42.81619" lon="1.89824">
        <ele>1284.4</ele>
        <time>2024-06-30T08:58:21Z</time>
      </trkpt>
      <trkpt lat="42.81621" lon="1.89825">
        <ele>1284.4</ele>
        <time>2024-06-30T08:58:22Z</time>
      </trkpt>
      <trkpt lat="42.81623" lon="1.89825">
        <ele>1284.6</ele>
        <time>2024-06-30T08:58:23Z</time>
      </trkpt>
      <trkpt lat="42.81625" lon="1.89826">
        <ele>1284.8</ele>
        <time>2024-06-30T08:58:24Z</time>
      </trkpt>
      <trkpt lat="42.81627" lon="1.89826">
        <ele>1285</ele>
        <time>2024-06-30T08:58:25Z</time>
      </trkpt>
      <trkpt lat="42.81628" lon="1.89827">
        <ele>1285.4</ele>
        <time>2024-06-30T08:58:26Z</time>
      </trkpt>
      <trkpt lat="42.8163" lon="1.89827">
        <ele>1285.4</ele>
        <time>2024-06-30T08:58:27Z</time>
      </trkpt>
      <trkpt lat="42.81632" lon="1.89828">
        <ele>1285.6</ele>
        <time>2024-06-30T08:58:28Z</time>
      </trkpt>
      <trkpt lat="42.81634" lon="1.89829">
        <ele>1285.8</ele>
        <time>2024-06-30T08:58:29Z</time>
      </trkpt>
      <trkpt lat="42.81636" lon="1.89829">
        <ele>1286.2</ele>
        <time>2024-06-30T08:58:30Z</time>
      </trkpt>
      <trkpt lat="42.81638" lon="1.89829">
        <ele>1286.4</ele>
        <time>2024-06-30T08:58:31Z</time>
      </trkpt>
      <trkpt lat="42.8164" lon="1.8983">
        <ele>1286.6</ele>
        <time>2024-06-30T08:58:32Z</time>
      </trkpt>
      <trkpt lat="42.81642" lon="1.89831">
        <ele>1286.8</ele>
        <time>2024-06-30T08:58:33Z</time>
      </trkpt>
      <trkpt lat="42.81644" lon="1.89831">
        <ele>1287</ele>
        <time>2024-06-30T08:58:34Z</time>
      </trkpt>
      <trkpt lat="42.81645" lon="1.89832">
        <ele>1287.2</ele>
        <time>2024-06-30T08:58:35Z</time>
      </trkpt>
      <trkpt lat="42.81647" lon="1.89833">
        <ele>1287.2</ele>
        <time>2024-06-30T08:58:36Z</time>
      </trkpt>
      <trkpt lat="42.81648" lon="1.89834">
        <ele>1287.6</ele>
        <time>2024-06-30T08:58:37Z</time>
      </trkpt>
      <trkpt lat="42.8165" lon="1.89834">
        <ele>1287.8</ele>
        <time>2024-06-30T08:58:38Z</time>
      </trkpt>
      <trkpt lat="42.81652" lon="1.89835">
        <ele>1288</ele>
        <time>2024-06-30T08:58:39Z</time>
      </trkpt>
      <trkpt lat="42.81653" lon="1.89836">
        <ele>1288.4</ele>
        <time>2024-06-30T08:58:40Z</time>
      </trkpt>
      <trkpt lat="42.81655" lon="1.89837">
        <ele>1288.4</ele>
        <time>2024-06-30T08:58:41Z</time>
      </trkpt>
      <trkpt lat="42.81657" lon="1.89838">
        <ele>1288.6</ele>
        <time>2024-06-30T08:58:42Z</time>
      </trkpt>
      <trkpt lat="42.81659" lon="1.89839">
        <ele>1288.6</ele>
        <time>2024-06-30T08:58:43Z</time>
      </trkpt>
      <trkpt lat="42.81661" lon="1.89841">
        <ele>1289</ele>
        <time>2024-06-30T08:58:44Z</time>
      </trkpt>
      <trkpt lat="42.81662" lon="1.89842">
        <ele>1289.2</ele>
        <time>2024-06-30T08:58:45Z</time>
      </trkpt>
      <trkpt lat="42.81664" lon="1.89843">
        <ele>1289.4</ele>
        <time>2024-06-30T08:58:46Z</time>
      </trkpt>
      <trkpt lat="42.81666" lon="1.89844">
        <ele>1289.6</ele>
        <time>2024-06-30T08:58:47Z</time>
      </trkpt>
      <trkpt lat="42.81667" lon="1.89846">
        <ele>1289.8</ele>
        <time>2024-06-30T08:58:48Z</time>
      </trkpt>
      <trkpt lat="42.81669" lon="1.89847">
        <ele>1290</ele>
        <time>2024-06-30T08:58:49Z</time>
      </trkpt>
      <trkpt lat="42.81671" lon="1.89849">
        <ele>1290.2</ele>
        <time>2024-06-30T08:58:50Z</time>
      </trkpt>
      <trkpt lat="42.81673" lon="1.8985">
        <ele>1290.4</ele>
        <time>2024-06-30T08:58:51Z</time>
      </trkpt>
      <trkpt lat="42.81674" lon="1.89852">
        <ele>1290.8</ele>
        <time>2024-06-30T08:58:52Z</time>
      </trkpt>
      <trkpt lat="42.81676" lon="1.89853">
        <ele>1291</ele>
        <time>2024-06-30T08:58:53Z</time>
      </trkpt>
      <trkpt lat="42.81677" lon="1.89855">
        <ele>1291.2</ele>
        <time>2024-06-30T08:58:54Z</time>
      </trkpt>
      <trkpt lat="42.81679" lon="1.89856">
        <ele>1291.4</ele>
        <time>2024-06-30T08:58:55Z</time>
      </trkpt>
      <trkpt lat="42.8168" lon="1.89857">
        <ele>1291.6</ele>
        <time>2024-06-30T08:58:56Z</time>
      </trkpt>
      <trkpt lat="42.81682" lon="1.89859">
        <ele>1291.8</ele>
        <time>2024-06-30T08:58:57Z</time>
      </trkpt>
      <trkpt lat="42.81683" lon="1.8986">
        <ele>1292</ele>
        <time>2024-06-30T08:58:58Z</time>
      </trkpt>
      <trkpt lat="42.81685" lon="1.89861">
        <ele>1292</ele>
        <time>2024-06-30T08:58:59Z</time>
      </trkpt>
      <trkpt lat="42.81686" lon="1.89862">
        <ele>1292.4</ele>
        <time>2024-06-30T08:59:00Z</time>
      </trkpt>
      <trkpt lat="42.81688" lon="1.89864">
        <ele>1292.4</ele>
        <time>2024-06-30T08:59:01Z</time>
      </trkpt>
      <trkpt lat="42.81689" lon="1.89865">
        <ele>1292.8</ele>
        <time>2024-06-30T08:59:02Z</time>
      </trkpt>
      <trkpt lat="42.81691" lon="1.89867">
        <ele>1293</ele>
        <time>2024-06-30T08:59:03Z</time>
      </trkpt>
      <trkpt lat="42.81692" lon="1.89868">
        <ele>1293</ele>
        <time>2024-06-30T08:59:04Z</time>
      </trkpt>
      <trkpt lat="42.81694" lon="1.8987">
        <ele>1293.4</ele>
        <time>2024-06-30T08:59:05Z</time>
      </trkpt>
      <trkpt lat="42.81696" lon="1.89871">
        <ele>1293.4</ele>
        <time>2024-06-30T08:59:06Z</time>
      </trkpt>
      <trkpt lat="42.81697" lon="1.89872">
        <ele>1293.8</ele>
        <time>2024-06-30T08:59:07Z</time>
      </trkpt>
      <trkpt lat="42.81699" lon="1.89873">
        <ele>1294</ele>
        <time>2024-06-30T08:59:08Z</time>
      </trkpt>
      <trkpt lat="42.817" lon="1.89874">
        <ele>1294.2</ele>
        <time>2024-06-30T08:59:09Z</time>
      </trkpt>
      <trkpt lat="42.81702" lon="1.89876">
        <ele>1294.4</ele>
        <time>2024-06-30T08:59:10Z</time>
      </trkpt>
      <trkpt lat="42.81703" lon="1.89877">
        <ele>1294.6</ele>
        <time>2024-06-30T08:59:11Z</time>
      </trkpt>
      <trkpt lat="42.81705" lon="1.89878">
        <ele>1295</ele>
        <time>2024-06-30T08:59:12Z</time>
      </trkpt>
      <trkpt lat="42.81706" lon="1.8988">
        <ele>1295.2</ele>
        <time>2024-06-30T08:59:13Z</time>
      </trkpt>
      <trkpt lat="42.81708" lon="1.89882">
        <ele>1295.6</ele>
        <time>2024-06-30T08:59:14Z</time>
      </trkpt>
      <trkpt lat="42.81709" lon="1.89884">
        <ele>1295.6</ele>
        <time>2024-06-30T08:59:15Z</time>
      </trkpt>
      <trkpt lat="42.8171" lon="1.89886">
        <ele>1296</ele>
        <time>2024-06-30T08:59:16Z</time>
      </trkpt>
      <trkpt lat="42.81712" lon="1.89887">
        <ele>1296.2</ele>
        <time>2024-06-30T08:59:17Z</time>
      </trkpt>
      <trkpt lat="42.81714" lon="1.89889">
        <ele>1296.2</ele>
        <time>2024-06-30T08:59:18Z</time>
      </trkpt>
      <trkpt lat="42.81715" lon="1.89891">
        <ele>1296.6</ele>
        <time>2024-06-30T08:59:19Z</time>
      </trkpt>
      <trkpt lat="42.81717" lon="1.89893">
        <ele>1296.6</ele>
        <time>2024-06-30T08:59:20Z</time>
      </trkpt>
      <trkpt lat="42.81719" lon="1.89895">
        <ele>1296.8</ele>
        <time>2024-06-30T08:59:21Z</time>
      </trkpt>
      <trkpt lat="42.81721" lon="1.89897">
        <ele>1297</ele>
        <time>2024-06-30T08:59:22Z</time>
      </trkpt>
      <trkpt lat="42.81723" lon="1.89898">
        <ele>1297.2</ele>
        <time>2024-06-30T08:59:23Z</time>
      </trkpt>
      <trkpt lat="42.81724" lon="1.899">
        <ele>1297.4</ele>
        <time>2024-06-30T08:59:24Z</time>
      </trkpt>
      <trkpt lat="42.81726" lon="1.89902">
        <ele>1297.6</ele>
        <time>2024-06-30T08:59:25Z</time>
      </trkpt>
      <trkpt lat="42.81727" lon="1.89904">
        <ele>1298</ele>
        <time>2024-06-30T08:59:26Z</time>
      </trkpt>
      <trkpt lat="42.81729" lon="1.89907">
        <ele>1298</ele>
        <time>2024-06-30T08:59:27Z</time>
      </trkpt>
      <trkpt lat="42.8173" lon="1.89909">
        <ele>1298.2</ele>
        <time>2024-06-30T08:59:28Z</time>
      </trkpt>
      <trkpt lat="42.81732" lon="1.89911">
        <ele>1298.4</ele>
        <time>2024-06-30T08:59:29Z</time>
      </trkpt>
      <trkpt lat="42.81734" lon="1.89912">
        <ele>1298.6</ele>
        <time>2024-06-30T08:59:30Z</time>
      </trkpt>
      <trkpt lat="42.81736" lon="1.89914">
        <ele>1298.8</ele>
        <time>2024-06-30T08:59:31Z</time>
      </trkpt>
      <trkpt lat="42.81738" lon="1.89915">
        <ele>1299.2</ele>
        <time>2024-06-30T08:59:32Z</time>
      </trkpt>
      <trkpt lat="42.8174" lon="1.89917">
        <ele>1299.4</ele>
        <time>2024-06-30T08:59:33Z</time>
      </trkpt>
      <trkpt lat="42.81742" lon="1.89919">
        <ele>1299.4</ele>
        <time>2024-06-30T08:59:34Z</time>
      </trkpt>
      <trkpt lat="42.81743" lon="1.8992">
        <ele>1299.6</ele>
        <time>2024-06-30T08:59:35Z</time>
      </trkpt>
      <trkpt lat="42.81745" lon="1.89922">
        <ele>1299.6</ele>
        <time>2024-06-30T08:59:36Z</time>
      </trkpt>
      <trkpt lat="42.81747" lon="1.89924">
        <ele>1300.2</ele>
        <time>2024-06-30T08:59:37Z</time>
      </trkpt>
      <trkpt lat="42.81748" lon="1.89925">
        <ele>1300.4</ele>
        <time>2024-06-30T08:59:38Z</time>
      </trkpt>
      <trkpt lat="42.8175" lon="1.89927">
        <ele>1300.4</ele>
        <time>2024-06-30T08:59:39Z</time>
      </trkpt>
      <trkpt lat="42.81752" lon="1.89929">
        <ele>1300.6</ele>
        <time>2024-06-30T08:59:40Z</time>
      </trkpt>
      <trkpt lat="42.81754" lon="1.89931">
        <ele>1300.8</ele>
        <time>2024-06-30T08:59:41Z</time>
      </trkpt>
      <trkpt lat="42.81755" lon="1.89932">
        <ele>1301.2</ele>
        <time>2024-06-30T08:59:42Z</time>
      </trkpt>
      <trkpt lat="42.81757" lon="1.89934">
        <ele>1301.4</ele>
        <time>2024-06-30T08:59:43Z</time>
      </trkpt>
      <trkpt lat="42.81759" lon="1.89936">
        <ele>1301.8</ele>
        <time>2024-06-30T08:59:44Z</time>
      </trkpt>
      <trkpt lat="42.8176" lon="1.89939">
        <ele>1302</ele>
        <time>2024-06-30T08:59:45Z</time>
      </trkpt>
      <trkpt lat="42.81762" lon="1.89941">
        <ele>1302.2</ele>
        <time>2024-06-30T08:59:46Z</time>
      </trkpt>
      <trkpt lat="42.81763" lon="1.89943">
        <ele>1302.4</ele>
        <time>2024-06-30T08:59:47Z</time>
      </trkpt>
      <trkpt lat="42.81765" lon="1.89945">
        <ele>1302.6</ele>
        <time>2024-06-30T08:59:48Z</time>
      </trkpt>
      <trkpt lat="42.81766" lon="1.89948">
        <ele>1302.8</ele>
        <time>2024-06-30T08:59:49Z</time>
      </trkpt>
      <trkpt lat="42.81767" lon="1.8995">
        <ele>1302.8</ele>
        <time>2024-06-30T08:59:50Z</time>
      </trkpt>
      <trkpt lat="42.81768" lon="1.89952">
        <ele>1303</ele>
        <time>2024-06-30T08:59:51Z</time>
      </trkpt>
      <trkpt lat="42.81769" lon="1.89955">
        <ele>1303.2</ele>
        <time>2024-06-30T08:59:52Z</time>
      </trkpt>
      <trkpt lat="42.81771" lon="1.89957">
        <ele>1303.4</ele>
        <time>2024-06-30T08:59:53Z</time>
      </trkpt>
      <trkpt lat="42.81772" lon="1.89959">
        <ele>1303.4</ele>
        <time>2024-06-30T08:59:54Z</time>
      </trkpt>
      <trkpt lat="42.81774" lon="1.89961">
        <ele>1303.6</ele>
        <time>2024-06-30T08:59:55Z</time>
      </trkpt>
      <trkpt lat="42.81775" lon="1.89964">
        <ele>1304</ele>
        <time>2024-06-30T08:59:56Z</time>
      </trkpt>
      <trkpt lat="42.81776" lon="1.89966">
        <ele>1304</ele>
        <time>2024-06-30T08:59:57Z</time>
      </trkpt>
      <trkpt lat="42.81778" lon="1.89968">
        <ele>1304.4</ele>
        <time>2024-06-30T08:59:58Z</time>
      </trkpt>
      <trkpt lat="42.81779" lon="1.89971">
        <ele>1304.4</ele>
        <time>2024-06-30T08:59:59Z</time>
      </trkpt>
      <trkpt lat="42.8178" lon="1.89973">
        <ele>1304.6</ele>
        <time>2024-06-30T09:00:00Z</time>
      </trkpt>
      <trkpt lat="42.81781" lon="1.89975">
        <ele>1304.8</ele>
        <time>2024-06-30T09:00:01Z</time>
      </trkpt>
      <trkpt lat="42.81783" lon="1.89978">
        <ele>1305</ele>
        <time>2024-06-30T09:00:02Z</time>
      </trkpt>
      <trkpt lat="42.81784" lon="1.8998">
        <ele>1305.2</ele>
        <time>2024-06-30T09:00:03Z</time>
      </trkpt>
      <trkpt lat="42.81785" lon="1.89982">
        <ele>1305.2</ele>
        <time>2024-06-30T09:00:04Z</time>
      </trkpt>
      <trkpt lat="42.81786" lon="1.89985">
        <ele>1305.4</ele>
        <time>2024-06-30T09:00:05Z</time>
      </trkpt>
      <trkpt lat="42.81787" lon="1.89987">
        <ele>1305.6</ele>
        <time>2024-06-30T09:00:06Z</time>
      </trkpt>
      <trkpt lat="42.81788" lon="1.89989">
        <ele>1306</ele>
        <time>2024-06-30T09:00:07Z</time>
      </trkpt>
      <trkpt lat="42.8179" lon="1.89992">
        <ele>1306</ele>
        <time>2024-06-30T09:00:08Z</time>
      </trkpt>
      <trkpt lat="42.81791" lon="1.89994">
        <ele>1306.2</ele>
        <time>2024-06-30T09:00:09Z</time>
      </trkpt>
      <trkpt lat="42.81792" lon="1.89996">
        <ele>1306.4</ele>
        <time>2024-06-30T09:00:10Z</time>
      </trkpt>
      <trkpt lat="42.81794" lon="1.89999">
        <ele>1306.4</ele>
        <time>2024-06-30T09:00:11Z</time>
      </trkpt>
      <trkpt lat="42.81795" lon="1.90001">
        <ele>1306.8</ele>
        <time>2024-06-30T09:00:12Z</time>
      </trkpt>
      <trkpt lat="42.81797" lon="1.90004">
        <ele>1306.8</ele>
        <time>2024-06-30T09:00:13Z</time>
      </trkpt>
      <trkpt lat="42.81798" lon="1.90006">
        <ele>1307.2</ele>
        <time>2024-06-30T09:00:14Z</time>
      </trkpt>
      <trkpt lat="42.81799" lon="1.90008">
        <ele>1307.2</ele>
        <time>2024-06-30T09:00:15Z</time>
      </trkpt>
      <trkpt lat="42.818" lon="1.90009">
        <ele>1307.4</ele>
        <time>2024-06-30T09:00:16Z</time>
      </trkpt>
      <trkpt lat="42.81801" lon="1.9001">
        <ele>1307.6</ele>
        <time>2024-06-30T09:00:17Z</time>
      </trkpt>
      <trkpt lat="42.81802" lon="1.90012">
        <ele>1307.8</ele>
        <time>2024-06-30T09:00:18Z</time>
      </trkpt>
      <trkpt lat="42.81803" lon="1.90014">
        <ele>1308.2</ele>
        <time>2024-06-30T09:00:19Z</time>
      </trkpt>
      <trkpt lat="42.81804" lon="1.90015">
        <ele>1308.2</ele>
        <time>2024-06-30T09:00:20Z</time>
      </trkpt>
      <trkpt lat="42.81804" lon="1.90015">
        <ele>1308.4</ele>
        <time>2024-06-30T09:00:21Z</time>
      </trkpt>
      <trkpt lat="42.81804" lon="1.90015">
        <ele>1308.4</ele>
        <time>2024-06-30T09:00:22Z</time>
      </trkpt>
      <trkpt lat="42.81805" lon="1.90021">
        <ele>1308.8</ele>
        <time>2024-06-30T09:01:52Z</time>
      </trkpt>
      <trkpt lat="42.81813" lon="1.90041">
        <ele>1308.8</ele>
        <time>2024-06-30T09:01:57Z</time>
      </trkpt>
      <trkpt lat="42.81823" lon="1.90068">
        <ele>1308.6</ele>
        <time>2024-06-30T09:02:01Z</time>
      </trkpt>
      <trkpt lat="42.81825" lon="1.90076">
        <ele>1308.6</ele>
        <time>2024-06-30T09:02:02Z</time>
      </trkpt>
      <trkpt lat="42.81824" lon="1.90091">
        <ele>1308</ele>
        <time>2024-06-30T09:02:04Z</time>
      </trkpt>
      <trkpt lat="42.81822" lon="1.90098">
        <ele>1307.2</ele>
        <time>2024-06-30T09:02:05Z</time>
      </trkpt>
      <trkpt lat="42.8182" lon="1.90104">
        <ele>1307</ele>
        <time>2024-06-30T09:02:06Z</time>
      </trkpt>
      <trkpt lat="42.81816" lon="1.90114">
        <ele>1306.8</ele>
        <time>2024-06-30T09:02:07Z</time>
      </trkpt>
      <trkpt lat="42.81814" lon="1.90122">
        <ele>1306.2</ele>
        <time>2024-06-30T09:02:08Z</time>
      </trkpt>
      <trkpt lat="42.81812" lon="1.9013">
        <ele>1306</ele>
        <time>2024-06-30T09:02:09Z</time>
      </trkpt>
      <trkpt lat="42.81812" lon="1.90139">
        <ele>1305.4</ele>
        <time>2024-06-30T09:02:10Z</time>
      </trkpt>
      <trkpt lat="42.81812" lon="1.90147">
        <ele>1305</ele>
        <time>2024-06-30T09:02:11Z</time>
      </trkpt>
      <trkpt lat="42.81814" lon="1.90155">
        <ele>1304.4</ele>
        <time>2024-06-30T09:02:12Z</time>
      </trkpt>
      <trkpt lat="42.81816" lon="1.90163">
        <ele>1304.2</ele>
        <time>2024-06-30T09:02:13Z</time>
      </trkpt>
      <trkpt lat="42.81818" lon="1.90171">
        <ele>1304</ele>
        <time>2024-06-30T09:02:14Z</time>
      </trkpt>
      <trkpt lat="42.81823" lon="1.90186">
        <ele>1303.6</ele>
        <time>2024-06-30T09:02:16Z</time>
      </trkpt>
      <trkpt lat="42.81825" lon="1.90195">
        <ele>1303.4</ele>
        <time>2024-06-30T09:02:17Z</time>
      </trkpt>
      <trkpt lat="42.81833" lon="1.90229">
        <ele>1302.8</ele>
        <time>2024-06-30T09:02:21Z</time>
      </trkpt>
      <trkpt lat="42.81835" lon="1.90234">
        <ele>1302.4</ele>
        <time>2024-06-30T09:02:22Z</time>
      </trkpt>
      <trkpt lat="42.81836" lon="1.90238">
        <ele>1302.4</ele>
        <time>2024-06-30T09:02:23Z</time>
      </trkpt>
      <trkpt lat="42.81837" lon="1.9024">
        <ele>1302</ele>
        <time>2024-06-30T09:02:24Z</time>
      </trkpt>
      <trkpt lat="42.81837" lon="1.90241">
        <ele>1301.6</ele>
        <time>2024-06-30T09:02:25Z</time>
      </trkpt>
      <trkpt lat="42.81838" lon="1.90241">
        <ele>1301</ele>
        <time>2024-06-30T09:02:26Z</time>
      </trkpt>
      <trkpt lat="42.81838" lon="1.9024">
        <ele>1300.8</ele>
        <time>2024-06-30T09:02:27Z</time>
      </trkpt>
      <trkpt lat="42.81839" lon="1.90239">
        <ele>1300.4</ele>
        <time>2024-06-30T09:02:28Z</time>
      </trkpt>
      <trkpt lat="42.81839" lon="1.90238">
        <ele>1300.2</ele>
        <time>2024-06-30T09:02:29Z</time>
      </trkpt>
      <trkpt lat="42.81838" lon="1.90237">
        <ele>1300</ele>
        <time>2024-06-30T09:02:30Z</time>
      </trkpt>
      <trkpt lat="42.81837" lon="1.90234">
        <ele>1299.8</ele>
        <time>2024-06-30T09:02:32Z</time>
      </trkpt>
      <trkpt lat="42.81836" lon="1.90232">
        <ele>1299.6</ele>
        <time>2024-06-30T09:02:33Z</time>
      </trkpt>
      <trkpt lat="42.81832" lon="1.90217">
        <ele>1299.4</ele>
        <time>2024-06-30T09:02:38Z</time>
      </trkpt>
      <trkpt lat="42.81827" lon="1.90192">
        <ele>1299.4</ele>
        <time>2024-06-30T09:02:43Z</time>
      </trkpt>
      <trkpt lat="42.8182" lon="1.9017">
        <ele>1299.6</ele>
        <time>2024-06-30T09:02:47Z</time>
      </trkpt>
      <trkpt lat="42.81818" lon="1.90164">
        <ele>1299.6</ele>
        <time>2024-06-30T09:02:48Z</time>
      </trkpt>
      <trkpt lat="42.81817" lon="1.90158">
        <ele>1300</ele>
        <time>2024-06-30T09:02:49Z</time>
      </trkpt>
      <trkpt lat="42.81813" lon="1.90144">
        <ele>1300.6</ele>
        <time>2024-06-30T09:02:51Z</time>
      </trkpt>
      <trkpt lat="42.81813" lon="1.90137">
        <ele>1300.8</ele>
        <time>2024-06-30T09:02:52Z</time>
      </trkpt>
      <trkpt lat="42.81813" lon="1.9013">
        <ele>1301</ele>
        <time>2024-06-30T09:02:53Z</time>
      </trkpt>
      <trkpt lat="42.81815" lon="1.90122">
        <ele>1301</ele>
        <time>2024-06-30T09:02:54Z</time>
      </trkpt>
      <trkpt lat="42.81817" lon="1.90115">
        <ele>1301.2</ele>
        <time>2024-06-30T09:02:55Z</time>
      </trkpt>
      <trkpt lat="42.81819" lon="1.90109">
        <ele>1301.2</ele>
        <time>2024-06-30T09:02:56Z</time>
      </trkpt>
      <trkpt lat="42.81821" lon="1.90103">
        <ele>1301.2</ele>
        <time>2024-06-30T09:02:57Z</time>
      </trkpt>
      <trkpt lat="42.81823" lon="1.90098">
        <ele>1301.6</ele>
        <time>2024-06-30T09:02:58Z</time>
      </trkpt>
      <trkpt lat="42.81825" lon="1.90093">
        <ele>1301.6</ele>
        <time>2024-06-30T09:02:59Z</time>
      </trkpt>
      <trkpt lat="42.81827" lon="1.90091">
        <ele>1301.8</ele>
        <time>2024-06-30T09:03:00Z</time>
      </trkpt>
      <trkpt lat="42.81829" lon="1.90091">
        <ele>1302</ele>
        <time>2024-06-30T09:03:01Z</time>
      </trkpt>
      <trkpt lat="42.8183" lon="1.90093">
        <ele>1302.2</ele>
        <time>2024-06-30T09:03:02Z</time>
      </trkpt>
      <trkpt lat="42.8183" lon="1.90097">
        <ele>1302.4</ele>
        <time>2024-06-30T09:03:03Z</time>
      </trkpt>
      <trkpt lat="42.81831" lon="1.90101">
        <ele>1302.4</ele>
        <time>2024-06-30T09:03:04Z</time>
      </trkpt>
      <trkpt lat="42.81832" lon="1.90106">
        <ele>1302.4</ele>
        <time>2024-06-30T09:03:05Z</time>
      </trkpt>
      <trkpt lat="42.81834" lon="1.90111">
        <ele>1302.4</ele>
        <time>2024-06-30T09:03:06Z</time>
      </trkpt>
      <trkpt lat="42.81838" lon="1.90114">
        <ele>1302.4</ele>
        <time>2024-06-30T09:03:07Z</time>
      </trkpt>
      <trkpt lat="42.81843" lon="1.90115">
        <ele>1302.4</ele>
        <time>2024-06-30T09:03:08Z</time>
      </trkpt>
      <trkpt lat="42.81849" lon="1.90117">
        <ele>1302.4</ele>
        <time>2024-06-30T09:03:09Z</time>
      </trkpt>
      <trkpt lat="42.81854" lon="1.90119">
        <ele>1302.2</ele>
        <time>2024-06-30T09:03:10Z</time>
      </trkpt>
      <trkpt lat="42.81858" lon="1.90121">
        <ele>1301.8</ele>
        <time>2024-06-30T09:03:11Z</time>
      </trkpt>
      <trkpt lat="42.81862" lon="1.90124">
        <ele>1300.6</ele>
        <time>2024-06-30T09:03:12Z</time>
      </trkpt>
      <trkpt lat="42.81864" lon="1.90129">
        <ele>1299</ele>
        <time>2024-06-30T09:03:13Z</time>
      </trkpt>
      <trkpt lat="42.81866" lon="1.90136">
        <ele>1298.4</ele>
        <time>2024-06-30T09:03:14Z</time>
      </trkpt>
      <trkpt lat="42.81869" lon="1.90144">
        <ele>1297.4</ele>
        <time>2024-06-30T09:03:15Z</time>
      </trkpt>
      <trkpt lat="42.81875" lon="1.9016">
        <ele>1295.8</ele>
        <time>2024-06-30T09:03:17Z</time>
      </trkpt>
      <trkpt lat="42.81883" lon="1.90176">
        <ele>1293.8</ele>
        <time>2024-06-30T09:03:19Z</time>
      </trkpt>
      <trkpt lat="42.81888" lon="1.90182">
        <ele>1292.8</ele>
        <time>2024-06-30T09:03:20Z</time>
      </trkpt>
      <trkpt lat="42.81892" lon="1.90188">
        <ele>1292.2</ele>
        <time>2024-06-30T09:03:21Z</time>
      </trkpt>
      <trkpt lat="42.81897" lon="1.90193">
        <ele>1291</ele>
        <time>2024-06-30T09:03:22Z</time>
      </trkpt>
      <trkpt lat="42.81901" lon="1.90198">
        <ele>1290.4</ele>
        <time>2024-06-30T09:03:23Z</time>
      </trkpt>
      <trkpt lat="42.81906" lon="1.90203">
        <ele>1289</ele>
        <time>2024-06-30T09:03:24Z</time>
      </trkpt>
      <trkpt lat="42.81911" lon="1.90207">
        <ele>1288</ele>
        <time>2024-06-30T09:03:25Z</time>
      </trkpt>
      <trkpt lat="42.81915" lon="1.90212">
        <ele>1286.8</ele>
        <time>2024-06-30T09:03:26Z</time>
      </trkpt>
      <trkpt lat="42.81919" lon="1.90216">
        <ele>1285</ele>
        <time>2024-06-30T09:03:27Z</time>
      </trkpt>
      <trkpt lat="42.81923" lon="1.90219">
        <ele>1284.4</ele>
        <time>2024-06-30T09:03:28Z</time>
      </trkpt>
      <trkpt lat="42.81926" lon="1.90222">
        <ele>1283</ele>
        <time>2024-06-30T09:03:29Z</time>
      </trkpt>
      <trkpt lat="42.81929" lon="1.90225">
        <ele>1282.4</ele>
        <time>2024-06-30T09:03:30Z</time>
      </trkpt>
      <trkpt lat="42.81932" lon="1.90228">
        <ele>1280.8</ele>
        <time>2024-06-30T09:03:31Z</time>
      </trkpt>
      <trkpt lat="42.81935" lon="1.90232">
        <ele>1280.2</ele>
        <time>2024-06-30T09:03:32Z</time>
      </trkpt>
      <trkpt lat="42.8194" lon="1.90235">
        <ele>1278.8</ele>
        <time>2024-06-30T09:03:33Z</time>
      </trkpt>
      <trkpt lat="42.81945" lon="1.90239">
        <ele>1277</ele>
        <time>2024-06-30T09:03:34Z</time>
      </trkpt>
      <trkpt lat="42.81953" lon="1.90245">
        <ele>1275.8</ele>
        <time>2024-06-30T09:03:36Z</time>
      </trkpt>
      <trkpt lat="42.81956" lon="1.90247">
        <ele>1275.2</ele>
        <time>2024-06-30T09:03:37Z</time>
      </trkpt>
      <trkpt lat="42.81958" lon="1.90249">
        <ele>1273.8</ele>
        <time>2024-06-30T09:03:38Z</time>
      </trkpt>
      <trkpt lat="42.81962" lon="1.90251">
        <ele>1273.6</ele>
        <time>2024-06-30T09:03:39Z</time>
      </trkpt>
      <trkpt lat="42.81966" lon="1.90252">
        <ele>1272.8</ele>
        <time>2024-06-30T09:03:40Z</time>
      </trkpt>
      <trkpt lat="42.8197" lon="1.90255">
        <ele>1272</ele>
        <time>2024-06-30T09:03:41Z</time>
      </trkpt>
      <trkpt lat="42.81974" lon="1.90259">
        <ele>1271.8</ele>
        <time>2024-06-30T09:03:42Z</time>
      </trkpt>
      <trkpt lat="42.81976" lon="1.90266">
        <ele>1271</ele>
        <time>2024-06-30T09:03:43Z</time>
      </trkpt>
      <trkpt lat="42.81976" lon="1.90274">
        <ele>1270.8</ele>
        <time>2024-06-30T09:03:44Z</time>
      </trkpt>
      <trkpt lat="42.81976" lon="1.90283">
        <ele>1270.6</ele>
        <time>2024-06-30T09:03:45Z</time>
      </trkpt>
      <trkpt lat="42.81978" lon="1.90291">
        <ele>1270</ele>
        <time>2024-06-30T09:03:46Z</time>
      </trkpt>
      <trkpt lat="42.8198" lon="1.903">
        <ele>1269.4</ele>
        <time>2024-06-30T09:03:47Z</time>
      </trkpt>
      <trkpt lat="42.81985" lon="1.90316">
        <ele>1269</ele>
        <time>2024-06-30T09:03:49Z</time>
      </trkpt>
      <trkpt lat="42.81989" lon="1.90323">
        <ele>1268.8</ele>
        <time>2024-06-30T09:03:50Z</time>
      </trkpt>
      <trkpt lat="42.81992" lon="1.9033">
        <ele>1268.4</ele>
        <time>2024-06-30T09:03:51Z</time>
      </trkpt>
      <trkpt lat="42.82004" lon="1.9035">
        <ele>1267.2</ele>
        <time>2024-06-30T09:03:54Z</time>
      </trkpt>
      <trkpt lat="42.82017" lon="1.9037">
        <ele>1265.8</ele>
        <time>2024-06-30T09:03:57Z</time>
      </trkpt>
      <trkpt lat="42.82036" lon="1.90405">
        <ele>1265.4</ele>
        <time>2024-06-30T09:04:02Z</time>
      </trkpt>
      <trkpt lat="42.82053" lon="1.90426">
        <ele>1265.4</ele>
        <time>2024-06-30T09:04:06Z</time>
      </trkpt>
      <trkpt lat="42.82057" lon="1.90431">
        <ele>1265.4</ele>
        <time>2024-06-30T09:04:07Z</time>
      </trkpt>
      <trkpt lat="42.82061" lon="1.90435">
        <ele>1265.4</ele>
        <time>2024-06-30T09:04:08Z</time>
      </trkpt>
      <trkpt lat="42.82065" lon="1.90439">
        <ele>1265.4</ele>
        <time>2024-06-30T09:04:09Z</time>
      </trkpt>
      <trkpt lat="42.82069" lon="1.90444">
        <ele>1265.4</ele>
        <time>2024-06-30T09:04:10Z</time>
      </trkpt>
      <trkpt lat="42.82072" lon="1.90448">
        <ele>1265.4</ele>
        <time>2024-06-30T09:04:11Z</time>
      </trkpt>
      <trkpt lat="42.82076" lon="1.90452">
        <ele>1265.4</ele>
        <time>2024-06-30T09:04:12Z</time>
      </trkpt>
      <trkpt lat="42.82079" lon="1.90456">
        <ele>1265.4</ele>
        <time>2024-06-30T09:04:13Z</time>
      </trkpt>
      <trkpt lat="42.82083" lon="1.9046">
        <ele>1265.4</ele>
        <time>2024-06-30T09:04:14Z</time>
      </trkpt>
      <trkpt lat="42.82086" lon="1.90464">
        <ele>1265.4</ele>
        <time>2024-06-30T09:04:15Z</time>
      </trkpt>
      <trkpt lat="42.82089" lon="1.90467">
        <ele>1265.4</ele>
        <time>2024-06-30T09:04:16Z</time>
      </trkpt>
      <trkpt lat="42.82091" lon="1.90471">
        <ele>1265.8</ele>
        <time>2024-06-30T09:04:17Z</time>
      </trkpt>
      <trkpt lat="42.82094" lon="1.90474">
        <ele>1265.8</ele>
        <time>2024-06-30T09:04:18Z</time>
      </trkpt>
      <trkpt lat="42.82096" lon="1.90477">
        <ele>1266</ele>
        <time>2024-06-30T09:04:19Z</time>
      </trkpt>
      <trkpt lat="42.82098" lon="1.9048">
        <ele>1266</ele>
        <time>2024-06-30T09:04:20Z</time>
      </trkpt>
      <trkpt lat="42.82101" lon="1.90482">
        <ele>1266.2</ele>
        <time>2024-06-30T09:04:21Z</time>
      </trkpt>
      <trkpt lat="42.82107" lon="1.90487">
        <ele>1266.4</ele>
        <time>2024-06-30T09:04:23Z</time>
      </trkpt>
      <trkpt lat="42.82132" lon="1.90502">
        <ele>1266.8</ele>
        <time>2024-06-30T09:04:29Z</time>
      </trkpt>
      <trkpt lat="42.82159" lon="1.90512">
        <ele>1266.4</ele>
        <time>2024-06-30T09:04:33Z</time>
      </trkpt>
      <trkpt lat="42.82187" lon="1.90528">
        <ele>1264.8</ele>
        <time>2024-06-30T09:04:37Z</time>
      </trkpt>
      <trkpt lat="42.82194" lon="1.90535">
        <ele>1264</ele>
        <time>2024-06-30T09:04:38Z</time>
      </trkpt>
      <trkpt lat="42.82199" lon="1.90543">
        <ele>1263</ele>
        <time>2024-06-30T09:04:39Z</time>
      </trkpt>
      <trkpt lat="42.82204" lon="1.90553">
        <ele>1262.6</ele>
        <time>2024-06-30T09:04:40Z</time>
      </trkpt>
      <trkpt lat="42.82207" lon="1.90564">
        <ele>1261.8</ele>
        <time>2024-06-30T09:04:41Z</time>
      </trkpt>
      <trkpt lat="42.82211" lon="1.90575">
        <ele>1261.6</ele>
        <time>2024-06-30T09:04:42Z</time>
      </trkpt>
      <trkpt lat="42.82219" lon="1.9061">
        <ele>1259.6</ele>
        <time>2024-06-30T09:04:45Z</time>
      </trkpt>
      <trkpt lat="42.82222" lon="1.90623">
        <ele>1258</ele>
        <time>2024-06-30T09:04:46Z</time>
      </trkpt>
      <trkpt lat="42.82225" lon="1.90636">
        <ele>1257.4</ele>
        <time>2024-06-30T09:04:47Z</time>
      </trkpt>
      <trkpt lat="42.82227" lon="1.90649">
        <ele>1256.6</ele>
        <time>2024-06-30T09:04:48Z</time>
      </trkpt>
      <trkpt lat="42.82232" lon="1.90675">
        <ele>1255.4</ele>
        <time>2024-06-30T09:04:50Z</time>
      </trkpt>
      <trkpt lat="42.82234" lon="1.90688">
        <ele>1255</ele>
        <time>2024-06-30T09:04:51Z</time>
      </trkpt>
      <trkpt lat="42.82237" lon="1.90701">
        <ele>1254.4</ele>
        <time>2024-06-30T09:04:52Z</time>
      </trkpt>
      <trkpt lat="42.8224" lon="1.90714">
        <ele>1253.8</ele>
        <time>2024-06-30T09:04:53Z</time>
      </trkpt>
      <trkpt lat="42.82242" lon="1.90725">
        <ele>1253.6</ele>
        <time>2024-06-30T09:04:54Z</time>
      </trkpt>
      <trkpt lat="42.82243" lon="1.90735">
        <ele>1252.8</ele>
        <time>2024-06-30T09:04:55Z</time>
      </trkpt>
      <trkpt lat="42.82242" lon="1.90744">
        <ele>1252</ele>
        <time>2024-06-30T09:04:56Z</time>
      </trkpt>
      <trkpt lat="42.82238" lon="1.90754">
        <ele>1250.6</ele>
        <time>2024-06-30T09:04:57Z</time>
      </trkpt>
      <trkpt lat="42.82234" lon="1.90762">
        <ele>1250</ele>
        <time>2024-06-30T09:04:58Z</time>
      </trkpt>
      <trkpt lat="42.82229" lon="1.90769">
        <ele>1249.6</ele>
        <time>2024-06-30T09:04:59Z</time>
      </trkpt>
      <trkpt lat="42.82224" lon="1.90775">
        <ele>1248.4</ele>
        <time>2024-06-30T09:05:00Z</time>
      </trkpt>
      <trkpt lat="42.82219" lon="1.90781">
        <ele>1248</ele>
        <time>2024-06-30T09:05:01Z</time>
      </trkpt>
      <trkpt lat="42.82216" lon="1.90787">
        <ele>1247</ele>
        <time>2024-06-30T09:05:02Z</time>
      </trkpt>
      <trkpt lat="42.82212" lon="1.90792">
        <ele>1246.8</ele>
        <time>2024-06-30T09:05:03Z</time>
      </trkpt>
      <trkpt lat="42.82209" lon="1.90797">
        <ele>1246.4</ele>
        <time>2024-06-30T09:05:04Z</time>
      </trkpt>
      <trkpt lat="42.82206" lon="1.90802">
        <ele>1246.2</ele>
        <time>2024-06-30T09:05:05Z</time>
      </trkpt>
      <trkpt lat="42.82203" lon="1.90808">
        <ele>1245.8</ele>
        <time>2024-06-30T09:05:06Z</time>
      </trkpt>
      <trkpt lat="42.82197" lon="1.90818">
        <ele>1245.4</ele>
        <time>2024-06-30T09:05:08Z</time>
      </trkpt>
      <trkpt lat="42.82195" lon="1.90823">
        <ele>1245</ele>
        <time>2024-06-30T09:05:09Z</time>
      </trkpt>
      <trkpt lat="42.82192" lon="1.90827">
        <ele>1245</ele>
        <time>2024-06-30T09:05:10Z</time>
      </trkpt>
      <trkpt lat="42.82189" lon="1.90831">
        <ele>1244.8</ele>
        <time>2024-06-30T09:05:11Z</time>
      </trkpt>
      <trkpt lat="42.82186" lon="1.90834">
        <ele>1244.8</ele>
        <time>2024-06-30T09:05:12Z</time>
      </trkpt>
      <trkpt lat="42.82184" lon="1.90838">
        <ele>1244.8</ele>
        <time>2024-06-30T09:05:13Z</time>
      </trkpt>
      <trkpt lat="42.82181" lon="1.90842">
        <ele>1244.6</ele>
        <time>2024-06-30T09:05:14Z</time>
      </trkpt>
      <trkpt lat="42.82172" lon="1.90858">
        <ele>1244.6</ele>
        <time>2024-06-30T09:05:18Z</time>
      </trkpt>
      <trkpt lat="42.82167" lon="1.90866">
        <ele>1244.4</ele>
        <time>2024-06-30T09:05:20Z</time>
      </trkpt>
      <trkpt lat="42.8216" lon="1.90879">
        <ele>1244.4</ele>
        <time>2024-06-30T09:05:23Z</time>
      </trkpt>
      <trkpt lat="42.82131" lon="1.90923">
        <ele>1244.4</ele>
        <time>2024-06-30T09:05:34Z</time>
      </trkpt>
      <trkpt lat="42.821" lon="1.90965">
        <ele>1244.2</ele>
        <time>2024-06-30T09:05:44Z</time>
      </trkpt>
      <trkpt lat="42.82076" lon="1.90992">
        <ele>1244</ele>
        <time>2024-06-30T09:05:51Z</time>
      </trkpt>
      <trkpt lat="42.82069" lon="1.90999">
        <ele>1244.2</ele>
        <time>2024-06-30T09:05:53Z</time>
      </trkpt>
      <trkpt lat="42.82066" lon="1.91002">
        <ele>1244.2</ele>
        <time>2024-06-30T09:05:54Z</time>
      </trkpt>
      <trkpt lat="42.82063" lon="1.91005">
        <ele>1244.2</ele>
        <time>2024-06-30T09:05:55Z</time>
      </trkpt>
      <trkpt lat="42.8206" lon="1.91008">
        <ele>1244.2</ele>
        <time>2024-06-30T09:05:56Z</time>
      </trkpt>
      <trkpt lat="42.82057" lon="1.9101">
        <ele>1244.2</ele>
        <time>2024-06-30T09:05:57Z</time>
      </trkpt>
      <trkpt lat="42.82051" lon="1.91015">
        <ele>1244.4</ele>
        <time>2024-06-30T09:05:59Z</time>
      </trkpt>
      <trkpt lat="42.82048" lon="1.91018">
        <ele>1244.4</ele>
        <time>2024-06-30T09:06:00Z</time>
      </trkpt>
      <trkpt lat="42.82044" lon="1.91021">
        <ele>1244.4</ele>
        <time>2024-06-30T09:06:01Z</time>
      </trkpt>
      <trkpt lat="42.82041" lon="1.91023">
        <ele>1244.6</ele>
        <time>2024-06-30T09:06:02Z</time>
      </trkpt>
      <trkpt lat="42.82038" lon="1.91025">
        <ele>1244.6</ele>
        <time>2024-06-30T09:06:03Z</time>
      </trkpt>
      <trkpt lat="42.82035" lon="1.91028">
        <ele>1244.8</ele>
        <time>2024-06-30T09:06:04Z</time>
      </trkpt>
      <trkpt lat="42.82021" lon="1.91042">
        <ele>1245.2</ele>
        <time>2024-06-30T09:06:09Z</time>
      </trkpt>
      <trkpt lat="42.82006" lon="1.91058">
        <ele>1245.8</ele>
        <time>2024-06-30T09:06:14Z</time>
      </trkpt>
      <trkpt lat="42.82001" lon="1.91063">
        <ele>1246</ele>
        <time>2024-06-30T09:06:16Z</time>
      </trkpt>
      <trkpt lat="42.81997" lon="1.91066">
        <ele>1246</ele>
        <time>2024-06-30T09:06:17Z</time>
      </trkpt>
      <trkpt lat="42.81992" lon="1.91072">
        <ele>1246.2</ele>
        <time>2024-06-30T09:06:19Z</time>
      </trkpt>
      <trkpt lat="42.81963" lon="1.91099">
        <ele>1246.6</ele>
        <time>2024-06-30T09:06:29Z</time>
      </trkpt>
      <trkpt lat="42.81958" lon="1.91104">
        <ele>1246.8</ele>
        <time>2024-06-30T09:06:31Z</time>
      </trkpt>
      <trkpt lat="42.81956" lon="1.91106">
        <ele>1246.8</ele>
        <time>2024-06-30T09:06:32Z</time>
      </trkpt>
      <trkpt lat="42.81954" lon="1.91109">
        <ele>1247</ele>
        <time>2024-06-30T09:06:33Z</time>
      </trkpt>
      <trkpt lat="42.81951" lon="1.91112">
        <ele>1247</ele>
        <time>2024-06-30T09:06:34Z</time>
      </trkpt>
      <trkpt lat="42.8194" lon="1.91131">
        <ele>1247.8</ele>
        <time>2024-06-30T09:06:39Z</time>
      </trkpt>
      <trkpt lat="42.81938" lon="1.91134">
        <ele>1248</ele>
        <time>2024-06-30T09:06:40Z</time>
      </trkpt>
      <trkpt lat="42.81923" lon="1.91158">
        <ele>1248.8</ele>
        <time>2024-06-30T09:06:47Z</time>
      </trkpt>
      <trkpt lat="42.81921" lon="1.91162">
        <ele>1249.2</ele>
        <time>2024-06-30T09:06:48Z</time>
      </trkpt>
      <trkpt lat="42.81919" lon="1.91165">
        <ele>1249.2</ele>
        <time>2024-06-30T09:06:49Z</time>
      </trkpt>
      <trkpt lat="42.81916" lon="1.91169">
        <ele>1249.2</ele>
        <time>2024-06-30T09:06:50Z</time>
      </trkpt>
      <trkpt lat="42.81914" lon="1.91173">
        <ele>1249.4</ele>
        <time>2024-06-30T09:06:51Z</time>
      </trkpt>
      <trkpt lat="42.81912" lon="1.91176">
        <ele>1249.6</ele>
        <time>2024-06-30T09:06:52Z</time>
      </trkpt>
      <trkpt lat="42.8191" lon="1.9118">
        <ele>1249.6</ele>
        <time>2024-06-30T09:06:53Z</time>
      </trkpt>
      <trkpt lat="42.81908" lon="1.91183">
        <ele>1249.8</ele>
        <time>2024-06-30T09:06:54Z</time>
      </trkpt>
      <trkpt lat="42.81905" lon="1.91187">
        <ele>1249.8</ele>
        <time>2024-06-30T09:06:55Z</time>
      </trkpt>
      <trkpt lat="42.81903" lon="1.91191">
        <ele>1250.2</ele>
        <time>2024-06-30T09:06:56Z</time>
      </trkpt>
      <trkpt lat="42.81901" lon="1.91194">
        <ele>1250.4</ele>
        <time>2024-06-30T09:06:57Z</time>
      </trkpt>
      <trkpt lat="42.81898" lon="1.91198">
        <ele>1250.4</ele>
        <time>2024-06-30T09:06:58Z</time>
      </trkpt>
      <trkpt lat="42.81896" lon="1.91201">
        <ele>1250.6</ele>
        <time>2024-06-30T09:06:59Z</time>
      </trkpt>
      <trkpt lat="42.81894" lon="1.91204">
        <ele>1251</ele>
        <time>2024-06-30T09:07:00Z</time>
      </trkpt>
      <trkpt lat="42.81891" lon="1.91208">
        <ele>1251.2</ele>
        <time>2024-06-30T09:07:01Z</time>
      </trkpt>
      <trkpt lat="42.81889" lon="1.91211">
        <ele>1251.2</ele>
        <time>2024-06-30T09:07:02Z</time>
      </trkpt>
      <trkpt lat="42.81887" lon="1.91215">
        <ele>1251.4</ele>
        <time>2024-06-30T09:07:03Z</time>
      </trkpt>
      <trkpt lat="42.81885" lon="1.91218">
        <ele>1251.4</ele>
        <time>2024-06-30T09:07:04Z</time>
      </trkpt>
      <trkpt lat="42.81882" lon="1.91222">
        <ele>1251.6</ele>
        <time>2024-06-30T09:07:05Z</time>
      </trkpt>
      <trkpt lat="42.81881" lon="1.91225">
        <ele>1251.6</ele>
        <time>2024-06-30T09:07:06Z</time>
      </trkpt>
      <trkpt lat="42.81879" lon="1.91228">
        <ele>1252</ele>
        <time>2024-06-30T09:07:07Z</time>
      </trkpt>
      <trkpt lat="42.81877" lon="1.91231">
        <ele>1252.2</ele>
        <time>2024-06-30T09:07:08Z</time>
      </trkpt>
      <trkpt lat="42.81874" lon="1.91234">
        <ele>1252.2</ele>
        <time>2024-06-30T09:07:09Z</time>
      </trkpt>
      <trkpt lat="42.81872" lon="1.91237">
        <ele>1252.6</ele>
        <time>2024-06-30T09:07:10Z</time>
      </trkpt>
      <trkpt lat="42.8187" lon="1.91239">
        <ele>1252.6</ele>
        <time>2024-06-30T09:07:11Z</time>
      </trkpt>
      <trkpt lat="42.81868" lon="1.91242">
        <ele>1253</ele>
        <time>2024-06-30T09:07:12Z</time>
      </trkpt>
      <trkpt lat="42.81866" lon="1.91245">
        <ele>1253</ele>
        <time>2024-06-30T09:07:13Z</time>
      </trkpt>
      <trkpt lat="42.81863" lon="1.91249">
        <ele>1253.2</ele>
        <time>2024-06-30T09:07:14Z</time>
      </trkpt>
      <trkpt lat="42.81861" lon="1.91251">
        <ele>1253.2</ele>
        <time>2024-06-30T09:07:15Z</time>
      </trkpt>
      <trkpt lat="42.81859" lon="1.91254">
        <ele>1253.2</ele>
        <time>2024-06-30T09:07:16Z</time>
      </trkpt>
      <trkpt lat="42.81856" lon="1.91257">
        <ele>1253.2</ele>
        <time>2024-06-30T09:07:17Z</time>
      </trkpt>
      <trkpt lat="42.81853" lon="1.91261">
        <ele>1253.4</ele>
        <time>2024-06-30T09:07:18Z</time>
      </trkpt>
      <trkpt lat="42.81851" lon="1.91263">
        <ele>1253.8</ele>
        <time>2024-06-30T09:07:19Z</time>
      </trkpt>
      <trkpt lat="42.81849" lon="1.91267">
        <ele>1253.8</ele>
        <time>2024-06-30T09:07:20Z</time>
      </trkpt>
      <trkpt lat="42.81846" lon="1.9127">
        <ele>1254</ele>
        <time>2024-06-30T09:07:21Z</time>
      </trkpt>
      <trkpt lat="42.81844" lon="1.91273">
        <ele>1254.2</ele>
        <time>2024-06-30T09:07:22Z</time>
      </trkpt>
      <trkpt lat="42.81842" lon="1.91276">
        <ele>1254.6</ele>
        <time>2024-06-30T09:07:23Z</time>
      </trkpt>
      <trkpt lat="42.81839" lon="1.91279">
        <ele>1254.6</ele>
        <time>2024-06-30T09:07:24Z</time>
      </trkpt>
      <trkpt lat="42.81837" lon="1.91282">
        <ele>1254.8</ele>
        <time>2024-06-30T09:07:25Z</time>
      </trkpt>
      <trkpt lat="42.81835" lon="1.91286">
        <ele>1255</ele>
        <time>2024-06-30T09:07:26Z</time>
      </trkpt>
      <trkpt lat="42.81832" lon="1.91289">
        <ele>1255</ele>
        <time>2024-06-30T09:07:27Z</time>
      </trkpt>
      <trkpt lat="42.8183" lon="1.91292">
        <ele>1255.2</ele>
        <time>2024-06-30T09:07:28Z</time>
      </trkpt>
      <trkpt lat="42.81828" lon="1.91295">
        <ele>1255.2</ele>
        <time>2024-06-30T09:07:29Z</time>
      </trkpt>
      <trkpt lat="42.81826" lon="1.91298">
        <ele>1255.4</ele>
        <time>2024-06-30T09:07:30Z</time>
      </trkpt>
      <trkpt lat="42.81824" lon="1.91302">
        <ele>1255.6</ele>
        <time>2024-06-30T09:07:31Z</time>
      </trkpt>
      <trkpt lat="42.81821" lon="1.91305">
        <ele>1255.6</ele>
        <time>2024-06-30T09:07:32Z</time>
      </trkpt>
      <trkpt lat="42.81819" lon="1.91309">
        <ele>1255.8</ele>
        <time>2024-06-30T09:07:33Z</time>
      </trkpt>
      <trkpt lat="42.81817" lon="1.91312">
        <ele>1256</ele>
        <time>2024-06-30T09:07:34Z</time>
      </trkpt>
      <trkpt lat="42.81814" lon="1.91316">
        <ele>1256.2</ele>
        <time>2024-06-30T09:07:35Z</time>
      </trkpt>
      <trkpt lat="42.81812" lon="1.91319">
        <ele>1256.4</ele>
        <time>2024-06-30T09:07:36Z</time>
      </trkpt>
      <trkpt lat="42.81809" lon="1.91323">
        <ele>1256.6</ele>
        <time>2024-06-30T09:07:37Z</time>
      </trkpt>
      <trkpt lat="42.81807" lon="1.91326">
        <ele>1256.8</ele>
        <time>2024-06-30T09:07:38Z</time>
      </trkpt>
      <trkpt lat="42.81804" lon="1.91331">
        <ele>1256.8</ele>
        <time>2024-06-30T09:07:39Z</time>
      </trkpt>
      <trkpt lat="42.81802" lon="1.91334">
        <ele>1257.2</ele>
        <time>2024-06-30T09:07:40Z</time>
      </trkpt>
      <trkpt lat="42.818" lon="1.91337">
        <ele>1257.2</ele>
        <time>2024-06-30T09:07:41Z</time>
      </trkpt>
      <trkpt lat="42.81798" lon="1.91341">
        <ele>1257.4</ele>
        <time>2024-06-30T09:07:42Z</time>
      </trkpt>
      <trkpt lat="42.81796" lon="1.91344">
        <ele>1257.6</ele>
        <time>2024-06-30T09:07:43Z</time>
      </trkpt>
      <trkpt lat="42.81793" lon="1.91347">
        <ele>1257.8</ele>
        <time>2024-06-30T09:07:44Z</time>
      </trkpt>
      <trkpt lat="42.81791" lon="1.9135">
        <ele>1258</ele>
        <time>2024-06-30T09:07:45Z</time>
      </trkpt>
      <trkpt lat="42.81789" lon="1.91354">
        <ele>1258.2</ele>
        <time>2024-06-30T09:07:46Z</time>
      </trkpt>
      <trkpt lat="42.81787" lon="1.91357">
        <ele>1258.2</ele>
        <time>2024-06-30T09:07:47Z</time>
      </trkpt>
      <trkpt lat="42.81784" lon="1.91361">
        <ele>1258.4</ele>
        <time>2024-06-30T09:07:48Z</time>
      </trkpt>
      <trkpt lat="42.81782" lon="1.91364">
        <ele>1258.4</ele>
        <time>2024-06-30T09:07:49Z</time>
      </trkpt>
      <trkpt lat="42.8178" lon="1.91368">
        <ele>1258.6</ele>
        <time>2024-06-30T09:07:50Z</time>
      </trkpt>
      <trkpt lat="42.81777" lon="1.91371">
        <ele>1258.8</ele>
        <time>2024-06-30T09:07:51Z</time>
      </trkpt>
      <trkpt lat="42.81775" lon="1.91374">
        <ele>1258.8</ele>
        <time>2024-06-30T09:07:52Z</time>
      </trkpt>
      <trkpt lat="42.81772" lon="1.91378">
        <ele>1259</ele>
        <time>2024-06-30T09:07:53Z</time>
      </trkpt>
      <trkpt lat="42.8177" lon="1.91381">
        <ele>1259.2</ele>
        <time>2024-06-30T09:07:54Z</time>
      </trkpt>
      <trkpt lat="42.81768" lon="1.91385">
        <ele>1259.2</ele>
        <time>2024-06-30T09:07:55Z</time>
      </trkpt>
      <trkpt lat="42.81765" lon="1.91389">
        <ele>1259.4</ele>
        <time>2024-06-30T09:07:56Z</time>
      </trkpt>
      <trkpt lat="42.81762" lon="1.91392">
        <ele>1259.4</ele>
        <time>2024-06-30T09:07:57Z</time>
      </trkpt>
      <trkpt lat="42.8176" lon="1.91396">
        <ele>1259.6</ele>
        <time>2024-06-30T09:07:58Z</time>
      </trkpt>
      <trkpt lat="42.81757" lon="1.91399">
        <ele>1259.8</ele>
        <time>2024-06-30T09:07:59Z</time>
      </trkpt>
      <trkpt lat="42.81754" lon="1.91403">
        <ele>1260</ele>
        <time>2024-06-30T09:08:00Z</time>
      </trkpt>
      <trkpt lat="42.81752" lon="1.91406">
        <ele>1260.2</ele>
        <time>2024-06-30T09:08:01Z</time>
      </trkpt>
      <trkpt lat="42.81749" lon="1.9141">
        <ele>1260.2</ele>
        <time>2024-06-30T09:08:02Z</time>
      </trkpt>
      <trkpt lat="42.81745" lon="1.91413">
        <ele>1260.2</ele>
        <time>2024-06-30T09:08:03Z</time>
      </trkpt>
      <trkpt lat="42.81742" lon="1.91416">
        <ele>1260.4</ele>
        <time>2024-06-30T09:08:04Z</time>
      </trkpt>
      <trkpt lat="42.81739" lon="1.91419">
        <ele>1260.4</ele>
        <time>2024-06-30T09:08:05Z</time>
      </trkpt>
      <trkpt lat="42.81736" lon="1.91423">
        <ele>1260.8</ele>
        <time>2024-06-30T09:08:06Z</time>
      </trkpt>
      <trkpt lat="42.81733" lon="1.91427">
        <ele>1260.8</ele>
        <time>2024-06-30T09:08:07Z</time>
      </trkpt>
      <trkpt lat="42.8173" lon="1.91431">
        <ele>1260.8</ele>
        <time>2024-06-30T09:08:08Z</time>
      </trkpt>
      <trkpt lat="42.81727" lon="1.91435">
        <ele>1261</ele>
        <time>2024-06-30T09:08:09Z</time>
      </trkpt>
      <trkpt lat="42.81724" lon="1.91439">
        <ele>1261</ele>
        <time>2024-06-30T09:08:10Z</time>
      </trkpt>
      <trkpt lat="42.81721" lon="1.91444">
        <ele>1261.2</ele>
        <time>2024-06-30T09:08:11Z</time>
      </trkpt>
      <trkpt lat="42.81719" lon="1.91448">
        <ele>1261.2</ele>
        <time>2024-06-30T09:08:12Z</time>
      </trkpt>
      <trkpt lat="42.81716" lon="1.91452">
        <ele>1261.2</ele>
        <time>2024-06-30T09:08:13Z</time>
      </trkpt>
      <trkpt lat="42.81713" lon="1.91457">
        <ele>1261</ele>
        <time>2024-06-30T09:08:14Z</time>
      </trkpt>
      <trkpt lat="42.8171" lon="1.91461">
        <ele>1261.2</ele>
        <time>2024-06-30T09:08:15Z</time>
      </trkpt>
      <trkpt lat="42.81708" lon="1.91465">
        <ele>1261.2</ele>
        <time>2024-06-30T09:08:16Z</time>
      </trkpt>
      <trkpt lat="42.81705" lon="1.91469">
        <ele>1261.2</ele>
        <time>2024-06-30T09:08:17Z</time>
      </trkpt>
      <trkpt lat="42.81702" lon="1.91473">
        <ele>1261</ele>
        <time>2024-06-30T09:08:18Z</time>
      </trkpt>
      <trkpt lat="42.81699" lon="1.91477">
        <ele>1261.2</ele>
        <time>2024-06-30T09:08:19Z</time>
      </trkpt>
      <trkpt lat="42.81696" lon="1.91481">
        <ele>1261.2</ele>
        <time>2024-06-30T09:08:20Z</time>
      </trkpt>
      <trkpt lat="42.81685" lon="1.91497">
        <ele>1261.6</ele>
        <time>2024-06-30T09:08:24Z</time>
      </trkpt>
      <trkpt lat="42.81682" lon="1.91501">
        <ele>1261.8</ele>
        <time>2024-06-30T09:08:25Z</time>
      </trkpt>
      <trkpt lat="42.81679" lon="1.91505">
        <ele>1262</ele>
        <time>2024-06-30T09:08:26Z</time>
      </trkpt>
      <trkpt lat="42.81673" lon="1.91516">
        <ele>1262.2</ele>
        <time>2024-06-30T09:08:29Z</time>
      </trkpt>
      <trkpt lat="42.81671" lon="1.9152">
        <ele>1262.2</ele>
        <time>2024-06-30T09:08:30Z</time>
      </trkpt>
      <trkpt lat="42.81668" lon="1.91524">
        <ele>1262.2</ele>
        <time>2024-06-30T09:08:31Z</time>
      </trkpt>
      <trkpt lat="42.81666" lon="1.91527">
        <ele>1262.2</ele>
        <time>2024-06-30T09:08:32Z</time>
      </trkpt>
      <trkpt lat="42.81664" lon="1.91531">
        <ele>1262.4</ele>
        <time>2024-06-30T09:08:33Z</time>
      </trkpt>
      <trkpt lat="42.81662" lon="1.91535">
        <ele>1262.4</ele>
        <time>2024-06-30T09:08:34Z</time>
      </trkpt>
      <trkpt lat="42.81661" lon="1.91538">
        <ele>1262.4</ele>
        <time>2024-06-30T09:08:35Z</time>
      </trkpt>
      <trkpt lat="42.81659" lon="1.91541">
        <ele>1262.4</ele>
        <time>2024-06-30T09:08:36Z</time>
      </trkpt>
      <trkpt lat="42.81657" lon="1.91545">
        <ele>1262.4</ele>
        <time>2024-06-30T09:08:37Z</time>
      </trkpt>
      <trkpt lat="42.81655" lon="1.91548">
        <ele>1262.6</ele>
        <time>2024-06-30T09:08:38Z</time>
      </trkpt>
      <trkpt lat="42.81652" lon="1.91551">
        <ele>1262.6</ele>
        <time>2024-06-30T09:08:39Z</time>
      </trkpt>
      <trkpt lat="42.81651" lon="1.91554">
        <ele>1263</ele>
        <time>2024-06-30T09:08:40Z</time>
      </trkpt>
      <trkpt lat="42.81649" lon="1.91556">
        <ele>1263</ele>
        <time>2024-06-30T09:08:41Z</time>
      </trkpt>
      <trkpt lat="42.81647" lon="1.9156">
        <ele>1263.2</ele>
        <time>2024-06-30T09:08:42Z</time>
      </trkpt>
      <trkpt lat="42.81645" lon="1.91562">
        <ele>1263.2</ele>
        <time>2024-06-30T09:08:43Z</time>
      </trkpt>
      <trkpt lat="42.81643" lon="1.91565">
        <ele>1263.4</ele>
        <time>2024-06-30T09:08:44Z</time>
      </trkpt>
      <trkpt lat="42.81641" lon="1.91567">
        <ele>1263.8</ele>
        <time>2024-06-30T09:08:45Z</time>
      </trkpt>
      <trkpt lat="42.81639" lon="1.9157">
        <ele>1263.8</ele>
        <time>2024-06-30T09:08:46Z</time>
      </trkpt>
      <trkpt lat="42.81638" lon="1.91573">
        <ele>1264</ele>
        <time>2024-06-30T09:08:47Z</time>
      </trkpt>
      <trkpt lat="42.81635" lon="1.91576">
        <ele>1264.2</ele>
        <time>2024-06-30T09:08:48Z</time>
      </trkpt>
      <trkpt lat="42.81631" lon="1.91581">
        <ele>1264.8</ele>
        <time>2024-06-30T09:08:50Z</time>
      </trkpt>
      <trkpt lat="42.81629" lon="1.91584">
        <ele>1265</ele>
        <time>2024-06-30T09:08:51Z</time>
      </trkpt>
      <trkpt lat="42.81627" lon="1.91586">
        <ele>1265</ele>
        <time>2024-06-30T09:08:52Z</time>
      </trkpt>
      <trkpt lat="42.81625" lon="1.91589">
        <ele>1265.2</ele>
        <time>2024-06-30T09:08:53Z</time>
      </trkpt>
      <trkpt lat="42.81623" lon="1.91592">
        <ele>1265.6</ele>
        <time>2024-06-30T09:08:54Z</time>
      </trkpt>
      <trkpt lat="42.8162" lon="1.91595">
        <ele>1265.6</ele>
        <time>2024-06-30T09:08:55Z</time>
      </trkpt>
      <trkpt lat="42.81618" lon="1.91597">
        <ele>1266</ele>
        <time>2024-06-30T09:08:56Z</time>
      </trkpt>
      <trkpt lat="42.81617" lon="1.916">
        <ele>1266.4</ele>
        <time>2024-06-30T09:08:57Z</time>
      </trkpt>
      <trkpt lat="42.81615" lon="1.91602">
        <ele>1266.4</ele>
        <time>2024-06-30T09:08:58Z</time>
      </trkpt>
      <trkpt lat="42.81613" lon="1.91605">
        <ele>1266.6</ele>
        <time>2024-06-30T09:08:59Z</time>
      </trkpt>
      <trkpt lat="42.81611" lon="1.91608">
        <ele>1266.6</ele>
        <time>2024-06-30T09:09:00Z</time>
      </trkpt>
      <trkpt lat="42.81608" lon="1.9161">
        <ele>1267</ele>
        <time>2024-06-30T09:09:01Z</time>
      </trkpt>
      <trkpt lat="42.81606" lon="1.91613">
        <ele>1267</ele>
        <time>2024-06-30T09:09:02Z</time>
      </trkpt>
      <trkpt lat="42.81605" lon="1.91616">
        <ele>1267.2</ele>
        <time>2024-06-30T09:09:03Z</time>
      </trkpt>
      <trkpt lat="42.81603" lon="1.91618">
        <ele>1267.4</ele>
        <time>2024-06-30T09:09:04Z</time>
      </trkpt>
      <trkpt lat="42.81601" lon="1.91621">
        <ele>1267.6</ele>
        <time>2024-06-30T09:09:05Z</time>
      </trkpt>
      <trkpt lat="42.81599" lon="1.91623">
        <ele>1268.2</ele>
        <time>2024-06-30T09:09:06Z</time>
      </trkpt>
      <trkpt lat="42.81596" lon="1.91625">
        <ele>1268.2</ele>
        <time>2024-06-30T09:09:07Z</time>
      </trkpt>
      <trkpt lat="42.81595" lon="1.91627">
        <ele>1268.6</ele>
        <time>2024-06-30T09:09:08Z</time>
      </trkpt>
      <trkpt lat="42.81593" lon="1.91629">
        <ele>1268.6</ele>
        <time>2024-06-30T09:09:09Z</time>
      </trkpt>
      <trkpt lat="42.81591" lon="1.91632">
        <ele>1268.8</ele>
        <time>2024-06-30T09:09:10Z</time>
      </trkpt>
      <trkpt lat="42.81589" lon="1.91634">
        <ele>1269</ele>
        <time>2024-06-30T09:09:11Z</time>
      </trkpt>
      <trkpt lat="42.81588" lon="1.91636">
        <ele>1269.2</ele>
        <time>2024-06-30T09:09:12Z</time>
      </trkpt>
      <trkpt lat="42.81586" lon="1.91639">
        <ele>1269.4</ele>
        <time>2024-06-30T09:09:13Z</time>
      </trkpt>
      <trkpt lat="42.81584" lon="1.91642">
        <ele>1269.4</ele>
        <time>2024-06-30T09:09:14Z</time>
      </trkpt>
      <trkpt lat="42.81582" lon="1.91644">
        <ele>1269.6</ele>
        <time>2024-06-30T09:09:15Z</time>
      </trkpt>
      <trkpt lat="42.8158" lon="1.91647">
        <ele>1269.6</ele>
        <time>2024-06-30T09:09:16Z</time>
      </trkpt>
      <trkpt lat="42.81578" lon="1.9165">
        <ele>1269.8</ele>
        <time>2024-06-30T09:09:17Z</time>
      </trkpt>
      <trkpt lat="42.81576" lon="1.91653">
        <ele>1270</ele>
        <time>2024-06-30T09:09:18Z</time>
      </trkpt>
      <trkpt lat="42.81574" lon="1.91656">
        <ele>1270.4</ele>
        <time>2024-06-30T09:09:19Z</time>
      </trkpt>
      <trkpt lat="42.81573" lon="1.91657">
        <ele>1270.8</ele>
        <time>2024-06-30T09:09:20Z</time>
      </trkpt>
      <trkpt lat="42.81571" lon="1.9166">
        <ele>1271.2</ele>
        <time>2024-06-30T09:09:21Z</time>
      </trkpt>
      <trkpt lat="42.81569" lon="1.91662">
        <ele>1271.4</ele>
        <time>2024-06-30T09:09:22Z</time>
      </trkpt>
      <trkpt lat="42.81567" lon="1.91664">
        <ele>1271.6</ele>
        <time>2024-06-30T09:09:23Z</time>
      </trkpt>
      <trkpt lat="42.81565" lon="1.91666">
        <ele>1271.6</ele>
        <time>2024-06-30T09:09:24Z</time>
      </trkpt>
      <trkpt lat="42.81563" lon="1.91669">
        <ele>1271.8</ele>
        <time>2024-06-30T09:09:25Z</time>
      </trkpt>
      <trkpt lat="42.81562" lon="1.91671">
        <ele>1272</ele>
        <time>2024-06-30T09:09:26Z</time>
      </trkpt>
      <trkpt lat="42.8156" lon="1.91673">
        <ele>1272.2</ele>
        <time>2024-06-30T09:09:27Z</time>
      </trkpt>
      <trkpt lat="42.81558" lon="1.91676">
        <ele>1272.2</ele>
        <time>2024-06-30T09:09:28Z</time>
      </trkpt>
      <trkpt lat="42.81556" lon="1.91678">
        <ele>1272.6</ele>
        <time>2024-06-30T09:09:29Z</time>
      </trkpt>
      <trkpt lat="42.81555" lon="1.91681">
        <ele>1272.8</ele>
        <time>2024-06-30T09:09:30Z</time>
      </trkpt>
      <trkpt lat="42.81553" lon="1.91683">
        <ele>1273</ele>
        <time>2024-06-30T09:09:31Z</time>
      </trkpt>
      <trkpt lat="42.81552" lon="1.91685">
        <ele>1273.2</ele>
        <time>2024-06-30T09:09:32Z</time>
      </trkpt>
      <trkpt lat="42.8155" lon="1.91687">
        <ele>1273.4</ele>
        <time>2024-06-30T09:09:33Z</time>
      </trkpt>
      <trkpt lat="42.81549" lon="1.91688">
        <ele>1273.8</ele>
        <time>2024-06-30T09:09:34Z</time>
      </trkpt>
      <trkpt lat="42.81548" lon="1.91691">
        <ele>1274</ele>
        <time>2024-06-30T09:09:35Z</time>
      </trkpt>
      <trkpt lat="42.81546" lon="1.91693">
        <ele>1274.2</ele>
        <time>2024-06-30T09:09:36Z</time>
      </trkpt>
      <trkpt lat="42.81544" lon="1.91695">
        <ele>1274.4</ele>
        <time>2024-06-30T09:09:37Z</time>
      </trkpt>
      <trkpt lat="42.81543" lon="1.91696">
        <ele>1274.6</ele>
        <time>2024-06-30T09:09:38Z</time>
      </trkpt>
      <trkpt lat="42.81541" lon="1.91698">
        <ele>1275</ele>
        <time>2024-06-30T09:09:39Z</time>
      </trkpt>
      <trkpt lat="42.8154" lon="1.917">
        <ele>1275.2</ele>
        <time>2024-06-30T09:09:40Z</time>
      </trkpt>
      <trkpt lat="42.81538" lon="1.91703">
        <ele>1275.4</ele>
        <time>2024-06-30T09:09:41Z</time>
      </trkpt>
      <trkpt lat="42.81537" lon="1.91705">
        <ele>1275.8</ele>
        <time>2024-06-30T09:09:42Z</time>
      </trkpt>
      <trkpt lat="42.81535" lon="1.91708">
        <ele>1276.4</ele>
        <time>2024-06-30T09:09:43Z</time>
      </trkpt>
      <trkpt lat="42.81533" lon="1.9171">
        <ele>1276.6</ele>
        <time>2024-06-30T09:09:44Z</time>
      </trkpt>
      <trkpt lat="42.81532" lon="1.91712">
        <ele>1276.8</ele>
        <time>2024-06-30T09:09:45Z</time>
      </trkpt>
      <trkpt lat="42.8153" lon="1.91714">
        <ele>1277.2</ele>
        <time>2024-06-30T09:09:46Z</time>
      </trkpt>
      <trkpt lat="42.81529" lon="1.91717">
        <ele>1277.4</ele>
        <time>2024-06-30T09:09:47Z</time>
      </trkpt>
      <trkpt lat="42.81528" lon="1.91719">
        <ele>1277.6</ele>
        <time>2024-06-30T09:09:48Z</time>
      </trkpt>
      <trkpt lat="42.81527" lon="1.91722">
        <ele>1277.8</ele>
        <time>2024-06-30T09:09:49Z</time>
      </trkpt>
      <trkpt lat="42.81525" lon="1.91724">
        <ele>1278</ele>
        <time>2024-06-30T09:09:50Z</time>
      </trkpt>
      <trkpt lat="42.81523" lon="1.91726">
        <ele>1278</ele>
        <time>2024-06-30T09:09:51Z</time>
      </trkpt>
      <trkpt lat="42.81522" lon="1.91728">
        <ele>1278.2</ele>
        <time>2024-06-30T09:09:52Z</time>
      </trkpt>
      <trkpt lat="42.81521" lon="1.91731">
        <ele>1278.4</ele>
        <time>2024-06-30T09:09:53Z</time>
      </trkpt>
      <trkpt lat="42.81519" lon="1.91733">
        <ele>1278.6</ele>
        <time>2024-06-30T09:09:54Z</time>
      </trkpt>
      <trkpt lat="42.81518" lon="1.91736">
        <ele>1278.8</ele>
        <time>2024-06-30T09:09:55Z</time>
      </trkpt>
      <trkpt lat="42.81517" lon="1.91739">
        <ele>1279.2</ele>
        <time>2024-06-30T09:09:56Z</time>
      </trkpt>
      <trkpt lat="42.81517" lon="1.91741">
        <ele>1279.6</ele>
        <time>2024-06-30T09:09:57Z</time>
      </trkpt>
      <trkpt lat="42.81517" lon="1.91743">
        <ele>1279.8</ele>
        <time>2024-06-30T09:09:58Z</time>
      </trkpt>
      <trkpt lat="42.81517" lon="1.91745">
        <ele>1280</ele>
        <time>2024-06-30T09:09:59Z</time>
      </trkpt>
      <trkpt lat="42.81518" lon="1.91747">
        <ele>1280.2</ele>
        <time>2024-06-30T09:10:00Z</time>
      </trkpt>
      <trkpt lat="42.81519" lon="1.91749">
        <ele>1280.6</ele>
        <time>2024-06-30T09:10:01Z</time>
      </trkpt>
      <trkpt lat="42.8152" lon="1.9175">
        <ele>1280.8</ele>
        <time>2024-06-30T09:10:02Z</time>
      </trkpt>
      <trkpt lat="42.81522" lon="1.91752">
        <ele>1281.2</ele>
        <time>2024-06-30T09:10:03Z</time>
      </trkpt>
      <trkpt lat="42.81523" lon="1.91754">
        <ele>1281.4</ele>
        <time>2024-06-30T09:10:04Z</time>
      </trkpt>
      <trkpt lat="42.81525" lon="1.91755">
        <ele>1281.6</ele>
        <time>2024-06-30T09:10:05Z</time>
      </trkpt>
      <trkpt lat="42.81527" lon="1.91756">
        <ele>1281.6</ele>
        <time>2024-06-30T09:10:06Z</time>
      </trkpt>
      <trkpt lat="42.81529" lon="1.91757">
        <ele>1281.8</ele>
        <time>2024-06-30T09:10:07Z</time>
      </trkpt>
      <trkpt lat="42.81531" lon="1.91758">
        <ele>1281.8</ele>
        <time>2024-06-30T09:10:08Z</time>
      </trkpt>
      <trkpt lat="42.81532" lon="1.91759">
        <ele>1282</ele>
        <time>2024-06-30T09:10:09Z</time>
      </trkpt>
      <trkpt lat="42.81534" lon="1.9176">
        <ele>1282.2</ele>
        <time>2024-06-30T09:10:10Z</time>
      </trkpt>
      <trkpt lat="42.81536" lon="1.91761">
        <ele>1282.2</ele>
        <time>2024-06-30T09:10:11Z</time>
      </trkpt>
      <trkpt lat="42.81537" lon="1.91762">
        <ele>1282.4</ele>
        <time>2024-06-30T09:10:12Z</time>
      </trkpt>
      <trkpt lat="42.81538" lon="1.91763">
        <ele>1282.8</ele>
        <time>2024-06-30T09:10:13Z</time>
      </trkpt>
      <trkpt lat="42.8154" lon="1.91765">
        <ele>1283</ele>
        <time>2024-06-30T09:10:14Z</time>
      </trkpt>
      <trkpt lat="42.81542" lon="1.91766">
        <ele>1283.2</ele>
        <time>2024-06-30T09:10:15Z</time>
      </trkpt>
      <trkpt lat="42.81544" lon="1.91768">
        <ele>1283.4</ele>
        <time>2024-06-30T09:10:16Z</time>
      </trkpt>
      <trkpt lat="42.81546" lon="1.91769">
        <ele>1283.8</ele>
        <time>2024-06-30T09:10:17Z</time>
      </trkpt>
      <trkpt lat="42.81547" lon="1.9177">
        <ele>1284.2</ele>
        <time>2024-06-30T09:10:18Z</time>
      </trkpt>
      <trkpt lat="42.81549" lon="1.91771">
        <ele>1284.6</ele>
        <time>2024-06-30T09:10:19Z</time>
      </trkpt>
      <trkpt lat="42.8155" lon="1.91773">
        <ele>1284.8</ele>
        <time>2024-06-30T09:10:20Z</time>
      </trkpt>
      <trkpt lat="42.81552" lon="1.91774">
        <ele>1285</ele>
        <time>2024-06-30T09:10:21Z</time>
      </trkpt>
      <trkpt lat="42.81553" lon="1.91775">
        <ele>1285.2</ele>
        <time>2024-06-30T09:10:22Z</time>
      </trkpt>
      <trkpt lat="42.81555" lon="1.91776">
        <ele>1285.2</ele>
        <time>2024-06-30T09:10:23Z</time>
      </trkpt>
      <trkpt lat="42.81556" lon="1.91777">
        <ele>1285.4</ele>
        <time>2024-06-30T09:10:24Z</time>
      </trkpt>
      <trkpt lat="42.81558" lon="1.91778">
        <ele>1286</ele>
        <time>2024-06-30T09:10:25Z</time>
      </trkpt>
      <trkpt lat="42.8156" lon="1.91779">
        <ele>1286.2</ele>
        <time>2024-06-30T09:10:26Z</time>
      </trkpt>
      <trkpt lat="42.81561" lon="1.9178">
        <ele>1286.4</ele>
        <time>2024-06-30T09:10:27Z</time>
      </trkpt>
      <trkpt lat="42.81563" lon="1.91782">
        <ele>1286.4</ele>
        <time>2024-06-30T09:10:28Z</time>
      </trkpt>
      <trkpt lat="42.81564" lon="1.91782">
        <ele>1286.6</ele>
        <time>2024-06-30T09:10:29Z</time>
      </trkpt>
      <trkpt lat="42.81567" lon="1.91784">
        <ele>1286.8</ele>
        <time>2024-06-30T09:10:30Z</time>
      </trkpt>
      <trkpt lat="42.81568" lon="1.91785">
        <ele>1287</ele>
        <time>2024-06-30T09:10:31Z</time>
      </trkpt>
      <trkpt lat="42.8157" lon="1.91785">
        <ele>1287</ele>
        <time>2024-06-30T09:10:32Z</time>
      </trkpt>
      <trkpt lat="42.81572" lon="1.91787">
        <ele>1287.2</ele>
        <time>2024-06-30T09:10:33Z</time>
      </trkpt>
      <trkpt lat="42.81574" lon="1.91787">
        <ele>1287.4</ele>
        <time>2024-06-30T09:10:34Z</time>
      </trkpt>
      <trkpt lat="42.81576" lon="1.91788">
        <ele>1287.4</ele>
        <time>2024-06-30T09:10:35Z</time>
      </trkpt>
      <trkpt lat="42.81578" lon="1.91789">
        <ele>1287.6</ele>
        <time>2024-06-30T09:10:36Z</time>
      </trkpt>
      <trkpt lat="42.81579" lon="1.91789">
        <ele>1287.8</ele>
        <time>2024-06-30T09:10:37Z</time>
      </trkpt>
      <trkpt lat="42.81581" lon="1.9179">
        <ele>1288</ele>
        <time>2024-06-30T09:10:38Z</time>
      </trkpt>
      <trkpt lat="42.81583" lon="1.91791">
        <ele>1288.2</ele>
        <time>2024-06-30T09:10:39Z</time>
      </trkpt>
      <trkpt lat="42.81585" lon="1.91792">
        <ele>1288.6</ele>
        <time>2024-06-30T09:10:40Z</time>
      </trkpt>
      <trkpt lat="42.81587" lon="1.91793">
        <ele>1288.6</ele>
        <time>2024-06-30T09:10:41Z</time>
      </trkpt>
      <trkpt lat="42.81588" lon="1.91795">
        <ele>1288.6</ele>
        <time>2024-06-30T09:10:42Z</time>
      </trkpt>
      <trkpt lat="42.8159" lon="1.91797">
        <ele>1289</ele>
        <time>2024-06-30T09:10:43Z</time>
      </trkpt>
      <trkpt lat="42.81592" lon="1.91798">
        <ele>1288.8</ele>
        <time>2024-06-30T09:10:44Z</time>
      </trkpt>
      <trkpt lat="42.81594" lon="1.918">
        <ele>1289</ele>
        <time>2024-06-30T09:10:45Z</time>
      </trkpt>
      <trkpt lat="42.81595" lon="1.91801">
        <ele>1289.2</ele>
        <time>2024-06-30T09:10:46Z</time>
      </trkpt>
      <trkpt lat="42.81597" lon="1.91803">
        <ele>1289.4</ele>
        <time>2024-06-30T09:10:47Z</time>
      </trkpt>
      <trkpt lat="42.81599" lon="1.91805">
        <ele>1289.6</ele>
        <time>2024-06-30T09:10:48Z</time>
      </trkpt>
      <trkpt lat="42.81601" lon="1.91806">
        <ele>1289.6</ele>
        <time>2024-06-30T09:10:49Z</time>
      </trkpt>
      <trkpt lat="42.81602" lon="1.91807">
        <ele>1290</ele>
        <time>2024-06-30T09:10:50Z</time>
      </trkpt>
      <trkpt lat="42.81604" lon="1.91808">
        <ele>1290.2</ele>
        <time>2024-06-30T09:10:51Z</time>
      </trkpt>
      <trkpt lat="42.81605" lon="1.91809">
        <ele>1290.4</ele>
        <time>2024-06-30T09:10:52Z</time>
      </trkpt>
      <trkpt lat="42.81607" lon="1.9181">
        <ele>1290.4</ele>
        <time>2024-06-30T09:10:53Z</time>
      </trkpt>
      <trkpt lat="42.81608" lon="1.91811">
        <ele>1290.6</ele>
        <time>2024-06-30T09:10:54Z</time>
      </trkpt>
      <trkpt lat="42.8161" lon="1.91812">
        <ele>1290.8</ele>
        <time>2024-06-30T09:10:55Z</time>
      </trkpt>
      <trkpt lat="42.81611" lon="1.91813">
        <ele>1291</ele>
        <time>2024-06-30T09:10:56Z</time>
      </trkpt>
      <trkpt lat="42.81612" lon="1.91814">
        <ele>1291.2</ele>
        <time>2024-06-30T09:10:57Z</time>
      </trkpt>
      <trkpt lat="42.81614" lon="1.91815">
        <ele>1291.4</ele>
        <time>2024-06-30T09:10:58Z</time>
      </trkpt>
      <trkpt lat="42.81616" lon="1.91816">
        <ele>1291.6</ele>
        <time>2024-06-30T09:10:59Z</time>
      </trkpt>
      <trkpt lat="42.81617" lon="1.91817">
        <ele>1291.8</ele>
        <time>2024-06-30T09:11:00Z</time>
      </trkpt>
      <trkpt lat="42.81619" lon="1.91818">
        <ele>1292</ele>
        <time>2024-06-30T09:11:01Z</time>
      </trkpt>
      <trkpt lat="42.81621" lon="1.91819">
        <ele>1292.2</ele>
        <time>2024-06-30T09:11:02Z</time>
      </trkpt>
      <trkpt lat="42.81623" lon="1.9182">
        <ele>1292.4</ele>
        <time>2024-06-30T09:11:03Z</time>
      </trkpt>
      <trkpt lat="42.81624" lon="1.9182">
        <ele>1292.6</ele>
        <time>2024-06-30T09:11:04Z</time>
      </trkpt>
      <trkpt lat="42.81626" lon="1.91821">
        <ele>1292.6</ele>
        <time>2024-06-30T09:11:05Z</time>
      </trkpt>
      <trkpt lat="42.81627" lon="1.91822">
        <ele>1292.8</ele>
        <time>2024-06-30T09:11:06Z</time>
      </trkpt>
      <trkpt lat="42.81629" lon="1.91822">
        <ele>1292.8</ele>
        <time>2024-06-30T09:11:07Z</time>
      </trkpt>
      <trkpt lat="42.8163" lon="1.91823">
        <ele>1293</ele>
        <time>2024-06-30T09:11:08Z</time>
      </trkpt>
      <trkpt lat="42.81632" lon="1.91823">
        <ele>1293</ele>
        <time>2024-06-30T09:11:09Z</time>
      </trkpt>
      <trkpt lat="42.81633" lon="1.91823">
        <ele>1293.2</ele>
        <time>2024-06-30T09:11:10Z</time>
      </trkpt>
      <trkpt lat="42.81635" lon="1.91823">
        <ele>1293.6</ele>
        <time>2024-06-30T09:11:11Z</time>
      </trkpt>
      <trkpt lat="42.81637" lon="1.91823">
        <ele>1293.8</ele>
        <time>2024-06-30T09:11:12Z</time>
      </trkpt>
      <trkpt lat="42.81639" lon="1.91823">
        <ele>1294</ele>
        <time>2024-06-30T09:11:13Z</time>
      </trkpt>
      <trkpt lat="42.8164" lon="1.91822">
        <ele>1294.2</ele>
        <time>2024-06-30T09:11:14Z</time>
      </trkpt>
      <trkpt lat="42.81642" lon="1.91821">
        <ele>1294.4</ele>
        <time>2024-06-30T09:11:15Z</time>
      </trkpt>
      <trkpt lat="42.81643" lon="1.9182">
        <ele>1294.6</ele>
        <time>2024-06-30T09:11:16Z</time>
      </trkpt>
      <trkpt lat="42.81644" lon="1.91819">
        <ele>1295</ele>
        <time>2024-06-30T09:11:17Z</time>
      </trkpt>
      <trkpt lat="42.81646" lon="1.91817">
        <ele>1295.4</ele>
        <time>2024-06-30T09:11:18Z</time>
      </trkpt>
      <trkpt lat="42.81647" lon="1.91816">
        <ele>1295.4</ele>
        <time>2024-06-30T09:11:19Z</time>
      </trkpt>
      <trkpt lat="42.81649" lon="1.91813">
        <ele>1295.6</ele>
        <time>2024-06-30T09:11:20Z</time>
      </trkpt>
      <trkpt lat="42.8165" lon="1.91811">
        <ele>1295.8</ele>
        <time>2024-06-30T09:11:21Z</time>
      </trkpt>
      <trkpt lat="42.81652" lon="1.91809">
        <ele>1296</ele>
        <time>2024-06-30T09:11:22Z</time>
      </trkpt>
      <trkpt lat="42.81653" lon="1.91808">
        <ele>1296</ele>
        <time>2024-06-30T09:11:23Z</time>
      </trkpt>
      <trkpt lat="42.81655" lon="1.91806">
        <ele>1296.2</ele>
        <time>2024-06-30T09:11:24Z</time>
      </trkpt>
      <trkpt lat="42.81656" lon="1.91803">
        <ele>1296.4</ele>
        <time>2024-06-30T09:11:25Z</time>
      </trkpt>
      <trkpt lat="42.81658" lon="1.918">
        <ele>1296.6</ele>
        <time>2024-06-30T09:11:26Z</time>
      </trkpt>
      <trkpt lat="42.8166" lon="1.91799">
        <ele>1296.8</ele>
        <time>2024-06-30T09:11:27Z</time>
      </trkpt>
      <trkpt lat="42.81662" lon="1.91797">
        <ele>1296.8</ele>
        <time>2024-06-30T09:11:28Z</time>
      </trkpt>
      <trkpt lat="42.81663" lon="1.91795">
        <ele>1297</ele>
        <time>2024-06-30T09:11:29Z</time>
      </trkpt>
      <trkpt lat="42.81665" lon="1.91793">
        <ele>1297.2</ele>
        <time>2024-06-30T09:11:30Z</time>
      </trkpt>
      <trkpt lat="42.81667" lon="1.91791">
        <ele>1297.4</ele>
        <time>2024-06-30T09:11:31Z</time>
      </trkpt>
      <trkpt lat="42.81669" lon="1.9179">
        <ele>1297.8</ele>
        <time>2024-06-30T09:11:32Z</time>
      </trkpt>
      <trkpt lat="42.8167" lon="1.91788">
        <ele>1297.8</ele>
        <time>2024-06-30T09:11:33Z</time>
      </trkpt>
      <trkpt lat="42.81672" lon="1.91787">
        <ele>1298.2</ele>
        <time>2024-06-30T09:11:34Z</time>
      </trkpt>
      <trkpt lat="42.81674" lon="1.91785">
        <ele>1298.4</ele>
        <time>2024-06-30T09:11:35Z</time>
      </trkpt>
      <trkpt lat="42.81676" lon="1.91783">
        <ele>1298.4</ele>
        <time>2024-06-30T09:11:36Z</time>
      </trkpt>
      <trkpt lat="42.81678" lon="1.91781">
        <ele>1298.6</ele>
        <time>2024-06-30T09:11:37Z</time>
      </trkpt>
      <trkpt lat="42.8168" lon="1.9178">
        <ele>1298.6</ele>
        <time>2024-06-30T09:11:38Z</time>
      </trkpt>
      <trkpt lat="42.81682" lon="1.91779">
        <ele>1298.8</ele>
        <time>2024-06-30T09:11:39Z</time>
      </trkpt>
      <trkpt lat="42.81685" lon="1.91777">
        <ele>1298.8</ele>
        <time>2024-06-30T09:11:40Z</time>
      </trkpt>
      <trkpt lat="42.81687" lon="1.91776">
        <ele>1299</ele>
        <time>2024-06-30T09:11:41Z</time>
      </trkpt>
      <trkpt lat="42.81689" lon="1.91774">
        <ele>1299</ele>
        <time>2024-06-30T09:11:42Z</time>
      </trkpt>
      <trkpt lat="42.81692" lon="1.91773">
        <ele>1299.2</ele>
        <time>2024-06-30T09:11:43Z</time>
      </trkpt>
      <trkpt lat="42.81694" lon="1.9177">
        <ele>1299.2</ele>
        <time>2024-06-30T09:11:44Z</time>
      </trkpt>
      <trkpt lat="42.81696" lon="1.9177">
        <ele>1299.4</ele>
        <time>2024-06-30T09:11:45Z</time>
      </trkpt>
      <trkpt lat="42.81699" lon="1.91768">
        <ele>1299.6</ele>
        <time>2024-06-30T09:11:46Z</time>
      </trkpt>
      <trkpt lat="42.81701" lon="1.91767">
        <ele>1299.6</ele>
        <time>2024-06-30T09:11:47Z</time>
      </trkpt>
      <trkpt lat="42.81704" lon="1.91766">
        <ele>1299.8</ele>
        <time>2024-06-30T09:11:48Z</time>
      </trkpt>
      <trkpt lat="42.81706" lon="1.91765">
        <ele>1299.8</ele>
        <time>2024-06-30T09:11:49Z</time>
      </trkpt>
      <trkpt lat="42.81709" lon="1.91765">
        <ele>1299.8</ele>
        <time>2024-06-30T09:11:50Z</time>
      </trkpt>
      <trkpt lat="42.81711" lon="1.91764">
        <ele>1300</ele>
        <time>2024-06-30T09:11:51Z</time>
      </trkpt>
      <trkpt lat="42.81714" lon="1.91764">
        <ele>1300.2</ele>
        <time>2024-06-30T09:11:52Z</time>
      </trkpt>
      <trkpt lat="42.81716" lon="1.91763">
        <ele>1300.4</ele>
        <time>2024-06-30T09:11:53Z</time>
      </trkpt>
      <trkpt lat="42.81719" lon="1.91763">
        <ele>1300.6</ele>
        <time>2024-06-30T09:11:54Z</time>
      </trkpt>
      <trkpt lat="42.81721" lon="1.91763">
        <ele>1300.8</ele>
        <time>2024-06-30T09:11:55Z</time>
      </trkpt>
      <trkpt lat="42.81723" lon="1.91763">
        <ele>1300.8</ele>
        <time>2024-06-30T09:11:56Z</time>
      </trkpt>
      <trkpt lat="42.81726" lon="1.91762">
        <ele>1301</ele>
        <time>2024-06-30T09:11:57Z</time>
      </trkpt>
      <trkpt lat="42.81728" lon="1.91763">
        <ele>1301</ele>
        <time>2024-06-30T09:11:58Z</time>
      </trkpt>
      <trkpt lat="42.8173" lon="1.91763">
        <ele>1301.2</ele>
        <time>2024-06-30T09:11:59Z</time>
      </trkpt>
      <trkpt lat="42.81732" lon="1.91764">
        <ele>1301.4</ele>
        <time>2024-06-30T09:12:00Z</time>
      </trkpt>
      <trkpt lat="42.81734" lon="1.91765">
        <ele>1301.6</ele>
        <time>2024-06-30T09:12:01Z</time>
      </trkpt>
      <trkpt lat="42.81736" lon="1.91766">
        <ele>1301.8</ele>
        <time>2024-06-30T09:12:02Z</time>
      </trkpt>
      <trkpt lat="42.81737" lon="1.91767">
        <ele>1301.8</ele>
        <time>2024-06-30T09:12:03Z</time>
      </trkpt>
      <trkpt lat="42.81738" lon="1.91769">
        <ele>1302</ele>
        <time>2024-06-30T09:12:04Z</time>
      </trkpt>
      <trkpt lat="42.81739" lon="1.91771">
        <ele>1302.2</ele>
        <time>2024-06-30T09:12:05Z</time>
      </trkpt>
      <trkpt lat="42.81739" lon="1.91773">
        <ele>1302.4</ele>
        <time>2024-06-30T09:12:06Z</time>
      </trkpt>
      <trkpt lat="42.8174" lon="1.91775">
        <ele>1302.6</ele>
        <time>2024-06-30T09:12:07Z</time>
      </trkpt>
      <trkpt lat="42.81739" lon="1.91777">
        <ele>1302.6</ele>
        <time>2024-06-30T09:12:08Z</time>
      </trkpt>
      <trkpt lat="42.81739" lon="1.9178">
        <ele>1303</ele>
        <time>2024-06-30T09:12:09Z</time>
      </trkpt>
      <trkpt lat="42.81738" lon="1.91782">
        <ele>1303.2</ele>
        <time>2024-06-30T09:12:10Z</time>
      </trkpt>
      <trkpt lat="42.81737" lon="1.91784">
        <ele>1303.6</ele>
        <time>2024-06-30T09:12:11Z</time>
      </trkpt>
      <trkpt lat="42.81735" lon="1.91786">
        <ele>1303.8</ele>
        <time>2024-06-30T09:12:12Z</time>
      </trkpt>
      <trkpt lat="42.81733" lon="1.91787">
        <ele>1304</ele>
        <time>2024-06-30T09:12:13Z</time>
      </trkpt>
      <trkpt lat="42.81731" lon="1.91788">
        <ele>1304.2</ele>
        <time>2024-06-30T09:12:14Z</time>
      </trkpt>
      <trkpt lat="42.8173" lon="1.91788">
        <ele>1304.6</ele>
        <time>2024-06-30T09:12:15Z</time>
      </trkpt>
      <trkpt lat="42.81728" lon="1.91789">
        <ele>1305</ele>
        <time>2024-06-30T09:12:16Z</time>
      </trkpt>
      <trkpt lat="42.81726" lon="1.91789">
        <ele>1305.2</ele>
        <time>2024-06-30T09:12:17Z</time>
      </trkpt>
      <trkpt lat="42.81724" lon="1.9179">
        <ele>1305.6</ele>
        <time>2024-06-30T09:12:18Z</time>
      </trkpt>
      <trkpt lat="42.81723" lon="1.91791">
        <ele>1305.6</ele>
        <time>2024-06-30T09:12:19Z</time>
      </trkpt>
      <trkpt lat="42.81721" lon="1.91791">
        <ele>1306</ele>
        <time>2024-06-30T09:12:20Z</time>
      </trkpt>
      <trkpt lat="42.81719" lon="1.91792">
        <ele>1306.2</ele>
        <time>2024-06-30T09:12:21Z</time>
      </trkpt>
      <trkpt lat="42.81717" lon="1.91794">
        <ele>1306.6</ele>
        <time>2024-06-30T09:12:22Z</time>
      </trkpt>
      <trkpt lat="42.81714" lon="1.91795">
        <ele>1307</ele>
        <time>2024-06-30T09:12:23Z</time>
      </trkpt>
      <trkpt lat="42.81713" lon="1.91796">
        <ele>1307.2</ele>
        <time>2024-06-30T09:12:24Z</time>
      </trkpt>
      <trkpt lat="42.81711" lon="1.91798">
        <ele>1307.2</ele>
        <time>2024-06-30T09:12:25Z</time>
      </trkpt>
      <trkpt lat="42.81709" lon="1.91799">
        <ele>1307.4</ele>
        <time>2024-06-30T09:12:26Z</time>
      </trkpt>
      <trkpt lat="42.81708" lon="1.91801">
        <ele>1307.4</ele>
        <time>2024-06-30T09:12:27Z</time>
      </trkpt>
      <trkpt lat="42.81706" lon="1.91802">
        <ele>1307.6</ele>
        <time>2024-06-30T09:12:28Z</time>
      </trkpt>
      <trkpt lat="42.81704" lon="1.91804">
        <ele>1307.8</ele>
        <time>2024-06-30T09:12:29Z</time>
      </trkpt>
      <trkpt lat="42.81703" lon="1.91805">
        <ele>1308</ele>
        <time>2024-06-30T09:12:30Z</time>
      </trkpt>
      <trkpt lat="42.81701" lon="1.91807">
        <ele>1308.2</ele>
        <time>2024-06-30T09:12:31Z</time>
      </trkpt>
      <trkpt lat="42.817" lon="1.91809">
        <ele>1308.6</ele>
        <time>2024-06-30T09:12:32Z</time>
      </trkpt>
      <trkpt lat="42.81698" lon="1.91811">
        <ele>1308.8</ele>
        <time>2024-06-30T09:12:33Z</time>
      </trkpt>
      <trkpt lat="42.81697" lon="1.91812">
        <ele>1309.2</ele>
        <time>2024-06-30T09:12:34Z</time>
      </trkpt>
      <trkpt lat="42.81696" lon="1.91814">
        <ele>1309.4</ele>
        <time>2024-06-30T09:12:35Z</time>
      </trkpt>
      <trkpt lat="42.81694" lon="1.91816">
        <ele>1309.8</ele>
        <time>2024-06-30T09:12:36Z</time>
      </trkpt>
      <trkpt lat="42.81693" lon="1.91817">
        <ele>1310</ele>
        <time>2024-06-30T09:12:37Z</time>
      </trkpt>
      <trkpt lat="42.81691" lon="1.91819">
        <ele>1310.4</ele>
        <time>2024-06-30T09:12:38Z</time>
      </trkpt>
      <trkpt lat="42.8169" lon="1.91821">
        <ele>1310.6</ele>
        <time>2024-06-30T09:12:39Z</time>
      </trkpt>
      <trkpt lat="42.81688" lon="1.91822">
        <ele>1310.8</ele>
        <time>2024-06-30T09:12:40Z</time>
      </trkpt>
      <trkpt lat="42.81687" lon="1.91824">
        <ele>1311</ele>
        <time>2024-06-30T09:12:41Z</time>
      </trkpt>
      <trkpt lat="42.81686" lon="1.91825">
        <ele>1311.2</ele>
        <time>2024-06-30T09:12:42Z</time>
      </trkpt>
      <trkpt lat="42.81684" lon="1.91827">
        <ele>1311.4</ele>
        <time>2024-06-30T09:12:43Z</time>
      </trkpt>
      <trkpt lat="42.81682" lon="1.91829">
        <ele>1311.4</ele>
        <time>2024-06-30T09:12:44Z</time>
      </trkpt>
      <trkpt lat="42.8168" lon="1.91831">
        <ele>1311.8</ele>
        <time>2024-06-30T09:12:45Z</time>
      </trkpt>
      <trkpt lat="42.81679" lon="1.91833">
        <ele>1312.2</ele>
        <time>2024-06-30T09:12:46Z</time>
      </trkpt>
      <trkpt lat="42.81677" lon="1.91836">
        <ele>1312.2</ele>
        <time>2024-06-30T09:12:47Z</time>
      </trkpt>
      <trkpt lat="42.81676" lon="1.91838">
        <ele>1312.4</ele>
        <time>2024-06-30T09:12:48Z</time>
      </trkpt>
      <trkpt lat="42.81674" lon="1.9184">
        <ele>1312.6</ele>
        <time>2024-06-30T09:12:49Z</time>
      </trkpt>
      <trkpt lat="42.81672" lon="1.91841">
        <ele>1312.6</ele>
        <time>2024-06-30T09:12:50Z</time>
      </trkpt>
      <trkpt lat="42.81671" lon="1.91844">
        <ele>1312.8</ele>
        <time>2024-06-30T09:12:51Z</time>
      </trkpt>
      <trkpt lat="42.81669" lon="1.91846">
        <ele>1313</ele>
        <time>2024-06-30T09:12:52Z</time>
      </trkpt>
      <trkpt lat="42.81668" lon="1.91849">
        <ele>1313.2</ele>
        <time>2024-06-30T09:12:53Z</time>
      </trkpt>
      <trkpt lat="42.81667" lon="1.91851">
        <ele>1313.4</ele>
        <time>2024-06-30T09:12:54Z</time>
      </trkpt>
      <trkpt lat="42.81665" lon="1.91854">
        <ele>1313.6</ele>
        <time>2024-06-30T09:12:55Z</time>
      </trkpt>
      <trkpt lat="42.81664" lon="1.91857">
        <ele>1313.6</ele>
        <time>2024-06-30T09:12:56Z</time>
      </trkpt>
      <trkpt lat="42.81663" lon="1.91859">
        <ele>1314</ele>
        <time>2024-06-30T09:12:57Z</time>
      </trkpt>
      <trkpt lat="42.81662" lon="1.91863">
        <ele>1314.2</ele>
        <time>2024-06-30T09:12:58Z</time>
      </trkpt>
      <trkpt lat="42.8166" lon="1.91866">
        <ele>1314.4</ele>
        <time>2024-06-30T09:12:59Z</time>
      </trkpt>
      <trkpt lat="42.81659" lon="1.91869">
        <ele>1314.6</ele>
        <time>2024-06-30T09:13:00Z</time>
      </trkpt>
      <trkpt lat="42.81658" lon="1.91872">
        <ele>1314.6</ele>
        <time>2024-06-30T09:13:01Z</time>
      </trkpt>
      <trkpt lat="42.81656" lon="1.91875">
        <ele>1315</ele>
        <time>2024-06-30T09:13:02Z</time>
      </trkpt>
      <trkpt lat="42.81655" lon="1.91878">
        <ele>1315</ele>
        <time>2024-06-30T09:13:03Z</time>
      </trkpt>
      <trkpt lat="42.81654" lon="1.9188">
        <ele>1315.2</ele>
        <time>2024-06-30T09:13:04Z</time>
      </trkpt>
      <trkpt lat="42.81653" lon="1.91883">
        <ele>1315.4</ele>
        <time>2024-06-30T09:13:05Z</time>
      </trkpt>
      <trkpt lat="42.81651" lon="1.91885">
        <ele>1315.4</ele>
        <time>2024-06-30T09:13:06Z</time>
      </trkpt>
      <trkpt lat="42.8165" lon="1.91888">
        <ele>1315.6</ele>
        <time>2024-06-30T09:13:07Z</time>
      </trkpt>
      <trkpt lat="42.81648" lon="1.9189">
        <ele>1315.6</ele>
        <time>2024-06-30T09:13:08Z</time>
      </trkpt>
      <trkpt lat="42.81647" lon="1.91893">
        <ele>1316</ele>
        <time>2024-06-30T09:13:09Z</time>
      </trkpt>
      <trkpt lat="42.81645" lon="1.91895">
        <ele>1316</ele>
        <time>2024-06-30T09:13:10Z</time>
      </trkpt>
      <trkpt lat="42.81644" lon="1.91897">
        <ele>1316.4</ele>
        <time>2024-06-30T09:13:11Z</time>
      </trkpt>
      <trkpt lat="42.81643" lon="1.91899">
        <ele>1316.6</ele>
        <time>2024-06-30T09:13:12Z</time>
      </trkpt>
      <trkpt lat="42.81641" lon="1.91901">
        <ele>1316.8</ele>
        <time>2024-06-30T09:13:13Z</time>
      </trkpt>
      <trkpt lat="42.81639" lon="1.91903">
        <ele>1317</ele>
        <time>2024-06-30T09:13:14Z</time>
      </trkpt>
      <trkpt lat="42.81638" lon="1.91905">
        <ele>1317</ele>
        <time>2024-06-30T09:13:15Z</time>
      </trkpt>
      <trkpt lat="42.81636" lon="1.91908">
        <ele>1317.2</ele>
        <time>2024-06-30T09:13:16Z</time>
      </trkpt>
      <trkpt lat="42.81634" lon="1.91909">
        <ele>1317.4</ele>
        <time>2024-06-30T09:13:17Z</time>
      </trkpt>
      <trkpt lat="42.81632" lon="1.91911">
        <ele>1317.6</ele>
        <time>2024-06-30T09:13:18Z</time>
      </trkpt>
      <trkpt lat="42.8163" lon="1.91913">
        <ele>1317.6</ele>
        <time>2024-06-30T09:13:19Z</time>
      </trkpt>
      <trkpt lat="42.81628" lon="1.91914">
        <ele>1318</ele>
        <time>2024-06-30T09:13:20Z</time>
      </trkpt>
      <trkpt lat="42.81625" lon="1.91916">
        <ele>1318.2</ele>
        <time>2024-06-30T09:13:21Z</time>
      </trkpt>
      <trkpt lat="42.81623" lon="1.91918">
        <ele>1318.6</ele>
        <time>2024-06-30T09:13:22Z</time>
      </trkpt>
      <trkpt lat="42.81621" lon="1.9192">
        <ele>1318.8</ele>
        <time>2024-06-30T09:13:23Z</time>
      </trkpt>
      <trkpt lat="42.81619" lon="1.91922">
        <ele>1318.8</ele>
        <time>2024-06-30T09:13:24Z</time>
      </trkpt>
      <trkpt lat="42.81618" lon="1.91924">
        <ele>1319</ele>
        <time>2024-06-30T09:13:25Z</time>
      </trkpt>
      <trkpt lat="42.81616" lon="1.91925">
        <ele>1319.2</ele>
        <time>2024-06-30T09:13:26Z</time>
      </trkpt>
      <trkpt lat="42.81614" lon="1.91927">
        <ele>1319.4</ele>
        <time>2024-06-30T09:13:27Z</time>
      </trkpt>
      <trkpt lat="42.81612" lon="1.91928">
        <ele>1319.4</ele>
        <time>2024-06-30T09:13:28Z</time>
      </trkpt>
      <trkpt lat="42.8161" lon="1.9193">
        <ele>1319.8</ele>
        <time>2024-06-30T09:13:29Z</time>
      </trkpt>
      <trkpt lat="42.81609" lon="1.91932">
        <ele>1319.8</ele>
        <time>2024-06-30T09:13:30Z</time>
      </trkpt>
      <trkpt lat="42.81607" lon="1.91934">
        <ele>1320</ele>
        <time>2024-06-30T09:13:31Z</time>
      </trkpt>
      <trkpt lat="42.81606" lon="1.91936">
        <ele>1320.4</ele>
        <time>2024-06-30T09:13:32Z</time>
      </trkpt>
      <trkpt lat="42.81604" lon="1.91937">
        <ele>1320.6</ele>
        <time>2024-06-30T09:13:33Z</time>
      </trkpt>
      <trkpt lat="42.81602" lon="1.91938">
        <ele>1320.8</ele>
        <time>2024-06-30T09:13:34Z</time>
      </trkpt>
      <trkpt lat="42.81601" lon="1.9194">
        <ele>1321</ele>
        <time>2024-06-30T09:13:35Z</time>
      </trkpt>
      <trkpt lat="42.816" lon="1.91941">
        <ele>1321.6</ele>
        <time>2024-06-30T09:13:36Z</time>
      </trkpt>
      <trkpt lat="42.81598" lon="1.91943">
        <ele>1322.2</ele>
        <time>2024-06-30T09:13:37Z</time>
      </trkpt>
      <trkpt lat="42.81597" lon="1.91945">
        <ele>1322.2</ele>
        <time>2024-06-30T09:13:38Z</time>
      </trkpt>
      <trkpt lat="42.81595" lon="1.91946">
        <ele>1322.6</ele>
        <time>2024-06-30T09:13:39Z</time>
      </trkpt>
      <trkpt lat="42.81593" lon="1.91948">
        <ele>1322.6</ele>
        <time>2024-06-30T09:13:40Z</time>
      </trkpt>
      <trkpt lat="42.81591" lon="1.91949">
        <ele>1322.8</ele>
        <time>2024-06-30T09:13:41Z</time>
      </trkpt>
      <trkpt lat="42.81589" lon="1.9195">
        <ele>1323</ele>
        <time>2024-06-30T09:13:42Z</time>
      </trkpt>
      <trkpt lat="42.81587" lon="1.91952">
        <ele>1323.2</ele>
        <time>2024-06-30T09:13:43Z</time>
      </trkpt>
      <trkpt lat="42.81585" lon="1.91953">
        <ele>1323.4</ele>
        <time>2024-06-30T09:13:44Z</time>
      </trkpt>
      <trkpt lat="42.81583" lon="1.91954">
        <ele>1323.4</ele>
        <time>2024-06-30T09:13:45Z</time>
      </trkpt>
      <trkpt lat="42.81581" lon="1.91955">
        <ele>1323.8</ele>
        <time>2024-06-30T09:13:46Z</time>
      </trkpt>
      <trkpt lat="42.81579" lon="1.91957">
        <ele>1323.8</ele>
        <time>2024-06-30T09:13:47Z</time>
      </trkpt>
      <trkpt lat="42.81577" lon="1.91958">
        <ele>1324</ele>
        <time>2024-06-30T09:13:48Z</time>
      </trkpt>
      <trkpt lat="42.81575" lon="1.91959">
        <ele>1324</ele>
        <time>2024-06-30T09:13:49Z</time>
      </trkpt>
      <trkpt lat="42.81573" lon="1.9196">
        <ele>1324.4</ele>
        <time>2024-06-30T09:13:50Z</time>
      </trkpt>
      <trkpt lat="42.81571" lon="1.91961">
        <ele>1324.6</ele>
        <time>2024-06-30T09:13:51Z</time>
      </trkpt>
      <trkpt lat="42.81568" lon="1.91963">
        <ele>1324.8</ele>
        <time>2024-06-30T09:13:52Z</time>
      </trkpt>
      <trkpt lat="42.81566" lon="1.91964">
        <ele>1325</ele>
        <time>2024-06-30T09:13:53Z</time>
      </trkpt>
      <trkpt lat="42.81564" lon="1.91965">
        <ele>1325.2</ele>
        <time>2024-06-30T09:13:54Z</time>
      </trkpt>
      <trkpt lat="42.81562" lon="1.91966">
        <ele>1325.4</ele>
        <time>2024-06-30T09:13:55Z</time>
      </trkpt>
      <trkpt lat="42.8156" lon="1.91967">
        <ele>1325.6</ele>
        <time>2024-06-30T09:13:56Z</time>
      </trkpt>
      <trkpt lat="42.81558" lon="1.91968">
        <ele>1325.8</ele>
        <time>2024-06-30T09:13:57Z</time>
      </trkpt>
      <trkpt lat="42.81556" lon="1.9197">
        <ele>1326.2</ele>
        <time>2024-06-30T09:13:58Z</time>
      </trkpt>
      <trkpt lat="42.81553" lon="1.9197">
        <ele>1326.4</ele>
        <time>2024-06-30T09:13:59Z</time>
      </trkpt>
      <trkpt lat="42.81551" lon="1.91972">
        <ele>1326.6</ele>
        <time>2024-06-30T09:14:00Z</time>
      </trkpt>
      <trkpt lat="42.81549" lon="1.91973">
        <ele>1326.8</ele>
        <time>2024-06-30T09:14:01Z</time>
      </trkpt>
      <trkpt lat="42.81547" lon="1.91974">
        <ele>1326.8</ele>
        <time>2024-06-30T09:14:02Z</time>
      </trkpt>
      <trkpt lat="42.81545" lon="1.91975">
        <ele>1327</ele>
        <time>2024-06-30T09:14:03Z</time>
      </trkpt>
      <trkpt lat="42.81543" lon="1.91976">
        <ele>1327.4</ele>
        <time>2024-06-30T09:14:04Z</time>
      </trkpt>
      <trkpt lat="42.81541" lon="1.91977">
        <ele>1327.6</ele>
        <time>2024-06-30T09:14:05Z</time>
      </trkpt>
      <trkpt lat="42.8154" lon="1.91978">
        <ele>1327.8</ele>
        <time>2024-06-30T09:14:06Z</time>
      </trkpt>
      <trkpt lat="42.81538" lon="1.91979">
        <ele>1328</ele>
        <time>2024-06-30T09:14:07Z</time>
      </trkpt>
      <trkpt lat="42.81536" lon="1.9198">
        <ele>1328.2</ele>
        <time>2024-06-30T09:14:08Z</time>
      </trkpt>
      <trkpt lat="42.81534" lon="1.91982">
        <ele>1328.4</ele>
        <time>2024-06-30T09:14:09Z</time>
      </trkpt>
      <trkpt lat="42.81532" lon="1.91983">
        <ele>1328.6</ele>
        <time>2024-06-30T09:14:10Z</time>
      </trkpt>
      <trkpt lat="42.8153" lon="1.91983">
        <ele>1328.8</ele>
        <time>2024-06-30T09:14:11Z</time>
      </trkpt>
      <trkpt lat="42.81528" lon="1.91984">
        <ele>1329</ele>
        <time>2024-06-30T09:14:12Z</time>
      </trkpt>
      <trkpt lat="42.81527" lon="1.91985">
        <ele>1329.2</ele>
        <time>2024-06-30T09:14:13Z</time>
      </trkpt>
      <trkpt lat="42.81525" lon="1.91986">
        <ele>1329.2</ele>
        <time>2024-06-30T09:14:14Z</time>
      </trkpt>
      <trkpt lat="42.81524" lon="1.91987">
        <ele>1329.4</ele>
        <time>2024-06-30T09:14:15Z</time>
      </trkpt>
      <trkpt lat="42.81522" lon="1.91988">
        <ele>1329.6</ele>
        <time>2024-06-30T09:14:16Z</time>
      </trkpt>
      <trkpt lat="42.8152" lon="1.9199">
        <ele>1329.8</ele>
        <time>2024-06-30T09:14:17Z</time>
      </trkpt>
      <trkpt lat="42.81519" lon="1.91991">
        <ele>1330.2</ele>
        <time>2024-06-30T09:14:18Z</time>
      </trkpt>
      <trkpt lat="42.81517" lon="1.91992">
        <ele>1330.4</ele>
        <time>2024-06-30T09:14:19Z</time>
      </trkpt>
      <trkpt lat="42.81516" lon="1.91993">
        <ele>1330.8</ele>
        <time>2024-06-30T09:14:20Z</time>
      </trkpt>
      <trkpt lat="42.81514" lon="1.91994">
        <ele>1331</ele>
        <time>2024-06-30T09:14:21Z</time>
      </trkpt>
      <trkpt lat="42.81513" lon="1.91995">
        <ele>1331.2</ele>
        <time>2024-06-30T09:14:22Z</time>
      </trkpt>
      <trkpt lat="42.81511" lon="1.91997">
        <ele>1331.4</ele>
        <time>2024-06-30T09:14:23Z</time>
      </trkpt>
      <trkpt lat="42.81509" lon="1.91998">
        <ele>1331.6</ele>
        <time>2024-06-30T09:14:24Z</time>
      </trkpt>
      <trkpt lat="42.81508" lon="1.92">
        <ele>1331.8</ele>
        <time>2024-06-30T09:14:25Z</time>
      </trkpt>
      <trkpt lat="42.81506" lon="1.92002">
        <ele>1331.8</ele>
        <time>2024-06-30T09:14:26Z</time>
      </trkpt>
      <trkpt lat="42.81504" lon="1.92004">
        <ele>1332</ele>
        <time>2024-06-30T09:14:27Z</time>
      </trkpt>
      <trkpt lat="42.81502" lon="1.92005">
        <ele>1332.4</ele>
        <time>2024-06-30T09:14:28Z</time>
      </trkpt>
      <trkpt lat="42.815" lon="1.92007">
        <ele>1332.6</ele>
        <time>2024-06-30T09:14:29Z</time>
      </trkpt>
      <trkpt lat="42.81499" lon="1.92008">
        <ele>1333</ele>
        <time>2024-06-30T09:14:30Z</time>
      </trkpt>
      <trkpt lat="42.81497" lon="1.9201">
        <ele>1333.2</ele>
        <time>2024-06-30T09:14:31Z</time>
      </trkpt>
      <trkpt lat="42.81495" lon="1.92011">
        <ele>1333.4</ele>
        <time>2024-06-30T09:14:32Z</time>
      </trkpt>
      <trkpt lat="42.81493" lon="1.92012">
        <ele>1333.4</ele>
        <time>2024-06-30T09:14:33Z</time>
      </trkpt>
      <trkpt lat="42.81492" lon="1.92013">
        <ele>1333.8</ele>
        <time>2024-06-30T09:14:34Z</time>
      </trkpt>
      <trkpt lat="42.8149" lon="1.92015">
        <ele>1334</ele>
        <time>2024-06-30T09:14:35Z</time>
      </trkpt>
      <trkpt lat="42.81488" lon="1.92016">
        <ele>1334.2</ele>
        <time>2024-06-30T09:14:36Z</time>
      </trkpt>
      <trkpt lat="42.81486" lon="1.92018">
        <ele>1334.4</ele>
        <time>2024-06-30T09:14:37Z</time>
      </trkpt>
      <trkpt lat="42.81484" lon="1.92019">
        <ele>1334.6</ele>
        <time>2024-06-30T09:14:38Z</time>
      </trkpt>
      <trkpt lat="42.81483" lon="1.9202">
        <ele>1334.8</ele>
        <time>2024-06-30T09:14:39Z</time>
      </trkpt>
      <trkpt lat="42.81481" lon="1.92022">
        <ele>1334.8</ele>
        <time>2024-06-30T09:14:40Z</time>
      </trkpt>
      <trkpt lat="42.81479" lon="1.92023">
        <ele>1334.8</ele>
        <time>2024-06-30T09:14:41Z</time>
      </trkpt>
      <trkpt lat="42.81477" lon="1.92025">
        <ele>1334.8</ele>
        <time>2024-06-30T09:14:42Z</time>
      </trkpt>
      <trkpt lat="42.81475" lon="1.92027">
        <ele>1335</ele>
        <time>2024-06-30T09:14:43Z</time>
      </trkpt>
      <trkpt lat="42.81473" lon="1.92029">
        <ele>1335.4</ele>
        <time>2024-06-30T09:14:44Z</time>
      </trkpt>
      <trkpt lat="42.81471" lon="1.92031">
        <ele>1335.6</ele>
        <time>2024-06-30T09:14:45Z</time>
      </trkpt>
      <trkpt lat="42.81469" lon="1.92032">
        <ele>1335.8</ele>
        <time>2024-06-30T09:14:46Z</time>
      </trkpt>
      <trkpt lat="42.81467" lon="1.92034">
        <ele>1335.8</ele>
        <time>2024-06-30T09:14:47Z</time>
      </trkpt>
      <trkpt lat="42.81465" lon="1.92036">
        <ele>1336</ele>
        <time>2024-06-30T09:14:48Z</time>
      </trkpt>
      <trkpt lat="42.81464" lon="1.92037">
        <ele>1336.2</ele>
        <time>2024-06-30T09:14:49Z</time>
      </trkpt>
      <trkpt lat="42.81462" lon="1.92039">
        <ele>1336.2</ele>
        <time>2024-06-30T09:14:50Z</time>
      </trkpt>
      <trkpt lat="42.8146" lon="1.92041">
        <ele>1336.4</ele>
        <time>2024-06-30T09:14:51Z</time>
      </trkpt>
      <trkpt lat="42.81458" lon="1.92043">
        <ele>1336.4</ele>
        <time>2024-06-30T09:14:52Z</time>
      </trkpt>
      <trkpt lat="42.81456" lon="1.92045">
        <ele>1336.6</ele>
        <time>2024-06-30T09:14:53Z</time>
      </trkpt>
      <trkpt lat="42.81454" lon="1.92046">
        <ele>1336.6</ele>
        <time>2024-06-30T09:14:54Z</time>
      </trkpt>
      <trkpt lat="42.81452" lon="1.92048">
        <ele>1336.8</ele>
        <time>2024-06-30T09:14:55Z</time>
      </trkpt>
      <trkpt lat="42.81451" lon="1.9205">
        <ele>1337</ele>
        <time>2024-06-30T09:14:56Z</time>
      </trkpt>
      <trkpt lat="42.81449" lon="1.92052">
        <ele>1337.2</ele>
        <time>2024-06-30T09:14:57Z</time>
      </trkpt>
      <trkpt lat="42.81447" lon="1.92053">
        <ele>1337.4</ele>
        <time>2024-06-30T09:14:58Z</time>
      </trkpt>
      <trkpt lat="42.81445" lon="1.92055">
        <ele>1337.6</ele>
        <time>2024-06-30T09:14:59Z</time>
      </trkpt>
      <trkpt lat="42.81444" lon="1.92057">
        <ele>1338</ele>
        <time>2024-06-30T09:15:00Z</time>
      </trkpt>
      <trkpt lat="42.81442" lon="1.92059">
        <ele>1338</ele>
        <time>2024-06-30T09:15:01Z</time>
      </trkpt>
      <trkpt lat="42.81441" lon="1.92061">
        <ele>1338.2</ele>
        <time>2024-06-30T09:15:02Z</time>
      </trkpt>
      <trkpt lat="42.81439" lon="1.92063">
        <ele>1338.4</ele>
        <time>2024-06-30T09:15:03Z</time>
      </trkpt>
      <trkpt lat="42.81438" lon="1.92065">
        <ele>1338.6</ele>
        <time>2024-06-30T09:15:04Z</time>
      </trkpt>
      <trkpt lat="42.81436" lon="1.92067">
        <ele>1339</ele>
        <time>2024-06-30T09:15:05Z</time>
      </trkpt>
      <trkpt lat="42.81434" lon="1.92069">
        <ele>1339.2</ele>
        <time>2024-06-30T09:15:06Z</time>
      </trkpt>
      <trkpt lat="42.81432" lon="1.92071">
        <ele>1339.4</ele>
        <time>2024-06-30T09:15:07Z</time>
      </trkpt>
      <trkpt lat="42.81431" lon="1.92073">
        <ele>1339.6</ele>
        <time>2024-06-30T09:15:08Z</time>
      </trkpt>
      <trkpt lat="42.8143" lon="1.92075">
        <ele>1339.8</ele>
        <time>2024-06-30T09:15:10Z</time>
      </trkpt>
      <trkpt lat="42.81429" lon="1.92078">
        <ele>1339.8</ele>
        <time>2024-06-30T09:15:11Z</time>
      </trkpt>
      <trkpt lat="42.81428" lon="1.9208">
        <ele>1340</ele>
        <time>2024-06-30T09:15:12Z</time>
      </trkpt>
      <trkpt lat="42.81426" lon="1.92082">
        <ele>1340.2</ele>
        <time>2024-06-30T09:15:13Z</time>
      </trkpt>
      <trkpt lat="42.81425" lon="1.92084">
        <ele>1340.4</ele>
        <time>2024-06-30T09:15:14Z</time>
      </trkpt>
      <trkpt lat="42.81423" lon="1.92086">
        <ele>1340.8</ele>
        <time>2024-06-30T09:15:15Z</time>
      </trkpt>
      <trkpt lat="42.81422" lon="1.92088">
        <ele>1341</ele>
        <time>2024-06-30T09:15:16Z</time>
      </trkpt>
      <trkpt lat="42.8142" lon="1.92091">
        <ele>1341.2</ele>
        <time>2024-06-30T09:15:17Z</time>
      </trkpt>
      <trkpt lat="42.81419" lon="1.92094">
        <ele>1341.4</ele>
        <time>2024-06-30T09:15:18Z</time>
      </trkpt>
      <trkpt lat="42.81417" lon="1.92096">
        <ele>1341.6</ele>
        <time>2024-06-30T09:15:19Z</time>
      </trkpt>
      <trkpt lat="42.81415" lon="1.92098">
        <ele>1341.6</ele>
        <time>2024-06-30T09:15:20Z</time>
      </trkpt>
      <trkpt lat="42.81414" lon="1.92101">
        <ele>1341.8</ele>
        <time>2024-06-30T09:15:21Z</time>
      </trkpt>
      <trkpt lat="42.81413" lon="1.92104">
        <ele>1341.8</ele>
        <time>2024-06-30T09:15:22Z</time>
      </trkpt>
      <trkpt lat="42.81411" lon="1.92106">
        <ele>1341.8</ele>
        <time>2024-06-30T09:15:23Z</time>
      </trkpt>
      <trkpt lat="42.81409" lon="1.92108">
        <ele>1342</ele>
        <time>2024-06-30T09:15:24Z</time>
      </trkpt>
      <trkpt lat="42.81408" lon="1.92111">
        <ele>1342.2</ele>
        <time>2024-06-30T09:15:25Z</time>
      </trkpt>
      <trkpt lat="42.81406" lon="1.92113">
        <ele>1342.4</ele>
        <time>2024-06-30T09:15:26Z</time>
      </trkpt>
      <trkpt lat="42.81404" lon="1.92115">
        <ele>1342.6</ele>
        <time>2024-06-30T09:15:27Z</time>
      </trkpt>
      <trkpt lat="42.81403" lon="1.92117">
        <ele>1342.8</ele>
        <time>2024-06-30T09:15:28Z</time>
      </trkpt>
      <trkpt lat="42.81401" lon="1.9212">
        <ele>1343</ele>
        <time>2024-06-30T09:15:29Z</time>
      </trkpt>
      <trkpt lat="42.814" lon="1.92122">
        <ele>1343</ele>
        <time>2024-06-30T09:15:30Z</time>
      </trkpt>
      <trkpt lat="42.81398" lon="1.92123">
        <ele>1343.2</ele>
        <time>2024-06-30T09:15:31Z</time>
      </trkpt>
      <trkpt lat="42.81397" lon="1.92125">
        <ele>1343.4</ele>
        <time>2024-06-30T09:15:32Z</time>
      </trkpt>
      <trkpt lat="42.81395" lon="1.92128">
        <ele>1343.6</ele>
        <time>2024-06-30T09:15:33Z</time>
      </trkpt>
      <trkpt lat="42.81394" lon="1.9213">
        <ele>1343.8</ele>
        <time>2024-06-30T09:15:34Z</time>
      </trkpt>
      <trkpt lat="42.81392" lon="1.92132">
        <ele>1343.8</ele>
        <time>2024-06-30T09:15:35Z</time>
      </trkpt>
      <trkpt lat="42.81391" lon="1.92134">
        <ele>1344.2</ele>
        <time>2024-06-30T09:15:36Z</time>
      </trkpt>
      <trkpt lat="42.81389" lon="1.92136">
        <ele>1344.4</ele>
        <time>2024-06-30T09:15:37Z</time>
      </trkpt>
      <trkpt lat="42.81387" lon="1.92138">
        <ele>1344.6</ele>
        <time>2024-06-30T09:15:38Z</time>
      </trkpt>
      <trkpt lat="42.81386" lon="1.9214">
        <ele>1344.8</ele>
        <time>2024-06-30T09:15:39Z</time>
      </trkpt>
      <trkpt lat="42.81384" lon="1.92142">
        <ele>1345.2</ele>
        <time>2024-06-30T09:15:40Z</time>
      </trkpt>
      <trkpt lat="42.81382" lon="1.92145">
        <ele>1345.6</ele>
        <time>2024-06-30T09:15:41Z</time>
      </trkpt>
      <trkpt lat="42.81381" lon="1.92146">
        <ele>1345.8</ele>
        <time>2024-06-30T09:15:42Z</time>
      </trkpt>
      <trkpt lat="42.81379" lon="1.92148">
        <ele>1346</ele>
        <time>2024-06-30T09:15:43Z</time>
      </trkpt>
      <trkpt lat="42.81377" lon="1.9215">
        <ele>1346</ele>
        <time>2024-06-30T09:15:44Z</time>
      </trkpt>
      <trkpt lat="42.81375" lon="1.92151">
        <ele>1346.2</ele>
        <time>2024-06-30T09:15:45Z</time>
      </trkpt>
      <trkpt lat="42.81374" lon="1.92152">
        <ele>1346.2</ele>
        <time>2024-06-30T09:15:46Z</time>
      </trkpt>
      <trkpt lat="42.81372" lon="1.92153">
        <ele>1346.4</ele>
        <time>2024-06-30T09:15:47Z</time>
      </trkpt>
      <trkpt lat="42.81369" lon="1.92154">
        <ele>1346.6</ele>
        <time>2024-06-30T09:15:48Z</time>
      </trkpt>
      <trkpt lat="42.81367" lon="1.92155">
        <ele>1346.8</ele>
        <time>2024-06-30T09:15:49Z</time>
      </trkpt>
      <trkpt lat="42.81365" lon="1.92156">
        <ele>1347</ele>
        <time>2024-06-30T09:15:50Z</time>
      </trkpt>
      <trkpt lat="42.81363" lon="1.92157">
        <ele>1347</ele>
        <time>2024-06-30T09:15:51Z</time>
      </trkpt>
      <trkpt lat="42.81361" lon="1.92157">
        <ele>1347.4</ele>
        <time>2024-06-30T09:15:52Z</time>
      </trkpt>
      <trkpt lat="42.81359" lon="1.92158">
        <ele>1347.6</ele>
        <time>2024-06-30T09:15:53Z</time>
      </trkpt>
      <trkpt lat="42.81357" lon="1.92159">
        <ele>1347.8</ele>
        <time>2024-06-30T09:15:54Z</time>
      </trkpt>
      <trkpt lat="42.81355" lon="1.92159">
        <ele>1348</ele>
        <time>2024-06-30T09:15:55Z</time>
      </trkpt>
      <trkpt lat="42.81353" lon="1.9216">
        <ele>1348</ele>
        <time>2024-06-30T09:15:56Z</time>
      </trkpt>
      <trkpt lat="42.81351" lon="1.92161">
        <ele>1348.4</ele>
        <time>2024-06-30T09:15:57Z</time>
      </trkpt>
      <trkpt lat="42.81349" lon="1.92162">
        <ele>1348.4</ele>
        <time>2024-06-30T09:15:58Z</time>
      </trkpt>
      <trkpt lat="42.81347" lon="1.92162">
        <ele>1349</ele>
        <time>2024-06-30T09:15:59Z</time>
      </trkpt>
      <trkpt lat="42.81345" lon="1.92163">
        <ele>1349</ele>
        <time>2024-06-30T09:16:00Z</time>
      </trkpt>
      <trkpt lat="42.81343" lon="1.92164">
        <ele>1349.2</ele>
        <time>2024-06-30T09:16:01Z</time>
      </trkpt>
      <trkpt lat="42.81341" lon="1.92165">
        <ele>1349.4</ele>
        <time>2024-06-30T09:16:02Z</time>
      </trkpt>
      <trkpt lat="42.81338" lon="1.92166">
        <ele>1349.8</ele>
        <time>2024-06-30T09:16:03Z</time>
      </trkpt>
      <trkpt lat="42.81336" lon="1.92166">
        <ele>1349.8</ele>
        <time>2024-06-30T09:16:04Z</time>
      </trkpt>
      <trkpt lat="42.81333" lon="1.92167">
        <ele>1350</ele>
        <time>2024-06-30T09:16:05Z</time>
      </trkpt>
      <trkpt lat="42.81331" lon="1.92167">
        <ele>1350.2</ele>
        <time>2024-06-30T09:16:06Z</time>
      </trkpt>
      <trkpt lat="42.81328" lon="1.92168">
        <ele>1350.4</ele>
        <time>2024-06-30T09:16:07Z</time>
      </trkpt>
      <trkpt lat="42.81326" lon="1.92169">
        <ele>1350.8</ele>
        <time>2024-06-30T09:16:08Z</time>
      </trkpt>
      <trkpt lat="42.81324" lon="1.92169">
        <ele>1350.8</ele>
        <time>2024-06-30T09:16:09Z</time>
      </trkpt>
      <trkpt lat="42.81321" lon="1.92169">
        <ele>1351</ele>
        <time>2024-06-30T09:16:10Z</time>
      </trkpt>
      <trkpt lat="42.81318" lon="1.92168">
        <ele>1351.2</ele>
        <time>2024-06-30T09:16:11Z</time>
      </trkpt>
      <trkpt lat="42.81316" lon="1.92167">
        <ele>1351.4</ele>
        <time>2024-06-30T09:16:12Z</time>
      </trkpt>
      <trkpt lat="42.81313" lon="1.92165">
        <ele>1351.6</ele>
        <time>2024-06-30T09:16:13Z</time>
      </trkpt>
      <trkpt lat="42.81311" lon="1.92164">
        <ele>1351.6</ele>
        <time>2024-06-30T09:16:14Z</time>
      </trkpt>
      <trkpt lat="42.81309" lon="1.92163">
        <ele>1351.6</ele>
        <time>2024-06-30T09:16:15Z</time>
      </trkpt>
      <trkpt lat="42.81306" lon="1.92162">
        <ele>1351.6</ele>
        <time>2024-06-30T09:16:16Z</time>
      </trkpt>
      <trkpt lat="42.81304" lon="1.92161">
        <ele>1351.8</ele>
        <time>2024-06-30T09:16:17Z</time>
      </trkpt>
      <trkpt lat="42.81302" lon="1.92159">
        <ele>1352</ele>
        <time>2024-06-30T09:16:18Z</time>
      </trkpt>
      <trkpt lat="42.813" lon="1.92158">
        <ele>1352.2</ele>
        <time>2024-06-30T09:16:19Z</time>
      </trkpt>
      <trkpt lat="42.81298" lon="1.92157">
        <ele>1352.2</ele>
        <time>2024-06-30T09:16:20Z</time>
      </trkpt>
      <trkpt lat="42.81296" lon="1.92157">
        <ele>1352.4</ele>
        <time>2024-06-30T09:16:21Z</time>
      </trkpt>
      <trkpt lat="42.81294" lon="1.92156">
        <ele>1352.6</ele>
        <time>2024-06-30T09:16:22Z</time>
      </trkpt>
      <trkpt lat="42.81291" lon="1.92155">
        <ele>1353</ele>
        <time>2024-06-30T09:16:23Z</time>
      </trkpt>
      <trkpt lat="42.81289" lon="1.92155">
        <ele>1353.4</ele>
        <time>2024-06-30T09:16:24Z</time>
      </trkpt>
      <trkpt lat="42.81287" lon="1.92154">
        <ele>1353.4</ele>
        <time>2024-06-30T09:16:25Z</time>
      </trkpt>
      <trkpt lat="42.81285" lon="1.92154">
        <ele>1353.6</ele>
        <time>2024-06-30T09:16:26Z</time>
      </trkpt>
      <trkpt lat="42.81282" lon="1.92153">
        <ele>1353.8</ele>
        <time>2024-06-30T09:16:27Z</time>
      </trkpt>
      <trkpt lat="42.8128" lon="1.92152">
        <ele>1353.8</ele>
        <time>2024-06-30T09:16:28Z</time>
      </trkpt>
      <trkpt lat="42.81278" lon="1.92151">
        <ele>1354</ele>
        <time>2024-06-30T09:16:29Z</time>
      </trkpt>
      <trkpt lat="42.81276" lon="1.9215">
        <ele>1354.2</ele>
        <time>2024-06-30T09:16:30Z</time>
      </trkpt>
      <trkpt lat="42.81274" lon="1.92149">
        <ele>1354.4</ele>
        <time>2024-06-30T09:16:31Z</time>
      </trkpt>
      <trkpt lat="42.81272" lon="1.92148">
        <ele>1354.6</ele>
        <time>2024-06-30T09:16:32Z</time>
      </trkpt>
      <trkpt lat="42.8127" lon="1.92146">
        <ele>1355</ele>
        <time>2024-06-30T09:16:33Z</time>
      </trkpt>
      <trkpt lat="42.81268" lon="1.92145">
        <ele>1355.2</ele>
        <time>2024-06-30T09:16:34Z</time>
      </trkpt>
      <trkpt lat="42.81266" lon="1.92143">
        <ele>1355.2</ele>
        <time>2024-06-30T09:16:35Z</time>
      </trkpt>
      <trkpt lat="42.81264" lon="1.92142">
        <ele>1355.4</ele>
        <time>2024-06-30T09:16:36Z</time>
      </trkpt>
      <trkpt lat="42.81262" lon="1.9214">
        <ele>1355.6</ele>
        <time>2024-06-30T09:16:37Z</time>
      </trkpt>
      <trkpt lat="42.8126" lon="1.92139">
        <ele>1355.8</ele>
        <time>2024-06-30T09:16:38Z</time>
      </trkpt>
      <trkpt lat="42.81257" lon="1.92137">
        <ele>1356</ele>
        <time>2024-06-30T09:16:39Z</time>
      </trkpt>
      <trkpt lat="42.81255" lon="1.92135">
        <ele>1356.2</ele>
        <time>2024-06-30T09:16:40Z</time>
      </trkpt>
      <trkpt lat="42.81252" lon="1.92133">
        <ele>1356.4</ele>
        <time>2024-06-30T09:16:41Z</time>
      </trkpt>
      <trkpt lat="42.8125" lon="1.92132">
        <ele>1356.4</ele>
        <time>2024-06-30T09:16:42Z</time>
      </trkpt>
      <trkpt lat="42.81247" lon="1.92129">
        <ele>1356.8</ele>
        <time>2024-06-30T09:16:43Z</time>
      </trkpt>
      <trkpt lat="42.81244" lon="1.92128">
        <ele>1356.8</ele>
        <time>2024-06-30T09:16:44Z</time>
      </trkpt>
      <trkpt lat="42.81242" lon="1.92126">
        <ele>1357.2</ele>
        <time>2024-06-30T09:16:45Z</time>
      </trkpt>
      <trkpt lat="42.8124" lon="1.92124">
        <ele>1357.2</ele>
        <time>2024-06-30T09:16:46Z</time>
      </trkpt>
      <trkpt lat="42.81237" lon="1.92122">
        <ele>1357.4</ele>
        <time>2024-06-30T09:16:47Z</time>
      </trkpt>
      <trkpt lat="42.81235" lon="1.92121">
        <ele>1357.4</ele>
        <time>2024-06-30T09:16:48Z</time>
      </trkpt>
      <trkpt lat="42.81232" lon="1.92119">
        <ele>1357.6</ele>
        <time>2024-06-30T09:16:49Z</time>
      </trkpt>
      <trkpt lat="42.81229" lon="1.92118">
        <ele>1357.6</ele>
        <time>2024-06-30T09:16:50Z</time>
      </trkpt>
      <trkpt lat="42.81227" lon="1.92117">
        <ele>1357.6</ele>
        <time>2024-06-30T09:16:51Z</time>
      </trkpt>
      <trkpt lat="42.81225" lon="1.92116">
        <ele>1357.6</ele>
        <time>2024-06-30T09:16:52Z</time>
      </trkpt>
      <trkpt lat="42.81225" lon="1.92116">
        <ele>1357.6</ele>
        <time>2024-06-30T09:16:53Z</time>
      </trkpt>
      <trkpt lat="42.81222" lon="1.92117">
        <ele>1357.6</ele>
        <time>2024-06-30T09:16:54Z</time>
      </trkpt>
      <trkpt lat="42.81221" lon="1.92118">
        <ele>1357.6</ele>
        <time>2024-06-30T09:16:55Z</time>
      </trkpt>
      <trkpt lat="42.8122" lon="1.92117">
        <ele>1357.6</ele>
        <time>2024-06-30T09:16:56Z</time>
      </trkpt>
      <trkpt lat="42.81219" lon="1.92116">
        <ele>1357.6</ele>
        <time>2024-06-30T09:16:57Z</time>
      </trkpt>
      <trkpt lat="42.81219" lon="1.92115">
        <ele>1357.6</ele>
        <time>2024-06-30T09:16:58Z</time>
      </trkpt>
      <trkpt lat="42.8122" lon="1.92113">
        <ele>1357.8</ele>
        <time>2024-06-30T09:16:59Z</time>
      </trkpt>
      <trkpt lat="42.81222" lon="1.92113">
        <ele>1357.8</ele>
        <time>2024-06-30T09:17:00Z</time>
      </trkpt>
      <trkpt lat="42.81224" lon="1.92114">
        <ele>1357.8</ele>
        <time>2024-06-30T09:17:01Z</time>
      </trkpt>
      <trkpt lat="42.81227" lon="1.92116">
        <ele>1357.8</ele>
        <time>2024-06-30T09:17:02Z</time>
      </trkpt>
      <trkpt lat="42.8123" lon="1.92118">
        <ele>1357.8</ele>
        <time>2024-06-30T09:17:03Z</time>
      </trkpt>
      <trkpt lat="42.81232" lon="1.92119">
        <ele>1357.6</ele>
        <time>2024-06-30T09:17:04Z</time>
      </trkpt>
      <trkpt lat="42.81244" lon="1.9213">
        <ele>1357.4</ele>
        <time>2024-06-30T09:17:08Z</time>
      </trkpt>
      <trkpt lat="42.81247" lon="1.92134">
        <ele>1357.4</ele>
        <time>2024-06-30T09:17:09Z</time>
      </trkpt>
      <trkpt lat="42.81252" lon="1.92143">
        <ele>1356.8</ele>
        <time>2024-06-30T09:17:11Z</time>
      </trkpt>
      <trkpt lat="42.81259" lon="1.92152">
        <ele>1356.6</ele>
        <time>2024-06-30T09:17:13Z</time>
      </trkpt>
      <trkpt lat="42.8127" lon="1.92167">
        <ele>1356</ele>
        <time>2024-06-30T09:17:16Z</time>
      </trkpt>
      <trkpt lat="42.81273" lon="1.9217">
        <ele>1356</ele>
        <time>2024-06-30T09:17:17Z</time>
      </trkpt>
      <trkpt lat="42.81276" lon="1.92174">
        <ele>1356</ele>
        <time>2024-06-30T09:17:18Z</time>
      </trkpt>
      <trkpt lat="42.81279" lon="1.92177">
        <ele>1355.6</ele>
        <time>2024-06-30T09:17:19Z</time>
      </trkpt>
      <trkpt lat="42.81281" lon="1.9218">
        <ele>1355.6</ele>
        <time>2024-06-30T09:17:20Z</time>
      </trkpt>
      <trkpt lat="42.81283" lon="1.92183">
        <ele>1355.6</ele>
        <time>2024-06-30T09:17:21Z</time>
      </trkpt>
      <trkpt lat="42.81285" lon="1.92185">
        <ele>1355.6</ele>
        <time>2024-06-30T09:17:22Z</time>
      </trkpt>
      <trkpt lat="42.81286" lon="1.92187">
        <ele>1355.6</ele>
        <time>2024-06-30T09:17:23Z</time>
      </trkpt>
      <trkpt lat="42.81287" lon="1.9219">
        <ele>1355.6</ele>
        <time>2024-06-30T09:17:24Z</time>
      </trkpt>
      <trkpt lat="42.81288" lon="1.92193">
        <ele>1355.6</ele>
        <time>2024-06-30T09:17:25Z</time>
      </trkpt>
      <trkpt lat="42.81289" lon="1.92195">
        <ele>1356</ele>
        <time>2024-06-30T09:17:26Z</time>
      </trkpt>
      <trkpt lat="42.81292" lon="1.922">
        <ele>1356.4</ele>
        <time>2024-06-30T09:17:28Z</time>
      </trkpt>
      <trkpt lat="42.81293" lon="1.92203">
        <ele>1356.6</ele>
        <time>2024-06-30T09:17:29Z</time>
      </trkpt>
      <trkpt lat="42.81294" lon="1.92205">
        <ele>1356.8</ele>
        <time>2024-06-30T09:17:30Z</time>
      </trkpt>
      <trkpt lat="42.81296" lon="1.92207">
        <ele>1357.4</ele>
        <time>2024-06-30T09:17:31Z</time>
      </trkpt>
      <trkpt lat="42.81297" lon="1.92208">
        <ele>1357.4</ele>
        <time>2024-06-30T09:17:32Z</time>
      </trkpt>
      <trkpt lat="42.81298" lon="1.9221">
        <ele>1357.8</ele>
        <time>2024-06-30T09:17:33Z</time>
      </trkpt>
      <trkpt lat="42.813" lon="1.92213">
        <ele>1358</ele>
        <time>2024-06-30T09:17:34Z</time>
      </trkpt>
      <trkpt lat="42.81301" lon="1.92215">
        <ele>1358</ele>
        <time>2024-06-30T09:17:35Z</time>
      </trkpt>
      <trkpt lat="42.81302" lon="1.92216">
        <ele>1358.6</ele>
        <time>2024-06-30T09:17:36Z</time>
      </trkpt>
      <trkpt lat="42.81303" lon="1.92218">
        <ele>1358.8</ele>
        <time>2024-06-30T09:17:37Z</time>
      </trkpt>
      <trkpt lat="42.81304" lon="1.9222">
        <ele>1359.2</ele>
        <time>2024-06-30T09:17:38Z</time>
      </trkpt>
      <trkpt lat="42.81306" lon="1.92223">
        <ele>1359.4</ele>
        <time>2024-06-30T09:17:39Z</time>
      </trkpt>
      <trkpt lat="42.81308" lon="1.92225">
        <ele>1359.6</ele>
        <time>2024-06-30T09:17:40Z</time>
      </trkpt>
      <trkpt lat="42.81309" lon="1.92227">
        <ele>1359.8</ele>
        <time>2024-06-30T09:17:41Z</time>
      </trkpt>
      <trkpt lat="42.8131" lon="1.92228">
        <ele>1360.2</ele>
        <time>2024-06-30T09:17:42Z</time>
      </trkpt>
      <trkpt lat="42.81312" lon="1.9223">
        <ele>1360.8</ele>
        <time>2024-06-30T09:17:43Z</time>
      </trkpt>
      <trkpt lat="42.81314" lon="1.92232">
        <ele>1361</ele>
        <time>2024-06-30T09:17:44Z</time>
      </trkpt>
      <trkpt lat="42.81316" lon="1.92234">
        <ele>1361.8</ele>
        <time>2024-06-30T09:17:45Z</time>
      </trkpt>
      <trkpt lat="42.81318" lon="1.92235">
        <ele>1362</ele>
        <time>2024-06-30T09:17:46Z</time>
      </trkpt>
      <trkpt lat="42.81319" lon="1.92237">
        <ele>1362.4</ele>
        <time>2024-06-30T09:17:47Z</time>
      </trkpt>
      <trkpt lat="42.81321" lon="1.92239">
        <ele>1362.6</ele>
        <time>2024-06-30T09:17:48Z</time>
      </trkpt>
      <trkpt lat="42.81322" lon="1.9224">
        <ele>1362.8</ele>
        <time>2024-06-30T09:17:49Z</time>
      </trkpt>
      <trkpt lat="42.81324" lon="1.92241">
        <ele>1363.4</ele>
        <time>2024-06-30T09:17:50Z</time>
      </trkpt>
      <trkpt lat="42.81325" lon="1.92243">
        <ele>1363.8</ele>
        <time>2024-06-30T09:17:51Z</time>
      </trkpt>
      <trkpt lat="42.81327" lon="1.92244">
        <ele>1364.2</ele>
        <time>2024-06-30T09:17:52Z</time>
      </trkpt>
      <trkpt lat="42.81328" lon="1.92246">
        <ele>1364.4</ele>
        <time>2024-06-30T09:17:53Z</time>
      </trkpt>
      <trkpt lat="42.8133" lon="1.92247">
        <ele>1364.8</ele>
        <time>2024-06-30T09:17:54Z</time>
      </trkpt>
      <trkpt lat="42.81331" lon="1.92247">
        <ele>1365</ele>
        <time>2024-06-30T09:17:55Z</time>
      </trkpt>
      <trkpt lat="42.81332" lon="1.92248">
        <ele>1365.4</ele>
        <time>2024-06-30T09:17:56Z</time>
      </trkpt>
      <trkpt lat="42.81333" lon="1.92249">
        <ele>1365.8</ele>
        <time>2024-06-30T09:17:57Z</time>
      </trkpt>
      <trkpt lat="42.81335" lon="1.9225">
        <ele>1366</ele>
        <time>2024-06-30T09:17:58Z</time>
      </trkpt>
      <trkpt lat="42.81336" lon="1.92251">
        <ele>1366.8</ele>
        <time>2024-06-30T09:17:59Z</time>
      </trkpt>
      <trkpt lat="42.81337" lon="1.92252">
        <ele>1367.2</ele>
        <time>2024-06-30T09:18:00Z</time>
      </trkpt>
      <trkpt lat="42.81339" lon="1.92254">
        <ele>1367.6</ele>
        <time>2024-06-30T09:18:01Z</time>
      </trkpt>
      <trkpt lat="42.8134" lon="1.92255">
        <ele>1367.8</ele>
        <time>2024-06-30T09:18:02Z</time>
      </trkpt>
      <trkpt lat="42.81342" lon="1.92256">
        <ele>1368</ele>
        <time>2024-06-30T09:18:03Z</time>
      </trkpt>
      <trkpt lat="42.81343" lon="1.92258">
        <ele>1368.4</ele>
        <time>2024-06-30T09:18:04Z</time>
      </trkpt>
      <trkpt lat="42.81344" lon="1.92258">
        <ele>1368.4</ele>
        <time>2024-06-30T09:18:05Z</time>
      </trkpt>
      <trkpt lat="42.81346" lon="1.9226">
        <ele>1369</ele>
        <time>2024-06-30T09:18:06Z</time>
      </trkpt>
      <trkpt lat="42.81347" lon="1.92261">
        <ele>1369</ele>
        <time>2024-06-30T09:18:07Z</time>
      </trkpt>
      <trkpt lat="42.81349" lon="1.92262">
        <ele>1369.6</ele>
        <time>2024-06-30T09:18:08Z</time>
      </trkpt>
      <trkpt lat="42.8135" lon="1.92264">
        <ele>1369.8</ele>
        <time>2024-06-30T09:18:09Z</time>
      </trkpt>
      <trkpt lat="42.81352" lon="1.92265">
        <ele>1370.2</ele>
        <time>2024-06-30T09:18:10Z</time>
      </trkpt>
      <trkpt lat="42.81353" lon="1.92267">
        <ele>1370.8</ele>
        <time>2024-06-30T09:18:11Z</time>
      </trkpt>
      <trkpt lat="42.81355" lon="1.92268">
        <ele>1371.2</ele>
        <time>2024-06-30T09:18:12Z</time>
      </trkpt>
      <trkpt lat="42.81356" lon="1.9227">
        <ele>1371.6</ele>
        <time>2024-06-30T09:18:13Z</time>
      </trkpt>
      <trkpt lat="42.81358" lon="1.92271">
        <ele>1371.8</ele>
        <time>2024-06-30T09:18:14Z</time>
      </trkpt>
      <trkpt lat="42.81359" lon="1.92273">
        <ele>1372.2</ele>
        <time>2024-06-30T09:18:15Z</time>
      </trkpt>
      <trkpt lat="42.8136" lon="1.92275">
        <ele>1372.4</ele>
        <time>2024-06-30T09:18:16Z</time>
      </trkpt>
      <trkpt lat="42.81361" lon="1.92276">
        <ele>1373</ele>
        <time>2024-06-30T09:18:17Z</time>
      </trkpt>
      <trkpt lat="42.81363" lon="1.92278">
        <ele>1373</ele>
        <time>2024-06-30T09:18:18Z</time>
      </trkpt>
      <trkpt lat="42.81364" lon="1.92279">
        <ele>1373.6</ele>
        <time>2024-06-30T09:18:19Z</time>
      </trkpt>
      <trkpt lat="42.81365" lon="1.9228">
        <ele>1374.4</ele>
        <time>2024-06-30T09:18:20Z</time>
      </trkpt>
      <trkpt lat="42.81367" lon="1.92282">
        <ele>1374.8</ele>
        <time>2024-06-30T09:18:21Z</time>
      </trkpt>
      <trkpt lat="42.81368" lon="1.92284">
        <ele>1375.2</ele>
        <time>2024-06-30T09:18:22Z</time>
      </trkpt>
      <trkpt lat="42.81369" lon="1.92285">
        <ele>1375.4</ele>
        <time>2024-06-30T09:18:23Z</time>
      </trkpt>
      <trkpt lat="42.81371" lon="1.92286">
        <ele>1375.6</ele>
        <time>2024-06-30T09:18:24Z</time>
      </trkpt>
      <trkpt lat="42.81372" lon="1.92288">
        <ele>1375.8</ele>
        <time>2024-06-30T09:18:25Z</time>
      </trkpt>
      <trkpt lat="42.81373" lon="1.92289">
        <ele>1376.2</ele>
        <time>2024-06-30T09:18:26Z</time>
      </trkpt>
      <trkpt lat="42.81374" lon="1.92291">
        <ele>1376.4</ele>
        <time>2024-06-30T09:18:27Z</time>
      </trkpt>
      <trkpt lat="42.81375" lon="1.92292">
        <ele>1376.6</ele>
        <time>2024-06-30T09:18:28Z</time>
      </trkpt>
      <trkpt lat="42.81376" lon="1.92293">
        <ele>1377</ele>
        <time>2024-06-30T09:18:29Z</time>
      </trkpt>
      <trkpt lat="42.81378" lon="1.92295">
        <ele>1377</ele>
        <time>2024-06-30T09:18:30Z</time>
      </trkpt>
      <trkpt lat="42.81379" lon="1.92297">
        <ele>1377.2</ele>
        <time>2024-06-30T09:18:31Z</time>
      </trkpt>
      <trkpt lat="42.8138" lon="1.92299">
        <ele>1377.4</ele>
        <time>2024-06-30T09:18:32Z</time>
      </trkpt>
      <trkpt lat="42.81381" lon="1.923">
        <ele>1378</ele>
        <time>2024-06-30T09:18:33Z</time>
      </trkpt>
      <trkpt lat="42.81382" lon="1.92302">
        <ele>1378.2</ele>
        <time>2024-06-30T09:18:34Z</time>
      </trkpt>
      <trkpt lat="42.81383" lon="1.92303">
        <ele>1378.4</ele>
        <time>2024-06-30T09:18:35Z</time>
      </trkpt>
      <trkpt lat="42.81384" lon="1.92305">
        <ele>1378.6</ele>
        <time>2024-06-30T09:18:36Z</time>
      </trkpt>
      <trkpt lat="42.81385" lon="1.92307">
        <ele>1378.8</ele>
        <time>2024-06-30T09:18:37Z</time>
      </trkpt>
      <trkpt lat="42.81387" lon="1.9231">
        <ele>1379.2</ele>
        <time>2024-06-30T09:18:38Z</time>
      </trkpt>
      <trkpt lat="42.81388" lon="1.92312">
        <ele>1379.2</ele>
        <time>2024-06-30T09:18:39Z</time>
      </trkpt>
      <trkpt lat="42.81389" lon="1.92314">
        <ele>1379.6</ele>
        <time>2024-06-30T09:18:40Z</time>
      </trkpt>
      <trkpt lat="42.81389" lon="1.92316">
        <ele>1379.8</ele>
        <time>2024-06-30T09:18:41Z</time>
      </trkpt>
      <trkpt lat="42.8139" lon="1.92319">
        <ele>1380</ele>
        <time>2024-06-30T09:18:42Z</time>
      </trkpt>
      <trkpt lat="42.81391" lon="1.92321">
        <ele>1380.4</ele>
        <time>2024-06-30T09:18:43Z</time>
      </trkpt>
      <trkpt lat="42.81393" lon="1.92323">
        <ele>1380.8</ele>
        <time>2024-06-30T09:18:44Z</time>
      </trkpt>
      <trkpt lat="42.81393" lon="1.92325">
        <ele>1381.2</ele>
        <time>2024-06-30T09:18:45Z</time>
      </trkpt>
      <trkpt lat="42.81394" lon="1.92327">
        <ele>1381.4</ele>
        <time>2024-06-30T09:18:46Z</time>
      </trkpt>
      <trkpt lat="42.81395" lon="1.92329">
        <ele>1382</ele>
        <time>2024-06-30T09:18:47Z</time>
      </trkpt>
      <trkpt lat="42.81396" lon="1.92331">
        <ele>1382.2</ele>
        <time>2024-06-30T09:18:48Z</time>
      </trkpt>
      <trkpt lat="42.81396" lon="1.92333">
        <ele>1382.6</ele>
        <time>2024-06-30T09:18:49Z</time>
      </trkpt>
      <trkpt lat="42.81396" lon="1.92336">
        <ele>1382.8</ele>
        <time>2024-06-30T09:18:50Z</time>
      </trkpt>
      <trkpt lat="42.81397" lon="1.92339">
        <ele>1383</ele>
        <time>2024-06-30T09:18:51Z</time>
      </trkpt>
      <trkpt lat="42.81397" lon="1.92341">
        <ele>1383.4</ele>
        <time>2024-06-30T09:18:52Z</time>
      </trkpt>
      <trkpt lat="42.81398" lon="1.92344">
        <ele>1383.6</ele>
        <time>2024-06-30T09:18:53Z</time>
      </trkpt>
      <trkpt lat="42.81398" lon="1.92346">
        <ele>1384</ele>
        <time>2024-06-30T09:18:54Z</time>
      </trkpt>
      <trkpt lat="42.81398" lon="1.92349">
        <ele>1384.2</ele>
        <time>2024-06-30T09:18:55Z</time>
      </trkpt>
      <trkpt lat="42.81398" lon="1.92351">
        <ele>1384.8</ele>
        <time>2024-06-30T09:18:56Z</time>
      </trkpt>
      <trkpt lat="42.81398" lon="1.92353">
        <ele>1385.6</ele>
        <time>2024-06-30T09:18:57Z</time>
      </trkpt>
      <trkpt lat="42.81399" lon="1.92355">
        <ele>1386</ele>
        <time>2024-06-30T09:18:58Z</time>
      </trkpt>
      <trkpt lat="42.81399" lon="1.92357">
        <ele>1386.4</ele>
        <time>2024-06-30T09:18:59Z</time>
      </trkpt>
      <trkpt lat="42.814" lon="1.92361">
        <ele>1386.6</ele>
        <time>2024-06-30T09:19:00Z</time>
      </trkpt>
      <trkpt lat="42.814" lon="1.92363">
        <ele>1386.8</ele>
        <time>2024-06-30T09:19:01Z</time>
      </trkpt>
      <trkpt lat="42.81398" lon="1.92366">
        <ele>1387</ele>
        <time>2024-06-30T09:19:02Z</time>
      </trkpt>
      <trkpt lat="42.81396" lon="1.92368">
        <ele>1387.2</ele>
        <time>2024-06-30T09:19:03Z</time>
      </trkpt>
      <trkpt lat="42.81398" lon="1.9237">
        <ele>1387.4</ele>
        <time>2024-06-30T09:19:04Z</time>
      </trkpt>
      <trkpt lat="42.81399" lon="1.9237">
        <ele>1387.6</ele>
        <time>2024-06-30T09:19:05Z</time>
      </trkpt>
      <trkpt lat="42.81399" lon="1.92374">
        <ele>1387.8</ele>
        <time>2024-06-30T09:19:06Z</time>
      </trkpt>
      <trkpt lat="42.81398" lon="1.92376">
        <ele>1388.2</ele>
        <time>2024-06-30T09:19:07Z</time>
      </trkpt>
      <trkpt lat="42.81398" lon="1.92379">
        <ele>1388.8</ele>
        <time>2024-06-30T09:19:08Z</time>
      </trkpt>
      <trkpt lat="42.81398" lon="1.92383">
        <ele>1389.2</ele>
        <time>2024-06-30T09:19:09Z</time>
      </trkpt>
      <trkpt lat="42.81397" lon="1.92386">
        <ele>1389.6</ele>
        <time>2024-06-30T09:19:10Z</time>
      </trkpt>
      <trkpt lat="42.81397" lon="1.9239">
        <ele>1389.8</ele>
        <time>2024-06-30T09:19:11Z</time>
      </trkpt>
      <trkpt lat="42.81397" lon="1.92394">
        <ele>1389.8</ele>
        <time>2024-06-30T09:19:12Z</time>
      </trkpt>
      <trkpt lat="42.81398" lon="1.92392">
        <ele>1390.2</ele>
        <time>2024-06-30T09:19:13Z</time>
      </trkpt>
      <trkpt lat="42.81399" lon="1.92394">
        <ele>1390.4</ele>
        <time>2024-06-30T09:19:14Z</time>
      </trkpt>
      <trkpt lat="42.81398" lon="1.92397">
        <ele>1390.8</ele>
        <time>2024-06-30T09:19:15Z</time>
      </trkpt>
      <trkpt lat="42.81399" lon="1.924">
        <ele>1390.8</ele>
        <time>2024-06-30T09:19:16Z</time>
      </trkpt>
      <trkpt lat="42.81399" lon="1.92402">
        <ele>1391.2</ele>
        <time>2024-06-30T09:19:17Z</time>
      </trkpt>
      <trkpt lat="42.81399" lon="1.92405">
        <ele>1391.2</ele>
        <time>2024-06-30T09:19:18Z</time>
      </trkpt>
      <trkpt lat="42.81399" lon="1.92409">
        <ele>1391.4</ele>
        <time>2024-06-30T09:19:19Z</time>
      </trkpt>
      <trkpt lat="42.81399" lon="1.92412">
        <ele>1391.4</ele>
        <time>2024-06-30T09:19:20Z</time>
      </trkpt>
      <trkpt lat="42.814" lon="1.92417">
        <ele>1391.4</ele>
        <time>2024-06-30T09:19:21Z</time>
      </trkpt>
      <trkpt lat="42.81401" lon="1.9242">
        <ele>1391.4</ele>
        <time>2024-06-30T09:19:22Z</time>
      </trkpt>
      <trkpt lat="42.81403" lon="1.92425">
        <ele>1391.6</ele>
        <time>2024-06-30T09:19:23Z</time>
      </trkpt>
      <trkpt lat="42.81405" lon="1.92428">
        <ele>1391.4</ele>
        <time>2024-06-30T09:19:24Z</time>
      </trkpt>
      <trkpt lat="42.81409" lon="1.92432">
        <ele>1391.4</ele>
        <time>2024-06-30T09:19:25Z</time>
      </trkpt>
      <trkpt lat="42.81413" lon="1.92435">
        <ele>1391.2</ele>
        <time>2024-06-30T09:19:26Z</time>
      </trkpt>
      <trkpt lat="42.81416" lon="1.92437">
        <ele>1391</ele>
        <time>2024-06-30T09:19:27Z</time>
      </trkpt>
      <trkpt lat="42.8142" lon="1.92439">
        <ele>1390.8</ele>
        <time>2024-06-30T09:19:28Z</time>
      </trkpt>
      <trkpt lat="42.81423" lon="1.92441">
        <ele>1390.6</ele>
        <time>2024-06-30T09:19:29Z</time>
      </trkpt>
      <trkpt lat="42.81425" lon="1.92442">
        <ele>1390.4</ele>
        <time>2024-06-30T09:19:30Z</time>
      </trkpt>
      <trkpt lat="42.81429" lon="1.92444">
        <ele>1390.2</ele>
        <time>2024-06-30T09:19:31Z</time>
      </trkpt>
      <trkpt lat="42.81431" lon="1.92445">
        <ele>1390.2</ele>
        <time>2024-06-30T09:19:32Z</time>
      </trkpt>
      <trkpt lat="42.81434" lon="1.92446">
        <ele>1390.2</ele>
        <time>2024-06-30T09:19:33Z</time>
      </trkpt>
      <trkpt lat="42.81436" lon="1.92447">
        <ele>1390.2</ele>
        <time>2024-06-30T09:19:34Z</time>
      </trkpt>
      <trkpt lat="42.81438" lon="1.92448">
        <ele>1390.4</ele>
        <time>2024-06-30T09:19:35Z</time>
      </trkpt>
      <trkpt lat="42.8144" lon="1.92449">
        <ele>1390.4</ele>
        <time>2024-06-30T09:19:36Z</time>
      </trkpt>
      <trkpt lat="42.81442" lon="1.9245">
        <ele>1390.4</ele>
        <time>2024-06-30T09:19:37Z</time>
      </trkpt>
      <trkpt lat="42.81448" lon="1.92453">
        <ele>1390.6</ele>
        <time>2024-06-30T09:19:40Z</time>
      </trkpt>
      <trkpt lat="42.8145" lon="1.92454">
        <ele>1390.8</ele>
        <time>2024-06-30T09:19:41Z</time>
      </trkpt>
      <trkpt lat="42.81452" lon="1.92455">
        <ele>1391</ele>
        <time>2024-06-30T09:19:42Z</time>
      </trkpt>
      <trkpt lat="42.81453" lon="1.92455">
        <ele>1391.2</ele>
        <time>2024-06-30T09:19:43Z</time>
      </trkpt>
      <trkpt lat="42.81455" lon="1.92456">
        <ele>1391.4</ele>
        <time>2024-06-30T09:19:44Z</time>
      </trkpt>
      <trkpt lat="42.81457" lon="1.92457">
        <ele>1391.8</ele>
        <time>2024-06-30T09:19:45Z</time>
      </trkpt>
      <trkpt lat="42.81458" lon="1.92458">
        <ele>1392</ele>
        <time>2024-06-30T09:19:46Z</time>
      </trkpt>
      <trkpt lat="42.8146" lon="1.92459">
        <ele>1392.2</ele>
        <time>2024-06-30T09:19:47Z</time>
      </trkpt>
      <trkpt lat="42.81462" lon="1.9246">
        <ele>1392.4</ele>
        <time>2024-06-30T09:19:48Z</time>
      </trkpt>
      <trkpt lat="42.81463" lon="1.9246">
        <ele>1392.8</ele>
        <time>2024-06-30T09:19:49Z</time>
      </trkpt>
      <trkpt lat="42.81465" lon="1.92461">
        <ele>1393.2</ele>
        <time>2024-06-30T09:19:50Z</time>
      </trkpt>
      <trkpt lat="42.81467" lon="1.92462">
        <ele>1393.4</ele>
        <time>2024-06-30T09:19:51Z</time>
      </trkpt>
      <trkpt lat="42.81469" lon="1.92463">
        <ele>1394</ele>
        <time>2024-06-30T09:19:52Z</time>
      </trkpt>
      <trkpt lat="42.81471" lon="1.92463">
        <ele>1394</ele>
        <time>2024-06-30T09:19:53Z</time>
      </trkpt>
      <trkpt lat="42.81473" lon="1.92464">
        <ele>1394.6</ele>
        <time>2024-06-30T09:19:54Z</time>
      </trkpt>
      <trkpt lat="42.81474" lon="1.92465">
        <ele>1394.8</ele>
        <time>2024-06-30T09:19:55Z</time>
      </trkpt>
      <trkpt lat="42.81476" lon="1.92466">
        <ele>1395</ele>
        <time>2024-06-30T09:19:56Z</time>
      </trkpt>
      <trkpt lat="42.81478" lon="1.92466">
        <ele>1395.2</ele>
        <time>2024-06-30T09:19:57Z</time>
      </trkpt>
      <trkpt lat="42.8148" lon="1.92467">
        <ele>1395.4</ele>
        <time>2024-06-30T09:19:58Z</time>
      </trkpt>
      <trkpt lat="42.81481" lon="1.92468">
        <ele>1396</ele>
        <time>2024-06-30T09:19:59Z</time>
      </trkpt>
      <trkpt lat="42.81483" lon="1.92469">
        <ele>1396.2</ele>
        <time>2024-06-30T09:20:00Z</time>
      </trkpt>
      <trkpt lat="42.81485" lon="1.92469">
        <ele>1396.4</ele>
        <time>2024-06-30T09:20:01Z</time>
      </trkpt>
      <trkpt lat="42.81487" lon="1.9247">
        <ele>1396.6</ele>
        <time>2024-06-30T09:20:02Z</time>
      </trkpt>
      <trkpt lat="42.81488" lon="1.92471">
        <ele>1396.8</ele>
        <time>2024-06-30T09:20:03Z</time>
      </trkpt>
      <trkpt lat="42.81489" lon="1.92472">
        <ele>1397.6</ele>
        <time>2024-06-30T09:20:04Z</time>
      </trkpt>
      <trkpt lat="42.81491" lon="1.92473">
        <ele>1397.8</ele>
        <time>2024-06-30T09:20:05Z</time>
      </trkpt>
      <trkpt lat="42.81492" lon="1.92474">
        <ele>1398.2</ele>
        <time>2024-06-30T09:20:06Z</time>
      </trkpt>
      <trkpt lat="42.81494" lon="1.92474">
        <ele>1398.4</ele>
        <time>2024-06-30T09:20:07Z</time>
      </trkpt>
      <trkpt lat="42.81496" lon="1.92475">
        <ele>1399</ele>
        <time>2024-06-30T09:20:08Z</time>
      </trkpt>
      <trkpt lat="42.81497" lon="1.92476">
        <ele>1399.2</ele>
        <time>2024-06-30T09:20:09Z</time>
      </trkpt>
      <trkpt lat="42.81499" lon="1.92478">
        <ele>1399.6</ele>
        <time>2024-06-30T09:20:10Z</time>
      </trkpt>
      <trkpt lat="42.81501" lon="1.92479">
        <ele>1399.8</ele>
        <time>2024-06-30T09:20:11Z</time>
      </trkpt>
      <trkpt lat="42.81503" lon="1.9248">
        <ele>1399.8</ele>
        <time>2024-06-30T09:20:12Z</time>
      </trkpt>
      <trkpt lat="42.81505" lon="1.92481">
        <ele>1400</ele>
        <time>2024-06-30T09:20:13Z</time>
      </trkpt>
      <trkpt lat="42.81506" lon="1.92482">
        <ele>1400.2</ele>
        <time>2024-06-30T09:20:14Z</time>
      </trkpt>
      <trkpt lat="42.81508" lon="1.92483">
        <ele>1400.4</ele>
        <time>2024-06-30T09:20:15Z</time>
      </trkpt>
      <trkpt lat="42.8151" lon="1.92484">
        <ele>1400.4</ele>
        <time>2024-06-30T09:20:16Z</time>
      </trkpt>
      <trkpt lat="42.81512" lon="1.92484">
        <ele>1400.8</ele>
        <time>2024-06-30T09:20:17Z</time>
      </trkpt>
      <trkpt lat="42.81514" lon="1.92485">
        <ele>1401</ele>
        <time>2024-06-30T09:20:18Z</time>
      </trkpt>
      <trkpt lat="42.81516" lon="1.92486">
        <ele>1401.2</ele>
        <time>2024-06-30T09:20:19Z</time>
      </trkpt>
      <trkpt lat="42.81518" lon="1.92487">
        <ele>1401.6</ele>
        <time>2024-06-30T09:20:20Z</time>
      </trkpt>
      <trkpt lat="42.8152" lon="1.92488">
        <ele>1401.8</ele>
        <time>2024-06-30T09:20:21Z</time>
      </trkpt>
      <trkpt lat="42.81521" lon="1.92488">
        <ele>1402</ele>
        <time>2024-06-30T09:20:22Z</time>
      </trkpt>
      <trkpt lat="42.81523" lon="1.92489">
        <ele>1402.4</ele>
        <time>2024-06-30T09:20:23Z</time>
      </trkpt>
      <trkpt lat="42.81524" lon="1.92489">
        <ele>1402.6</ele>
        <time>2024-06-30T09:20:24Z</time>
      </trkpt>
      <trkpt lat="42.81526" lon="1.92488">
        <ele>1402.8</ele>
        <time>2024-06-30T09:20:25Z</time>
      </trkpt>
      <trkpt lat="42.81527" lon="1.92489">
        <ele>1403.4</ele>
        <time>2024-06-30T09:20:26Z</time>
      </trkpt>
      <trkpt lat="42.81529" lon="1.92489">
        <ele>1403.8</ele>
        <time>2024-06-30T09:20:27Z</time>
      </trkpt>
      <trkpt lat="42.8153" lon="1.92489">
        <ele>1403.8</ele>
        <time>2024-06-30T09:20:28Z</time>
      </trkpt>
      <trkpt lat="42.81532" lon="1.9249">
        <ele>1404.2</ele>
        <time>2024-06-30T09:20:29Z</time>
      </trkpt>
      <trkpt lat="42.81533" lon="1.9249">
        <ele>1404.4</ele>
        <time>2024-06-30T09:20:30Z</time>
      </trkpt>
      <trkpt lat="42.81536" lon="1.92491">
        <ele>1404.8</ele>
        <time>2024-06-30T09:20:31Z</time>
      </trkpt>
      <trkpt lat="42.81537" lon="1.92492">
        <ele>1405</ele>
        <time>2024-06-30T09:20:32Z</time>
      </trkpt>
      <trkpt lat="42.81538" lon="1.92492">
        <ele>1405.6</ele>
        <time>2024-06-30T09:20:33Z</time>
      </trkpt>
      <trkpt lat="42.8154" lon="1.92493">
        <ele>1405.6</ele>
        <time>2024-06-30T09:20:34Z</time>
      </trkpt>
      <trkpt lat="42.81541" lon="1.92494">
        <ele>1406.2</ele>
        <time>2024-06-30T09:20:35Z</time>
      </trkpt>
      <trkpt lat="42.81542" lon="1.92495">
        <ele>1406.8</ele>
        <time>2024-06-30T09:20:36Z</time>
      </trkpt>
      <trkpt lat="42.81544" lon="1.92496">
        <ele>1406.8</ele>
        <time>2024-06-30T09:20:37Z</time>
      </trkpt>
      <trkpt lat="42.81546" lon="1.92496">
        <ele>1407.2</ele>
        <time>2024-06-30T09:20:38Z</time>
      </trkpt>
      <trkpt lat="42.81547" lon="1.92497">
        <ele>1407.4</ele>
        <time>2024-06-30T09:20:39Z</time>
      </trkpt>
      <trkpt lat="42.81548" lon="1.92497">
        <ele>1408.2</ele>
        <time>2024-06-30T09:20:40Z</time>
      </trkpt>
      <trkpt lat="42.81549" lon="1.92497">
        <ele>1408.4</ele>
        <time>2024-06-30T09:20:41Z</time>
      </trkpt>
      <trkpt lat="42.81551" lon="1.92498">
        <ele>1408.8</ele>
        <time>2024-06-30T09:20:42Z</time>
      </trkpt>
      <trkpt lat="42.81552" lon="1.92498">
        <ele>1409.2</ele>
        <time>2024-06-30T09:20:43Z</time>
      </trkpt>
      <trkpt lat="42.81554" lon="1.92497">
        <ele>1409.4</ele>
        <time>2024-06-30T09:20:44Z</time>
      </trkpt>
      <trkpt lat="42.81555" lon="1.92497">
        <ele>1409.8</ele>
        <time>2024-06-30T09:20:45Z</time>
      </trkpt>
      <trkpt lat="42.81557" lon="1.92497">
        <ele>1410</ele>
        <time>2024-06-30T09:20:46Z</time>
      </trkpt>
      <trkpt lat="42.81558" lon="1.92497">
        <ele>1410.2</ele>
        <time>2024-06-30T09:20:47Z</time>
      </trkpt>
      <trkpt lat="42.8156" lon="1.92497">
        <ele>1410.4</ele>
        <time>2024-06-30T09:20:48Z</time>
      </trkpt>
      <trkpt lat="42.81562" lon="1.92497">
        <ele>1410.8</ele>
        <time>2024-06-30T09:20:49Z</time>
      </trkpt>
      <trkpt lat="42.81563" lon="1.92497">
        <ele>1411.6</ele>
        <time>2024-06-30T09:20:50Z</time>
      </trkpt>
      <trkpt lat="42.81565" lon="1.92498">
        <ele>1411.8</ele>
        <time>2024-06-30T09:20:51Z</time>
      </trkpt>
      <trkpt lat="42.81566" lon="1.92497">
        <ele>1412.6</ele>
        <time>2024-06-30T09:20:52Z</time>
      </trkpt>
      <trkpt lat="42.81568" lon="1.92497">
        <ele>1412.8</ele>
        <time>2024-06-30T09:20:53Z</time>
      </trkpt>
      <trkpt lat="42.81569" lon="1.92498">
        <ele>1413.2</ele>
        <time>2024-06-30T09:20:54Z</time>
      </trkpt>
      <trkpt lat="42.81571" lon="1.92497">
        <ele>1413.4</ele>
        <time>2024-06-30T09:20:55Z</time>
      </trkpt>
      <trkpt lat="42.81573" lon="1.92497">
        <ele>1413.8</ele>
        <time>2024-06-30T09:20:56Z</time>
      </trkpt>
      <trkpt lat="42.81574" lon="1.92497">
        <ele>1414</ele>
        <time>2024-06-30T09:20:57Z</time>
      </trkpt>
      <trkpt lat="42.81576" lon="1.92497">
        <ele>1414.4</ele>
        <time>2024-06-30T09:20:58Z</time>
      </trkpt>
      <trkpt lat="42.81577" lon="1.92497">
        <ele>1414.6</ele>
        <time>2024-06-30T09:20:59Z</time>
      </trkpt>
      <trkpt lat="42.81578" lon="1.92497">
        <ele>1415</ele>
        <time>2024-06-30T09:21:00Z</time>
      </trkpt>
      <trkpt lat="42.81579" lon="1.92497">
        <ele>1415.8</ele>
        <time>2024-06-30T09:21:01Z</time>
      </trkpt>
      <trkpt lat="42.8158" lon="1.92497">
        <ele>1416.2</ele>
        <time>2024-06-30T09:21:02Z</time>
      </trkpt>
      <trkpt lat="42.81582" lon="1.92496">
        <ele>1416.6</ele>
        <time>2024-06-30T09:21:03Z</time>
      </trkpt>
      <trkpt lat="42.81583" lon="1.92496">
        <ele>1417</ele>
        <time>2024-06-30T09:21:04Z</time>
      </trkpt>
      <trkpt lat="42.81584" lon="1.92496">
        <ele>1417.4</ele>
        <time>2024-06-30T09:21:05Z</time>
      </trkpt>
      <trkpt lat="42.81586" lon="1.92495">
        <ele>1418.2</ele>
        <time>2024-06-30T09:21:06Z</time>
      </trkpt>
      <trkpt lat="42.81587" lon="1.92495">
        <ele>1418.4</ele>
        <time>2024-06-30T09:21:07Z</time>
      </trkpt>
      <trkpt lat="42.81589" lon="1.92494">
        <ele>1418.8</ele>
        <time>2024-06-30T09:21:08Z</time>
      </trkpt>
      <trkpt lat="42.8159" lon="1.92494">
        <ele>1419</ele>
        <time>2024-06-30T09:21:09Z</time>
      </trkpt>
      <trkpt lat="42.81591" lon="1.92493">
        <ele>1419.6</ele>
        <time>2024-06-30T09:21:10Z</time>
      </trkpt>
      <trkpt lat="42.81593" lon="1.92493">
        <ele>1419.8</ele>
        <time>2024-06-30T09:21:11Z</time>
      </trkpt>
      <trkpt lat="42.81594" lon="1.92493">
        <ele>1420.4</ele>
        <time>2024-06-30T09:21:12Z</time>
      </trkpt>
      <trkpt lat="42.81595" lon="1.92492">
        <ele>1420.8</ele>
        <time>2024-06-30T09:21:13Z</time>
      </trkpt>
      <trkpt lat="42.81597" lon="1.92492">
        <ele>1421</ele>
        <time>2024-06-30T09:21:14Z</time>
      </trkpt>
      <trkpt lat="42.81598" lon="1.92492">
        <ele>1421.2</ele>
        <time>2024-06-30T09:21:15Z</time>
      </trkpt>
      <trkpt lat="42.81599" lon="1.92492">
        <ele>1421.4</ele>
        <time>2024-06-30T09:21:16Z</time>
      </trkpt>
      <trkpt lat="42.81601" lon="1.92492">
        <ele>1422</ele>
        <time>2024-06-30T09:21:17Z</time>
      </trkpt>
      <trkpt lat="42.81602" lon="1.92492">
        <ele>1422.2</ele>
        <time>2024-06-30T09:21:18Z</time>
      </trkpt>
      <trkpt lat="42.81603" lon="1.92492">
        <ele>1423</ele>
        <time>2024-06-30T09:21:19Z</time>
      </trkpt>
      <trkpt lat="42.81604" lon="1.92492">
        <ele>1423.2</ele>
        <time>2024-06-30T09:21:20Z</time>
      </trkpt>
      <trkpt lat="42.81605" lon="1.92492">
        <ele>1423.6</ele>
        <time>2024-06-30T09:21:21Z</time>
      </trkpt>
      <trkpt lat="42.81607" lon="1.92492">
        <ele>1423.8</ele>
        <time>2024-06-30T09:21:22Z</time>
      </trkpt>
      <trkpt lat="42.81608" lon="1.92492">
        <ele>1424</ele>
        <time>2024-06-30T09:21:23Z</time>
      </trkpt>
      <trkpt lat="42.8161" lon="1.92491">
        <ele>1424.4</ele>
        <time>2024-06-30T09:21:24Z</time>
      </trkpt>
      <trkpt lat="42.81611" lon="1.92491">
        <ele>1424.6</ele>
        <time>2024-06-30T09:21:25Z</time>
      </trkpt>
      <trkpt lat="42.81612" lon="1.92491">
        <ele>1424.8</ele>
        <time>2024-06-30T09:21:26Z</time>
      </trkpt>
      <trkpt lat="42.81613" lon="1.92491">
        <ele>1425</ele>
        <time>2024-06-30T09:21:27Z</time>
      </trkpt>
      <trkpt lat="42.81615" lon="1.9249">
        <ele>1425.4</ele>
        <time>2024-06-30T09:21:28Z</time>
      </trkpt>
      <trkpt lat="42.81617" lon="1.9249">
        <ele>1426</ele>
        <time>2024-06-30T09:21:29Z</time>
      </trkpt>
      <trkpt lat="42.81618" lon="1.9249">
        <ele>1426.2</ele>
        <time>2024-06-30T09:21:30Z</time>
      </trkpt>
      <trkpt lat="42.81619" lon="1.9249">
        <ele>1426.8</ele>
        <time>2024-06-30T09:21:31Z</time>
      </trkpt>
      <trkpt lat="42.8162" lon="1.92489">
        <ele>1427</ele>
        <time>2024-06-30T09:21:32Z</time>
      </trkpt>
      <trkpt lat="42.81622" lon="1.92489">
        <ele>1427.6</ele>
        <time>2024-06-30T09:21:33Z</time>
      </trkpt>
      <trkpt lat="42.81623" lon="1.92488">
        <ele>1427.8</ele>
        <time>2024-06-30T09:21:34Z</time>
      </trkpt>
      <trkpt lat="42.81625" lon="1.92488">
        <ele>1428.4</ele>
        <time>2024-06-30T09:21:35Z</time>
      </trkpt>
      <trkpt lat="42.81626" lon="1.92487">
        <ele>1428.6</ele>
        <time>2024-06-30T09:21:36Z</time>
      </trkpt>
      <trkpt lat="42.81627" lon="1.92486">
        <ele>1428.8</ele>
        <time>2024-06-30T09:21:37Z</time>
      </trkpt>
      <trkpt lat="42.81628" lon="1.92486">
        <ele>1429.2</ele>
        <time>2024-06-30T09:21:38Z</time>
      </trkpt>
      <trkpt lat="42.81629" lon="1.92485">
        <ele>1429.4</ele>
        <time>2024-06-30T09:21:39Z</time>
      </trkpt>
      <trkpt lat="42.81631" lon="1.92485">
        <ele>1429.8</ele>
        <time>2024-06-30T09:21:40Z</time>
      </trkpt>
      <trkpt lat="42.81632" lon="1.92485">
        <ele>1429.8</ele>
        <time>2024-06-30T09:21:41Z</time>
      </trkpt>
      <trkpt lat="42.81634" lon="1.92485">
        <ele>1430</ele>
        <time>2024-06-30T09:21:42Z</time>
      </trkpt>
      <trkpt lat="42.81635" lon="1.92485">
        <ele>1430.4</ele>
        <time>2024-06-30T09:21:43Z</time>
      </trkpt>
      <trkpt lat="42.81637" lon="1.92485">
        <ele>1430.6</ele>
        <time>2024-06-30T09:21:44Z</time>
      </trkpt>
      <trkpt lat="42.81638" lon="1.92485">
        <ele>1431</ele>
        <time>2024-06-30T09:21:45Z</time>
      </trkpt>
      <trkpt lat="42.81639" lon="1.92485">
        <ele>1431.2</ele>
        <time>2024-06-30T09:21:46Z</time>
      </trkpt>
      <trkpt lat="42.81641" lon="1.92485">
        <ele>1431.4</ele>
        <time>2024-06-30T09:21:47Z</time>
      </trkpt>
      <trkpt lat="42.81642" lon="1.92485">
        <ele>1431.6</ele>
        <time>2024-06-30T09:21:48Z</time>
      </trkpt>
      <trkpt lat="42.81644" lon="1.92485">
        <ele>1431.8</ele>
        <time>2024-06-30T09:21:49Z</time>
      </trkpt>
      <trkpt lat="42.81645" lon="1.92485">
        <ele>1431.8</ele>
        <time>2024-06-30T09:21:50Z</time>
      </trkpt>
      <trkpt lat="42.81647" lon="1.92485">
        <ele>1432.2</ele>
        <time>2024-06-30T09:21:51Z</time>
      </trkpt>
      <trkpt lat="42.81648" lon="1.92484">
        <ele>1432.4</ele>
        <time>2024-06-30T09:21:52Z</time>
      </trkpt>
      <trkpt lat="42.8165" lon="1.92483">
        <ele>1432.6</ele>
        <time>2024-06-30T09:21:53Z</time>
      </trkpt>
      <trkpt lat="42.81651" lon="1.92482">
        <ele>1432.8</ele>
        <time>2024-06-30T09:21:54Z</time>
      </trkpt>
      <trkpt lat="42.81652" lon="1.92482">
        <ele>1433</ele>
        <time>2024-06-30T09:21:55Z</time>
      </trkpt>
      <trkpt lat="42.81654" lon="1.92482">
        <ele>1433.2</ele>
        <time>2024-06-30T09:21:56Z</time>
      </trkpt>
      <trkpt lat="42.81655" lon="1.92482">
        <ele>1433.2</ele>
        <time>2024-06-30T09:21:57Z</time>
      </trkpt>
      <trkpt lat="42.81656" lon="1.92482">
        <ele>1433.4</ele>
        <time>2024-06-30T09:21:58Z</time>
      </trkpt>
      <trkpt lat="42.81659" lon="1.92482">
        <ele>1433.4</ele>
        <time>2024-06-30T09:21:59Z</time>
      </trkpt>
      <trkpt lat="42.8166" lon="1.92482">
        <ele>1433.4</ele>
        <time>2024-06-30T09:22:00Z</time>
      </trkpt>
      <trkpt lat="42.81663" lon="1.92483">
        <ele>1433.4</ele>
        <time>2024-06-30T09:22:01Z</time>
      </trkpt>
      <trkpt lat="42.81665" lon="1.92484">
        <ele>1433.4</ele>
        <time>2024-06-30T09:22:02Z</time>
      </trkpt>
      <trkpt lat="42.81667" lon="1.92485">
        <ele>1433.2</ele>
        <time>2024-06-30T09:22:03Z</time>
      </trkpt>
      <trkpt lat="42.81671" lon="1.92487">
        <ele>1433</ele>
        <time>2024-06-30T09:22:04Z</time>
      </trkpt>
      <trkpt lat="42.81673" lon="1.92488">
        <ele>1432.8</ele>
        <time>2024-06-30T09:22:05Z</time>
      </trkpt>
      <trkpt lat="42.81676" lon="1.92489">
        <ele>1432.6</ele>
        <time>2024-06-30T09:22:06Z</time>
      </trkpt>
      <trkpt lat="42.81679" lon="1.92491">
        <ele>1432.6</ele>
        <time>2024-06-30T09:22:07Z</time>
      </trkpt>
      <trkpt lat="42.81683" lon="1.92493">
        <ele>1432.2</ele>
        <time>2024-06-30T09:22:08Z</time>
      </trkpt>
      <trkpt lat="42.81688" lon="1.92496">
        <ele>1432</ele>
        <time>2024-06-30T09:22:09Z</time>
      </trkpt>
      <trkpt lat="42.81692" lon="1.92498">
        <ele>1431.8</ele>
        <time>2024-06-30T09:22:10Z</time>
      </trkpt>
      <trkpt lat="42.817" lon="1.92501">
        <ele>1431.6</ele>
        <time>2024-06-30T09:22:11Z</time>
      </trkpt>
      <trkpt lat="42.81707" lon="1.92505">
        <ele>1431</ele>
        <time>2024-06-30T09:22:12Z</time>
      </trkpt>
      <trkpt lat="42.81715" lon="1.9251">
        <ele>1430.8</ele>
        <time>2024-06-30T09:22:13Z</time>
      </trkpt>
      <trkpt lat="42.81725" lon="1.92521">
        <ele>1429.6</ele>
        <time>2024-06-30T09:22:15Z</time>
      </trkpt>
      <trkpt lat="42.81728" lon="1.92527">
        <ele>1428.8</ele>
        <time>2024-06-30T09:22:16Z</time>
      </trkpt>
      <trkpt lat="42.81729" lon="1.92532">
        <ele>1426.2</ele>
        <time>2024-06-30T09:22:17Z</time>
      </trkpt>
      <trkpt lat="42.81729" lon="1.92537">
        <ele>1425.6</ele>
        <time>2024-06-30T09:22:18Z</time>
      </trkpt>
      <trkpt lat="42.81729" lon="1.92542">
        <ele>1424.8</ele>
        <time>2024-06-30T09:22:19Z</time>
      </trkpt>
      <trkpt lat="42.81729" lon="1.92546">
        <ele>1423.8</ele>
        <time>2024-06-30T09:22:20Z</time>
      </trkpt>
      <trkpt lat="42.81728" lon="1.92551">
        <ele>1422.4</ele>
        <time>2024-06-30T09:22:21Z</time>
      </trkpt>
      <trkpt lat="42.81726" lon="1.9256">
        <ele>1421.4</ele>
        <time>2024-06-30T09:22:23Z</time>
      </trkpt>
      <trkpt lat="42.81724" lon="1.92564">
        <ele>1420.2</ele>
        <time>2024-06-30T09:22:24Z</time>
      </trkpt>
      <trkpt lat="42.81723" lon="1.92567">
        <ele>1419.8</ele>
        <time>2024-06-30T09:22:25Z</time>
      </trkpt>
      <trkpt lat="42.81722" lon="1.92568">
        <ele>1419</ele>
        <time>2024-06-30T09:22:26Z</time>
      </trkpt>
      <trkpt lat="42.81722" lon="1.92569">
        <ele>1418.6</ele>
        <time>2024-06-30T09:22:27Z</time>
      </trkpt>
      <trkpt lat="42.81722" lon="1.92569">
        <ele>1417.8</ele>
        <time>2024-06-30T09:22:28Z</time>
      </trkpt>
      <trkpt lat="42.81719" lon="1.92574">
        <ele>1414.8</ele>
        <time>2024-06-30T09:22:45Z</time>
      </trkpt>
      <trkpt lat="42.81717" lon="1.92577">
        <ele>1414.8</ele>
        <time>2024-06-30T09:22:46Z</time>
      </trkpt>
      <trkpt lat="42.81715" lon="1.92579">
        <ele>1414.8</ele>
        <time>2024-06-30T09:22:47Z</time>
      </trkpt>
      <trkpt lat="42.81702" lon="1.92601">
        <ele>1414.2</ele>
        <time>2024-06-30T09:22:53Z</time>
      </trkpt>
      <trkpt lat="42.81697" lon="1.92611">
        <ele>1414</ele>
        <time>2024-06-30T09:22:55Z</time>
      </trkpt>
      <trkpt lat="42.81695" lon="1.92616">
        <ele>1413.6</ele>
        <time>2024-06-30T09:22:56Z</time>
      </trkpt>
      <trkpt lat="42.8169" lon="1.92627">
        <ele>1413</ele>
        <time>2024-06-30T09:22:58Z</time>
      </trkpt>
      <trkpt lat="42.81687" lon="1.92633">
        <ele>1412</ele>
        <time>2024-06-30T09:22:59Z</time>
      </trkpt>
      <trkpt lat="42.81675" lon="1.92653">
        <ele>1410.8</ele>
        <time>2024-06-30T09:23:02Z</time>
      </trkpt>
      <trkpt lat="42.81671" lon="1.9266">
        <ele>1410</ele>
        <time>2024-06-30T09:23:03Z</time>
      </trkpt>
      <trkpt lat="42.81667" lon="1.92668">
        <ele>1409.8</ele>
        <time>2024-06-30T09:23:04Z</time>
      </trkpt>
      <trkpt lat="42.81655" lon="1.92697">
        <ele>1408.8</ele>
        <time>2024-06-30T09:23:07Z</time>
      </trkpt>
      <trkpt lat="42.81651" lon="1.92706">
        <ele>1408.2</ele>
        <time>2024-06-30T09:23:08Z</time>
      </trkpt>
      <trkpt lat="42.81648" lon="1.92714">
        <ele>1407.6</ele>
        <time>2024-06-30T09:23:09Z</time>
      </trkpt>
      <trkpt lat="42.81645" lon="1.9272">
        <ele>1406.6</ele>
        <time>2024-06-30T09:23:10Z</time>
      </trkpt>
      <trkpt lat="42.81642" lon="1.92725">
        <ele>1406.2</ele>
        <time>2024-06-30T09:23:11Z</time>
      </trkpt>
      <trkpt lat="42.8164" lon="1.92728">
        <ele>1405.2</ele>
        <time>2024-06-30T09:23:12Z</time>
      </trkpt>
      <trkpt lat="42.81637" lon="1.92731">
        <ele>1404.6</ele>
        <time>2024-06-30T09:23:13Z</time>
      </trkpt>
      <trkpt lat="42.81634" lon="1.92732">
        <ele>1404.2</ele>
        <time>2024-06-30T09:23:14Z</time>
      </trkpt>
      <trkpt lat="42.81632" lon="1.92731">
        <ele>1403.8</ele>
        <time>2024-06-30T09:23:15Z</time>
      </trkpt>
      <trkpt lat="42.81632" lon="1.92727">
        <ele>1403.6</ele>
        <time>2024-06-30T09:23:16Z</time>
      </trkpt>
      <trkpt lat="42.81631" lon="1.92724">
        <ele>1403</ele>
        <time>2024-06-30T09:23:17Z</time>
      </trkpt>
      <trkpt lat="42.81631" lon="1.92721">
        <ele>1402.6</ele>
        <time>2024-06-30T09:23:18Z</time>
      </trkpt>
      <trkpt lat="42.8163" lon="1.92718">
        <ele>1402</ele>
        <time>2024-06-30T09:23:19Z</time>
      </trkpt>
      <trkpt lat="42.81628" lon="1.92715">
        <ele>1401.4</ele>
        <time>2024-06-30T09:23:20Z</time>
      </trkpt>
      <trkpt lat="42.81627" lon="1.92713">
        <ele>1401</ele>
        <time>2024-06-30T09:23:21Z</time>
      </trkpt>
      <trkpt lat="42.81624" lon="1.9271">
        <ele>1400.6</ele>
        <time>2024-06-30T09:23:22Z</time>
      </trkpt>
      <trkpt lat="42.81621" lon="1.92709">
        <ele>1400.4</ele>
        <time>2024-06-30T09:23:23Z</time>
      </trkpt>
      <trkpt lat="42.81617" lon="1.92709">
        <ele>1400.2</ele>
        <time>2024-06-30T09:23:24Z</time>
      </trkpt>
      <trkpt lat="42.81614" lon="1.92708">
        <ele>1400</ele>
        <time>2024-06-30T09:23:25Z</time>
      </trkpt>
      <trkpt lat="42.81611" lon="1.92707">
        <ele>1399.8</ele>
        <time>2024-06-30T09:23:26Z</time>
      </trkpt>
      <trkpt lat="42.81607" lon="1.92707">
        <ele>1399.8</ele>
        <time>2024-06-30T09:23:27Z</time>
      </trkpt>
      <trkpt lat="42.81604" lon="1.92707">
        <ele>1399.4</ele>
        <time>2024-06-30T09:23:28Z</time>
      </trkpt>
      <trkpt lat="42.81601" lon="1.92708">
        <ele>1398.8</ele>
        <time>2024-06-30T09:23:29Z</time>
      </trkpt>
      <trkpt lat="42.81598" lon="1.92708">
        <ele>1398.4</ele>
        <time>2024-06-30T09:23:30Z</time>
      </trkpt>
      <trkpt lat="42.81594" lon="1.92709">
        <ele>1397.6</ele>
        <time>2024-06-30T09:23:31Z</time>
      </trkpt>
      <trkpt lat="42.81588" lon="1.9271">
        <ele>1396.6</ele>
        <time>2024-06-30T09:23:33Z</time>
      </trkpt>
      <trkpt lat="42.81587" lon="1.92712">
        <ele>1395.8</ele>
        <time>2024-06-30T09:23:34Z</time>
      </trkpt>
      <trkpt lat="42.81586" lon="1.92715">
        <ele>1394.6</ele>
        <time>2024-06-30T09:23:35Z</time>
      </trkpt>
      <trkpt lat="42.81586" lon="1.92719">
        <ele>1393.6</ele>
        <time>2024-06-30T09:23:36Z</time>
      </trkpt>
      <trkpt lat="42.81582" lon="1.92729">
        <ele>1391.4</ele>
        <time>2024-06-30T09:23:38Z</time>
      </trkpt>
      <trkpt lat="42.81581" lon="1.92735">
        <ele>1390.6</ele>
        <time>2024-06-30T09:23:39Z</time>
      </trkpt>
      <trkpt lat="42.81581" lon="1.92742">
        <ele>1389.8</ele>
        <time>2024-06-30T09:23:40Z</time>
      </trkpt>
      <trkpt lat="42.81581" lon="1.92751">
        <ele>1389.4</ele>
        <time>2024-06-30T09:23:41Z</time>
      </trkpt>
      <trkpt lat="42.81581" lon="1.92758">
        <ele>1387.6</ele>
        <time>2024-06-30T09:23:42Z</time>
      </trkpt>
      <trkpt lat="42.81582" lon="1.92765">
        <ele>1386.4</ele>
        <time>2024-06-30T09:23:43Z</time>
      </trkpt>
      <trkpt lat="42.81584" lon="1.92779">
        <ele>1385.2</ele>
        <time>2024-06-30T09:23:45Z</time>
      </trkpt>
      <trkpt lat="42.81585" lon="1.92793">
        <ele>1382.6</ele>
        <time>2024-06-30T09:23:47Z</time>
      </trkpt>
      <trkpt lat="42.81586" lon="1.92809">
        <ele>1380.8</ele>
        <time>2024-06-30T09:23:49Z</time>
      </trkpt>
      <trkpt lat="42.81587" lon="1.92815">
        <ele>1380.2</ele>
        <time>2024-06-30T09:23:50Z</time>
      </trkpt>
      <trkpt lat="42.81588" lon="1.92823">
        <ele>1379.8</ele>
        <time>2024-06-30T09:23:51Z</time>
      </trkpt>
      <trkpt lat="42.81591" lon="1.92847">
        <ele>1378.4</ele>
        <time>2024-06-30T09:23:54Z</time>
      </trkpt>
      <trkpt lat="42.81592" lon="1.92853">
        <ele>1378</ele>
        <time>2024-06-30T09:23:55Z</time>
      </trkpt>
      <trkpt lat="42.81593" lon="1.92858">
        <ele>1376.8</ele>
        <time>2024-06-30T09:23:56Z</time>
      </trkpt>
      <trkpt lat="42.81594" lon="1.92864">
        <ele>1375.8</ele>
        <time>2024-06-30T09:23:57Z</time>
      </trkpt>
      <trkpt lat="42.81595" lon="1.92869">
        <ele>1375.6</ele>
        <time>2024-06-30T09:23:58Z</time>
      </trkpt>
      <trkpt lat="42.81596" lon="1.92875">
        <ele>1374</ele>
        <time>2024-06-30T09:23:59Z</time>
      </trkpt>
      <trkpt lat="42.81597" lon="1.92881">
        <ele>1373.2</ele>
        <time>2024-06-30T09:24:00Z</time>
      </trkpt>
      <trkpt lat="42.81598" lon="1.92887">
        <ele>1371.8</ele>
        <time>2024-06-30T09:24:01Z</time>
      </trkpt>
      <trkpt lat="42.81599" lon="1.92892">
        <ele>1371</ele>
        <time>2024-06-30T09:24:02Z</time>
      </trkpt>
      <trkpt lat="42.81599" lon="1.92898">
        <ele>1369.4</ele>
        <time>2024-06-30T09:24:03Z</time>
      </trkpt>
      <trkpt lat="42.816" lon="1.92904">
        <ele>1368.8</ele>
        <time>2024-06-30T09:24:04Z</time>
      </trkpt>
      <trkpt lat="42.816" lon="1.92911">
        <ele>1368</ele>
        <time>2024-06-30T09:24:05Z</time>
      </trkpt>
      <trkpt lat="42.81601" lon="1.92919">
        <ele>1366.2</ele>
        <time>2024-06-30T09:24:06Z</time>
      </trkpt>
      <trkpt lat="42.81606" lon="1.9293">
        <ele>1364.2</ele>
        <time>2024-06-30T09:24:08Z</time>
      </trkpt>
      <trkpt lat="42.81609" lon="1.92933">
        <ele>1363.4</ele>
        <time>2024-06-30T09:24:09Z</time>
      </trkpt>
      <trkpt lat="42.81611" lon="1.92934">
        <ele>1362</ele>
        <time>2024-06-30T09:24:10Z</time>
      </trkpt>
      <trkpt lat="42.81614" lon="1.92933">
        <ele>1361.4</ele>
        <time>2024-06-30T09:24:11Z</time>
      </trkpt>
      <trkpt lat="42.81615" lon="1.92931">
        <ele>1360.8</ele>
        <time>2024-06-30T09:24:12Z</time>
      </trkpt>
      <trkpt lat="42.81617" lon="1.92928">
        <ele>1360.2</ele>
        <time>2024-06-30T09:24:13Z</time>
      </trkpt>
      <trkpt lat="42.81619" lon="1.92927">
        <ele>1360</ele>
        <time>2024-06-30T09:24:14Z</time>
      </trkpt>
      <trkpt lat="42.81621" lon="1.92927">
        <ele>1359.4</ele>
        <time>2024-06-30T09:24:15Z</time>
      </trkpt>
      <trkpt lat="42.81623" lon="1.92928">
        <ele>1359.2</ele>
        <time>2024-06-30T09:24:16Z</time>
      </trkpt>
      <trkpt lat="42.81629" lon="1.92931">
        <ele>1358.2</ele>
        <time>2024-06-30T09:24:18Z</time>
      </trkpt>
      <trkpt lat="42.81633" lon="1.92934">
        <ele>1358</ele>
        <time>2024-06-30T09:24:19Z</time>
      </trkpt>
      <trkpt lat="42.81637" lon="1.92936">
        <ele>1357.8</ele>
        <time>2024-06-30T09:24:20Z</time>
      </trkpt>
      <trkpt lat="42.81648" lon="1.92937">
        <ele>1356.6</ele>
        <time>2024-06-30T09:24:22Z</time>
      </trkpt>
      <trkpt lat="42.81654" lon="1.92936">
        <ele>1356</ele>
        <time>2024-06-30T09:24:23Z</time>
      </trkpt>
      <trkpt lat="42.81658" lon="1.92936">
        <ele>1355</ele>
        <time>2024-06-30T09:24:24Z</time>
      </trkpt>
      <trkpt lat="42.81662" lon="1.92936">
        <ele>1354.2</ele>
        <time>2024-06-30T09:24:25Z</time>
      </trkpt>
      <trkpt lat="42.8167" lon="1.92937">
        <ele>1353.2</ele>
        <time>2024-06-30T09:24:26Z</time>
      </trkpt>
      <trkpt lat="42.81674" lon="1.92938">
        <ele>1351.8</ele>
        <time>2024-06-30T09:24:27Z</time>
      </trkpt>
      <trkpt lat="42.81677" lon="1.92939">
        <ele>1351</ele>
        <time>2024-06-30T09:24:28Z</time>
      </trkpt>
      <trkpt lat="42.81679" lon="1.92939">
        <ele>1349.2</ele>
        <time>2024-06-30T09:24:29Z</time>
      </trkpt>
      <trkpt lat="42.81682" lon="1.92938">
        <ele>1348.4</ele>
        <time>2024-06-30T09:24:30Z</time>
      </trkpt>
      <trkpt lat="42.81685" lon="1.92938">
        <ele>1346</ele>
        <time>2024-06-30T09:24:31Z</time>
      </trkpt>
      <trkpt lat="42.81689" lon="1.92938">
        <ele>1344.8</ele>
        <time>2024-06-30T09:24:32Z</time>
      </trkpt>
      <trkpt lat="42.81692" lon="1.92937">
        <ele>1343.4</ele>
        <time>2024-06-30T09:24:33Z</time>
      </trkpt>
      <trkpt lat="42.81697" lon="1.92938">
        <ele>1342.6</ele>
        <time>2024-06-30T09:24:34Z</time>
      </trkpt>
      <trkpt lat="42.81703" lon="1.92939">
        <ele>1341.8</ele>
        <time>2024-06-30T09:24:35Z</time>
      </trkpt>
      <trkpt lat="42.81711" lon="1.92939">
        <ele>1341.4</ele>
        <time>2024-06-30T09:24:36Z</time>
      </trkpt>
      <trkpt lat="42.81725" lon="1.92934">
        <ele>1340.8</ele>
        <time>2024-06-30T09:24:38Z</time>
      </trkpt>
      <trkpt lat="42.81729" lon="1.92932">
        <ele>1340.6</ele>
        <time>2024-06-30T09:24:39Z</time>
      </trkpt>
      <trkpt lat="42.81733" lon="1.92928">
        <ele>1340.4</ele>
        <time>2024-06-30T09:24:40Z</time>
      </trkpt>
      <trkpt lat="42.81734" lon="1.92927">
        <ele>1340.2</ele>
        <time>2024-06-30T09:24:41Z</time>
      </trkpt>
      <trkpt lat="42.81736" lon="1.92926">
        <ele>1340</ele>
        <time>2024-06-30T09:24:42Z</time>
      </trkpt>
      <trkpt lat="42.8174" lon="1.92925">
        <ele>1339.8</ele>
        <time>2024-06-30T09:24:43Z</time>
      </trkpt>
      <trkpt lat="42.81742" lon="1.92926">
        <ele>1339.6</ele>
        <time>2024-06-30T09:24:44Z</time>
      </trkpt>
      <trkpt lat="42.81745" lon="1.92925">
        <ele>1339.6</ele>
        <time>2024-06-30T09:24:45Z</time>
      </trkpt>
      <trkpt lat="42.81748" lon="1.92924">
        <ele>1339.2</ele>
        <time>2024-06-30T09:24:46Z</time>
      </trkpt>
      <trkpt lat="42.81749" lon="1.92922">
        <ele>1339</ele>
        <time>2024-06-30T09:24:47Z</time>
      </trkpt>
      <trkpt lat="42.81752" lon="1.9292">
        <ele>1339</ele>
        <time>2024-06-30T09:24:48Z</time>
      </trkpt>
      <trkpt lat="42.81753" lon="1.92918">
        <ele>1338.4</ele>
        <time>2024-06-30T09:24:49Z</time>
      </trkpt>
      <trkpt lat="42.81757" lon="1.92914">
        <ele>1337.4</ele>
        <time>2024-06-30T09:24:50Z</time>
      </trkpt>
      <trkpt lat="42.81762" lon="1.92909">
        <ele>1336.2</ele>
        <time>2024-06-30T09:24:52Z</time>
      </trkpt>
      <trkpt lat="42.81767" lon="1.92901">
        <ele>1334.4</ele>
        <time>2024-06-30T09:24:54Z</time>
      </trkpt>
      <trkpt lat="42.81769" lon="1.92897">
        <ele>1334</ele>
        <time>2024-06-30T09:24:55Z</time>
      </trkpt>
      <trkpt lat="42.81776" lon="1.92887">
        <ele>1333.2</ele>
        <time>2024-06-30T09:24:57Z</time>
      </trkpt>
      <trkpt lat="42.81783" lon="1.92873">
        <ele>1331.8</ele>
        <time>2024-06-30T09:25:01Z</time>
      </trkpt>
      <trkpt lat="42.81792" lon="1.92854">
        <ele>1331.2</ele>
        <time>2024-06-30T09:25:04Z</time>
      </trkpt>
      <trkpt lat="42.81794" lon="1.92845">
        <ele>1331</ele>
        <time>2024-06-30T09:25:06Z</time>
      </trkpt>
      <trkpt lat="42.81795" lon="1.9284">
        <ele>1331</ele>
        <time>2024-06-30T09:25:07Z</time>
      </trkpt>
      <trkpt lat="42.81797" lon="1.92837">
        <ele>1331</ele>
        <time>2024-06-30T09:25:08Z</time>
      </trkpt>
      <trkpt lat="42.81799" lon="1.92834">
        <ele>1330.8</ele>
        <time>2024-06-30T09:25:09Z</time>
      </trkpt>
      <trkpt lat="42.81801" lon="1.9283">
        <ele>1330.6</ele>
        <time>2024-06-30T09:25:10Z</time>
      </trkpt>
      <trkpt lat="42.81802" lon="1.92827">
        <ele>1330.6</ele>
        <time>2024-06-30T09:25:11Z</time>
      </trkpt>
      <trkpt lat="42.81808" lon="1.92817">
        <ele>1330</ele>
        <time>2024-06-30T09:25:13Z</time>
      </trkpt>
      <trkpt lat="42.81811" lon="1.9281">
        <ele>1330</ele>
        <time>2024-06-30T09:25:15Z</time>
      </trkpt>
      <trkpt lat="42.81813" lon="1.92807">
        <ele>1329.8</ele>
        <time>2024-06-30T09:25:16Z</time>
      </trkpt>
      <trkpt lat="42.81817" lon="1.92802">
        <ele>1329.2</ele>
        <time>2024-06-30T09:25:17Z</time>
      </trkpt>
      <trkpt lat="42.81825" lon="1.92791">
        <ele>1328.2</ele>
        <time>2024-06-30T09:25:19Z</time>
      </trkpt>
      <trkpt lat="42.81829" lon="1.92786">
        <ele>1327.4</ele>
        <time>2024-06-30T09:25:20Z</time>
      </trkpt>
      <trkpt lat="42.8183" lon="1.92783">
        <ele>1326.8</ele>
        <time>2024-06-30T09:25:21Z</time>
      </trkpt>
      <trkpt lat="42.81832" lon="1.92778">
        <ele>1326.2</ele>
        <time>2024-06-30T09:25:22Z</time>
      </trkpt>
      <trkpt lat="42.81834" lon="1.92773">
        <ele>1326</ele>
        <time>2024-06-30T09:25:23Z</time>
      </trkpt>
      <trkpt lat="42.81836" lon="1.9277">
        <ele>1325</ele>
        <time>2024-06-30T09:25:24Z</time>
      </trkpt>
      <trkpt lat="42.81839" lon="1.92768">
        <ele>1324.4</ele>
        <time>2024-06-30T09:25:25Z</time>
      </trkpt>
      <trkpt lat="42.81841" lon="1.92767">
        <ele>1323.6</ele>
        <time>2024-06-30T09:25:26Z</time>
      </trkpt>
      <trkpt lat="42.81845" lon="1.92767">
        <ele>1323.2</ele>
        <time>2024-06-30T09:25:27Z</time>
      </trkpt>
      <trkpt lat="42.81853" lon="1.92765">
        <ele>1322.6</ele>
        <time>2024-06-30T09:25:28Z</time>
      </trkpt>
      <trkpt lat="42.8186" lon="1.92764">
        <ele>1322.4</ele>
        <time>2024-06-30T09:25:29Z</time>
      </trkpt>
      <trkpt lat="42.81871" lon="1.92767">
        <ele>1322</ele>
        <time>2024-06-30T09:25:31Z</time>
      </trkpt>
      <trkpt lat="42.81879" lon="1.92767">
        <ele>1321.4</ele>
        <time>2024-06-30T09:25:33Z</time>
      </trkpt>
      <trkpt lat="42.81883" lon="1.92767">
        <ele>1320.8</ele>
        <time>2024-06-30T09:25:34Z</time>
      </trkpt>
      <trkpt lat="42.81888" lon="1.92766">
        <ele>1319.6</ele>
        <time>2024-06-30T09:25:35Z</time>
      </trkpt>
      <trkpt lat="42.81893" lon="1.92767">
        <ele>1318.8</ele>
        <time>2024-06-30T09:25:36Z</time>
      </trkpt>
      <trkpt lat="42.81897" lon="1.92768">
        <ele>1318.6</ele>
        <time>2024-06-30T09:25:37Z</time>
      </trkpt>
      <trkpt lat="42.81901" lon="1.92769">
        <ele>1318</ele>
        <time>2024-06-30T09:25:38Z</time>
      </trkpt>
      <trkpt lat="42.81902" lon="1.92772">
        <ele>1317.8</ele>
        <time>2024-06-30T09:25:39Z</time>
      </trkpt>
      <trkpt lat="42.81904" lon="1.92775">
        <ele>1317.4</ele>
        <time>2024-06-30T09:25:40Z</time>
      </trkpt>
      <trkpt lat="42.81906" lon="1.92779">
        <ele>1317</ele>
        <time>2024-06-30T09:25:41Z</time>
      </trkpt>
      <trkpt lat="42.81907" lon="1.92783">
        <ele>1316.4</ele>
        <time>2024-06-30T09:25:42Z</time>
      </trkpt>
      <trkpt lat="42.81908" lon="1.92787">
        <ele>1315</ele>
        <time>2024-06-30T09:25:43Z</time>
      </trkpt>
      <trkpt lat="42.81908" lon="1.9279">
        <ele>1314.6</ele>
        <time>2024-06-30T09:25:44Z</time>
      </trkpt>
      <trkpt lat="42.81909" lon="1.92794">
        <ele>1313.6</ele>
        <time>2024-06-30T09:25:45Z</time>
      </trkpt>
      <trkpt lat="42.81911" lon="1.92799">
        <ele>1313.2</ele>
        <time>2024-06-30T09:25:46Z</time>
      </trkpt>
      <trkpt lat="42.81913" lon="1.92803">
        <ele>1311.8</ele>
        <time>2024-06-30T09:25:47Z</time>
      </trkpt>
      <trkpt lat="42.81914" lon="1.92808">
        <ele>1310.8</ele>
        <time>2024-06-30T09:25:48Z</time>
      </trkpt>
      <trkpt lat="42.81916" lon="1.92814">
        <ele>1309.2</ele>
        <time>2024-06-30T09:25:49Z</time>
      </trkpt>
      <trkpt lat="42.8192" lon="1.92825">
        <ele>1307</ele>
        <time>2024-06-30T09:25:51Z</time>
      </trkpt>
      <trkpt lat="42.81922" lon="1.92829">
        <ele>1305.4</ele>
        <time>2024-06-30T09:25:52Z</time>
      </trkpt>
      <trkpt lat="42.81924" lon="1.92834">
        <ele>1304.8</ele>
        <time>2024-06-30T09:25:53Z</time>
      </trkpt>
      <trkpt lat="42.81926" lon="1.92838">
        <ele>1303.2</ele>
        <time>2024-06-30T09:25:54Z</time>
      </trkpt>
      <trkpt lat="42.81926" lon="1.92841">
        <ele>1302.6</ele>
        <time>2024-06-30T09:25:55Z</time>
      </trkpt>
      <trkpt lat="42.81926" lon="1.92846">
        <ele>1301</ele>
        <time>2024-06-30T09:25:56Z</time>
      </trkpt>
      <trkpt lat="42.81926" lon="1.92852">
        <ele>1299.8</ele>
        <time>2024-06-30T09:25:57Z</time>
      </trkpt>
      <trkpt lat="42.81927" lon="1.92857">
        <ele>1297.6</ele>
        <time>2024-06-30T09:25:58Z</time>
      </trkpt>
      <trkpt lat="42.81928" lon="1.92862">
        <ele>1296</ele>
        <time>2024-06-30T09:25:59Z</time>
      </trkpt>
      <trkpt lat="42.81932" lon="1.92876">
        <ele>1293.6</ele>
        <time>2024-06-30T09:26:01Z</time>
      </trkpt>
      <trkpt lat="42.81935" lon="1.92891">
        <ele>1291.2</ele>
        <time>2024-06-30T09:26:03Z</time>
      </trkpt>
      <trkpt lat="42.81935" lon="1.92895">
        <ele>1290.4</ele>
        <time>2024-06-30T09:26:04Z</time>
      </trkpt>
      <trkpt lat="42.81937" lon="1.92898">
        <ele>1288.8</ele>
        <time>2024-06-30T09:26:05Z</time>
      </trkpt>
      <trkpt lat="42.81937" lon="1.929">
        <ele>1287.4</ele>
        <time>2024-06-30T09:26:06Z</time>
      </trkpt>
      <trkpt lat="42.81937" lon="1.92903">
        <ele>1286.2</ele>
        <time>2024-06-30T09:26:07Z</time>
      </trkpt>
      <trkpt lat="42.81936" lon="1.92907">
        <ele>1284.2</ele>
        <time>2024-06-30T09:26:08Z</time>
      </trkpt>
      <trkpt lat="42.81935" lon="1.92911">
        <ele>1283.2</ele>
        <time>2024-06-30T09:26:09Z</time>
      </trkpt>
      <trkpt lat="42.81935" lon="1.92915">
        <ele>1281.8</ele>
        <time>2024-06-30T09:26:10Z</time>
      </trkpt>
      <trkpt lat="42.81934" lon="1.92916">
        <ele>1281.4</ele>
        <time>2024-06-30T09:26:11Z</time>
      </trkpt>
      <trkpt lat="42.81934" lon="1.92916">
        <ele>1279.6</ele>
        <time>2024-06-30T09:26:12Z</time>
      </trkpt>
      <trkpt lat="42.81932" lon="1.92918">
        <ele>1279</ele>
        <time>2024-06-30T09:26:13Z</time>
      </trkpt>
      <trkpt lat="42.8193" lon="1.9292">
        <ele>1277</ele>
        <time>2024-06-30T09:26:14Z</time>
      </trkpt>
      <trkpt lat="42.81928" lon="1.92924">
        <ele>1275.6</ele>
        <time>2024-06-30T09:26:15Z</time>
      </trkpt>
      <trkpt lat="42.81924" lon="1.92931">
        <ele>1273.6</ele>
        <time>2024-06-30T09:26:17Z</time>
      </trkpt>
      <trkpt lat="42.81919" lon="1.92943">
        <ele>1271.6</ele>
        <time>2024-06-30T09:26:19Z</time>
      </trkpt>
      <trkpt lat="42.81917" lon="1.92949">
        <ele>1270.4</ele>
        <time>2024-06-30T09:26:20Z</time>
      </trkpt>
      <trkpt lat="42.81917" lon="1.92955">
        <ele>1269</ele>
        <time>2024-06-30T09:26:21Z</time>
      </trkpt>
      <trkpt lat="42.81916" lon="1.92959">
        <ele>1267.2</ele>
        <time>2024-06-30T09:26:22Z</time>
      </trkpt>
      <trkpt lat="42.81915" lon="1.92962">
        <ele>1266.4</ele>
        <time>2024-06-30T09:26:23Z</time>
      </trkpt>
      <trkpt lat="42.81915" lon="1.92965">
        <ele>1264.6</ele>
        <time>2024-06-30T09:26:24Z</time>
      </trkpt>
      <trkpt lat="42.81914" lon="1.92968">
        <ele>1263.8</ele>
        <time>2024-06-30T09:26:25Z</time>
      </trkpt>
      <trkpt lat="42.81913" lon="1.92973">
        <ele>1261.4</ele>
        <time>2024-06-30T09:26:26Z</time>
      </trkpt>
      <trkpt lat="42.81912" lon="1.92978">
        <ele>1260.8</ele>
        <time>2024-06-30T09:26:27Z</time>
      </trkpt>
      <trkpt lat="42.81911" lon="1.92982">
        <ele>1258.4</ele>
        <time>2024-06-30T09:26:28Z</time>
      </trkpt>
      <trkpt lat="42.81911" lon="1.92987">
        <ele>1257.4</ele>
        <time>2024-06-30T09:26:29Z</time>
      </trkpt>
      <trkpt lat="42.81911" lon="1.92991">
        <ele>1256</ele>
        <time>2024-06-30T09:26:30Z</time>
      </trkpt>
      <trkpt lat="42.81911" lon="1.92995">
        <ele>1254.4</ele>
        <time>2024-06-30T09:26:31Z</time>
      </trkpt>
      <trkpt lat="42.8191" lon="1.92998">
        <ele>1253.6</ele>
        <time>2024-06-30T09:26:32Z</time>
      </trkpt>
      <trkpt lat="42.8191" lon="1.93">
        <ele>1251.8</ele>
        <time>2024-06-30T09:26:33Z</time>
      </trkpt>
      <trkpt lat="42.81909" lon="1.93012">
        <ele>1249.4</ele>
        <time>2024-06-30T09:26:35Z</time>
      </trkpt>
      <trkpt lat="42.81907" lon="1.93023">
        <ele>1247</ele>
        <time>2024-06-30T09:26:37Z</time>
      </trkpt>
      <trkpt lat="42.81907" lon="1.93029">
        <ele>1246.2</ele>
        <time>2024-06-30T09:26:38Z</time>
      </trkpt>
      <trkpt lat="42.81907" lon="1.93036">
        <ele>1245.2</ele>
        <time>2024-06-30T09:26:39Z</time>
      </trkpt>
      <trkpt lat="42.81906" lon="1.93051">
        <ele>1244</ele>
        <time>2024-06-30T09:26:41Z</time>
      </trkpt>
      <trkpt lat="42.81906" lon="1.93057">
        <ele>1242.4</ele>
        <time>2024-06-30T09:26:42Z</time>
      </trkpt>
      <trkpt lat="42.81905" lon="1.93064">
        <ele>1241.8</ele>
        <time>2024-06-30T09:26:43Z</time>
      </trkpt>
      <trkpt lat="42.81904" lon="1.93071">
        <ele>1240.6</ele>
        <time>2024-06-30T09:26:44Z</time>
      </trkpt>
      <trkpt lat="42.81902" lon="1.93076">
        <ele>1239.2</ele>
        <time>2024-06-30T09:26:45Z</time>
      </trkpt>
      <trkpt lat="42.81901" lon="1.93077">
        <ele>1238.6</ele>
        <time>2024-06-30T09:26:46Z</time>
      </trkpt>
      <trkpt lat="42.81901" lon="1.9308">
        <ele>1237.6</ele>
        <time>2024-06-30T09:26:47Z</time>
      </trkpt>
      <trkpt lat="42.81903" lon="1.93085">
        <ele>1237.2</ele>
        <time>2024-06-30T09:26:48Z</time>
      </trkpt>
      <trkpt lat="42.81907" lon="1.9309">
        <ele>1236.6</ele>
        <time>2024-06-30T09:26:49Z</time>
      </trkpt>
      <trkpt lat="42.81911" lon="1.93099">
        <ele>1235.6</ele>
        <time>2024-06-30T09:26:51Z</time>
      </trkpt>
      <trkpt lat="42.8191" lon="1.93103">
        <ele>1234</ele>
        <time>2024-06-30T09:26:52Z</time>
      </trkpt>
      <trkpt lat="42.81909" lon="1.93107">
        <ele>1233.6</ele>
        <time>2024-06-30T09:26:53Z</time>
      </trkpt>
      <trkpt lat="42.81909" lon="1.93111">
        <ele>1232.8</ele>
        <time>2024-06-30T09:26:54Z</time>
      </trkpt>
      <trkpt lat="42.81908" lon="1.93115">
        <ele>1232.4</ele>
        <time>2024-06-30T09:26:55Z</time>
      </trkpt>
      <trkpt lat="42.81907" lon="1.9312">
        <ele>1231.4</ele>
        <time>2024-06-30T09:26:56Z</time>
      </trkpt>
      <trkpt lat="42.81905" lon="1.93131">
        <ele>1230.2</ele>
        <time>2024-06-30T09:26:59Z</time>
      </trkpt>
      <trkpt lat="42.81904" lon="1.93136">
        <ele>1229.6</ele>
        <time>2024-06-30T09:27:00Z</time>
      </trkpt>
      <trkpt lat="42.81907" lon="1.93142">
        <ele>1229.2</ele>
        <time>2024-06-30T09:27:01Z</time>
      </trkpt>
      <trkpt lat="42.8191" lon="1.93147">
        <ele>1229</ele>
        <time>2024-06-30T09:27:02Z</time>
      </trkpt>
      <trkpt lat="42.81912" lon="1.9315">
        <ele>1228.2</ele>
        <time>2024-06-30T09:27:03Z</time>
      </trkpt>
      <trkpt lat="42.81914" lon="1.93154">
        <ele>1227.6</ele>
        <time>2024-06-30T09:27:04Z</time>
      </trkpt>
      <trkpt lat="42.81914" lon="1.93158">
        <ele>1226.4</ele>
        <time>2024-06-30T09:27:05Z</time>
      </trkpt>
      <trkpt lat="42.8191" lon="1.93165">
        <ele>1225.8</ele>
        <time>2024-06-30T09:27:06Z</time>
      </trkpt>
      <trkpt lat="42.81904" lon="1.93169">
        <ele>1224.4</ele>
        <time>2024-06-30T09:27:07Z</time>
      </trkpt>
      <trkpt lat="42.81903" lon="1.93177">
        <ele>1223</ele>
        <time>2024-06-30T09:27:09Z</time>
      </trkpt>
      <trkpt lat="42.81903" lon="1.93184">
        <ele>1221.4</ele>
        <time>2024-06-30T09:27:10Z</time>
      </trkpt>
      <trkpt lat="42.81902" lon="1.93189">
        <ele>1220.4</ele>
        <time>2024-06-30T09:27:11Z</time>
      </trkpt>
      <trkpt lat="42.81902" lon="1.93194">
        <ele>1219</ele>
        <time>2024-06-30T09:27:12Z</time>
      </trkpt>
      <trkpt lat="42.81902" lon="1.93199">
        <ele>1218.2</ele>
        <time>2024-06-30T09:27:13Z</time>
      </trkpt>
      <trkpt lat="42.81903" lon="1.93204">
        <ele>1216.2</ele>
        <time>2024-06-30T09:27:14Z</time>
      </trkpt>
      <trkpt lat="42.81902" lon="1.93209">
        <ele>1215.6</ele>
        <time>2024-06-30T09:27:15Z</time>
      </trkpt>
      <trkpt lat="42.819" lon="1.93217">
        <ele>1214.4</ele>
        <time>2024-06-30T09:27:16Z</time>
      </trkpt>
      <trkpt lat="42.81899" lon="1.93224">
        <ele>1213.2</ele>
        <time>2024-06-30T09:27:17Z</time>
      </trkpt>
      <trkpt lat="42.81895" lon="1.93237">
        <ele>1211.6</ele>
        <time>2024-06-30T09:27:19Z</time>
      </trkpt>
      <trkpt lat="42.8189" lon="1.93258">
        <ele>1209.2</ele>
        <time>2024-06-30T09:27:21Z</time>
      </trkpt>
      <trkpt lat="42.81887" lon="1.93264">
        <ele>1208.4</ele>
        <time>2024-06-30T09:27:22Z</time>
      </trkpt>
      <trkpt lat="42.81885" lon="1.93265">
        <ele>1207.4</ele>
        <time>2024-06-30T09:27:23Z</time>
      </trkpt>
      <trkpt lat="42.81884" lon="1.93266">
        <ele>1206.4</ele>
        <time>2024-06-30T09:27:24Z</time>
      </trkpt>
      <trkpt lat="42.81883" lon="1.93268">
        <ele>1206</ele>
        <time>2024-06-30T09:27:25Z</time>
      </trkpt>
      <trkpt lat="42.81882" lon="1.9327">
        <ele>1205</ele>
        <time>2024-06-30T09:27:26Z</time>
      </trkpt>
      <trkpt lat="42.81882" lon="1.93273">
        <ele>1204.8</ele>
        <time>2024-06-30T09:27:27Z</time>
      </trkpt>
      <trkpt lat="42.81883" lon="1.93275">
        <ele>1204.4</ele>
        <time>2024-06-30T09:27:28Z</time>
      </trkpt>
      <trkpt lat="42.81882" lon="1.93278">
        <ele>1204.2</ele>
        <time>2024-06-30T09:27:29Z</time>
      </trkpt>
      <trkpt lat="42.81882" lon="1.93281">
        <ele>1204</ele>
        <time>2024-06-30T09:27:30Z</time>
      </trkpt>
      <trkpt lat="42.81881" lon="1.93284">
        <ele>1203.4</ele>
        <time>2024-06-30T09:27:31Z</time>
      </trkpt>
      <trkpt lat="42.81879" lon="1.9329">
        <ele>1202.8</ele>
        <time>2024-06-30T09:27:33Z</time>
      </trkpt>
      <trkpt lat="42.8188" lon="1.93292">
        <ele>1202.6</ele>
        <time>2024-06-30T09:27:34Z</time>
      </trkpt>
      <trkpt lat="42.81882" lon="1.93294">
        <ele>1202</ele>
        <time>2024-06-30T09:27:35Z</time>
      </trkpt>
      <trkpt lat="42.81882" lon="1.93297">
        <ele>1201.8</ele>
        <time>2024-06-30T09:27:36Z</time>
      </trkpt>
      <trkpt lat="42.81884" lon="1.93299">
        <ele>1200.8</ele>
        <time>2024-06-30T09:27:37Z</time>
      </trkpt>
      <trkpt lat="42.81885" lon="1.93302">
        <ele>1199.6</ele>
        <time>2024-06-30T09:27:39Z</time>
      </trkpt>
      <trkpt lat="42.81883" lon="1.93323">
        <ele>1198.6</ele>
        <time>2024-06-30T09:27:41Z</time>
      </trkpt>
      <trkpt lat="42.8188" lon="1.93335">
        <ele>1197.4</ele>
        <time>2024-06-30T09:27:42Z</time>
      </trkpt>
      <trkpt lat="42.81874" lon="1.93353">
        <ele>1196.2</ele>
        <time>2024-06-30T09:27:44Z</time>
      </trkpt>
      <trkpt lat="42.81866" lon="1.9337">
        <ele>1194.4</ele>
        <time>2024-06-30T09:27:46Z</time>
      </trkpt>
      <trkpt lat="42.81865" lon="1.93379">
        <ele>1193</ele>
        <time>2024-06-30T09:27:47Z</time>
      </trkpt>
      <trkpt lat="42.81859" lon="1.934">
        <ele>1190.8</ele>
        <time>2024-06-30T09:27:49Z</time>
      </trkpt>
      <trkpt lat="42.81857" lon="1.93408">
        <ele>1190.2</ele>
        <time>2024-06-30T09:27:50Z</time>
      </trkpt>
      <trkpt lat="42.81853" lon="1.93417">
        <ele>1189.2</ele>
        <time>2024-06-30T09:27:51Z</time>
      </trkpt>
      <trkpt lat="42.81849" lon="1.93426">
        <ele>1188</ele>
        <time>2024-06-30T09:27:52Z</time>
      </trkpt>
      <trkpt lat="42.81846" lon="1.93431">
        <ele>1186.4</ele>
        <time>2024-06-30T09:27:53Z</time>
      </trkpt>
      <trkpt lat="42.81843" lon="1.9344">
        <ele>1185.8</ele>
        <time>2024-06-30T09:27:54Z</time>
      </trkpt>
      <trkpt lat="42.81842" lon="1.93445">
        <ele>1184</ele>
        <time>2024-06-30T09:27:55Z</time>
      </trkpt>
      <trkpt lat="42.81839" lon="1.93453">
        <ele>1181.4</ele>
        <time>2024-06-30T09:27:56Z</time>
      </trkpt>
      <trkpt lat="42.81837" lon="1.93458">
        <ele>1180.4</ele>
        <time>2024-06-30T09:27:57Z</time>
      </trkpt>
      <trkpt lat="42.81837" lon="1.93465">
        <ele>1179.2</ele>
        <time>2024-06-30T09:27:58Z</time>
      </trkpt>
      <trkpt lat="42.81834" lon="1.93472">
        <ele>1176.4</ele>
        <time>2024-06-30T09:28:00Z</time>
      </trkpt>
      <trkpt lat="42.81831" lon="1.93477">
        <ele>1175.4</ele>
        <time>2024-06-30T09:28:01Z</time>
      </trkpt>
      <trkpt lat="42.81828" lon="1.93485">
        <ele>1173.2</ele>
        <time>2024-06-30T09:28:02Z</time>
      </trkpt>
      <trkpt lat="42.81826" lon="1.9349">
        <ele>1170.8</ele>
        <time>2024-06-30T09:28:03Z</time>
      </trkpt>
      <trkpt lat="42.81824" lon="1.93493">
        <ele>1169.8</ele>
        <time>2024-06-30T09:28:04Z</time>
      </trkpt>
      <trkpt lat="42.81823" lon="1.93494">
        <ele>1168</ele>
        <time>2024-06-30T09:28:05Z</time>
      </trkpt>
      <trkpt lat="42.81823" lon="1.93494">
        <ele>1167</ele>
        <time>2024-06-30T09:28:06Z</time>
      </trkpt>
      <trkpt lat="42.81822" lon="1.93495">
        <ele>1164.6</ele>
        <time>2024-06-30T09:28:07Z</time>
      </trkpt>
      <trkpt lat="42.8182" lon="1.93496">
        <ele>1163.8</ele>
        <time>2024-06-30T09:28:08Z</time>
      </trkpt>
      <trkpt lat="42.81818" lon="1.93498">
        <ele>1162.2</ele>
        <time>2024-06-30T09:28:09Z</time>
      </trkpt>
      <trkpt lat="42.81816" lon="1.93499">
        <ele>1161.6</ele>
        <time>2024-06-30T09:28:10Z</time>
      </trkpt>
      <trkpt lat="42.81814" lon="1.93501">
        <ele>1159.8</ele>
        <time>2024-06-30T09:28:11Z</time>
      </trkpt>
      <trkpt lat="42.81814" lon="1.93501">
        <ele>1158.2</ele>
        <time>2024-06-30T09:28:12Z</time>
      </trkpt>
      <trkpt lat="42.81803" lon="1.93514">
        <ele>1156.8</ele>
        <time>2024-06-30T09:28:14Z</time>
      </trkpt>
      <trkpt lat="42.81801" lon="1.93519">
        <ele>1156.4</ele>
        <time>2024-06-30T09:28:15Z</time>
      </trkpt>
      <trkpt lat="42.81798" lon="1.93523">
        <ele>1155.6</ele>
        <time>2024-06-30T09:28:16Z</time>
      </trkpt>
      <trkpt lat="42.81795" lon="1.93527">
        <ele>1155.2</ele>
        <time>2024-06-30T09:28:17Z</time>
      </trkpt>
      <trkpt lat="42.81791" lon="1.93534">
        <ele>1154.4</ele>
        <time>2024-06-30T09:28:18Z</time>
      </trkpt>
      <trkpt lat="42.81788" lon="1.93537">
        <ele>1153.6</ele>
        <time>2024-06-30T09:28:19Z</time>
      </trkpt>
      <trkpt lat="42.81786" lon="1.93539">
        <ele>1152.8</ele>
        <time>2024-06-30T09:28:20Z</time>
      </trkpt>
      <trkpt lat="42.81783" lon="1.93542">
        <ele>1151.8</ele>
        <time>2024-06-30T09:28:21Z</time>
      </trkpt>
      <trkpt lat="42.81781" lon="1.93544">
        <ele>1151.2</ele>
        <time>2024-06-30T09:28:22Z</time>
      </trkpt>
      <trkpt lat="42.81779" lon="1.93548">
        <ele>1150.2</ele>
        <time>2024-06-30T09:28:23Z</time>
      </trkpt>
      <trkpt lat="42.81775" lon="1.93556">
        <ele>1148.6</ele>
        <time>2024-06-30T09:28:25Z</time>
      </trkpt>
      <trkpt lat="42.81772" lon="1.93563">
        <ele>1148.2</ele>
        <time>2024-06-30T09:28:26Z</time>
      </trkpt>
      <trkpt lat="42.8177" lon="1.93566">
        <ele>1147.6</ele>
        <time>2024-06-30T09:28:27Z</time>
      </trkpt>
      <trkpt lat="42.81768" lon="1.93569">
        <ele>1146.6</ele>
        <time>2024-06-30T09:28:28Z</time>
      </trkpt>
      <trkpt lat="42.81762" lon="1.93578">
        <ele>1144.6</ele>
        <time>2024-06-30T09:28:30Z</time>
      </trkpt>
      <trkpt lat="42.8176" lon="1.9358">
        <ele>1144.2</ele>
        <time>2024-06-30T09:28:31Z</time>
      </trkpt>
      <trkpt lat="42.81756" lon="1.93586">
        <ele>1143.2</ele>
        <time>2024-06-30T09:28:32Z</time>
      </trkpt>
      <trkpt lat="42.8175" lon="1.93593">
        <ele>1141.6</ele>
        <time>2024-06-30T09:28:34Z</time>
      </trkpt>
      <trkpt lat="42.81747" lon="1.93597">
        <ele>1140.4</ele>
        <time>2024-06-30T09:28:35Z</time>
      </trkpt>
      <trkpt lat="42.81742" lon="1.93603">
        <ele>1139.2</ele>
        <time>2024-06-30T09:28:37Z</time>
      </trkpt>
      <trkpt lat="42.81736" lon="1.93618">
        <ele>1137.8</ele>
        <time>2024-06-30T09:28:39Z</time>
      </trkpt>
      <trkpt lat="42.81735" lon="1.93626">
        <ele>1137.4</ele>
        <time>2024-06-30T09:28:40Z</time>
      </trkpt>
      <trkpt lat="42.81734" lon="1.93633">
        <ele>1136.8</ele>
        <time>2024-06-30T09:28:41Z</time>
      </trkpt>
      <trkpt lat="42.81733" lon="1.93641">
        <ele>1136.4</ele>
        <time>2024-06-30T09:28:42Z</time>
      </trkpt>
      <trkpt lat="42.8173" lon="1.93648">
        <ele>1135.6</ele>
        <time>2024-06-30T09:28:43Z</time>
      </trkpt>
      <trkpt lat="42.81728" lon="1.93654">
        <ele>1134.2</ele>
        <time>2024-06-30T09:28:44Z</time>
      </trkpt>
      <trkpt lat="42.81725" lon="1.93662">
        <ele>1133.6</ele>
        <time>2024-06-30T09:28:45Z</time>
      </trkpt>
      <trkpt lat="42.81725" lon="1.93669">
        <ele>1132.4</ele>
        <time>2024-06-30T09:28:46Z</time>
      </trkpt>
      <trkpt lat="42.81726" lon="1.93677">
        <ele>1132</ele>
        <time>2024-06-30T09:28:47Z</time>
      </trkpt>
      <trkpt lat="42.81727" lon="1.93684">
        <ele>1130.4</ele>
        <time>2024-06-30T09:28:48Z</time>
      </trkpt>
      <trkpt lat="42.81729" lon="1.93694">
        <ele>1129.8</ele>
        <time>2024-06-30T09:28:49Z</time>
      </trkpt>
      <trkpt lat="42.8173" lon="1.93703">
        <ele>1128.2</ele>
        <time>2024-06-30T09:28:50Z</time>
      </trkpt>
      <trkpt lat="42.81732" lon="1.93715">
        <ele>1126.6</ele>
        <time>2024-06-30T09:28:51Z</time>
      </trkpt>
      <trkpt lat="42.81732" lon="1.93724">
        <ele>1125.4</ele>
        <time>2024-06-30T09:28:52Z</time>
      </trkpt>
      <trkpt lat="42.81733" lon="1.93732">
        <ele>1123.4</ele>
        <time>2024-06-30T09:28:53Z</time>
      </trkpt>
      <trkpt lat="42.81733" lon="1.93739">
        <ele>1122</ele>
        <time>2024-06-30T09:28:54Z</time>
      </trkpt>
      <trkpt lat="42.81733" lon="1.93744">
        <ele>1120.4</ele>
        <time>2024-06-30T09:28:55Z</time>
      </trkpt>
      <trkpt lat="42.81733" lon="1.93755">
        <ele>1119.8</ele>
        <time>2024-06-30T09:28:56Z</time>
      </trkpt>
      <trkpt lat="42.81732" lon="1.93764">
        <ele>1118.2</ele>
        <time>2024-06-30T09:28:57Z</time>
      </trkpt>
      <trkpt lat="42.81731" lon="1.93773">
        <ele>1117.8</ele>
        <time>2024-06-30T09:28:58Z</time>
      </trkpt>
      <trkpt lat="42.8173" lon="1.93782">
        <ele>1116.8</ele>
        <time>2024-06-30T09:28:59Z</time>
      </trkpt>
      <trkpt lat="42.8173" lon="1.9379">
        <ele>1115</ele>
        <time>2024-06-30T09:29:00Z</time>
      </trkpt>
      <trkpt lat="42.81729" lon="1.93796">
        <ele>1114.2</ele>
        <time>2024-06-30T09:29:01Z</time>
      </trkpt>
      <trkpt lat="42.81728" lon="1.93802">
        <ele>1112</ele>
        <time>2024-06-30T09:29:02Z</time>
      </trkpt>
      <trkpt lat="42.81726" lon="1.93809">
        <ele>1111.2</ele>
        <time>2024-06-30T09:29:03Z</time>
      </trkpt>
      <trkpt lat="42.81726" lon="1.93818">
        <ele>1109.8</ele>
        <time>2024-06-30T09:29:04Z</time>
      </trkpt>
      <trkpt lat="42.81726" lon="1.93836">
        <ele>1108</ele>
        <time>2024-06-30T09:29:06Z</time>
      </trkpt>
      <trkpt lat="42.81725" lon="1.93839">
        <ele>1106.4</ele>
        <time>2024-06-30T09:29:07Z</time>
      </trkpt>
      <trkpt lat="42.81724" lon="1.93842">
        <ele>1105.6</ele>
        <time>2024-06-30T09:29:08Z</time>
      </trkpt>
      <trkpt lat="42.81723" lon="1.93845">
        <ele>1104.6</ele>
        <time>2024-06-30T09:29:09Z</time>
      </trkpt>
      <trkpt lat="42.81722" lon="1.93849">
        <ele>1104.2</ele>
        <time>2024-06-30T09:29:10Z</time>
      </trkpt>
      <trkpt lat="42.8172" lon="1.93853">
        <ele>1102.2</ele>
        <time>2024-06-30T09:29:11Z</time>
      </trkpt>
      <trkpt lat="42.81718" lon="1.93857">
        <ele>1101.2</ele>
        <time>2024-06-30T09:29:12Z</time>
      </trkpt>
      <trkpt lat="42.81715" lon="1.93863">
        <ele>1100</ele>
        <time>2024-06-30T09:29:13Z</time>
      </trkpt>
      <trkpt lat="42.81712" lon="1.93869">
        <ele>1099.2</ele>
        <time>2024-06-30T09:29:14Z</time>
      </trkpt>
      <trkpt lat="42.81709" lon="1.93876">
        <ele>1098.2</ele>
        <time>2024-06-30T09:29:15Z</time>
      </trkpt>
      <trkpt lat="42.81706" lon="1.93882">
        <ele>1096.2</ele>
        <time>2024-06-30T09:29:16Z</time>
      </trkpt>
      <trkpt lat="42.81705" lon="1.93886">
        <ele>1095.4</ele>
        <time>2024-06-30T09:29:17Z</time>
      </trkpt>
      <trkpt lat="42.81704" lon="1.9389">
        <ele>1094.4</ele>
        <time>2024-06-30T09:29:18Z</time>
      </trkpt>
      <trkpt lat="42.81703" lon="1.93895">
        <ele>1094.2</ele>
        <time>2024-06-30T09:29:19Z</time>
      </trkpt>
      <trkpt lat="42.81704" lon="1.93899">
        <ele>1092.8</ele>
        <time>2024-06-30T09:29:20Z</time>
      </trkpt>
      <trkpt lat="42.81703" lon="1.93907">
        <ele>1092.2</ele>
        <time>2024-06-30T09:29:21Z</time>
      </trkpt>
      <trkpt lat="42.81702" lon="1.93914">
        <ele>1090.8</ele>
        <time>2024-06-30T09:29:22Z</time>
      </trkpt>
      <trkpt lat="42.81699" lon="1.93928">
        <ele>1089.4</ele>
        <time>2024-06-30T09:29:24Z</time>
      </trkpt>
      <trkpt lat="42.81697" lon="1.93932">
        <ele>1088.8</ele>
        <time>2024-06-30T09:29:25Z</time>
      </trkpt>
      <trkpt lat="42.81693" lon="1.93938">
        <ele>1088.2</ele>
        <time>2024-06-30T09:29:26Z</time>
      </trkpt>
      <trkpt lat="42.8169" lon="1.93945">
        <ele>1086.8</ele>
        <time>2024-06-30T09:29:27Z</time>
      </trkpt>
      <trkpt lat="42.81689" lon="1.9395">
        <ele>1086.2</ele>
        <time>2024-06-30T09:29:28Z</time>
      </trkpt>
      <trkpt lat="42.81687" lon="1.93955">
        <ele>1085.4</ele>
        <time>2024-06-30T09:29:29Z</time>
      </trkpt>
      <trkpt lat="42.81683" lon="1.93968">
        <ele>1083.8</ele>
        <time>2024-06-30T09:29:31Z</time>
      </trkpt>
      <trkpt lat="42.81678" lon="1.93978">
        <ele>1083</ele>
        <time>2024-06-30T09:29:33Z</time>
      </trkpt>
      <trkpt lat="42.81677" lon="1.93982">
        <ele>1082.6</ele>
        <time>2024-06-30T09:29:34Z</time>
      </trkpt>
      <trkpt lat="42.81675" lon="1.93996">
        <ele>1081.4</ele>
        <time>2024-06-30T09:29:36Z</time>
      </trkpt>
      <trkpt lat="42.81672" lon="1.94005">
        <ele>1081</ele>
        <time>2024-06-30T09:29:37Z</time>
      </trkpt>
      <trkpt lat="42.8167" lon="1.94014">
        <ele>1080</ele>
        <time>2024-06-30T09:29:38Z</time>
      </trkpt>
      <trkpt lat="42.81669" lon="1.94032">
        <ele>1079</ele>
        <time>2024-06-30T09:29:40Z</time>
      </trkpt>
      <trkpt lat="42.81669" lon="1.94042">
        <ele>1077.8</ele>
        <time>2024-06-30T09:29:41Z</time>
      </trkpt>
      <trkpt lat="42.8167" lon="1.94063">
        <ele>1076.2</ele>
        <time>2024-06-30T09:29:43Z</time>
      </trkpt>
      <trkpt lat="42.8167" lon="1.94091">
        <ele>1075.2</ele>
        <time>2024-06-30T09:29:45Z</time>
      </trkpt>
      <trkpt lat="42.8167" lon="1.94117">
        <ele>1074.2</ele>
        <time>2024-06-30T09:29:47Z</time>
      </trkpt>
      <trkpt lat="42.81669" lon="1.9414">
        <ele>1072.6</ele>
        <time>2024-06-30T09:29:49Z</time>
      </trkpt>
      <trkpt lat="42.81668" lon="1.94151">
        <ele>1071.8</ele>
        <time>2024-06-30T09:29:50Z</time>
      </trkpt>
      <trkpt lat="42.81666" lon="1.94163">
        <ele>1071</ele>
        <time>2024-06-30T09:29:51Z</time>
      </trkpt>
      <trkpt lat="42.81665" lon="1.94174">
        <ele>1070</ele>
        <time>2024-06-30T09:29:52Z</time>
      </trkpt>
      <trkpt lat="42.81664" lon="1.94197">
        <ele>1068</ele>
        <time>2024-06-30T09:29:54Z</time>
      </trkpt>
      <trkpt lat="42.81664" lon="1.94209">
        <ele>1067.2</ele>
        <time>2024-06-30T09:29:55Z</time>
      </trkpt>
      <trkpt lat="42.81664" lon="1.9422">
        <ele>1066.2</ele>
        <time>2024-06-30T09:29:56Z</time>
      </trkpt>
      <trkpt lat="42.81664" lon="1.94231">
        <ele>1065.6</ele>
        <time>2024-06-30T09:29:57Z</time>
      </trkpt>
      <trkpt lat="42.81665" lon="1.94243">
        <ele>1065</ele>
        <time>2024-06-30T09:29:58Z</time>
      </trkpt>
      <trkpt lat="42.81668" lon="1.94256">
        <ele>1063.8</ele>
        <time>2024-06-30T09:29:59Z</time>
      </trkpt>
      <trkpt lat="42.81669" lon="1.94268">
        <ele>1063.4</ele>
        <time>2024-06-30T09:30:00Z</time>
      </trkpt>
      <trkpt lat="42.8167" lon="1.94281">
        <ele>1062.4</ele>
        <time>2024-06-30T09:30:01Z</time>
      </trkpt>
      <trkpt lat="42.81673" lon="1.94306">
        <ele>1061</ele>
        <time>2024-06-30T09:30:03Z</time>
      </trkpt>
      <trkpt lat="42.81679" lon="1.94326">
        <ele>1059.4</ele>
        <time>2024-06-30T09:30:05Z</time>
      </trkpt>
      <trkpt lat="42.81684" lon="1.94339">
        <ele>1057.6</ele>
        <time>2024-06-30T09:30:06Z</time>
      </trkpt>
      <trkpt lat="42.81694" lon="1.94358">
        <ele>1055.8</ele>
        <time>2024-06-30T09:30:08Z</time>
      </trkpt>
      <trkpt lat="42.81698" lon="1.94365">
        <ele>1055</ele>
        <time>2024-06-30T09:30:09Z</time>
      </trkpt>
      <trkpt lat="42.81702" lon="1.94376">
        <ele>1053.6</ele>
        <time>2024-06-30T09:30:10Z</time>
      </trkpt>
      <trkpt lat="42.81704" lon="1.94389">
        <ele>1053</ele>
        <time>2024-06-30T09:30:11Z</time>
      </trkpt>
      <trkpt lat="42.81706" lon="1.94401">
        <ele>1052.2</ele>
        <time>2024-06-30T09:30:12Z</time>
      </trkpt>
      <trkpt lat="42.81707" lon="1.94413">
        <ele>1051.6</ele>
        <time>2024-06-30T09:30:13Z</time>
      </trkpt>
      <trkpt lat="42.81707" lon="1.94422">
        <ele>1051</ele>
        <time>2024-06-30T09:30:14Z</time>
      </trkpt>
      <trkpt lat="42.81708" lon="1.94436">
        <ele>1050.4</ele>
        <time>2024-06-30T09:30:15Z</time>
      </trkpt>
      <trkpt lat="42.81708" lon="1.94449">
        <ele>1050</ele>
        <time>2024-06-30T09:30:16Z</time>
      </trkpt>
      <trkpt lat="42.81709" lon="1.94461">
        <ele>1048.6</ele>
        <time>2024-06-30T09:30:17Z</time>
      </trkpt>
      <trkpt lat="42.8171" lon="1.94472">
        <ele>1048</ele>
        <time>2024-06-30T09:30:18Z</time>
      </trkpt>
      <trkpt lat="42.81711" lon="1.94481">
        <ele>1046.6</ele>
        <time>2024-06-30T09:30:19Z</time>
      </trkpt>
      <trkpt lat="42.81713" lon="1.94493">
        <ele>1046.2</ele>
        <time>2024-06-30T09:30:20Z</time>
      </trkpt>
      <trkpt lat="42.81716" lon="1.94508">
        <ele>1045.6</ele>
        <time>2024-06-30T09:30:21Z</time>
      </trkpt>
      <trkpt lat="42.81719" lon="1.9452">
        <ele>1045.2</ele>
        <time>2024-06-30T09:30:22Z</time>
      </trkpt>
      <trkpt lat="42.81727" lon="1.94556">
        <ele>1044.8</ele>
        <time>2024-06-30T09:30:25Z</time>
      </trkpt>
      <trkpt lat="42.81727" lon="1.94568">
        <ele>1044.4</ele>
        <time>2024-06-30T09:30:26Z</time>
      </trkpt>
      <trkpt lat="42.81728" lon="1.94592">
        <ele>1043.2</ele>
        <time>2024-06-30T09:30:28Z</time>
      </trkpt>
      <trkpt lat="42.81728" lon="1.94601">
        <ele>1043</ele>
        <time>2024-06-30T09:30:29Z</time>
      </trkpt>
      <trkpt lat="42.81727" lon="1.94611">
        <ele>1042.2</ele>
        <time>2024-06-30T09:30:30Z</time>
      </trkpt>
      <trkpt lat="42.81726" lon="1.94622">
        <ele>1041.8</ele>
        <time>2024-06-30T09:30:31Z</time>
      </trkpt>
      <trkpt lat="42.81724" lon="1.94631">
        <ele>1041.6</ele>
        <time>2024-06-30T09:30:32Z</time>
      </trkpt>
      <trkpt lat="42.8172" lon="1.94635">
        <ele>1040.8</ele>
        <time>2024-06-30T09:30:33Z</time>
      </trkpt>
      <trkpt lat="42.81714" lon="1.94635">
        <ele>1040.4</ele>
        <time>2024-06-30T09:30:34Z</time>
      </trkpt>
      <trkpt lat="42.81709" lon="1.94633">
        <ele>1039.4</ele>
        <time>2024-06-30T09:30:35Z</time>
      </trkpt>
      <trkpt lat="42.81703" lon="1.9463">
        <ele>1038.4</ele>
        <time>2024-06-30T09:30:36Z</time>
      </trkpt>
      <trkpt lat="42.81696" lon="1.94627">
        <ele>1037.4</ele>
        <time>2024-06-30T09:30:37Z</time>
      </trkpt>
      <trkpt lat="42.8169" lon="1.94626">
        <ele>1036.6</ele>
        <time>2024-06-30T09:30:38Z</time>
      </trkpt>
      <trkpt lat="42.81684" lon="1.94624">
        <ele>1035.8</ele>
        <time>2024-06-30T09:30:39Z</time>
      </trkpt>
      <trkpt lat="42.81679" lon="1.94623">
        <ele>1035.2</ele>
        <time>2024-06-30T09:30:40Z</time>
      </trkpt>
      <trkpt lat="42.81674" lon="1.94622">
        <ele>1034.6</ele>
        <time>2024-06-30T09:30:41Z</time>
      </trkpt>
      <trkpt lat="42.81669" lon="1.94622">
        <ele>1034.6</ele>
        <time>2024-06-30T09:30:42Z</time>
      </trkpt>
      <trkpt lat="42.81663" lon="1.94623">
        <ele>1034.6</ele>
        <time>2024-06-30T09:30:43Z</time>
      </trkpt>
      <trkpt lat="42.81659" lon="1.94624">
        <ele>1034.4</ele>
        <time>2024-06-30T09:30:44Z</time>
      </trkpt>
      <trkpt lat="42.81654" lon="1.94627">
        <ele>1034.4</ele>
        <time>2024-06-30T09:30:45Z</time>
      </trkpt>
      <trkpt lat="42.81648" lon="1.94629">
        <ele>1034.4</ele>
        <time>2024-06-30T09:30:46Z</time>
      </trkpt>
      <trkpt lat="42.81644" lon="1.94632">
        <ele>1034.4</ele>
        <time>2024-06-30T09:30:47Z</time>
      </trkpt>
      <trkpt lat="42.8164" lon="1.94634">
        <ele>1034.4</ele>
        <time>2024-06-30T09:30:48Z</time>
      </trkpt>
      <trkpt lat="42.81636" lon="1.94636">
        <ele>1034.4</ele>
        <time>2024-06-30T09:30:49Z</time>
      </trkpt>
      <trkpt lat="42.81632" lon="1.94638">
        <ele>1034.4</ele>
        <time>2024-06-30T09:30:50Z</time>
      </trkpt>
      <trkpt lat="42.81628" lon="1.94641">
        <ele>1034.4</ele>
        <time>2024-06-30T09:30:51Z</time>
      </trkpt>
      <trkpt lat="42.81624" lon="1.94646">
        <ele>1034.4</ele>
        <time>2024-06-30T09:30:52Z</time>
      </trkpt>
      <trkpt lat="42.8162" lon="1.9465">
        <ele>1034.6</ele>
        <time>2024-06-30T09:30:53Z</time>
      </trkpt>
      <trkpt lat="42.81615" lon="1.94659">
        <ele>1034.6</ele>
        <time>2024-06-30T09:30:55Z</time>
      </trkpt>
      <trkpt lat="42.81599" lon="1.94695">
        <ele>1035</ele>
        <time>2024-06-30T09:31:00Z</time>
      </trkpt>
      <trkpt lat="42.81596" lon="1.94702">
        <ele>1035</ele>
        <time>2024-06-30T09:31:01Z</time>
      </trkpt>
      <trkpt lat="42.81589" lon="1.94723">
        <ele>1034.6</ele>
        <time>2024-06-30T09:31:04Z</time>
      </trkpt>
      <trkpt lat="42.81588" lon="1.94729">
        <ele>1034.6</ele>
        <time>2024-06-30T09:31:05Z</time>
      </trkpt>
      <trkpt lat="42.81586" lon="1.94745">
        <ele>1034.4</ele>
        <time>2024-06-30T09:31:07Z</time>
      </trkpt>
      <trkpt lat="42.81585" lon="1.94751">
        <ele>1034.4</ele>
        <time>2024-06-30T09:31:08Z</time>
      </trkpt>
      <trkpt lat="42.81585" lon="1.94756">
        <ele>1034.4</ele>
        <time>2024-06-30T09:31:09Z</time>
      </trkpt>
      <trkpt lat="42.81585" lon="1.94764">
        <ele>1034.4</ele>
        <time>2024-06-30T09:31:10Z</time>
      </trkpt>
      <trkpt lat="42.81584" lon="1.94769">
        <ele>1034.2</ele>
        <time>2024-06-30T09:31:11Z</time>
      </trkpt>
      <trkpt lat="42.81584" lon="1.94776">
        <ele>1034.2</ele>
        <time>2024-06-30T09:31:12Z</time>
      </trkpt>
      <trkpt lat="42.81585" lon="1.94795">
        <ele>1034.2</ele>
        <time>2024-06-30T09:31:15Z</time>
      </trkpt>
      <trkpt lat="42.81585" lon="1.94804">
        <ele>1034.2</ele>
        <time>2024-06-30T09:31:16Z</time>
      </trkpt>
      <trkpt lat="42.81586" lon="1.94816">
        <ele>1034.2</ele>
        <time>2024-06-30T09:31:18Z</time>
      </trkpt>
      <trkpt lat="42.81587" lon="1.94822">
        <ele>1034.2</ele>
        <time>2024-06-30T09:31:19Z</time>
      </trkpt>
      <trkpt lat="42.81592" lon="1.94857">
        <ele>1034</ele>
        <time>2024-06-30T09:31:25Z</time>
      </trkpt>
      <trkpt lat="42.81592" lon="1.94863">
        <ele>1034</ele>
        <time>2024-06-30T09:31:26Z</time>
      </trkpt>
      <trkpt lat="42.81593" lon="1.94869">
        <ele>1034</ele>
        <time>2024-06-30T09:31:27Z</time>
      </trkpt>
      <trkpt lat="42.81594" lon="1.94881">
        <ele>1033.8</ele>
        <time>2024-06-30T09:31:30Z</time>
      </trkpt>
      <trkpt lat="42.81595" lon="1.9489">
        <ele>1033.6</ele>
        <time>2024-06-30T09:31:31Z</time>
      </trkpt>
      <trkpt lat="42.81595" lon="1.94895">
        <ele>1033.6</ele>
        <time>2024-06-30T09:31:32Z</time>
      </trkpt>
      <trkpt lat="42.81595" lon="1.94898">
        <ele>1033.4</ele>
        <time>2024-06-30T09:31:33Z</time>
      </trkpt>
      <trkpt lat="42.81595" lon="1.949">
        <ele>1033.4</ele>
        <time>2024-06-30T09:31:34Z</time>
      </trkpt>
      <trkpt lat="42.81596" lon="1.94903">
        <ele>1033.4</ele>
        <time>2024-06-30T09:31:35Z</time>
      </trkpt>
      <trkpt lat="42.81596" lon="1.94906">
        <ele>1033.2</ele>
        <time>2024-06-30T09:31:36Z</time>
      </trkpt>
      <trkpt lat="42.81596" lon="1.94907">
        <ele>1033.2</ele>
        <time>2024-06-30T09:31:37Z</time>
      </trkpt>
      <trkpt lat="42.81595" lon="1.94909">
        <ele>1033.2</ele>
        <time>2024-06-30T09:31:38Z</time>
      </trkpt>
      <trkpt lat="42.81594" lon="1.9491">
        <ele>1033.2</ele>
        <time>2024-06-30T09:31:39Z</time>
      </trkpt>
      <trkpt lat="42.81593" lon="1.9491">
        <ele>1033.2</ele>
        <time>2024-06-30T09:31:40Z</time>
      </trkpt>
      <trkpt lat="42.81593" lon="1.9491">
        <ele>1033</ele>
        <time>2024-06-30T09:31:41Z</time>
      </trkpt>
      <trkpt lat="42.81593" lon="1.9491">
        <ele>1033</ele>
        <time>2024-06-30T09:31:42Z</time>
      </trkpt>
      <trkpt lat="42.81593" lon="1.94917">
        <ele>1031.8</ele>
        <time>2024-06-30T09:38:32Z</time>
      </trkpt>
      <trkpt lat="42.81593" lon="1.94924">
        <ele>1031.8</ele>
        <time>2024-06-30T09:38:34Z</time>
      </trkpt>
      <trkpt lat="42.81591" lon="1.94929">
        <ele>1031.8</ele>
        <time>2024-06-30T09:38:36Z</time>
      </trkpt>
      <trkpt lat="42.8159" lon="1.94932">
        <ele>1032</ele>
        <time>2024-06-30T09:38:37Z</time>
      </trkpt>
      <trkpt lat="42.8159" lon="1.94935">
        <ele>1032</ele>
        <time>2024-06-30T09:38:38Z</time>
      </trkpt>
      <trkpt lat="42.81585" lon="1.94943">
        <ele>1032</ele>
        <time>2024-06-30T09:38:41Z</time>
      </trkpt>
      <trkpt lat="42.81584" lon="1.94946">
        <ele>1032.2</ele>
        <time>2024-06-30T09:38:42Z</time>
      </trkpt>
      <trkpt lat="42.8157" lon="1.94962">
        <ele>1032.6</ele>
        <time>2024-06-30T09:38:49Z</time>
      </trkpt>
      <trkpt lat="42.81564" lon="1.94969">
        <ele>1032.8</ele>
        <time>2024-06-30T09:38:52Z</time>
      </trkpt>
      <trkpt lat="42.81561" lon="1.94976">
        <ele>1033</ele>
        <time>2024-06-30T09:38:54Z</time>
      </trkpt>
      <trkpt lat="42.81561" lon="1.9498">
        <ele>1033</ele>
        <time>2024-06-30T09:38:55Z</time>
      </trkpt>
      <trkpt lat="42.81561" lon="1.94985">
        <ele>1033</ele>
        <time>2024-06-30T09:38:56Z</time>
      </trkpt>
      <trkpt lat="42.81562" lon="1.94989">
        <ele>1033.2</ele>
        <time>2024-06-30T09:38:57Z</time>
      </trkpt>
      <trkpt lat="42.81563" lon="1.94994">
        <ele>1033.2</ele>
        <time>2024-06-30T09:38:58Z</time>
      </trkpt>
      <trkpt lat="42.81564" lon="1.94999">
        <ele>1033.2</ele>
        <time>2024-06-30T09:38:59Z</time>
      </trkpt>
      <trkpt lat="42.81566" lon="1.95004">
        <ele>1033.4</ele>
        <time>2024-06-30T09:39:00Z</time>
      </trkpt>
      <trkpt lat="42.81567" lon="1.95009">
        <ele>1033.4</ele>
        <time>2024-06-30T09:39:01Z</time>
      </trkpt>
      <trkpt lat="42.81576" lon="1.95039">
        <ele>1033.4</ele>
        <time>2024-06-30T09:39:06Z</time>
      </trkpt>
      <trkpt lat="42.81581" lon="1.95058">
        <ele>1033</ele>
        <time>2024-06-30T09:39:09Z</time>
      </trkpt>
      <trkpt lat="42.81588" lon="1.95078">
        <ele>1032.4</ele>
        <time>2024-06-30T09:39:12Z</time>
      </trkpt>
      <trkpt lat="42.81594" lon="1.95096">
        <ele>1032</ele>
        <time>2024-06-30T09:39:15Z</time>
      </trkpt>
      <trkpt lat="42.81594" lon="1.95108">
        <ele>1031.8</ele>
        <time>2024-06-30T09:39:17Z</time>
      </trkpt>
      <trkpt lat="42.81593" lon="1.95113">
        <ele>1031.6</ele>
        <time>2024-06-30T09:39:18Z</time>
      </trkpt>
      <trkpt lat="42.81591" lon="1.95118">
        <ele>1031.6</ele>
        <time>2024-06-30T09:39:19Z</time>
      </trkpt>
      <trkpt lat="42.8159" lon="1.95124">
        <ele>1031.2</ele>
        <time>2024-06-30T09:39:20Z</time>
      </trkpt>
      <trkpt lat="42.81587" lon="1.95129">
        <ele>1031.2</ele>
        <time>2024-06-30T09:39:21Z</time>
      </trkpt>
      <trkpt lat="42.81584" lon="1.95132">
        <ele>1030.8</ele>
        <time>2024-06-30T09:39:22Z</time>
      </trkpt>
      <trkpt lat="42.81579" lon="1.95134">
        <ele>1030.4</ele>
        <time>2024-06-30T09:39:23Z</time>
      </trkpt>
      <trkpt lat="42.81575" lon="1.95136">
        <ele>1030.4</ele>
        <time>2024-06-30T09:39:24Z</time>
      </trkpt>
      <trkpt lat="42.81569" lon="1.95137">
        <ele>1030.2</ele>
        <time>2024-06-30T09:39:25Z</time>
      </trkpt>
      <trkpt lat="42.81565" lon="1.95137">
        <ele>1030</ele>
        <time>2024-06-30T09:39:26Z</time>
      </trkpt>
      <trkpt lat="42.81561" lon="1.95137">
        <ele>1030</ele>
        <time>2024-06-30T09:39:27Z</time>
      </trkpt>
      <trkpt lat="42.81551" lon="1.95135">
        <ele>1030</ele>
        <time>2024-06-30T09:39:29Z</time>
      </trkpt>
      <trkpt lat="42.81537" lon="1.95127">
        <ele>1030</ele>
        <time>2024-06-30T09:39:32Z</time>
      </trkpt>
      <trkpt lat="42.8153" lon="1.95119">
        <ele>1030</ele>
        <time>2024-06-30T09:39:34Z</time>
      </trkpt>
      <trkpt lat="42.81516" lon="1.95103">
        <ele>1030.4</ele>
        <time>2024-06-30T09:39:38Z</time>
      </trkpt>
      <trkpt lat="42.81513" lon="1.95099">
        <ele>1031</ele>
        <time>2024-06-30T09:39:39Z</time>
      </trkpt>
      <trkpt lat="42.81509" lon="1.95095">
        <ele>1031</ele>
        <time>2024-06-30T09:39:40Z</time>
      </trkpt>
      <trkpt lat="42.81506" lon="1.95092">
        <ele>1031.4</ele>
        <time>2024-06-30T09:39:41Z</time>
      </trkpt>
      <trkpt lat="42.81502" lon="1.95087">
        <ele>1031.4</ele>
        <time>2024-06-30T09:39:42Z</time>
      </trkpt>
      <trkpt lat="42.81499" lon="1.95084">
        <ele>1031.8</ele>
        <time>2024-06-30T09:39:43Z</time>
      </trkpt>
      <trkpt lat="42.81495" lon="1.95081">
        <ele>1031.8</ele>
        <time>2024-06-30T09:39:44Z</time>
      </trkpt>
      <trkpt lat="42.81492" lon="1.95077">
        <ele>1032.2</ele>
        <time>2024-06-30T09:39:45Z</time>
      </trkpt>
      <trkpt lat="42.81469" lon="1.95056">
        <ele>1032.8</ele>
        <time>2024-06-30T09:39:51Z</time>
      </trkpt>
      <trkpt lat="42.8144" lon="1.95024">
        <ele>1033.4</ele>
        <time>2024-06-30T09:39:59Z</time>
      </trkpt>
      <trkpt lat="42.81432" lon="1.9501">
        <ele>1033.6</ele>
        <time>2024-06-30T09:40:02Z</time>
      </trkpt>
      <trkpt lat="42.81429" lon="1.95005">
        <ele>1033.6</ele>
        <time>2024-06-30T09:40:03Z</time>
      </trkpt>
      <trkpt lat="42.81419" lon="1.94985">
        <ele>1033.8</ele>
        <time>2024-06-30T09:40:07Z</time>
      </trkpt>
      <trkpt lat="42.81398" lon="1.94945">
        <ele>1035</ele>
        <time>2024-06-30T09:40:15Z</time>
      </trkpt>
      <trkpt lat="42.81396" lon="1.9494">
        <ele>1035</ele>
        <time>2024-06-30T09:40:16Z</time>
      </trkpt>
      <trkpt lat="42.81379" lon="1.94912">
        <ele>1035.8</ele>
        <time>2024-06-30T09:40:22Z</time>
      </trkpt>
      <trkpt lat="42.81375" lon="1.94908">
        <ele>1035.8</ele>
        <time>2024-06-30T09:40:23Z</time>
      </trkpt>
      <trkpt lat="42.8137" lon="1.94906">
        <ele>1035.8</ele>
        <time>2024-06-30T09:40:24Z</time>
      </trkpt>
      <trkpt lat="42.81364" lon="1.94904">
        <ele>1035.8</ele>
        <time>2024-06-30T09:40:25Z</time>
      </trkpt>
      <trkpt lat="42.81358" lon="1.94903">
        <ele>1035.8</ele>
        <time>2024-06-30T09:40:26Z</time>
      </trkpt>
      <trkpt lat="42.81352" lon="1.949">
        <ele>1036</ele>
        <time>2024-06-30T09:40:27Z</time>
      </trkpt>
      <trkpt lat="42.81347" lon="1.94896">
        <ele>1036</ele>
        <time>2024-06-30T09:40:28Z</time>
      </trkpt>
      <trkpt lat="42.81341" lon="1.9489">
        <ele>1035.8</ele>
        <time>2024-06-30T09:40:29Z</time>
      </trkpt>
      <trkpt lat="42.81336" lon="1.94883">
        <ele>1035.8</ele>
        <time>2024-06-30T09:40:30Z</time>
      </trkpt>
      <trkpt lat="42.81331" lon="1.94875">
        <ele>1035.6</ele>
        <time>2024-06-30T09:40:31Z</time>
      </trkpt>
      <trkpt lat="42.81327" lon="1.94866">
        <ele>1035</ele>
        <time>2024-06-30T09:40:32Z</time>
      </trkpt>
      <trkpt lat="42.81321" lon="1.94857">
        <ele>1034.6</ele>
        <time>2024-06-30T09:40:33Z</time>
      </trkpt>
      <trkpt lat="42.81316" lon="1.94848">
        <ele>1034.4</ele>
        <time>2024-06-30T09:40:34Z</time>
      </trkpt>
      <trkpt lat="42.81301" lon="1.94835">
        <ele>1033.2</ele>
        <time>2024-06-30T09:40:36Z</time>
      </trkpt>
      <trkpt lat="42.81293" lon="1.94831">
        <ele>1032.8</ele>
        <time>2024-06-30T09:40:37Z</time>
      </trkpt>
      <trkpt lat="42.81284" lon="1.94829">
        <ele>1032.2</ele>
        <time>2024-06-30T09:40:38Z</time>
      </trkpt>
      <trkpt lat="42.81276" lon="1.94829">
        <ele>1032</ele>
        <time>2024-06-30T09:40:39Z</time>
      </trkpt>
      <trkpt lat="42.81268" lon="1.9483">
        <ele>1031.6</ele>
        <time>2024-06-30T09:40:40Z</time>
      </trkpt>
      <trkpt lat="42.81264" lon="1.94827">
        <ele>1031</ele>
        <time>2024-06-30T09:40:41Z</time>
      </trkpt>
      <trkpt lat="42.81259" lon="1.94822">
        <ele>1031</ele>
        <time>2024-06-30T09:40:42Z</time>
      </trkpt>
      <trkpt lat="42.81256" lon="1.94817">
        <ele>1030.6</ele>
        <time>2024-06-30T09:40:43Z</time>
      </trkpt>
      <trkpt lat="42.81254" lon="1.9481">
        <ele>1030.6</ele>
        <time>2024-06-30T09:40:44Z</time>
      </trkpt>
      <trkpt lat="42.81253" lon="1.94805">
        <ele>1030.4</ele>
        <time>2024-06-30T09:40:45Z</time>
      </trkpt>
      <trkpt lat="42.81251" lon="1.94798">
        <ele>1030.4</ele>
        <time>2024-06-30T09:40:46Z</time>
      </trkpt>
      <trkpt lat="42.8125" lon="1.94793">
        <ele>1030.4</ele>
        <time>2024-06-30T09:40:47Z</time>
      </trkpt>
      <trkpt lat="42.81247" lon="1.94787">
        <ele>1030.4</ele>
        <time>2024-06-30T09:40:48Z</time>
      </trkpt>
      <trkpt lat="42.81243" lon="1.94776">
        <ele>1030.6</ele>
        <time>2024-06-30T09:40:50Z</time>
      </trkpt>
      <trkpt lat="42.8124" lon="1.94772">
        <ele>1030.6</ele>
        <time>2024-06-30T09:40:51Z</time>
      </trkpt>
      <trkpt lat="42.81237" lon="1.94767">
        <ele>1030.8</ele>
        <time>2024-06-30T09:40:52Z</time>
      </trkpt>
      <trkpt lat="42.81234" lon="1.94763">
        <ele>1030.8</ele>
        <time>2024-06-30T09:40:53Z</time>
      </trkpt>
      <trkpt lat="42.81232" lon="1.94759">
        <ele>1031</ele>
        <time>2024-06-30T09:40:54Z</time>
      </trkpt>
      <trkpt lat="42.81229" lon="1.94754">
        <ele>1031.2</ele>
        <time>2024-06-30T09:40:55Z</time>
      </trkpt>
      <trkpt lat="42.81227" lon="1.94749">
        <ele>1031.6</ele>
        <time>2024-06-30T09:40:56Z</time>
      </trkpt>
      <trkpt lat="42.81225" lon="1.94744">
        <ele>1032</ele>
        <time>2024-06-30T09:40:57Z</time>
      </trkpt>
      <trkpt lat="42.81223" lon="1.94739">
        <ele>1032.2</ele>
        <time>2024-06-30T09:40:58Z</time>
      </trkpt>
      <trkpt lat="42.81218" lon="1.9473">
        <ele>1032.8</ele>
        <time>2024-06-30T09:41:00Z</time>
      </trkpt>
      <trkpt lat="42.81215" lon="1.94725">
        <ele>1033</ele>
        <time>2024-06-30T09:41:01Z</time>
      </trkpt>
      <trkpt lat="42.81209" lon="1.94716">
        <ele>1033.4</ele>
        <time>2024-06-30T09:41:03Z</time>
      </trkpt>
      <trkpt lat="42.81207" lon="1.94711">
        <ele>1033.6</ele>
        <time>2024-06-30T09:41:04Z</time>
      </trkpt>
      <trkpt lat="42.81199" lon="1.94696">
        <ele>1034</ele>
        <time>2024-06-30T09:41:07Z</time>
      </trkpt>
      <trkpt lat="42.8119" lon="1.9468">
        <ele>1034.4</ele>
        <time>2024-06-30T09:41:10Z</time>
      </trkpt>
      <trkpt lat="42.81188" lon="1.94675">
        <ele>1034.8</ele>
        <time>2024-06-30T09:41:11Z</time>
      </trkpt>
      <trkpt lat="42.81184" lon="1.9467">
        <ele>1035</ele>
        <time>2024-06-30T09:41:12Z</time>
      </trkpt>
      <trkpt lat="42.8118" lon="1.94665">
        <ele>1035.2</ele>
        <time>2024-06-30T09:41:13Z</time>
      </trkpt>
      <trkpt lat="42.81176" lon="1.94661">
        <ele>1035.2</ele>
        <time>2024-06-30T09:41:14Z</time>
      </trkpt>
      <trkpt lat="42.81173" lon="1.94656">
        <ele>1035.2</ele>
        <time>2024-06-30T09:41:15Z</time>
      </trkpt>
      <trkpt lat="42.8117" lon="1.94652">
        <ele>1035.4</ele>
        <time>2024-06-30T09:41:16Z</time>
      </trkpt>
      <trkpt lat="42.81166" lon="1.94648">
        <ele>1035.6</ele>
        <time>2024-06-30T09:41:17Z</time>
      </trkpt>
      <trkpt lat="42.81163" lon="1.94643">
        <ele>1035.6</ele>
        <time>2024-06-30T09:41:18Z</time>
      </trkpt>
      <trkpt lat="42.81161" lon="1.94638">
        <ele>1035.8</ele>
        <time>2024-06-30T09:41:19Z</time>
      </trkpt>
      <trkpt lat="42.8116" lon="1.94632">
        <ele>1036.2</ele>
        <time>2024-06-30T09:41:20Z</time>
      </trkpt>
      <trkpt lat="42.81159" lon="1.94628">
        <ele>1036.2</ele>
        <time>2024-06-30T09:41:21Z</time>
      </trkpt>
      <trkpt lat="42.81159" lon="1.94622">
        <ele>1036.6</ele>
        <time>2024-06-30T09:41:22Z</time>
      </trkpt>
      <trkpt lat="42.81159" lon="1.94619">
        <ele>1036.8</ele>
        <time>2024-06-30T09:41:23Z</time>
      </trkpt>
      <trkpt lat="42.8116" lon="1.94614">
        <ele>1037.2</ele>
        <time>2024-06-30T09:41:24Z</time>
      </trkpt>
      <trkpt lat="42.8116" lon="1.94609">
        <ele>1037.2</ele>
        <time>2024-06-30T09:41:25Z</time>
      </trkpt>
      <trkpt lat="42.8116" lon="1.94603">
        <ele>1037.6</ele>
        <time>2024-06-30T09:41:26Z</time>
      </trkpt>
      <trkpt lat="42.81159" lon="1.94599">
        <ele>1037.8</ele>
        <time>2024-06-30T09:41:27Z</time>
      </trkpt>
      <trkpt lat="42.81159" lon="1.94594">
        <ele>1038</ele>
        <time>2024-06-30T09:41:28Z</time>
      </trkpt>
      <trkpt lat="42.81157" lon="1.9459">
        <ele>1038.4</ele>
        <time>2024-06-30T09:41:29Z</time>
      </trkpt>
      <trkpt lat="42.81154" lon="1.94586">
        <ele>1038.4</ele>
        <time>2024-06-30T09:41:30Z</time>
      </trkpt>
      <trkpt lat="42.81151" lon="1.94582">
        <ele>1038.6</ele>
        <time>2024-06-30T09:41:31Z</time>
      </trkpt>
      <trkpt lat="42.81146" lon="1.94577">
        <ele>1038.8</ele>
        <time>2024-06-30T09:41:32Z</time>
      </trkpt>
      <trkpt lat="42.81144" lon="1.94574">
        <ele>1039</ele>
        <time>2024-06-30T09:41:33Z</time>
      </trkpt>
      <trkpt lat="42.81141" lon="1.9457">
        <ele>1039.2</ele>
        <time>2024-06-30T09:41:34Z</time>
      </trkpt>
      <trkpt lat="42.81138" lon="1.94565">
        <ele>1039.4</ele>
        <time>2024-06-30T09:41:35Z</time>
      </trkpt>
      <trkpt lat="42.81134" lon="1.94561">
        <ele>1039.4</ele>
        <time>2024-06-30T09:41:36Z</time>
      </trkpt>
      <trkpt lat="42.81132" lon="1.94558">
        <ele>1039.6</ele>
        <time>2024-06-30T09:41:37Z</time>
      </trkpt>
      <trkpt lat="42.81128" lon="1.94554">
        <ele>1039.6</ele>
        <time>2024-06-30T09:41:38Z</time>
      </trkpt>
      <trkpt lat="42.81123" lon="1.94549">
        <ele>1039.6</ele>
        <time>2024-06-30T09:41:39Z</time>
      </trkpt>
      <trkpt lat="42.8112" lon="1.94544">
        <ele>1039.8</ele>
        <time>2024-06-30T09:41:40Z</time>
      </trkpt>
      <trkpt lat="42.81118" lon="1.94541">
        <ele>1039.8</ele>
        <time>2024-06-30T09:41:41Z</time>
      </trkpt>
      <trkpt lat="42.81114" lon="1.94536">
        <ele>1039.8</ele>
        <time>2024-06-30T09:41:42Z</time>
      </trkpt>
      <trkpt lat="42.81111" lon="1.94533">
        <ele>1040.2</ele>
        <time>2024-06-30T09:41:43Z</time>
      </trkpt>
      <trkpt lat="42.81108" lon="1.94529">
        <ele>1040.2</ele>
        <time>2024-06-30T09:41:44Z</time>
      </trkpt>
      <trkpt lat="42.81105" lon="1.94525">
        <ele>1040.6</ele>
        <time>2024-06-30T09:41:45Z</time>
      </trkpt>
      <trkpt lat="42.81102" lon="1.94521">
        <ele>1040.6</ele>
        <time>2024-06-30T09:41:46Z</time>
      </trkpt>
      <trkpt lat="42.811" lon="1.94518">
        <ele>1040.8</ele>
        <time>2024-06-30T09:41:47Z</time>
      </trkpt>
      <trkpt lat="42.81097" lon="1.94514">
        <ele>1041</ele>
        <time>2024-06-30T09:41:48Z</time>
      </trkpt>
      <trkpt lat="42.81094" lon="1.94511">
        <ele>1041.2</ele>
        <time>2024-06-30T09:41:49Z</time>
      </trkpt>
      <trkpt lat="42.81091" lon="1.94507">
        <ele>1041.2</ele>
        <time>2024-06-30T09:41:50Z</time>
      </trkpt>
      <trkpt lat="42.81088" lon="1.94504">
        <ele>1041.4</ele>
        <time>2024-06-30T09:41:51Z</time>
      </trkpt>
      <trkpt lat="42.81084" lon="1.94499">
        <ele>1041.6</ele>
        <time>2024-06-30T09:41:52Z</time>
      </trkpt>
      <trkpt lat="42.81082" lon="1.94496">
        <ele>1041.8</ele>
        <time>2024-06-30T09:41:53Z</time>
      </trkpt>
      <trkpt lat="42.81079" lon="1.94493">
        <ele>1042</ele>
        <time>2024-06-30T09:41:54Z</time>
      </trkpt>
      <trkpt lat="42.81075" lon="1.94489">
        <ele>1042</ele>
        <time>2024-06-30T09:41:55Z</time>
      </trkpt>
      <trkpt lat="42.81073" lon="1.94486">
        <ele>1042.2</ele>
        <time>2024-06-30T09:41:56Z</time>
      </trkpt>
      <trkpt lat="42.8107" lon="1.94482">
        <ele>1042.4</ele>
        <time>2024-06-30T09:41:57Z</time>
      </trkpt>
      <trkpt lat="42.81067" lon="1.94478">
        <ele>1042.6</ele>
        <time>2024-06-30T09:41:58Z</time>
      </trkpt>
      <trkpt lat="42.81064" lon="1.94475">
        <ele>1042.8</ele>
        <time>2024-06-30T09:41:59Z</time>
      </trkpt>
      <trkpt lat="42.81061" lon="1.94471">
        <ele>1043</ele>
        <time>2024-06-30T09:42:00Z</time>
      </trkpt>
      <trkpt lat="42.81058" lon="1.94467">
        <ele>1043</ele>
        <time>2024-06-30T09:42:01Z</time>
      </trkpt>
      <trkpt lat="42.81055" lon="1.94463">
        <ele>1043.2</ele>
        <time>2024-06-30T09:42:02Z</time>
      </trkpt>
      <trkpt lat="42.81052" lon="1.94459">
        <ele>1043.4</ele>
        <time>2024-06-30T09:42:03Z</time>
      </trkpt>
      <trkpt lat="42.81049" lon="1.94455">
        <ele>1043.6</ele>
        <time>2024-06-30T09:42:04Z</time>
      </trkpt>
      <trkpt lat="42.81047" lon="1.94451">
        <ele>1043.6</ele>
        <time>2024-06-30T09:42:05Z</time>
      </trkpt>
      <trkpt lat="42.81044" lon="1.94446">
        <ele>1043.8</ele>
        <time>2024-06-30T09:42:06Z</time>
      </trkpt>
      <trkpt lat="42.81042" lon="1.94442">
        <ele>1044</ele>
        <time>2024-06-30T09:42:07Z</time>
      </trkpt>
      <trkpt lat="42.81039" lon="1.94438">
        <ele>1044.6</ele>
        <time>2024-06-30T09:42:08Z</time>
      </trkpt>
      <trkpt lat="42.81036" lon="1.94434">
        <ele>1044.6</ele>
        <time>2024-06-30T09:42:09Z</time>
      </trkpt>
      <trkpt lat="42.81034" lon="1.9443">
        <ele>1045</ele>
        <time>2024-06-30T09:42:10Z</time>
      </trkpt>
      <trkpt lat="42.81031" lon="1.94426">
        <ele>1045</ele>
        <time>2024-06-30T09:42:11Z</time>
      </trkpt>
      <trkpt lat="42.81028" lon="1.9442">
        <ele>1045.2</ele>
        <time>2024-06-30T09:42:12Z</time>
      </trkpt>
      <trkpt lat="42.81027" lon="1.94417">
        <ele>1045.4</ele>
        <time>2024-06-30T09:42:13Z</time>
      </trkpt>
      <trkpt lat="42.81024" lon="1.94413">
        <ele>1045.4</ele>
        <time>2024-06-30T09:42:14Z</time>
      </trkpt>
      <trkpt lat="42.81022" lon="1.94408">
        <ele>1045.6</ele>
        <time>2024-06-30T09:42:15Z</time>
      </trkpt>
      <trkpt lat="42.8102" lon="1.94404">
        <ele>1045.6</ele>
        <time>2024-06-30T09:42:16Z</time>
      </trkpt>
      <trkpt lat="42.81018" lon="1.94399">
        <ele>1045.8</ele>
        <time>2024-06-30T09:42:17Z</time>
      </trkpt>
      <trkpt lat="42.81015" lon="1.94395">
        <ele>1046</ele>
        <time>2024-06-30T09:42:18Z</time>
      </trkpt>
      <trkpt lat="42.81013" lon="1.94391">
        <ele>1046.2</ele>
        <time>2024-06-30T09:42:19Z</time>
      </trkpt>
      <trkpt lat="42.81011" lon="1.94386">
        <ele>1046.2</ele>
        <time>2024-06-30T09:42:20Z</time>
      </trkpt>
      <trkpt lat="42.81009" lon="1.94382">
        <ele>1046.6</ele>
        <time>2024-06-30T09:42:21Z</time>
      </trkpt>
      <trkpt lat="42.81007" lon="1.94378">
        <ele>1046.8</ele>
        <time>2024-06-30T09:42:22Z</time>
      </trkpt>
      <trkpt lat="42.81005" lon="1.94373">
        <ele>1047</ele>
        <time>2024-06-30T09:42:23Z</time>
      </trkpt>
      <trkpt lat="42.81003" lon="1.94369">
        <ele>1047.2</ele>
        <time>2024-06-30T09:42:24Z</time>
      </trkpt>
      <trkpt lat="42.81" lon="1.94364">
        <ele>1047.2</ele>
        <time>2024-06-30T09:42:25Z</time>
      </trkpt>
      <trkpt lat="42.80998" lon="1.9436">
        <ele>1047.6</ele>
        <time>2024-06-30T09:42:26Z</time>
      </trkpt>
      <trkpt lat="42.80996" lon="1.94355">
        <ele>1047.6</ele>
        <time>2024-06-30T09:42:27Z</time>
      </trkpt>
      <trkpt lat="42.80994" lon="1.94351">
        <ele>1047.8</ele>
        <time>2024-06-30T09:42:28Z</time>
      </trkpt>
      <trkpt lat="42.80992" lon="1.94346">
        <ele>1048</ele>
        <time>2024-06-30T09:42:29Z</time>
      </trkpt>
      <trkpt lat="42.80989" lon="1.94343">
        <ele>1048</ele>
        <time>2024-06-30T09:42:30Z</time>
      </trkpt>
      <trkpt lat="42.80987" lon="1.94339">
        <ele>1048.2</ele>
        <time>2024-06-30T09:42:31Z</time>
      </trkpt>
      <trkpt lat="42.80985" lon="1.94337">
        <ele>1048.4</ele>
        <time>2024-06-30T09:42:32Z</time>
      </trkpt>
      <trkpt lat="42.80982" lon="1.94334">
        <ele>1048.4</ele>
        <time>2024-06-30T09:42:33Z</time>
      </trkpt>
      <trkpt lat="42.8098" lon="1.94331">
        <ele>1048.6</ele>
        <time>2024-06-30T09:42:34Z</time>
      </trkpt>
      <trkpt lat="42.80979" lon="1.94329">
        <ele>1049</ele>
        <time>2024-06-30T09:42:35Z</time>
      </trkpt>
      <trkpt lat="42.80976" lon="1.94328">
        <ele>1049</ele>
        <time>2024-06-30T09:42:36Z</time>
      </trkpt>
      <trkpt lat="42.80972" lon="1.94326">
        <ele>1049.4</ele>
        <time>2024-06-30T09:42:37Z</time>
      </trkpt>
      <trkpt lat="42.80968" lon="1.94324">
        <ele>1049.6</ele>
        <time>2024-06-30T09:42:38Z</time>
      </trkpt>
      <trkpt lat="42.80964" lon="1.94322">
        <ele>1049.8</ele>
        <time>2024-06-30T09:42:39Z</time>
      </trkpt>
      <trkpt lat="42.80961" lon="1.9432">
        <ele>1050.2</ele>
        <time>2024-06-30T09:42:40Z</time>
      </trkpt>
      <trkpt lat="42.80958" lon="1.94319">
        <ele>1050.2</ele>
        <time>2024-06-30T09:42:41Z</time>
      </trkpt>
      <trkpt lat="42.80955" lon="1.94318">
        <ele>1050.8</ele>
        <time>2024-06-30T09:42:42Z</time>
      </trkpt>
      <trkpt lat="42.80952" lon="1.94316">
        <ele>1051</ele>
        <time>2024-06-30T09:42:43Z</time>
      </trkpt>
      <trkpt lat="42.80948" lon="1.94314">
        <ele>1051.4</ele>
        <time>2024-06-30T09:42:44Z</time>
      </trkpt>
      <trkpt lat="42.80944" lon="1.94311">
        <ele>1051.8</ele>
        <time>2024-06-30T09:42:45Z</time>
      </trkpt>
      <trkpt lat="42.80941" lon="1.94309">
        <ele>1051.8</ele>
        <time>2024-06-30T09:42:46Z</time>
      </trkpt>
      <trkpt lat="42.80937" lon="1.94307">
        <ele>1052</ele>
        <time>2024-06-30T09:42:47Z</time>
      </trkpt>
      <trkpt lat="42.80933" lon="1.94305">
        <ele>1052.2</ele>
        <time>2024-06-30T09:42:48Z</time>
      </trkpt>
      <trkpt lat="42.8093" lon="1.94302">
        <ele>1052.2</ele>
        <time>2024-06-30T09:42:49Z</time>
      </trkpt>
      <trkpt lat="42.80925" lon="1.943">
        <ele>1052.4</ele>
        <time>2024-06-30T09:42:50Z</time>
      </trkpt>
      <trkpt lat="42.80922" lon="1.94297">
        <ele>1052.6</ele>
        <time>2024-06-30T09:42:51Z</time>
      </trkpt>
      <trkpt lat="42.80918" lon="1.94295">
        <ele>1052.8</ele>
        <time>2024-06-30T09:42:52Z</time>
      </trkpt>
      <trkpt lat="42.80915" lon="1.94293">
        <ele>1053</ele>
        <time>2024-06-30T09:42:53Z</time>
      </trkpt>
      <trkpt lat="42.80911" lon="1.9429">
        <ele>1053.2</ele>
        <time>2024-06-30T09:42:54Z</time>
      </trkpt>
      <trkpt lat="42.80907" lon="1.94288">
        <ele>1053.2</ele>
        <time>2024-06-30T09:42:55Z</time>
      </trkpt>
      <trkpt lat="42.80904" lon="1.94285">
        <ele>1053.4</ele>
        <time>2024-06-30T09:42:56Z</time>
      </trkpt>
      <trkpt lat="42.809" lon="1.94282">
        <ele>1053.4</ele>
        <time>2024-06-30T09:42:57Z</time>
      </trkpt>
      <trkpt lat="42.80896" lon="1.9428">
        <ele>1053.6</ele>
        <time>2024-06-30T09:42:58Z</time>
      </trkpt>
      <trkpt lat="42.80892" lon="1.94277">
        <ele>1053.6</ele>
        <time>2024-06-30T09:42:59Z</time>
      </trkpt>
      <trkpt lat="42.80889" lon="1.94274">
        <ele>1053.8</ele>
        <time>2024-06-30T09:43:00Z</time>
      </trkpt>
      <trkpt lat="42.80886" lon="1.94271">
        <ele>1054.2</ele>
        <time>2024-06-30T09:43:01Z</time>
      </trkpt>
      <trkpt lat="42.80882" lon="1.94268">
        <ele>1054.4</ele>
        <time>2024-06-30T09:43:02Z</time>
      </trkpt>
      <trkpt lat="42.80879" lon="1.94265">
        <ele>1054.8</ele>
        <time>2024-06-30T09:43:03Z</time>
      </trkpt>
      <trkpt lat="42.80875" lon="1.94263">
        <ele>1054.8</ele>
        <time>2024-06-30T09:43:04Z</time>
      </trkpt>
      <trkpt lat="42.80872" lon="1.94261">
        <ele>1055.2</ele>
        <time>2024-06-30T09:43:05Z</time>
      </trkpt>
      <trkpt lat="42.80869" lon="1.94258">
        <ele>1055.4</ele>
        <time>2024-06-30T09:43:06Z</time>
      </trkpt>
      <trkpt lat="42.80865" lon="1.94255">
        <ele>1055.6</ele>
        <time>2024-06-30T09:43:07Z</time>
      </trkpt>
      <trkpt lat="42.80861" lon="1.94252">
        <ele>1056</ele>
        <time>2024-06-30T09:43:08Z</time>
      </trkpt>
      <trkpt lat="42.80858" lon="1.9425">
        <ele>1056.2</ele>
        <time>2024-06-30T09:43:09Z</time>
      </trkpt>
      <trkpt lat="42.80855" lon="1.94247">
        <ele>1056.4</ele>
        <time>2024-06-30T09:43:10Z</time>
      </trkpt>
      <trkpt lat="42.80852" lon="1.94245">
        <ele>1056.6</ele>
        <time>2024-06-30T09:43:11Z</time>
      </trkpt>
      <trkpt lat="42.80849" lon="1.94242">
        <ele>1056.8</ele>
        <time>2024-06-30T09:43:12Z</time>
      </trkpt>
      <trkpt lat="42.80846" lon="1.94239">
        <ele>1057</ele>
        <time>2024-06-30T09:43:13Z</time>
      </trkpt>
      <trkpt lat="42.80844" lon="1.94237">
        <ele>1057</ele>
        <time>2024-06-30T09:43:14Z</time>
      </trkpt>
      <trkpt lat="42.80841" lon="1.94234">
        <ele>1057</ele>
        <time>2024-06-30T09:43:15Z</time>
      </trkpt>
      <trkpt lat="42.80839" lon="1.94232">
        <ele>1057.2</ele>
        <time>2024-06-30T09:43:16Z</time>
      </trkpt>
      <trkpt lat="42.80836" lon="1.9423">
        <ele>1057.4</ele>
        <time>2024-06-30T09:43:17Z</time>
      </trkpt>
      <trkpt lat="42.80833" lon="1.94227">
        <ele>1057.4</ele>
        <time>2024-06-30T09:43:18Z</time>
      </trkpt>
      <trkpt lat="42.80831" lon="1.94225">
        <ele>1057.6</ele>
        <time>2024-06-30T09:43:19Z</time>
      </trkpt>
      <trkpt lat="42.80829" lon="1.94223">
        <ele>1058</ele>
        <time>2024-06-30T09:43:20Z</time>
      </trkpt>
      <trkpt lat="42.80826" lon="1.94221">
        <ele>1058.2</ele>
        <time>2024-06-30T09:43:21Z</time>
      </trkpt>
      <trkpt lat="42.80824" lon="1.94218">
        <ele>1058.6</ele>
        <time>2024-06-30T09:43:22Z</time>
      </trkpt>
      <trkpt lat="42.80821" lon="1.94216">
        <ele>1059</ele>
        <time>2024-06-30T09:43:23Z</time>
      </trkpt>
      <trkpt lat="42.80818" lon="1.94213">
        <ele>1059.4</ele>
        <time>2024-06-30T09:43:24Z</time>
      </trkpt>
      <trkpt lat="42.80816" lon="1.94211">
        <ele>1059.4</ele>
        <time>2024-06-30T09:43:25Z</time>
      </trkpt>
      <trkpt lat="42.80813" lon="1.94209">
        <ele>1059.6</ele>
        <time>2024-06-30T09:43:26Z</time>
      </trkpt>
      <trkpt lat="42.8081" lon="1.94207">
        <ele>1059.6</ele>
        <time>2024-06-30T09:43:27Z</time>
      </trkpt>
      <trkpt lat="42.80807" lon="1.94205">
        <ele>1059.8</ele>
        <time>2024-06-30T09:43:28Z</time>
      </trkpt>
      <trkpt lat="42.80804" lon="1.94203">
        <ele>1060</ele>
        <time>2024-06-30T09:43:29Z</time>
      </trkpt>
      <trkpt lat="42.80802" lon="1.94201">
        <ele>1060.2</ele>
        <time>2024-06-30T09:43:30Z</time>
      </trkpt>
      <trkpt lat="42.80799" lon="1.942">
        <ele>1060.2</ele>
        <time>2024-06-30T09:43:31Z</time>
      </trkpt>
      <trkpt lat="42.80796" lon="1.94198">
        <ele>1060.2</ele>
        <time>2024-06-30T09:43:32Z</time>
      </trkpt>
      <trkpt lat="42.80792" lon="1.94196">
        <ele>1060.8</ele>
        <time>2024-06-30T09:43:33Z</time>
      </trkpt>
      <trkpt lat="42.80788" lon="1.94195">
        <ele>1061</ele>
        <time>2024-06-30T09:43:34Z</time>
      </trkpt>
      <trkpt lat="42.80785" lon="1.94193">
        <ele>1061.4</ele>
        <time>2024-06-30T09:43:35Z</time>
      </trkpt>
      <trkpt lat="42.80782" lon="1.94191">
        <ele>1061.6</ele>
        <time>2024-06-30T09:43:36Z</time>
      </trkpt>
      <trkpt lat="42.80779" lon="1.94188">
        <ele>1062</ele>
        <time>2024-06-30T09:43:37Z</time>
      </trkpt>
      <trkpt lat="42.80777" lon="1.94186">
        <ele>1062</ele>
        <time>2024-06-30T09:43:38Z</time>
      </trkpt>
      <trkpt lat="42.80774" lon="1.94183">
        <ele>1062.4</ele>
        <time>2024-06-30T09:43:39Z</time>
      </trkpt>
      <trkpt lat="42.80771" lon="1.94181">
        <ele>1062.6</ele>
        <time>2024-06-30T09:43:40Z</time>
      </trkpt>
      <trkpt lat="42.80769" lon="1.94178">
        <ele>1062.8</ele>
        <time>2024-06-30T09:43:41Z</time>
      </trkpt>
      <trkpt lat="42.80766" lon="1.94175">
        <ele>1063</ele>
        <time>2024-06-30T09:43:42Z</time>
      </trkpt>
      <trkpt lat="42.80764" lon="1.94173">
        <ele>1063.2</ele>
        <time>2024-06-30T09:43:43Z</time>
      </trkpt>
      <trkpt lat="42.80762" lon="1.9417">
        <ele>1063.4</ele>
        <time>2024-06-30T09:43:44Z</time>
      </trkpt>
      <trkpt lat="42.8076" lon="1.94167">
        <ele>1063.4</ele>
        <time>2024-06-30T09:43:45Z</time>
      </trkpt>
      <trkpt lat="42.80758" lon="1.94164">
        <ele>1063.8</ele>
        <time>2024-06-30T09:43:46Z</time>
      </trkpt>
      <trkpt lat="42.80755" lon="1.9416">
        <ele>1063.8</ele>
        <time>2024-06-30T09:43:47Z</time>
      </trkpt>
      <trkpt lat="42.80754" lon="1.94157">
        <ele>1064.2</ele>
        <time>2024-06-30T09:43:48Z</time>
      </trkpt>
      <trkpt lat="42.80751" lon="1.94153">
        <ele>1064.2</ele>
        <time>2024-06-30T09:43:49Z</time>
      </trkpt>
      <trkpt lat="42.80749" lon="1.9415">
        <ele>1064.4</ele>
        <time>2024-06-30T09:43:50Z</time>
      </trkpt>
      <trkpt lat="42.80747" lon="1.94147">
        <ele>1064.6</ele>
        <time>2024-06-30T09:43:51Z</time>
      </trkpt>
      <trkpt lat="42.80745" lon="1.94144">
        <ele>1064.8</ele>
        <time>2024-06-30T09:43:52Z</time>
      </trkpt>
      <trkpt lat="42.80742" lon="1.9414">
        <ele>1065</ele>
        <time>2024-06-30T09:43:53Z</time>
      </trkpt>
      <trkpt lat="42.8074" lon="1.94137">
        <ele>1065</ele>
        <time>2024-06-30T09:43:54Z</time>
      </trkpt>
      <trkpt lat="42.80738" lon="1.94134">
        <ele>1065.2</ele>
        <time>2024-06-30T09:43:55Z</time>
      </trkpt>
      <trkpt lat="42.80736" lon="1.9413">
        <ele>1065.4</ele>
        <time>2024-06-30T09:43:56Z</time>
      </trkpt>
      <trkpt lat="42.80734" lon="1.94127">
        <ele>1065.6</ele>
        <time>2024-06-30T09:43:57Z</time>
      </trkpt>
      <trkpt lat="42.80731" lon="1.94124">
        <ele>1066</ele>
        <time>2024-06-30T09:43:58Z</time>
      </trkpt>
      <trkpt lat="42.80733" lon="1.9412">
        <ele>1066.2</ele>
        <time>2024-06-30T09:43:59Z</time>
      </trkpt>
      <trkpt lat="42.8073" lon="1.94116">
        <ele>1066.6</ele>
        <time>2024-06-30T09:44:00Z</time>
      </trkpt>
      <trkpt lat="42.80727" lon="1.94112">
        <ele>1066.6</ele>
        <time>2024-06-30T09:44:01Z</time>
      </trkpt>
      <trkpt lat="42.80722" lon="1.94108">
        <ele>1066.6</ele>
        <time>2024-06-30T09:44:02Z</time>
      </trkpt>
      <trkpt lat="42.80718" lon="1.94104">
        <ele>1066.8</ele>
        <time>2024-06-30T09:44:03Z</time>
      </trkpt>
      <trkpt lat="42.80716" lon="1.94101">
        <ele>1067</ele>
        <time>2024-06-30T09:44:04Z</time>
      </trkpt>
      <trkpt lat="42.80714" lon="1.94097">
        <ele>1067.4</ele>
        <time>2024-06-30T09:44:05Z</time>
      </trkpt>
      <trkpt lat="42.80712" lon="1.94094">
        <ele>1067.6</ele>
        <time>2024-06-30T09:44:06Z</time>
      </trkpt>
      <trkpt lat="42.8071" lon="1.9409">
        <ele>1067.8</ele>
        <time>2024-06-30T09:44:07Z</time>
      </trkpt>
      <trkpt lat="42.80709" lon="1.94087">
        <ele>1067.8</ele>
        <time>2024-06-30T09:44:08Z</time>
      </trkpt>
      <trkpt lat="42.80707" lon="1.94083">
        <ele>1068</ele>
        <time>2024-06-30T09:44:09Z</time>
      </trkpt>
      <trkpt lat="42.80704" lon="1.9408">
        <ele>1068</ele>
        <time>2024-06-30T09:44:10Z</time>
      </trkpt>
      <trkpt lat="42.80702" lon="1.94076">
        <ele>1068.4</ele>
        <time>2024-06-30T09:44:11Z</time>
      </trkpt>
      <trkpt lat="42.80701" lon="1.94072">
        <ele>1068.6</ele>
        <time>2024-06-30T09:44:12Z</time>
      </trkpt>
      <trkpt lat="42.80699" lon="1.94069">
        <ele>1068.8</ele>
        <time>2024-06-30T09:44:13Z</time>
      </trkpt>
      <trkpt lat="42.80697" lon="1.94065">
        <ele>1069.2</ele>
        <time>2024-06-30T09:44:14Z</time>
      </trkpt>
      <trkpt lat="42.80696" lon="1.94062">
        <ele>1069.4</ele>
        <time>2024-06-30T09:44:15Z</time>
      </trkpt>
      <trkpt lat="42.80694" lon="1.94058">
        <ele>1069.8</ele>
        <time>2024-06-30T09:44:16Z</time>
      </trkpt>
      <trkpt lat="42.80692" lon="1.94054">
        <ele>1069.8</ele>
        <time>2024-06-30T09:44:17Z</time>
      </trkpt>
      <trkpt lat="42.8069" lon="1.9405">
        <ele>1070</ele>
        <time>2024-06-30T09:44:18Z</time>
      </trkpt>
      <trkpt lat="42.80689" lon="1.94046">
        <ele>1070.2</ele>
        <time>2024-06-30T09:44:19Z</time>
      </trkpt>
      <trkpt lat="42.80687" lon="1.94042">
        <ele>1070.2</ele>
        <time>2024-06-30T09:44:20Z</time>
      </trkpt>
      <trkpt lat="42.80685" lon="1.94038">
        <ele>1070.4</ele>
        <time>2024-06-30T09:44:21Z</time>
      </trkpt>
      <trkpt lat="42.80682" lon="1.94034">
        <ele>1070.2</ele>
        <time>2024-06-30T09:44:22Z</time>
      </trkpt>
      <trkpt lat="42.8068" lon="1.94031">
        <ele>1070.4</ele>
        <time>2024-06-30T09:44:23Z</time>
      </trkpt>
      <trkpt lat="42.80677" lon="1.94028">
        <ele>1070.4</ele>
        <time>2024-06-30T09:44:24Z</time>
      </trkpt>
      <trkpt lat="42.80675" lon="1.94024">
        <ele>1070.6</ele>
        <time>2024-06-30T09:44:25Z</time>
      </trkpt>
      <trkpt lat="42.80673" lon="1.9402">
        <ele>1070.8</ele>
        <time>2024-06-30T09:44:26Z</time>
      </trkpt>
      <trkpt lat="42.8067" lon="1.94017">
        <ele>1071.2</ele>
        <time>2024-06-30T09:44:27Z</time>
      </trkpt>
      <trkpt lat="42.80667" lon="1.94014">
        <ele>1071.4</ele>
        <time>2024-06-30T09:44:28Z</time>
      </trkpt>
      <trkpt lat="42.80664" lon="1.94011">
        <ele>1071.6</ele>
        <time>2024-06-30T09:44:29Z</time>
      </trkpt>
      <trkpt lat="42.80661" lon="1.94008">
        <ele>1071.8</ele>
        <time>2024-06-30T09:44:30Z</time>
      </trkpt>
      <trkpt lat="42.80658" lon="1.94005">
        <ele>1071.8</ele>
        <time>2024-06-30T09:44:31Z</time>
      </trkpt>
      <trkpt lat="42.80655" lon="1.94002">
        <ele>1072.2</ele>
        <time>2024-06-30T09:44:32Z</time>
      </trkpt>
      <trkpt lat="42.80652" lon="1.93999">
        <ele>1072.2</ele>
        <time>2024-06-30T09:44:33Z</time>
      </trkpt>
      <trkpt lat="42.80648" lon="1.93996">
        <ele>1072.6</ele>
        <time>2024-06-30T09:44:34Z</time>
      </trkpt>
      <trkpt lat="42.80645" lon="1.93993">
        <ele>1072.8</ele>
        <time>2024-06-30T09:44:35Z</time>
      </trkpt>
      <trkpt lat="42.80641" lon="1.9399">
        <ele>1073</ele>
        <time>2024-06-30T09:44:36Z</time>
      </trkpt>
      <trkpt lat="42.80638" lon="1.93987">
        <ele>1073.2</ele>
        <time>2024-06-30T09:44:37Z</time>
      </trkpt>
      <trkpt lat="42.80636" lon="1.93984">
        <ele>1073.4</ele>
        <time>2024-06-30T09:44:38Z</time>
      </trkpt>
      <trkpt lat="42.80632" lon="1.93981">
        <ele>1073.6</ele>
        <time>2024-06-30T09:44:39Z</time>
      </trkpt>
      <trkpt lat="42.80629" lon="1.93978">
        <ele>1073.6</ele>
        <time>2024-06-30T09:44:40Z</time>
      </trkpt>
      <trkpt lat="42.80626" lon="1.93975">
        <ele>1073.8</ele>
        <time>2024-06-30T09:44:41Z</time>
      </trkpt>
      <trkpt lat="42.80622" lon="1.93972">
        <ele>1074</ele>
        <time>2024-06-30T09:44:42Z</time>
      </trkpt>
      <trkpt lat="42.8062" lon="1.93969">
        <ele>1074.4</ele>
        <time>2024-06-30T09:44:43Z</time>
      </trkpt>
      <trkpt lat="42.80618" lon="1.93965">
        <ele>1074.8</ele>
        <time>2024-06-30T09:44:44Z</time>
      </trkpt>
      <trkpt lat="42.80615" lon="1.93962">
        <ele>1075</ele>
        <time>2024-06-30T09:44:45Z</time>
      </trkpt>
      <trkpt lat="42.80613" lon="1.93958">
        <ele>1075.2</ele>
        <time>2024-06-30T09:44:46Z</time>
      </trkpt>
      <trkpt lat="42.80611" lon="1.93955">
        <ele>1075.2</ele>
        <time>2024-06-30T09:44:47Z</time>
      </trkpt>
      <trkpt lat="42.80608" lon="1.93951">
        <ele>1075.4</ele>
        <time>2024-06-30T09:44:48Z</time>
      </trkpt>
      <trkpt lat="42.80606" lon="1.93947">
        <ele>1075.6</ele>
        <time>2024-06-30T09:44:49Z</time>
      </trkpt>
      <trkpt lat="42.80604" lon="1.93943">
        <ele>1075.6</ele>
        <time>2024-06-30T09:44:50Z</time>
      </trkpt>
      <trkpt lat="42.80602" lon="1.9394">
        <ele>1076</ele>
        <time>2024-06-30T09:44:51Z</time>
      </trkpt>
      <trkpt lat="42.80599" lon="1.93936">
        <ele>1076.2</ele>
        <time>2024-06-30T09:44:52Z</time>
      </trkpt>
      <trkpt lat="42.80597" lon="1.93932">
        <ele>1076.4</ele>
        <time>2024-06-30T09:44:53Z</time>
      </trkpt>
      <trkpt lat="42.80595" lon="1.93928">
        <ele>1076.6</ele>
        <time>2024-06-30T09:44:54Z</time>
      </trkpt>
      <trkpt lat="42.80593" lon="1.93924">
        <ele>1077</ele>
        <time>2024-06-30T09:44:55Z</time>
      </trkpt>
      <trkpt lat="42.80591" lon="1.9392">
        <ele>1077</ele>
        <time>2024-06-30T09:44:56Z</time>
      </trkpt>
      <trkpt lat="42.80589" lon="1.93916">
        <ele>1077</ele>
        <time>2024-06-30T09:44:57Z</time>
      </trkpt>
      <trkpt lat="42.80588" lon="1.93912">
        <ele>1077.4</ele>
        <time>2024-06-30T09:44:58Z</time>
      </trkpt>
      <trkpt lat="42.80586" lon="1.93908">
        <ele>1077.6</ele>
        <time>2024-06-30T09:44:59Z</time>
      </trkpt>
      <trkpt lat="42.80584" lon="1.93903">
        <ele>1077.4</ele>
        <time>2024-06-30T09:45:00Z</time>
      </trkpt>
      <trkpt lat="42.80582" lon="1.93899">
        <ele>1077.8</ele>
        <time>2024-06-30T09:45:01Z</time>
      </trkpt>
      <trkpt lat="42.80581" lon="1.93895">
        <ele>1077.8</ele>
        <time>2024-06-30T09:45:02Z</time>
      </trkpt>
      <trkpt lat="42.8058" lon="1.93891">
        <ele>1077.8</ele>
        <time>2024-06-30T09:45:03Z</time>
      </trkpt>
      <trkpt lat="42.8058" lon="1.93887">
        <ele>1078</ele>
        <time>2024-06-30T09:45:04Z</time>
      </trkpt>
      <trkpt lat="42.80579" lon="1.93883">
        <ele>1078.2</ele>
        <time>2024-06-30T09:45:05Z</time>
      </trkpt>
      <trkpt lat="42.80579" lon="1.93879">
        <ele>1078.8</ele>
        <time>2024-06-30T09:45:06Z</time>
      </trkpt>
      <trkpt lat="42.80578" lon="1.93875">
        <ele>1079</ele>
        <time>2024-06-30T09:45:07Z</time>
      </trkpt>
      <trkpt lat="42.80578" lon="1.9387">
        <ele>1079</ele>
        <time>2024-06-30T09:45:08Z</time>
      </trkpt>
      <trkpt lat="42.80578" lon="1.93866">
        <ele>1079.2</ele>
        <time>2024-06-30T09:45:09Z</time>
      </trkpt>
      <trkpt lat="42.80578" lon="1.93862">
        <ele>1079.4</ele>
        <time>2024-06-30T09:45:10Z</time>
      </trkpt>
      <trkpt lat="42.80577" lon="1.93857">
        <ele>1080</ele>
        <time>2024-06-30T09:45:11Z</time>
      </trkpt>
      <trkpt lat="42.80577" lon="1.93853">
        <ele>1080.2</ele>
        <time>2024-06-30T09:45:12Z</time>
      </trkpt>
      <trkpt lat="42.80577" lon="1.93849">
        <ele>1080.4</ele>
        <time>2024-06-30T09:45:13Z</time>
      </trkpt>
      <trkpt lat="42.80576" lon="1.93845">
        <ele>1080.6</ele>
        <time>2024-06-30T09:45:14Z</time>
      </trkpt>
      <trkpt lat="42.80576" lon="1.93841">
        <ele>1080.6</ele>
        <time>2024-06-30T09:45:15Z</time>
      </trkpt>
      <trkpt lat="42.80575" lon="1.93837">
        <ele>1081</ele>
        <time>2024-06-30T09:45:16Z</time>
      </trkpt>
      <trkpt lat="42.80574" lon="1.93834">
        <ele>1081.4</ele>
        <time>2024-06-30T09:45:17Z</time>
      </trkpt>
      <trkpt lat="42.80572" lon="1.93831">
        <ele>1081.8</ele>
        <time>2024-06-30T09:45:18Z</time>
      </trkpt>
      <trkpt lat="42.80572" lon="1.93829">
        <ele>1082</ele>
        <time>2024-06-30T09:45:19Z</time>
      </trkpt>
      <trkpt lat="42.80572" lon="1.93826">
        <ele>1082</ele>
        <time>2024-06-30T09:45:20Z</time>
      </trkpt>
      <trkpt lat="42.80573" lon="1.93823">
        <ele>1082.2</ele>
        <time>2024-06-30T09:45:21Z</time>
      </trkpt>
      <trkpt lat="42.80572" lon="1.93818">
        <ele>1082.6</ele>
        <time>2024-06-30T09:45:22Z</time>
      </trkpt>
      <trkpt lat="42.80572" lon="1.93814">
        <ele>1082.8</ele>
        <time>2024-06-30T09:45:23Z</time>
      </trkpt>
      <trkpt lat="42.80572" lon="1.93811">
        <ele>1083</ele>
        <time>2024-06-30T09:45:24Z</time>
      </trkpt>
      <trkpt lat="42.80571" lon="1.93807">
        <ele>1083.2</ele>
        <time>2024-06-30T09:45:25Z</time>
      </trkpt>
      <trkpt lat="42.80571" lon="1.93803">
        <ele>1083.4</ele>
        <time>2024-06-30T09:45:26Z</time>
      </trkpt>
      <trkpt lat="42.8057" lon="1.93799">
        <ele>1083.8</ele>
        <time>2024-06-30T09:45:27Z</time>
      </trkpt>
      <trkpt lat="42.8057" lon="1.93795">
        <ele>1083.8</ele>
        <time>2024-06-30T09:45:28Z</time>
      </trkpt>
      <trkpt lat="42.8057" lon="1.93792">
        <ele>1084</ele>
        <time>2024-06-30T09:45:29Z</time>
      </trkpt>
      <trkpt lat="42.80569" lon="1.93788">
        <ele>1084.2</ele>
        <time>2024-06-30T09:45:30Z</time>
      </trkpt>
      <trkpt lat="42.80569" lon="1.93785">
        <ele>1084.6</ele>
        <time>2024-06-30T09:45:31Z</time>
      </trkpt>
      <trkpt lat="42.80567" lon="1.93781">
        <ele>1084.6</ele>
        <time>2024-06-30T09:45:32Z</time>
      </trkpt>
      <trkpt lat="42.80566" lon="1.93777">
        <ele>1084.8</ele>
        <time>2024-06-30T09:45:33Z</time>
      </trkpt>
      <trkpt lat="42.80565" lon="1.93773">
        <ele>1085.2</ele>
        <time>2024-06-30T09:45:34Z</time>
      </trkpt>
      <trkpt lat="42.80564" lon="1.9377">
        <ele>1085.4</ele>
        <time>2024-06-30T09:45:35Z</time>
      </trkpt>
      <trkpt lat="42.80564" lon="1.93766">
        <ele>1086</ele>
        <time>2024-06-30T09:45:36Z</time>
      </trkpt>
      <trkpt lat="42.80563" lon="1.93763">
        <ele>1086.2</ele>
        <time>2024-06-30T09:45:37Z</time>
      </trkpt>
      <trkpt lat="42.80562" lon="1.9376">
        <ele>1086.4</ele>
        <time>2024-06-30T09:45:38Z</time>
      </trkpt>
      <trkpt lat="42.8056" lon="1.93757">
        <ele>1086.6</ele>
        <time>2024-06-30T09:45:39Z</time>
      </trkpt>
      <trkpt lat="42.80557" lon="1.93754">
        <ele>1086.8</ele>
        <time>2024-06-30T09:45:40Z</time>
      </trkpt>
      <trkpt lat="42.80555" lon="1.93751">
        <ele>1086.8</ele>
        <time>2024-06-30T09:45:41Z</time>
      </trkpt>
      <trkpt lat="42.80553" lon="1.93748">
        <ele>1087</ele>
        <time>2024-06-30T09:45:42Z</time>
      </trkpt>
      <trkpt lat="42.80552" lon="1.93745">
        <ele>1087.4</ele>
        <time>2024-06-30T09:45:43Z</time>
      </trkpt>
      <trkpt lat="42.80552" lon="1.93742">
        <ele>1087.6</ele>
        <time>2024-06-30T09:45:44Z</time>
      </trkpt>
      <trkpt lat="42.80551" lon="1.93739">
        <ele>1088.2</ele>
        <time>2024-06-30T09:45:45Z</time>
      </trkpt>
      <trkpt lat="42.8055" lon="1.93737">
        <ele>1088.4</ele>
        <time>2024-06-30T09:45:46Z</time>
      </trkpt>
      <trkpt lat="42.8055" lon="1.93734">
        <ele>1088.6</ele>
        <time>2024-06-30T09:45:47Z</time>
      </trkpt>
      <trkpt lat="42.80549" lon="1.93731">
        <ele>1088.8</ele>
        <time>2024-06-30T09:45:48Z</time>
      </trkpt>
      <trkpt lat="42.80547" lon="1.93729">
        <ele>1089.2</ele>
        <time>2024-06-30T09:45:49Z</time>
      </trkpt>
      <trkpt lat="42.80545" lon="1.93726">
        <ele>1089.8</ele>
        <time>2024-06-30T09:45:50Z</time>
      </trkpt>
      <trkpt lat="42.80543" lon="1.93723">
        <ele>1090</ele>
        <time>2024-06-30T09:45:51Z</time>
      </trkpt>
      <trkpt lat="42.80541" lon="1.93721">
        <ele>1090.4</ele>
        <time>2024-06-30T09:45:52Z</time>
      </trkpt>
      <trkpt lat="42.8054" lon="1.93718">
        <ele>1090.6</ele>
        <time>2024-06-30T09:45:53Z</time>
      </trkpt>
      <trkpt lat="42.80538" lon="1.93715">
        <ele>1090.8</ele>
        <time>2024-06-30T09:45:54Z</time>
      </trkpt>
      <trkpt lat="42.80537" lon="1.93713">
        <ele>1091</ele>
        <time>2024-06-30T09:45:55Z</time>
      </trkpt>
      <trkpt lat="42.80537" lon="1.9371">
        <ele>1091.2</ele>
        <time>2024-06-30T09:45:56Z</time>
      </trkpt>
      <trkpt lat="42.80536" lon="1.93708">
        <ele>1091.6</ele>
        <time>2024-06-30T09:45:57Z</time>
      </trkpt>
      <trkpt lat="42.80536" lon="1.93705">
        <ele>1092</ele>
        <time>2024-06-30T09:45:58Z</time>
      </trkpt>
      <trkpt lat="42.80535" lon="1.93702">
        <ele>1092.6</ele>
        <time>2024-06-30T09:45:59Z</time>
      </trkpt>
      <trkpt lat="42.80535" lon="1.93699">
        <ele>1093</ele>
        <time>2024-06-30T09:46:00Z</time>
      </trkpt>
      <trkpt lat="42.80533" lon="1.93696">
        <ele>1093.4</ele>
        <time>2024-06-30T09:46:01Z</time>
      </trkpt>
      <trkpt lat="42.80531" lon="1.93693">
        <ele>1093.6</ele>
        <time>2024-06-30T09:46:02Z</time>
      </trkpt>
      <trkpt lat="42.80529" lon="1.93689">
        <ele>1094.2</ele>
        <time>2024-06-30T09:46:03Z</time>
      </trkpt>
      <trkpt lat="42.80529" lon="1.93686">
        <ele>1094.6</ele>
        <time>2024-06-30T09:46:04Z</time>
      </trkpt>
      <trkpt lat="42.80527" lon="1.93682">
        <ele>1094.8</ele>
        <time>2024-06-30T09:46:05Z</time>
      </trkpt>
      <trkpt lat="42.80527" lon="1.93678">
        <ele>1095.4</ele>
        <time>2024-06-30T09:46:06Z</time>
      </trkpt>
      <trkpt lat="42.80526" lon="1.93675">
        <ele>1095.8</ele>
        <time>2024-06-30T09:46:07Z</time>
      </trkpt>
      <trkpt lat="42.80525" lon="1.93673">
        <ele>1096.2</ele>
        <time>2024-06-30T09:46:08Z</time>
      </trkpt>
      <trkpt lat="42.80524" lon="1.9367">
        <ele>1096.2</ele>
        <time>2024-06-30T09:46:09Z</time>
      </trkpt>
      <trkpt lat="42.80521" lon="1.93666">
        <ele>1097</ele>
        <time>2024-06-30T09:46:10Z</time>
      </trkpt>
      <trkpt lat="42.80516" lon="1.93662">
        <ele>1097.6</ele>
        <time>2024-06-30T09:46:11Z</time>
      </trkpt>
      <trkpt lat="42.80514" lon="1.9366">
        <ele>1098</ele>
        <time>2024-06-30T09:46:12Z</time>
      </trkpt>
      <trkpt lat="42.80512" lon="1.93655">
        <ele>1098.6</ele>
        <time>2024-06-30T09:46:13Z</time>
      </trkpt>
      <trkpt lat="42.80511" lon="1.93652">
        <ele>1098.6</ele>
        <time>2024-06-30T09:46:14Z</time>
      </trkpt>
      <trkpt lat="42.8051" lon="1.93648">
        <ele>1099.4</ele>
        <time>2024-06-30T09:46:15Z</time>
      </trkpt>
      <trkpt lat="42.80509" lon="1.93643">
        <ele>1099.6</ele>
        <time>2024-06-30T09:46:16Z</time>
      </trkpt>
      <trkpt lat="42.80509" lon="1.93639">
        <ele>1099.8</ele>
        <time>2024-06-30T09:46:17Z</time>
      </trkpt>
      <trkpt lat="42.80507" lon="1.93636">
        <ele>1100</ele>
        <time>2024-06-30T09:46:18Z</time>
      </trkpt>
      <trkpt lat="42.80507" lon="1.93632">
        <ele>1100.2</ele>
        <time>2024-06-30T09:46:19Z</time>
      </trkpt>
      <trkpt lat="42.80505" lon="1.93629">
        <ele>1100</ele>
        <time>2024-06-30T09:46:20Z</time>
      </trkpt>
      <trkpt lat="42.80504" lon="1.93625">
        <ele>1100</ele>
        <time>2024-06-30T09:46:21Z</time>
      </trkpt>
      <trkpt lat="42.80503" lon="1.93621">
        <ele>1100.2</ele>
        <time>2024-06-30T09:46:22Z</time>
      </trkpt>
      <trkpt lat="42.80503" lon="1.93618">
        <ele>1100.4</ele>
        <time>2024-06-30T09:46:23Z</time>
      </trkpt>
      <trkpt lat="42.80502" lon="1.93615">
        <ele>1100.8</ele>
        <time>2024-06-30T09:46:24Z</time>
      </trkpt>
      <trkpt lat="42.80502" lon="1.93613">
        <ele>1101</ele>
        <time>2024-06-30T09:46:25Z</time>
      </trkpt>
      <trkpt lat="42.80502" lon="1.93609">
        <ele>1101.4</ele>
        <time>2024-06-30T09:46:26Z</time>
      </trkpt>
      <trkpt lat="42.805" lon="1.93606">
        <ele>1102</ele>
        <time>2024-06-30T09:46:27Z</time>
      </trkpt>
      <trkpt lat="42.80499" lon="1.93603">
        <ele>1102.2</ele>
        <time>2024-06-30T09:46:28Z</time>
      </trkpt>
      <trkpt lat="42.80499" lon="1.936">
        <ele>1102.6</ele>
        <time>2024-06-30T09:46:29Z</time>
      </trkpt>
      <trkpt lat="42.80499" lon="1.93597">
        <ele>1102.8</ele>
        <time>2024-06-30T09:46:30Z</time>
      </trkpt>
      <trkpt lat="42.80499" lon="1.93593">
        <ele>1103.2</ele>
        <time>2024-06-30T09:46:31Z</time>
      </trkpt>
      <trkpt lat="42.80498" lon="1.93587">
        <ele>1103.2</ele>
        <time>2024-06-30T09:46:32Z</time>
      </trkpt>
      <trkpt lat="42.80498" lon="1.93584">
        <ele>1103.8</ele>
        <time>2024-06-30T09:46:33Z</time>
      </trkpt>
      <trkpt lat="42.80497" lon="1.93581">
        <ele>1103.8</ele>
        <time>2024-06-30T09:46:34Z</time>
      </trkpt>
      <trkpt lat="42.80496" lon="1.93579">
        <ele>1104</ele>
        <time>2024-06-30T09:46:35Z</time>
      </trkpt>
      <trkpt lat="42.80496" lon="1.93576">
        <ele>1104.2</ele>
        <time>2024-06-30T09:46:36Z</time>
      </trkpt>
      <trkpt lat="42.80495" lon="1.93572">
        <ele>1104.4</ele>
        <time>2024-06-30T09:46:37Z</time>
      </trkpt>
      <trkpt lat="42.80495" lon="1.93568">
        <ele>1104.6</ele>
        <time>2024-06-30T09:46:38Z</time>
      </trkpt>
      <trkpt lat="42.80496" lon="1.93563">
        <ele>1104.6</ele>
        <time>2024-06-30T09:46:39Z</time>
      </trkpt>
      <trkpt lat="42.80496" lon="1.93558">
        <ele>1104.8</ele>
        <time>2024-06-30T09:46:40Z</time>
      </trkpt>
      <trkpt lat="42.80498" lon="1.93554">
        <ele>1105</ele>
        <time>2024-06-30T09:46:41Z</time>
      </trkpt>
      <trkpt lat="42.805" lon="1.9355">
        <ele>1105</ele>
        <time>2024-06-30T09:46:42Z</time>
      </trkpt>
      <trkpt lat="42.80501" lon="1.93546">
        <ele>1105.4</ele>
        <time>2024-06-30T09:46:43Z</time>
      </trkpt>
      <trkpt lat="42.80502" lon="1.93542">
        <ele>1105.6</ele>
        <time>2024-06-30T09:46:44Z</time>
      </trkpt>
      <trkpt lat="42.80504" lon="1.93538">
        <ele>1105.8</ele>
        <time>2024-06-30T09:46:45Z</time>
      </trkpt>
      <trkpt lat="42.80505" lon="1.93534">
        <ele>1106</ele>
        <time>2024-06-30T09:46:46Z</time>
      </trkpt>
      <trkpt lat="42.80504" lon="1.93532">
        <ele>1106.2</ele>
        <time>2024-06-30T09:46:47Z</time>
      </trkpt>
      <trkpt lat="42.80505" lon="1.93528">
        <ele>1106.2</ele>
        <time>2024-06-30T09:46:48Z</time>
      </trkpt>
      <trkpt lat="42.80504" lon="1.93523">
        <ele>1106.2</ele>
        <time>2024-06-30T09:46:49Z</time>
      </trkpt>
      <trkpt lat="42.80504" lon="1.9352">
        <ele>1106.4</ele>
        <time>2024-06-30T09:46:50Z</time>
      </trkpt>
      <trkpt lat="42.80504" lon="1.93516">
        <ele>1106.4</ele>
        <time>2024-06-30T09:46:51Z</time>
      </trkpt>
      <trkpt lat="42.80502" lon="1.93511">
        <ele>1106.6</ele>
        <time>2024-06-30T09:46:52Z</time>
      </trkpt>
      <trkpt lat="42.80507" lon="1.93504">
        <ele>1106.6</ele>
        <time>2024-06-30T09:46:53Z</time>
      </trkpt>
      <trkpt lat="42.80509" lon="1.93501">
        <ele>1106.8</ele>
        <time>2024-06-30T09:46:54Z</time>
      </trkpt>
      <trkpt lat="42.80509" lon="1.93497">
        <ele>1107</ele>
        <time>2024-06-30T09:46:55Z</time>
      </trkpt>
      <trkpt lat="42.80509" lon="1.93492">
        <ele>1107.2</ele>
        <time>2024-06-30T09:46:56Z</time>
      </trkpt>
      <trkpt lat="42.80507" lon="1.93487">
        <ele>1107.2</ele>
        <time>2024-06-30T09:46:57Z</time>
      </trkpt>
      <trkpt lat="42.805" lon="1.93483">
        <ele>1107.4</ele>
        <time>2024-06-30T09:46:58Z</time>
      </trkpt>
      <trkpt lat="42.80498" lon="1.9348">
        <ele>1107.8</ele>
        <time>2024-06-30T09:46:59Z</time>
      </trkpt>
      <trkpt lat="42.80495" lon="1.93475">
        <ele>1107.8</ele>
        <time>2024-06-30T09:47:00Z</time>
      </trkpt>
      <trkpt lat="42.80495" lon="1.93471">
        <ele>1108</ele>
        <time>2024-06-30T09:47:01Z</time>
      </trkpt>
      <trkpt lat="42.80494" lon="1.93467">
        <ele>1108.2</ele>
        <time>2024-06-30T09:47:02Z</time>
      </trkpt>
      <trkpt lat="42.80495" lon="1.93463">
        <ele>1108.4</ele>
        <time>2024-06-30T09:47:03Z</time>
      </trkpt>
      <trkpt lat="42.80495" lon="1.93459">
        <ele>1108.6</ele>
        <time>2024-06-30T09:47:04Z</time>
      </trkpt>
      <trkpt lat="42.80495" lon="1.93455">
        <ele>1108.8</ele>
        <time>2024-06-30T09:47:05Z</time>
      </trkpt>
      <trkpt lat="42.80495" lon="1.93451">
        <ele>1108.8</ele>
        <time>2024-06-30T09:47:06Z</time>
      </trkpt>
      <trkpt lat="42.80494" lon="1.93447">
        <ele>1109.2</ele>
        <time>2024-06-30T09:47:07Z</time>
      </trkpt>
      <trkpt lat="42.80494" lon="1.93443">
        <ele>1109.6</ele>
        <time>2024-06-30T09:47:08Z</time>
      </trkpt>
      <trkpt lat="42.80494" lon="1.93439">
        <ele>1109.8</ele>
        <time>2024-06-30T09:47:09Z</time>
      </trkpt>
      <trkpt lat="42.80495" lon="1.93434">
        <ele>1109.8</ele>
        <time>2024-06-30T09:47:10Z</time>
      </trkpt>
      <trkpt lat="42.80495" lon="1.9343">
        <ele>1110</ele>
        <time>2024-06-30T09:47:11Z</time>
      </trkpt>
      <trkpt lat="42.80495" lon="1.93426">
        <ele>1110.2</ele>
        <time>2024-06-30T09:47:12Z</time>
      </trkpt>
      <trkpt lat="42.80494" lon="1.93422">
        <ele>1110.2</ele>
        <time>2024-06-30T09:47:13Z</time>
      </trkpt>
      <trkpt lat="42.80493" lon="1.93419">
        <ele>1110.4</ele>
        <time>2024-06-30T09:47:14Z</time>
      </trkpt>
      <trkpt lat="42.80493" lon="1.93415">
        <ele>1110.6</ele>
        <time>2024-06-30T09:47:15Z</time>
      </trkpt>
      <trkpt lat="42.80491" lon="1.93411">
        <ele>1110.6</ele>
        <time>2024-06-30T09:47:16Z</time>
      </trkpt>
      <trkpt lat="42.80488" lon="1.93409">
        <ele>1110.8</ele>
        <time>2024-06-30T09:47:17Z</time>
      </trkpt>
      <trkpt lat="42.80485" lon="1.93407">
        <ele>1111</ele>
        <time>2024-06-30T09:47:18Z</time>
      </trkpt>
      <trkpt lat="42.80485" lon="1.93403">
        <ele>1111.2</ele>
        <time>2024-06-30T09:47:19Z</time>
      </trkpt>
      <trkpt lat="42.80485" lon="1.934">
        <ele>1111.4</ele>
        <time>2024-06-30T09:47:20Z</time>
      </trkpt>
      <trkpt lat="42.80484" lon="1.93396">
        <ele>1111.4</ele>
        <time>2024-06-30T09:47:21Z</time>
      </trkpt>
      <trkpt lat="42.80484" lon="1.93393">
        <ele>1111.6</ele>
        <time>2024-06-30T09:47:22Z</time>
      </trkpt>
      <trkpt lat="42.80483" lon="1.9339">
        <ele>1111.8</ele>
        <time>2024-06-30T09:47:23Z</time>
      </trkpt>
      <trkpt lat="42.80482" lon="1.93387">
        <ele>1112.2</ele>
        <time>2024-06-30T09:47:24Z</time>
      </trkpt>
      <trkpt lat="42.80481" lon="1.93383">
        <ele>1112.4</ele>
        <time>2024-06-30T09:47:25Z</time>
      </trkpt>
      <trkpt lat="42.80479" lon="1.93378">
        <ele>1112.6</ele>
        <time>2024-06-30T09:47:26Z</time>
      </trkpt>
      <trkpt lat="42.80478" lon="1.93374">
        <ele>1112.6</ele>
        <time>2024-06-30T09:47:27Z</time>
      </trkpt>
      <trkpt lat="42.80476" lon="1.93372">
        <ele>1113.2</ele>
        <time>2024-06-30T09:47:28Z</time>
      </trkpt>
      <trkpt lat="42.80476" lon="1.93368">
        <ele>1113.4</ele>
        <time>2024-06-30T09:47:29Z</time>
      </trkpt>
      <trkpt lat="42.80475" lon="1.93364">
        <ele>1113.6</ele>
        <time>2024-06-30T09:47:30Z</time>
      </trkpt>
      <trkpt lat="42.80475" lon="1.93361">
        <ele>1113.8</ele>
        <time>2024-06-30T09:47:31Z</time>
      </trkpt>
      <trkpt lat="42.80475" lon="1.93358">
        <ele>1114</ele>
        <time>2024-06-30T09:47:32Z</time>
      </trkpt>
      <trkpt lat="42.80475" lon="1.93355">
        <ele>1114.2</ele>
        <time>2024-06-30T09:47:33Z</time>
      </trkpt>
      <trkpt lat="42.80474" lon="1.93352">
        <ele>1114.6</ele>
        <time>2024-06-30T09:47:34Z</time>
      </trkpt>
      <trkpt lat="42.8047" lon="1.93349">
        <ele>1115.4</ele>
        <time>2024-06-30T09:47:35Z</time>
      </trkpt>
      <trkpt lat="42.80466" lon="1.93346">
        <ele>1115.8</ele>
        <time>2024-06-30T09:47:36Z</time>
      </trkpt>
      <trkpt lat="42.80462" lon="1.93341">
        <ele>1116.4</ele>
        <time>2024-06-30T09:47:37Z</time>
      </trkpt>
      <trkpt lat="42.80459" lon="1.93337">
        <ele>1116.6</ele>
        <time>2024-06-30T09:47:38Z</time>
      </trkpt>
      <trkpt lat="42.80457" lon="1.93334">
        <ele>1117</ele>
        <time>2024-06-30T09:47:39Z</time>
      </trkpt>
      <trkpt lat="42.80455" lon="1.93331">
        <ele>1117.6</ele>
        <time>2024-06-30T09:47:40Z</time>
      </trkpt>
      <trkpt lat="42.80453" lon="1.93329">
        <ele>1117.8</ele>
        <time>2024-06-30T09:47:41Z</time>
      </trkpt>
      <trkpt lat="42.80452" lon="1.93326">
        <ele>1118.2</ele>
        <time>2024-06-30T09:47:42Z</time>
      </trkpt>
      <trkpt lat="42.80451" lon="1.93324">
        <ele>1118.4</ele>
        <time>2024-06-30T09:47:43Z</time>
      </trkpt>
      <trkpt lat="42.80449" lon="1.93321">
        <ele>1118.6</ele>
        <time>2024-06-30T09:47:44Z</time>
      </trkpt>
      <trkpt lat="42.80449" lon="1.93317">
        <ele>1118.8</ele>
        <time>2024-06-30T09:47:45Z</time>
      </trkpt>
      <trkpt lat="42.80449" lon="1.93312">
        <ele>1119</ele>
        <time>2024-06-30T09:47:46Z</time>
      </trkpt>
      <trkpt lat="42.80447" lon="1.9331">
        <ele>1119.6</ele>
        <time>2024-06-30T09:47:47Z</time>
      </trkpt>
      <trkpt lat="42.80444" lon="1.93306">
        <ele>1120</ele>
        <time>2024-06-30T09:47:48Z</time>
      </trkpt>
      <trkpt lat="42.8044" lon="1.933">
        <ele>1120.4</ele>
        <time>2024-06-30T09:47:49Z</time>
      </trkpt>
      <trkpt lat="42.80438" lon="1.93296">
        <ele>1120.6</ele>
        <time>2024-06-30T09:47:50Z</time>
      </trkpt>
      <trkpt lat="42.80437" lon="1.93291">
        <ele>1121</ele>
        <time>2024-06-30T09:47:51Z</time>
      </trkpt>
      <trkpt lat="42.80436" lon="1.93286">
        <ele>1121</ele>
        <time>2024-06-30T09:47:52Z</time>
      </trkpt>
      <trkpt lat="42.80436" lon="1.93282">
        <ele>1121.2</ele>
        <time>2024-06-30T09:47:53Z</time>
      </trkpt>
      <trkpt lat="42.80436" lon="1.93277">
        <ele>1121.2</ele>
        <time>2024-06-30T09:47:54Z</time>
      </trkpt>
      <trkpt lat="42.80435" lon="1.93274">
        <ele>1121.2</ele>
        <time>2024-06-30T09:47:55Z</time>
      </trkpt>
      <trkpt lat="42.80434" lon="1.9327">
        <ele>1121.6</ele>
        <time>2024-06-30T09:47:56Z</time>
      </trkpt>
      <trkpt lat="42.80434" lon="1.93267">
        <ele>1121.8</ele>
        <time>2024-06-30T09:47:57Z</time>
      </trkpt>
      <trkpt lat="42.80433" lon="1.93263">
        <ele>1122.2</ele>
        <time>2024-06-30T09:47:58Z</time>
      </trkpt>
      <trkpt lat="42.80432" lon="1.9326">
        <ele>1122.4</ele>
        <time>2024-06-30T09:47:59Z</time>
      </trkpt>
      <trkpt lat="42.80431" lon="1.93255">
        <ele>1122.8</ele>
        <time>2024-06-30T09:48:00Z</time>
      </trkpt>
      <trkpt lat="42.80428" lon="1.93251">
        <ele>1123</ele>
        <time>2024-06-30T09:48:01Z</time>
      </trkpt>
      <trkpt lat="42.80425" lon="1.9325">
        <ele>1123.4</ele>
        <time>2024-06-30T09:48:02Z</time>
      </trkpt>
      <trkpt lat="42.80422" lon="1.93248">
        <ele>1123.6</ele>
        <time>2024-06-30T09:48:03Z</time>
      </trkpt>
      <trkpt lat="42.8042" lon="1.93244">
        <ele>1123.8</ele>
        <time>2024-06-30T09:48:04Z</time>
      </trkpt>
      <trkpt lat="42.80418" lon="1.9324">
        <ele>1124.2</ele>
        <time>2024-06-30T09:48:05Z</time>
      </trkpt>
      <trkpt lat="42.80414" lon="1.93236">
        <ele>1124.4</ele>
        <time>2024-06-30T09:48:06Z</time>
      </trkpt>
      <trkpt lat="42.80411" lon="1.93233">
        <ele>1124.6</ele>
        <time>2024-06-30T09:48:07Z</time>
      </trkpt>
      <trkpt lat="42.80408" lon="1.93231">
        <ele>1124.8</ele>
        <time>2024-06-30T09:48:08Z</time>
      </trkpt>
      <trkpt lat="42.80406" lon="1.93228">
        <ele>1125</ele>
        <time>2024-06-30T09:48:09Z</time>
      </trkpt>
      <trkpt lat="42.80404" lon="1.93223">
        <ele>1125.2</ele>
        <time>2024-06-30T09:48:10Z</time>
      </trkpt>
      <trkpt lat="42.80402" lon="1.93221">
        <ele>1125.4</ele>
        <time>2024-06-30T09:48:11Z</time>
      </trkpt>
      <trkpt lat="42.80399" lon="1.93218">
        <ele>1126</ele>
        <time>2024-06-30T09:48:12Z</time>
      </trkpt>
      <trkpt lat="42.80396" lon="1.93215">
        <ele>1126.2</ele>
        <time>2024-06-30T09:48:13Z</time>
      </trkpt>
      <trkpt lat="42.80395" lon="1.93212">
        <ele>1126.6</ele>
        <time>2024-06-30T09:48:14Z</time>
      </trkpt>
      <trkpt lat="42.80394" lon="1.9321">
        <ele>1126.6</ele>
        <time>2024-06-30T09:48:15Z</time>
      </trkpt>
      <trkpt lat="42.80391" lon="1.93206">
        <ele>1127</ele>
        <time>2024-06-30T09:48:16Z</time>
      </trkpt>
      <trkpt lat="42.8039" lon="1.93203">
        <ele>1127.2</ele>
        <time>2024-06-30T09:48:17Z</time>
      </trkpt>
      <trkpt lat="42.80389" lon="1.93201">
        <ele>1127.4</ele>
        <time>2024-06-30T09:48:18Z</time>
      </trkpt>
      <trkpt lat="42.80388" lon="1.93199">
        <ele>1127.4</ele>
        <time>2024-06-30T09:48:19Z</time>
      </trkpt>
      <trkpt lat="42.80384" lon="1.93196">
        <ele>1127.6</ele>
        <time>2024-06-30T09:48:20Z</time>
      </trkpt>
      <trkpt lat="42.80381" lon="1.93194">
        <ele>1127.8</ele>
        <time>2024-06-30T09:48:21Z</time>
      </trkpt>
      <trkpt lat="42.80379" lon="1.9319">
        <ele>1128</ele>
        <time>2024-06-30T09:48:22Z</time>
      </trkpt>
      <trkpt lat="42.80378" lon="1.93188">
        <ele>1128</ele>
        <time>2024-06-30T09:48:23Z</time>
      </trkpt>
      <trkpt lat="42.80376" lon="1.93184">
        <ele>1128.2</ele>
        <time>2024-06-30T09:48:24Z</time>
      </trkpt>
      <trkpt lat="42.80373" lon="1.93181">
        <ele>1128.6</ele>
        <time>2024-06-30T09:48:25Z</time>
      </trkpt>
      <trkpt lat="42.80371" lon="1.93179">
        <ele>1129</ele>
        <time>2024-06-30T09:48:26Z</time>
      </trkpt>
      <trkpt lat="42.80368" lon="1.93177">
        <ele>1129.4</ele>
        <time>2024-06-30T09:48:27Z</time>
      </trkpt>
      <trkpt lat="42.80366" lon="1.93174">
        <ele>1129.8</ele>
        <time>2024-06-30T09:48:28Z</time>
      </trkpt>
      <trkpt lat="42.80364" lon="1.93172">
        <ele>1129.8</ele>
        <time>2024-06-30T09:48:29Z</time>
      </trkpt>
      <trkpt lat="42.80362" lon="1.9317">
        <ele>1130</ele>
        <time>2024-06-30T09:48:30Z</time>
      </trkpt>
      <trkpt lat="42.80359" lon="1.93167">
        <ele>1130.2</ele>
        <time>2024-06-30T09:48:31Z</time>
      </trkpt>
      <trkpt lat="42.80356" lon="1.93165">
        <ele>1130.4</ele>
        <time>2024-06-30T09:48:32Z</time>
      </trkpt>
      <trkpt lat="42.80354" lon="1.93162">
        <ele>1130.4</ele>
        <time>2024-06-30T09:48:33Z</time>
      </trkpt>
      <trkpt lat="42.80351" lon="1.9316">
        <ele>1130.6</ele>
        <time>2024-06-30T09:48:34Z</time>
      </trkpt>
      <trkpt lat="42.80349" lon="1.93158">
        <ele>1130.8</ele>
        <time>2024-06-30T09:48:35Z</time>
      </trkpt>
      <trkpt lat="42.80347" lon="1.93156">
        <ele>1130.8</ele>
        <time>2024-06-30T09:48:36Z</time>
      </trkpt>
      <trkpt lat="42.80344" lon="1.93154">
        <ele>1131.2</ele>
        <time>2024-06-30T09:48:37Z</time>
      </trkpt>
      <trkpt lat="42.80341" lon="1.93153">
        <ele>1131.2</ele>
        <time>2024-06-30T09:48:38Z</time>
      </trkpt>
      <trkpt lat="42.80338" lon="1.93151">
        <ele>1131.6</ele>
        <time>2024-06-30T09:48:39Z</time>
      </trkpt>
      <trkpt lat="42.80336" lon="1.93149">
        <ele>1131.8</ele>
        <time>2024-06-30T09:48:40Z</time>
      </trkpt>
      <trkpt lat="42.80334" lon="1.93148">
        <ele>1132</ele>
        <time>2024-06-30T09:48:41Z</time>
      </trkpt>
      <trkpt lat="42.80332" lon="1.93146">
        <ele>1132.2</ele>
        <time>2024-06-30T09:48:42Z</time>
      </trkpt>
      <trkpt lat="42.80329" lon="1.93144">
        <ele>1132.4</ele>
        <time>2024-06-30T09:48:43Z</time>
      </trkpt>
      <trkpt lat="42.80327" lon="1.93142">
        <ele>1133</ele>
        <time>2024-06-30T09:48:44Z</time>
      </trkpt>
      <trkpt lat="42.80324" lon="1.9314">
        <ele>1133.2</ele>
        <time>2024-06-30T09:48:45Z</time>
      </trkpt>
      <trkpt lat="42.80321" lon="1.93137">
        <ele>1133.4</ele>
        <time>2024-06-30T09:48:46Z</time>
      </trkpt>
      <trkpt lat="42.80319" lon="1.93135">
        <ele>1133.4</ele>
        <time>2024-06-30T09:48:47Z</time>
      </trkpt>
      <trkpt lat="42.80317" lon="1.93132">
        <ele>1133.6</ele>
        <time>2024-06-30T09:48:48Z</time>
      </trkpt>
      <trkpt lat="42.80314" lon="1.9313">
        <ele>1133.6</ele>
        <time>2024-06-30T09:48:49Z</time>
      </trkpt>
      <trkpt lat="42.80311" lon="1.93128">
        <ele>1134</ele>
        <time>2024-06-30T09:48:50Z</time>
      </trkpt>
      <trkpt lat="42.80308" lon="1.93125">
        <ele>1134.2</ele>
        <time>2024-06-30T09:48:51Z</time>
      </trkpt>
      <trkpt lat="42.80305" lon="1.93124">
        <ele>1134.4</ele>
        <time>2024-06-30T09:48:52Z</time>
      </trkpt>
      <trkpt lat="42.80302" lon="1.93121">
        <ele>1134.8</ele>
        <time>2024-06-30T09:48:53Z</time>
      </trkpt>
      <trkpt lat="42.80299" lon="1.93119">
        <ele>1135</ele>
        <time>2024-06-30T09:48:54Z</time>
      </trkpt>
      <trkpt lat="42.80296" lon="1.93118">
        <ele>1135.4</ele>
        <time>2024-06-30T09:48:55Z</time>
      </trkpt>
      <trkpt lat="42.80293" lon="1.93116">
        <ele>1135.6</ele>
        <time>2024-06-30T09:48:56Z</time>
      </trkpt>
      <trkpt lat="42.8029" lon="1.93114">
        <ele>1135.8</ele>
        <time>2024-06-30T09:48:57Z</time>
      </trkpt>
      <trkpt lat="42.80287" lon="1.93113">
        <ele>1136</ele>
        <time>2024-06-30T09:48:58Z</time>
      </trkpt>
      <trkpt lat="42.80285" lon="1.93111">
        <ele>1136.2</ele>
        <time>2024-06-30T09:48:59Z</time>
      </trkpt>
      <trkpt lat="42.80282" lon="1.93109">
        <ele>1136.4</ele>
        <time>2024-06-30T09:49:00Z</time>
      </trkpt>
      <trkpt lat="42.80279" lon="1.93108">
        <ele>1136.6</ele>
        <time>2024-06-30T09:49:01Z</time>
      </trkpt>
      <trkpt lat="42.80277" lon="1.93105">
        <ele>1136.8</ele>
        <time>2024-06-30T09:49:02Z</time>
      </trkpt>
      <trkpt lat="42.80274" lon="1.93103">
        <ele>1136.8</ele>
        <time>2024-06-30T09:49:03Z</time>
      </trkpt>
      <trkpt lat="42.80271" lon="1.93101">
        <ele>1137</ele>
        <time>2024-06-30T09:49:04Z</time>
      </trkpt>
      <trkpt lat="42.80269" lon="1.93099">
        <ele>1137.2</ele>
        <time>2024-06-30T09:49:05Z</time>
      </trkpt>
      <trkpt lat="42.80266" lon="1.93098">
        <ele>1137.2</ele>
        <time>2024-06-30T09:49:06Z</time>
      </trkpt>
      <trkpt lat="42.80263" lon="1.93096">
        <ele>1137.4</ele>
        <time>2024-06-30T09:49:07Z</time>
      </trkpt>
      <trkpt lat="42.8026" lon="1.93094">
        <ele>1137.8</ele>
        <time>2024-06-30T09:49:08Z</time>
      </trkpt>
      <trkpt lat="42.80258" lon="1.93093">
        <ele>1138.4</ele>
        <time>2024-06-30T09:49:09Z</time>
      </trkpt>
      <trkpt lat="42.80256" lon="1.93091">
        <ele>1138.6</ele>
        <time>2024-06-30T09:49:10Z</time>
      </trkpt>
      <trkpt lat="42.80254" lon="1.93089">
        <ele>1139</ele>
        <time>2024-06-30T09:49:11Z</time>
      </trkpt>
      <trkpt lat="42.80251" lon="1.93087">
        <ele>1139.2</ele>
        <time>2024-06-30T09:49:12Z</time>
      </trkpt>
      <trkpt lat="42.80248" lon="1.93085">
        <ele>1139.6</ele>
        <time>2024-06-30T09:49:13Z</time>
      </trkpt>
      <trkpt lat="42.80246" lon="1.93084">
        <ele>1139.6</ele>
        <time>2024-06-30T09:49:14Z</time>
      </trkpt>
      <trkpt lat="42.80243" lon="1.93082">
        <ele>1140</ele>
        <time>2024-06-30T09:49:15Z</time>
      </trkpt>
      <trkpt lat="42.80241" lon="1.9308">
        <ele>1140.4</ele>
        <time>2024-06-30T09:49:16Z</time>
      </trkpt>
      <trkpt lat="42.80238" lon="1.93079">
        <ele>1140.6</ele>
        <time>2024-06-30T09:49:17Z</time>
      </trkpt>
      <trkpt lat="42.80236" lon="1.93077">
        <ele>1141</ele>
        <time>2024-06-30T09:49:18Z</time>
      </trkpt>
      <trkpt lat="42.80233" lon="1.93076">
        <ele>1141</ele>
        <time>2024-06-30T09:49:19Z</time>
      </trkpt>
      <trkpt lat="42.80231" lon="1.93074">
        <ele>1141.2</ele>
        <time>2024-06-30T09:49:20Z</time>
      </trkpt>
      <trkpt lat="42.80229" lon="1.93073">
        <ele>1141.4</ele>
        <time>2024-06-30T09:49:21Z</time>
      </trkpt>
      <trkpt lat="42.80226" lon="1.93071">
        <ele>1141.6</ele>
        <time>2024-06-30T09:49:22Z</time>
      </trkpt>
      <trkpt lat="42.80223" lon="1.93069">
        <ele>1141.8</ele>
        <time>2024-06-30T09:49:23Z</time>
      </trkpt>
      <trkpt lat="42.80222" lon="1.93067">
        <ele>1142</ele>
        <time>2024-06-30T09:49:24Z</time>
      </trkpt>
      <trkpt lat="42.8022" lon="1.93065">
        <ele>1142.6</ele>
        <time>2024-06-30T09:49:25Z</time>
      </trkpt>
      <trkpt lat="42.80219" lon="1.93064">
        <ele>1143</ele>
        <time>2024-06-30T09:49:26Z</time>
      </trkpt>
      <trkpt lat="42.80215" lon="1.93062">
        <ele>1143.6</ele>
        <time>2024-06-30T09:49:27Z</time>
      </trkpt>
      <trkpt lat="42.8021" lon="1.93059">
        <ele>1143.8</ele>
        <time>2024-06-30T09:49:28Z</time>
      </trkpt>
      <trkpt lat="42.80207" lon="1.93057">
        <ele>1144</ele>
        <time>2024-06-30T09:49:29Z</time>
      </trkpt>
      <trkpt lat="42.80204" lon="1.93055">
        <ele>1144</ele>
        <time>2024-06-30T09:49:30Z</time>
      </trkpt>
      <trkpt lat="42.80201" lon="1.93052">
        <ele>1144.4</ele>
        <time>2024-06-30T09:49:31Z</time>
      </trkpt>
      <trkpt lat="42.80198" lon="1.93051">
        <ele>1144.8</ele>
        <time>2024-06-30T09:49:32Z</time>
      </trkpt>
      <trkpt lat="42.80194" lon="1.93049">
        <ele>1145</ele>
        <time>2024-06-30T09:49:33Z</time>
      </trkpt>
      <trkpt lat="42.8019" lon="1.93048">
        <ele>1145.4</ele>
        <time>2024-06-30T09:49:34Z</time>
      </trkpt>
      <trkpt lat="42.80187" lon="1.93046">
        <ele>1145.8</ele>
        <time>2024-06-30T09:49:35Z</time>
      </trkpt>
      <trkpt lat="42.80184" lon="1.93045">
        <ele>1146.4</ele>
        <time>2024-06-30T09:49:36Z</time>
      </trkpt>
      <trkpt lat="42.80181" lon="1.93043">
        <ele>1146.4</ele>
        <time>2024-06-30T09:49:37Z</time>
      </trkpt>
      <trkpt lat="42.80178" lon="1.9304">
        <ele>1146.8</ele>
        <time>2024-06-30T09:49:38Z</time>
      </trkpt>
      <trkpt lat="42.80175" lon="1.93038">
        <ele>1146.8</ele>
        <time>2024-06-30T09:49:39Z</time>
      </trkpt>
      <trkpt lat="42.80171" lon="1.93036">
        <ele>1147.4</ele>
        <time>2024-06-30T09:49:40Z</time>
      </trkpt>
      <trkpt lat="42.80168" lon="1.93033">
        <ele>1147.8</ele>
        <time>2024-06-30T09:49:41Z</time>
      </trkpt>
      <trkpt lat="42.80165" lon="1.93031">
        <ele>1148</ele>
        <time>2024-06-30T09:49:42Z</time>
      </trkpt>
      <trkpt lat="42.80163" lon="1.93029">
        <ele>1148.4</ele>
        <time>2024-06-30T09:49:43Z</time>
      </trkpt>
      <trkpt lat="42.80161" lon="1.93027">
        <ele>1148.6</ele>
        <time>2024-06-30T09:49:44Z</time>
      </trkpt>
      <trkpt lat="42.80158" lon="1.93025">
        <ele>1149.2</ele>
        <time>2024-06-30T09:49:45Z</time>
      </trkpt>
      <trkpt lat="42.80156" lon="1.93023">
        <ele>1149.4</ele>
        <time>2024-06-30T09:49:46Z</time>
      </trkpt>
      <trkpt lat="42.80154" lon="1.93022">
        <ele>1149.6</ele>
        <time>2024-06-30T09:49:47Z</time>
      </trkpt>
      <trkpt lat="42.80151" lon="1.9302">
        <ele>1150</ele>
        <time>2024-06-30T09:49:48Z</time>
      </trkpt>
      <trkpt lat="42.80149" lon="1.93018">
        <ele>1150.2</ele>
        <time>2024-06-30T09:49:49Z</time>
      </trkpt>
      <trkpt lat="42.80146" lon="1.93017">
        <ele>1150.6</ele>
        <time>2024-06-30T09:49:50Z</time>
      </trkpt>
      <trkpt lat="42.80144" lon="1.93015">
        <ele>1150.6</ele>
        <time>2024-06-30T09:49:51Z</time>
      </trkpt>
      <trkpt lat="42.80142" lon="1.93014">
        <ele>1151</ele>
        <time>2024-06-30T09:49:52Z</time>
      </trkpt>
      <trkpt lat="42.8014" lon="1.93013">
        <ele>1151</ele>
        <time>2024-06-30T09:49:53Z</time>
      </trkpt>
      <trkpt lat="42.80137" lon="1.93011">
        <ele>1151.4</ele>
        <time>2024-06-30T09:49:54Z</time>
      </trkpt>
      <trkpt lat="42.80135" lon="1.9301">
        <ele>1151.4</ele>
        <time>2024-06-30T09:49:55Z</time>
      </trkpt>
      <trkpt lat="42.80133" lon="1.93009">
        <ele>1151.8</ele>
        <time>2024-06-30T09:49:56Z</time>
      </trkpt>
      <trkpt lat="42.80131" lon="1.93008">
        <ele>1152</ele>
        <time>2024-06-30T09:49:57Z</time>
      </trkpt>
      <trkpt lat="42.80129" lon="1.93007">
        <ele>1152.2</ele>
        <time>2024-06-30T09:49:58Z</time>
      </trkpt>
      <trkpt lat="42.80127" lon="1.93005">
        <ele>1152.6</ele>
        <time>2024-06-30T09:49:59Z</time>
      </trkpt>
      <trkpt lat="42.80125" lon="1.93004">
        <ele>1152.8</ele>
        <time>2024-06-30T09:50:00Z</time>
      </trkpt>
      <trkpt lat="42.80124" lon="1.93003">
        <ele>1153</ele>
        <time>2024-06-30T09:50:01Z</time>
      </trkpt>
      <trkpt lat="42.80122" lon="1.93002">
        <ele>1153</ele>
        <time>2024-06-30T09:50:02Z</time>
      </trkpt>
      <trkpt lat="42.8012" lon="1.93001">
        <ele>1153.2</ele>
        <time>2024-06-30T09:50:03Z</time>
      </trkpt>
      <trkpt lat="42.80118" lon="1.93">
        <ele>1153.6</ele>
        <time>2024-06-30T09:50:04Z</time>
      </trkpt>
      <trkpt lat="42.80115" lon="1.92998">
        <ele>1153.8</ele>
        <time>2024-06-30T09:50:05Z</time>
      </trkpt>
      <trkpt lat="42.80112" lon="1.92997">
        <ele>1154</ele>
        <time>2024-06-30T09:50:06Z</time>
      </trkpt>
      <trkpt lat="42.8011" lon="1.92995">
        <ele>1154</ele>
        <time>2024-06-30T09:50:07Z</time>
      </trkpt>
      <trkpt lat="42.80108" lon="1.92994">
        <ele>1154.6</ele>
        <time>2024-06-30T09:50:08Z</time>
      </trkpt>
      <trkpt lat="42.80106" lon="1.92993">
        <ele>1154.8</ele>
        <time>2024-06-30T09:50:09Z</time>
      </trkpt>
      <trkpt lat="42.80105" lon="1.92992">
        <ele>1155.2</ele>
        <time>2024-06-30T09:50:10Z</time>
      </trkpt>
      <trkpt lat="42.80103" lon="1.92991">
        <ele>1155.4</ele>
        <time>2024-06-30T09:50:11Z</time>
      </trkpt>
      <trkpt lat="42.801" lon="1.9299">
        <ele>1155.6</ele>
        <time>2024-06-30T09:50:12Z</time>
      </trkpt>
      <trkpt lat="42.80098" lon="1.92988">
        <ele>1156</ele>
        <time>2024-06-30T09:50:13Z</time>
      </trkpt>
      <trkpt lat="42.80095" lon="1.92986">
        <ele>1156.2</ele>
        <time>2024-06-30T09:50:14Z</time>
      </trkpt>
      <trkpt lat="42.80093" lon="1.92984">
        <ele>1156.4</ele>
        <time>2024-06-30T09:50:15Z</time>
      </trkpt>
      <trkpt lat="42.80091" lon="1.92982">
        <ele>1156.8</ele>
        <time>2024-06-30T09:50:16Z</time>
      </trkpt>
      <trkpt lat="42.80087" lon="1.92981">
        <ele>1157</ele>
        <time>2024-06-30T09:50:17Z</time>
      </trkpt>
      <trkpt lat="42.80085" lon="1.92979">
        <ele>1157.2</ele>
        <time>2024-06-30T09:50:18Z</time>
      </trkpt>
      <trkpt lat="42.80082" lon="1.92977">
        <ele>1157.4</ele>
        <time>2024-06-30T09:50:19Z</time>
      </trkpt>
      <trkpt lat="42.8008" lon="1.92976">
        <ele>1157.6</ele>
        <time>2024-06-30T09:50:20Z</time>
      </trkpt>
      <trkpt lat="42.80077" lon="1.92975">
        <ele>1157.8</ele>
        <time>2024-06-30T09:50:21Z</time>
      </trkpt>
      <trkpt lat="42.80074" lon="1.92974">
        <ele>1158</ele>
        <time>2024-06-30T09:50:22Z</time>
      </trkpt>
      <trkpt lat="42.8007" lon="1.92972">
        <ele>1158</ele>
        <time>2024-06-30T09:50:23Z</time>
      </trkpt>
      <trkpt lat="42.80068" lon="1.9297">
        <ele>1158</ele>
        <time>2024-06-30T09:50:24Z</time>
      </trkpt>
      <trkpt lat="42.80066" lon="1.92968">
        <ele>1158.2</ele>
        <time>2024-06-30T09:50:25Z</time>
      </trkpt>
      <trkpt lat="42.80065" lon="1.92967">
        <ele>1158.4</ele>
        <time>2024-06-30T09:50:26Z</time>
      </trkpt>
      <trkpt lat="42.80062" lon="1.92965">
        <ele>1158.6</ele>
        <time>2024-06-30T09:50:27Z</time>
      </trkpt>
      <trkpt lat="42.8006" lon="1.92964">
        <ele>1159</ele>
        <time>2024-06-30T09:50:28Z</time>
      </trkpt>
      <trkpt lat="42.80058" lon="1.92963">
        <ele>1159.2</ele>
        <time>2024-06-30T09:50:29Z</time>
      </trkpt>
      <trkpt lat="42.80055" lon="1.92962">
        <ele>1159.2</ele>
        <time>2024-06-30T09:50:30Z</time>
      </trkpt>
      <trkpt lat="42.80053" lon="1.92961">
        <ele>1159.8</ele>
        <time>2024-06-30T09:50:31Z</time>
      </trkpt>
      <trkpt lat="42.80051" lon="1.92959">
        <ele>1159.8</ele>
        <time>2024-06-30T09:50:32Z</time>
      </trkpt>
      <trkpt lat="42.80049" lon="1.92958">
        <ele>1160.2</ele>
        <time>2024-06-30T09:50:33Z</time>
      </trkpt>
      <trkpt lat="42.80047" lon="1.92957">
        <ele>1160.2</ele>
        <time>2024-06-30T09:50:34Z</time>
      </trkpt>
      <trkpt lat="42.80045" lon="1.92955">
        <ele>1160.6</ele>
        <time>2024-06-30T09:50:35Z</time>
      </trkpt>
      <trkpt lat="42.80042" lon="1.92954">
        <ele>1161.2</ele>
        <time>2024-06-30T09:50:36Z</time>
      </trkpt>
      <trkpt lat="42.80041" lon="1.92953">
        <ele>1161.4</ele>
        <time>2024-06-30T09:50:37Z</time>
      </trkpt>
      <trkpt lat="42.80039" lon="1.92951">
        <ele>1161.8</ele>
        <time>2024-06-30T09:50:38Z</time>
      </trkpt>
      <trkpt lat="42.80036" lon="1.9295">
        <ele>1162</ele>
        <time>2024-06-30T09:50:39Z</time>
      </trkpt>
      <trkpt lat="42.80034" lon="1.92948">
        <ele>1162.4</ele>
        <time>2024-06-30T09:50:40Z</time>
      </trkpt>
      <trkpt lat="42.80031" lon="1.92947">
        <ele>1162.6</ele>
        <time>2024-06-30T09:50:41Z</time>
      </trkpt>
      <trkpt lat="42.80029" lon="1.92947">
        <ele>1163</ele>
        <time>2024-06-30T09:50:42Z</time>
      </trkpt>
      <trkpt lat="42.80026" lon="1.92946">
        <ele>1163</ele>
        <time>2024-06-30T09:50:43Z</time>
      </trkpt>
      <trkpt lat="42.80023" lon="1.92944">
        <ele>1163.4</ele>
        <time>2024-06-30T09:50:44Z</time>
      </trkpt>
      <trkpt lat="42.80021" lon="1.92943">
        <ele>1163.6</ele>
        <time>2024-06-30T09:50:45Z</time>
      </trkpt>
      <trkpt lat="42.80019" lon="1.92942">
        <ele>1163.6</ele>
        <time>2024-06-30T09:50:46Z</time>
      </trkpt>
      <trkpt lat="42.80016" lon="1.92941">
        <ele>1164</ele>
        <time>2024-06-30T09:50:47Z</time>
      </trkpt>
      <trkpt lat="42.80013" lon="1.9294">
        <ele>1164.4</ele>
        <time>2024-06-30T09:50:48Z</time>
      </trkpt>
      <trkpt lat="42.80011" lon="1.92939">
        <ele>1164.8</ele>
        <time>2024-06-30T09:50:49Z</time>
      </trkpt>
      <trkpt lat="42.80008" lon="1.92938">
        <ele>1164.8</ele>
        <time>2024-06-30T09:50:50Z</time>
      </trkpt>
      <trkpt lat="42.80006" lon="1.92937">
        <ele>1165.2</ele>
        <time>2024-06-30T09:50:51Z</time>
      </trkpt>
      <trkpt lat="42.80004" lon="1.92937">
        <ele>1165.2</ele>
        <time>2024-06-30T09:50:52Z</time>
      </trkpt>
      <trkpt lat="42.80002" lon="1.92935">
        <ele>1165.8</ele>
        <time>2024-06-30T09:50:53Z</time>
      </trkpt>
      <trkpt lat="42.8" lon="1.92934">
        <ele>1166.4</ele>
        <time>2024-06-30T09:50:54Z</time>
      </trkpt>
      <trkpt lat="42.79998" lon="1.92934">
        <ele>1166.8</ele>
        <time>2024-06-30T09:50:55Z</time>
      </trkpt>
      <trkpt lat="42.79995" lon="1.92933">
        <ele>1167.4</ele>
        <time>2024-06-30T09:50:56Z</time>
      </trkpt>
      <trkpt lat="42.79993" lon="1.92932">
        <ele>1167.8</ele>
        <time>2024-06-30T09:50:57Z</time>
      </trkpt>
      <trkpt lat="42.7999" lon="1.9293">
        <ele>1168.2</ele>
        <time>2024-06-30T09:50:58Z</time>
      </trkpt>
      <trkpt lat="42.79988" lon="1.92929">
        <ele>1168.4</ele>
        <time>2024-06-30T09:50:59Z</time>
      </trkpt>
      <trkpt lat="42.79985" lon="1.92927">
        <ele>1169</ele>
        <time>2024-06-30T09:51:00Z</time>
      </trkpt>
      <trkpt lat="42.79983" lon="1.92926">
        <ele>1169.4</ele>
        <time>2024-06-30T09:51:01Z</time>
      </trkpt>
      <trkpt lat="42.79981" lon="1.92924">
        <ele>1169.6</ele>
        <time>2024-06-30T09:51:02Z</time>
      </trkpt>
      <trkpt lat="42.79979" lon="1.92922">
        <ele>1169.8</ele>
        <time>2024-06-30T09:51:03Z</time>
      </trkpt>
      <trkpt lat="42.79976" lon="1.9292">
        <ele>1170</ele>
        <time>2024-06-30T09:51:04Z</time>
      </trkpt>
      <trkpt lat="42.79974" lon="1.92918">
        <ele>1170.4</ele>
        <time>2024-06-30T09:51:05Z</time>
      </trkpt>
      <trkpt lat="42.79972" lon="1.92916">
        <ele>1170.6</ele>
        <time>2024-06-30T09:51:06Z</time>
      </trkpt>
      <trkpt lat="42.7997" lon="1.92915">
        <ele>1170.8</ele>
        <time>2024-06-30T09:51:07Z</time>
      </trkpt>
      <trkpt lat="42.79968" lon="1.92914">
        <ele>1171</ele>
        <time>2024-06-30T09:51:08Z</time>
      </trkpt>
      <trkpt lat="42.79965" lon="1.92912">
        <ele>1171.2</ele>
        <time>2024-06-30T09:51:09Z</time>
      </trkpt>
      <trkpt lat="42.79964" lon="1.92911">
        <ele>1171.8</ele>
        <time>2024-06-30T09:51:10Z</time>
      </trkpt>
      <trkpt lat="42.79962" lon="1.92909">
        <ele>1172</ele>
        <time>2024-06-30T09:51:11Z</time>
      </trkpt>
      <trkpt lat="42.79961" lon="1.92907">
        <ele>1172.4</ele>
        <time>2024-06-30T09:51:12Z</time>
      </trkpt>
      <trkpt lat="42.79959" lon="1.92904">
        <ele>1172.4</ele>
        <time>2024-06-30T09:51:13Z</time>
      </trkpt>
      <trkpt lat="42.79958" lon="1.92902">
        <ele>1173</ele>
        <time>2024-06-30T09:51:14Z</time>
      </trkpt>
      <trkpt lat="42.79958" lon="1.92899">
        <ele>1173.2</ele>
        <time>2024-06-30T09:51:15Z</time>
      </trkpt>
      <trkpt lat="42.79957" lon="1.92896">
        <ele>1173.6</ele>
        <time>2024-06-30T09:51:16Z</time>
      </trkpt>
      <trkpt lat="42.79957" lon="1.92893">
        <ele>1174</ele>
        <time>2024-06-30T09:51:17Z</time>
      </trkpt>
      <trkpt lat="42.79956" lon="1.9289">
        <ele>1174.4</ele>
        <time>2024-06-30T09:51:18Z</time>
      </trkpt>
      <trkpt lat="42.79955" lon="1.92887">
        <ele>1174.6</ele>
        <time>2024-06-30T09:51:19Z</time>
      </trkpt>
      <trkpt lat="42.79955" lon="1.92883">
        <ele>1175</ele>
        <time>2024-06-30T09:51:20Z</time>
      </trkpt>
      <trkpt lat="42.79956" lon="1.9288">
        <ele>1175.4</ele>
        <time>2024-06-30T09:51:21Z</time>
      </trkpt>
      <trkpt lat="42.79956" lon="1.92877">
        <ele>1175.4</ele>
        <time>2024-06-30T09:51:22Z</time>
      </trkpt>
      <trkpt lat="42.79954" lon="1.92874">
        <ele>1175.6</ele>
        <time>2024-06-30T09:51:23Z</time>
      </trkpt>
      <trkpt lat="42.79954" lon="1.92871">
        <ele>1175.8</ele>
        <time>2024-06-30T09:51:24Z</time>
      </trkpt>
      <trkpt lat="42.79953" lon="1.92868">
        <ele>1176.4</ele>
        <time>2024-06-30T09:51:25Z</time>
      </trkpt>
      <trkpt lat="42.79953" lon="1.92866">
        <ele>1176.6</ele>
        <time>2024-06-30T09:51:26Z</time>
      </trkpt>
      <trkpt lat="42.79952" lon="1.92864">
        <ele>1176.8</ele>
        <time>2024-06-30T09:51:27Z</time>
      </trkpt>
      <trkpt lat="42.7995" lon="1.92862">
        <ele>1177.2</ele>
        <time>2024-06-30T09:51:28Z</time>
      </trkpt>
      <trkpt lat="42.79948" lon="1.92861">
        <ele>1177.4</ele>
        <time>2024-06-30T09:51:29Z</time>
      </trkpt>
      <trkpt lat="42.79946" lon="1.92859">
        <ele>1177.6</ele>
        <time>2024-06-30T09:51:30Z</time>
      </trkpt>
      <trkpt lat="42.79944" lon="1.92858">
        <ele>1177.8</ele>
        <time>2024-06-30T09:51:31Z</time>
      </trkpt>
      <trkpt lat="42.79942" lon="1.92857">
        <ele>1178.4</ele>
        <time>2024-06-30T09:51:32Z</time>
      </trkpt>
      <trkpt lat="42.79939" lon="1.92856">
        <ele>1178.8</ele>
        <time>2024-06-30T09:51:33Z</time>
      </trkpt>
      <trkpt lat="42.79937" lon="1.92855">
        <ele>1179</ele>
        <time>2024-06-30T09:51:34Z</time>
      </trkpt>
      <trkpt lat="42.79936" lon="1.92855">
        <ele>1179.6</ele>
        <time>2024-06-30T09:51:35Z</time>
      </trkpt>
      <trkpt lat="42.79934" lon="1.92855">
        <ele>1180</ele>
        <time>2024-06-30T09:51:36Z</time>
      </trkpt>
      <trkpt lat="42.79933" lon="1.92855">
        <ele>1180.8</ele>
        <time>2024-06-30T09:51:37Z</time>
      </trkpt>
      <trkpt lat="42.7993" lon="1.92855">
        <ele>1181</ele>
        <time>2024-06-30T09:51:38Z</time>
      </trkpt>
      <trkpt lat="42.79928" lon="1.92855">
        <ele>1181.6</ele>
        <time>2024-06-30T09:51:39Z</time>
      </trkpt>
      <trkpt lat="42.79926" lon="1.92855">
        <ele>1181.8</ele>
        <time>2024-06-30T09:51:40Z</time>
      </trkpt>
      <trkpt lat="42.79923" lon="1.92854">
        <ele>1182.2</ele>
        <time>2024-06-30T09:51:41Z</time>
      </trkpt>
      <trkpt lat="42.7992" lon="1.92855">
        <ele>1182.8</ele>
        <time>2024-06-30T09:51:42Z</time>
      </trkpt>
      <trkpt lat="42.79919" lon="1.92855">
        <ele>1183</ele>
        <time>2024-06-30T09:51:43Z</time>
      </trkpt>
      <trkpt lat="42.79917" lon="1.92855">
        <ele>1183.6</ele>
        <time>2024-06-30T09:51:44Z</time>
      </trkpt>
      <trkpt lat="42.79916" lon="1.92854">
        <ele>1183.8</ele>
        <time>2024-06-30T09:51:45Z</time>
      </trkpt>
      <trkpt lat="42.79915" lon="1.92853">
        <ele>1184.2</ele>
        <time>2024-06-30T09:51:46Z</time>
      </trkpt>
      <trkpt lat="42.79914" lon="1.92851">
        <ele>1184.4</ele>
        <time>2024-06-30T09:51:47Z</time>
      </trkpt>
      <trkpt lat="42.79914" lon="1.92848">
        <ele>1184.8</ele>
        <time>2024-06-30T09:51:48Z</time>
      </trkpt>
      <trkpt lat="42.79913" lon="1.92846">
        <ele>1185.4</ele>
        <time>2024-06-30T09:51:49Z</time>
      </trkpt>
      <trkpt lat="42.7991" lon="1.92843">
        <ele>1185.8</ele>
        <time>2024-06-30T09:51:50Z</time>
      </trkpt>
      <trkpt lat="42.79908" lon="1.92839">
        <ele>1186.8</ele>
        <time>2024-06-30T09:51:51Z</time>
      </trkpt>
      <trkpt lat="42.79906" lon="1.92837">
        <ele>1187</ele>
        <time>2024-06-30T09:51:52Z</time>
      </trkpt>
      <trkpt lat="42.79905" lon="1.92834">
        <ele>1187.6</ele>
        <time>2024-06-30T09:51:53Z</time>
      </trkpt>
      <trkpt lat="42.79904" lon="1.92831">
        <ele>1187.6</ele>
        <time>2024-06-30T09:51:54Z</time>
      </trkpt>
      <trkpt lat="42.79903" lon="1.92827">
        <ele>1188</ele>
        <time>2024-06-30T09:51:55Z</time>
      </trkpt>
      <trkpt lat="42.79901" lon="1.92824">
        <ele>1188.2</ele>
        <time>2024-06-30T09:51:56Z</time>
      </trkpt>
      <trkpt lat="42.799" lon="1.92821">
        <ele>1188.4</ele>
        <time>2024-06-30T09:51:57Z</time>
      </trkpt>
      <trkpt lat="42.79899" lon="1.92818">
        <ele>1189</ele>
        <time>2024-06-30T09:51:58Z</time>
      </trkpt>
      <trkpt lat="42.79898" lon="1.92816">
        <ele>1189.4</ele>
        <time>2024-06-30T09:51:59Z</time>
      </trkpt>
      <trkpt lat="42.79897" lon="1.92814">
        <ele>1190.2</ele>
        <time>2024-06-30T09:52:00Z</time>
      </trkpt>
      <trkpt lat="42.79897" lon="1.92812">
        <ele>1190.6</ele>
        <time>2024-06-30T09:52:01Z</time>
      </trkpt>
      <trkpt lat="42.79896" lon="1.92809">
        <ele>1191.4</ele>
        <time>2024-06-30T09:52:02Z</time>
      </trkpt>
      <trkpt lat="42.79895" lon="1.92806">
        <ele>1191.8</ele>
        <time>2024-06-30T09:52:03Z</time>
      </trkpt>
      <trkpt lat="42.79894" lon="1.92803">
        <ele>1192.4</ele>
        <time>2024-06-30T09:52:04Z</time>
      </trkpt>
      <trkpt lat="42.79894" lon="1.92801">
        <ele>1192.6</ele>
        <time>2024-06-30T09:52:05Z</time>
      </trkpt>
      <trkpt lat="42.79894" lon="1.92799">
        <ele>1193.4</ele>
        <time>2024-06-30T09:52:06Z</time>
      </trkpt>
      <trkpt lat="42.79893" lon="1.92797">
        <ele>1194</ele>
        <time>2024-06-30T09:52:07Z</time>
      </trkpt>
      <trkpt lat="42.79892" lon="1.92794">
        <ele>1194.4</ele>
        <time>2024-06-30T09:52:08Z</time>
      </trkpt>
      <trkpt lat="42.79891" lon="1.92791">
        <ele>1194.6</ele>
        <time>2024-06-30T09:52:09Z</time>
      </trkpt>
      <trkpt lat="42.7989" lon="1.92789">
        <ele>1194.8</ele>
        <time>2024-06-30T09:52:10Z</time>
      </trkpt>
      <trkpt lat="42.79889" lon="1.92787">
        <ele>1195.2</ele>
        <time>2024-06-30T09:52:11Z</time>
      </trkpt>
      <trkpt lat="42.79889" lon="1.92786">
        <ele>1195.4</ele>
        <time>2024-06-30T09:52:12Z</time>
      </trkpt>
      <trkpt lat="42.79886" lon="1.92784">
        <ele>1196</ele>
        <time>2024-06-30T09:52:13Z</time>
      </trkpt>
      <trkpt lat="42.79885" lon="1.92782">
        <ele>1196.8</ele>
        <time>2024-06-30T09:52:14Z</time>
      </trkpt>
      <trkpt lat="42.79885" lon="1.92779">
        <ele>1197.2</ele>
        <time>2024-06-30T09:52:15Z</time>
      </trkpt>
      <trkpt lat="42.79884" lon="1.92776">
        <ele>1197.8</ele>
        <time>2024-06-30T09:52:16Z</time>
      </trkpt>
      <trkpt lat="42.79883" lon="1.92774">
        <ele>1198</ele>
        <time>2024-06-30T09:52:17Z</time>
      </trkpt>
      <trkpt lat="42.79881" lon="1.9277">
        <ele>1198.8</ele>
        <time>2024-06-30T09:52:18Z</time>
      </trkpt>
      <trkpt lat="42.7988" lon="1.92768">
        <ele>1199</ele>
        <time>2024-06-30T09:52:19Z</time>
      </trkpt>
      <trkpt lat="42.7988" lon="1.92766">
        <ele>1199.2</ele>
        <time>2024-06-30T09:52:20Z</time>
      </trkpt>
      <trkpt lat="42.79881" lon="1.92764">
        <ele>1199.4</ele>
        <time>2024-06-30T09:52:21Z</time>
      </trkpt>
      <trkpt lat="42.79881" lon="1.92762">
        <ele>1200</ele>
        <time>2024-06-30T09:52:22Z</time>
      </trkpt>
      <trkpt lat="42.7988" lon="1.9276">
        <ele>1200.4</ele>
        <time>2024-06-30T09:52:23Z</time>
      </trkpt>
      <trkpt lat="42.79879" lon="1.92758">
        <ele>1200.8</ele>
        <time>2024-06-30T09:52:24Z</time>
      </trkpt>
      <trkpt lat="42.79878" lon="1.92756">
        <ele>1201</ele>
        <time>2024-06-30T09:52:25Z</time>
      </trkpt>
      <trkpt lat="42.79877" lon="1.92754">
        <ele>1201.2</ele>
        <time>2024-06-30T09:52:26Z</time>
      </trkpt>
      <trkpt lat="42.79876" lon="1.92753">
        <ele>1201.4</ele>
        <time>2024-06-30T09:52:27Z</time>
      </trkpt>
      <trkpt lat="42.79877" lon="1.92751">
        <ele>1201.4</ele>
        <time>2024-06-30T09:52:28Z</time>
      </trkpt>
      <trkpt lat="42.79878" lon="1.92749">
        <ele>1202</ele>
        <time>2024-06-30T09:52:29Z</time>
      </trkpt>
      <trkpt lat="42.79878" lon="1.92747">
        <ele>1202.6</ele>
        <time>2024-06-30T09:52:30Z</time>
      </trkpt>
      <trkpt lat="42.79879" lon="1.92746">
        <ele>1203</ele>
        <time>2024-06-30T09:52:31Z</time>
      </trkpt>
      <trkpt lat="42.79879" lon="1.92745">
        <ele>1203.8</ele>
        <time>2024-06-30T09:52:32Z</time>
      </trkpt>
      <trkpt lat="42.79879" lon="1.92743">
        <ele>1204.2</ele>
        <time>2024-06-30T09:52:33Z</time>
      </trkpt>
      <trkpt lat="42.79878" lon="1.92741">
        <ele>1204.8</ele>
        <time>2024-06-30T09:52:34Z</time>
      </trkpt>
      <trkpt lat="42.79877" lon="1.92738">
        <ele>1205</ele>
        <time>2024-06-30T09:52:35Z</time>
      </trkpt>
      <trkpt lat="42.79877" lon="1.92735">
        <ele>1205.4</ele>
        <time>2024-06-30T09:52:36Z</time>
      </trkpt>
      <trkpt lat="42.79875" lon="1.92733">
        <ele>1205.4</ele>
        <time>2024-06-30T09:52:37Z</time>
      </trkpt>
      <trkpt lat="42.79872" lon="1.9273">
        <ele>1206</ele>
        <time>2024-06-30T09:52:38Z</time>
      </trkpt>
      <trkpt lat="42.7987" lon="1.92728">
        <ele>1206.4</ele>
        <time>2024-06-30T09:52:39Z</time>
      </trkpt>
      <trkpt lat="42.79867" lon="1.92725">
        <ele>1206.6</ele>
        <time>2024-06-30T09:52:40Z</time>
      </trkpt>
      <trkpt lat="42.79867" lon="1.92723">
        <ele>1207</ele>
        <time>2024-06-30T09:52:41Z</time>
      </trkpt>
      <trkpt lat="42.79866" lon="1.92721">
        <ele>1207.4</ele>
        <time>2024-06-30T09:52:42Z</time>
      </trkpt>
      <trkpt lat="42.79866" lon="1.92719">
        <ele>1207.6</ele>
        <time>2024-06-30T09:52:43Z</time>
      </trkpt>
      <trkpt lat="42.79864" lon="1.92716">
        <ele>1208</ele>
        <time>2024-06-30T09:52:44Z</time>
      </trkpt>
      <trkpt lat="42.79863" lon="1.92714">
        <ele>1208.4</ele>
        <time>2024-06-30T09:52:45Z</time>
      </trkpt>
      <trkpt lat="42.79861" lon="1.92712">
        <ele>1208.8</ele>
        <time>2024-06-30T09:52:46Z</time>
      </trkpt>
      <trkpt lat="42.7986" lon="1.92709">
        <ele>1209</ele>
        <time>2024-06-30T09:52:47Z</time>
      </trkpt>
      <trkpt lat="42.79859" lon="1.92706">
        <ele>1209.8</ele>
        <time>2024-06-30T09:52:48Z</time>
      </trkpt>
      <trkpt lat="42.79858" lon="1.92704">
        <ele>1210</ele>
        <time>2024-06-30T09:52:49Z</time>
      </trkpt>
      <trkpt lat="42.79856" lon="1.92702">
        <ele>1210.2</ele>
        <time>2024-06-30T09:52:50Z</time>
      </trkpt>
      <trkpt lat="42.79855" lon="1.927">
        <ele>1210.4</ele>
        <time>2024-06-30T09:52:51Z</time>
      </trkpt>
      <trkpt lat="42.79854" lon="1.92698">
        <ele>1210.8</ele>
        <time>2024-06-30T09:52:52Z</time>
      </trkpt>
      <trkpt lat="42.79853" lon="1.92695">
        <ele>1211.2</ele>
        <time>2024-06-30T09:52:53Z</time>
      </trkpt>
      <trkpt lat="42.79852" lon="1.92693">
        <ele>1211.6</ele>
        <time>2024-06-30T09:52:54Z</time>
      </trkpt>
      <trkpt lat="42.79851" lon="1.9269">
        <ele>1212</ele>
        <time>2024-06-30T09:52:55Z</time>
      </trkpt>
      <trkpt lat="42.7985" lon="1.92688">
        <ele>1212.6</ele>
        <time>2024-06-30T09:52:56Z</time>
      </trkpt>
      <trkpt lat="42.79849" lon="1.92687">
        <ele>1213</ele>
        <time>2024-06-30T09:52:57Z</time>
      </trkpt>
      <trkpt lat="42.79848" lon="1.92684">
        <ele>1213.2</ele>
        <time>2024-06-30T09:52:58Z</time>
      </trkpt>
      <trkpt lat="42.79847" lon="1.92682">
        <ele>1213.6</ele>
        <time>2024-06-30T09:52:59Z</time>
      </trkpt>
      <trkpt lat="42.79846" lon="1.9268">
        <ele>1214.2</ele>
        <time>2024-06-30T09:53:00Z</time>
      </trkpt>
      <trkpt lat="42.79846" lon="1.92678">
        <ele>1214.8</ele>
        <time>2024-06-30T09:53:01Z</time>
      </trkpt>
      <trkpt lat="42.79844" lon="1.92676">
        <ele>1214.8</ele>
        <time>2024-06-30T09:53:02Z</time>
      </trkpt>
      <trkpt lat="42.79842" lon="1.92674">
        <ele>1215.2</ele>
        <time>2024-06-30T09:53:03Z</time>
      </trkpt>
      <trkpt lat="42.79841" lon="1.92672">
        <ele>1215.8</ele>
        <time>2024-06-30T09:53:04Z</time>
      </trkpt>
      <trkpt lat="42.79838" lon="1.9267">
        <ele>1216</ele>
        <time>2024-06-30T09:53:05Z</time>
      </trkpt>
      <trkpt lat="42.79837" lon="1.92667">
        <ele>1216.6</ele>
        <time>2024-06-30T09:53:06Z</time>
      </trkpt>
      <trkpt lat="42.79836" lon="1.92666">
        <ele>1216.8</ele>
        <time>2024-06-30T09:53:07Z</time>
      </trkpt>
      <trkpt lat="42.79834" lon="1.92663">
        <ele>1217.4</ele>
        <time>2024-06-30T09:53:08Z</time>
      </trkpt>
      <trkpt lat="42.79833" lon="1.92662">
        <ele>1217.6</ele>
        <time>2024-06-30T09:53:09Z</time>
      </trkpt>
      <trkpt lat="42.79831" lon="1.9266">
        <ele>1218.2</ele>
        <time>2024-06-30T09:53:10Z</time>
      </trkpt>
      <trkpt lat="42.79829" lon="1.92658">
        <ele>1218.6</ele>
        <time>2024-06-30T09:53:11Z</time>
      </trkpt>
      <trkpt lat="42.79826" lon="1.92657">
        <ele>1218.6</ele>
        <time>2024-06-30T09:53:12Z</time>
      </trkpt>
      <trkpt lat="42.79824" lon="1.92655">
        <ele>1219.2</ele>
        <time>2024-06-30T09:53:13Z</time>
      </trkpt>
      <trkpt lat="42.79823" lon="1.92652">
        <ele>1219.6</ele>
        <time>2024-06-30T09:53:14Z</time>
      </trkpt>
      <trkpt lat="42.79822" lon="1.9265">
        <ele>1220</ele>
        <time>2024-06-30T09:53:15Z</time>
      </trkpt>
      <trkpt lat="42.79821" lon="1.92647">
        <ele>1220.2</ele>
        <time>2024-06-30T09:53:16Z</time>
      </trkpt>
      <trkpt lat="42.7982" lon="1.92644">
        <ele>1220.6</ele>
        <time>2024-06-30T09:53:17Z</time>
      </trkpt>
      <trkpt lat="42.79819" lon="1.92642">
        <ele>1220.8</ele>
        <time>2024-06-30T09:53:18Z</time>
      </trkpt>
      <trkpt lat="42.79817" lon="1.92639">
        <ele>1221</ele>
        <time>2024-06-30T09:53:19Z</time>
      </trkpt>
      <trkpt lat="42.79815" lon="1.92637">
        <ele>1221.6</ele>
        <time>2024-06-30T09:53:20Z</time>
      </trkpt>
      <trkpt lat="42.79813" lon="1.92634">
        <ele>1221.8</ele>
        <time>2024-06-30T09:53:21Z</time>
      </trkpt>
      <trkpt lat="42.79812" lon="1.92631">
        <ele>1222.2</ele>
        <time>2024-06-30T09:53:22Z</time>
      </trkpt>
      <trkpt lat="42.79811" lon="1.92629">
        <ele>1222.4</ele>
        <time>2024-06-30T09:53:23Z</time>
      </trkpt>
      <trkpt lat="42.79809" lon="1.92627">
        <ele>1222.8</ele>
        <time>2024-06-30T09:53:24Z</time>
      </trkpt>
      <trkpt lat="42.79808" lon="1.92625">
        <ele>1223</ele>
        <time>2024-06-30T09:53:25Z</time>
      </trkpt>
      <trkpt lat="42.79807" lon="1.92623">
        <ele>1223.6</ele>
        <time>2024-06-30T09:53:26Z</time>
      </trkpt>
      <trkpt lat="42.79806" lon="1.9262">
        <ele>1224</ele>
        <time>2024-06-30T09:53:27Z</time>
      </trkpt>
      <trkpt lat="42.79804" lon="1.92618">
        <ele>1224.2</ele>
        <time>2024-06-30T09:53:28Z</time>
      </trkpt>
      <trkpt lat="42.79803" lon="1.92615">
        <ele>1224.6</ele>
        <time>2024-06-30T09:53:29Z</time>
      </trkpt>
      <trkpt lat="42.79802" lon="1.92613">
        <ele>1225</ele>
        <time>2024-06-30T09:53:30Z</time>
      </trkpt>
      <trkpt lat="42.79802" lon="1.9261">
        <ele>1225.4</ele>
        <time>2024-06-30T09:53:31Z</time>
      </trkpt>
      <trkpt lat="42.79801" lon="1.92608">
        <ele>1225.6</ele>
        <time>2024-06-30T09:53:32Z</time>
      </trkpt>
      <trkpt lat="42.79801" lon="1.92605">
        <ele>1225.8</ele>
        <time>2024-06-30T09:53:33Z</time>
      </trkpt>
      <trkpt lat="42.798" lon="1.92602">
        <ele>1226.2</ele>
        <time>2024-06-30T09:53:34Z</time>
      </trkpt>
      <trkpt lat="42.79799" lon="1.926">
        <ele>1226.2</ele>
        <time>2024-06-30T09:53:35Z</time>
      </trkpt>
      <trkpt lat="42.79798" lon="1.92597">
        <ele>1226.4</ele>
        <time>2024-06-30T09:53:36Z</time>
      </trkpt>
      <trkpt lat="42.79797" lon="1.92594">
        <ele>1226.4</ele>
        <time>2024-06-30T09:53:37Z</time>
      </trkpt>
      <trkpt lat="42.79796" lon="1.92592">
        <ele>1227.2</ele>
        <time>2024-06-30T09:53:38Z</time>
      </trkpt>
      <trkpt lat="42.79796" lon="1.9259">
        <ele>1227.4</ele>
        <time>2024-06-30T09:53:39Z</time>
      </trkpt>
      <trkpt lat="42.79796" lon="1.92588">
        <ele>1227.6</ele>
        <time>2024-06-30T09:53:40Z</time>
      </trkpt>
      <trkpt lat="42.79795" lon="1.92586">
        <ele>1228</ele>
        <time>2024-06-30T09:53:41Z</time>
      </trkpt>
      <trkpt lat="42.79794" lon="1.92583">
        <ele>1228.4</ele>
        <time>2024-06-30T09:53:42Z</time>
      </trkpt>
      <trkpt lat="42.79793" lon="1.92581">
        <ele>1228.8</ele>
        <time>2024-06-30T09:53:43Z</time>
      </trkpt>
      <trkpt lat="42.79792" lon="1.92578">
        <ele>1229</ele>
        <time>2024-06-30T09:53:44Z</time>
      </trkpt>
      <trkpt lat="42.79791" lon="1.92576">
        <ele>1229.6</ele>
        <time>2024-06-30T09:53:45Z</time>
      </trkpt>
      <trkpt lat="42.7979" lon="1.92573">
        <ele>1229.6</ele>
        <time>2024-06-30T09:53:46Z</time>
      </trkpt>
      <trkpt lat="42.7979" lon="1.92571">
        <ele>1230</ele>
        <time>2024-06-30T09:53:47Z</time>
      </trkpt>
      <trkpt lat="42.79789" lon="1.92569">
        <ele>1230</ele>
        <time>2024-06-30T09:53:48Z</time>
      </trkpt>
      <trkpt lat="42.79788" lon="1.92566">
        <ele>1230.6</ele>
        <time>2024-06-30T09:53:49Z</time>
      </trkpt>
      <trkpt lat="42.79787" lon="1.92564">
        <ele>1230.8</ele>
        <time>2024-06-30T09:53:50Z</time>
      </trkpt>
      <trkpt lat="42.79787" lon="1.92561">
        <ele>1230.8</ele>
        <time>2024-06-30T09:53:51Z</time>
      </trkpt>
      <trkpt lat="42.79786" lon="1.92559">
        <ele>1231.2</ele>
        <time>2024-06-30T09:53:52Z</time>
      </trkpt>
      <trkpt lat="42.79785" lon="1.92556">
        <ele>1231.4</ele>
        <time>2024-06-30T09:53:53Z</time>
      </trkpt>
      <trkpt lat="42.79783" lon="1.92553">
        <ele>1232</ele>
        <time>2024-06-30T09:53:54Z</time>
      </trkpt>
      <trkpt lat="42.79783" lon="1.9255">
        <ele>1232</ele>
        <time>2024-06-30T09:53:55Z</time>
      </trkpt>
      <trkpt lat="42.79782" lon="1.92547">
        <ele>1232.6</ele>
        <time>2024-06-30T09:53:56Z</time>
      </trkpt>
      <trkpt lat="42.79781" lon="1.92544">
        <ele>1232.8</ele>
        <time>2024-06-30T09:53:57Z</time>
      </trkpt>
      <trkpt lat="42.79779" lon="1.92542">
        <ele>1234</ele>
        <time>2024-06-30T09:53:58Z</time>
      </trkpt>
      <trkpt lat="42.79778" lon="1.9254">
        <ele>1234.8</ele>
        <time>2024-06-30T09:53:59Z</time>
      </trkpt>
      <trkpt lat="42.79777" lon="1.92537">
        <ele>1235</ele>
        <time>2024-06-30T09:54:00Z</time>
      </trkpt>
      <trkpt lat="42.79776" lon="1.92535">
        <ele>1235.2</ele>
        <time>2024-06-30T09:54:01Z</time>
      </trkpt>
      <trkpt lat="42.79773" lon="1.92532">
        <ele>1235.4</ele>
        <time>2024-06-30T09:54:02Z</time>
      </trkpt>
      <trkpt lat="42.79772" lon="1.9253">
        <ele>1235.8</ele>
        <time>2024-06-30T09:54:03Z</time>
      </trkpt>
      <trkpt lat="42.7977" lon="1.92528">
        <ele>1236</ele>
        <time>2024-06-30T09:54:04Z</time>
      </trkpt>
      <trkpt lat="42.79769" lon="1.92525">
        <ele>1236.4</ele>
        <time>2024-06-30T09:54:05Z</time>
      </trkpt>
      <trkpt lat="42.79767" lon="1.92523">
        <ele>1236.8</ele>
        <time>2024-06-30T09:54:06Z</time>
      </trkpt>
      <trkpt lat="42.79766" lon="1.9252">
        <ele>1237.2</ele>
        <time>2024-06-30T09:54:07Z</time>
      </trkpt>
      <trkpt lat="42.79765" lon="1.92518">
        <ele>1237.6</ele>
        <time>2024-06-30T09:54:08Z</time>
      </trkpt>
      <trkpt lat="42.79764" lon="1.92516">
        <ele>1238</ele>
        <time>2024-06-30T09:54:09Z</time>
      </trkpt>
      <trkpt lat="42.79762" lon="1.92514">
        <ele>1238.4</ele>
        <time>2024-06-30T09:54:10Z</time>
      </trkpt>
      <trkpt lat="42.79761" lon="1.92512">
        <ele>1238.4</ele>
        <time>2024-06-30T09:54:11Z</time>
      </trkpt>
      <trkpt lat="42.79759" lon="1.9251">
        <ele>1238.6</ele>
        <time>2024-06-30T09:54:12Z</time>
      </trkpt>
      <trkpt lat="42.79758" lon="1.92507">
        <ele>1238.8</ele>
        <time>2024-06-30T09:54:13Z</time>
      </trkpt>
      <trkpt lat="42.79757" lon="1.92504">
        <ele>1239.2</ele>
        <time>2024-06-30T09:54:14Z</time>
      </trkpt>
      <trkpt lat="42.79756" lon="1.92501">
        <ele>1239.4</ele>
        <time>2024-06-30T09:54:15Z</time>
      </trkpt>
      <trkpt lat="42.79755" lon="1.92499">
        <ele>1239.6</ele>
        <time>2024-06-30T09:54:16Z</time>
      </trkpt>
      <trkpt lat="42.79753" lon="1.92496">
        <ele>1239.8</ele>
        <time>2024-06-30T09:54:17Z</time>
      </trkpt>
      <trkpt lat="42.79752" lon="1.92493">
        <ele>1240</ele>
        <time>2024-06-30T09:54:18Z</time>
      </trkpt>
      <trkpt lat="42.79751" lon="1.9249">
        <ele>1240.2</ele>
        <time>2024-06-30T09:54:19Z</time>
      </trkpt>
      <trkpt lat="42.7975" lon="1.92488">
        <ele>1240.2</ele>
        <time>2024-06-30T09:54:20Z</time>
      </trkpt>
      <trkpt lat="42.79749" lon="1.92485">
        <ele>1240.6</ele>
        <time>2024-06-30T09:54:21Z</time>
      </trkpt>
      <trkpt lat="42.79748" lon="1.92482">
        <ele>1241</ele>
        <time>2024-06-30T09:54:22Z</time>
      </trkpt>
      <trkpt lat="42.79747" lon="1.9248">
        <ele>1241.6</ele>
        <time>2024-06-30T09:54:23Z</time>
      </trkpt>
      <trkpt lat="42.79745" lon="1.92477">
        <ele>1242</ele>
        <time>2024-06-30T09:54:24Z</time>
      </trkpt>
      <trkpt lat="42.79743" lon="1.92474">
        <ele>1242</ele>
        <time>2024-06-30T09:54:25Z</time>
      </trkpt>
      <trkpt lat="42.79741" lon="1.92472">
        <ele>1242.4</ele>
        <time>2024-06-30T09:54:26Z</time>
      </trkpt>
      <trkpt lat="42.79739" lon="1.9247">
        <ele>1242.4</ele>
        <time>2024-06-30T09:54:27Z</time>
      </trkpt>
      <trkpt lat="42.79737" lon="1.92469">
        <ele>1242.8</ele>
        <time>2024-06-30T09:54:28Z</time>
      </trkpt>
      <trkpt lat="42.79735" lon="1.92467">
        <ele>1243</ele>
        <time>2024-06-30T09:54:29Z</time>
      </trkpt>
      <trkpt lat="42.79733" lon="1.92465">
        <ele>1243.4</ele>
        <time>2024-06-30T09:54:30Z</time>
      </trkpt>
      <trkpt lat="42.7973" lon="1.92463">
        <ele>1243.8</ele>
        <time>2024-06-30T09:54:31Z</time>
      </trkpt>
      <trkpt lat="42.79728" lon="1.92462">
        <ele>1243.8</ele>
        <time>2024-06-30T09:54:32Z</time>
      </trkpt>
      <trkpt lat="42.79725" lon="1.92461">
        <ele>1244</ele>
        <time>2024-06-30T09:54:33Z</time>
      </trkpt>
      <trkpt lat="42.79722" lon="1.92461">
        <ele>1244</ele>
        <time>2024-06-30T09:54:34Z</time>
      </trkpt>
      <trkpt lat="42.7972" lon="1.9246">
        <ele>1244.2</ele>
        <time>2024-06-30T09:54:35Z</time>
      </trkpt>
      <trkpt lat="42.79718" lon="1.9246">
        <ele>1244.4</ele>
        <time>2024-06-30T09:54:36Z</time>
      </trkpt>
      <trkpt lat="42.79716" lon="1.9246">
        <ele>1244.6</ele>
        <time>2024-06-30T09:54:37Z</time>
      </trkpt>
      <trkpt lat="42.79714" lon="1.9246">
        <ele>1244.8</ele>
        <time>2024-06-30T09:54:38Z</time>
      </trkpt>
      <trkpt lat="42.79711" lon="1.92459">
        <ele>1244.8</ele>
        <time>2024-06-30T09:54:39Z</time>
      </trkpt>
      <trkpt lat="42.79709" lon="1.92459">
        <ele>1245.2</ele>
        <time>2024-06-30T09:54:40Z</time>
      </trkpt>
      <trkpt lat="42.79707" lon="1.92458">
        <ele>1245.4</ele>
        <time>2024-06-30T09:54:41Z</time>
      </trkpt>
      <trkpt lat="42.79705" lon="1.92458">
        <ele>1245.8</ele>
        <time>2024-06-30T09:54:42Z</time>
      </trkpt>
      <trkpt lat="42.79703" lon="1.92457">
        <ele>1246</ele>
        <time>2024-06-30T09:54:43Z</time>
      </trkpt>
      <trkpt lat="42.79701" lon="1.92457">
        <ele>1246.4</ele>
        <time>2024-06-30T09:54:44Z</time>
      </trkpt>
      <trkpt lat="42.79699" lon="1.92456">
        <ele>1246.6</ele>
        <time>2024-06-30T09:54:45Z</time>
      </trkpt>
      <trkpt lat="42.79697" lon="1.92455">
        <ele>1246.8</ele>
        <time>2024-06-30T09:54:46Z</time>
      </trkpt>
      <trkpt lat="42.79694" lon="1.92455">
        <ele>1247.2</ele>
        <time>2024-06-30T09:54:47Z</time>
      </trkpt>
      <trkpt lat="42.79692" lon="1.92454">
        <ele>1247.4</ele>
        <time>2024-06-30T09:54:48Z</time>
      </trkpt>
      <trkpt lat="42.7969" lon="1.92454">
        <ele>1247.6</ele>
        <time>2024-06-30T09:54:49Z</time>
      </trkpt>
      <trkpt lat="42.79688" lon="1.92454">
        <ele>1247.8</ele>
        <time>2024-06-30T09:54:50Z</time>
      </trkpt>
      <trkpt lat="42.79686" lon="1.92453">
        <ele>1248.2</ele>
        <time>2024-06-30T09:54:51Z</time>
      </trkpt>
      <trkpt lat="42.79684" lon="1.92453">
        <ele>1248.4</ele>
        <time>2024-06-30T09:54:52Z</time>
      </trkpt>
      <trkpt lat="42.79682" lon="1.92453">
        <ele>1248.6</ele>
        <time>2024-06-30T09:54:53Z</time>
      </trkpt>
      <trkpt lat="42.79679" lon="1.92453">
        <ele>1248.8</ele>
        <time>2024-06-30T09:54:54Z</time>
      </trkpt>
      <trkpt lat="42.79678" lon="1.92453">
        <ele>1249.2</ele>
        <time>2024-06-30T09:54:55Z</time>
      </trkpt>
      <trkpt lat="42.79676" lon="1.92453">
        <ele>1249.8</ele>
        <time>2024-06-30T09:54:56Z</time>
      </trkpt>
      <trkpt lat="42.79674" lon="1.92453">
        <ele>1249.8</ele>
        <time>2024-06-30T09:54:57Z</time>
      </trkpt>
      <trkpt lat="42.79672" lon="1.92452">
        <ele>1250.2</ele>
        <time>2024-06-30T09:54:58Z</time>
      </trkpt>
      <trkpt lat="42.7967" lon="1.92452">
        <ele>1250.4</ele>
        <time>2024-06-30T09:54:59Z</time>
      </trkpt>
      <trkpt lat="42.79668" lon="1.92451">
        <ele>1250.8</ele>
        <time>2024-06-30T09:55:00Z</time>
      </trkpt>
      <trkpt lat="42.79667" lon="1.9245">
        <ele>1251.2</ele>
        <time>2024-06-30T09:55:01Z</time>
      </trkpt>
      <trkpt lat="42.79665" lon="1.9245">
        <ele>1251.6</ele>
        <time>2024-06-30T09:55:02Z</time>
      </trkpt>
      <trkpt lat="42.79663" lon="1.92449">
        <ele>1251.6</ele>
        <time>2024-06-30T09:55:03Z</time>
      </trkpt>
      <trkpt lat="42.79661" lon="1.92449">
        <ele>1252</ele>
        <time>2024-06-30T09:55:04Z</time>
      </trkpt>
      <trkpt lat="42.79658" lon="1.92449">
        <ele>1252.4</ele>
        <time>2024-06-30T09:55:05Z</time>
      </trkpt>
      <trkpt lat="42.79656" lon="1.92448">
        <ele>1252.6</ele>
        <time>2024-06-30T09:55:06Z</time>
      </trkpt>
      <trkpt lat="42.79653" lon="1.92447">
        <ele>1253.2</ele>
        <time>2024-06-30T09:55:07Z</time>
      </trkpt>
      <trkpt lat="42.79651" lon="1.92447">
        <ele>1253.2</ele>
        <time>2024-06-30T09:55:08Z</time>
      </trkpt>
      <trkpt lat="42.79649" lon="1.92447">
        <ele>1253.4</ele>
        <time>2024-06-30T09:55:09Z</time>
      </trkpt>
      <trkpt lat="42.79646" lon="1.92447">
        <ele>1253.6</ele>
        <time>2024-06-30T09:55:10Z</time>
      </trkpt>
      <trkpt lat="42.79644" lon="1.92447">
        <ele>1253.8</ele>
        <time>2024-06-30T09:55:11Z</time>
      </trkpt>
      <trkpt lat="42.79641" lon="1.92446">
        <ele>1254.2</ele>
        <time>2024-06-30T09:55:12Z</time>
      </trkpt>
      <trkpt lat="42.79639" lon="1.92445">
        <ele>1254.4</ele>
        <time>2024-06-30T09:55:13Z</time>
      </trkpt>
      <trkpt lat="42.79635" lon="1.92445">
        <ele>1254.8</ele>
        <time>2024-06-30T09:55:14Z</time>
      </trkpt>
      <trkpt lat="42.79633" lon="1.92445">
        <ele>1255</ele>
        <time>2024-06-30T09:55:15Z</time>
      </trkpt>
      <trkpt lat="42.79631" lon="1.92444">
        <ele>1255.2</ele>
        <time>2024-06-30T09:55:16Z</time>
      </trkpt>
      <trkpt lat="42.79629" lon="1.92444">
        <ele>1255.4</ele>
        <time>2024-06-30T09:55:17Z</time>
      </trkpt>
      <trkpt lat="42.79626" lon="1.92444">
        <ele>1255.6</ele>
        <time>2024-06-30T09:55:18Z</time>
      </trkpt>
      <trkpt lat="42.79624" lon="1.92443">
        <ele>1255.8</ele>
        <time>2024-06-30T09:55:19Z</time>
      </trkpt>
      <trkpt lat="42.79622" lon="1.92443">
        <ele>1256.2</ele>
        <time>2024-06-30T09:55:20Z</time>
      </trkpt>
      <trkpt lat="42.79619" lon="1.92443">
        <ele>1256.6</ele>
        <time>2024-06-30T09:55:21Z</time>
      </trkpt>
      <trkpt lat="42.79617" lon="1.92443">
        <ele>1256.8</ele>
        <time>2024-06-30T09:55:22Z</time>
      </trkpt>
      <trkpt lat="42.79614" lon="1.92443">
        <ele>1257.2</ele>
        <time>2024-06-30T09:55:23Z</time>
      </trkpt>
      <trkpt lat="42.79612" lon="1.92442">
        <ele>1257.4</ele>
        <time>2024-06-30T09:55:24Z</time>
      </trkpt>
      <trkpt lat="42.7961" lon="1.92442">
        <ele>1257.8</ele>
        <time>2024-06-30T09:55:25Z</time>
      </trkpt>
      <trkpt lat="42.79607" lon="1.92442">
        <ele>1257.8</ele>
        <time>2024-06-30T09:55:26Z</time>
      </trkpt>
      <trkpt lat="42.79605" lon="1.92441">
        <ele>1258.2</ele>
        <time>2024-06-30T09:55:27Z</time>
      </trkpt>
      <trkpt lat="42.79602" lon="1.9244">
        <ele>1258.6</ele>
        <time>2024-06-30T09:55:28Z</time>
      </trkpt>
      <trkpt lat="42.796" lon="1.9244">
        <ele>1258.8</ele>
        <time>2024-06-30T09:55:29Z</time>
      </trkpt>
      <trkpt lat="42.79598" lon="1.92439">
        <ele>1259</ele>
        <time>2024-06-30T09:55:30Z</time>
      </trkpt>
      <trkpt lat="42.79595" lon="1.92439">
        <ele>1259</ele>
        <time>2024-06-30T09:55:31Z</time>
      </trkpt>
      <trkpt lat="42.79593" lon="1.92439">
        <ele>1259.4</ele>
        <time>2024-06-30T09:55:32Z</time>
      </trkpt>
      <trkpt lat="42.79591" lon="1.92439">
        <ele>1259.4</ele>
        <time>2024-06-30T09:55:33Z</time>
      </trkpt>
      <trkpt lat="42.79589" lon="1.9244">
        <ele>1259.8</ele>
        <time>2024-06-30T09:55:34Z</time>
      </trkpt>
      <trkpt lat="42.79586" lon="1.9244">
        <ele>1260</ele>
        <time>2024-06-30T09:55:35Z</time>
      </trkpt>
      <trkpt lat="42.79584" lon="1.92441">
        <ele>1260.4</ele>
        <time>2024-06-30T09:55:36Z</time>
      </trkpt>
      <trkpt lat="42.79581" lon="1.92442">
        <ele>1260.6</ele>
        <time>2024-06-30T09:55:37Z</time>
      </trkpt>
      <trkpt lat="42.79579" lon="1.92443">
        <ele>1260.8</ele>
        <time>2024-06-30T09:55:38Z</time>
      </trkpt>
      <trkpt lat="42.79577" lon="1.92444">
        <ele>1261</ele>
        <time>2024-06-30T09:55:39Z</time>
      </trkpt>
      <trkpt lat="42.79574" lon="1.92445">
        <ele>1261</ele>
        <time>2024-06-30T09:55:40Z</time>
      </trkpt>
      <trkpt lat="42.79573" lon="1.92446">
        <ele>1261.2</ele>
        <time>2024-06-30T09:55:41Z</time>
      </trkpt>
      <trkpt lat="42.7957" lon="1.92447">
        <ele>1261.4</ele>
        <time>2024-06-30T09:55:42Z</time>
      </trkpt>
      <trkpt lat="42.79568" lon="1.92449">
        <ele>1261.6</ele>
        <time>2024-06-30T09:55:43Z</time>
      </trkpt>
      <trkpt lat="42.79566" lon="1.9245">
        <ele>1262</ele>
        <time>2024-06-30T09:55:44Z</time>
      </trkpt>
      <trkpt lat="42.79563" lon="1.92452">
        <ele>1262.2</ele>
        <time>2024-06-30T09:55:45Z</time>
      </trkpt>
      <trkpt lat="42.79561" lon="1.92454">
        <ele>1262.4</ele>
        <time>2024-06-30T09:55:46Z</time>
      </trkpt>
      <trkpt lat="42.79559" lon="1.92455">
        <ele>1262.6</ele>
        <time>2024-06-30T09:55:47Z</time>
      </trkpt>
      <trkpt lat="42.79558" lon="1.92457">
        <ele>1262.8</ele>
        <time>2024-06-30T09:55:48Z</time>
      </trkpt>
      <trkpt lat="42.79556" lon="1.92459">
        <ele>1262.8</ele>
        <time>2024-06-30T09:55:49Z</time>
      </trkpt>
      <trkpt lat="42.79554" lon="1.92461">
        <ele>1263</ele>
        <time>2024-06-30T09:55:50Z</time>
      </trkpt>
      <trkpt lat="42.79553" lon="1.92464">
        <ele>1263.2</ele>
        <time>2024-06-30T09:55:51Z</time>
      </trkpt>
      <trkpt lat="42.79551" lon="1.92466">
        <ele>1263.4</ele>
        <time>2024-06-30T09:55:52Z</time>
      </trkpt>
      <trkpt lat="42.7955" lon="1.92468">
        <ele>1263.8</ele>
        <time>2024-06-30T09:55:53Z</time>
      </trkpt>
      <trkpt lat="42.79549" lon="1.92471">
        <ele>1264.2</ele>
        <time>2024-06-30T09:55:54Z</time>
      </trkpt>
      <trkpt lat="42.79547" lon="1.92474">
        <ele>1264.6</ele>
        <time>2024-06-30T09:55:55Z</time>
      </trkpt>
      <trkpt lat="42.79546" lon="1.92476">
        <ele>1264.8</ele>
        <time>2024-06-30T09:55:56Z</time>
      </trkpt>
      <trkpt lat="42.79545" lon="1.92479">
        <ele>1265</ele>
        <time>2024-06-30T09:55:57Z</time>
      </trkpt>
      <trkpt lat="42.79544" lon="1.92482">
        <ele>1265.2</ele>
        <time>2024-06-30T09:55:58Z</time>
      </trkpt>
      <trkpt lat="42.79542" lon="1.92485">
        <ele>1265.2</ele>
        <time>2024-06-30T09:55:59Z</time>
      </trkpt>
      <trkpt lat="42.7954" lon="1.92488">
        <ele>1265.4</ele>
        <time>2024-06-30T09:56:00Z</time>
      </trkpt>
      <trkpt lat="42.79539" lon="1.9249">
        <ele>1265.6</ele>
        <time>2024-06-30T09:56:01Z</time>
      </trkpt>
      <trkpt lat="42.79538" lon="1.92493">
        <ele>1266</ele>
        <time>2024-06-30T09:56:02Z</time>
      </trkpt>
      <trkpt lat="42.79536" lon="1.92496">
        <ele>1266.4</ele>
        <time>2024-06-30T09:56:03Z</time>
      </trkpt>
      <trkpt lat="42.79535" lon="1.92498">
        <ele>1266.8</ele>
        <time>2024-06-30T09:56:04Z</time>
      </trkpt>
      <trkpt lat="42.79533" lon="1.92501">
        <ele>1266.8</ele>
        <time>2024-06-30T09:56:05Z</time>
      </trkpt>
      <trkpt lat="42.79532" lon="1.92504">
        <ele>1267</ele>
        <time>2024-06-30T09:56:06Z</time>
      </trkpt>
      <trkpt lat="42.79531" lon="1.92507">
        <ele>1267.2</ele>
        <time>2024-06-30T09:56:07Z</time>
      </trkpt>
      <trkpt lat="42.7953" lon="1.92509">
        <ele>1267.6</ele>
        <time>2024-06-30T09:56:08Z</time>
      </trkpt>
      <trkpt lat="42.79528" lon="1.92512">
        <ele>1268</ele>
        <time>2024-06-30T09:56:09Z</time>
      </trkpt>
      <trkpt lat="42.79526" lon="1.92515">
        <ele>1268</ele>
        <time>2024-06-30T09:56:10Z</time>
      </trkpt>
      <trkpt lat="42.79524" lon="1.92518">
        <ele>1268.4</ele>
        <time>2024-06-30T09:56:11Z</time>
      </trkpt>
      <trkpt lat="42.79523" lon="1.92521">
        <ele>1268.6</ele>
        <time>2024-06-30T09:56:12Z</time>
      </trkpt>
      <trkpt lat="42.79521" lon="1.92524">
        <ele>1269</ele>
        <time>2024-06-30T09:56:13Z</time>
      </trkpt>
      <trkpt lat="42.79519" lon="1.92527">
        <ele>1269.2</ele>
        <time>2024-06-30T09:56:14Z</time>
      </trkpt>
      <trkpt lat="42.79517" lon="1.9253">
        <ele>1269.4</ele>
        <time>2024-06-30T09:56:15Z</time>
      </trkpt>
      <trkpt lat="42.79515" lon="1.92533">
        <ele>1269.4</ele>
        <time>2024-06-30T09:56:16Z</time>
      </trkpt>
      <trkpt lat="42.79514" lon="1.92537">
        <ele>1269.4</ele>
        <time>2024-06-30T09:56:17Z</time>
      </trkpt>
      <trkpt lat="42.79512" lon="1.9254">
        <ele>1269.4</ele>
        <time>2024-06-30T09:56:18Z</time>
      </trkpt>
      <trkpt lat="42.7951" lon="1.92544">
        <ele>1269.4</ele>
        <time>2024-06-30T09:56:19Z</time>
      </trkpt>
      <trkpt lat="42.79508" lon="1.92548">
        <ele>1269.4</ele>
        <time>2024-06-30T09:56:20Z</time>
      </trkpt>
      <trkpt lat="42.79506" lon="1.92552">
        <ele>1269.4</ele>
        <time>2024-06-30T09:56:21Z</time>
      </trkpt>
      <trkpt lat="42.79504" lon="1.92556">
        <ele>1269.4</ele>
        <time>2024-06-30T09:56:22Z</time>
      </trkpt>
      <trkpt lat="42.79501" lon="1.92561">
        <ele>1269.4</ele>
        <time>2024-06-30T09:56:23Z</time>
      </trkpt>
      <trkpt lat="42.79498" lon="1.92566">
        <ele>1269.4</ele>
        <time>2024-06-30T09:56:24Z</time>
      </trkpt>
      <trkpt lat="42.79495" lon="1.92571">
        <ele>1269.4</ele>
        <time>2024-06-30T09:56:25Z</time>
      </trkpt>
      <trkpt lat="42.79492" lon="1.92576">
        <ele>1269.2</ele>
        <time>2024-06-30T09:56:26Z</time>
      </trkpt>
      <trkpt lat="42.79489" lon="1.92582">
        <ele>1269.2</ele>
        <time>2024-06-30T09:56:27Z</time>
      </trkpt>
      <trkpt lat="42.79485" lon="1.92588">
        <ele>1269</ele>
        <time>2024-06-30T09:56:28Z</time>
      </trkpt>
      <trkpt lat="42.79481" lon="1.92595">
        <ele>1269</ele>
        <time>2024-06-30T09:56:29Z</time>
      </trkpt>
      <trkpt lat="42.79477" lon="1.92603">
        <ele>1268.8</ele>
        <time>2024-06-30T09:56:30Z</time>
      </trkpt>
      <trkpt lat="42.79473" lon="1.92611">
        <ele>1268.6</ele>
        <time>2024-06-30T09:56:31Z</time>
      </trkpt>
      <trkpt lat="42.79469" lon="1.92619">
        <ele>1268.6</ele>
        <time>2024-06-30T09:56:32Z</time>
      </trkpt>
      <trkpt lat="42.79459" lon="1.92639">
        <ele>1267.8</ele>
        <time>2024-06-30T09:56:34Z</time>
      </trkpt>
      <trkpt lat="42.79447" lon="1.9266">
        <ele>1267.4</ele>
        <time>2024-06-30T09:56:36Z</time>
      </trkpt>
      <trkpt lat="42.79434" lon="1.92684">
        <ele>1266.2</ele>
        <time>2024-06-30T09:56:38Z</time>
      </trkpt>
      <trkpt lat="42.79406" lon="1.92738">
        <ele>1263.4</ele>
        <time>2024-06-30T09:56:42Z</time>
      </trkpt>
      <trkpt lat="42.79399" lon="1.92752">
        <ele>1261.8</ele>
        <time>2024-06-30T09:56:43Z</time>
      </trkpt>
      <trkpt lat="42.79393" lon="1.92766">
        <ele>1261.4</ele>
        <time>2024-06-30T09:56:44Z</time>
      </trkpt>
      <trkpt lat="42.79386" lon="1.92779">
        <ele>1260</ele>
        <time>2024-06-30T09:56:45Z</time>
      </trkpt>
      <trkpt lat="42.7938" lon="1.92791">
        <ele>1259</ele>
        <time>2024-06-30T09:56:46Z</time>
      </trkpt>
      <trkpt lat="42.79373" lon="1.92802">
        <ele>1257.6</ele>
        <time>2024-06-30T09:56:47Z</time>
      </trkpt>
      <trkpt lat="42.79367" lon="1.92812">
        <ele>1257.2</ele>
        <time>2024-06-30T09:56:48Z</time>
      </trkpt>
      <trkpt lat="42.79361" lon="1.92822">
        <ele>1256.4</ele>
        <time>2024-06-30T09:56:49Z</time>
      </trkpt>
      <trkpt lat="42.79356" lon="1.92832">
        <ele>1255.6</ele>
        <time>2024-06-30T09:56:50Z</time>
      </trkpt>
      <trkpt lat="42.79352" lon="1.92841">
        <ele>1255</ele>
        <time>2024-06-30T09:56:51Z</time>
      </trkpt>
      <trkpt lat="42.79347" lon="1.92849">
        <ele>1254.4</ele>
        <time>2024-06-30T09:56:52Z</time>
      </trkpt>
      <trkpt lat="42.79344" lon="1.92857">
        <ele>1254.2</ele>
        <time>2024-06-30T09:56:53Z</time>
      </trkpt>
      <trkpt lat="42.7934" lon="1.92864">
        <ele>1254</ele>
        <time>2024-06-30T09:56:54Z</time>
      </trkpt>
      <trkpt lat="42.79337" lon="1.92871">
        <ele>1253.8</ele>
        <time>2024-06-30T09:56:55Z</time>
      </trkpt>
      <trkpt lat="42.79334" lon="1.92876">
        <ele>1253.8</ele>
        <time>2024-06-30T09:56:56Z</time>
      </trkpt>
      <trkpt lat="42.79331" lon="1.92881">
        <ele>1253.8</ele>
        <time>2024-06-30T09:56:57Z</time>
      </trkpt>
      <trkpt lat="42.79328" lon="1.92886">
        <ele>1253.8</ele>
        <time>2024-06-30T09:56:58Z</time>
      </trkpt>
      <trkpt lat="42.79326" lon="1.92891">
        <ele>1253.8</ele>
        <time>2024-06-30T09:56:59Z</time>
      </trkpt>
      <trkpt lat="42.79323" lon="1.92895">
        <ele>1253.8</ele>
        <time>2024-06-30T09:57:00Z</time>
      </trkpt>
      <trkpt lat="42.79321" lon="1.929">
        <ele>1253.8</ele>
        <time>2024-06-30T09:57:01Z</time>
      </trkpt>
      <trkpt lat="42.79314" lon="1.92912">
        <ele>1254</ele>
        <time>2024-06-30T09:57:04Z</time>
      </trkpt>
      <trkpt lat="42.79312" lon="1.92915">
        <ele>1254</ele>
        <time>2024-06-30T09:57:05Z</time>
      </trkpt>
      <trkpt lat="42.79309" lon="1.92919">
        <ele>1254</ele>
        <time>2024-06-30T09:57:06Z</time>
      </trkpt>
      <trkpt lat="42.79303" lon="1.92929">
        <ele>1254.2</ele>
        <time>2024-06-30T09:57:09Z</time>
      </trkpt>
      <trkpt lat="42.79301" lon="1.92932">
        <ele>1254.4</ele>
        <time>2024-06-30T09:57:10Z</time>
      </trkpt>
      <trkpt lat="42.79298" lon="1.92934">
        <ele>1254.2</ele>
        <time>2024-06-30T09:57:11Z</time>
      </trkpt>
      <trkpt lat="42.79296" lon="1.92936">
        <ele>1254.4</ele>
        <time>2024-06-30T09:57:12Z</time>
      </trkpt>
      <trkpt lat="42.79295" lon="1.92938">
        <ele>1254.6</ele>
        <time>2024-06-30T09:57:13Z</time>
      </trkpt>
      <trkpt lat="42.79293" lon="1.92939">
        <ele>1254.8</ele>
        <time>2024-06-30T09:57:14Z</time>
      </trkpt>
      <trkpt lat="42.79293" lon="1.92941">
        <ele>1255.4</ele>
        <time>2024-06-30T09:57:15Z</time>
      </trkpt>
      <trkpt lat="42.79293" lon="1.92942">
        <ele>1255.6</ele>
        <time>2024-06-30T09:57:16Z</time>
      </trkpt>
      <trkpt lat="42.79294" lon="1.92942">
        <ele>1255.8</ele>
        <time>2024-06-30T09:57:17Z</time>
      </trkpt>
      <trkpt lat="42.79295" lon="1.92942">
        <ele>1255.8</ele>
        <time>2024-06-30T09:57:18Z</time>
      </trkpt>
      <trkpt lat="42.79297" lon="1.92938">
        <ele>1256</ele>
        <time>2024-06-30T09:57:20Z</time>
      </trkpt>
      <trkpt lat="42.79306" lon="1.92923">
        <ele>1256</ele>
        <time>2024-06-30T09:57:24Z</time>
      </trkpt>
      <trkpt lat="42.79315" lon="1.92909">
        <ele>1255.8</ele>
        <time>2024-06-30T09:57:27Z</time>
      </trkpt>
      <trkpt lat="42.79321" lon="1.92898">
        <ele>1255.6</ele>
        <time>2024-06-30T09:57:29Z</time>
      </trkpt>
      <trkpt lat="42.79334" lon="1.92875">
        <ele>1255.2</ele>
        <time>2024-06-30T09:57:33Z</time>
      </trkpt>
      <trkpt lat="42.79348" lon="1.9285">
        <ele>1254.8</ele>
        <time>2024-06-30T09:57:37Z</time>
      </trkpt>
      <trkpt lat="42.79358" lon="1.92829">
        <ele>1254.2</ele>
        <time>2024-06-30T09:57:40Z</time>
      </trkpt>
      <trkpt lat="42.79377" lon="1.92796">
        <ele>1253.4</ele>
        <time>2024-06-30T09:57:45Z</time>
      </trkpt>
      <trkpt lat="42.79379" lon="1.92789">
        <ele>1253</ele>
        <time>2024-06-30T09:57:46Z</time>
      </trkpt>
      <trkpt lat="42.79381" lon="1.92782">
        <ele>1253</ele>
        <time>2024-06-30T09:57:47Z</time>
      </trkpt>
      <trkpt lat="42.79385" lon="1.92767">
        <ele>1252.4</ele>
        <time>2024-06-30T09:57:49Z</time>
      </trkpt>
      <trkpt lat="42.79387" lon="1.9276">
        <ele>1252.2</ele>
        <time>2024-06-30T09:57:50Z</time>
      </trkpt>
      <trkpt lat="42.79389" lon="1.92752">
        <ele>1252</ele>
        <time>2024-06-30T09:57:51Z</time>
      </trkpt>
      <trkpt lat="42.7939" lon="1.92744">
        <ele>1252</ele>
        <time>2024-06-30T09:57:52Z</time>
      </trkpt>
      <trkpt lat="42.79396" lon="1.92721">
        <ele>1250.8</ele>
        <time>2024-06-30T09:57:55Z</time>
      </trkpt>
      <trkpt lat="42.79402" lon="1.92707">
        <ele>1250.2</ele>
        <time>2024-06-30T09:57:57Z</time>
      </trkpt>
      <trkpt lat="42.79409" lon="1.92693">
        <ele>1249.8</ele>
        <time>2024-06-30T09:57:59Z</time>
      </trkpt>
      <trkpt lat="42.79413" lon="1.92678">
        <ele>1249.2</ele>
        <time>2024-06-30T09:58:01Z</time>
      </trkpt>
      <trkpt lat="42.79415" lon="1.92662">
        <ele>1249</ele>
        <time>2024-06-30T09:58:03Z</time>
      </trkpt>
      <trkpt lat="42.79415" lon="1.92627">
        <ele>1248.6</ele>
        <time>2024-06-30T09:58:07Z</time>
      </trkpt>
      <trkpt lat="42.79416" lon="1.9259">
        <ele>1247.6</ele>
        <time>2024-06-30T09:58:11Z</time>
      </trkpt>
      <trkpt lat="42.79419" lon="1.9257">
        <ele>1246.8</ele>
        <time>2024-06-30T09:58:13Z</time>
      </trkpt>
      <trkpt lat="42.79422" lon="1.92561">
        <ele>1246.4</ele>
        <time>2024-06-30T09:58:14Z</time>
      </trkpt>
      <trkpt lat="42.79425" lon="1.92552">
        <ele>1246.2</ele>
        <time>2024-06-30T09:58:15Z</time>
      </trkpt>
      <trkpt lat="42.79429" lon="1.92544">
        <ele>1245.8</ele>
        <time>2024-06-30T09:58:16Z</time>
      </trkpt>
      <trkpt lat="42.79432" lon="1.92536">
        <ele>1245.6</ele>
        <time>2024-06-30T09:58:17Z</time>
      </trkpt>
      <trkpt lat="42.79435" lon="1.92529">
        <ele>1245.2</ele>
        <time>2024-06-30T09:58:18Z</time>
      </trkpt>
      <trkpt lat="42.79438" lon="1.92523">
        <ele>1244.8</ele>
        <time>2024-06-30T09:58:19Z</time>
      </trkpt>
      <trkpt lat="42.79441" lon="1.92516">
        <ele>1244.6</ele>
        <time>2024-06-30T09:58:20Z</time>
      </trkpt>
      <trkpt lat="42.79443" lon="1.9251">
        <ele>1244.2</ele>
        <time>2024-06-30T09:58:21Z</time>
      </trkpt>
      <trkpt lat="42.79446" lon="1.92503">
        <ele>1244</ele>
        <time>2024-06-30T09:58:22Z</time>
      </trkpt>
      <trkpt lat="42.7945" lon="1.92489">
        <ele>1243.6</ele>
        <time>2024-06-30T09:58:24Z</time>
      </trkpt>
      <trkpt lat="42.79452" lon="1.92481">
        <ele>1243.4</ele>
        <time>2024-06-30T09:58:25Z</time>
      </trkpt>
      <trkpt lat="42.79454" lon="1.92472">
        <ele>1243</ele>
        <time>2024-06-30T09:58:26Z</time>
      </trkpt>
      <trkpt lat="42.79459" lon="1.92445">
        <ele>1242.6</ele>
        <time>2024-06-30T09:58:29Z</time>
      </trkpt>
      <trkpt lat="42.79463" lon="1.92429">
        <ele>1242.4</ele>
        <time>2024-06-30T09:58:31Z</time>
      </trkpt>
      <trkpt lat="42.79465" lon="1.92422">
        <ele>1242.2</ele>
        <time>2024-06-30T09:58:32Z</time>
      </trkpt>
      <trkpt lat="42.79468" lon="1.92416">
        <ele>1242.2</ele>
        <time>2024-06-30T09:58:33Z</time>
      </trkpt>
      <trkpt lat="42.7947" lon="1.92409">
        <ele>1242.2</ele>
        <time>2024-06-30T09:58:34Z</time>
      </trkpt>
      <trkpt lat="42.79473" lon="1.92401">
        <ele>1242.2</ele>
        <time>2024-06-30T09:58:35Z</time>
      </trkpt>
      <trkpt lat="42.79485" lon="1.92371">
        <ele>1242</ele>
        <time>2024-06-30T09:58:38Z</time>
      </trkpt>
      <trkpt lat="42.7949" lon="1.92359">
        <ele>1241.6</ele>
        <time>2024-06-30T09:58:39Z</time>
      </trkpt>
      <trkpt lat="42.795" lon="1.92339">
        <ele>1241.2</ele>
        <time>2024-06-30T09:58:41Z</time>
      </trkpt>
      <trkpt lat="42.79505" lon="1.9233">
        <ele>1240.6</ele>
        <time>2024-06-30T09:58:42Z</time>
      </trkpt>
      <trkpt lat="42.79509" lon="1.9232">
        <ele>1240.4</ele>
        <time>2024-06-30T09:58:43Z</time>
      </trkpt>
      <trkpt lat="42.79514" lon="1.92311">
        <ele>1239.2</ele>
        <time>2024-06-30T09:58:44Z</time>
      </trkpt>
      <trkpt lat="42.79518" lon="1.92302">
        <ele>1238.8</ele>
        <time>2024-06-30T09:58:45Z</time>
      </trkpt>
      <trkpt lat="42.79523" lon="1.92293">
        <ele>1237.8</ele>
        <time>2024-06-30T09:58:46Z</time>
      </trkpt>
      <trkpt lat="42.79531" lon="1.92274">
        <ele>1237.2</ele>
        <time>2024-06-30T09:58:48Z</time>
      </trkpt>
      <trkpt lat="42.79539" lon="1.92255">
        <ele>1236</ele>
        <time>2024-06-30T09:58:50Z</time>
      </trkpt>
      <trkpt lat="42.79547" lon="1.92236">
        <ele>1234.8</ele>
        <time>2024-06-30T09:58:52Z</time>
      </trkpt>
      <trkpt lat="42.79552" lon="1.92227">
        <ele>1233.6</ele>
        <time>2024-06-30T09:58:53Z</time>
      </trkpt>
      <trkpt lat="42.7956" lon="1.92209">
        <ele>1232.2</ele>
        <time>2024-06-30T09:58:55Z</time>
      </trkpt>
      <trkpt lat="42.79563" lon="1.922">
        <ele>1232</ele>
        <time>2024-06-30T09:58:56Z</time>
      </trkpt>
      <trkpt lat="42.79571" lon="1.92181">
        <ele>1230.8</ele>
        <time>2024-06-30T09:58:58Z</time>
      </trkpt>
      <trkpt lat="42.79578" lon="1.92163">
        <ele>1229.4</ele>
        <time>2024-06-30T09:59:00Z</time>
      </trkpt>
      <trkpt lat="42.79582" lon="1.92154">
        <ele>1229.2</ele>
        <time>2024-06-30T09:59:01Z</time>
      </trkpt>
      <trkpt lat="42.79585" lon="1.92145">
        <ele>1228.8</ele>
        <time>2024-06-30T09:59:02Z</time>
      </trkpt>
      <trkpt lat="42.79586" lon="1.92136">
        <ele>1228.6</ele>
        <time>2024-06-30T09:59:03Z</time>
      </trkpt>
      <trkpt lat="42.79588" lon="1.92127">
        <ele>1228.4</ele>
        <time>2024-06-30T09:59:04Z</time>
      </trkpt>
      <trkpt lat="42.79591" lon="1.92108">
        <ele>1227.4</ele>
        <time>2024-06-30T09:59:06Z</time>
      </trkpt>
      <trkpt lat="42.79594" lon="1.92099">
        <ele>1226.8</ele>
        <time>2024-06-30T09:59:07Z</time>
      </trkpt>
      <trkpt lat="42.796" lon="1.92082">
        <ele>1225.8</ele>
        <time>2024-06-30T09:59:09Z</time>
      </trkpt>
      <trkpt lat="42.79603" lon="1.92074">
        <ele>1225.2</ele>
        <time>2024-06-30T09:59:10Z</time>
      </trkpt>
      <trkpt lat="42.79606" lon="1.92066">
        <ele>1224.6</ele>
        <time>2024-06-30T09:59:11Z</time>
      </trkpt>
      <trkpt lat="42.79608" lon="1.92059">
        <ele>1224.2</ele>
        <time>2024-06-30T09:59:12Z</time>
      </trkpt>
      <trkpt lat="42.79607" lon="1.92052">
        <ele>1223.8</ele>
        <time>2024-06-30T09:59:13Z</time>
      </trkpt>
      <trkpt lat="42.79605" lon="1.92046">
        <ele>1223.8</ele>
        <time>2024-06-30T09:59:14Z</time>
      </trkpt>
      <trkpt lat="42.79602" lon="1.9204">
        <ele>1223.4</ele>
        <time>2024-06-30T09:59:15Z</time>
      </trkpt>
      <trkpt lat="42.79598" lon="1.92033">
        <ele>1223</ele>
        <time>2024-06-30T09:59:16Z</time>
      </trkpt>
      <trkpt lat="42.79593" lon="1.92028">
        <ele>1222.8</ele>
        <time>2024-06-30T09:59:17Z</time>
      </trkpt>
      <trkpt lat="42.79588" lon="1.92023">
        <ele>1222.6</ele>
        <time>2024-06-30T09:59:18Z</time>
      </trkpt>
      <trkpt lat="42.79583" lon="1.92019">
        <ele>1222.6</ele>
        <time>2024-06-30T09:59:19Z</time>
      </trkpt>
      <trkpt lat="42.79577" lon="1.92016">
        <ele>1222.4</ele>
        <time>2024-06-30T09:59:20Z</time>
      </trkpt>
      <trkpt lat="42.7957" lon="1.92013">
        <ele>1222.2</ele>
        <time>2024-06-30T09:59:21Z</time>
      </trkpt>
      <trkpt lat="42.79564" lon="1.92011">
        <ele>1222.2</ele>
        <time>2024-06-30T09:59:22Z</time>
      </trkpt>
      <trkpt lat="42.79555" lon="1.92003">
        <ele>1221.8</ele>
        <time>2024-06-30T09:59:24Z</time>
      </trkpt>
      <trkpt lat="42.79552" lon="1.91998">
        <ele>1221.4</ele>
        <time>2024-06-30T09:59:25Z</time>
      </trkpt>
      <trkpt lat="42.7955" lon="1.91994">
        <ele>1221.2</ele>
        <time>2024-06-30T09:59:26Z</time>
      </trkpt>
      <trkpt lat="42.79549" lon="1.91989">
        <ele>1221</ele>
        <time>2024-06-30T09:59:27Z</time>
      </trkpt>
      <trkpt lat="42.79548" lon="1.91985">
        <ele>1221</ele>
        <time>2024-06-30T09:59:28Z</time>
      </trkpt>
      <trkpt lat="42.79547" lon="1.9198">
        <ele>1220.8</ele>
        <time>2024-06-30T09:59:29Z</time>
      </trkpt>
      <trkpt lat="42.79541" lon="1.91948">
        <ele>1220.4</ele>
        <time>2024-06-30T09:59:34Z</time>
      </trkpt>
      <trkpt lat="42.79533" lon="1.91925">
        <ele>1220.4</ele>
        <time>2024-06-30T09:59:38Z</time>
      </trkpt>
      <trkpt lat="42.79523" lon="1.919">
        <ele>1220.6</ele>
        <time>2024-06-30T09:59:42Z</time>
      </trkpt>
      <trkpt lat="42.79506" lon="1.91856">
        <ele>1221.4</ele>
        <time>2024-06-30T09:59:49Z</time>
      </trkpt>
      <trkpt lat="42.79504" lon="1.91851">
        <ele>1221.4</ele>
        <time>2024-06-30T09:59:50Z</time>
      </trkpt>
      <trkpt lat="42.79501" lon="1.91839">
        <ele>1221.8</ele>
        <time>2024-06-30T09:59:52Z</time>
      </trkpt>
      <trkpt lat="42.79499" lon="1.91834">
        <ele>1221.8</ele>
        <time>2024-06-30T09:59:53Z</time>
      </trkpt>
      <trkpt lat="42.79497" lon="1.91829">
        <ele>1222</ele>
        <time>2024-06-30T09:59:54Z</time>
      </trkpt>
      <trkpt lat="42.79495" lon="1.91824">
        <ele>1222.2</ele>
        <time>2024-06-30T09:59:55Z</time>
      </trkpt>
      <trkpt lat="42.79494" lon="1.91819">
        <ele>1222.4</ele>
        <time>2024-06-30T09:59:56Z</time>
      </trkpt>
      <trkpt lat="42.79491" lon="1.91809">
        <ele>1222.8</ele>
        <time>2024-06-30T09:59:58Z</time>
      </trkpt>
      <trkpt lat="42.79482" lon="1.91789">
        <ele>1223.4</ele>
        <time>2024-06-30T10:00:02Z</time>
      </trkpt>
      <trkpt lat="42.79472" lon="1.91764">
        <ele>1224.4</ele>
        <time>2024-06-30T10:00:07Z</time>
      </trkpt>
      <trkpt lat="42.7947" lon="1.91759">
        <ele>1224.6</ele>
        <time>2024-06-30T10:00:08Z</time>
      </trkpt>
      <trkpt lat="42.79468" lon="1.91753">
        <ele>1224.6</ele>
        <time>2024-06-30T10:00:09Z</time>
      </trkpt>
      <trkpt lat="42.79466" lon="1.91748">
        <ele>1224.8</ele>
        <time>2024-06-30T10:00:10Z</time>
      </trkpt>
      <trkpt lat="42.79464" lon="1.91742">
        <ele>1224.8</ele>
        <time>2024-06-30T10:00:11Z</time>
      </trkpt>
      <trkpt lat="42.79463" lon="1.91736">
        <ele>1225</ele>
        <time>2024-06-30T10:00:12Z</time>
      </trkpt>
      <trkpt lat="42.79462" lon="1.9173">
        <ele>1225.2</ele>
        <time>2024-06-30T10:00:13Z</time>
      </trkpt>
      <trkpt lat="42.79461" lon="1.91724">
        <ele>1225.2</ele>
        <time>2024-06-30T10:00:14Z</time>
      </trkpt>
      <trkpt lat="42.7946" lon="1.91718">
        <ele>1225.4</ele>
        <time>2024-06-30T10:00:15Z</time>
      </trkpt>
      <trkpt lat="42.79459" lon="1.91712">
        <ele>1225.4</ele>
        <time>2024-06-30T10:00:16Z</time>
      </trkpt>
      <trkpt lat="42.79457" lon="1.91707">
        <ele>1225.6</ele>
        <time>2024-06-30T10:00:17Z</time>
      </trkpt>
      <trkpt lat="42.79455" lon="1.91701">
        <ele>1225.6</ele>
        <time>2024-06-30T10:00:18Z</time>
      </trkpt>
      <trkpt lat="42.79453" lon="1.91696">
        <ele>1225.8</ele>
        <time>2024-06-30T10:00:19Z</time>
      </trkpt>
      <trkpt lat="42.79451" lon="1.91691">
        <ele>1226</ele>
        <time>2024-06-30T10:00:20Z</time>
      </trkpt>
      <trkpt lat="42.79448" lon="1.91686">
        <ele>1226.2</ele>
        <time>2024-06-30T10:00:21Z</time>
      </trkpt>
      <trkpt lat="42.79445" lon="1.91681">
        <ele>1226.2</ele>
        <time>2024-06-30T10:00:22Z</time>
      </trkpt>
      <trkpt lat="42.79443" lon="1.91677">
        <ele>1226.4</ele>
        <time>2024-06-30T10:00:23Z</time>
      </trkpt>
      <trkpt lat="42.7944" lon="1.91674">
        <ele>1226.4</ele>
        <time>2024-06-30T10:00:24Z</time>
      </trkpt>
      <trkpt lat="42.79437" lon="1.91671">
        <ele>1226.4</ele>
        <time>2024-06-30T10:00:25Z</time>
      </trkpt>
      <trkpt lat="42.79433" lon="1.91668">
        <ele>1226.6</ele>
        <time>2024-06-30T10:00:26Z</time>
      </trkpt>
      <trkpt lat="42.79429" lon="1.91667">
        <ele>1226.6</ele>
        <time>2024-06-30T10:00:27Z</time>
      </trkpt>
      <trkpt lat="42.79425" lon="1.91667">
        <ele>1226.6</ele>
        <time>2024-06-30T10:00:28Z</time>
      </trkpt>
      <trkpt lat="42.79421" lon="1.91668">
        <ele>1226.6</ele>
        <time>2024-06-30T10:00:29Z</time>
      </trkpt>
      <trkpt lat="42.79417" lon="1.9167">
        <ele>1226.6</ele>
        <time>2024-06-30T10:00:30Z</time>
      </trkpt>
      <trkpt lat="42.79413" lon="1.91673">
        <ele>1226.8</ele>
        <time>2024-06-30T10:00:31Z</time>
      </trkpt>
      <trkpt lat="42.79408" lon="1.91676">
        <ele>1226.8</ele>
        <time>2024-06-30T10:00:32Z</time>
      </trkpt>
      <trkpt lat="42.79404" lon="1.91679">
        <ele>1226.8</ele>
        <time>2024-06-30T10:00:33Z</time>
      </trkpt>
      <trkpt lat="42.79399" lon="1.91682">
        <ele>1226.8</ele>
        <time>2024-06-30T10:00:34Z</time>
      </trkpt>
      <trkpt lat="42.79395" lon="1.91684">
        <ele>1227</ele>
        <time>2024-06-30T10:00:35Z</time>
      </trkpt>
      <trkpt lat="42.7939" lon="1.91687">
        <ele>1227</ele>
        <time>2024-06-30T10:00:36Z</time>
      </trkpt>
      <trkpt lat="42.79385" lon="1.9169">
        <ele>1227</ele>
        <time>2024-06-30T10:00:37Z</time>
      </trkpt>
      <trkpt lat="42.7935" lon="1.91709">
        <ele>1228</ele>
        <time>2024-06-30T10:00:45Z</time>
      </trkpt>
      <trkpt lat="42.79345" lon="1.91712">
        <ele>1228</ele>
        <time>2024-06-30T10:00:46Z</time>
      </trkpt>
      <trkpt lat="42.79341" lon="1.91714">
        <ele>1228.4</ele>
        <time>2024-06-30T10:00:47Z</time>
      </trkpt>
      <trkpt lat="42.79337" lon="1.91716">
        <ele>1228.4</ele>
        <time>2024-06-30T10:00:48Z</time>
      </trkpt>
      <trkpt lat="42.79323" lon="1.91724">
        <ele>1228.8</ele>
        <time>2024-06-30T10:00:51Z</time>
      </trkpt>
      <trkpt lat="42.79319" lon="1.91726">
        <ele>1229</ele>
        <time>2024-06-30T10:00:52Z</time>
      </trkpt>
      <trkpt lat="42.79293" lon="1.9174">
        <ele>1229.6</ele>
        <time>2024-06-30T10:00:58Z</time>
      </trkpt>
      <trkpt lat="42.79288" lon="1.91743">
        <ele>1229.8</ele>
        <time>2024-06-30T10:00:59Z</time>
      </trkpt>
      <trkpt lat="42.79284" lon="1.91745">
        <ele>1230</ele>
        <time>2024-06-30T10:01:00Z</time>
      </trkpt>
      <trkpt lat="42.79279" lon="1.91748">
        <ele>1230.2</ele>
        <time>2024-06-30T10:01:01Z</time>
      </trkpt>
      <trkpt lat="42.79275" lon="1.9175">
        <ele>1230.4</ele>
        <time>2024-06-30T10:01:02Z</time>
      </trkpt>
      <trkpt lat="42.7927" lon="1.91753">
        <ele>1230.6</ele>
        <time>2024-06-30T10:01:03Z</time>
      </trkpt>
      <trkpt lat="42.79266" lon="1.91755">
        <ele>1230.6</ele>
        <time>2024-06-30T10:01:04Z</time>
      </trkpt>
      <trkpt lat="42.79262" lon="1.91757">
        <ele>1230.8</ele>
        <time>2024-06-30T10:01:05Z</time>
      </trkpt>
      <trkpt lat="42.79257" lon="1.9176">
        <ele>1230.8</ele>
        <time>2024-06-30T10:01:06Z</time>
      </trkpt>
      <trkpt lat="42.79253" lon="1.91762">
        <ele>1231.2</ele>
        <time>2024-06-30T10:01:07Z</time>
      </trkpt>
      <trkpt lat="42.79249" lon="1.91765">
        <ele>1231.2</ele>
        <time>2024-06-30T10:01:08Z</time>
      </trkpt>
      <trkpt lat="42.79245" lon="1.91767">
        <ele>1231.4</ele>
        <time>2024-06-30T10:01:09Z</time>
      </trkpt>
      <trkpt lat="42.79241" lon="1.91769">
        <ele>1231.6</ele>
        <time>2024-06-30T10:01:10Z</time>
      </trkpt>
      <trkpt lat="42.79237" lon="1.91772">
        <ele>1231.8</ele>
        <time>2024-06-30T10:01:11Z</time>
      </trkpt>
      <trkpt lat="42.79233" lon="1.91774">
        <ele>1232.2</ele>
        <time>2024-06-30T10:01:12Z</time>
      </trkpt>
      <trkpt lat="42.7923" lon="1.91776">
        <ele>1232.4</ele>
        <time>2024-06-30T10:01:13Z</time>
      </trkpt>
      <trkpt lat="42.79226" lon="1.91778">
        <ele>1232.6</ele>
        <time>2024-06-30T10:01:14Z</time>
      </trkpt>
      <trkpt lat="42.79222" lon="1.9178">
        <ele>1232.8</ele>
        <time>2024-06-30T10:01:15Z</time>
      </trkpt>
      <trkpt lat="42.79219" lon="1.91782">
        <ele>1233</ele>
        <time>2024-06-30T10:01:16Z</time>
      </trkpt>
      <trkpt lat="42.79215" lon="1.91784">
        <ele>1233</ele>
        <time>2024-06-30T10:01:17Z</time>
      </trkpt>
      <trkpt lat="42.79212" lon="1.91786">
        <ele>1233.2</ele>
        <time>2024-06-30T10:01:18Z</time>
      </trkpt>
      <trkpt lat="42.79209" lon="1.91787">
        <ele>1233.6</ele>
        <time>2024-06-30T10:01:19Z</time>
      </trkpt>
      <trkpt lat="42.79206" lon="1.91789">
        <ele>1233.8</ele>
        <time>2024-06-30T10:01:20Z</time>
      </trkpt>
      <trkpt lat="42.79203" lon="1.91791">
        <ele>1233.8</ele>
        <time>2024-06-30T10:01:21Z</time>
      </trkpt>
      <trkpt lat="42.79199" lon="1.91792">
        <ele>1234.2</ele>
        <time>2024-06-30T10:01:22Z</time>
      </trkpt>
      <trkpt lat="42.79196" lon="1.91794">
        <ele>1234.4</ele>
        <time>2024-06-30T10:01:23Z</time>
      </trkpt>
      <trkpt lat="42.79193" lon="1.91796">
        <ele>1234.6</ele>
        <time>2024-06-30T10:01:24Z</time>
      </trkpt>
      <trkpt lat="42.7919" lon="1.91797">
        <ele>1234.8</ele>
        <time>2024-06-30T10:01:25Z</time>
      </trkpt>
      <trkpt lat="42.79187" lon="1.91799">
        <ele>1235</ele>
        <time>2024-06-30T10:01:26Z</time>
      </trkpt>
      <trkpt lat="42.79185" lon="1.918">
        <ele>1235</ele>
        <time>2024-06-30T10:01:27Z</time>
      </trkpt>
      <trkpt lat="42.79181" lon="1.91802">
        <ele>1235.6</ele>
        <time>2024-06-30T10:01:28Z</time>
      </trkpt>
      <trkpt lat="42.79179" lon="1.91803">
        <ele>1235.8</ele>
        <time>2024-06-30T10:01:29Z</time>
      </trkpt>
      <trkpt lat="42.79176" lon="1.91805">
        <ele>1236</ele>
        <time>2024-06-30T10:01:30Z</time>
      </trkpt>
      <trkpt lat="42.79173" lon="1.91806">
        <ele>1236.2</ele>
        <time>2024-06-30T10:01:31Z</time>
      </trkpt>
      <trkpt lat="42.79171" lon="1.91807">
        <ele>1236.6</ele>
        <time>2024-06-30T10:01:32Z</time>
      </trkpt>
      <trkpt lat="42.79168" lon="1.91809">
        <ele>1236.8</ele>
        <time>2024-06-30T10:01:33Z</time>
      </trkpt>
      <trkpt lat="42.79165" lon="1.9181">
        <ele>1237</ele>
        <time>2024-06-30T10:01:34Z</time>
      </trkpt>
      <trkpt lat="42.79162" lon="1.91811">
        <ele>1237.4</ele>
        <time>2024-06-30T10:01:35Z</time>
      </trkpt>
      <trkpt lat="42.7916" lon="1.91812">
        <ele>1237.6</ele>
        <time>2024-06-30T10:01:36Z</time>
      </trkpt>
      <trkpt lat="42.79158" lon="1.9181">
        <ele>1238.2</ele>
        <time>2024-06-30T10:01:37Z</time>
      </trkpt>
      <trkpt lat="42.79155" lon="1.91808">
        <ele>1238.2</ele>
        <time>2024-06-30T10:01:38Z</time>
      </trkpt>
      <trkpt lat="42.79154" lon="1.91805">
        <ele>1238.4</ele>
        <time>2024-06-30T10:01:39Z</time>
      </trkpt>
      <trkpt lat="42.79152" lon="1.91801">
        <ele>1238.6</ele>
        <time>2024-06-30T10:01:40Z</time>
      </trkpt>
      <trkpt lat="42.7915" lon="1.91796">
        <ele>1238.8</ele>
        <time>2024-06-30T10:01:41Z</time>
      </trkpt>
      <trkpt lat="42.79148" lon="1.91792">
        <ele>1239</ele>
        <time>2024-06-30T10:01:42Z</time>
      </trkpt>
      <trkpt lat="42.79147" lon="1.91788">
        <ele>1239</ele>
        <time>2024-06-30T10:01:43Z</time>
      </trkpt>
      <trkpt lat="42.79143" lon="1.91783">
        <ele>1239.2</ele>
        <time>2024-06-30T10:01:44Z</time>
      </trkpt>
      <trkpt lat="42.79141" lon="1.91778">
        <ele>1239.2</ele>
        <time>2024-06-30T10:01:45Z</time>
      </trkpt>
      <trkpt lat="42.79137" lon="1.91774">
        <ele>1239.2</ele>
        <time>2024-06-30T10:01:46Z</time>
      </trkpt>
      <trkpt lat="42.79134" lon="1.9177">
        <ele>1239.2</ele>
        <time>2024-06-30T10:01:47Z</time>
      </trkpt>
      <trkpt lat="42.79131" lon="1.91765">
        <ele>1239.2</ele>
        <time>2024-06-30T10:01:48Z</time>
      </trkpt>
      <trkpt lat="42.79127" lon="1.9176">
        <ele>1239.4</ele>
        <time>2024-06-30T10:01:49Z</time>
      </trkpt>
      <trkpt lat="42.79123" lon="1.91755">
        <ele>1239.4</ele>
        <time>2024-06-30T10:01:50Z</time>
      </trkpt>
      <trkpt lat="42.79118" lon="1.9175">
        <ele>1239.4</ele>
        <time>2024-06-30T10:01:51Z</time>
      </trkpt>
      <trkpt lat="42.79114" lon="1.91744">
        <ele>1239.2</ele>
        <time>2024-06-30T10:01:52Z</time>
      </trkpt>
      <trkpt lat="42.7911" lon="1.91739">
        <ele>1239</ele>
        <time>2024-06-30T10:01:53Z</time>
      </trkpt>
      <trkpt lat="42.79105" lon="1.91733">
        <ele>1239</ele>
        <time>2024-06-30T10:01:54Z</time>
      </trkpt>
      <trkpt lat="42.79101" lon="1.91728">
        <ele>1239</ele>
        <time>2024-06-30T10:01:55Z</time>
      </trkpt>
      <trkpt lat="42.79096" lon="1.91722">
        <ele>1238.8</ele>
        <time>2024-06-30T10:01:56Z</time>
      </trkpt>
      <trkpt lat="42.79092" lon="1.91717">
        <ele>1238.6</ele>
        <time>2024-06-30T10:01:57Z</time>
      </trkpt>
      <trkpt lat="42.79088" lon="1.91712">
        <ele>1238.6</ele>
        <time>2024-06-30T10:01:58Z</time>
      </trkpt>
      <trkpt lat="42.79084" lon="1.91706">
        <ele>1238.6</ele>
        <time>2024-06-30T10:01:59Z</time>
      </trkpt>
      <trkpt lat="42.7908" lon="1.91701">
        <ele>1238.4</ele>
        <time>2024-06-30T10:02:00Z</time>
      </trkpt>
      <trkpt lat="42.79068" lon="1.91686">
        <ele>1238.4</ele>
        <time>2024-06-30T10:02:03Z</time>
      </trkpt>
      <trkpt lat="42.79065" lon="1.91681">
        <ele>1238.4</ele>
        <time>2024-06-30T10:02:04Z</time>
      </trkpt>
      <trkpt lat="42.79061" lon="1.91677">
        <ele>1238.4</ele>
        <time>2024-06-30T10:02:05Z</time>
      </trkpt>
      <trkpt lat="42.79058" lon="1.91672">
        <ele>1238.4</ele>
        <time>2024-06-30T10:02:06Z</time>
      </trkpt>
      <trkpt lat="42.79055" lon="1.91668">
        <ele>1238.4</ele>
        <time>2024-06-30T10:02:07Z</time>
      </trkpt>
      <trkpt lat="42.79052" lon="1.91664">
        <ele>1238.4</ele>
        <time>2024-06-30T10:02:08Z</time>
      </trkpt>
      <trkpt lat="42.7905" lon="1.9166">
        <ele>1238.6</ele>
        <time>2024-06-30T10:02:09Z</time>
      </trkpt>
      <trkpt lat="42.79045" lon="1.91652">
        <ele>1239</ele>
        <time>2024-06-30T10:02:11Z</time>
      </trkpt>
      <trkpt lat="42.79042" lon="1.91648">
        <ele>1239</ele>
        <time>2024-06-30T10:02:12Z</time>
      </trkpt>
      <trkpt lat="42.79039" lon="1.91645">
        <ele>1239.2</ele>
        <time>2024-06-30T10:02:13Z</time>
      </trkpt>
      <trkpt lat="42.79036" lon="1.91641">
        <ele>1239.6</ele>
        <time>2024-06-30T10:02:14Z</time>
      </trkpt>
      <trkpt lat="42.79034" lon="1.91638">
        <ele>1239.8</ele>
        <time>2024-06-30T10:02:15Z</time>
      </trkpt>
      <trkpt lat="42.79031" lon="1.91635">
        <ele>1240.2</ele>
        <time>2024-06-30T10:02:16Z</time>
      </trkpt>
      <trkpt lat="42.79028" lon="1.91632">
        <ele>1240.4</ele>
        <time>2024-06-30T10:02:17Z</time>
      </trkpt>
      <trkpt lat="42.79025" lon="1.91629">
        <ele>1240.8</ele>
        <time>2024-06-30T10:02:18Z</time>
      </trkpt>
      <trkpt lat="42.79022" lon="1.91626">
        <ele>1241</ele>
        <time>2024-06-30T10:02:19Z</time>
      </trkpt>
      <trkpt lat="42.79019" lon="1.91622">
        <ele>1241.4</ele>
        <time>2024-06-30T10:02:20Z</time>
      </trkpt>
      <trkpt lat="42.79017" lon="1.91619">
        <ele>1241.6</ele>
        <time>2024-06-30T10:02:21Z</time>
      </trkpt>
      <trkpt lat="42.79014" lon="1.91615">
        <ele>1241.6</ele>
        <time>2024-06-30T10:02:22Z</time>
      </trkpt>
      <trkpt lat="42.79012" lon="1.91612">
        <ele>1242</ele>
        <time>2024-06-30T10:02:23Z</time>
      </trkpt>
      <trkpt lat="42.79009" lon="1.91608">
        <ele>1242.2</ele>
        <time>2024-06-30T10:02:24Z</time>
      </trkpt>
      <trkpt lat="42.79007" lon="1.91604">
        <ele>1242.4</ele>
        <time>2024-06-30T10:02:25Z</time>
      </trkpt>
      <trkpt lat="42.79004" lon="1.916">
        <ele>1242.6</ele>
        <time>2024-06-30T10:02:26Z</time>
      </trkpt>
      <trkpt lat="42.79001" lon="1.91597">
        <ele>1243</ele>
        <time>2024-06-30T10:02:27Z</time>
      </trkpt>
      <trkpt lat="42.78998" lon="1.91593">
        <ele>1243</ele>
        <time>2024-06-30T10:02:28Z</time>
      </trkpt>
      <trkpt lat="42.78995" lon="1.9159">
        <ele>1243.4</ele>
        <time>2024-06-30T10:02:29Z</time>
      </trkpt>
      <trkpt lat="42.78992" lon="1.91586">
        <ele>1243.6</ele>
        <time>2024-06-30T10:02:30Z</time>
      </trkpt>
      <trkpt lat="42.78989" lon="1.91583">
        <ele>1243.8</ele>
        <time>2024-06-30T10:02:31Z</time>
      </trkpt>
      <trkpt lat="42.78985" lon="1.91579">
        <ele>1244</ele>
        <time>2024-06-30T10:02:32Z</time>
      </trkpt>
      <trkpt lat="42.78982" lon="1.91575">
        <ele>1244</ele>
        <time>2024-06-30T10:02:33Z</time>
      </trkpt>
      <trkpt lat="42.78978" lon="1.91571">
        <ele>1244.2</ele>
        <time>2024-06-30T10:02:34Z</time>
      </trkpt>
      <trkpt lat="42.78974" lon="1.91567">
        <ele>1244.2</ele>
        <time>2024-06-30T10:02:35Z</time>
      </trkpt>
      <trkpt lat="42.78971" lon="1.91564">
        <ele>1244.4</ele>
        <time>2024-06-30T10:02:36Z</time>
      </trkpt>
      <trkpt lat="42.78967" lon="1.9156">
        <ele>1244.6</ele>
        <time>2024-06-30T10:02:37Z</time>
      </trkpt>
      <trkpt lat="42.78963" lon="1.91556">
        <ele>1244.6</ele>
        <time>2024-06-30T10:02:38Z</time>
      </trkpt>
      <trkpt lat="42.7896" lon="1.91551">
        <ele>1244.8</ele>
        <time>2024-06-30T10:02:39Z</time>
      </trkpt>
      <trkpt lat="42.78957" lon="1.91546">
        <ele>1244.8</ele>
        <time>2024-06-30T10:02:40Z</time>
      </trkpt>
      <trkpt lat="42.78954" lon="1.91541">
        <ele>1244.8</ele>
        <time>2024-06-30T10:02:41Z</time>
      </trkpt>
      <trkpt lat="42.7895" lon="1.91536">
        <ele>1244.8</ele>
        <time>2024-06-30T10:02:42Z</time>
      </trkpt>
      <trkpt lat="42.78947" lon="1.9153">
        <ele>1244.8</ele>
        <time>2024-06-30T10:02:43Z</time>
      </trkpt>
      <trkpt lat="42.78944" lon="1.91523">
        <ele>1244.8</ele>
        <time>2024-06-30T10:02:44Z</time>
      </trkpt>
      <trkpt lat="42.78941" lon="1.91517">
        <ele>1244.8</ele>
        <time>2024-06-30T10:02:45Z</time>
      </trkpt>
      <trkpt lat="42.78937" lon="1.9151">
        <ele>1244.6</ele>
        <time>2024-06-30T10:02:46Z</time>
      </trkpt>
      <trkpt lat="42.78934" lon="1.91502">
        <ele>1244.6</ele>
        <time>2024-06-30T10:02:47Z</time>
      </trkpt>
      <trkpt lat="42.7893" lon="1.91495">
        <ele>1244.4</ele>
        <time>2024-06-30T10:02:48Z</time>
      </trkpt>
      <trkpt lat="42.78926" lon="1.91488">
        <ele>1244.4</ele>
        <time>2024-06-30T10:02:49Z</time>
      </trkpt>
      <trkpt lat="42.78923" lon="1.9148">
        <ele>1244.2</ele>
        <time>2024-06-30T10:02:50Z</time>
      </trkpt>
      <trkpt lat="42.78921" lon="1.91472">
        <ele>1244.2</ele>
        <time>2024-06-30T10:02:51Z</time>
      </trkpt>
      <trkpt lat="42.78921" lon="1.91463">
        <ele>1243.6</ele>
        <time>2024-06-30T10:02:52Z</time>
      </trkpt>
      <trkpt lat="42.78923" lon="1.91453">
        <ele>1242.6</ele>
        <time>2024-06-30T10:02:53Z</time>
      </trkpt>
      <trkpt lat="42.78924" lon="1.91442">
        <ele>1242</ele>
        <time>2024-06-30T10:02:54Z</time>
      </trkpt>
      <trkpt lat="42.78925" lon="1.91431">
        <ele>1241.4</ele>
        <time>2024-06-30T10:02:55Z</time>
      </trkpt>
      <trkpt lat="42.78926" lon="1.9142">
        <ele>1241.2</ele>
        <time>2024-06-30T10:02:56Z</time>
      </trkpt>
      <trkpt lat="42.78928" lon="1.914">
        <ele>1240.2</ele>
        <time>2024-06-30T10:02:58Z</time>
      </trkpt>
      <trkpt lat="42.78929" lon="1.91391">
        <ele>1239.8</ele>
        <time>2024-06-30T10:02:59Z</time>
      </trkpt>
      <trkpt lat="42.7893" lon="1.91384">
        <ele>1239.2</ele>
        <time>2024-06-30T10:03:00Z</time>
      </trkpt>
      <trkpt lat="42.78929" lon="1.91379">
        <ele>1237.2</ele>
        <time>2024-06-30T10:03:01Z</time>
      </trkpt>
      <trkpt lat="42.78926" lon="1.91376">
        <ele>1236</ele>
        <time>2024-06-30T10:03:02Z</time>
      </trkpt>
      <trkpt lat="42.78921" lon="1.91375">
        <ele>1235.4</ele>
        <time>2024-06-30T10:03:03Z</time>
      </trkpt>
      <trkpt lat="42.78916" lon="1.91375">
        <ele>1234</ele>
        <time>2024-06-30T10:03:04Z</time>
      </trkpt>
      <trkpt lat="42.78905" lon="1.91374">
        <ele>1232.2</ele>
        <time>2024-06-30T10:03:06Z</time>
      </trkpt>
      <trkpt lat="42.78892" lon="1.91373">
        <ele>1230</ele>
        <time>2024-06-30T10:03:08Z</time>
      </trkpt>
      <trkpt lat="42.78882" lon="1.91373">
        <ele>1229.2</ele>
        <time>2024-06-30T10:03:10Z</time>
      </trkpt>
      <trkpt lat="42.78879" lon="1.91373">
        <ele>1228.6</ele>
        <time>2024-06-30T10:03:11Z</time>
      </trkpt>
      <trkpt lat="42.78875" lon="1.91373">
        <ele>1228.6</ele>
        <time>2024-06-30T10:03:12Z</time>
      </trkpt>
      <trkpt lat="42.78872" lon="1.91373">
        <ele>1228</ele>
        <time>2024-06-30T10:03:13Z</time>
      </trkpt>
      <trkpt lat="42.78869" lon="1.91373">
        <ele>1227.8</ele>
        <time>2024-06-30T10:03:14Z</time>
      </trkpt>
      <trkpt lat="42.78867" lon="1.91372">
        <ele>1227.6</ele>
        <time>2024-06-30T10:03:15Z</time>
      </trkpt>
      <trkpt lat="42.78866" lon="1.9137">
        <ele>1227.6</ele>
        <time>2024-06-30T10:03:16Z</time>
      </trkpt>
      <trkpt lat="42.78865" lon="1.91368">
        <ele>1227.4</ele>
        <time>2024-06-30T10:03:17Z</time>
      </trkpt>
      <trkpt lat="42.78864" lon="1.91365">
        <ele>1227.2</ele>
        <time>2024-06-30T10:03:18Z</time>
      </trkpt>
      <trkpt lat="42.78862" lon="1.91363">
        <ele>1227.2</ele>
        <time>2024-06-30T10:03:19Z</time>
      </trkpt>
      <trkpt lat="42.78861" lon="1.9136">
        <ele>1227.2</ele>
        <time>2024-06-30T10:03:20Z</time>
      </trkpt>
      <trkpt lat="42.78861" lon="1.91359">
        <ele>1227</ele>
        <time>2024-06-30T10:03:21Z</time>
      </trkpt>
      <trkpt lat="42.78861" lon="1.91357">
        <ele>1227</ele>
        <time>2024-06-30T10:03:22Z</time>
      </trkpt>
      <trkpt lat="42.78867" lon="1.91344">
        <ele>1227</ele>
        <time>2024-06-30T10:03:27Z</time>
      </trkpt>
      <trkpt lat="42.78869" lon="1.91341">
        <ele>1227</ele>
        <time>2024-06-30T10:03:28Z</time>
      </trkpt>
      <trkpt lat="42.78879" lon="1.91321">
        <ele>1227.2</ele>
        <time>2024-06-30T10:03:33Z</time>
      </trkpt>
      <trkpt lat="42.78881" lon="1.91316">
        <ele>1227.2</ele>
        <time>2024-06-30T10:03:34Z</time>
      </trkpt>
      <trkpt lat="42.78885" lon="1.91306">
        <ele>1227.2</ele>
        <time>2024-06-30T10:03:36Z</time>
      </trkpt>
      <trkpt lat="42.78887" lon="1.91301">
        <ele>1227.2</ele>
        <time>2024-06-30T10:03:37Z</time>
      </trkpt>
      <trkpt lat="42.78889" lon="1.91295">
        <ele>1227.2</ele>
        <time>2024-06-30T10:03:38Z</time>
      </trkpt>
      <trkpt lat="42.78893" lon="1.91282">
        <ele>1227.4</ele>
        <time>2024-06-30T10:03:40Z</time>
      </trkpt>
      <trkpt lat="42.78895" lon="1.91267">
        <ele>1227.2</ele>
        <time>2024-06-30T10:03:42Z</time>
      </trkpt>
      <trkpt lat="42.78896" lon="1.9126">
        <ele>1227</ele>
        <time>2024-06-30T10:03:43Z</time>
      </trkpt>
      <trkpt lat="42.78898" lon="1.91253">
        <ele>1227</ele>
        <time>2024-06-30T10:03:44Z</time>
      </trkpt>
      <trkpt lat="42.789" lon="1.9124">
        <ele>1226.4</ele>
        <time>2024-06-30T10:03:46Z</time>
      </trkpt>
      <trkpt lat="42.78903" lon="1.91223">
        <ele>1226.2</ele>
        <time>2024-06-30T10:03:48Z</time>
      </trkpt>
      <trkpt lat="42.78909" lon="1.91204">
        <ele>1225.8</ele>
        <time>2024-06-30T10:03:51Z</time>
      </trkpt>
      <trkpt lat="42.78915" lon="1.91192">
        <ele>1225.4</ele>
        <time>2024-06-30T10:03:53Z</time>
      </trkpt>
      <trkpt lat="42.78919" lon="1.9118">
        <ele>1225.2</ele>
        <time>2024-06-30T10:03:55Z</time>
      </trkpt>
      <trkpt lat="42.78921" lon="1.91175">
        <ele>1225.2</ele>
        <time>2024-06-30T10:03:56Z</time>
      </trkpt>
      <trkpt lat="42.78922" lon="1.9117">
        <ele>1225.2</ele>
        <time>2024-06-30T10:03:57Z</time>
      </trkpt>
      <trkpt lat="42.78922" lon="1.91164">
        <ele>1225.2</ele>
        <time>2024-06-30T10:03:58Z</time>
      </trkpt>
      <trkpt lat="42.78922" lon="1.91159">
        <ele>1225.2</ele>
        <time>2024-06-30T10:03:59Z</time>
      </trkpt>
      <trkpt lat="42.78921" lon="1.91153">
        <ele>1225.2</ele>
        <time>2024-06-30T10:04:00Z</time>
      </trkpt>
      <trkpt lat="42.78919" lon="1.91148">
        <ele>1225.4</ele>
        <time>2024-06-30T10:04:01Z</time>
      </trkpt>
      <trkpt lat="42.78918" lon="1.91142">
        <ele>1225.4</ele>
        <time>2024-06-30T10:04:02Z</time>
      </trkpt>
      <trkpt lat="42.78918" lon="1.91138">
        <ele>1225.4</ele>
        <time>2024-06-30T10:04:03Z</time>
      </trkpt>
      <trkpt lat="42.78917" lon="1.91132">
        <ele>1225.6</ele>
        <time>2024-06-30T10:04:04Z</time>
      </trkpt>
      <trkpt lat="42.78916" lon="1.91125">
        <ele>1225.8</ele>
        <time>2024-06-30T10:04:05Z</time>
      </trkpt>
      <trkpt lat="42.78911" lon="1.91112">
        <ele>1226</ele>
        <time>2024-06-30T10:04:07Z</time>
      </trkpt>
      <trkpt lat="42.78908" lon="1.91106">
        <ele>1226</ele>
        <time>2024-06-30T10:04:08Z</time>
      </trkpt>
      <trkpt lat="42.78901" lon="1.91095">
        <ele>1226</ele>
        <time>2024-06-30T10:04:10Z</time>
      </trkpt>
      <trkpt lat="42.78898" lon="1.9109">
        <ele>1226</ele>
        <time>2024-06-30T10:04:11Z</time>
      </trkpt>
      <trkpt lat="42.78895" lon="1.91084">
        <ele>1225.8</ele>
        <time>2024-06-30T10:04:12Z</time>
      </trkpt>
      <trkpt lat="42.78892" lon="1.91079">
        <ele>1225.6</ele>
        <time>2024-06-30T10:04:13Z</time>
      </trkpt>
      <trkpt lat="42.78889" lon="1.91074">
        <ele>1225.6</ele>
        <time>2024-06-30T10:04:14Z</time>
      </trkpt>
      <trkpt lat="42.78887" lon="1.91068">
        <ele>1225.4</ele>
        <time>2024-06-30T10:04:15Z</time>
      </trkpt>
      <trkpt lat="42.78886" lon="1.91063">
        <ele>1225.4</ele>
        <time>2024-06-30T10:04:16Z</time>
      </trkpt>
      <trkpt lat="42.78885" lon="1.91058">
        <ele>1225.4</ele>
        <time>2024-06-30T10:04:17Z</time>
      </trkpt>
      <trkpt lat="42.78883" lon="1.91053">
        <ele>1225.4</ele>
        <time>2024-06-30T10:04:18Z</time>
      </trkpt>
      <trkpt lat="42.7888" lon="1.91048">
        <ele>1225.4</ele>
        <time>2024-06-30T10:04:19Z</time>
      </trkpt>
      <trkpt lat="42.78878" lon="1.91045">
        <ele>1225.4</ele>
        <time>2024-06-30T10:04:20Z</time>
      </trkpt>
      <trkpt lat="42.78876" lon="1.91042">
        <ele>1225.2</ele>
        <time>2024-06-30T10:04:21Z</time>
      </trkpt>
      <trkpt lat="42.78875" lon="1.91039">
        <ele>1225.2</ele>
        <time>2024-06-30T10:04:22Z</time>
      </trkpt>
      <trkpt lat="42.78875" lon="1.91036">
        <ele>1225.2</ele>
        <time>2024-06-30T10:04:23Z</time>
      </trkpt>
      <trkpt lat="42.78875" lon="1.91032">
        <ele>1225.2</ele>
        <time>2024-06-30T10:04:24Z</time>
      </trkpt>
      <trkpt lat="42.78876" lon="1.91028">
        <ele>1225.2</ele>
        <time>2024-06-30T10:04:25Z</time>
      </trkpt>
      <trkpt lat="42.78876" lon="1.91023">
        <ele>1225.2</ele>
        <time>2024-06-30T10:04:26Z</time>
      </trkpt>
      <trkpt lat="42.78877" lon="1.91018">
        <ele>1225.2</ele>
        <time>2024-06-30T10:04:27Z</time>
      </trkpt>
      <trkpt lat="42.78879" lon="1.91006">
        <ele>1225.2</ele>
        <time>2024-06-30T10:04:29Z</time>
      </trkpt>
      <trkpt lat="42.78885" lon="1.9098">
        <ele>1225</ele>
        <time>2024-06-30T10:04:33Z</time>
      </trkpt>
      <trkpt lat="42.78886" lon="1.90974">
        <ele>1225</ele>
        <time>2024-06-30T10:04:34Z</time>
      </trkpt>
      <trkpt lat="42.78887" lon="1.90969">
        <ele>1225</ele>
        <time>2024-06-30T10:04:35Z</time>
      </trkpt>
      <trkpt lat="42.78888" lon="1.90965">
        <ele>1225</ele>
        <time>2024-06-30T10:04:36Z</time>
      </trkpt>
      <trkpt lat="42.78889" lon="1.9096">
        <ele>1225</ele>
        <time>2024-06-30T10:04:37Z</time>
      </trkpt>
      <trkpt lat="42.78891" lon="1.90956">
        <ele>1225</ele>
        <time>2024-06-30T10:04:38Z</time>
      </trkpt>
      <trkpt lat="42.78892" lon="1.90953">
        <ele>1225</ele>
        <time>2024-06-30T10:04:39Z</time>
      </trkpt>
      <trkpt lat="42.78893" lon="1.90949">
        <ele>1225</ele>
        <time>2024-06-30T10:04:40Z</time>
      </trkpt>
      <trkpt lat="42.78894" lon="1.90947">
        <ele>1225.2</ele>
        <time>2024-06-30T10:04:41Z</time>
      </trkpt>
      <trkpt lat="42.78895" lon="1.90944">
        <ele>1225.2</ele>
        <time>2024-06-30T10:04:42Z</time>
      </trkpt>
      <trkpt lat="42.78896" lon="1.90941">
        <ele>1225.4</ele>
        <time>2024-06-30T10:04:43Z</time>
      </trkpt>
      <trkpt lat="42.78897" lon="1.90938">
        <ele>1225.4</ele>
        <time>2024-06-30T10:04:44Z</time>
      </trkpt>
      <trkpt lat="42.78899" lon="1.90931">
        <ele>1226.2</ele>
        <time>2024-06-30T10:04:47Z</time>
      </trkpt>
      <trkpt lat="42.789" lon="1.90928">
        <ele>1226.4</ele>
        <time>2024-06-30T10:04:48Z</time>
      </trkpt>
      <trkpt lat="42.78901" lon="1.90926">
        <ele>1226.8</ele>
        <time>2024-06-30T10:04:49Z</time>
      </trkpt>
      <trkpt lat="42.78902" lon="1.90923">
        <ele>1226.8</ele>
        <time>2024-06-30T10:04:50Z</time>
      </trkpt>
      <trkpt lat="42.78903" lon="1.9092">
        <ele>1227</ele>
        <time>2024-06-30T10:04:51Z</time>
      </trkpt>
      <trkpt lat="42.78904" lon="1.90913">
        <ele>1227.4</ele>
        <time>2024-06-30T10:04:53Z</time>
      </trkpt>
      <trkpt lat="42.78904" lon="1.9091">
        <ele>1227.6</ele>
        <time>2024-06-30T10:04:54Z</time>
      </trkpt>
      <trkpt lat="42.78905" lon="1.90906">
        <ele>1227.8</ele>
        <time>2024-06-30T10:04:55Z</time>
      </trkpt>
      <trkpt lat="42.78906" lon="1.90897">
        <ele>1228.6</ele>
        <time>2024-06-30T10:04:58Z</time>
      </trkpt>
      <trkpt lat="42.78905" lon="1.90893">
        <ele>1228.6</ele>
        <time>2024-06-30T10:04:59Z</time>
      </trkpt>
      <trkpt lat="42.78906" lon="1.90889">
        <ele>1228.6</ele>
        <time>2024-06-30T10:05:00Z</time>
      </trkpt>
      <trkpt lat="42.78906" lon="1.90885">
        <ele>1228.8</ele>
        <time>2024-06-30T10:05:01Z</time>
      </trkpt>
      <trkpt lat="42.78905" lon="1.90882">
        <ele>1228.8</ele>
        <time>2024-06-30T10:05:02Z</time>
      </trkpt>
      <trkpt lat="42.78905" lon="1.90878">
        <ele>1228.8</ele>
        <time>2024-06-30T10:05:03Z</time>
      </trkpt>
      <trkpt lat="42.78905" lon="1.90875">
        <ele>1229</ele>
        <time>2024-06-30T10:05:04Z</time>
      </trkpt>
      <trkpt lat="42.78904" lon="1.9087">
        <ele>1229</ele>
        <time>2024-06-30T10:05:05Z</time>
      </trkpt>
      <trkpt lat="42.78904" lon="1.90866">
        <ele>1229</ele>
        <time>2024-06-30T10:05:06Z</time>
      </trkpt>
      <trkpt lat="42.78904" lon="1.90861">
        <ele>1229</ele>
        <time>2024-06-30T10:05:07Z</time>
      </trkpt>
      <trkpt lat="42.78904" lon="1.90857">
        <ele>1229</ele>
        <time>2024-06-30T10:05:08Z</time>
      </trkpt>
      <trkpt lat="42.78904" lon="1.90853">
        <ele>1229</ele>
        <time>2024-06-30T10:05:09Z</time>
      </trkpt>
      <trkpt lat="42.78904" lon="1.90849">
        <ele>1229.2</ele>
        <time>2024-06-30T10:05:10Z</time>
      </trkpt>
      <trkpt lat="42.78904" lon="1.90845">
        <ele>1229.2</ele>
        <time>2024-06-30T10:05:11Z</time>
      </trkpt>
      <trkpt lat="42.78904" lon="1.9084">
        <ele>1229.4</ele>
        <time>2024-06-30T10:05:12Z</time>
      </trkpt>
      <trkpt lat="42.78904" lon="1.90836">
        <ele>1229.4</ele>
        <time>2024-06-30T10:05:13Z</time>
      </trkpt>
      <trkpt lat="42.78904" lon="1.90831">
        <ele>1229.6</ele>
        <time>2024-06-30T10:05:14Z</time>
      </trkpt>
      <trkpt lat="42.78905" lon="1.90826">
        <ele>1229.6</ele>
        <time>2024-06-30T10:05:15Z</time>
      </trkpt>
      <trkpt lat="42.78905" lon="1.90822">
        <ele>1229.8</ele>
        <time>2024-06-30T10:05:16Z</time>
      </trkpt>
      <trkpt lat="42.78906" lon="1.90817">
        <ele>1230</ele>
        <time>2024-06-30T10:05:17Z</time>
      </trkpt>
      <trkpt lat="42.78907" lon="1.90813">
        <ele>1230</ele>
        <time>2024-06-30T10:05:18Z</time>
      </trkpt>
      <trkpt lat="42.78908" lon="1.90808">
        <ele>1230</ele>
        <time>2024-06-30T10:05:19Z</time>
      </trkpt>
      <trkpt lat="42.78908" lon="1.90804">
        <ele>1230.2</ele>
        <time>2024-06-30T10:05:20Z</time>
      </trkpt>
      <trkpt lat="42.78914" lon="1.9077">
        <ele>1230.8</ele>
        <time>2024-06-30T10:05:27Z</time>
      </trkpt>
      <trkpt lat="42.78914" lon="1.90765">
        <ele>1230.8</ele>
        <time>2024-06-30T10:05:28Z</time>
      </trkpt>
      <trkpt lat="42.78914" lon="1.90707">
        <ele>1231.6</ele>
        <time>2024-06-30T10:05:40Z</time>
      </trkpt>
      <trkpt lat="42.7891" lon="1.90687">
        <ele>1231.8</ele>
        <time>2024-06-30T10:05:44Z</time>
      </trkpt>
      <trkpt lat="42.78903" lon="1.90669">
        <ele>1231.8</ele>
        <time>2024-06-30T10:05:48Z</time>
      </trkpt>
      <trkpt lat="42.78892" lon="1.90642">
        <ele>1231.8</ele>
        <time>2024-06-30T10:05:53Z</time>
      </trkpt>
      <trkpt lat="42.78889" lon="1.90636">
        <ele>1231.8</ele>
        <time>2024-06-30T10:05:54Z</time>
      </trkpt>
      <trkpt lat="42.78884" lon="1.90623">
        <ele>1231.6</ele>
        <time>2024-06-30T10:05:56Z</time>
      </trkpt>
      <trkpt lat="42.78882" lon="1.90618">
        <ele>1231.6</ele>
        <time>2024-06-30T10:05:57Z</time>
      </trkpt>
      <trkpt lat="42.78875" lon="1.906">
        <ele>1231.6</ele>
        <time>2024-06-30T10:06:00Z</time>
      </trkpt>
      <trkpt lat="42.78873" lon="1.90594">
        <ele>1231.4</ele>
        <time>2024-06-30T10:06:01Z</time>
      </trkpt>
      <trkpt lat="42.78873" lon="1.90589">
        <ele>1231.2</ele>
        <time>2024-06-30T10:06:02Z</time>
      </trkpt>
      <trkpt lat="42.78873" lon="1.90583">
        <ele>1231</ele>
        <time>2024-06-30T10:06:03Z</time>
      </trkpt>
      <trkpt lat="42.7887" lon="1.90572">
        <ele>1231</ele>
        <time>2024-06-30T10:06:05Z</time>
      </trkpt>
      <trkpt lat="42.78869" lon="1.90567">
        <ele>1231</ele>
        <time>2024-06-30T10:06:06Z</time>
      </trkpt>
      <trkpt lat="42.78868" lon="1.90563">
        <ele>1230.8</ele>
        <time>2024-06-30T10:06:07Z</time>
      </trkpt>
      <trkpt lat="42.78867" lon="1.90559">
        <ele>1230.8</ele>
        <time>2024-06-30T10:06:08Z</time>
      </trkpt>
      <trkpt lat="42.78867" lon="1.90556">
        <ele>1230.6</ele>
        <time>2024-06-30T10:06:09Z</time>
      </trkpt>
      <trkpt lat="42.78867" lon="1.90552">
        <ele>1230.6</ele>
        <time>2024-06-30T10:06:10Z</time>
      </trkpt>
      <trkpt lat="42.78866" lon="1.90543">
        <ele>1230.6</ele>
        <time>2024-06-30T10:06:12Z</time>
      </trkpt>
      <trkpt lat="42.7886" lon="1.90515">
        <ele>1230.6</ele>
        <time>2024-06-30T10:06:17Z</time>
      </trkpt>
      <trkpt lat="42.78859" lon="1.90509">
        <ele>1230.6</ele>
        <time>2024-06-30T10:06:18Z</time>
      </trkpt>
      <trkpt lat="42.78848" lon="1.90472">
        <ele>1231.8</ele>
        <time>2024-06-30T10:06:25Z</time>
      </trkpt>
      <trkpt lat="42.78843" lon="1.90461">
        <ele>1232</ele>
        <time>2024-06-30T10:06:27Z</time>
      </trkpt>
      <trkpt lat="42.78829" lon="1.90423">
        <ele>1232.2</ele>
        <time>2024-06-30T10:06:34Z</time>
      </trkpt>
      <trkpt lat="42.78815" lon="1.90387">
        <ele>1232.4</ele>
        <time>2024-06-30T10:06:41Z</time>
      </trkpt>
      <trkpt lat="42.78814" lon="1.90382">
        <ele>1232.6</ele>
        <time>2024-06-30T10:06:42Z</time>
      </trkpt>
      <trkpt lat="42.78813" lon="1.90376">
        <ele>1232.8</ele>
        <time>2024-06-30T10:06:43Z</time>
      </trkpt>
      <trkpt lat="42.78812" lon="1.9037">
        <ele>1233</ele>
        <time>2024-06-30T10:06:44Z</time>
      </trkpt>
      <trkpt lat="42.78811" lon="1.90365">
        <ele>1233</ele>
        <time>2024-06-30T10:06:45Z</time>
      </trkpt>
      <trkpt lat="42.78809" lon="1.90359">
        <ele>1233.2</ele>
        <time>2024-06-30T10:06:46Z</time>
      </trkpt>
      <trkpt lat="42.78807" lon="1.90348">
        <ele>1233.2</ele>
        <time>2024-06-30T10:06:48Z</time>
      </trkpt>
      <trkpt lat="42.78805" lon="1.90329">
        <ele>1233.4</ele>
        <time>2024-06-30T10:06:51Z</time>
      </trkpt>
      <trkpt lat="42.78804" lon="1.90302">
        <ele>1233.2</ele>
        <time>2024-06-30T10:06:55Z</time>
      </trkpt>
      <trkpt lat="42.78798" lon="1.90251">
        <ele>1232.8</ele>
        <time>2024-06-30T10:07:01Z</time>
      </trkpt>
      <trkpt lat="42.78796" lon="1.90244">
        <ele>1232.6</ele>
        <time>2024-06-30T10:07:02Z</time>
      </trkpt>
      <trkpt lat="42.78794" lon="1.90237">
        <ele>1232.4</ele>
        <time>2024-06-30T10:07:03Z</time>
      </trkpt>
      <trkpt lat="42.78791" lon="1.9023">
        <ele>1232</ele>
        <time>2024-06-30T10:07:04Z</time>
      </trkpt>
      <trkpt lat="42.78789" lon="1.90223">
        <ele>1232</ele>
        <time>2024-06-30T10:07:05Z</time>
      </trkpt>
      <trkpt lat="42.78786" lon="1.90217">
        <ele>1231.6</ele>
        <time>2024-06-30T10:07:06Z</time>
      </trkpt>
      <trkpt lat="42.78786" lon="1.90211">
        <ele>1231.4</ele>
        <time>2024-06-30T10:07:07Z</time>
      </trkpt>
      <trkpt lat="42.78785" lon="1.90205">
        <ele>1231.4</ele>
        <time>2024-06-30T10:07:08Z</time>
      </trkpt>
      <trkpt lat="42.78785" lon="1.902">
        <ele>1231.2</ele>
        <time>2024-06-30T10:07:09Z</time>
      </trkpt>
      <trkpt lat="42.78784" lon="1.90194">
        <ele>1231</ele>
        <time>2024-06-30T10:07:10Z</time>
      </trkpt>
      <trkpt lat="42.78784" lon="1.90189">
        <ele>1230.8</ele>
        <time>2024-06-30T10:07:11Z</time>
      </trkpt>
      <trkpt lat="42.78779" lon="1.90172">
        <ele>1231.2</ele>
        <time>2024-06-30T10:07:14Z</time>
      </trkpt>
      <trkpt lat="42.78776" lon="1.90167">
        <ele>1231.2</ele>
        <time>2024-06-30T10:07:15Z</time>
      </trkpt>
      <trkpt lat="42.78772" lon="1.90162">
        <ele>1231.2</ele>
        <time>2024-06-30T10:07:16Z</time>
      </trkpt>
      <trkpt lat="42.78768" lon="1.90157">
        <ele>1231.2</ele>
        <time>2024-06-30T10:07:17Z</time>
      </trkpt>
      <trkpt lat="42.78765" lon="1.90152">
        <ele>1231.2</ele>
        <time>2024-06-30T10:07:18Z</time>
      </trkpt>
      <trkpt lat="42.7876" lon="1.90147">
        <ele>1231.2</ele>
        <time>2024-06-30T10:07:19Z</time>
      </trkpt>
      <trkpt lat="42.7875" lon="1.90134">
        <ele>1231.2</ele>
        <time>2024-06-30T10:07:22Z</time>
      </trkpt>
      <trkpt lat="42.78746" lon="1.9013">
        <ele>1231.2</ele>
        <time>2024-06-30T10:07:23Z</time>
      </trkpt>
      <trkpt lat="42.78725" lon="1.90107">
        <ele>1231.8</ele>
        <time>2024-06-30T10:07:30Z</time>
      </trkpt>
      <trkpt lat="42.78722" lon="1.90104">
        <ele>1232</ele>
        <time>2024-06-30T10:07:31Z</time>
      </trkpt>
      <trkpt lat="42.78719" lon="1.90101">
        <ele>1232.2</ele>
        <time>2024-06-30T10:07:32Z</time>
      </trkpt>
      <trkpt lat="42.78716" lon="1.90097">
        <ele>1232.2</ele>
        <time>2024-06-30T10:07:33Z</time>
      </trkpt>
      <trkpt lat="42.78713" lon="1.90094">
        <ele>1232.6</ele>
        <time>2024-06-30T10:07:34Z</time>
      </trkpt>
      <trkpt lat="42.7871" lon="1.90091">
        <ele>1232.6</ele>
        <time>2024-06-30T10:07:35Z</time>
      </trkpt>
      <trkpt lat="42.78707" lon="1.90088">
        <ele>1232.8</ele>
        <time>2024-06-30T10:07:36Z</time>
      </trkpt>
      <trkpt lat="42.78705" lon="1.90085">
        <ele>1232.8</ele>
        <time>2024-06-30T10:07:37Z</time>
      </trkpt>
      <trkpt lat="42.78702" lon="1.90082">
        <ele>1233</ele>
        <time>2024-06-30T10:07:38Z</time>
      </trkpt>
      <trkpt lat="42.78699" lon="1.90079">
        <ele>1233.2</ele>
        <time>2024-06-30T10:07:39Z</time>
      </trkpt>
      <trkpt lat="42.78697" lon="1.90076">
        <ele>1233.2</ele>
        <time>2024-06-30T10:07:40Z</time>
      </trkpt>
      <trkpt lat="42.78694" lon="1.90072">
        <ele>1233.4</ele>
        <time>2024-06-30T10:07:41Z</time>
      </trkpt>
      <trkpt lat="42.78692" lon="1.90069">
        <ele>1233.4</ele>
        <time>2024-06-30T10:07:42Z</time>
      </trkpt>
      <trkpt lat="42.7869" lon="1.90066">
        <ele>1233.6</ele>
        <time>2024-06-30T10:07:43Z</time>
      </trkpt>
      <trkpt lat="42.78685" lon="1.90059">
        <ele>1234</ele>
        <time>2024-06-30T10:07:45Z</time>
      </trkpt>
      <trkpt lat="42.78682" lon="1.90056">
        <ele>1234</ele>
        <time>2024-06-30T10:07:46Z</time>
      </trkpt>
      <trkpt lat="42.7868" lon="1.90053">
        <ele>1234.4</ele>
        <time>2024-06-30T10:07:47Z</time>
      </trkpt>
      <trkpt lat="42.78678" lon="1.9005">
        <ele>1234.6</ele>
        <time>2024-06-30T10:07:48Z</time>
      </trkpt>
      <trkpt lat="42.78676" lon="1.90047">
        <ele>1234.6</ele>
        <time>2024-06-30T10:07:49Z</time>
      </trkpt>
      <trkpt lat="42.78673" lon="1.90043">
        <ele>1234.8</ele>
        <time>2024-06-30T10:07:50Z</time>
      </trkpt>
      <trkpt lat="42.78671" lon="1.9004">
        <ele>1234.8</ele>
        <time>2024-06-30T10:07:51Z</time>
      </trkpt>
      <trkpt lat="42.78668" lon="1.90037">
        <ele>1235</ele>
        <time>2024-06-30T10:07:52Z</time>
      </trkpt>
      <trkpt lat="42.78666" lon="1.90034">
        <ele>1235</ele>
        <time>2024-06-30T10:07:53Z</time>
      </trkpt>
      <trkpt lat="42.78663" lon="1.90031">
        <ele>1235.2</ele>
        <time>2024-06-30T10:07:54Z</time>
      </trkpt>
      <trkpt lat="42.78661" lon="1.90028">
        <ele>1235.4</ele>
        <time>2024-06-30T10:07:55Z</time>
      </trkpt>
      <trkpt lat="42.78658" lon="1.90025">
        <ele>1235.4</ele>
        <time>2024-06-30T10:07:56Z</time>
      </trkpt>
      <trkpt lat="42.78656" lon="1.90022">
        <ele>1235.6</ele>
        <time>2024-06-30T10:07:57Z</time>
      </trkpt>
      <trkpt lat="42.78654" lon="1.90019">
        <ele>1235.6</ele>
        <time>2024-06-30T10:07:58Z</time>
      </trkpt>
      <trkpt lat="42.78651" lon="1.90017">
        <ele>1235.8</ele>
        <time>2024-06-30T10:07:59Z</time>
      </trkpt>
      <trkpt lat="42.78648" lon="1.90014">
        <ele>1235.8</ele>
        <time>2024-06-30T10:08:00Z</time>
      </trkpt>
      <trkpt lat="42.78646" lon="1.90012">
        <ele>1236</ele>
        <time>2024-06-30T10:08:01Z</time>
      </trkpt>
      <trkpt lat="42.78643" lon="1.90009">
        <ele>1236.2</ele>
        <time>2024-06-30T10:08:02Z</time>
      </trkpt>
      <trkpt lat="42.78641" lon="1.90007">
        <ele>1236.2</ele>
        <time>2024-06-30T10:08:03Z</time>
      </trkpt>
      <trkpt lat="42.78638" lon="1.90005">
        <ele>1236.4</ele>
        <time>2024-06-30T10:08:04Z</time>
      </trkpt>
      <trkpt lat="42.78635" lon="1.90003">
        <ele>1236.4</ele>
        <time>2024-06-30T10:08:05Z</time>
      </trkpt>
      <trkpt lat="42.78632" lon="1.90001">
        <ele>1236.6</ele>
        <time>2024-06-30T10:08:06Z</time>
      </trkpt>
      <trkpt lat="42.7863" lon="1.89999">
        <ele>1236.8</ele>
        <time>2024-06-30T10:08:07Z</time>
      </trkpt>
      <trkpt lat="42.78627" lon="1.89997">
        <ele>1236.8</ele>
        <time>2024-06-30T10:08:08Z</time>
      </trkpt>
      <trkpt lat="42.78624" lon="1.89995">
        <ele>1237</ele>
        <time>2024-06-30T10:08:09Z</time>
      </trkpt>
      <trkpt lat="42.78622" lon="1.89993">
        <ele>1237.2</ele>
        <time>2024-06-30T10:08:10Z</time>
      </trkpt>
      <trkpt lat="42.78619" lon="1.8999">
        <ele>1237.2</ele>
        <time>2024-06-30T10:08:11Z</time>
      </trkpt>
      <trkpt lat="42.78616" lon="1.89988">
        <ele>1237.4</ele>
        <time>2024-06-30T10:08:12Z</time>
      </trkpt>
      <trkpt lat="42.78614" lon="1.89986">
        <ele>1237.4</ele>
        <time>2024-06-30T10:08:13Z</time>
      </trkpt>
      <trkpt lat="42.78611" lon="1.89984">
        <ele>1237.6</ele>
        <time>2024-06-30T10:08:14Z</time>
      </trkpt>
      <trkpt lat="42.78608" lon="1.89982">
        <ele>1237.6</ele>
        <time>2024-06-30T10:08:15Z</time>
      </trkpt>
      <trkpt lat="42.78606" lon="1.8998">
        <ele>1237.8</ele>
        <time>2024-06-30T10:08:16Z</time>
      </trkpt>
      <trkpt lat="42.78603" lon="1.89979">
        <ele>1238</ele>
        <time>2024-06-30T10:08:17Z</time>
      </trkpt>
      <trkpt lat="42.786" lon="1.89977">
        <ele>1238.4</ele>
        <time>2024-06-30T10:08:18Z</time>
      </trkpt>
      <trkpt lat="42.78598" lon="1.89975">
        <ele>1238.4</ele>
        <time>2024-06-30T10:08:19Z</time>
      </trkpt>
      <trkpt lat="42.78595" lon="1.89974">
        <ele>1238.6</ele>
        <time>2024-06-30T10:08:20Z</time>
      </trkpt>
      <trkpt lat="42.78592" lon="1.89973">
        <ele>1238.6</ele>
        <time>2024-06-30T10:08:21Z</time>
      </trkpt>
      <trkpt lat="42.7859" lon="1.89971">
        <ele>1238.8</ele>
        <time>2024-06-30T10:08:22Z</time>
      </trkpt>
      <trkpt lat="42.78588" lon="1.8997">
        <ele>1238.8</ele>
        <time>2024-06-30T10:08:23Z</time>
      </trkpt>
      <trkpt lat="42.78585" lon="1.89968">
        <ele>1238.8</ele>
        <time>2024-06-30T10:08:24Z</time>
      </trkpt>
      <trkpt lat="42.78583" lon="1.89966">
        <ele>1239</ele>
        <time>2024-06-30T10:08:25Z</time>
      </trkpt>
      <trkpt lat="42.7858" lon="1.89964">
        <ele>1239</ele>
        <time>2024-06-30T10:08:26Z</time>
      </trkpt>
      <trkpt lat="42.78578" lon="1.89961">
        <ele>1239.2</ele>
        <time>2024-06-30T10:08:27Z</time>
      </trkpt>
      <trkpt lat="42.78577" lon="1.89958">
        <ele>1239.2</ele>
        <time>2024-06-30T10:08:28Z</time>
      </trkpt>
      <trkpt lat="42.78576" lon="1.89955">
        <ele>1239.4</ele>
        <time>2024-06-30T10:08:29Z</time>
      </trkpt>
      <trkpt lat="42.78574" lon="1.89952">
        <ele>1239.4</ele>
        <time>2024-06-30T10:08:30Z</time>
      </trkpt>
      <trkpt lat="42.78572" lon="1.8995">
        <ele>1239.4</ele>
        <time>2024-06-30T10:08:31Z</time>
      </trkpt>
      <trkpt lat="42.7857" lon="1.89948">
        <ele>1239.6</ele>
        <time>2024-06-30T10:08:32Z</time>
      </trkpt>
      <trkpt lat="42.78568" lon="1.89946">
        <ele>1239.6</ele>
        <time>2024-06-30T10:08:33Z</time>
      </trkpt>
      <trkpt lat="42.78565" lon="1.89944">
        <ele>1239.8</ele>
        <time>2024-06-30T10:08:34Z</time>
      </trkpt>
      <trkpt lat="42.78562" lon="1.89943">
        <ele>1239.8</ele>
        <time>2024-06-30T10:08:35Z</time>
      </trkpt>
      <trkpt lat="42.7856" lon="1.89942">
        <ele>1240</ele>
        <time>2024-06-30T10:08:36Z</time>
      </trkpt>
      <trkpt lat="42.78557" lon="1.8994">
        <ele>1240.2</ele>
        <time>2024-06-30T10:08:37Z</time>
      </trkpt>
      <trkpt lat="42.78554" lon="1.89938">
        <ele>1240.4</ele>
        <time>2024-06-30T10:08:38Z</time>
      </trkpt>
      <trkpt lat="42.78551" lon="1.89937">
        <ele>1240.6</ele>
        <time>2024-06-30T10:08:39Z</time>
      </trkpt>
      <trkpt lat="42.78549" lon="1.89935">
        <ele>1240.8</ele>
        <time>2024-06-30T10:08:40Z</time>
      </trkpt>
      <trkpt lat="42.78546" lon="1.89934">
        <ele>1240.8</ele>
        <time>2024-06-30T10:08:41Z</time>
      </trkpt>
      <trkpt lat="42.78543" lon="1.89932">
        <ele>1241</ele>
        <time>2024-06-30T10:08:42Z</time>
      </trkpt>
      <trkpt lat="42.78541" lon="1.8993">
        <ele>1241.2</ele>
        <time>2024-06-30T10:08:43Z</time>
      </trkpt>
      <trkpt lat="42.78538" lon="1.89928">
        <ele>1241.2</ele>
        <time>2024-06-30T10:08:44Z</time>
      </trkpt>
      <trkpt lat="42.78536" lon="1.89926">
        <ele>1241.4</ele>
        <time>2024-06-30T10:08:45Z</time>
      </trkpt>
      <trkpt lat="42.78533" lon="1.89923">
        <ele>1241.6</ele>
        <time>2024-06-30T10:08:46Z</time>
      </trkpt>
      <trkpt lat="42.78531" lon="1.89921">
        <ele>1241.8</ele>
        <time>2024-06-30T10:08:47Z</time>
      </trkpt>
      <trkpt lat="42.78529" lon="1.89918">
        <ele>1242</ele>
        <time>2024-06-30T10:08:48Z</time>
      </trkpt>
      <trkpt lat="42.78527" lon="1.89915">
        <ele>1242.2</ele>
        <time>2024-06-30T10:08:49Z</time>
      </trkpt>
      <trkpt lat="42.78526" lon="1.89912">
        <ele>1242.4</ele>
        <time>2024-06-30T10:08:50Z</time>
      </trkpt>
      <trkpt lat="42.78524" lon="1.89909">
        <ele>1242.4</ele>
        <time>2024-06-30T10:08:51Z</time>
      </trkpt>
      <trkpt lat="42.78522" lon="1.89907">
        <ele>1242.8</ele>
        <time>2024-06-30T10:08:52Z</time>
      </trkpt>
      <trkpt lat="42.7852" lon="1.89904">
        <ele>1242.8</ele>
        <time>2024-06-30T10:08:53Z</time>
      </trkpt>
      <trkpt lat="42.78518" lon="1.899">
        <ele>1243</ele>
        <time>2024-06-30T10:08:54Z</time>
      </trkpt>
      <trkpt lat="42.78516" lon="1.89897">
        <ele>1243</ele>
        <time>2024-06-30T10:08:55Z</time>
      </trkpt>
      <trkpt lat="42.78515" lon="1.89894">
        <ele>1243.2</ele>
        <time>2024-06-30T10:08:56Z</time>
      </trkpt>
      <trkpt lat="42.78513" lon="1.89891">
        <ele>1243.6</ele>
        <time>2024-06-30T10:08:57Z</time>
      </trkpt>
      <trkpt lat="42.78512" lon="1.89888">
        <ele>1243.8</ele>
        <time>2024-06-30T10:08:58Z</time>
      </trkpt>
      <trkpt lat="42.78511" lon="1.89886">
        <ele>1244.2</ele>
        <time>2024-06-30T10:08:59Z</time>
      </trkpt>
      <trkpt lat="42.78509" lon="1.89883">
        <ele>1244.2</ele>
        <time>2024-06-30T10:09:00Z</time>
      </trkpt>
      <trkpt lat="42.78508" lon="1.8988">
        <ele>1244.4</ele>
        <time>2024-06-30T10:09:01Z</time>
      </trkpt>
      <trkpt lat="42.78506" lon="1.89876">
        <ele>1244.6</ele>
        <time>2024-06-30T10:09:02Z</time>
      </trkpt>
      <trkpt lat="42.78505" lon="1.89873">
        <ele>1244.8</ele>
        <time>2024-06-30T10:09:03Z</time>
      </trkpt>
      <trkpt lat="42.78504" lon="1.89869">
        <ele>1244.8</ele>
        <time>2024-06-30T10:09:04Z</time>
      </trkpt>
      <trkpt lat="42.78502" lon="1.89865">
        <ele>1245</ele>
        <time>2024-06-30T10:09:05Z</time>
      </trkpt>
      <trkpt lat="42.78501" lon="1.89862">
        <ele>1245.2</ele>
        <time>2024-06-30T10:09:06Z</time>
      </trkpt>
      <trkpt lat="42.785" lon="1.89858">
        <ele>1245.2</ele>
        <time>2024-06-30T10:09:07Z</time>
      </trkpt>
      <trkpt lat="42.78498" lon="1.89855">
        <ele>1245.4</ele>
        <time>2024-06-30T10:09:08Z</time>
      </trkpt>
      <trkpt lat="42.78497" lon="1.89852">
        <ele>1245.4</ele>
        <time>2024-06-30T10:09:09Z</time>
      </trkpt>
      <trkpt lat="42.78496" lon="1.89848">
        <ele>1245.6</ele>
        <time>2024-06-30T10:09:10Z</time>
      </trkpt>
      <trkpt lat="42.78494" lon="1.89845">
        <ele>1245.8</ele>
        <time>2024-06-30T10:09:11Z</time>
      </trkpt>
      <trkpt lat="42.78493" lon="1.89841">
        <ele>1245.8</ele>
        <time>2024-06-30T10:09:12Z</time>
      </trkpt>
      <trkpt lat="42.78491" lon="1.89838">
        <ele>1246</ele>
        <time>2024-06-30T10:09:13Z</time>
      </trkpt>
      <trkpt lat="42.78489" lon="1.89835">
        <ele>1246</ele>
        <time>2024-06-30T10:09:14Z</time>
      </trkpt>
      <trkpt lat="42.78487" lon="1.89833">
        <ele>1246.2</ele>
        <time>2024-06-30T10:09:15Z</time>
      </trkpt>
      <trkpt lat="42.78486" lon="1.8983">
        <ele>1246.2</ele>
        <time>2024-06-30T10:09:16Z</time>
      </trkpt>
      <trkpt lat="42.78484" lon="1.89828">
        <ele>1246.4</ele>
        <time>2024-06-30T10:09:17Z</time>
      </trkpt>
      <trkpt lat="42.78482" lon="1.89825">
        <ele>1246.6</ele>
        <time>2024-06-30T10:09:18Z</time>
      </trkpt>
      <trkpt lat="42.78481" lon="1.89822">
        <ele>1246.8</ele>
        <time>2024-06-30T10:09:19Z</time>
      </trkpt>
      <trkpt lat="42.7848" lon="1.89818">
        <ele>1246.8</ele>
        <time>2024-06-30T10:09:20Z</time>
      </trkpt>
      <trkpt lat="42.7848" lon="1.89815">
        <ele>1247.2</ele>
        <time>2024-06-30T10:09:21Z</time>
      </trkpt>
      <trkpt lat="42.78481" lon="1.89811">
        <ele>1247.4</ele>
        <time>2024-06-30T10:09:22Z</time>
      </trkpt>
      <trkpt lat="42.78482" lon="1.89807">
        <ele>1247.4</ele>
        <time>2024-06-30T10:09:23Z</time>
      </trkpt>
      <trkpt lat="42.78483" lon="1.89803">
        <ele>1247.6</ele>
        <time>2024-06-30T10:09:24Z</time>
      </trkpt>
      <trkpt lat="42.78484" lon="1.89799">
        <ele>1247.8</ele>
        <time>2024-06-30T10:09:25Z</time>
      </trkpt>
      <trkpt lat="42.78485" lon="1.89794">
        <ele>1248</ele>
        <time>2024-06-30T10:09:26Z</time>
      </trkpt>
      <trkpt lat="42.78486" lon="1.8979">
        <ele>1248.2</ele>
        <time>2024-06-30T10:09:27Z</time>
      </trkpt>
      <trkpt lat="42.78486" lon="1.89787">
        <ele>1248.4</ele>
        <time>2024-06-30T10:09:28Z</time>
      </trkpt>
      <trkpt lat="42.78485" lon="1.89783">
        <ele>1248.6</ele>
        <time>2024-06-30T10:09:29Z</time>
      </trkpt>
      <trkpt lat="42.78484" lon="1.89779">
        <ele>1248.6</ele>
        <time>2024-06-30T10:09:30Z</time>
      </trkpt>
      <trkpt lat="42.78482" lon="1.89776">
        <ele>1248.8</ele>
        <time>2024-06-30T10:09:31Z</time>
      </trkpt>
      <trkpt lat="42.78479" lon="1.89774">
        <ele>1248.8</ele>
        <time>2024-06-30T10:09:32Z</time>
      </trkpt>
      <trkpt lat="42.78476" lon="1.89772">
        <ele>1249</ele>
        <time>2024-06-30T10:09:33Z</time>
      </trkpt>
      <trkpt lat="42.78474" lon="1.89771">
        <ele>1249</ele>
        <time>2024-06-30T10:09:34Z</time>
      </trkpt>
      <trkpt lat="42.78471" lon="1.8977">
        <ele>1249</ele>
        <time>2024-06-30T10:09:35Z</time>
      </trkpt>
      <trkpt lat="42.78467" lon="1.89769">
        <ele>1249.2</ele>
        <time>2024-06-30T10:09:36Z</time>
      </trkpt>
      <trkpt lat="42.78464" lon="1.89769">
        <ele>1249.2</ele>
        <time>2024-06-30T10:09:37Z</time>
      </trkpt>
      <trkpt lat="42.78461" lon="1.89769">
        <ele>1249.2</ele>
        <time>2024-06-30T10:09:38Z</time>
      </trkpt>
      <trkpt lat="42.78458" lon="1.89769">
        <ele>1249.4</ele>
        <time>2024-06-30T10:09:39Z</time>
      </trkpt>
      <trkpt lat="42.78454" lon="1.89769">
        <ele>1249.4</ele>
        <time>2024-06-30T10:09:40Z</time>
      </trkpt>
      <trkpt lat="42.78451" lon="1.89769">
        <ele>1249.6</ele>
        <time>2024-06-30T10:09:41Z</time>
      </trkpt>
      <trkpt lat="42.78448" lon="1.89768">
        <ele>1249.8</ele>
        <time>2024-06-30T10:09:42Z</time>
      </trkpt>
      <trkpt lat="42.78445" lon="1.89768">
        <ele>1249.8</ele>
        <time>2024-06-30T10:09:43Z</time>
      </trkpt>
      <trkpt lat="42.78442" lon="1.89768">
        <ele>1250.2</ele>
        <time>2024-06-30T10:09:44Z</time>
      </trkpt>
      <trkpt lat="42.78439" lon="1.89768">
        <ele>1250.6</ele>
        <time>2024-06-30T10:09:45Z</time>
      </trkpt>
      <trkpt lat="42.78436" lon="1.89768">
        <ele>1250.8</ele>
        <time>2024-06-30T10:09:46Z</time>
      </trkpt>
      <trkpt lat="42.78434" lon="1.89768">
        <ele>1251</ele>
        <time>2024-06-30T10:09:47Z</time>
      </trkpt>
      <trkpt lat="42.78431" lon="1.89768">
        <ele>1251.2</ele>
        <time>2024-06-30T10:09:48Z</time>
      </trkpt>
      <trkpt lat="42.78428" lon="1.89768">
        <ele>1251.4</ele>
        <time>2024-06-30T10:09:49Z</time>
      </trkpt>
      <trkpt lat="42.78426" lon="1.89767">
        <ele>1251.4</ele>
        <time>2024-06-30T10:09:50Z</time>
      </trkpt>
      <trkpt lat="42.78423" lon="1.89767">
        <ele>1251.6</ele>
        <time>2024-06-30T10:09:51Z</time>
      </trkpt>
      <trkpt lat="42.78421" lon="1.89766">
        <ele>1251.8</ele>
        <time>2024-06-30T10:09:52Z</time>
      </trkpt>
      <trkpt lat="42.78419" lon="1.89766">
        <ele>1252.2</ele>
        <time>2024-06-30T10:09:53Z</time>
      </trkpt>
      <trkpt lat="42.78417" lon="1.89766">
        <ele>1252.6</ele>
        <time>2024-06-30T10:09:54Z</time>
      </trkpt>
      <trkpt lat="42.78415" lon="1.89766">
        <ele>1252.8</ele>
        <time>2024-06-30T10:09:55Z</time>
      </trkpt>
      <trkpt lat="42.78413" lon="1.89766">
        <ele>1253</ele>
        <time>2024-06-30T10:09:56Z</time>
      </trkpt>
      <trkpt lat="42.78411" lon="1.89766">
        <ele>1253.2</ele>
        <time>2024-06-30T10:09:57Z</time>
      </trkpt>
      <trkpt lat="42.78409" lon="1.89767">
        <ele>1253.6</ele>
        <time>2024-06-30T10:09:58Z</time>
      </trkpt>
      <trkpt lat="42.78407" lon="1.89767">
        <ele>1254</ele>
        <time>2024-06-30T10:09:59Z</time>
      </trkpt>
      <trkpt lat="42.78406" lon="1.89767">
        <ele>1254</ele>
        <time>2024-06-30T10:10:00Z</time>
      </trkpt>
      <trkpt lat="42.78403" lon="1.89767">
        <ele>1254.4</ele>
        <time>2024-06-30T10:10:01Z</time>
      </trkpt>
      <trkpt lat="42.78402" lon="1.89767">
        <ele>1254.4</ele>
        <time>2024-06-30T10:10:02Z</time>
      </trkpt>
      <trkpt lat="42.784" lon="1.89766">
        <ele>1254.6</ele>
        <time>2024-06-30T10:10:03Z</time>
      </trkpt>
      <trkpt lat="42.78398" lon="1.89766">
        <ele>1254.8</ele>
        <time>2024-06-30T10:10:04Z</time>
      </trkpt>
      <trkpt lat="42.78396" lon="1.89766">
        <ele>1255.2</ele>
        <time>2024-06-30T10:10:05Z</time>
      </trkpt>
      <trkpt lat="42.78394" lon="1.89766">
        <ele>1255.4</ele>
        <time>2024-06-30T10:10:06Z</time>
      </trkpt>
      <trkpt lat="42.78392" lon="1.89767">
        <ele>1255.6</ele>
        <time>2024-06-30T10:10:07Z</time>
      </trkpt>
      <trkpt lat="42.78389" lon="1.89768">
        <ele>1255.8</ele>
        <time>2024-06-30T10:10:08Z</time>
      </trkpt>
      <trkpt lat="42.78386" lon="1.89769">
        <ele>1255.8</ele>
        <time>2024-06-30T10:10:09Z</time>
      </trkpt>
      <trkpt lat="42.78383" lon="1.8977">
        <ele>1256.2</ele>
        <time>2024-06-30T10:10:10Z</time>
      </trkpt>
      <trkpt lat="42.78379" lon="1.89771">
        <ele>1256.2</ele>
        <time>2024-06-30T10:10:11Z</time>
      </trkpt>
      <trkpt lat="42.78375" lon="1.89772">
        <ele>1256.6</ele>
        <time>2024-06-30T10:10:12Z</time>
      </trkpt>
      <trkpt lat="42.78371" lon="1.89773">
        <ele>1256.8</ele>
        <time>2024-06-30T10:10:13Z</time>
      </trkpt>
      <trkpt lat="42.78368" lon="1.89773">
        <ele>1257</ele>
        <time>2024-06-30T10:10:14Z</time>
      </trkpt>
      <trkpt lat="42.78365" lon="1.89774">
        <ele>1257.2</ele>
        <time>2024-06-30T10:10:15Z</time>
      </trkpt>
      <trkpt lat="42.78361" lon="1.89775">
        <ele>1257.2</ele>
        <time>2024-06-30T10:10:16Z</time>
      </trkpt>
      <trkpt lat="42.78358" lon="1.89777">
        <ele>1257.4</ele>
        <time>2024-06-30T10:10:17Z</time>
      </trkpt>
      <trkpt lat="42.78355" lon="1.89778">
        <ele>1257.6</ele>
        <time>2024-06-30T10:10:18Z</time>
      </trkpt>
      <trkpt lat="42.78353" lon="1.89779">
        <ele>1257.6</ele>
        <time>2024-06-30T10:10:19Z</time>
      </trkpt>
      <trkpt lat="42.7835" lon="1.8978">
        <ele>1257.8</ele>
        <time>2024-06-30T10:10:20Z</time>
      </trkpt>
      <trkpt lat="42.78347" lon="1.89782">
        <ele>1257.8</ele>
        <time>2024-06-30T10:10:21Z</time>
      </trkpt>
      <trkpt lat="42.78345" lon="1.89783">
        <ele>1258</ele>
        <time>2024-06-30T10:10:22Z</time>
      </trkpt>
      <trkpt lat="42.78341" lon="1.89785">
        <ele>1258.2</ele>
        <time>2024-06-30T10:10:23Z</time>
      </trkpt>
      <trkpt lat="42.78339" lon="1.89786">
        <ele>1258.8</ele>
        <time>2024-06-30T10:10:24Z</time>
      </trkpt>
      <trkpt lat="42.78335" lon="1.89789">
        <ele>1259</ele>
        <time>2024-06-30T10:10:25Z</time>
      </trkpt>
      <trkpt lat="42.78331" lon="1.89791">
        <ele>1259.4</ele>
        <time>2024-06-30T10:10:26Z</time>
      </trkpt>
      <trkpt lat="42.78328" lon="1.89793">
        <ele>1259.4</ele>
        <time>2024-06-30T10:10:27Z</time>
      </trkpt>
      <trkpt lat="42.78326" lon="1.89793">
        <ele>1259.8</ele>
        <time>2024-06-30T10:10:28Z</time>
      </trkpt>
      <trkpt lat="42.78324" lon="1.89795">
        <ele>1260</ele>
        <time>2024-06-30T10:10:29Z</time>
      </trkpt>
      <trkpt lat="42.78322" lon="1.89796">
        <ele>1260</ele>
        <time>2024-06-30T10:10:30Z</time>
      </trkpt>
      <trkpt lat="42.78319" lon="1.89798">
        <ele>1260.4</ele>
        <time>2024-06-30T10:10:31Z</time>
      </trkpt>
      <trkpt lat="42.78317" lon="1.898">
        <ele>1260.4</ele>
        <time>2024-06-30T10:10:32Z</time>
      </trkpt>
      <trkpt lat="42.78314" lon="1.89801">
        <ele>1260.8</ele>
        <time>2024-06-30T10:10:33Z</time>
      </trkpt>
      <trkpt lat="42.78312" lon="1.89803">
        <ele>1260.8</ele>
        <time>2024-06-30T10:10:34Z</time>
      </trkpt>
      <trkpt lat="42.78309" lon="1.89804">
        <ele>1261</ele>
        <time>2024-06-30T10:10:35Z</time>
      </trkpt>
      <trkpt lat="42.78307" lon="1.89806">
        <ele>1261.2</ele>
        <time>2024-06-30T10:10:36Z</time>
      </trkpt>
      <trkpt lat="42.78304" lon="1.89807">
        <ele>1261.4</ele>
        <time>2024-06-30T10:10:37Z</time>
      </trkpt>
      <trkpt lat="42.78302" lon="1.89809">
        <ele>1261.6</ele>
        <time>2024-06-30T10:10:38Z</time>
      </trkpt>
      <trkpt lat="42.78301" lon="1.8981">
        <ele>1261.8</ele>
        <time>2024-06-30T10:10:39Z</time>
      </trkpt>
      <trkpt lat="42.78299" lon="1.89811">
        <ele>1262</ele>
        <time>2024-06-30T10:10:40Z</time>
      </trkpt>
      <trkpt lat="42.78297" lon="1.89812">
        <ele>1262.2</ele>
        <time>2024-06-30T10:10:41Z</time>
      </trkpt>
      <trkpt lat="42.78296" lon="1.89812">
        <ele>1262.6</ele>
        <time>2024-06-30T10:10:42Z</time>
      </trkpt>
      <trkpt lat="42.78296" lon="1.89813">
        <ele>1262.8</ele>
        <time>2024-06-30T10:10:43Z</time>
      </trkpt>
      <trkpt lat="42.78295" lon="1.89814">
        <ele>1263</ele>
        <time>2024-06-30T10:10:44Z</time>
      </trkpt>
      <trkpt lat="42.78294" lon="1.89816">
        <ele>1263.4</ele>
        <time>2024-06-30T10:10:45Z</time>
      </trkpt>
      <trkpt lat="42.78292" lon="1.89817">
        <ele>1263.6</ele>
        <time>2024-06-30T10:10:46Z</time>
      </trkpt>
      <trkpt lat="42.78291" lon="1.89818">
        <ele>1263.8</ele>
        <time>2024-06-30T10:10:47Z</time>
      </trkpt>
      <trkpt lat="42.78289" lon="1.8982">
        <ele>1263.8</ele>
        <time>2024-06-30T10:10:48Z</time>
      </trkpt>
      <trkpt lat="42.78288" lon="1.89822">
        <ele>1264.2</ele>
        <time>2024-06-30T10:10:49Z</time>
      </trkpt>
      <trkpt lat="42.78287" lon="1.89823">
        <ele>1264.4</ele>
        <time>2024-06-30T10:10:50Z</time>
      </trkpt>
      <trkpt lat="42.78285" lon="1.89825">
        <ele>1264.8</ele>
        <time>2024-06-30T10:10:51Z</time>
      </trkpt>
      <trkpt lat="42.78284" lon="1.89826">
        <ele>1265</ele>
        <time>2024-06-30T10:10:52Z</time>
      </trkpt>
      <trkpt lat="42.78282" lon="1.89827">
        <ele>1265.2</ele>
        <time>2024-06-30T10:10:53Z</time>
      </trkpt>
      <trkpt lat="42.78281" lon="1.8983">
        <ele>1265.4</ele>
        <time>2024-06-30T10:10:54Z</time>
      </trkpt>
      <trkpt lat="42.78281" lon="1.89832">
        <ele>1265.4</ele>
        <time>2024-06-30T10:10:55Z</time>
      </trkpt>
      <trkpt lat="42.78279" lon="1.89834">
        <ele>1265.8</ele>
        <time>2024-06-30T10:10:56Z</time>
      </trkpt>
      <trkpt lat="42.78278" lon="1.89836">
        <ele>1266</ele>
        <time>2024-06-30T10:10:57Z</time>
      </trkpt>
      <trkpt lat="42.78276" lon="1.89837">
        <ele>1266.2</ele>
        <time>2024-06-30T10:10:58Z</time>
      </trkpt>
      <trkpt lat="42.78274" lon="1.89839">
        <ele>1266.4</ele>
        <time>2024-06-30T10:10:59Z</time>
      </trkpt>
      <trkpt lat="42.78272" lon="1.89841">
        <ele>1267</ele>
        <time>2024-06-30T10:11:00Z</time>
      </trkpt>
      <trkpt lat="42.7827" lon="1.89842">
        <ele>1267.4</ele>
        <time>2024-06-30T10:11:01Z</time>
      </trkpt>
      <trkpt lat="42.78268" lon="1.89843">
        <ele>1267.6</ele>
        <time>2024-06-30T10:11:02Z</time>
      </trkpt>
      <trkpt lat="42.78266" lon="1.89845">
        <ele>1268</ele>
        <time>2024-06-30T10:11:03Z</time>
      </trkpt>
      <trkpt lat="42.78264" lon="1.89846">
        <ele>1268.2</ele>
        <time>2024-06-30T10:11:04Z</time>
      </trkpt>
      <trkpt lat="42.78262" lon="1.89848">
        <ele>1268.4</ele>
        <time>2024-06-30T10:11:05Z</time>
      </trkpt>
      <trkpt lat="42.78261" lon="1.89849">
        <ele>1268.6</ele>
        <time>2024-06-30T10:11:06Z</time>
      </trkpt>
      <trkpt lat="42.78259" lon="1.89851">
        <ele>1269</ele>
        <time>2024-06-30T10:11:07Z</time>
      </trkpt>
      <trkpt lat="42.78254" lon="1.89852">
        <ele>1269.4</ele>
        <time>2024-06-30T10:11:08Z</time>
      </trkpt>
      <trkpt lat="42.78251" lon="1.89854">
        <ele>1269.4</ele>
        <time>2024-06-30T10:11:09Z</time>
      </trkpt>
      <trkpt lat="42.78249" lon="1.89856">
        <ele>1269.8</ele>
        <time>2024-06-30T10:11:10Z</time>
      </trkpt>
      <trkpt lat="42.78247" lon="1.89858">
        <ele>1270</ele>
        <time>2024-06-30T10:11:11Z</time>
      </trkpt>
      <trkpt lat="42.78245" lon="1.89859">
        <ele>1270.4</ele>
        <time>2024-06-30T10:11:12Z</time>
      </trkpt>
      <trkpt lat="42.78242" lon="1.89862">
        <ele>1270.4</ele>
        <time>2024-06-30T10:11:13Z</time>
      </trkpt>
      <trkpt lat="42.7824" lon="1.89864">
        <ele>1270.8</ele>
        <time>2024-06-30T10:11:14Z</time>
      </trkpt>
      <trkpt lat="42.78237" lon="1.89866">
        <ele>1271</ele>
        <time>2024-06-30T10:11:15Z</time>
      </trkpt>
      <trkpt lat="42.78235" lon="1.89867">
        <ele>1271.2</ele>
        <time>2024-06-30T10:11:16Z</time>
      </trkpt>
      <trkpt lat="42.78233" lon="1.89869">
        <ele>1271.4</ele>
        <time>2024-06-30T10:11:17Z</time>
      </trkpt>
      <trkpt lat="42.78231" lon="1.89871">
        <ele>1271.6</ele>
        <time>2024-06-30T10:11:18Z</time>
      </trkpt>
      <trkpt lat="42.7823" lon="1.89873">
        <ele>1271.8</ele>
        <time>2024-06-30T10:11:19Z</time>
      </trkpt>
      <trkpt lat="42.78228" lon="1.89875">
        <ele>1272</ele>
        <time>2024-06-30T10:11:20Z</time>
      </trkpt>
      <trkpt lat="42.78226" lon="1.89876">
        <ele>1272</ele>
        <time>2024-06-30T10:11:21Z</time>
      </trkpt>
      <trkpt lat="42.78224" lon="1.89878">
        <ele>1272.2</ele>
        <time>2024-06-30T10:11:22Z</time>
      </trkpt>
      <trkpt lat="42.78222" lon="1.8988">
        <ele>1272.4</ele>
        <time>2024-06-30T10:11:23Z</time>
      </trkpt>
      <trkpt lat="42.78219" lon="1.89883">
        <ele>1272.6</ele>
        <time>2024-06-30T10:11:24Z</time>
      </trkpt>
      <trkpt lat="42.78217" lon="1.89885">
        <ele>1272.8</ele>
        <time>2024-06-30T10:11:25Z</time>
      </trkpt>
      <trkpt lat="42.78217" lon="1.89887">
        <ele>1273</ele>
        <time>2024-06-30T10:11:26Z</time>
      </trkpt>
      <trkpt lat="42.78215" lon="1.89888">
        <ele>1273.2</ele>
        <time>2024-06-30T10:11:27Z</time>
      </trkpt>
      <trkpt lat="42.78214" lon="1.89892">
        <ele>1273.4</ele>
        <time>2024-06-30T10:11:28Z</time>
      </trkpt>
      <trkpt lat="42.78213" lon="1.89894">
        <ele>1273.4</ele>
        <time>2024-06-30T10:11:29Z</time>
      </trkpt>
      <trkpt lat="42.78211" lon="1.89897">
        <ele>1273.6</ele>
        <time>2024-06-30T10:11:30Z</time>
      </trkpt>
      <trkpt lat="42.78208" lon="1.89899">
        <ele>1273.8</ele>
        <time>2024-06-30T10:11:31Z</time>
      </trkpt>
      <trkpt lat="42.78204" lon="1.899">
        <ele>1274</ele>
        <time>2024-06-30T10:11:32Z</time>
      </trkpt>
      <trkpt lat="42.78202" lon="1.89901">
        <ele>1274.4</ele>
        <time>2024-06-30T10:11:33Z</time>
      </trkpt>
      <trkpt lat="42.78199" lon="1.89903">
        <ele>1274.6</ele>
        <time>2024-06-30T10:11:34Z</time>
      </trkpt>
      <trkpt lat="42.78196" lon="1.89905">
        <ele>1274.8</ele>
        <time>2024-06-30T10:11:35Z</time>
      </trkpt>
      <trkpt lat="42.78195" lon="1.89906">
        <ele>1275</ele>
        <time>2024-06-30T10:11:36Z</time>
      </trkpt>
      <trkpt lat="42.78193" lon="1.89907">
        <ele>1275.2</ele>
        <time>2024-06-30T10:11:37Z</time>
      </trkpt>
      <trkpt lat="42.78192" lon="1.89908">
        <ele>1275.4</ele>
        <time>2024-06-30T10:11:38Z</time>
      </trkpt>
      <trkpt lat="42.7819" lon="1.89909">
        <ele>1275.4</ele>
        <time>2024-06-30T10:11:39Z</time>
      </trkpt>
      <trkpt lat="42.78189" lon="1.8991">
        <ele>1275.8</ele>
        <time>2024-06-30T10:11:40Z</time>
      </trkpt>
      <trkpt lat="42.78188" lon="1.89911">
        <ele>1276</ele>
        <time>2024-06-30T10:11:41Z</time>
      </trkpt>
      <trkpt lat="42.78186" lon="1.89912">
        <ele>1276.2</ele>
        <time>2024-06-30T10:11:42Z</time>
      </trkpt>
      <trkpt lat="42.78184" lon="1.89913">
        <ele>1276.4</ele>
        <time>2024-06-30T10:11:43Z</time>
      </trkpt>
      <trkpt lat="42.78183" lon="1.89914">
        <ele>1276.4</ele>
        <time>2024-06-30T10:11:44Z</time>
      </trkpt>
      <trkpt lat="42.78181" lon="1.89915">
        <ele>1276.8</ele>
        <time>2024-06-30T10:11:45Z</time>
      </trkpt>
      <trkpt lat="42.78179" lon="1.89916">
        <ele>1277</ele>
        <time>2024-06-30T10:11:46Z</time>
      </trkpt>
      <trkpt lat="42.78177" lon="1.89917">
        <ele>1277.2</ele>
        <time>2024-06-30T10:11:47Z</time>
      </trkpt>
      <trkpt lat="42.78175" lon="1.89919">
        <ele>1277.4</ele>
        <time>2024-06-30T10:11:48Z</time>
      </trkpt>
      <trkpt lat="42.78174" lon="1.8992">
        <ele>1277.6</ele>
        <time>2024-06-30T10:11:49Z</time>
      </trkpt>
      <trkpt lat="42.78171" lon="1.89922">
        <ele>1277.8</ele>
        <time>2024-06-30T10:11:50Z</time>
      </trkpt>
      <trkpt lat="42.78169" lon="1.89924">
        <ele>1278</ele>
        <time>2024-06-30T10:11:51Z</time>
      </trkpt>
      <trkpt lat="42.78167" lon="1.89926">
        <ele>1278.2</ele>
        <time>2024-06-30T10:11:52Z</time>
      </trkpt>
      <trkpt lat="42.78166" lon="1.89929">
        <ele>1278.4</ele>
        <time>2024-06-30T10:11:53Z</time>
      </trkpt>
      <trkpt lat="42.78164" lon="1.89932">
        <ele>1278.6</ele>
        <time>2024-06-30T10:11:54Z</time>
      </trkpt>
      <trkpt lat="42.78163" lon="1.89934">
        <ele>1278.8</ele>
        <time>2024-06-30T10:11:55Z</time>
      </trkpt>
      <trkpt lat="42.78162" lon="1.89938">
        <ele>1279</ele>
        <time>2024-06-30T10:11:56Z</time>
      </trkpt>
      <trkpt lat="42.78161" lon="1.89941">
        <ele>1279.2</ele>
        <time>2024-06-30T10:11:57Z</time>
      </trkpt>
      <trkpt lat="42.78159" lon="1.89944">
        <ele>1279.4</ele>
        <time>2024-06-30T10:11:58Z</time>
      </trkpt>
      <trkpt lat="42.78158" lon="1.89947">
        <ele>1279.4</ele>
        <time>2024-06-30T10:11:59Z</time>
      </trkpt>
      <trkpt lat="42.78157" lon="1.8995">
        <ele>1279.6</ele>
        <time>2024-06-30T10:12:00Z</time>
      </trkpt>
      <trkpt lat="42.78156" lon="1.89953">
        <ele>1280</ele>
        <time>2024-06-30T10:12:01Z</time>
      </trkpt>
      <trkpt lat="42.78155" lon="1.89957">
        <ele>1280</ele>
        <time>2024-06-30T10:12:02Z</time>
      </trkpt>
      <trkpt lat="42.78154" lon="1.8996">
        <ele>1280.2</ele>
        <time>2024-06-30T10:12:03Z</time>
      </trkpt>
      <trkpt lat="42.78153" lon="1.89965">
        <ele>1280.2</ele>
        <time>2024-06-30T10:12:04Z</time>
      </trkpt>
      <trkpt lat="42.78152" lon="1.89968">
        <ele>1280.8</ele>
        <time>2024-06-30T10:12:05Z</time>
      </trkpt>
      <trkpt lat="42.78152" lon="1.8997">
        <ele>1281</ele>
        <time>2024-06-30T10:12:06Z</time>
      </trkpt>
      <trkpt lat="42.78151" lon="1.89973">
        <ele>1281.4</ele>
        <time>2024-06-30T10:12:07Z</time>
      </trkpt>
      <trkpt lat="42.78151" lon="1.89976">
        <ele>1281.6</ele>
        <time>2024-06-30T10:12:08Z</time>
      </trkpt>
      <trkpt lat="42.78151" lon="1.89979">
        <ele>1281.6</ele>
        <time>2024-06-30T10:12:09Z</time>
      </trkpt>
      <trkpt lat="42.78154" lon="1.89983">
        <ele>1282</ele>
        <time>2024-06-30T10:12:10Z</time>
      </trkpt>
      <trkpt lat="42.78154" lon="1.89986">
        <ele>1282</ele>
        <time>2024-06-30T10:12:11Z</time>
      </trkpt>
      <trkpt lat="42.78155" lon="1.8999">
        <ele>1282.4</ele>
        <time>2024-06-30T10:12:12Z</time>
      </trkpt>
      <trkpt lat="42.78157" lon="1.89993">
        <ele>1282.6</ele>
        <time>2024-06-30T10:12:13Z</time>
      </trkpt>
      <trkpt lat="42.78159" lon="1.89995">
        <ele>1282.6</ele>
        <time>2024-06-30T10:12:14Z</time>
      </trkpt>
      <trkpt lat="42.78162" lon="1.89998">
        <ele>1282.6</ele>
        <time>2024-06-30T10:12:15Z</time>
      </trkpt>
      <trkpt lat="42.78163" lon="1.9">
        <ele>1282.8</ele>
        <time>2024-06-30T10:12:16Z</time>
      </trkpt>
      <trkpt lat="42.78165" lon="1.90001">
        <ele>1282.8</ele>
        <time>2024-06-30T10:12:17Z</time>
      </trkpt>
      <trkpt lat="42.78167" lon="1.90003">
        <ele>1283.2</ele>
        <time>2024-06-30T10:12:18Z</time>
      </trkpt>
      <trkpt lat="42.78169" lon="1.90004">
        <ele>1283</ele>
        <time>2024-06-30T10:12:19Z</time>
      </trkpt>
      <trkpt lat="42.7817" lon="1.90005">
        <ele>1283.2</ele>
        <time>2024-06-30T10:12:20Z</time>
      </trkpt>
      <trkpt lat="42.78172" lon="1.90006">
        <ele>1283.4</ele>
        <time>2024-06-30T10:12:21Z</time>
      </trkpt>
      <trkpt lat="42.78174" lon="1.90006">
        <ele>1283.6</ele>
        <time>2024-06-30T10:12:22Z</time>
      </trkpt>
      <trkpt lat="42.78177" lon="1.90006">
        <ele>1283.8</ele>
        <time>2024-06-30T10:12:23Z</time>
      </trkpt>
      <trkpt lat="42.78178" lon="1.90006">
        <ele>1284</ele>
        <time>2024-06-30T10:12:24Z</time>
      </trkpt>
      <trkpt lat="42.7818" lon="1.90005">
        <ele>1284</ele>
        <time>2024-06-30T10:12:25Z</time>
      </trkpt>
      <trkpt lat="42.78182" lon="1.90005">
        <ele>1284.2</ele>
        <time>2024-06-30T10:12:26Z</time>
      </trkpt>
      <trkpt lat="42.78185" lon="1.90004">
        <ele>1284.2</ele>
        <time>2024-06-30T10:12:27Z</time>
      </trkpt>
      <trkpt lat="42.78186" lon="1.90004">
        <ele>1284.4</ele>
        <time>2024-06-30T10:12:28Z</time>
      </trkpt>
      <trkpt lat="42.78189" lon="1.90003">
        <ele>1284.6</ele>
        <time>2024-06-30T10:12:29Z</time>
      </trkpt>
      <trkpt lat="42.78191" lon="1.90002">
        <ele>1285</ele>
        <time>2024-06-30T10:12:30Z</time>
      </trkpt>
      <trkpt lat="42.78193" lon="1.90001">
        <ele>1285.2</ele>
        <time>2024-06-30T10:12:31Z</time>
      </trkpt>
      <trkpt lat="42.78195" lon="1.9">
        <ele>1285.4</ele>
        <time>2024-06-30T10:12:32Z</time>
      </trkpt>
      <trkpt lat="42.78197" lon="1.89999">
        <ele>1286</ele>
        <time>2024-06-30T10:12:33Z</time>
      </trkpt>
      <trkpt lat="42.78199" lon="1.89997">
        <ele>1286.2</ele>
        <time>2024-06-30T10:12:34Z</time>
      </trkpt>
      <trkpt lat="42.78201" lon="1.89996">
        <ele>1286.4</ele>
        <time>2024-06-30T10:12:35Z</time>
      </trkpt>
      <trkpt lat="42.78203" lon="1.89995">
        <ele>1286.6</ele>
        <time>2024-06-30T10:12:36Z</time>
      </trkpt>
      <trkpt lat="42.78204" lon="1.89994">
        <ele>1286.8</ele>
        <time>2024-06-30T10:12:37Z</time>
      </trkpt>
      <trkpt lat="42.78206" lon="1.89993">
        <ele>1286.8</ele>
        <time>2024-06-30T10:12:38Z</time>
      </trkpt>
      <trkpt lat="42.78208" lon="1.89993">
        <ele>1287</ele>
        <time>2024-06-30T10:12:39Z</time>
      </trkpt>
      <trkpt lat="42.7821" lon="1.89992">
        <ele>1287.4</ele>
        <time>2024-06-30T10:12:40Z</time>
      </trkpt>
      <trkpt lat="42.78211" lon="1.89991">
        <ele>1287.6</ele>
        <time>2024-06-30T10:12:41Z</time>
      </trkpt>
      <trkpt lat="42.78213" lon="1.8999">
        <ele>1288.2</ele>
        <time>2024-06-30T10:12:42Z</time>
      </trkpt>
      <trkpt lat="42.78215" lon="1.89989">
        <ele>1288.4</ele>
        <time>2024-06-30T10:12:43Z</time>
      </trkpt>
      <trkpt lat="42.78217" lon="1.89989">
        <ele>1288.8</ele>
        <time>2024-06-30T10:12:44Z</time>
      </trkpt>
      <trkpt lat="42.78219" lon="1.89988">
        <ele>1289</ele>
        <time>2024-06-30T10:12:45Z</time>
      </trkpt>
      <trkpt lat="42.78221" lon="1.89988">
        <ele>1289</ele>
        <time>2024-06-30T10:12:46Z</time>
      </trkpt>
      <trkpt lat="42.78223" lon="1.89987">
        <ele>1289.4</ele>
        <time>2024-06-30T10:12:47Z</time>
      </trkpt>
      <trkpt lat="42.78225" lon="1.89987">
        <ele>1289.6</ele>
        <time>2024-06-30T10:12:48Z</time>
      </trkpt>
      <trkpt lat="42.78226" lon="1.89986">
        <ele>1289.8</ele>
        <time>2024-06-30T10:12:49Z</time>
      </trkpt>
      <trkpt lat="42.78229" lon="1.89986">
        <ele>1290</ele>
        <time>2024-06-30T10:12:50Z</time>
      </trkpt>
      <trkpt lat="42.78231" lon="1.89985">
        <ele>1290.4</ele>
        <time>2024-06-30T10:12:51Z</time>
      </trkpt>
      <trkpt lat="42.78234" lon="1.89984">
        <ele>1290.8</ele>
        <time>2024-06-30T10:12:52Z</time>
      </trkpt>
      <trkpt lat="42.78237" lon="1.89984">
        <ele>1291</ele>
        <time>2024-06-30T10:12:53Z</time>
      </trkpt>
      <trkpt lat="42.78239" lon="1.89984">
        <ele>1291.4</ele>
        <time>2024-06-30T10:12:54Z</time>
      </trkpt>
      <trkpt lat="42.78241" lon="1.89983">
        <ele>1291.4</ele>
        <time>2024-06-30T10:12:55Z</time>
      </trkpt>
      <trkpt lat="42.78243" lon="1.89983">
        <ele>1291.8</ele>
        <time>2024-06-30T10:12:56Z</time>
      </trkpt>
      <trkpt lat="42.78246" lon="1.89983">
        <ele>1292</ele>
        <time>2024-06-30T10:12:57Z</time>
      </trkpt>
      <trkpt lat="42.78248" lon="1.89984">
        <ele>1292.6</ele>
        <time>2024-06-30T10:12:58Z</time>
      </trkpt>
      <trkpt lat="42.7825" lon="1.89984">
        <ele>1293</ele>
        <time>2024-06-30T10:12:59Z</time>
      </trkpt>
      <trkpt lat="42.78253" lon="1.89983">
        <ele>1293</ele>
        <time>2024-06-30T10:13:00Z</time>
      </trkpt>
      <trkpt lat="42.78255" lon="1.89983">
        <ele>1293.2</ele>
        <time>2024-06-30T10:13:01Z</time>
      </trkpt>
      <trkpt lat="42.78258" lon="1.89983">
        <ele>1293.4</ele>
        <time>2024-06-30T10:13:02Z</time>
      </trkpt>
      <trkpt lat="42.7826" lon="1.89984">
        <ele>1293.6</ele>
        <time>2024-06-30T10:13:03Z</time>
      </trkpt>
      <trkpt lat="42.78262" lon="1.89984">
        <ele>1293.6</ele>
        <time>2024-06-30T10:13:04Z</time>
      </trkpt>
      <trkpt lat="42.78263" lon="1.89983">
        <ele>1293.8</ele>
        <time>2024-06-30T10:13:05Z</time>
      </trkpt>
      <trkpt lat="42.78265" lon="1.89983">
        <ele>1294</ele>
        <time>2024-06-30T10:13:06Z</time>
      </trkpt>
      <trkpt lat="42.78268" lon="1.89983">
        <ele>1294.2</ele>
        <time>2024-06-30T10:13:07Z</time>
      </trkpt>
      <trkpt lat="42.7827" lon="1.89984">
        <ele>1294.6</ele>
        <time>2024-06-30T10:13:08Z</time>
      </trkpt>
      <trkpt lat="42.78273" lon="1.89985">
        <ele>1294.8</ele>
        <time>2024-06-30T10:13:09Z</time>
      </trkpt>
      <trkpt lat="42.78275" lon="1.89986">
        <ele>1295</ele>
        <time>2024-06-30T10:13:10Z</time>
      </trkpt>
      <trkpt lat="42.78277" lon="1.89986">
        <ele>1295</ele>
        <time>2024-06-30T10:13:11Z</time>
      </trkpt>
      <trkpt lat="42.78279" lon="1.89986">
        <ele>1295.4</ele>
        <time>2024-06-30T10:13:12Z</time>
      </trkpt>
      <trkpt lat="42.7828" lon="1.89987">
        <ele>1295.6</ele>
        <time>2024-06-30T10:13:13Z</time>
      </trkpt>
      <trkpt lat="42.78282" lon="1.89989">
        <ele>1295.8</ele>
        <time>2024-06-30T10:13:14Z</time>
      </trkpt>
      <trkpt lat="42.78283" lon="1.89991">
        <ele>1296</ele>
        <time>2024-06-30T10:13:15Z</time>
      </trkpt>
      <trkpt lat="42.78286" lon="1.89993">
        <ele>1296.2</ele>
        <time>2024-06-30T10:13:16Z</time>
      </trkpt>
      <trkpt lat="42.78288" lon="1.89995">
        <ele>1296.4</ele>
        <time>2024-06-30T10:13:17Z</time>
      </trkpt>
      <trkpt lat="42.7829" lon="1.89997">
        <ele>1296.6</ele>
        <time>2024-06-30T10:13:18Z</time>
      </trkpt>
      <trkpt lat="42.78291" lon="1.89999">
        <ele>1296.8</ele>
        <time>2024-06-30T10:13:19Z</time>
      </trkpt>
      <trkpt lat="42.78293" lon="1.90001">
        <ele>1297</ele>
        <time>2024-06-30T10:13:20Z</time>
      </trkpt>
      <trkpt lat="42.78295" lon="1.90003">
        <ele>1297.2</ele>
        <time>2024-06-30T10:13:21Z</time>
      </trkpt>
      <trkpt lat="42.78296" lon="1.90005">
        <ele>1297.8</ele>
        <time>2024-06-30T10:13:22Z</time>
      </trkpt>
      <trkpt lat="42.78298" lon="1.90007">
        <ele>1297.8</ele>
        <time>2024-06-30T10:13:23Z</time>
      </trkpt>
      <trkpt lat="42.783" lon="1.90009">
        <ele>1298.2</ele>
        <time>2024-06-30T10:13:24Z</time>
      </trkpt>
      <trkpt lat="42.78302" lon="1.90011">
        <ele>1298</ele>
        <time>2024-06-30T10:13:25Z</time>
      </trkpt>
      <trkpt lat="42.78304" lon="1.90013">
        <ele>1298.2</ele>
        <time>2024-06-30T10:13:26Z</time>
      </trkpt>
      <trkpt lat="42.78306" lon="1.90015">
        <ele>1298.6</ele>
        <time>2024-06-30T10:13:27Z</time>
      </trkpt>
      <trkpt lat="42.78308" lon="1.90017">
        <ele>1298.6</ele>
        <time>2024-06-30T10:13:28Z</time>
      </trkpt>
      <trkpt lat="42.7831" lon="1.90019">
        <ele>1298.8</ele>
        <time>2024-06-30T10:13:29Z</time>
      </trkpt>
      <trkpt lat="42.78312" lon="1.90021">
        <ele>1298.8</ele>
        <time>2024-06-30T10:13:30Z</time>
      </trkpt>
      <trkpt lat="42.78314" lon="1.90024">
        <ele>1299.2</ele>
        <time>2024-06-30T10:13:31Z</time>
      </trkpt>
      <trkpt lat="42.78316" lon="1.90026">
        <ele>1299.2</ele>
        <time>2024-06-30T10:13:32Z</time>
      </trkpt>
      <trkpt lat="42.78318" lon="1.90028">
        <ele>1299.6</ele>
        <time>2024-06-30T10:13:33Z</time>
      </trkpt>
      <trkpt lat="42.7832" lon="1.90031">
        <ele>1299.8</ele>
        <time>2024-06-30T10:13:34Z</time>
      </trkpt>
      <trkpt lat="42.78322" lon="1.90033">
        <ele>1300.2</ele>
        <time>2024-06-30T10:13:35Z</time>
      </trkpt>
      <trkpt lat="42.78323" lon="1.90035">
        <ele>1300.4</ele>
        <time>2024-06-30T10:13:36Z</time>
      </trkpt>
      <trkpt lat="42.78325" lon="1.90037">
        <ele>1300.4</ele>
        <time>2024-06-30T10:13:37Z</time>
      </trkpt>
      <trkpt lat="42.78327" lon="1.90038">
        <ele>1300.6</ele>
        <time>2024-06-30T10:13:38Z</time>
      </trkpt>
      <trkpt lat="42.7833" lon="1.9004">
        <ele>1300.8</ele>
        <time>2024-06-30T10:13:39Z</time>
      </trkpt>
      <trkpt lat="42.78332" lon="1.90043">
        <ele>1301</ele>
        <time>2024-06-30T10:13:40Z</time>
      </trkpt>
      <trkpt lat="42.78334" lon="1.90046">
        <ele>1301</ele>
        <time>2024-06-30T10:13:41Z</time>
      </trkpt>
      <trkpt lat="42.78336" lon="1.90048">
        <ele>1301.4</ele>
        <time>2024-06-30T10:13:42Z</time>
      </trkpt>
      <trkpt lat="42.78338" lon="1.9005">
        <ele>1301.8</ele>
        <time>2024-06-30T10:13:43Z</time>
      </trkpt>
      <trkpt lat="42.7834" lon="1.90052">
        <ele>1302.4</ele>
        <time>2024-06-30T10:13:44Z</time>
      </trkpt>
      <trkpt lat="42.78342" lon="1.90054">
        <ele>1302.6</ele>
        <time>2024-06-30T10:13:45Z</time>
      </trkpt>
      <trkpt lat="42.78343" lon="1.90056">
        <ele>1303</ele>
        <time>2024-06-30T10:13:46Z</time>
      </trkpt>
      <trkpt lat="42.78345" lon="1.90058">
        <ele>1303.2</ele>
        <time>2024-06-30T10:13:47Z</time>
      </trkpt>
      <trkpt lat="42.78346" lon="1.9006">
        <ele>1303.4</ele>
        <time>2024-06-30T10:13:48Z</time>
      </trkpt>
      <trkpt lat="42.78348" lon="1.90062">
        <ele>1303.6</ele>
        <time>2024-06-30T10:13:49Z</time>
      </trkpt>
      <trkpt lat="42.7835" lon="1.90064">
        <ele>1303.8</ele>
        <time>2024-06-30T10:13:50Z</time>
      </trkpt>
      <trkpt lat="42.78351" lon="1.90066">
        <ele>1304</ele>
        <time>2024-06-30T10:13:51Z</time>
      </trkpt>
      <trkpt lat="42.78353" lon="1.90068">
        <ele>1304.2</ele>
        <time>2024-06-30T10:13:52Z</time>
      </trkpt>
      <trkpt lat="42.78354" lon="1.90069">
        <ele>1304.2</ele>
        <time>2024-06-30T10:13:53Z</time>
      </trkpt>
      <trkpt lat="42.78356" lon="1.9007">
        <ele>1304.4</ele>
        <time>2024-06-30T10:13:54Z</time>
      </trkpt>
      <trkpt lat="42.78358" lon="1.90072">
        <ele>1304.4</ele>
        <time>2024-06-30T10:13:55Z</time>
      </trkpt>
      <trkpt lat="42.78359" lon="1.90074">
        <ele>1304.8</ele>
        <time>2024-06-30T10:13:56Z</time>
      </trkpt>
      <trkpt lat="42.7836" lon="1.90076">
        <ele>1305.2</ele>
        <time>2024-06-30T10:13:57Z</time>
      </trkpt>
      <trkpt lat="42.78361" lon="1.90078">
        <ele>1305.4</ele>
        <time>2024-06-30T10:13:58Z</time>
      </trkpt>
      <trkpt lat="42.78363" lon="1.9008">
        <ele>1305.8</ele>
        <time>2024-06-30T10:13:59Z</time>
      </trkpt>
      <trkpt lat="42.78364" lon="1.90081">
        <ele>1305.8</ele>
        <time>2024-06-30T10:14:00Z</time>
      </trkpt>
      <trkpt lat="42.78365" lon="1.90083">
        <ele>1306.2</ele>
        <time>2024-06-30T10:14:01Z</time>
      </trkpt>
      <trkpt lat="42.78367" lon="1.90085">
        <ele>1306.4</ele>
        <time>2024-06-30T10:14:02Z</time>
      </trkpt>
      <trkpt lat="42.78368" lon="1.90087">
        <ele>1306.8</ele>
        <time>2024-06-30T10:14:03Z</time>
      </trkpt>
      <trkpt lat="42.78369" lon="1.90089">
        <ele>1306.8</ele>
        <time>2024-06-30T10:14:04Z</time>
      </trkpt>
      <trkpt lat="42.78371" lon="1.90091">
        <ele>1307.2</ele>
        <time>2024-06-30T10:14:05Z</time>
      </trkpt>
      <trkpt lat="42.78372" lon="1.90092">
        <ele>1307.4</ele>
        <time>2024-06-30T10:14:06Z</time>
      </trkpt>
      <trkpt lat="42.78374" lon="1.90094">
        <ele>1307.6</ele>
        <time>2024-06-30T10:14:07Z</time>
      </trkpt>
      <trkpt lat="42.78375" lon="1.90096">
        <ele>1308</ele>
        <time>2024-06-30T10:14:08Z</time>
      </trkpt>
      <trkpt lat="42.78377" lon="1.901">
        <ele>1308.2</ele>
        <time>2024-06-30T10:14:09Z</time>
      </trkpt>
      <trkpt lat="42.78378" lon="1.90103">
        <ele>1308.4</ele>
        <time>2024-06-30T10:14:10Z</time>
      </trkpt>
      <trkpt lat="42.7838" lon="1.90105">
        <ele>1308.6</ele>
        <time>2024-06-30T10:14:11Z</time>
      </trkpt>
      <trkpt lat="42.78381" lon="1.90108">
        <ele>1309</ele>
        <time>2024-06-30T10:14:12Z</time>
      </trkpt>
      <trkpt lat="42.78384" lon="1.90111">
        <ele>1309.2</ele>
        <time>2024-06-30T10:14:13Z</time>
      </trkpt>
      <trkpt lat="42.78386" lon="1.90115">
        <ele>1309.2</ele>
        <time>2024-06-30T10:14:14Z</time>
      </trkpt>
      <trkpt lat="42.78387" lon="1.90118">
        <ele>1309.2</ele>
        <time>2024-06-30T10:14:15Z</time>
      </trkpt>
      <trkpt lat="42.78388" lon="1.90121">
        <ele>1309.4</ele>
        <time>2024-06-30T10:14:16Z</time>
      </trkpt>
      <trkpt lat="42.78389" lon="1.90124">
        <ele>1309.6</ele>
        <time>2024-06-30T10:14:17Z</time>
      </trkpt>
      <trkpt lat="42.7839" lon="1.90128">
        <ele>1310</ele>
        <time>2024-06-30T10:14:18Z</time>
      </trkpt>
      <trkpt lat="42.78391" lon="1.90131">
        <ele>1310.4</ele>
        <time>2024-06-30T10:14:19Z</time>
      </trkpt>
      <trkpt lat="42.78392" lon="1.90134">
        <ele>1310.6</ele>
        <time>2024-06-30T10:14:20Z</time>
      </trkpt>
      <trkpt lat="42.78393" lon="1.90136">
        <ele>1310.8</ele>
        <time>2024-06-30T10:14:21Z</time>
      </trkpt>
      <trkpt lat="42.78393" lon="1.90139">
        <ele>1311.2</ele>
        <time>2024-06-30T10:14:22Z</time>
      </trkpt>
      <trkpt lat="42.78394" lon="1.90142">
        <ele>1311.4</ele>
        <time>2024-06-30T10:14:23Z</time>
      </trkpt>
      <trkpt lat="42.78394" lon="1.90145">
        <ele>1312</ele>
        <time>2024-06-30T10:14:24Z</time>
      </trkpt>
      <trkpt lat="42.78395" lon="1.90147">
        <ele>1312.2</ele>
        <time>2024-06-30T10:14:25Z</time>
      </trkpt>
      <trkpt lat="42.78395" lon="1.9015">
        <ele>1312.4</ele>
        <time>2024-06-30T10:14:26Z</time>
      </trkpt>
      <trkpt lat="42.78396" lon="1.90153">
        <ele>1312.6</ele>
        <time>2024-06-30T10:14:27Z</time>
      </trkpt>
      <trkpt lat="42.78397" lon="1.90156">
        <ele>1312.8</ele>
        <time>2024-06-30T10:14:28Z</time>
      </trkpt>
      <trkpt lat="42.78397" lon="1.90159">
        <ele>1313</ele>
        <time>2024-06-30T10:14:29Z</time>
      </trkpt>
      <trkpt lat="42.78398" lon="1.90161">
        <ele>1313</ele>
        <time>2024-06-30T10:14:30Z</time>
      </trkpt>
      <trkpt lat="42.78398" lon="1.90164">
        <ele>1313.4</ele>
        <time>2024-06-30T10:14:31Z</time>
      </trkpt>
      <trkpt lat="42.78399" lon="1.90167">
        <ele>1313.4</ele>
        <time>2024-06-30T10:14:32Z</time>
      </trkpt>
      <trkpt lat="42.784" lon="1.9017">
        <ele>1313.8</ele>
        <time>2024-06-30T10:14:33Z</time>
      </trkpt>
      <trkpt lat="42.784" lon="1.90172">
        <ele>1314</ele>
        <time>2024-06-30T10:14:34Z</time>
      </trkpt>
      <trkpt lat="42.78401" lon="1.90175">
        <ele>1314.2</ele>
        <time>2024-06-30T10:14:35Z</time>
      </trkpt>
      <trkpt lat="42.78401" lon="1.90179">
        <ele>1314.4</ele>
        <time>2024-06-30T10:14:36Z</time>
      </trkpt>
      <trkpt lat="42.78402" lon="1.90182">
        <ele>1314.6</ele>
        <time>2024-06-30T10:14:37Z</time>
      </trkpt>
      <trkpt lat="42.78402" lon="1.90184">
        <ele>1315</ele>
        <time>2024-06-30T10:14:38Z</time>
      </trkpt>
      <trkpt lat="42.78403" lon="1.90188">
        <ele>1315</ele>
        <time>2024-06-30T10:14:39Z</time>
      </trkpt>
      <trkpt lat="42.78404" lon="1.90192">
        <ele>1315.4</ele>
        <time>2024-06-30T10:14:40Z</time>
      </trkpt>
      <trkpt lat="42.78404" lon="1.90195">
        <ele>1315.4</ele>
        <time>2024-06-30T10:14:41Z</time>
      </trkpt>
      <trkpt lat="42.78404" lon="1.90198">
        <ele>1315.8</ele>
        <time>2024-06-30T10:14:42Z</time>
      </trkpt>
      <trkpt lat="42.78405" lon="1.90201">
        <ele>1316</ele>
        <time>2024-06-30T10:14:43Z</time>
      </trkpt>
      <trkpt lat="42.78405" lon="1.90204">
        <ele>1316.2</ele>
        <time>2024-06-30T10:14:44Z</time>
      </trkpt>
      <trkpt lat="42.78405" lon="1.90206">
        <ele>1316.6</ele>
        <time>2024-06-30T10:14:45Z</time>
      </trkpt>
      <trkpt lat="42.78406" lon="1.90209">
        <ele>1316.6</ele>
        <time>2024-06-30T10:14:46Z</time>
      </trkpt>
      <trkpt lat="42.78405" lon="1.90212">
        <ele>1317</ele>
        <time>2024-06-30T10:14:47Z</time>
      </trkpt>
      <trkpt lat="42.78405" lon="1.90215">
        <ele>1317</ele>
        <time>2024-06-30T10:14:48Z</time>
      </trkpt>
      <trkpt lat="42.78405" lon="1.90218">
        <ele>1317.4</ele>
        <time>2024-06-30T10:14:49Z</time>
      </trkpt>
      <trkpt lat="42.78406" lon="1.90221">
        <ele>1317.6</ele>
        <time>2024-06-30T10:14:50Z</time>
      </trkpt>
      <trkpt lat="42.78406" lon="1.90224">
        <ele>1317.8</ele>
        <time>2024-06-30T10:14:51Z</time>
      </trkpt>
      <trkpt lat="42.78406" lon="1.90227">
        <ele>1318.4</ele>
        <time>2024-06-30T10:14:52Z</time>
      </trkpt>
      <trkpt lat="42.78406" lon="1.9023">
        <ele>1318.6</ele>
        <time>2024-06-30T10:14:53Z</time>
      </trkpt>
      <trkpt lat="42.78406" lon="1.90233">
        <ele>1318.8</ele>
        <time>2024-06-30T10:14:54Z</time>
      </trkpt>
      <trkpt lat="42.78406" lon="1.90236">
        <ele>1319</ele>
        <time>2024-06-30T10:14:55Z</time>
      </trkpt>
      <trkpt lat="42.78405" lon="1.90239">
        <ele>1319</ele>
        <time>2024-06-30T10:14:56Z</time>
      </trkpt>
      <trkpt lat="42.78404" lon="1.90242">
        <ele>1319.6</ele>
        <time>2024-06-30T10:14:57Z</time>
      </trkpt>
      <trkpt lat="42.78404" lon="1.90246">
        <ele>1319.8</ele>
        <time>2024-06-30T10:14:58Z</time>
      </trkpt>
      <trkpt lat="42.78404" lon="1.90248">
        <ele>1320</ele>
        <time>2024-06-30T10:14:59Z</time>
      </trkpt>
      <trkpt lat="42.78404" lon="1.90252">
        <ele>1320.2</ele>
        <time>2024-06-30T10:15:00Z</time>
      </trkpt>
      <trkpt lat="42.78405" lon="1.90256">
        <ele>1320.6</ele>
        <time>2024-06-30T10:15:01Z</time>
      </trkpt>
      <trkpt lat="42.78405" lon="1.90259">
        <ele>1320.6</ele>
        <time>2024-06-30T10:15:02Z</time>
      </trkpt>
      <trkpt lat="42.78404" lon="1.90262">
        <ele>1321</ele>
        <time>2024-06-30T10:15:03Z</time>
      </trkpt>
      <trkpt lat="42.78405" lon="1.90266">
        <ele>1321.2</ele>
        <time>2024-06-30T10:15:04Z</time>
      </trkpt>
      <trkpt lat="42.78405" lon="1.90269">
        <ele>1321.4</ele>
        <time>2024-06-30T10:15:05Z</time>
      </trkpt>
      <trkpt lat="42.78405" lon="1.90272">
        <ele>1321.6</ele>
        <time>2024-06-30T10:15:06Z</time>
      </trkpt>
      <trkpt lat="42.78405" lon="1.90275">
        <ele>1321.6</ele>
        <time>2024-06-30T10:15:07Z</time>
      </trkpt>
      <trkpt lat="42.78405" lon="1.90278">
        <ele>1321.8</ele>
        <time>2024-06-30T10:15:08Z</time>
      </trkpt>
      <trkpt lat="42.78406" lon="1.90282">
        <ele>1322</ele>
        <time>2024-06-30T10:15:09Z</time>
      </trkpt>
      <trkpt lat="42.78406" lon="1.90285">
        <ele>1322.2</ele>
        <time>2024-06-30T10:15:10Z</time>
      </trkpt>
      <trkpt lat="42.78406" lon="1.90288">
        <ele>1322.6</ele>
        <time>2024-06-30T10:15:11Z</time>
      </trkpt>
      <trkpt lat="42.78406" lon="1.90291">
        <ele>1322.8</ele>
        <time>2024-06-30T10:15:12Z</time>
      </trkpt>
      <trkpt lat="42.78407" lon="1.90294">
        <ele>1323</ele>
        <time>2024-06-30T10:15:13Z</time>
      </trkpt>
      <trkpt lat="42.78407" lon="1.90297">
        <ele>1323</ele>
        <time>2024-06-30T10:15:14Z</time>
      </trkpt>
      <trkpt lat="42.78407" lon="1.903">
        <ele>1323.4</ele>
        <time>2024-06-30T10:15:15Z</time>
      </trkpt>
      <trkpt lat="42.78407" lon="1.90303">
        <ele>1323.6</ele>
        <time>2024-06-30T10:15:16Z</time>
      </trkpt>
      <trkpt lat="42.78408" lon="1.90306">
        <ele>1323.8</ele>
        <time>2024-06-30T10:15:17Z</time>
      </trkpt>
      <trkpt lat="42.78408" lon="1.90309">
        <ele>1324.2</ele>
        <time>2024-06-30T10:15:18Z</time>
      </trkpt>
      <trkpt lat="42.78408" lon="1.90312">
        <ele>1324.2</ele>
        <time>2024-06-30T10:15:19Z</time>
      </trkpt>
      <trkpt lat="42.78409" lon="1.90315">
        <ele>1324.6</ele>
        <time>2024-06-30T10:15:20Z</time>
      </trkpt>
      <trkpt lat="42.78409" lon="1.90318">
        <ele>1324.8</ele>
        <time>2024-06-30T10:15:21Z</time>
      </trkpt>
      <trkpt lat="42.78409" lon="1.9032">
        <ele>1325</ele>
        <time>2024-06-30T10:15:22Z</time>
      </trkpt>
      <trkpt lat="42.7841" lon="1.90323">
        <ele>1325</ele>
        <time>2024-06-30T10:15:23Z</time>
      </trkpt>
      <trkpt lat="42.7841" lon="1.90326">
        <ele>1325</ele>
        <time>2024-06-30T10:15:24Z</time>
      </trkpt>
      <trkpt lat="42.7841" lon="1.90329">
        <ele>1325.4</ele>
        <time>2024-06-30T10:15:25Z</time>
      </trkpt>
      <trkpt lat="42.78411" lon="1.90333">
        <ele>1325.4</ele>
        <time>2024-06-30T10:15:26Z</time>
      </trkpt>
      <trkpt lat="42.78411" lon="1.90335">
        <ele>1325.8</ele>
        <time>2024-06-30T10:15:27Z</time>
      </trkpt>
      <trkpt lat="42.78412" lon="1.90338">
        <ele>1326</ele>
        <time>2024-06-30T10:15:28Z</time>
      </trkpt>
      <trkpt lat="42.78412" lon="1.90341">
        <ele>1326.4</ele>
        <time>2024-06-30T10:15:29Z</time>
      </trkpt>
      <trkpt lat="42.78413" lon="1.90345">
        <ele>1326.6</ele>
        <time>2024-06-30T10:15:30Z</time>
      </trkpt>
      <trkpt lat="42.78414" lon="1.90348">
        <ele>1326.8</ele>
        <time>2024-06-30T10:15:31Z</time>
      </trkpt>
      <trkpt lat="42.78414" lon="1.90351">
        <ele>1327</ele>
        <time>2024-06-30T10:15:32Z</time>
      </trkpt>
      <trkpt lat="42.78414" lon="1.90354">
        <ele>1327.4</ele>
        <time>2024-06-30T10:15:33Z</time>
      </trkpt>
      <trkpt lat="42.78414" lon="1.90357">
        <ele>1327.8</ele>
        <time>2024-06-30T10:15:34Z</time>
      </trkpt>
      <trkpt lat="42.78415" lon="1.9036">
        <ele>1328</ele>
        <time>2024-06-30T10:15:35Z</time>
      </trkpt>
      <trkpt lat="42.78415" lon="1.90363">
        <ele>1328.2</ele>
        <time>2024-06-30T10:15:36Z</time>
      </trkpt>
      <trkpt lat="42.78415" lon="1.90366">
        <ele>1328.4</ele>
        <time>2024-06-30T10:15:37Z</time>
      </trkpt>
      <trkpt lat="42.78415" lon="1.90369">
        <ele>1328.6</ele>
        <time>2024-06-30T10:15:38Z</time>
      </trkpt>
      <trkpt lat="42.78415" lon="1.90372">
        <ele>1328.8</ele>
        <time>2024-06-30T10:15:39Z</time>
      </trkpt>
      <trkpt lat="42.78416" lon="1.90375">
        <ele>1329</ele>
        <time>2024-06-30T10:15:40Z</time>
      </trkpt>
      <trkpt lat="42.78416" lon="1.90378">
        <ele>1329.4</ele>
        <time>2024-06-30T10:15:41Z</time>
      </trkpt>
      <trkpt lat="42.78416" lon="1.90382">
        <ele>1329.6</ele>
        <time>2024-06-30T10:15:42Z</time>
      </trkpt>
      <trkpt lat="42.78416" lon="1.90384">
        <ele>1329.8</ele>
        <time>2024-06-30T10:15:43Z</time>
      </trkpt>
      <trkpt lat="42.78416" lon="1.90387">
        <ele>1330</ele>
        <time>2024-06-30T10:15:44Z</time>
      </trkpt>
      <trkpt lat="42.78416" lon="1.9039">
        <ele>1330.4</ele>
        <time>2024-06-30T10:15:45Z</time>
      </trkpt>
      <trkpt lat="42.78416" lon="1.90393">
        <ele>1330.6</ele>
        <time>2024-06-30T10:15:46Z</time>
      </trkpt>
      <trkpt lat="42.78417" lon="1.90396">
        <ele>1331</ele>
        <time>2024-06-30T10:15:47Z</time>
      </trkpt>
      <trkpt lat="42.78417" lon="1.90399">
        <ele>1331.4</ele>
        <time>2024-06-30T10:15:48Z</time>
      </trkpt>
      <trkpt lat="42.78417" lon="1.90402">
        <ele>1331.4</ele>
        <time>2024-06-30T10:15:49Z</time>
      </trkpt>
      <trkpt lat="42.78417" lon="1.90404">
        <ele>1331.8</ele>
        <time>2024-06-30T10:15:50Z</time>
      </trkpt>
      <trkpt lat="42.78416" lon="1.90407">
        <ele>1332</ele>
        <time>2024-06-30T10:15:51Z</time>
      </trkpt>
      <trkpt lat="42.78416" lon="1.9041">
        <ele>1332.4</ele>
        <time>2024-06-30T10:15:52Z</time>
      </trkpt>
      <trkpt lat="42.78417" lon="1.90413">
        <ele>1332.4</ele>
        <time>2024-06-30T10:15:53Z</time>
      </trkpt>
      <trkpt lat="42.78417" lon="1.90415">
        <ele>1332.8</ele>
        <time>2024-06-30T10:15:54Z</time>
      </trkpt>
      <trkpt lat="42.78418" lon="1.90418">
        <ele>1333.2</ele>
        <time>2024-06-30T10:15:55Z</time>
      </trkpt>
      <trkpt lat="42.78418" lon="1.9042">
        <ele>1333.4</ele>
        <time>2024-06-30T10:15:56Z</time>
      </trkpt>
      <trkpt lat="42.78418" lon="1.90423">
        <ele>1333.6</ele>
        <time>2024-06-30T10:15:57Z</time>
      </trkpt>
      <trkpt lat="42.78418" lon="1.90426">
        <ele>1333.6</ele>
        <time>2024-06-30T10:15:58Z</time>
      </trkpt>
      <trkpt lat="42.78418" lon="1.90429">
        <ele>1333.8</ele>
        <time>2024-06-30T10:15:59Z</time>
      </trkpt>
      <trkpt lat="42.78418" lon="1.90432">
        <ele>1334</ele>
        <time>2024-06-30T10:16:00Z</time>
      </trkpt>
      <trkpt lat="42.78418" lon="1.90436">
        <ele>1334.2</ele>
        <time>2024-06-30T10:16:01Z</time>
      </trkpt>
      <trkpt lat="42.78418" lon="1.90439">
        <ele>1334.6</ele>
        <time>2024-06-30T10:16:02Z</time>
      </trkpt>
      <trkpt lat="42.78418" lon="1.90442">
        <ele>1334.8</ele>
        <time>2024-06-30T10:16:03Z</time>
      </trkpt>
      <trkpt lat="42.78417" lon="1.90445">
        <ele>1334.8</ele>
        <time>2024-06-30T10:16:04Z</time>
      </trkpt>
      <trkpt lat="42.78417" lon="1.90448">
        <ele>1335</ele>
        <time>2024-06-30T10:16:05Z</time>
      </trkpt>
      <trkpt lat="42.78417" lon="1.90451">
        <ele>1335</ele>
        <time>2024-06-30T10:16:06Z</time>
      </trkpt>
      <trkpt lat="42.78416" lon="1.90453">
        <ele>1335.2</ele>
        <time>2024-06-30T10:16:07Z</time>
      </trkpt>
      <trkpt lat="42.78416" lon="1.90455">
        <ele>1335.2</ele>
        <time>2024-06-30T10:16:08Z</time>
      </trkpt>
      <trkpt lat="42.78415" lon="1.90457">
        <ele>1335.4</ele>
        <time>2024-06-30T10:16:09Z</time>
      </trkpt>
      <trkpt lat="42.78414" lon="1.90459">
        <ele>1335.6</ele>
        <time>2024-06-30T10:16:10Z</time>
      </trkpt>
      <trkpt lat="42.78414" lon="1.90462">
        <ele>1336</ele>
        <time>2024-06-30T10:16:11Z</time>
      </trkpt>
      <trkpt lat="42.78413" lon="1.90464">
        <ele>1336.2</ele>
        <time>2024-06-30T10:16:12Z</time>
      </trkpt>
      <trkpt lat="42.78413" lon="1.90467">
        <ele>1336.4</ele>
        <time>2024-06-30T10:16:13Z</time>
      </trkpt>
      <trkpt lat="42.78412" lon="1.90469">
        <ele>1336.4</ele>
        <time>2024-06-30T10:16:14Z</time>
      </trkpt>
      <trkpt lat="42.78411" lon="1.90472">
        <ele>1336.6</ele>
        <time>2024-06-30T10:16:15Z</time>
      </trkpt>
      <trkpt lat="42.7841" lon="1.90474">
        <ele>1337</ele>
        <time>2024-06-30T10:16:16Z</time>
      </trkpt>
      <trkpt lat="42.7841" lon="1.90476">
        <ele>1337.2</ele>
        <time>2024-06-30T10:16:17Z</time>
      </trkpt>
      <trkpt lat="42.78409" lon="1.90478">
        <ele>1337.6</ele>
        <time>2024-06-30T10:16:18Z</time>
      </trkpt>
      <trkpt lat="42.78408" lon="1.90481">
        <ele>1337.6</ele>
        <time>2024-06-30T10:16:19Z</time>
      </trkpt>
      <trkpt lat="42.78407" lon="1.90485">
        <ele>1338</ele>
        <time>2024-06-30T10:16:20Z</time>
      </trkpt>
      <trkpt lat="42.78406" lon="1.90487">
        <ele>1338</ele>
        <time>2024-06-30T10:16:21Z</time>
      </trkpt>
      <trkpt lat="42.78405" lon="1.9049">
        <ele>1338.6</ele>
        <time>2024-06-30T10:16:22Z</time>
      </trkpt>
      <trkpt lat="42.78403" lon="1.90493">
        <ele>1338.8</ele>
        <time>2024-06-30T10:16:23Z</time>
      </trkpt>
      <trkpt lat="42.78402" lon="1.90495">
        <ele>1339</ele>
        <time>2024-06-30T10:16:24Z</time>
      </trkpt>
      <trkpt lat="42.78401" lon="1.90498">
        <ele>1339.2</ele>
        <time>2024-06-30T10:16:25Z</time>
      </trkpt>
      <trkpt lat="42.78402" lon="1.90502">
        <ele>1339.4</ele>
        <time>2024-06-30T10:16:26Z</time>
      </trkpt>
      <trkpt lat="42.78401" lon="1.90504">
        <ele>1339.6</ele>
        <time>2024-06-30T10:16:27Z</time>
      </trkpt>
      <trkpt lat="42.78402" lon="1.90507">
        <ele>1339.8</ele>
        <time>2024-06-30T10:16:28Z</time>
      </trkpt>
      <trkpt lat="42.78401" lon="1.90508">
        <ele>1340</ele>
        <time>2024-06-30T10:16:29Z</time>
      </trkpt>
      <trkpt lat="42.784" lon="1.90511">
        <ele>1340</ele>
        <time>2024-06-30T10:16:30Z</time>
      </trkpt>
      <trkpt lat="42.784" lon="1.90514">
        <ele>1340.4</ele>
        <time>2024-06-30T10:16:31Z</time>
      </trkpt>
      <trkpt lat="42.784" lon="1.90518">
        <ele>1340.6</ele>
        <time>2024-06-30T10:16:32Z</time>
      </trkpt>
      <trkpt lat="42.78399" lon="1.90522">
        <ele>1340.6</ele>
        <time>2024-06-30T10:16:33Z</time>
      </trkpt>
      <trkpt lat="42.78399" lon="1.90526">
        <ele>1341</ele>
        <time>2024-06-30T10:16:34Z</time>
      </trkpt>
      <trkpt lat="42.78398" lon="1.9053">
        <ele>1341</ele>
        <time>2024-06-30T10:16:35Z</time>
      </trkpt>
      <trkpt lat="42.78399" lon="1.90534">
        <ele>1341.4</ele>
        <time>2024-06-30T10:16:36Z</time>
      </trkpt>
      <trkpt lat="42.78399" lon="1.90537">
        <ele>1341.6</ele>
        <time>2024-06-30T10:16:37Z</time>
      </trkpt>
      <trkpt lat="42.78399" lon="1.9054">
        <ele>1341.8</ele>
        <time>2024-06-30T10:16:38Z</time>
      </trkpt>
      <trkpt lat="42.78398" lon="1.90544">
        <ele>1342</ele>
        <time>2024-06-30T10:16:39Z</time>
      </trkpt>
      <trkpt lat="42.78397" lon="1.90549">
        <ele>1342.2</ele>
        <time>2024-06-30T10:16:40Z</time>
      </trkpt>
      <trkpt lat="42.78397" lon="1.9055">
        <ele>1342.4</ele>
        <time>2024-06-30T10:16:41Z</time>
      </trkpt>
      <trkpt lat="42.78396" lon="1.90553">
        <ele>1342.6</ele>
        <time>2024-06-30T10:16:42Z</time>
      </trkpt>
      <trkpt lat="42.78396" lon="1.90556">
        <ele>1343</ele>
        <time>2024-06-30T10:16:43Z</time>
      </trkpt>
      <trkpt lat="42.78395" lon="1.9056">
        <ele>1343.2</ele>
        <time>2024-06-30T10:16:44Z</time>
      </trkpt>
      <trkpt lat="42.78395" lon="1.90564">
        <ele>1343.6</ele>
        <time>2024-06-30T10:16:45Z</time>
      </trkpt>
      <trkpt lat="42.78394" lon="1.90568">
        <ele>1343.8</ele>
        <time>2024-06-30T10:16:46Z</time>
      </trkpt>
      <trkpt lat="42.78396" lon="1.90571">
        <ele>1344</ele>
        <time>2024-06-30T10:16:47Z</time>
      </trkpt>
      <trkpt lat="42.78394" lon="1.90574">
        <ele>1344.2</ele>
        <time>2024-06-30T10:16:48Z</time>
      </trkpt>
      <trkpt lat="42.78394" lon="1.90575">
        <ele>1344.2</ele>
        <time>2024-06-30T10:16:49Z</time>
      </trkpt>
      <trkpt lat="42.78393" lon="1.90578">
        <ele>1344.6</ele>
        <time>2024-06-30T10:16:50Z</time>
      </trkpt>
      <trkpt lat="42.78393" lon="1.90581">
        <ele>1344.8</ele>
        <time>2024-06-30T10:16:51Z</time>
      </trkpt>
      <trkpt lat="42.78392" lon="1.90584">
        <ele>1345</ele>
        <time>2024-06-30T10:16:52Z</time>
      </trkpt>
      <trkpt lat="42.78392" lon="1.90586">
        <ele>1345.2</ele>
        <time>2024-06-30T10:16:53Z</time>
      </trkpt>
      <trkpt lat="42.78391" lon="1.90589">
        <ele>1345.2</ele>
        <time>2024-06-30T10:16:54Z</time>
      </trkpt>
      <trkpt lat="42.7839" lon="1.90591">
        <ele>1345.6</ele>
        <time>2024-06-30T10:16:55Z</time>
      </trkpt>
      <trkpt lat="42.78389" lon="1.90594">
        <ele>1345.6</ele>
        <time>2024-06-30T10:16:56Z</time>
      </trkpt>
      <trkpt lat="42.78388" lon="1.90597">
        <ele>1346.2</ele>
        <time>2024-06-30T10:16:57Z</time>
      </trkpt>
      <trkpt lat="42.78388" lon="1.90599">
        <ele>1346.4</ele>
        <time>2024-06-30T10:16:58Z</time>
      </trkpt>
      <trkpt lat="42.78387" lon="1.90602">
        <ele>1346.6</ele>
        <time>2024-06-30T10:16:59Z</time>
      </trkpt>
      <trkpt lat="42.78387" lon="1.90605">
        <ele>1346.8</ele>
        <time>2024-06-30T10:17:00Z</time>
      </trkpt>
      <trkpt lat="42.78386" lon="1.90608">
        <ele>1347.2</ele>
        <time>2024-06-30T10:17:01Z</time>
      </trkpt>
      <trkpt lat="42.78386" lon="1.9061">
        <ele>1347.4</ele>
        <time>2024-06-30T10:17:02Z</time>
      </trkpt>
      <trkpt lat="42.78385" lon="1.90613">
        <ele>1347.6</ele>
        <time>2024-06-30T10:17:03Z</time>
      </trkpt>
      <trkpt lat="42.78384" lon="1.90615">
        <ele>1347.8</ele>
        <time>2024-06-30T10:17:04Z</time>
      </trkpt>
      <trkpt lat="42.78383" lon="1.90618">
        <ele>1348</ele>
        <time>2024-06-30T10:17:05Z</time>
      </trkpt>
      <trkpt lat="42.78382" lon="1.9062">
        <ele>1348</ele>
        <time>2024-06-30T10:17:06Z</time>
      </trkpt>
      <trkpt lat="42.78381" lon="1.90622">
        <ele>1348.4</ele>
        <time>2024-06-30T10:17:07Z</time>
      </trkpt>
      <trkpt lat="42.7838" lon="1.90625">
        <ele>1348.6</ele>
        <time>2024-06-30T10:17:08Z</time>
      </trkpt>
      <trkpt lat="42.78379" lon="1.90627">
        <ele>1348.8</ele>
        <time>2024-06-30T10:17:09Z</time>
      </trkpt>
      <trkpt lat="42.78378" lon="1.9063">
        <ele>1348.8</ele>
        <time>2024-06-30T10:17:10Z</time>
      </trkpt>
      <trkpt lat="42.78376" lon="1.90632">
        <ele>1349</ele>
        <time>2024-06-30T10:17:11Z</time>
      </trkpt>
      <trkpt lat="42.78375" lon="1.90634">
        <ele>1349.2</ele>
        <time>2024-06-30T10:17:12Z</time>
      </trkpt>
      <trkpt lat="42.78374" lon="1.90636">
        <ele>1349.6</ele>
        <time>2024-06-30T10:17:13Z</time>
      </trkpt>
      <trkpt lat="42.78373" lon="1.90638">
        <ele>1349.8</ele>
        <time>2024-06-30T10:17:14Z</time>
      </trkpt>
      <trkpt lat="42.78372" lon="1.9064">
        <ele>1350</ele>
        <time>2024-06-30T10:17:15Z</time>
      </trkpt>
      <trkpt lat="42.78371" lon="1.90642">
        <ele>1350.2</ele>
        <time>2024-06-30T10:17:16Z</time>
      </trkpt>
      <trkpt lat="42.7837" lon="1.90644">
        <ele>1350.2</ele>
        <time>2024-06-30T10:17:17Z</time>
      </trkpt>
      <trkpt lat="42.78369" lon="1.90645">
        <ele>1350.6</ele>
        <time>2024-06-30T10:17:18Z</time>
      </trkpt>
      <trkpt lat="42.78368" lon="1.90646">
        <ele>1350.8</ele>
        <time>2024-06-30T10:17:19Z</time>
      </trkpt>
      <trkpt lat="42.78367" lon="1.90648">
        <ele>1351.2</ele>
        <time>2024-06-30T10:17:20Z</time>
      </trkpt>
      <trkpt lat="42.78366" lon="1.90649">
        <ele>1351.4</ele>
        <time>2024-06-30T10:17:21Z</time>
      </trkpt>
      <trkpt lat="42.78365" lon="1.90651">
        <ele>1351.6</ele>
        <time>2024-06-30T10:17:22Z</time>
      </trkpt>
      <trkpt lat="42.78363" lon="1.90652">
        <ele>1351.8</ele>
        <time>2024-06-30T10:17:23Z</time>
      </trkpt>
      <trkpt lat="42.78362" lon="1.90654">
        <ele>1352</ele>
        <time>2024-06-30T10:17:24Z</time>
      </trkpt>
      <trkpt lat="42.7836" lon="1.90655">
        <ele>1352.4</ele>
        <time>2024-06-30T10:17:25Z</time>
      </trkpt>
      <trkpt lat="42.78358" lon="1.90656">
        <ele>1352.6</ele>
        <time>2024-06-30T10:17:26Z</time>
      </trkpt>
      <trkpt lat="42.78357" lon="1.90657">
        <ele>1352.8</ele>
        <time>2024-06-30T10:17:27Z</time>
      </trkpt>
      <trkpt lat="42.78355" lon="1.90658">
        <ele>1353</ele>
        <time>2024-06-30T10:17:28Z</time>
      </trkpt>
      <trkpt lat="42.78353" lon="1.90659">
        <ele>1353.2</ele>
        <time>2024-06-30T10:17:29Z</time>
      </trkpt>
      <trkpt lat="42.78351" lon="1.9066">
        <ele>1353.6</ele>
        <time>2024-06-30T10:17:30Z</time>
      </trkpt>
      <trkpt lat="42.78349" lon="1.90661">
        <ele>1353.6</ele>
        <time>2024-06-30T10:17:31Z</time>
      </trkpt>
      <trkpt lat="42.78347" lon="1.90661">
        <ele>1354</ele>
        <time>2024-06-30T10:17:32Z</time>
      </trkpt>
      <trkpt lat="42.78344" lon="1.90661">
        <ele>1354.2</ele>
        <time>2024-06-30T10:17:33Z</time>
      </trkpt>
      <trkpt lat="42.78342" lon="1.90661">
        <ele>1354.6</ele>
        <time>2024-06-30T10:17:34Z</time>
      </trkpt>
      <trkpt lat="42.7834" lon="1.90661">
        <ele>1354.6</ele>
        <time>2024-06-30T10:17:35Z</time>
      </trkpt>
      <trkpt lat="42.78337" lon="1.9066">
        <ele>1354.8</ele>
        <time>2024-06-30T10:17:36Z</time>
      </trkpt>
      <trkpt lat="42.78335" lon="1.9066">
        <ele>1355</ele>
        <time>2024-06-30T10:17:37Z</time>
      </trkpt>
      <trkpt lat="42.78332" lon="1.90659">
        <ele>1355.2</ele>
        <time>2024-06-30T10:17:38Z</time>
      </trkpt>
      <trkpt lat="42.7833" lon="1.90657">
        <ele>1355.2</ele>
        <time>2024-06-30T10:17:39Z</time>
      </trkpt>
      <trkpt lat="42.78328" lon="1.90656">
        <ele>1355.4</ele>
        <time>2024-06-30T10:17:40Z</time>
      </trkpt>
      <trkpt lat="42.78326" lon="1.90656">
        <ele>1355.8</ele>
        <time>2024-06-30T10:17:41Z</time>
      </trkpt>
      <trkpt lat="42.78325" lon="1.90655">
        <ele>1356</ele>
        <time>2024-06-30T10:17:42Z</time>
      </trkpt>
      <trkpt lat="42.78323" lon="1.90653">
        <ele>1356.4</ele>
        <time>2024-06-30T10:17:43Z</time>
      </trkpt>
      <trkpt lat="42.78321" lon="1.90652">
        <ele>1356.8</ele>
        <time>2024-06-30T10:17:44Z</time>
      </trkpt>
      <trkpt lat="42.78319" lon="1.9065">
        <ele>1357</ele>
        <time>2024-06-30T10:17:45Z</time>
      </trkpt>
      <trkpt lat="42.78318" lon="1.90648">
        <ele>1357.4</ele>
        <time>2024-06-30T10:17:46Z</time>
      </trkpt>
      <trkpt lat="42.78316" lon="1.90646">
        <ele>1357.6</ele>
        <time>2024-06-30T10:17:47Z</time>
      </trkpt>
      <trkpt lat="42.78314" lon="1.90645">
        <ele>1357.8</ele>
        <time>2024-06-30T10:17:48Z</time>
      </trkpt>
      <trkpt lat="42.78311" lon="1.90643">
        <ele>1358</ele>
        <time>2024-06-30T10:17:49Z</time>
      </trkpt>
      <trkpt lat="42.78309" lon="1.90642">
        <ele>1358</ele>
        <time>2024-06-30T10:17:50Z</time>
      </trkpt>
      <trkpt lat="42.78307" lon="1.9064">
        <ele>1358.2</ele>
        <time>2024-06-30T10:17:51Z</time>
      </trkpt>
      <trkpt lat="42.78305" lon="1.90639">
        <ele>1358.4</ele>
        <time>2024-06-30T10:17:52Z</time>
      </trkpt>
      <trkpt lat="42.78303" lon="1.90637">
        <ele>1358.6</ele>
        <time>2024-06-30T10:17:53Z</time>
      </trkpt>
      <trkpt lat="42.78301" lon="1.90636">
        <ele>1358.8</ele>
        <time>2024-06-30T10:17:54Z</time>
      </trkpt>
      <trkpt lat="42.78299" lon="1.90634">
        <ele>1359.2</ele>
        <time>2024-06-30T10:17:55Z</time>
      </trkpt>
      <trkpt lat="42.78297" lon="1.90633">
        <ele>1359.4</ele>
        <time>2024-06-30T10:17:56Z</time>
      </trkpt>
      <trkpt lat="42.78295" lon="1.90631">
        <ele>1359.6</ele>
        <time>2024-06-30T10:17:57Z</time>
      </trkpt>
      <trkpt lat="42.78294" lon="1.9063">
        <ele>1359.8</ele>
        <time>2024-06-30T10:17:58Z</time>
      </trkpt>
      <trkpt lat="42.78292" lon="1.90628">
        <ele>1359.8</ele>
        <time>2024-06-30T10:17:59Z</time>
      </trkpt>
      <trkpt lat="42.7829" lon="1.90627">
        <ele>1360</ele>
        <time>2024-06-30T10:18:00Z</time>
      </trkpt>
      <trkpt lat="42.78288" lon="1.90626">
        <ele>1360.2</ele>
        <time>2024-06-30T10:18:01Z</time>
      </trkpt>
      <trkpt lat="42.78286" lon="1.90624">
        <ele>1360.4</ele>
        <time>2024-06-30T10:18:02Z</time>
      </trkpt>
      <trkpt lat="42.78284" lon="1.90623">
        <ele>1360.6</ele>
        <time>2024-06-30T10:18:03Z</time>
      </trkpt>
      <trkpt lat="42.78282" lon="1.90621">
        <ele>1360.8</ele>
        <time>2024-06-30T10:18:04Z</time>
      </trkpt>
      <trkpt lat="42.7828" lon="1.9062">
        <ele>1361</ele>
        <time>2024-06-30T10:18:05Z</time>
      </trkpt>
      <trkpt lat="42.78278" lon="1.90618">
        <ele>1361.2</ele>
        <time>2024-06-30T10:18:06Z</time>
      </trkpt>
      <trkpt lat="42.78276" lon="1.90617">
        <ele>1361.6</ele>
        <time>2024-06-30T10:18:07Z</time>
      </trkpt>
      <trkpt lat="42.78274" lon="1.90615">
        <ele>1361.8</ele>
        <time>2024-06-30T10:18:08Z</time>
      </trkpt>
      <trkpt lat="42.78272" lon="1.90614">
        <ele>1362.2</ele>
        <time>2024-06-30T10:18:09Z</time>
      </trkpt>
      <trkpt lat="42.78269" lon="1.90612">
        <ele>1362.4</ele>
        <time>2024-06-30T10:18:10Z</time>
      </trkpt>
      <trkpt lat="42.78267" lon="1.90611">
        <ele>1362.6</ele>
        <time>2024-06-30T10:18:11Z</time>
      </trkpt>
      <trkpt lat="42.78265" lon="1.9061">
        <ele>1362.8</ele>
        <time>2024-06-30T10:18:12Z</time>
      </trkpt>
      <trkpt lat="42.78263" lon="1.90608">
        <ele>1363.2</ele>
        <time>2024-06-30T10:18:13Z</time>
      </trkpt>
      <trkpt lat="42.78261" lon="1.90607">
        <ele>1363.6</ele>
        <time>2024-06-30T10:18:14Z</time>
      </trkpt>
      <trkpt lat="42.78259" lon="1.90606">
        <ele>1363.8</ele>
        <time>2024-06-30T10:18:15Z</time>
      </trkpt>
      <trkpt lat="42.78256" lon="1.90605">
        <ele>1364.2</ele>
        <time>2024-06-30T10:18:16Z</time>
      </trkpt>
      <trkpt lat="42.78254" lon="1.90603">
        <ele>1364.4</ele>
        <time>2024-06-30T10:18:17Z</time>
      </trkpt>
      <trkpt lat="42.78252" lon="1.90602">
        <ele>1364.6</ele>
        <time>2024-06-30T10:18:18Z</time>
      </trkpt>
      <trkpt lat="42.7825" lon="1.90601">
        <ele>1364.8</ele>
        <time>2024-06-30T10:18:19Z</time>
      </trkpt>
      <trkpt lat="42.78248" lon="1.90599">
        <ele>1365</ele>
        <time>2024-06-30T10:18:20Z</time>
      </trkpt>
      <trkpt lat="42.78245" lon="1.90598">
        <ele>1365.2</ele>
        <time>2024-06-30T10:18:21Z</time>
      </trkpt>
      <trkpt lat="42.78243" lon="1.90597">
        <ele>1365.4</ele>
        <time>2024-06-30T10:18:22Z</time>
      </trkpt>
      <trkpt lat="42.78241" lon="1.90595">
        <ele>1365.8</ele>
        <time>2024-06-30T10:18:23Z</time>
      </trkpt>
      <trkpt lat="42.78239" lon="1.90594">
        <ele>1366</ele>
        <time>2024-06-30T10:18:24Z</time>
      </trkpt>
      <trkpt lat="42.78237" lon="1.90593">
        <ele>1366.4</ele>
        <time>2024-06-30T10:18:25Z</time>
      </trkpt>
      <trkpt lat="42.78234" lon="1.90591">
        <ele>1366.4</ele>
        <time>2024-06-30T10:18:26Z</time>
      </trkpt>
      <trkpt lat="42.78231" lon="1.9059">
        <ele>1366.8</ele>
        <time>2024-06-30T10:18:27Z</time>
      </trkpt>
      <trkpt lat="42.78229" lon="1.90589">
        <ele>1367.2</ele>
        <time>2024-06-30T10:18:28Z</time>
      </trkpt>
      <trkpt lat="42.78227" lon="1.90587">
        <ele>1367.2</ele>
        <time>2024-06-30T10:18:29Z</time>
      </trkpt>
      <trkpt lat="42.78224" lon="1.90586">
        <ele>1367.4</ele>
        <time>2024-06-30T10:18:30Z</time>
      </trkpt>
      <trkpt lat="42.78222" lon="1.90585">
        <ele>1367.6</ele>
        <time>2024-06-30T10:18:31Z</time>
      </trkpt>
      <trkpt lat="42.7822" lon="1.90584">
        <ele>1368</ele>
        <time>2024-06-30T10:18:32Z</time>
      </trkpt>
      <trkpt lat="42.78217" lon="1.90582">
        <ele>1368</ele>
        <time>2024-06-30T10:18:33Z</time>
      </trkpt>
      <trkpt lat="42.78215" lon="1.90581">
        <ele>1368.2</ele>
        <time>2024-06-30T10:18:34Z</time>
      </trkpt>
      <trkpt lat="42.78213" lon="1.90579">
        <ele>1368.6</ele>
        <time>2024-06-30T10:18:35Z</time>
      </trkpt>
      <trkpt lat="42.7821" lon="1.90578">
        <ele>1368.8</ele>
        <time>2024-06-30T10:18:36Z</time>
      </trkpt>
      <trkpt lat="42.78208" lon="1.90577">
        <ele>1369</ele>
        <time>2024-06-30T10:18:37Z</time>
      </trkpt>
      <trkpt lat="42.78205" lon="1.90576">
        <ele>1369.2</ele>
        <time>2024-06-30T10:18:38Z</time>
      </trkpt>
      <trkpt lat="42.78203" lon="1.90575">
        <ele>1369.4</ele>
        <time>2024-06-30T10:18:39Z</time>
      </trkpt>
      <trkpt lat="42.78201" lon="1.90575">
        <ele>1369.6</ele>
        <time>2024-06-30T10:18:40Z</time>
      </trkpt>
      <trkpt lat="42.78199" lon="1.90574">
        <ele>1369.8</ele>
        <time>2024-06-30T10:18:41Z</time>
      </trkpt>
      <trkpt lat="42.78196" lon="1.90574">
        <ele>1370</ele>
        <time>2024-06-30T10:18:42Z</time>
      </trkpt>
      <trkpt lat="42.78193" lon="1.90574">
        <ele>1370.4</ele>
        <time>2024-06-30T10:18:43Z</time>
      </trkpt>
      <trkpt lat="42.78191" lon="1.90574">
        <ele>1370.4</ele>
        <time>2024-06-30T10:18:44Z</time>
      </trkpt>
      <trkpt lat="42.78189" lon="1.90575">
        <ele>1370.6</ele>
        <time>2024-06-30T10:18:45Z</time>
      </trkpt>
      <trkpt lat="42.78187" lon="1.90576">
        <ele>1370.8</ele>
        <time>2024-06-30T10:18:46Z</time>
      </trkpt>
      <trkpt lat="42.78185" lon="1.90578">
        <ele>1371</ele>
        <time>2024-06-30T10:18:47Z</time>
      </trkpt>
      <trkpt lat="42.78182" lon="1.90579">
        <ele>1371.4</ele>
        <time>2024-06-30T10:18:48Z</time>
      </trkpt>
      <trkpt lat="42.7818" lon="1.90581">
        <ele>1371.8</ele>
        <time>2024-06-30T10:18:49Z</time>
      </trkpt>
      <trkpt lat="42.78178" lon="1.90583">
        <ele>1372.2</ele>
        <time>2024-06-30T10:18:50Z</time>
      </trkpt>
      <trkpt lat="42.78176" lon="1.90585">
        <ele>1372.6</ele>
        <time>2024-06-30T10:18:51Z</time>
      </trkpt>
      <trkpt lat="42.78174" lon="1.90588">
        <ele>1372.8</ele>
        <time>2024-06-30T10:18:52Z</time>
      </trkpt>
      <trkpt lat="42.78173" lon="1.9059">
        <ele>1373</ele>
        <time>2024-06-30T10:18:53Z</time>
      </trkpt>
      <trkpt lat="42.78171" lon="1.90593">
        <ele>1373.2</ele>
        <time>2024-06-30T10:18:54Z</time>
      </trkpt>
      <trkpt lat="42.7817" lon="1.90595">
        <ele>1373.6</ele>
        <time>2024-06-30T10:18:55Z</time>
      </trkpt>
      <trkpt lat="42.78169" lon="1.90597">
        <ele>1373.8</ele>
        <time>2024-06-30T10:18:56Z</time>
      </trkpt>
      <trkpt lat="42.78167" lon="1.90601">
        <ele>1374.2</ele>
        <time>2024-06-30T10:18:57Z</time>
      </trkpt>
      <trkpt lat="42.78166" lon="1.90604">
        <ele>1374.4</ele>
        <time>2024-06-30T10:18:58Z</time>
      </trkpt>
      <trkpt lat="42.78165" lon="1.90607">
        <ele>1374.6</ele>
        <time>2024-06-30T10:18:59Z</time>
      </trkpt>
      <trkpt lat="42.78164" lon="1.9061">
        <ele>1375.2</ele>
        <time>2024-06-30T10:19:00Z</time>
      </trkpt>
      <trkpt lat="42.78163" lon="1.90612">
        <ele>1375.4</ele>
        <time>2024-06-30T10:19:01Z</time>
      </trkpt>
      <trkpt lat="42.78162" lon="1.90615">
        <ele>1375.6</ele>
        <time>2024-06-30T10:19:02Z</time>
      </trkpt>
      <trkpt lat="42.78161" lon="1.90618">
        <ele>1375.8</ele>
        <time>2024-06-30T10:19:03Z</time>
      </trkpt>
      <trkpt lat="42.7816" lon="1.90621">
        <ele>1376</ele>
        <time>2024-06-30T10:19:04Z</time>
      </trkpt>
      <trkpt lat="42.7816" lon="1.90624">
        <ele>1376.2</ele>
        <time>2024-06-30T10:19:05Z</time>
      </trkpt>
      <trkpt lat="42.78159" lon="1.90627">
        <ele>1376.6</ele>
        <time>2024-06-30T10:19:06Z</time>
      </trkpt>
      <trkpt lat="42.78159" lon="1.9063">
        <ele>1377</ele>
        <time>2024-06-30T10:19:07Z</time>
      </trkpt>
      <trkpt lat="42.78158" lon="1.90632">
        <ele>1377.2</ele>
        <time>2024-06-30T10:19:08Z</time>
      </trkpt>
      <trkpt lat="42.78157" lon="1.90635">
        <ele>1377.4</ele>
        <time>2024-06-30T10:19:09Z</time>
      </trkpt>
      <trkpt lat="42.78156" lon="1.90637">
        <ele>1377.6</ele>
        <time>2024-06-30T10:19:10Z</time>
      </trkpt>
      <trkpt lat="42.78155" lon="1.9064">
        <ele>1378</ele>
        <time>2024-06-30T10:19:11Z</time>
      </trkpt>
      <trkpt lat="42.78154" lon="1.90642">
        <ele>1378.4</ele>
        <time>2024-06-30T10:19:12Z</time>
      </trkpt>
      <trkpt lat="42.78153" lon="1.90644">
        <ele>1378.4</ele>
        <time>2024-06-30T10:19:13Z</time>
      </trkpt>
      <trkpt lat="42.78152" lon="1.90647">
        <ele>1378.8</ele>
        <time>2024-06-30T10:19:14Z</time>
      </trkpt>
      <trkpt lat="42.78152" lon="1.90649">
        <ele>1379</ele>
        <time>2024-06-30T10:19:15Z</time>
      </trkpt>
      <trkpt lat="42.78151" lon="1.90652">
        <ele>1379.4</ele>
        <time>2024-06-30T10:19:16Z</time>
      </trkpt>
      <trkpt lat="42.7815" lon="1.90654">
        <ele>1379.4</ele>
        <time>2024-06-30T10:19:17Z</time>
      </trkpt>
      <trkpt lat="42.78149" lon="1.90657">
        <ele>1379.8</ele>
        <time>2024-06-30T10:19:18Z</time>
      </trkpt>
      <trkpt lat="42.78148" lon="1.9066">
        <ele>1380</ele>
        <time>2024-06-30T10:19:19Z</time>
      </trkpt>
      <trkpt lat="42.78147" lon="1.90662">
        <ele>1380.4</ele>
        <time>2024-06-30T10:19:20Z</time>
      </trkpt>
      <trkpt lat="42.78147" lon="1.90665">
        <ele>1380.6</ele>
        <time>2024-06-30T10:19:21Z</time>
      </trkpt>
      <trkpt lat="42.78146" lon="1.90668">
        <ele>1380.6</ele>
        <time>2024-06-30T10:19:22Z</time>
      </trkpt>
      <trkpt lat="42.78145" lon="1.9067">
        <ele>1381.2</ele>
        <time>2024-06-30T10:19:23Z</time>
      </trkpt>
      <trkpt lat="42.78144" lon="1.90673">
        <ele>1381.4</ele>
        <time>2024-06-30T10:19:24Z</time>
      </trkpt>
      <trkpt lat="42.78143" lon="1.90675">
        <ele>1381.6</ele>
        <time>2024-06-30T10:19:25Z</time>
      </trkpt>
      <trkpt lat="42.78143" lon="1.90678">
        <ele>1381.6</ele>
        <time>2024-06-30T10:19:26Z</time>
      </trkpt>
      <trkpt lat="42.78142" lon="1.9068">
        <ele>1381.8</ele>
        <time>2024-06-30T10:19:27Z</time>
      </trkpt>
      <trkpt lat="42.78141" lon="1.90682">
        <ele>1381.8</ele>
        <time>2024-06-30T10:19:28Z</time>
      </trkpt>
      <trkpt lat="42.78139" lon="1.90684">
        <ele>1382.2</ele>
        <time>2024-06-30T10:19:29Z</time>
      </trkpt>
      <trkpt lat="42.78139" lon="1.90686">
        <ele>1382.4</ele>
        <time>2024-06-30T10:19:30Z</time>
      </trkpt>
      <trkpt lat="42.78137" lon="1.90688">
        <ele>1382.4</ele>
        <time>2024-06-30T10:19:31Z</time>
      </trkpt>
      <trkpt lat="42.78136" lon="1.9069">
        <ele>1383</ele>
        <time>2024-06-30T10:19:32Z</time>
      </trkpt>
      <trkpt lat="42.78135" lon="1.90693">
        <ele>1383</ele>
        <time>2024-06-30T10:19:33Z</time>
      </trkpt>
      <trkpt lat="42.78134" lon="1.90695">
        <ele>1383.4</ele>
        <time>2024-06-30T10:19:34Z</time>
      </trkpt>
      <trkpt lat="42.78133" lon="1.90697">
        <ele>1383.6</ele>
        <time>2024-06-30T10:19:35Z</time>
      </trkpt>
      <trkpt lat="42.78132" lon="1.907">
        <ele>1383.6</ele>
        <time>2024-06-30T10:19:36Z</time>
      </trkpt>
      <trkpt lat="42.7813" lon="1.90702">
        <ele>1383.8</ele>
        <time>2024-06-30T10:19:37Z</time>
      </trkpt>
      <trkpt lat="42.78129" lon="1.90706">
        <ele>1384</ele>
        <time>2024-06-30T10:19:38Z</time>
      </trkpt>
      <trkpt lat="42.78128" lon="1.90709">
        <ele>1384.2</ele>
        <time>2024-06-30T10:19:39Z</time>
      </trkpt>
      <trkpt lat="42.78126" lon="1.90712">
        <ele>1384.4</ele>
        <time>2024-06-30T10:19:40Z</time>
      </trkpt>
      <trkpt lat="42.78124" lon="1.90715">
        <ele>1384.6</ele>
        <time>2024-06-30T10:19:41Z</time>
      </trkpt>
      <trkpt lat="42.78123" lon="1.90718">
        <ele>1385</ele>
        <time>2024-06-30T10:19:42Z</time>
      </trkpt>
      <trkpt lat="42.78122" lon="1.9072">
        <ele>1385</ele>
        <time>2024-06-30T10:19:43Z</time>
      </trkpt>
      <trkpt lat="42.78121" lon="1.90724">
        <ele>1385.4</ele>
        <time>2024-06-30T10:19:44Z</time>
      </trkpt>
      <trkpt lat="42.7812" lon="1.90727">
        <ele>1385.4</ele>
        <time>2024-06-30T10:19:45Z</time>
      </trkpt>
      <trkpt lat="42.78119" lon="1.9073">
        <ele>1386</ele>
        <time>2024-06-30T10:19:46Z</time>
      </trkpt>
      <trkpt lat="42.78119" lon="1.90734">
        <ele>1386.4</ele>
        <time>2024-06-30T10:19:47Z</time>
      </trkpt>
      <trkpt lat="42.78118" lon="1.90737">
        <ele>1386.8</ele>
        <time>2024-06-30T10:19:48Z</time>
      </trkpt>
      <trkpt lat="42.78117" lon="1.9074">
        <ele>1387.2</ele>
        <time>2024-06-30T10:19:49Z</time>
      </trkpt>
      <trkpt lat="42.78116" lon="1.90743">
        <ele>1387.2</ele>
        <time>2024-06-30T10:19:50Z</time>
      </trkpt>
      <trkpt lat="42.78116" lon="1.90746">
        <ele>1387.6</ele>
        <time>2024-06-30T10:19:51Z</time>
      </trkpt>
      <trkpt lat="42.78115" lon="1.90749">
        <ele>1387.6</ele>
        <time>2024-06-30T10:19:52Z</time>
      </trkpt>
      <trkpt lat="42.78115" lon="1.90752">
        <ele>1388</ele>
        <time>2024-06-30T10:19:53Z</time>
      </trkpt>
      <trkpt lat="42.78113" lon="1.90755">
        <ele>1388.2</ele>
        <time>2024-06-30T10:19:54Z</time>
      </trkpt>
      <trkpt lat="42.78112" lon="1.90758">
        <ele>1388.4</ele>
        <time>2024-06-30T10:19:55Z</time>
      </trkpt>
      <trkpt lat="42.78111" lon="1.90761">
        <ele>1388.8</ele>
        <time>2024-06-30T10:19:56Z</time>
      </trkpt>
      <trkpt lat="42.78111" lon="1.90764">
        <ele>1388.8</ele>
        <time>2024-06-30T10:19:57Z</time>
      </trkpt>
      <trkpt lat="42.78111" lon="1.90767">
        <ele>1389.2</ele>
        <time>2024-06-30T10:19:58Z</time>
      </trkpt>
      <trkpt lat="42.78111" lon="1.90772">
        <ele>1389.2</ele>
        <time>2024-06-30T10:19:59Z</time>
      </trkpt>
      <trkpt lat="42.78112" lon="1.90775">
        <ele>1389.4</ele>
        <time>2024-06-30T10:20:00Z</time>
      </trkpt>
      <trkpt lat="42.78112" lon="1.90778">
        <ele>1389.4</ele>
        <time>2024-06-30T10:20:01Z</time>
      </trkpt>
      <trkpt lat="42.78112" lon="1.90781">
        <ele>1389.8</ele>
        <time>2024-06-30T10:20:02Z</time>
      </trkpt>
      <trkpt lat="42.78112" lon="1.90784">
        <ele>1390</ele>
        <time>2024-06-30T10:20:03Z</time>
      </trkpt>
      <trkpt lat="42.78112" lon="1.90787">
        <ele>1390</ele>
        <time>2024-06-30T10:20:04Z</time>
      </trkpt>
      <trkpt lat="42.78112" lon="1.90791">
        <ele>1390.4</ele>
        <time>2024-06-30T10:20:05Z</time>
      </trkpt>
      <trkpt lat="42.78113" lon="1.90794">
        <ele>1390.6</ele>
        <time>2024-06-30T10:20:06Z</time>
      </trkpt>
      <trkpt lat="42.78113" lon="1.90798">
        <ele>1390.8</ele>
        <time>2024-06-30T10:20:07Z</time>
      </trkpt>
      <trkpt lat="42.78112" lon="1.90801">
        <ele>1391</ele>
        <time>2024-06-30T10:20:08Z</time>
      </trkpt>
      <trkpt lat="42.78112" lon="1.90804">
        <ele>1391.2</ele>
        <time>2024-06-30T10:20:09Z</time>
      </trkpt>
      <trkpt lat="42.78112" lon="1.90806">
        <ele>1391.4</ele>
        <time>2024-06-30T10:20:10Z</time>
      </trkpt>
      <trkpt lat="42.78112" lon="1.90809">
        <ele>1391.8</ele>
        <time>2024-06-30T10:20:11Z</time>
      </trkpt>
      <trkpt lat="42.78112" lon="1.90813">
        <ele>1392.2</ele>
        <time>2024-06-30T10:20:12Z</time>
      </trkpt>
      <trkpt lat="42.78113" lon="1.90815">
        <ele>1392.4</ele>
        <time>2024-06-30T10:20:13Z</time>
      </trkpt>
      <trkpt lat="42.78113" lon="1.90819">
        <ele>1392.6</ele>
        <time>2024-06-30T10:20:14Z</time>
      </trkpt>
      <trkpt lat="42.78113" lon="1.90822">
        <ele>1393</ele>
        <time>2024-06-30T10:20:15Z</time>
      </trkpt>
      <trkpt lat="42.78113" lon="1.90825">
        <ele>1393.2</ele>
        <time>2024-06-30T10:20:16Z</time>
      </trkpt>
      <trkpt lat="42.78112" lon="1.90827">
        <ele>1393.4</ele>
        <time>2024-06-30T10:20:17Z</time>
      </trkpt>
      <trkpt lat="42.78112" lon="1.90831">
        <ele>1393.6</ele>
        <time>2024-06-30T10:20:18Z</time>
      </trkpt>
      <trkpt lat="42.78112" lon="1.90834">
        <ele>1394</ele>
        <time>2024-06-30T10:20:19Z</time>
      </trkpt>
      <trkpt lat="42.78112" lon="1.90836">
        <ele>1394.2</ele>
        <time>2024-06-30T10:20:20Z</time>
      </trkpt>
      <trkpt lat="42.78112" lon="1.90839">
        <ele>1394.6</ele>
        <time>2024-06-30T10:20:21Z</time>
      </trkpt>
      <trkpt lat="42.78111" lon="1.90841">
        <ele>1394.6</ele>
        <time>2024-06-30T10:20:22Z</time>
      </trkpt>
      <trkpt lat="42.7811" lon="1.90844">
        <ele>1394.8</ele>
        <time>2024-06-30T10:20:23Z</time>
      </trkpt>
      <trkpt lat="42.7811" lon="1.90847">
        <ele>1395</ele>
        <time>2024-06-30T10:20:24Z</time>
      </trkpt>
      <trkpt lat="42.78109" lon="1.9085">
        <ele>1395.2</ele>
        <time>2024-06-30T10:20:25Z</time>
      </trkpt>
      <trkpt lat="42.7811" lon="1.90854">
        <ele>1395.8</ele>
        <time>2024-06-30T10:20:26Z</time>
      </trkpt>
      <trkpt lat="42.7811" lon="1.90858">
        <ele>1396</ele>
        <time>2024-06-30T10:20:27Z</time>
      </trkpt>
      <trkpt lat="42.7811" lon="1.90861">
        <ele>1396.4</ele>
        <time>2024-06-30T10:20:28Z</time>
      </trkpt>
      <trkpt lat="42.7811" lon="1.90865">
        <ele>1396.6</ele>
        <time>2024-06-30T10:20:29Z</time>
      </trkpt>
      <trkpt lat="42.7811" lon="1.90868">
        <ele>1397</ele>
        <time>2024-06-30T10:20:30Z</time>
      </trkpt>
      <trkpt lat="42.78111" lon="1.90871">
        <ele>1397.2</ele>
        <time>2024-06-30T10:20:31Z</time>
      </trkpt>
      <trkpt lat="42.78111" lon="1.90873">
        <ele>1397.6</ele>
        <time>2024-06-30T10:20:32Z</time>
      </trkpt>
      <trkpt lat="42.78111" lon="1.90877">
        <ele>1398</ele>
        <time>2024-06-30T10:20:33Z</time>
      </trkpt>
      <trkpt lat="42.78111" lon="1.90881">
        <ele>1398</ele>
        <time>2024-06-30T10:20:34Z</time>
      </trkpt>
      <trkpt lat="42.7811" lon="1.90884">
        <ele>1398.4</ele>
        <time>2024-06-30T10:20:35Z</time>
      </trkpt>
      <trkpt lat="42.78112" lon="1.90888">
        <ele>1398.4</ele>
        <time>2024-06-30T10:20:36Z</time>
      </trkpt>
      <trkpt lat="42.78113" lon="1.90892">
        <ele>1398.6</ele>
        <time>2024-06-30T10:20:37Z</time>
      </trkpt>
      <trkpt lat="42.78114" lon="1.90895">
        <ele>1398.8</ele>
        <time>2024-06-30T10:20:38Z</time>
      </trkpt>
      <trkpt lat="42.78114" lon="1.90899">
        <ele>1399</ele>
        <time>2024-06-30T10:20:39Z</time>
      </trkpt>
      <trkpt lat="42.78113" lon="1.90902">
        <ele>1399.2</ele>
        <time>2024-06-30T10:20:40Z</time>
      </trkpt>
      <trkpt lat="42.78112" lon="1.90906">
        <ele>1399.2</ele>
        <time>2024-06-30T10:20:41Z</time>
      </trkpt>
      <trkpt lat="42.78113" lon="1.9091">
        <ele>1399.6</ele>
        <time>2024-06-30T10:20:42Z</time>
      </trkpt>
      <trkpt lat="42.78113" lon="1.90913">
        <ele>1399.6</ele>
        <time>2024-06-30T10:20:43Z</time>
      </trkpt>
      <trkpt lat="42.78113" lon="1.90917">
        <ele>1400.2</ele>
        <time>2024-06-30T10:20:44Z</time>
      </trkpt>
      <trkpt lat="42.78113" lon="1.9092">
        <ele>1400.4</ele>
        <time>2024-06-30T10:20:45Z</time>
      </trkpt>
      <trkpt lat="42.78113" lon="1.90924">
        <ele>1400.8</ele>
        <time>2024-06-30T10:20:46Z</time>
      </trkpt>
      <trkpt lat="42.78114" lon="1.90927">
        <ele>1400.8</ele>
        <time>2024-06-30T10:20:47Z</time>
      </trkpt>
      <trkpt lat="42.78115" lon="1.90931">
        <ele>1401.2</ele>
        <time>2024-06-30T10:20:48Z</time>
      </trkpt>
      <trkpt lat="42.78116" lon="1.90934">
        <ele>1401.4</ele>
        <time>2024-06-30T10:20:49Z</time>
      </trkpt>
      <trkpt lat="42.78117" lon="1.90938">
        <ele>1401.6</ele>
        <time>2024-06-30T10:20:50Z</time>
      </trkpt>
      <trkpt lat="42.78117" lon="1.90941">
        <ele>1401.8</ele>
        <time>2024-06-30T10:20:51Z</time>
      </trkpt>
      <trkpt lat="42.78118" lon="1.90944">
        <ele>1402</ele>
        <time>2024-06-30T10:20:52Z</time>
      </trkpt>
      <trkpt lat="42.78118" lon="1.90947">
        <ele>1402.4</ele>
        <time>2024-06-30T10:20:53Z</time>
      </trkpt>
      <trkpt lat="42.78118" lon="1.9095">
        <ele>1402.4</ele>
        <time>2024-06-30T10:20:54Z</time>
      </trkpt>
      <trkpt lat="42.78118" lon="1.90953">
        <ele>1402.6</ele>
        <time>2024-06-30T10:20:55Z</time>
      </trkpt>
      <trkpt lat="42.78119" lon="1.90955">
        <ele>1403.2</ele>
        <time>2024-06-30T10:20:56Z</time>
      </trkpt>
      <trkpt lat="42.78121" lon="1.90958">
        <ele>1403.2</ele>
        <time>2024-06-30T10:20:57Z</time>
      </trkpt>
      <trkpt lat="42.78121" lon="1.90962">
        <ele>1403.6</ele>
        <time>2024-06-30T10:20:58Z</time>
      </trkpt>
      <trkpt lat="42.78122" lon="1.90966">
        <ele>1403.8</ele>
        <time>2024-06-30T10:20:59Z</time>
      </trkpt>
      <trkpt lat="42.78122" lon="1.90969">
        <ele>1404.2</ele>
        <time>2024-06-30T10:21:00Z</time>
      </trkpt>
      <trkpt lat="42.78122" lon="1.90972">
        <ele>1404.2</ele>
        <time>2024-06-30T10:21:01Z</time>
      </trkpt>
      <trkpt lat="42.78121" lon="1.90975">
        <ele>1404.6</ele>
        <time>2024-06-30T10:21:02Z</time>
      </trkpt>
      <trkpt lat="42.7812" lon="1.90977">
        <ele>1404.6</ele>
        <time>2024-06-30T10:21:03Z</time>
      </trkpt>
      <trkpt lat="42.78118" lon="1.90977">
        <ele>1404.8</ele>
        <time>2024-06-30T10:21:04Z</time>
      </trkpt>
      <trkpt lat="42.78116" lon="1.90975">
        <ele>1405</ele>
        <time>2024-06-30T10:21:05Z</time>
      </trkpt>
      <trkpt lat="42.78114" lon="1.90973">
        <ele>1405.2</ele>
        <time>2024-06-30T10:21:06Z</time>
      </trkpt>
      <trkpt lat="42.78113" lon="1.9097">
        <ele>1405.6</ele>
        <time>2024-06-30T10:21:07Z</time>
      </trkpt>
      <trkpt lat="42.78112" lon="1.90967">
        <ele>1405.8</ele>
        <time>2024-06-30T10:21:08Z</time>
      </trkpt>
      <trkpt lat="42.78111" lon="1.90964">
        <ele>1406.6</ele>
        <time>2024-06-30T10:21:09Z</time>
      </trkpt>
      <trkpt lat="42.7811" lon="1.90961">
        <ele>1406.8</ele>
        <time>2024-06-30T10:21:10Z</time>
      </trkpt>
      <trkpt lat="42.78109" lon="1.90958">
        <ele>1407</ele>
        <time>2024-06-30T10:21:11Z</time>
      </trkpt>
      <trkpt lat="42.78108" lon="1.90955">
        <ele>1407.2</ele>
        <time>2024-06-30T10:21:12Z</time>
      </trkpt>
      <trkpt lat="42.78107" lon="1.90953">
        <ele>1407.2</ele>
        <time>2024-06-30T10:21:13Z</time>
      </trkpt>
      <trkpt lat="42.78106" lon="1.9095">
        <ele>1407.6</ele>
        <time>2024-06-30T10:21:14Z</time>
      </trkpt>
      <trkpt lat="42.78104" lon="1.90947">
        <ele>1407.6</ele>
        <time>2024-06-30T10:21:15Z</time>
      </trkpt>
      <trkpt lat="42.78103" lon="1.90944">
        <ele>1407.8</ele>
        <time>2024-06-30T10:21:16Z</time>
      </trkpt>
      <trkpt lat="42.78102" lon="1.90941">
        <ele>1408</ele>
        <time>2024-06-30T10:21:17Z</time>
      </trkpt>
      <trkpt lat="42.78101" lon="1.90938">
        <ele>1408.2</ele>
        <time>2024-06-30T10:21:18Z</time>
      </trkpt>
      <trkpt lat="42.781" lon="1.90935">
        <ele>1408.6</ele>
        <time>2024-06-30T10:21:19Z</time>
      </trkpt>
      <trkpt lat="42.78098" lon="1.90933">
        <ele>1409</ele>
        <time>2024-06-30T10:21:20Z</time>
      </trkpt>
      <trkpt lat="42.78097" lon="1.9093">
        <ele>1409.4</ele>
        <time>2024-06-30T10:21:21Z</time>
      </trkpt>
      <trkpt lat="42.78096" lon="1.90927">
        <ele>1409.4</ele>
        <time>2024-06-30T10:21:22Z</time>
      </trkpt>
      <trkpt lat="42.78095" lon="1.90924">
        <ele>1409.6</ele>
        <time>2024-06-30T10:21:23Z</time>
      </trkpt>
      <trkpt lat="42.78094" lon="1.90921">
        <ele>1409.8</ele>
        <time>2024-06-30T10:21:24Z</time>
      </trkpt>
      <trkpt lat="42.78093" lon="1.90918">
        <ele>1409.8</ele>
        <time>2024-06-30T10:21:25Z</time>
      </trkpt>
      <trkpt lat="42.78092" lon="1.90914">
        <ele>1410</ele>
        <time>2024-06-30T10:21:26Z</time>
      </trkpt>
      <trkpt lat="42.78091" lon="1.90911">
        <ele>1410.2</ele>
        <time>2024-06-30T10:21:27Z</time>
      </trkpt>
      <trkpt lat="42.7809" lon="1.90907">
        <ele>1410.2</ele>
        <time>2024-06-30T10:21:28Z</time>
      </trkpt>
      <trkpt lat="42.78088" lon="1.90903">
        <ele>1410.4</ele>
        <time>2024-06-30T10:21:29Z</time>
      </trkpt>
      <trkpt lat="42.78087" lon="1.90899">
        <ele>1410.6</ele>
        <time>2024-06-30T10:21:30Z</time>
      </trkpt>
      <trkpt lat="42.78086" lon="1.90895">
        <ele>1410.8</ele>
        <time>2024-06-30T10:21:31Z</time>
      </trkpt>
      <trkpt lat="42.78085" lon="1.90892">
        <ele>1411</ele>
        <time>2024-06-30T10:21:32Z</time>
      </trkpt>
      <trkpt lat="42.78084" lon="1.90888">
        <ele>1411.2</ele>
        <time>2024-06-30T10:21:33Z</time>
      </trkpt>
      <trkpt lat="42.78084" lon="1.90883">
        <ele>1411.2</ele>
        <time>2024-06-30T10:21:34Z</time>
      </trkpt>
      <trkpt lat="42.78083" lon="1.9088">
        <ele>1411.4</ele>
        <time>2024-06-30T10:21:35Z</time>
      </trkpt>
      <trkpt lat="42.78081" lon="1.90874">
        <ele>1411.6</ele>
        <time>2024-06-30T10:21:36Z</time>
      </trkpt>
      <trkpt lat="42.78079" lon="1.90866">
        <ele>1411.6</ele>
        <time>2024-06-30T10:21:37Z</time>
      </trkpt>
      <trkpt lat="42.78078" lon="1.90861">
        <ele>1411.6</ele>
        <time>2024-06-30T10:21:38Z</time>
      </trkpt>
      <trkpt lat="42.78076" lon="1.90857">
        <ele>1411.8</ele>
        <time>2024-06-30T10:21:39Z</time>
      </trkpt>
      <trkpt lat="42.78075" lon="1.90853">
        <ele>1411.8</ele>
        <time>2024-06-30T10:21:40Z</time>
      </trkpt>
      <trkpt lat="42.78074" lon="1.90848">
        <ele>1411.8</ele>
        <time>2024-06-30T10:21:41Z</time>
      </trkpt>
      <trkpt lat="42.78073" lon="1.90843">
        <ele>1412</ele>
        <time>2024-06-30T10:21:42Z</time>
      </trkpt>
      <trkpt lat="42.78071" lon="1.90837">
        <ele>1412</ele>
        <time>2024-06-30T10:21:43Z</time>
      </trkpt>
      <trkpt lat="42.7807" lon="1.90831">
        <ele>1412</ele>
        <time>2024-06-30T10:21:44Z</time>
      </trkpt>
      <trkpt lat="42.78068" lon="1.90825">
        <ele>1412.2</ele>
        <time>2024-06-30T10:21:45Z</time>
      </trkpt>
      <trkpt lat="42.78065" lon="1.90817">
        <ele>1412.2</ele>
        <time>2024-06-30T10:21:46Z</time>
      </trkpt>
      <trkpt lat="42.78064" lon="1.90811">
        <ele>1412.2</ele>
        <time>2024-06-30T10:21:47Z</time>
      </trkpt>
      <trkpt lat="42.78064" lon="1.90805">
        <ele>1412.4</ele>
        <time>2024-06-30T10:21:48Z</time>
      </trkpt>
      <trkpt lat="42.78062" lon="1.90799">
        <ele>1412.4</ele>
        <time>2024-06-30T10:21:49Z</time>
      </trkpt>
      <trkpt lat="42.78061" lon="1.90793">
        <ele>1412.6</ele>
        <time>2024-06-30T10:21:50Z</time>
      </trkpt>
      <trkpt lat="42.78058" lon="1.90786">
        <ele>1412.6</ele>
        <time>2024-06-30T10:21:51Z</time>
      </trkpt>
      <trkpt lat="42.78058" lon="1.90779">
        <ele>1412.6</ele>
        <time>2024-06-30T10:21:52Z</time>
      </trkpt>
      <trkpt lat="42.78058" lon="1.90774">
        <ele>1412.6</ele>
        <time>2024-06-30T10:21:53Z</time>
      </trkpt>
      <trkpt lat="42.78056" lon="1.90767">
        <ele>1412.6</ele>
        <time>2024-06-30T10:21:54Z</time>
      </trkpt>
      <trkpt lat="42.78051" lon="1.9076">
        <ele>1412.6</ele>
        <time>2024-06-30T10:21:55Z</time>
      </trkpt>
      <trkpt lat="42.7805" lon="1.90753">
        <ele>1412.6</ele>
        <time>2024-06-30T10:21:56Z</time>
      </trkpt>
      <trkpt lat="42.7805" lon="1.90748">
        <ele>1412.6</ele>
        <time>2024-06-30T10:21:57Z</time>
      </trkpt>
      <trkpt lat="42.78048" lon="1.90741">
        <ele>1412.6</ele>
        <time>2024-06-30T10:21:58Z</time>
      </trkpt>
      <trkpt lat="42.78045" lon="1.90715">
        <ele>1412.4</ele>
        <time>2024-06-30T10:22:02Z</time>
      </trkpt>
      <trkpt lat="42.78042" lon="1.90703">
        <ele>1412.6</ele>
        <time>2024-06-30T10:22:04Z</time>
      </trkpt>
      <trkpt lat="42.78039" lon="1.9069">
        <ele>1412.6</ele>
        <time>2024-06-30T10:22:06Z</time>
      </trkpt>
      <trkpt lat="42.78038" lon="1.90685">
        <ele>1412.6</ele>
        <time>2024-06-30T10:22:07Z</time>
      </trkpt>
      <trkpt lat="42.78036" lon="1.9068">
        <ele>1412.6</ele>
        <time>2024-06-30T10:22:08Z</time>
      </trkpt>
      <trkpt lat="42.78036" lon="1.90675">
        <ele>1412.6</ele>
        <time>2024-06-30T10:22:09Z</time>
      </trkpt>
      <trkpt lat="42.78034" lon="1.90667">
        <ele>1412.6</ele>
        <time>2024-06-30T10:22:10Z</time>
      </trkpt>
      <trkpt lat="42.78031" lon="1.90647">
        <ele>1412.6</ele>
        <time>2024-06-30T10:22:13Z</time>
      </trkpt>
      <trkpt lat="42.7803" lon="1.90634">
        <ele>1412.6</ele>
        <time>2024-06-30T10:22:15Z</time>
      </trkpt>
      <trkpt lat="42.78029" lon="1.90628">
        <ele>1412.4</ele>
        <time>2024-06-30T10:22:16Z</time>
      </trkpt>
      <trkpt lat="42.78028" lon="1.90623">
        <ele>1412.4</ele>
        <time>2024-06-30T10:22:17Z</time>
      </trkpt>
      <trkpt lat="42.78028" lon="1.90617">
        <ele>1412.4</ele>
        <time>2024-06-30T10:22:18Z</time>
      </trkpt>
      <trkpt lat="42.78025" lon="1.9061">
        <ele>1412.4</ele>
        <time>2024-06-30T10:22:19Z</time>
      </trkpt>
      <trkpt lat="42.78023" lon="1.90604">
        <ele>1412.4</ele>
        <time>2024-06-30T10:22:20Z</time>
      </trkpt>
      <trkpt lat="42.78021" lon="1.90599">
        <ele>1412.2</ele>
        <time>2024-06-30T10:22:21Z</time>
      </trkpt>
      <trkpt lat="42.78019" lon="1.90594">
        <ele>1412.2</ele>
        <time>2024-06-30T10:22:22Z</time>
      </trkpt>
      <trkpt lat="42.78018" lon="1.90589">
        <ele>1412.2</ele>
        <time>2024-06-30T10:22:23Z</time>
      </trkpt>
      <trkpt lat="42.78013" lon="1.90578">
        <ele>1412.4</ele>
        <time>2024-06-30T10:22:25Z</time>
      </trkpt>
      <trkpt lat="42.78" lon="1.90559">
        <ele>1412</ele>
        <time>2024-06-30T10:22:29Z</time>
      </trkpt>
      <trkpt lat="42.77996" lon="1.90556">
        <ele>1412.4</ele>
        <time>2024-06-30T10:22:30Z</time>
      </trkpt>
      <trkpt lat="42.77993" lon="1.90553">
        <ele>1412.4</ele>
        <time>2024-06-30T10:22:31Z</time>
      </trkpt>
      <trkpt lat="42.77979" lon="1.90547">
        <ele>1412.8</ele>
        <time>2024-06-30T10:22:35Z</time>
      </trkpt>
      <trkpt lat="42.77977" lon="1.90548">
        <ele>1413</ele>
        <time>2024-06-30T10:22:36Z</time>
      </trkpt>
      <trkpt lat="42.77974" lon="1.90548">
        <ele>1413.4</ele>
        <time>2024-06-30T10:22:37Z</time>
      </trkpt>
      <trkpt lat="42.77971" lon="1.90549">
        <ele>1413.6</ele>
        <time>2024-06-30T10:22:38Z</time>
      </trkpt>
      <trkpt lat="42.77964" lon="1.90551">
        <ele>1414</ele>
        <time>2024-06-30T10:22:40Z</time>
      </trkpt>
      <trkpt lat="42.77957" lon="1.90552">
        <ele>1414.6</ele>
        <time>2024-06-30T10:22:42Z</time>
      </trkpt>
      <trkpt lat="42.77943" lon="1.90555">
        <ele>1415.6</ele>
        <time>2024-06-30T10:22:46Z</time>
      </trkpt>
      <trkpt lat="42.77939" lon="1.90555">
        <ele>1415.8</ele>
        <time>2024-06-30T10:22:47Z</time>
      </trkpt>
      <trkpt lat="42.77936" lon="1.90555">
        <ele>1416</ele>
        <time>2024-06-30T10:22:48Z</time>
      </trkpt>
      <trkpt lat="42.77932" lon="1.90555">
        <ele>1416.2</ele>
        <time>2024-06-30T10:22:49Z</time>
      </trkpt>
      <trkpt lat="42.77928" lon="1.90556">
        <ele>1416.4</ele>
        <time>2024-06-30T10:22:50Z</time>
      </trkpt>
      <trkpt lat="42.77924" lon="1.90557">
        <ele>1416.8</ele>
        <time>2024-06-30T10:22:51Z</time>
      </trkpt>
      <trkpt lat="42.77921" lon="1.90558">
        <ele>1416.8</ele>
        <time>2024-06-30T10:22:52Z</time>
      </trkpt>
      <trkpt lat="42.77918" lon="1.90559">
        <ele>1417.2</ele>
        <time>2024-06-30T10:22:53Z</time>
      </trkpt>
      <trkpt lat="42.77914" lon="1.9056">
        <ele>1417.4</ele>
        <time>2024-06-30T10:22:54Z</time>
      </trkpt>
      <trkpt lat="42.7791" lon="1.9056">
        <ele>1417.6</ele>
        <time>2024-06-30T10:22:55Z</time>
      </trkpt>
      <trkpt lat="42.77907" lon="1.9056">
        <ele>1418</ele>
        <time>2024-06-30T10:22:56Z</time>
      </trkpt>
      <trkpt lat="42.77904" lon="1.90561">
        <ele>1418.2</ele>
        <time>2024-06-30T10:22:57Z</time>
      </trkpt>
      <trkpt lat="42.779" lon="1.90562">
        <ele>1418.6</ele>
        <time>2024-06-30T10:22:58Z</time>
      </trkpt>
      <trkpt lat="42.77897" lon="1.90563">
        <ele>1418.8</ele>
        <time>2024-06-30T10:22:59Z</time>
      </trkpt>
      <trkpt lat="42.77893" lon="1.90563">
        <ele>1419.2</ele>
        <time>2024-06-30T10:23:00Z</time>
      </trkpt>
      <trkpt lat="42.7789" lon="1.90564">
        <ele>1419.4</ele>
        <time>2024-06-30T10:23:01Z</time>
      </trkpt>
      <trkpt lat="42.77887" lon="1.90565">
        <ele>1419.6</ele>
        <time>2024-06-30T10:23:02Z</time>
      </trkpt>
      <trkpt lat="42.77883" lon="1.90566">
        <ele>1420</ele>
        <time>2024-06-30T10:23:03Z</time>
      </trkpt>
      <trkpt lat="42.77879" lon="1.90567">
        <ele>1420</ele>
        <time>2024-06-30T10:23:04Z</time>
      </trkpt>
      <trkpt lat="42.77875" lon="1.90568">
        <ele>1420.6</ele>
        <time>2024-06-30T10:23:05Z</time>
      </trkpt>
      <trkpt lat="42.77872" lon="1.90569">
        <ele>1420.8</ele>
        <time>2024-06-30T10:23:06Z</time>
      </trkpt>
      <trkpt lat="42.77869" lon="1.90569">
        <ele>1421.2</ele>
        <time>2024-06-30T10:23:07Z</time>
      </trkpt>
      <trkpt lat="42.77866" lon="1.9057">
        <ele>1421.4</ele>
        <time>2024-06-30T10:23:08Z</time>
      </trkpt>
      <trkpt lat="42.77862" lon="1.9057">
        <ele>1421.6</ele>
        <time>2024-06-30T10:23:09Z</time>
      </trkpt>
      <trkpt lat="42.77857" lon="1.9057">
        <ele>1421.8</ele>
        <time>2024-06-30T10:23:10Z</time>
      </trkpt>
      <trkpt lat="42.77854" lon="1.9057">
        <ele>1422</ele>
        <time>2024-06-30T10:23:11Z</time>
      </trkpt>
      <trkpt lat="42.7785" lon="1.90571">
        <ele>1422.2</ele>
        <time>2024-06-30T10:23:12Z</time>
      </trkpt>
      <trkpt lat="42.77846" lon="1.90573">
        <ele>1422.4</ele>
        <time>2024-06-30T10:23:13Z</time>
      </trkpt>
      <trkpt lat="42.77842" lon="1.90573">
        <ele>1422.6</ele>
        <time>2024-06-30T10:23:14Z</time>
      </trkpt>
      <trkpt lat="42.77838" lon="1.90574">
        <ele>1422.6</ele>
        <time>2024-06-30T10:23:15Z</time>
      </trkpt>
      <trkpt lat="42.77834" lon="1.90574">
        <ele>1423</ele>
        <time>2024-06-30T10:23:16Z</time>
      </trkpt>
      <trkpt lat="42.7783" lon="1.90574">
        <ele>1423</ele>
        <time>2024-06-30T10:23:17Z</time>
      </trkpt>
      <trkpt lat="42.77825" lon="1.90573">
        <ele>1423</ele>
        <time>2024-06-30T10:23:18Z</time>
      </trkpt>
      <trkpt lat="42.77822" lon="1.90574">
        <ele>1423.2</ele>
        <time>2024-06-30T10:23:19Z</time>
      </trkpt>
      <trkpt lat="42.77818" lon="1.90574">
        <ele>1423.4</ele>
        <time>2024-06-30T10:23:20Z</time>
      </trkpt>
      <trkpt lat="42.77813" lon="1.90575">
        <ele>1423.6</ele>
        <time>2024-06-30T10:23:21Z</time>
      </trkpt>
      <trkpt lat="42.77809" lon="1.90576">
        <ele>1423.8</ele>
        <time>2024-06-30T10:23:22Z</time>
      </trkpt>
      <trkpt lat="42.77806" lon="1.90577">
        <ele>1424</ele>
        <time>2024-06-30T10:23:23Z</time>
      </trkpt>
      <trkpt lat="42.77802" lon="1.90577">
        <ele>1424.2</ele>
        <time>2024-06-30T10:23:24Z</time>
      </trkpt>
      <trkpt lat="42.77798" lon="1.90578">
        <ele>1424.4</ele>
        <time>2024-06-30T10:23:25Z</time>
      </trkpt>
      <trkpt lat="42.77794" lon="1.90579">
        <ele>1424.8</ele>
        <time>2024-06-30T10:23:26Z</time>
      </trkpt>
      <trkpt lat="42.77791" lon="1.9058">
        <ele>1424.8</ele>
        <time>2024-06-30T10:23:27Z</time>
      </trkpt>
      <trkpt lat="42.77788" lon="1.90581">
        <ele>1425</ele>
        <time>2024-06-30T10:23:28Z</time>
      </trkpt>
      <trkpt lat="42.77784" lon="1.90582">
        <ele>1425.2</ele>
        <time>2024-06-30T10:23:29Z</time>
      </trkpt>
      <trkpt lat="42.77782" lon="1.90583">
        <ele>1425.2</ele>
        <time>2024-06-30T10:23:30Z</time>
      </trkpt>
      <trkpt lat="42.77779" lon="1.90583">
        <ele>1425.4</ele>
        <time>2024-06-30T10:23:31Z</time>
      </trkpt>
      <trkpt lat="42.77777" lon="1.90584">
        <ele>1425.4</ele>
        <time>2024-06-30T10:23:32Z</time>
      </trkpt>
      <trkpt lat="42.77775" lon="1.90585">
        <ele>1425.6</ele>
        <time>2024-06-30T10:23:33Z</time>
      </trkpt>
      <trkpt lat="42.77773" lon="1.90585">
        <ele>1425.8</ele>
        <time>2024-06-30T10:23:34Z</time>
      </trkpt>
      <trkpt lat="42.77771" lon="1.90586">
        <ele>1425.8</ele>
        <time>2024-06-30T10:23:35Z</time>
      </trkpt>
      <trkpt lat="42.77768" lon="1.90587">
        <ele>1425.8</ele>
        <time>2024-06-30T10:23:36Z</time>
      </trkpt>
      <trkpt lat="42.77766" lon="1.90587">
        <ele>1426</ele>
        <time>2024-06-30T10:23:37Z</time>
      </trkpt>
      <trkpt lat="42.77764" lon="1.90587">
        <ele>1426</ele>
        <time>2024-06-30T10:23:38Z</time>
      </trkpt>
      <trkpt lat="42.77761" lon="1.90585">
        <ele>1426.2</ele>
        <time>2024-06-30T10:23:39Z</time>
      </trkpt>
      <trkpt lat="42.77759" lon="1.90585">
        <ele>1426.2</ele>
        <time>2024-06-30T10:23:40Z</time>
      </trkpt>
      <trkpt lat="42.77758" lon="1.90584">
        <ele>1426.2</ele>
        <time>2024-06-30T10:23:41Z</time>
      </trkpt>
      <trkpt lat="42.77756" lon="1.90583">
        <ele>1426.4</ele>
        <time>2024-06-30T10:23:42Z</time>
      </trkpt>
      <trkpt lat="42.77755" lon="1.90582">
        <ele>1426.2</ele>
        <time>2024-06-30T10:23:44Z</time>
      </trkpt>
      <trkpt lat="42.77753" lon="1.90581">
        <ele>1426</ele>
        <time>2024-06-30T10:26:43Z</time>
      </trkpt>
      <trkpt lat="42.77751" lon="1.9058">
        <ele>1426</ele>
        <time>2024-06-30T10:26:44Z</time>
      </trkpt>
      <trkpt lat="42.77748" lon="1.90578">
        <ele>1426</ele>
        <time>2024-06-30T10:26:45Z</time>
      </trkpt>
      <trkpt lat="42.77735" lon="1.90562">
        <ele>1426.2</ele>
        <time>2024-06-30T10:26:48Z</time>
      </trkpt>
      <trkpt lat="42.77727" lon="1.90542">
        <ele>1427</ele>
        <time>2024-06-30T10:26:53Z</time>
      </trkpt>
      <trkpt lat="42.77727" lon="1.90542">
        <ele>1427</ele>
        <time>2024-06-30T10:26:54Z</time>
      </trkpt>
      <trkpt lat="42.77726" lon="1.90539">
        <ele>1427.2</ele>
        <time>2024-06-30T10:26:55Z</time>
      </trkpt>
      <trkpt lat="42.77725" lon="1.90519">
        <ele>1427.8</ele>
        <time>2024-06-30T10:26:59Z</time>
      </trkpt>
      <trkpt lat="42.77725" lon="1.90509">
        <ele>1428.2</ele>
        <time>2024-06-30T10:27:00Z</time>
      </trkpt>
      <trkpt lat="42.77724" lon="1.90497">
        <ele>1428.8</ele>
        <time>2024-06-30T10:27:02Z</time>
      </trkpt>
      <trkpt lat="42.77722" lon="1.90491">
        <ele>1429.2</ele>
        <time>2024-06-30T10:27:04Z</time>
      </trkpt>
      <trkpt lat="42.77722" lon="1.90486">
        <ele>1429.4</ele>
        <time>2024-06-30T10:27:05Z</time>
      </trkpt>
      <trkpt lat="42.77723" lon="1.90481">
        <ele>1429.6</ele>
        <time>2024-06-30T10:27:06Z</time>
      </trkpt>
      <trkpt lat="42.77724" lon="1.90476">
        <ele>1429.8</ele>
        <time>2024-06-30T10:27:07Z</time>
      </trkpt>
      <trkpt lat="42.77725" lon="1.9047">
        <ele>1430</ele>
        <time>2024-06-30T10:27:08Z</time>
      </trkpt>
      <trkpt lat="42.77725" lon="1.90465">
        <ele>1430.4</ele>
        <time>2024-06-30T10:27:09Z</time>
      </trkpt>
      <trkpt lat="42.77727" lon="1.9046">
        <ele>1430.6</ele>
        <time>2024-06-30T10:27:10Z</time>
      </trkpt>
      <trkpt lat="42.77728" lon="1.90448">
        <ele>1430.8</ele>
        <time>2024-06-30T10:27:11Z</time>
      </trkpt>
      <trkpt lat="42.7773" lon="1.90443">
        <ele>1431</ele>
        <time>2024-06-30T10:27:12Z</time>
      </trkpt>
      <trkpt lat="42.77731" lon="1.90439">
        <ele>1431.4</ele>
        <time>2024-06-30T10:27:13Z</time>
      </trkpt>
      <trkpt lat="42.77733" lon="1.90435">
        <ele>1431.4</ele>
        <time>2024-06-30T10:27:14Z</time>
      </trkpt>
      <trkpt lat="42.77734" lon="1.9043">
        <ele>1431.6</ele>
        <time>2024-06-30T10:27:15Z</time>
      </trkpt>
      <trkpt lat="42.77736" lon="1.90424">
        <ele>1431.6</ele>
        <time>2024-06-30T10:27:16Z</time>
      </trkpt>
      <trkpt lat="42.77738" lon="1.90419">
        <ele>1431.6</ele>
        <time>2024-06-30T10:27:17Z</time>
      </trkpt>
      <trkpt lat="42.7774" lon="1.90415">
        <ele>1431.8</ele>
        <time>2024-06-30T10:27:18Z</time>
      </trkpt>
      <trkpt lat="42.77741" lon="1.9041">
        <ele>1432.2</ele>
        <time>2024-06-30T10:27:19Z</time>
      </trkpt>
      <trkpt lat="42.77743" lon="1.90405">
        <ele>1432.8</ele>
        <time>2024-06-30T10:27:20Z</time>
      </trkpt>
      <trkpt lat="42.77745" lon="1.90402">
        <ele>1433</ele>
        <time>2024-06-30T10:27:21Z</time>
      </trkpt>
      <trkpt lat="42.77747" lon="1.90398">
        <ele>1433.2</ele>
        <time>2024-06-30T10:27:22Z</time>
      </trkpt>
      <trkpt lat="42.77748" lon="1.90394">
        <ele>1433.4</ele>
        <time>2024-06-30T10:27:23Z</time>
      </trkpt>
      <trkpt lat="42.7775" lon="1.9039">
        <ele>1433.4</ele>
        <time>2024-06-30T10:27:24Z</time>
      </trkpt>
      <trkpt lat="42.77752" lon="1.90386">
        <ele>1433.6</ele>
        <time>2024-06-30T10:27:25Z</time>
      </trkpt>
      <trkpt lat="42.77754" lon="1.90382">
        <ele>1433.6</ele>
        <time>2024-06-30T10:27:26Z</time>
      </trkpt>
      <trkpt lat="42.77755" lon="1.90379">
        <ele>1433.8</ele>
        <time>2024-06-30T10:27:27Z</time>
      </trkpt>
      <trkpt lat="42.77757" lon="1.90375">
        <ele>1434</ele>
        <time>2024-06-30T10:27:28Z</time>
      </trkpt>
      <trkpt lat="42.77759" lon="1.90371">
        <ele>1434.2</ele>
        <time>2024-06-30T10:27:29Z</time>
      </trkpt>
      <trkpt lat="42.77761" lon="1.90367">
        <ele>1434.4</ele>
        <time>2024-06-30T10:27:30Z</time>
      </trkpt>
      <trkpt lat="42.77762" lon="1.90362">
        <ele>1434.8</ele>
        <time>2024-06-30T10:27:31Z</time>
      </trkpt>
      <trkpt lat="42.77764" lon="1.90358">
        <ele>1434.8</ele>
        <time>2024-06-30T10:27:32Z</time>
      </trkpt>
      <trkpt lat="42.77765" lon="1.90353">
        <ele>1435</ele>
        <time>2024-06-30T10:27:33Z</time>
      </trkpt>
      <trkpt lat="42.77767" lon="1.90348">
        <ele>1435.2</ele>
        <time>2024-06-30T10:27:34Z</time>
      </trkpt>
      <trkpt lat="42.77769" lon="1.90344">
        <ele>1435.4</ele>
        <time>2024-06-30T10:27:35Z</time>
      </trkpt>
      <trkpt lat="42.7777" lon="1.9034">
        <ele>1435.6</ele>
        <time>2024-06-30T10:27:36Z</time>
      </trkpt>
      <trkpt lat="42.7777" lon="1.90334">
        <ele>1435.6</ele>
        <time>2024-06-30T10:27:37Z</time>
      </trkpt>
      <trkpt lat="42.77771" lon="1.90329">
        <ele>1435.8</ele>
        <time>2024-06-30T10:27:38Z</time>
      </trkpt>
      <trkpt lat="42.77772" lon="1.90325">
        <ele>1436</ele>
        <time>2024-06-30T10:27:39Z</time>
      </trkpt>
      <trkpt lat="42.77773" lon="1.90319">
        <ele>1436</ele>
        <time>2024-06-30T10:27:40Z</time>
      </trkpt>
      <trkpt lat="42.77775" lon="1.90314">
        <ele>1436.2</ele>
        <time>2024-06-30T10:27:41Z</time>
      </trkpt>
      <trkpt lat="42.77776" lon="1.9031">
        <ele>1436.2</ele>
        <time>2024-06-30T10:27:42Z</time>
      </trkpt>
      <trkpt lat="42.77777" lon="1.90305">
        <ele>1436.6</ele>
        <time>2024-06-30T10:27:43Z</time>
      </trkpt>
      <trkpt lat="42.77777" lon="1.903">
        <ele>1436.6</ele>
        <time>2024-06-30T10:27:44Z</time>
      </trkpt>
      <trkpt lat="42.77778" lon="1.90294">
        <ele>1436.8</ele>
        <time>2024-06-30T10:27:45Z</time>
      </trkpt>
      <trkpt lat="42.77779" lon="1.90288">
        <ele>1436.8</ele>
        <time>2024-06-30T10:27:46Z</time>
      </trkpt>
      <trkpt lat="42.7778" lon="1.90283">
        <ele>1436.8</ele>
        <time>2024-06-30T10:27:47Z</time>
      </trkpt>
      <trkpt lat="42.77782" lon="1.90279">
        <ele>1437</ele>
        <time>2024-06-30T10:27:48Z</time>
      </trkpt>
      <trkpt lat="42.77784" lon="1.90275">
        <ele>1437</ele>
        <time>2024-06-30T10:27:49Z</time>
      </trkpt>
      <trkpt lat="42.77786" lon="1.9027">
        <ele>1437.2</ele>
        <time>2024-06-30T10:27:50Z</time>
      </trkpt>
      <trkpt lat="42.77788" lon="1.90266">
        <ele>1437.2</ele>
        <time>2024-06-30T10:27:51Z</time>
      </trkpt>
      <trkpt lat="42.7779" lon="1.90261">
        <ele>1437.4</ele>
        <time>2024-06-30T10:27:52Z</time>
      </trkpt>
      <trkpt lat="42.77792" lon="1.90256">
        <ele>1437.4</ele>
        <time>2024-06-30T10:27:53Z</time>
      </trkpt>
      <trkpt lat="42.77795" lon="1.90251">
        <ele>1437.6</ele>
        <time>2024-06-30T10:27:54Z</time>
      </trkpt>
      <trkpt lat="42.77797" lon="1.90247">
        <ele>1437.6</ele>
        <time>2024-06-30T10:27:55Z</time>
      </trkpt>
      <trkpt lat="42.77798" lon="1.90243">
        <ele>1437.8</ele>
        <time>2024-06-30T10:27:56Z</time>
      </trkpt>
      <trkpt lat="42.778" lon="1.90237">
        <ele>1437.8</ele>
        <time>2024-06-30T10:27:57Z</time>
      </trkpt>
      <trkpt lat="42.77802" lon="1.90232">
        <ele>1438</ele>
        <time>2024-06-30T10:27:58Z</time>
      </trkpt>
      <trkpt lat="42.77804" lon="1.90227">
        <ele>1438.4</ele>
        <time>2024-06-30T10:27:59Z</time>
      </trkpt>
      <trkpt lat="42.77805" lon="1.90222">
        <ele>1438.4</ele>
        <time>2024-06-30T10:28:00Z</time>
      </trkpt>
      <trkpt lat="42.77807" lon="1.90218">
        <ele>1438.4</ele>
        <time>2024-06-30T10:28:01Z</time>
      </trkpt>
      <trkpt lat="42.77808" lon="1.90212">
        <ele>1438.6</ele>
        <time>2024-06-30T10:28:02Z</time>
      </trkpt>
      <trkpt lat="42.77809" lon="1.90205">
        <ele>1438.6</ele>
        <time>2024-06-30T10:28:03Z</time>
      </trkpt>
      <trkpt lat="42.7781" lon="1.902">
        <ele>1438.8</ele>
        <time>2024-06-30T10:28:04Z</time>
      </trkpt>
      <trkpt lat="42.77811" lon="1.90195">
        <ele>1438.8</ele>
        <time>2024-06-30T10:28:05Z</time>
      </trkpt>
      <trkpt lat="42.77813" lon="1.90191">
        <ele>1439</ele>
        <time>2024-06-30T10:28:06Z</time>
      </trkpt>
      <trkpt lat="42.77814" lon="1.90185">
        <ele>1439</ele>
        <time>2024-06-30T10:28:07Z</time>
      </trkpt>
      <trkpt lat="42.77815" lon="1.90179">
        <ele>1439.2</ele>
        <time>2024-06-30T10:28:08Z</time>
      </trkpt>
      <trkpt lat="42.77817" lon="1.90173">
        <ele>1439.4</ele>
        <time>2024-06-30T10:28:09Z</time>
      </trkpt>
      <trkpt lat="42.77816" lon="1.90166">
        <ele>1439.4</ele>
        <time>2024-06-30T10:28:10Z</time>
      </trkpt>
      <trkpt lat="42.77816" lon="1.9016">
        <ele>1439.4</ele>
        <time>2024-06-30T10:28:11Z</time>
      </trkpt>
      <trkpt lat="42.77816" lon="1.90154">
        <ele>1439.4</ele>
        <time>2024-06-30T10:28:12Z</time>
      </trkpt>
      <trkpt lat="42.77815" lon="1.90147">
        <ele>1439.6</ele>
        <time>2024-06-30T10:28:13Z</time>
      </trkpt>
      <trkpt lat="42.77811" lon="1.90139">
        <ele>1439.6</ele>
        <time>2024-06-30T10:28:14Z</time>
      </trkpt>
      <trkpt lat="42.77805" lon="1.90134">
        <ele>1439.8</ele>
        <time>2024-06-30T10:28:15Z</time>
      </trkpt>
      <trkpt lat="42.77804" lon="1.90129">
        <ele>1439.8</ele>
        <time>2024-06-30T10:28:16Z</time>
      </trkpt>
      <trkpt lat="42.77804" lon="1.90122">
        <ele>1440</ele>
        <time>2024-06-30T10:28:17Z</time>
      </trkpt>
      <trkpt lat="42.77803" lon="1.90116">
        <ele>1440.2</ele>
        <time>2024-06-30T10:28:18Z</time>
      </trkpt>
      <trkpt lat="42.77801" lon="1.90111">
        <ele>1440.2</ele>
        <time>2024-06-30T10:28:19Z</time>
      </trkpt>
      <trkpt lat="42.77799" lon="1.90106">
        <ele>1440.4</ele>
        <time>2024-06-30T10:28:20Z</time>
      </trkpt>
      <trkpt lat="42.77796" lon="1.90101">
        <ele>1440.6</ele>
        <time>2024-06-30T10:28:21Z</time>
      </trkpt>
      <trkpt lat="42.7779" lon="1.90091">
        <ele>1440.6</ele>
        <time>2024-06-30T10:28:22Z</time>
      </trkpt>
      <trkpt lat="42.77787" lon="1.90087">
        <ele>1440.8</ele>
        <time>2024-06-30T10:28:23Z</time>
      </trkpt>
      <trkpt lat="42.77783" lon="1.90084">
        <ele>1440.8</ele>
        <time>2024-06-30T10:28:24Z</time>
      </trkpt>
      <trkpt lat="42.77783" lon="1.90084">
        <ele>1441</ele>
        <time>2024-06-30T10:28:25Z</time>
      </trkpt>
      <trkpt lat="42.77776" lon="1.90078">
        <ele>1441</ele>
        <time>2024-06-30T10:28:26Z</time>
      </trkpt>
      <trkpt lat="42.77772" lon="1.90076">
        <ele>1441.2</ele>
        <time>2024-06-30T10:28:27Z</time>
      </trkpt>
      <trkpt lat="42.7777" lon="1.90073">
        <ele>1441.2</ele>
        <time>2024-06-30T10:28:28Z</time>
      </trkpt>
      <trkpt lat="42.77767" lon="1.90071">
        <ele>1441.4</ele>
        <time>2024-06-30T10:28:29Z</time>
      </trkpt>
      <trkpt lat="42.77764" lon="1.90068">
        <ele>1441.6</ele>
        <time>2024-06-30T10:28:30Z</time>
      </trkpt>
      <trkpt lat="42.77762" lon="1.90066">
        <ele>1441.8</ele>
        <time>2024-06-30T10:28:31Z</time>
      </trkpt>
      <trkpt lat="42.77759" lon="1.90064">
        <ele>1442</ele>
        <time>2024-06-30T10:28:32Z</time>
      </trkpt>
      <trkpt lat="42.77757" lon="1.90062">
        <ele>1442</ele>
        <time>2024-06-30T10:28:33Z</time>
      </trkpt>
      <trkpt lat="42.77755" lon="1.90061">
        <ele>1442.2</ele>
        <time>2024-06-30T10:28:34Z</time>
      </trkpt>
      <trkpt lat="42.77753" lon="1.90059">
        <ele>1442.4</ele>
        <time>2024-06-30T10:28:35Z</time>
      </trkpt>
      <trkpt lat="42.77749" lon="1.90056">
        <ele>1442.6</ele>
        <time>2024-06-30T10:28:36Z</time>
      </trkpt>
      <trkpt lat="42.77746" lon="1.90054">
        <ele>1442.8</ele>
        <time>2024-06-30T10:28:37Z</time>
      </trkpt>
      <trkpt lat="42.77743" lon="1.90053">
        <ele>1443</ele>
        <time>2024-06-30T10:28:38Z</time>
      </trkpt>
      <trkpt lat="42.7774" lon="1.90051">
        <ele>1443</ele>
        <time>2024-06-30T10:28:39Z</time>
      </trkpt>
      <trkpt lat="42.77736" lon="1.90049">
        <ele>1443.4</ele>
        <time>2024-06-30T10:28:40Z</time>
      </trkpt>
      <trkpt lat="42.77733" lon="1.90047">
        <ele>1443.6</ele>
        <time>2024-06-30T10:28:41Z</time>
      </trkpt>
      <trkpt lat="42.7773" lon="1.90045">
        <ele>1443.8</ele>
        <time>2024-06-30T10:28:42Z</time>
      </trkpt>
      <trkpt lat="42.77726" lon="1.90042">
        <ele>1444</ele>
        <time>2024-06-30T10:28:43Z</time>
      </trkpt>
      <trkpt lat="42.77723" lon="1.9004">
        <ele>1444</ele>
        <time>2024-06-30T10:28:44Z</time>
      </trkpt>
      <trkpt lat="42.77719" lon="1.90038">
        <ele>1444.2</ele>
        <time>2024-06-30T10:28:45Z</time>
      </trkpt>
      <trkpt lat="42.77716" lon="1.90036">
        <ele>1444.2</ele>
        <time>2024-06-30T10:28:46Z</time>
      </trkpt>
      <trkpt lat="42.77712" lon="1.90033">
        <ele>1444.6</ele>
        <time>2024-06-30T10:28:47Z</time>
      </trkpt>
      <trkpt lat="42.77708" lon="1.9003">
        <ele>1445</ele>
        <time>2024-06-30T10:28:48Z</time>
      </trkpt>
      <trkpt lat="42.77704" lon="1.90027">
        <ele>1445.2</ele>
        <time>2024-06-30T10:28:49Z</time>
      </trkpt>
      <trkpt lat="42.77699" lon="1.90023">
        <ele>1445.4</ele>
        <time>2024-06-30T10:28:50Z</time>
      </trkpt>
      <trkpt lat="42.77698" lon="1.90022">
        <ele>1445.6</ele>
        <time>2024-06-30T10:28:51Z</time>
      </trkpt>
      <trkpt lat="42.77696" lon="1.9002">
        <ele>1445.8</ele>
        <time>2024-06-30T10:28:52Z</time>
      </trkpt>
      <trkpt lat="42.77688" lon="1.90011">
        <ele>1445.6</ele>
        <time>2024-06-30T10:28:53Z</time>
      </trkpt>
      <trkpt lat="42.77686" lon="1.9001">
        <ele>1445.8</ele>
        <time>2024-06-30T10:28:54Z</time>
      </trkpt>
      <trkpt lat="42.77684" lon="1.90008">
        <ele>1446.4</ele>
        <time>2024-06-30T10:28:55Z</time>
      </trkpt>
      <trkpt lat="42.77677" lon="1.90001">
        <ele>1446.6</ele>
        <time>2024-06-30T10:28:56Z</time>
      </trkpt>
      <trkpt lat="42.77677" lon="1.90001">
        <ele>1447</ele>
        <time>2024-06-30T10:28:57Z</time>
      </trkpt>
      <trkpt lat="42.7767" lon="1.89995">
        <ele>1447.4</ele>
        <time>2024-06-30T10:28:58Z</time>
      </trkpt>
      <trkpt lat="42.77666" lon="1.89992">
        <ele>1447.8</ele>
        <time>2024-06-30T10:28:59Z</time>
      </trkpt>
      <trkpt lat="42.77662" lon="1.89991">
        <ele>1448</ele>
        <time>2024-06-30T10:29:00Z</time>
      </trkpt>
      <trkpt lat="42.77659" lon="1.89989">
        <ele>1448.4</ele>
        <time>2024-06-30T10:29:01Z</time>
      </trkpt>
      <trkpt lat="42.77655" lon="1.89988">
        <ele>1448.4</ele>
        <time>2024-06-30T10:29:02Z</time>
      </trkpt>
      <trkpt lat="42.77655" lon="1.89988">
        <ele>1449</ele>
        <time>2024-06-30T10:29:03Z</time>
      </trkpt>
      <trkpt lat="42.77648" lon="1.89983">
        <ele>1449.4</ele>
        <time>2024-06-30T10:29:04Z</time>
      </trkpt>
      <trkpt lat="42.77644" lon="1.89981">
        <ele>1449.6</ele>
        <time>2024-06-30T10:29:05Z</time>
      </trkpt>
      <trkpt lat="42.77641" lon="1.8998">
        <ele>1450</ele>
        <time>2024-06-30T10:29:06Z</time>
      </trkpt>
      <trkpt lat="42.77637" lon="1.89978">
        <ele>1450.2</ele>
        <time>2024-06-30T10:29:07Z</time>
      </trkpt>
      <trkpt lat="42.77634" lon="1.89977">
        <ele>1450.6</ele>
        <time>2024-06-30T10:29:08Z</time>
      </trkpt>
      <trkpt lat="42.7763" lon="1.89976">
        <ele>1450.6</ele>
        <time>2024-06-30T10:29:09Z</time>
      </trkpt>
      <trkpt lat="42.77626" lon="1.89975">
        <ele>1451</ele>
        <time>2024-06-30T10:29:10Z</time>
      </trkpt>
      <trkpt lat="42.77622" lon="1.89974">
        <ele>1451.2</ele>
        <time>2024-06-30T10:29:11Z</time>
      </trkpt>
      <trkpt lat="42.77618" lon="1.89973">
        <ele>1451.2</ele>
        <time>2024-06-30T10:29:12Z</time>
      </trkpt>
      <trkpt lat="42.77614" lon="1.89972">
        <ele>1451.4</ele>
        <time>2024-06-30T10:29:13Z</time>
      </trkpt>
      <trkpt lat="42.7761" lon="1.89971">
        <ele>1451.8</ele>
        <time>2024-06-30T10:29:14Z</time>
      </trkpt>
      <trkpt lat="42.77606" lon="1.89969">
        <ele>1452.2</ele>
        <time>2024-06-30T10:29:15Z</time>
      </trkpt>
      <trkpt lat="42.77602" lon="1.89967">
        <ele>1452.4</ele>
        <time>2024-06-30T10:29:16Z</time>
      </trkpt>
      <trkpt lat="42.77598" lon="1.89966">
        <ele>1452.8</ele>
        <time>2024-06-30T10:29:17Z</time>
      </trkpt>
      <trkpt lat="42.77593" lon="1.89965">
        <ele>1452.8</ele>
        <time>2024-06-30T10:29:18Z</time>
      </trkpt>
      <trkpt lat="42.77589" lon="1.89964">
        <ele>1453</ele>
        <time>2024-06-30T10:29:19Z</time>
      </trkpt>
      <trkpt lat="42.77585" lon="1.89963">
        <ele>1453.2</ele>
        <time>2024-06-30T10:29:20Z</time>
      </trkpt>
      <trkpt lat="42.77581" lon="1.89962">
        <ele>1453.4</ele>
        <time>2024-06-30T10:29:21Z</time>
      </trkpt>
      <trkpt lat="42.77577" lon="1.89961">
        <ele>1453.4</ele>
        <time>2024-06-30T10:29:22Z</time>
      </trkpt>
      <trkpt lat="42.77573" lon="1.89959">
        <ele>1453.6</ele>
        <time>2024-06-30T10:29:23Z</time>
      </trkpt>
      <trkpt lat="42.77569" lon="1.89958">
        <ele>1453.8</ele>
        <time>2024-06-30T10:29:24Z</time>
      </trkpt>
      <trkpt lat="42.77564" lon="1.89956">
        <ele>1454.2</ele>
        <time>2024-06-30T10:29:25Z</time>
      </trkpt>
      <trkpt lat="42.77561" lon="1.89956">
        <ele>1454.4</ele>
        <time>2024-06-30T10:29:26Z</time>
      </trkpt>
      <trkpt lat="42.77557" lon="1.89956">
        <ele>1454.8</ele>
        <time>2024-06-30T10:29:27Z</time>
      </trkpt>
      <trkpt lat="42.77552" lon="1.89955">
        <ele>1455</ele>
        <time>2024-06-30T10:29:28Z</time>
      </trkpt>
      <trkpt lat="42.77548" lon="1.89954">
        <ele>1455.4</ele>
        <time>2024-06-30T10:29:29Z</time>
      </trkpt>
      <trkpt lat="42.77544" lon="1.89954">
        <ele>1455.6</ele>
        <time>2024-06-30T10:29:30Z</time>
      </trkpt>
      <trkpt lat="42.7754" lon="1.89953">
        <ele>1455.8</ele>
        <time>2024-06-30T10:29:31Z</time>
      </trkpt>
      <trkpt lat="42.77536" lon="1.89952">
        <ele>1455.8</ele>
        <time>2024-06-30T10:29:32Z</time>
      </trkpt>
      <trkpt lat="42.77534" lon="1.89952">
        <ele>1456</ele>
        <time>2024-06-30T10:29:33Z</time>
      </trkpt>
      <trkpt lat="42.7753" lon="1.89951">
        <ele>1456.2</ele>
        <time>2024-06-30T10:29:34Z</time>
      </trkpt>
      <trkpt lat="42.77526" lon="1.89951">
        <ele>1456.6</ele>
        <time>2024-06-30T10:29:35Z</time>
      </trkpt>
      <trkpt lat="42.77522" lon="1.8995">
        <ele>1457</ele>
        <time>2024-06-30T10:29:36Z</time>
      </trkpt>
      <trkpt lat="42.77518" lon="1.8995">
        <ele>1457.2</ele>
        <time>2024-06-30T10:29:37Z</time>
      </trkpt>
      <trkpt lat="42.77514" lon="1.8995">
        <ele>1457.4</ele>
        <time>2024-06-30T10:29:38Z</time>
      </trkpt>
      <trkpt lat="42.7751" lon="1.89951">
        <ele>1457.4</ele>
        <time>2024-06-30T10:29:39Z</time>
      </trkpt>
      <trkpt lat="42.77506" lon="1.8995">
        <ele>1457.8</ele>
        <time>2024-06-30T10:29:40Z</time>
      </trkpt>
      <trkpt lat="42.77502" lon="1.8995">
        <ele>1458</ele>
        <time>2024-06-30T10:29:41Z</time>
      </trkpt>
      <trkpt lat="42.77497" lon="1.89949">
        <ele>1458.2</ele>
        <time>2024-06-30T10:29:42Z</time>
      </trkpt>
      <trkpt lat="42.77493" lon="1.89949">
        <ele>1458.4</ele>
        <time>2024-06-30T10:29:43Z</time>
      </trkpt>
      <trkpt lat="42.77489" lon="1.8995">
        <ele>1458.6</ele>
        <time>2024-06-30T10:29:44Z</time>
      </trkpt>
      <trkpt lat="42.77484" lon="1.89951">
        <ele>1458.6</ele>
        <time>2024-06-30T10:29:45Z</time>
      </trkpt>
      <trkpt lat="42.7748" lon="1.89952">
        <ele>1458.6</ele>
        <time>2024-06-30T10:29:46Z</time>
      </trkpt>
      <trkpt lat="42.77476" lon="1.89952">
        <ele>1458.8</ele>
        <time>2024-06-30T10:29:47Z</time>
      </trkpt>
      <trkpt lat="42.77472" lon="1.89953">
        <ele>1459</ele>
        <time>2024-06-30T10:29:48Z</time>
      </trkpt>
      <trkpt lat="42.77469" lon="1.89953">
        <ele>1459.2</ele>
        <time>2024-06-30T10:29:49Z</time>
      </trkpt>
      <trkpt lat="42.77465" lon="1.89953">
        <ele>1459.4</ele>
        <time>2024-06-30T10:29:50Z</time>
      </trkpt>
      <trkpt lat="42.77461" lon="1.89954">
        <ele>1459.6</ele>
        <time>2024-06-30T10:29:51Z</time>
      </trkpt>
      <trkpt lat="42.77457" lon="1.89955">
        <ele>1459.8</ele>
        <time>2024-06-30T10:29:52Z</time>
      </trkpt>
      <trkpt lat="42.77454" lon="1.89956">
        <ele>1460</ele>
        <time>2024-06-30T10:29:53Z</time>
      </trkpt>
      <trkpt lat="42.7745" lon="1.89957">
        <ele>1460</ele>
        <time>2024-06-30T10:29:54Z</time>
      </trkpt>
      <trkpt lat="42.77446" lon="1.89958">
        <ele>1460.2</ele>
        <time>2024-06-30T10:29:55Z</time>
      </trkpt>
      <trkpt lat="42.77442" lon="1.89959">
        <ele>1460.6</ele>
        <time>2024-06-30T10:29:56Z</time>
      </trkpt>
      <trkpt lat="42.77438" lon="1.89961">
        <ele>1460.8</ele>
        <time>2024-06-30T10:29:57Z</time>
      </trkpt>
      <trkpt lat="42.77435" lon="1.89962">
        <ele>1461</ele>
        <time>2024-06-30T10:29:58Z</time>
      </trkpt>
      <trkpt lat="42.77431" lon="1.89963">
        <ele>1461.2</ele>
        <time>2024-06-30T10:29:59Z</time>
      </trkpt>
      <trkpt lat="42.77428" lon="1.89964">
        <ele>1461.2</ele>
        <time>2024-06-30T10:30:00Z</time>
      </trkpt>
      <trkpt lat="42.77424" lon="1.89965">
        <ele>1461.4</ele>
        <time>2024-06-30T10:30:01Z</time>
      </trkpt>
      <trkpt lat="42.7742" lon="1.89966">
        <ele>1461.6</ele>
        <time>2024-06-30T10:30:02Z</time>
      </trkpt>
      <trkpt lat="42.77417" lon="1.89966">
        <ele>1462</ele>
        <time>2024-06-30T10:30:03Z</time>
      </trkpt>
      <trkpt lat="42.77414" lon="1.89967">
        <ele>1462.2</ele>
        <time>2024-06-30T10:30:04Z</time>
      </trkpt>
      <trkpt lat="42.77411" lon="1.89968">
        <ele>1462.6</ele>
        <time>2024-06-30T10:30:05Z</time>
      </trkpt>
      <trkpt lat="42.77407" lon="1.89969">
        <ele>1462.8</ele>
        <time>2024-06-30T10:30:06Z</time>
      </trkpt>
      <trkpt lat="42.77403" lon="1.8997">
        <ele>1463</ele>
        <time>2024-06-30T10:30:07Z</time>
      </trkpt>
      <trkpt lat="42.77399" lon="1.8997">
        <ele>1463.2</ele>
        <time>2024-06-30T10:30:08Z</time>
      </trkpt>
      <trkpt lat="42.77396" lon="1.8997">
        <ele>1463.4</ele>
        <time>2024-06-30T10:30:09Z</time>
      </trkpt>
      <trkpt lat="42.77392" lon="1.89971">
        <ele>1463.8</ele>
        <time>2024-06-30T10:30:10Z</time>
      </trkpt>
      <trkpt lat="42.77388" lon="1.89971">
        <ele>1464</ele>
        <time>2024-06-30T10:30:11Z</time>
      </trkpt>
      <trkpt lat="42.77386" lon="1.89971">
        <ele>1464.4</ele>
        <time>2024-06-30T10:30:12Z</time>
      </trkpt>
      <trkpt lat="42.77382" lon="1.89971">
        <ele>1464.6</ele>
        <time>2024-06-30T10:30:13Z</time>
      </trkpt>
      <trkpt lat="42.77379" lon="1.8997">
        <ele>1465</ele>
        <time>2024-06-30T10:30:14Z</time>
      </trkpt>
      <trkpt lat="42.77375" lon="1.89969">
        <ele>1465.4</ele>
        <time>2024-06-30T10:30:15Z</time>
      </trkpt>
      <trkpt lat="42.77371" lon="1.89969">
        <ele>1465.6</ele>
        <time>2024-06-30T10:30:16Z</time>
      </trkpt>
      <trkpt lat="42.77368" lon="1.89968">
        <ele>1466</ele>
        <time>2024-06-30T10:30:17Z</time>
      </trkpt>
      <trkpt lat="42.77364" lon="1.89968">
        <ele>1466.2</ele>
        <time>2024-06-30T10:30:18Z</time>
      </trkpt>
      <trkpt lat="42.7736" lon="1.89967">
        <ele>1466.4</ele>
        <time>2024-06-30T10:30:19Z</time>
      </trkpt>
      <trkpt lat="42.77357" lon="1.89967">
        <ele>1466.6</ele>
        <time>2024-06-30T10:30:20Z</time>
      </trkpt>
      <trkpt lat="42.77354" lon="1.89966">
        <ele>1467</ele>
        <time>2024-06-30T10:30:21Z</time>
      </trkpt>
      <trkpt lat="42.7735" lon="1.89965">
        <ele>1467.2</ele>
        <time>2024-06-30T10:30:22Z</time>
      </trkpt>
      <trkpt lat="42.77346" lon="1.89963">
        <ele>1467.2</ele>
        <time>2024-06-30T10:30:23Z</time>
      </trkpt>
      <trkpt lat="42.77342" lon="1.89961">
        <ele>1467.8</ele>
        <time>2024-06-30T10:30:24Z</time>
      </trkpt>
      <trkpt lat="42.77338" lon="1.8996">
        <ele>1468</ele>
        <time>2024-06-30T10:30:25Z</time>
      </trkpt>
      <trkpt lat="42.77335" lon="1.89958">
        <ele>1468.6</ele>
        <time>2024-06-30T10:30:26Z</time>
      </trkpt>
      <trkpt lat="42.77332" lon="1.89958">
        <ele>1468.8</ele>
        <time>2024-06-30T10:30:27Z</time>
      </trkpt>
      <trkpt lat="42.77329" lon="1.89957">
        <ele>1469</ele>
        <time>2024-06-30T10:30:28Z</time>
      </trkpt>
      <trkpt lat="42.77325" lon="1.89956">
        <ele>1469.2</ele>
        <time>2024-06-30T10:30:29Z</time>
      </trkpt>
      <trkpt lat="42.77322" lon="1.89956">
        <ele>1469.6</ele>
        <time>2024-06-30T10:30:30Z</time>
      </trkpt>
      <trkpt lat="42.77319" lon="1.89955">
        <ele>1470.2</ele>
        <time>2024-06-30T10:30:31Z</time>
      </trkpt>
      <trkpt lat="42.77316" lon="1.89954">
        <ele>1470.4</ele>
        <time>2024-06-30T10:30:32Z</time>
      </trkpt>
      <trkpt lat="42.77312" lon="1.89951">
        <ele>1470.8</ele>
        <time>2024-06-30T10:30:33Z</time>
      </trkpt>
      <trkpt lat="42.77309" lon="1.8995">
        <ele>1471</ele>
        <time>2024-06-30T10:30:34Z</time>
      </trkpt>
      <trkpt lat="42.77305" lon="1.89949">
        <ele>1471.2</ele>
        <time>2024-06-30T10:30:35Z</time>
      </trkpt>
      <trkpt lat="42.77302" lon="1.89948">
        <ele>1471.4</ele>
        <time>2024-06-30T10:30:36Z</time>
      </trkpt>
      <trkpt lat="42.77298" lon="1.89947">
        <ele>1471.6</ele>
        <time>2024-06-30T10:30:37Z</time>
      </trkpt>
      <trkpt lat="42.77295" lon="1.89945">
        <ele>1471.8</ele>
        <time>2024-06-30T10:30:38Z</time>
      </trkpt>
      <trkpt lat="42.77293" lon="1.89943">
        <ele>1471.8</ele>
        <time>2024-06-30T10:30:39Z</time>
      </trkpt>
      <trkpt lat="42.77291" lon="1.8994">
        <ele>1472.6</ele>
        <time>2024-06-30T10:30:40Z</time>
      </trkpt>
      <trkpt lat="42.77289" lon="1.89937">
        <ele>1472.8</ele>
        <time>2024-06-30T10:30:41Z</time>
      </trkpt>
      <trkpt lat="42.77287" lon="1.89931">
        <ele>1473.2</ele>
        <time>2024-06-30T10:30:42Z</time>
      </trkpt>
      <trkpt lat="42.77285" lon="1.89927">
        <ele>1473.4</ele>
        <time>2024-06-30T10:30:43Z</time>
      </trkpt>
      <trkpt lat="42.77285" lon="1.89922">
        <ele>1473.6</ele>
        <time>2024-06-30T10:30:44Z</time>
      </trkpt>
      <trkpt lat="42.77285" lon="1.89918">
        <ele>1474</ele>
        <time>2024-06-30T10:30:45Z</time>
      </trkpt>
      <trkpt lat="42.77285" lon="1.89913">
        <ele>1474.4</ele>
        <time>2024-06-30T10:30:46Z</time>
      </trkpt>
      <trkpt lat="42.77285" lon="1.89908">
        <ele>1474.8</ele>
        <time>2024-06-30T10:30:47Z</time>
      </trkpt>
      <trkpt lat="42.77287" lon="1.89903">
        <ele>1474.8</ele>
        <time>2024-06-30T10:30:48Z</time>
      </trkpt>
      <trkpt lat="42.77288" lon="1.89898">
        <ele>1475</ele>
        <time>2024-06-30T10:30:49Z</time>
      </trkpt>
      <trkpt lat="42.7729" lon="1.89894">
        <ele>1475.2</ele>
        <time>2024-06-30T10:30:50Z</time>
      </trkpt>
      <trkpt lat="42.77292" lon="1.8989">
        <ele>1475.6</ele>
        <time>2024-06-30T10:30:51Z</time>
      </trkpt>
      <trkpt lat="42.77294" lon="1.89886">
        <ele>1475.8</ele>
        <time>2024-06-30T10:30:52Z</time>
      </trkpt>
      <trkpt lat="42.77297" lon="1.89883">
        <ele>1476</ele>
        <time>2024-06-30T10:30:53Z</time>
      </trkpt>
      <trkpt lat="42.77299" lon="1.89879">
        <ele>1476</ele>
        <time>2024-06-30T10:30:54Z</time>
      </trkpt>
      <trkpt lat="42.77302" lon="1.89875">
        <ele>1476.2</ele>
        <time>2024-06-30T10:30:55Z</time>
      </trkpt>
      <trkpt lat="42.77304" lon="1.89871">
        <ele>1476.4</ele>
        <time>2024-06-30T10:30:56Z</time>
      </trkpt>
      <trkpt lat="42.77306" lon="1.89866">
        <ele>1476.8</ele>
        <time>2024-06-30T10:30:57Z</time>
      </trkpt>
      <trkpt lat="42.77308" lon="1.89862">
        <ele>1477.4</ele>
        <time>2024-06-30T10:30:58Z</time>
      </trkpt>
      <trkpt lat="42.77309" lon="1.89857">
        <ele>1477.6</ele>
        <time>2024-06-30T10:30:59Z</time>
      </trkpt>
      <trkpt lat="42.77309" lon="1.89852">
        <ele>1478</ele>
        <time>2024-06-30T10:31:00Z</time>
      </trkpt>
      <trkpt lat="42.77309" lon="1.89847">
        <ele>1478.2</ele>
        <time>2024-06-30T10:31:01Z</time>
      </trkpt>
      <trkpt lat="42.77308" lon="1.89842">
        <ele>1478.4</ele>
        <time>2024-06-30T10:31:02Z</time>
      </trkpt>
      <trkpt lat="42.77307" lon="1.89837">
        <ele>1478.6</ele>
        <time>2024-06-30T10:31:03Z</time>
      </trkpt>
      <trkpt lat="42.77305" lon="1.89833">
        <ele>1478.8</ele>
        <time>2024-06-30T10:31:04Z</time>
      </trkpt>
      <trkpt lat="42.77303" lon="1.89828">
        <ele>1479.2</ele>
        <time>2024-06-30T10:31:05Z</time>
      </trkpt>
      <trkpt lat="42.773" lon="1.89824">
        <ele>1479.6</ele>
        <time>2024-06-30T10:31:06Z</time>
      </trkpt>
      <trkpt lat="42.77298" lon="1.8982">
        <ele>1479.8</ele>
        <time>2024-06-30T10:31:07Z</time>
      </trkpt>
      <trkpt lat="42.77295" lon="1.89815">
        <ele>1480</ele>
        <time>2024-06-30T10:31:08Z</time>
      </trkpt>
      <trkpt lat="42.77292" lon="1.89811">
        <ele>1480.2</ele>
        <time>2024-06-30T10:31:09Z</time>
      </trkpt>
      <trkpt lat="42.7729" lon="1.89808">
        <ele>1480.4</ele>
        <time>2024-06-30T10:31:10Z</time>
      </trkpt>
      <trkpt lat="42.77288" lon="1.89805">
        <ele>1480.4</ele>
        <time>2024-06-30T10:31:11Z</time>
      </trkpt>
      <trkpt lat="42.77286" lon="1.89801">
        <ele>1480.8</ele>
        <time>2024-06-30T10:31:12Z</time>
      </trkpt>
      <trkpt lat="42.77284" lon="1.89797">
        <ele>1481</ele>
        <time>2024-06-30T10:31:13Z</time>
      </trkpt>
      <trkpt lat="42.77281" lon="1.89793">
        <ele>1481.2</ele>
        <time>2024-06-30T10:31:14Z</time>
      </trkpt>
      <trkpt lat="42.77278" lon="1.89789">
        <ele>1481.4</ele>
        <time>2024-06-30T10:31:15Z</time>
      </trkpt>
      <trkpt lat="42.77276" lon="1.89786">
        <ele>1482</ele>
        <time>2024-06-30T10:31:16Z</time>
      </trkpt>
      <trkpt lat="42.77273" lon="1.89782">
        <ele>1482.2</ele>
        <time>2024-06-30T10:31:17Z</time>
      </trkpt>
      <trkpt lat="42.7727" lon="1.89778">
        <ele>1482.6</ele>
        <time>2024-06-30T10:31:18Z</time>
      </trkpt>
      <trkpt lat="42.77269" lon="1.89775">
        <ele>1482.8</ele>
        <time>2024-06-30T10:31:19Z</time>
      </trkpt>
      <trkpt lat="42.77267" lon="1.89772">
        <ele>1483</ele>
        <time>2024-06-30T10:31:20Z</time>
      </trkpt>
      <trkpt lat="42.77264" lon="1.89768">
        <ele>1483.2</ele>
        <time>2024-06-30T10:31:21Z</time>
      </trkpt>
      <trkpt lat="42.77261" lon="1.89765">
        <ele>1483.4</ele>
        <time>2024-06-30T10:31:22Z</time>
      </trkpt>
      <trkpt lat="42.77258" lon="1.89761">
        <ele>1484</ele>
        <time>2024-06-30T10:31:23Z</time>
      </trkpt>
      <trkpt lat="42.77255" lon="1.89758">
        <ele>1484.2</ele>
        <time>2024-06-30T10:31:24Z</time>
      </trkpt>
      <trkpt lat="42.77253" lon="1.89754">
        <ele>1484.6</ele>
        <time>2024-06-30T10:31:25Z</time>
      </trkpt>
      <trkpt lat="42.7725" lon="1.89751">
        <ele>1485.2</ele>
        <time>2024-06-30T10:31:26Z</time>
      </trkpt>
      <trkpt lat="42.77247" lon="1.89747">
        <ele>1485.4</ele>
        <time>2024-06-30T10:31:27Z</time>
      </trkpt>
      <trkpt lat="42.77244" lon="1.89744">
        <ele>1485.8</ele>
        <time>2024-06-30T10:31:28Z</time>
      </trkpt>
      <trkpt lat="42.77241" lon="1.89741">
        <ele>1486</ele>
        <time>2024-06-30T10:31:29Z</time>
      </trkpt>
      <trkpt lat="42.77237" lon="1.89738">
        <ele>1486.4</ele>
        <time>2024-06-30T10:31:30Z</time>
      </trkpt>
      <trkpt lat="42.77234" lon="1.89735">
        <ele>1486.4</ele>
        <time>2024-06-30T10:31:31Z</time>
      </trkpt>
      <trkpt lat="42.77231" lon="1.89732">
        <ele>1486.8</ele>
        <time>2024-06-30T10:31:32Z</time>
      </trkpt>
      <trkpt lat="42.77228" lon="1.8973">
        <ele>1487</ele>
        <time>2024-06-30T10:31:33Z</time>
      </trkpt>
      <trkpt lat="42.77225" lon="1.89728">
        <ele>1487.2</ele>
        <time>2024-06-30T10:31:34Z</time>
      </trkpt>
      <trkpt lat="42.77222" lon="1.89725">
        <ele>1487.6</ele>
        <time>2024-06-30T10:31:35Z</time>
      </trkpt>
      <trkpt lat="42.77218" lon="1.89723">
        <ele>1487.8</ele>
        <time>2024-06-30T10:31:36Z</time>
      </trkpt>
      <trkpt lat="42.77215" lon="1.89721">
        <ele>1488.4</ele>
        <time>2024-06-30T10:31:37Z</time>
      </trkpt>
      <trkpt lat="42.77212" lon="1.89719">
        <ele>1488.6</ele>
        <time>2024-06-30T10:31:38Z</time>
      </trkpt>
      <trkpt lat="42.77209" lon="1.89716">
        <ele>1489.2</ele>
        <time>2024-06-30T10:31:39Z</time>
      </trkpt>
      <trkpt lat="42.77205" lon="1.89714">
        <ele>1489.4</ele>
        <time>2024-06-30T10:31:40Z</time>
      </trkpt>
      <trkpt lat="42.77202" lon="1.89712">
        <ele>1489.8</ele>
        <time>2024-06-30T10:31:41Z</time>
      </trkpt>
      <trkpt lat="42.77198" lon="1.89711">
        <ele>1490</ele>
        <time>2024-06-30T10:31:42Z</time>
      </trkpt>
      <trkpt lat="42.77195" lon="1.8971">
        <ele>1490.2</ele>
        <time>2024-06-30T10:31:43Z</time>
      </trkpt>
      <trkpt lat="42.77191" lon="1.89708">
        <ele>1490.6</ele>
        <time>2024-06-30T10:31:44Z</time>
      </trkpt>
      <trkpt lat="42.77188" lon="1.89706">
        <ele>1490.6</ele>
        <time>2024-06-30T10:31:45Z</time>
      </trkpt>
      <trkpt lat="42.77184" lon="1.89705">
        <ele>1491</ele>
        <time>2024-06-30T10:31:46Z</time>
      </trkpt>
      <trkpt lat="42.77181" lon="1.89703">
        <ele>1491.2</ele>
        <time>2024-06-30T10:31:47Z</time>
      </trkpt>
      <trkpt lat="42.77178" lon="1.89702">
        <ele>1491.4</ele>
        <time>2024-06-30T10:31:48Z</time>
      </trkpt>
      <trkpt lat="42.77175" lon="1.897">
        <ele>1491.6</ele>
        <time>2024-06-30T10:31:49Z</time>
      </trkpt>
      <trkpt lat="42.77172" lon="1.89699">
        <ele>1492.2</ele>
        <time>2024-06-30T10:31:50Z</time>
      </trkpt>
      <trkpt lat="42.77169" lon="1.89698">
        <ele>1492.6</ele>
        <time>2024-06-30T10:31:51Z</time>
      </trkpt>
      <trkpt lat="42.77167" lon="1.89697">
        <ele>1492.8</ele>
        <time>2024-06-30T10:31:52Z</time>
      </trkpt>
      <trkpt lat="42.77163" lon="1.89695">
        <ele>1493.2</ele>
        <time>2024-06-30T10:31:53Z</time>
      </trkpt>
      <trkpt lat="42.77159" lon="1.89693">
        <ele>1493.4</ele>
        <time>2024-06-30T10:31:54Z</time>
      </trkpt>
      <trkpt lat="42.77156" lon="1.89692">
        <ele>1493.8</ele>
        <time>2024-06-30T10:31:55Z</time>
      </trkpt>
      <trkpt lat="42.77152" lon="1.8969">
        <ele>1494.2</ele>
        <time>2024-06-30T10:31:56Z</time>
      </trkpt>
      <trkpt lat="42.77149" lon="1.89689">
        <ele>1494.6</ele>
        <time>2024-06-30T10:31:57Z</time>
      </trkpt>
      <trkpt lat="42.77146" lon="1.89687">
        <ele>1494.8</ele>
        <time>2024-06-30T10:31:58Z</time>
      </trkpt>
      <trkpt lat="42.77143" lon="1.89685">
        <ele>1495.4</ele>
        <time>2024-06-30T10:31:59Z</time>
      </trkpt>
      <trkpt lat="42.7714" lon="1.89684">
        <ele>1496</ele>
        <time>2024-06-30T10:32:00Z</time>
      </trkpt>
      <trkpt lat="42.77137" lon="1.89682">
        <ele>1496.2</ele>
        <time>2024-06-30T10:32:01Z</time>
      </trkpt>
      <trkpt lat="42.77135" lon="1.8968">
        <ele>1496.6</ele>
        <time>2024-06-30T10:32:02Z</time>
      </trkpt>
      <trkpt lat="42.77132" lon="1.89678">
        <ele>1496.8</ele>
        <time>2024-06-30T10:32:03Z</time>
      </trkpt>
      <trkpt lat="42.77129" lon="1.89676">
        <ele>1497.4</ele>
        <time>2024-06-30T10:32:04Z</time>
      </trkpt>
      <trkpt lat="42.77126" lon="1.89674">
        <ele>1497.8</ele>
        <time>2024-06-30T10:32:05Z</time>
      </trkpt>
      <trkpt lat="42.77124" lon="1.89671">
        <ele>1498.4</ele>
        <time>2024-06-30T10:32:06Z</time>
      </trkpt>
      <trkpt lat="42.77121" lon="1.89669">
        <ele>1498.8</ele>
        <time>2024-06-30T10:32:07Z</time>
      </trkpt>
      <trkpt lat="42.77119" lon="1.89666">
        <ele>1499</ele>
        <time>2024-06-30T10:32:08Z</time>
      </trkpt>
      <trkpt lat="42.77116" lon="1.89663">
        <ele>1499.6</ele>
        <time>2024-06-30T10:32:09Z</time>
      </trkpt>
      <trkpt lat="42.77113" lon="1.8966">
        <ele>1499.6</ele>
        <time>2024-06-30T10:32:10Z</time>
      </trkpt>
      <trkpt lat="42.77111" lon="1.89657">
        <ele>1499.8</ele>
        <time>2024-06-30T10:32:11Z</time>
      </trkpt>
      <trkpt lat="42.77108" lon="1.89654">
        <ele>1500</ele>
        <time>2024-06-30T10:32:12Z</time>
      </trkpt>
      <trkpt lat="42.77106" lon="1.89652">
        <ele>1500.4</ele>
        <time>2024-06-30T10:32:13Z</time>
      </trkpt>
      <trkpt lat="42.77103" lon="1.89649">
        <ele>1500.6</ele>
        <time>2024-06-30T10:32:14Z</time>
      </trkpt>
      <trkpt lat="42.77101" lon="1.89646">
        <ele>1501</ele>
        <time>2024-06-30T10:32:15Z</time>
      </trkpt>
      <trkpt lat="42.77098" lon="1.89643">
        <ele>1501.2</ele>
        <time>2024-06-30T10:32:16Z</time>
      </trkpt>
      <trkpt lat="42.77096" lon="1.89641">
        <ele>1501.4</ele>
        <time>2024-06-30T10:32:17Z</time>
      </trkpt>
      <trkpt lat="42.77094" lon="1.89638">
        <ele>1502</ele>
        <time>2024-06-30T10:32:18Z</time>
      </trkpt>
      <trkpt lat="42.77092" lon="1.89636">
        <ele>1502.2</ele>
        <time>2024-06-30T10:32:19Z</time>
      </trkpt>
      <trkpt lat="42.7709" lon="1.89633">
        <ele>1502.4</ele>
        <time>2024-06-30T10:32:20Z</time>
      </trkpt>
      <trkpt lat="42.77088" lon="1.8963">
        <ele>1502.4</ele>
        <time>2024-06-30T10:32:21Z</time>
      </trkpt>
      <trkpt lat="42.77085" lon="1.89627">
        <ele>1502.8</ele>
        <time>2024-06-30T10:32:22Z</time>
      </trkpt>
      <trkpt lat="42.77083" lon="1.89625">
        <ele>1503</ele>
        <time>2024-06-30T10:32:23Z</time>
      </trkpt>
      <trkpt lat="42.7708" lon="1.89622">
        <ele>1503.2</ele>
        <time>2024-06-30T10:32:24Z</time>
      </trkpt>
      <trkpt lat="42.77077" lon="1.8962">
        <ele>1503.6</ele>
        <time>2024-06-30T10:32:25Z</time>
      </trkpt>
      <trkpt lat="42.77074" lon="1.89619">
        <ele>1504</ele>
        <time>2024-06-30T10:32:26Z</time>
      </trkpt>
      <trkpt lat="42.77071" lon="1.89617">
        <ele>1504.4</ele>
        <time>2024-06-30T10:32:27Z</time>
      </trkpt>
      <trkpt lat="42.77069" lon="1.89615">
        <ele>1504.6</ele>
        <time>2024-06-30T10:32:28Z</time>
      </trkpt>
      <trkpt lat="42.77066" lon="1.89612">
        <ele>1505</ele>
        <time>2024-06-30T10:32:29Z</time>
      </trkpt>
      <trkpt lat="42.77063" lon="1.89611">
        <ele>1505</ele>
        <time>2024-06-30T10:32:30Z</time>
      </trkpt>
      <trkpt lat="42.7706" lon="1.89609">
        <ele>1505.6</ele>
        <time>2024-06-30T10:32:31Z</time>
      </trkpt>
      <trkpt lat="42.77057" lon="1.89607">
        <ele>1506.2</ele>
        <time>2024-06-30T10:32:32Z</time>
      </trkpt>
      <trkpt lat="42.77054" lon="1.89606">
        <ele>1506.4</ele>
        <time>2024-06-30T10:32:33Z</time>
      </trkpt>
      <trkpt lat="42.77052" lon="1.89603">
        <ele>1506.8</ele>
        <time>2024-06-30T10:32:34Z</time>
      </trkpt>
      <trkpt lat="42.77049" lon="1.89601">
        <ele>1507</ele>
        <time>2024-06-30T10:32:35Z</time>
      </trkpt>
      <trkpt lat="42.77046" lon="1.89599">
        <ele>1507.2</ele>
        <time>2024-06-30T10:32:36Z</time>
      </trkpt>
      <trkpt lat="42.77043" lon="1.89597">
        <ele>1507.4</ele>
        <time>2024-06-30T10:32:37Z</time>
      </trkpt>
      <trkpt lat="42.77041" lon="1.89595">
        <ele>1507.8</ele>
        <time>2024-06-30T10:32:38Z</time>
      </trkpt>
      <trkpt lat="42.77038" lon="1.89593">
        <ele>1508.2</ele>
        <time>2024-06-30T10:32:39Z</time>
      </trkpt>
      <trkpt lat="42.77035" lon="1.89591">
        <ele>1508.6</ele>
        <time>2024-06-30T10:32:40Z</time>
      </trkpt>
      <trkpt lat="42.77032" lon="1.89589">
        <ele>1509</ele>
        <time>2024-06-30T10:32:41Z</time>
      </trkpt>
      <trkpt lat="42.77029" lon="1.89587">
        <ele>1509.4</ele>
        <time>2024-06-30T10:32:42Z</time>
      </trkpt>
      <trkpt lat="42.77026" lon="1.89585">
        <ele>1510</ele>
        <time>2024-06-30T10:32:43Z</time>
      </trkpt>
      <trkpt lat="42.77023" lon="1.89582">
        <ele>1510.2</ele>
        <time>2024-06-30T10:32:44Z</time>
      </trkpt>
      <trkpt lat="42.7702" lon="1.8958">
        <ele>1510.6</ele>
        <time>2024-06-30T10:32:45Z</time>
      </trkpt>
      <trkpt lat="42.77018" lon="1.89578">
        <ele>1510.8</ele>
        <time>2024-06-30T10:32:46Z</time>
      </trkpt>
      <trkpt lat="42.77015" lon="1.89576">
        <ele>1511</ele>
        <time>2024-06-30T10:32:47Z</time>
      </trkpt>
      <trkpt lat="42.77011" lon="1.89575">
        <ele>1511.2</ele>
        <time>2024-06-30T10:32:48Z</time>
      </trkpt>
      <trkpt lat="42.77009" lon="1.89573">
        <ele>1511.4</ele>
        <time>2024-06-30T10:32:49Z</time>
      </trkpt>
      <trkpt lat="42.77006" lon="1.8957">
        <ele>1511.6</ele>
        <time>2024-06-30T10:32:50Z</time>
      </trkpt>
      <trkpt lat="42.77003" lon="1.89568">
        <ele>1511.6</ele>
        <time>2024-06-30T10:32:51Z</time>
      </trkpt>
      <trkpt lat="42.77" lon="1.89566">
        <ele>1512</ele>
        <time>2024-06-30T10:32:52Z</time>
      </trkpt>
      <trkpt lat="42.76997" lon="1.89564">
        <ele>1512</ele>
        <time>2024-06-30T10:32:53Z</time>
      </trkpt>
      <trkpt lat="42.76994" lon="1.89562">
        <ele>1512.6</ele>
        <time>2024-06-30T10:32:54Z</time>
      </trkpt>
      <trkpt lat="42.76991" lon="1.8956">
        <ele>1513</ele>
        <time>2024-06-30T10:32:55Z</time>
      </trkpt>
      <trkpt lat="42.76988" lon="1.89558">
        <ele>1513.2</ele>
        <time>2024-06-30T10:32:56Z</time>
      </trkpt>
      <trkpt lat="42.76986" lon="1.89556">
        <ele>1514.4</ele>
        <time>2024-06-30T10:32:57Z</time>
      </trkpt>
      <trkpt lat="42.76982" lon="1.89554">
        <ele>1514.8</ele>
        <time>2024-06-30T10:32:58Z</time>
      </trkpt>
      <trkpt lat="42.7698" lon="1.89552">
        <ele>1515.4</ele>
        <time>2024-06-30T10:32:59Z</time>
      </trkpt>
      <trkpt lat="42.76977" lon="1.89549">
        <ele>1515.8</ele>
        <time>2024-06-30T10:33:00Z</time>
      </trkpt>
      <trkpt lat="42.76974" lon="1.89546">
        <ele>1516.2</ele>
        <time>2024-06-30T10:33:01Z</time>
      </trkpt>
      <trkpt lat="42.7697" lon="1.89544">
        <ele>1516.4</ele>
        <time>2024-06-30T10:33:02Z</time>
      </trkpt>
      <trkpt lat="42.76967" lon="1.89541">
        <ele>1516.6</ele>
        <time>2024-06-30T10:33:03Z</time>
      </trkpt>
      <trkpt lat="42.76964" lon="1.89539">
        <ele>1517</ele>
        <time>2024-06-30T10:33:04Z</time>
      </trkpt>
      <trkpt lat="42.76961" lon="1.89536">
        <ele>1517.2</ele>
        <time>2024-06-30T10:33:05Z</time>
      </trkpt>
      <trkpt lat="42.76958" lon="1.89534">
        <ele>1517.6</ele>
        <time>2024-06-30T10:33:06Z</time>
      </trkpt>
      <trkpt lat="42.76955" lon="1.89531">
        <ele>1517.8</ele>
        <time>2024-06-30T10:33:07Z</time>
      </trkpt>
      <trkpt lat="42.76952" lon="1.89528">
        <ele>1518.2</ele>
        <time>2024-06-30T10:33:08Z</time>
      </trkpt>
      <trkpt lat="42.76948" lon="1.89526">
        <ele>1518.4</ele>
        <time>2024-06-30T10:33:09Z</time>
      </trkpt>
      <trkpt lat="42.76946" lon="1.89524">
        <ele>1519</ele>
        <time>2024-06-30T10:33:10Z</time>
      </trkpt>
      <trkpt lat="42.76943" lon="1.89522">
        <ele>1519.4</ele>
        <time>2024-06-30T10:33:11Z</time>
      </trkpt>
      <trkpt lat="42.7694" lon="1.8952">
        <ele>1519.4</ele>
        <time>2024-06-30T10:33:12Z</time>
      </trkpt>
      <trkpt lat="42.76937" lon="1.89518">
        <ele>1519.8</ele>
        <time>2024-06-30T10:33:13Z</time>
      </trkpt>
      <trkpt lat="42.76934" lon="1.89517">
        <ele>1519.8</ele>
        <time>2024-06-30T10:33:14Z</time>
      </trkpt>
      <trkpt lat="42.76931" lon="1.89515">
        <ele>1520.2</ele>
        <time>2024-06-30T10:33:15Z</time>
      </trkpt>
      <trkpt lat="42.76928" lon="1.89512">
        <ele>1520.2</ele>
        <time>2024-06-30T10:33:16Z</time>
      </trkpt>
      <trkpt lat="42.76926" lon="1.8951">
        <ele>1520.6</ele>
        <time>2024-06-30T10:33:17Z</time>
      </trkpt>
      <trkpt lat="42.76924" lon="1.89507">
        <ele>1520.8</ele>
        <time>2024-06-30T10:33:18Z</time>
      </trkpt>
      <trkpt lat="42.76922" lon="1.89504">
        <ele>1521.2</ele>
        <time>2024-06-30T10:33:19Z</time>
      </trkpt>
      <trkpt lat="42.7692" lon="1.89501">
        <ele>1521.4</ele>
        <time>2024-06-30T10:33:20Z</time>
      </trkpt>
      <trkpt lat="42.76919" lon="1.89497">
        <ele>1522</ele>
        <time>2024-06-30T10:33:21Z</time>
      </trkpt>
      <trkpt lat="42.76919" lon="1.89493">
        <ele>1522.4</ele>
        <time>2024-06-30T10:33:22Z</time>
      </trkpt>
      <trkpt lat="42.76918" lon="1.89489">
        <ele>1522.6</ele>
        <time>2024-06-30T10:33:23Z</time>
      </trkpt>
      <trkpt lat="42.76918" lon="1.89484">
        <ele>1523</ele>
        <time>2024-06-30T10:33:24Z</time>
      </trkpt>
      <trkpt lat="42.76918" lon="1.8948">
        <ele>1523</ele>
        <time>2024-06-30T10:33:25Z</time>
      </trkpt>
      <trkpt lat="42.76917" lon="1.89477">
        <ele>1523.4</ele>
        <time>2024-06-30T10:33:26Z</time>
      </trkpt>
      <trkpt lat="42.76916" lon="1.89472">
        <ele>1523.6</ele>
        <time>2024-06-30T10:33:27Z</time>
      </trkpt>
      <trkpt lat="42.76916" lon="1.89468">
        <ele>1523.6</ele>
        <time>2024-06-30T10:33:28Z</time>
      </trkpt>
      <trkpt lat="42.76916" lon="1.89464">
        <ele>1523.8</ele>
        <time>2024-06-30T10:33:29Z</time>
      </trkpt>
      <trkpt lat="42.76915" lon="1.8946">
        <ele>1524</ele>
        <time>2024-06-30T10:33:30Z</time>
      </trkpt>
      <trkpt lat="42.76914" lon="1.89456">
        <ele>1524.2</ele>
        <time>2024-06-30T10:33:31Z</time>
      </trkpt>
      <trkpt lat="42.76913" lon="1.89451">
        <ele>1524.4</ele>
        <time>2024-06-30T10:33:32Z</time>
      </trkpt>
      <trkpt lat="42.76912" lon="1.89447">
        <ele>1524.8</ele>
        <time>2024-06-30T10:33:33Z</time>
      </trkpt>
      <trkpt lat="42.76911" lon="1.89443">
        <ele>1525</ele>
        <time>2024-06-30T10:33:34Z</time>
      </trkpt>
      <trkpt lat="42.76909" lon="1.89438">
        <ele>1525.4</ele>
        <time>2024-06-30T10:33:35Z</time>
      </trkpt>
      <trkpt lat="42.76907" lon="1.89435">
        <ele>1526</ele>
        <time>2024-06-30T10:33:36Z</time>
      </trkpt>
      <trkpt lat="42.76905" lon="1.89431">
        <ele>1526.2</ele>
        <time>2024-06-30T10:33:37Z</time>
      </trkpt>
      <trkpt lat="42.76904" lon="1.89426">
        <ele>1526.4</ele>
        <time>2024-06-30T10:33:38Z</time>
      </trkpt>
      <trkpt lat="42.76903" lon="1.89423">
        <ele>1526.6</ele>
        <time>2024-06-30T10:33:39Z</time>
      </trkpt>
      <trkpt lat="42.76901" lon="1.89419">
        <ele>1526.8</ele>
        <time>2024-06-30T10:33:40Z</time>
      </trkpt>
      <trkpt lat="42.769" lon="1.89416">
        <ele>1527</ele>
        <time>2024-06-30T10:33:41Z</time>
      </trkpt>
      <trkpt lat="42.76898" lon="1.89412">
        <ele>1527.4</ele>
        <time>2024-06-30T10:33:42Z</time>
      </trkpt>
      <trkpt lat="42.76896" lon="1.89409">
        <ele>1527.8</ele>
        <time>2024-06-30T10:33:43Z</time>
      </trkpt>
      <trkpt lat="42.76895" lon="1.89405">
        <ele>1528</ele>
        <time>2024-06-30T10:33:44Z</time>
      </trkpt>
      <trkpt lat="42.76893" lon="1.89401">
        <ele>1528.6</ele>
        <time>2024-06-30T10:33:45Z</time>
      </trkpt>
      <trkpt lat="42.76891" lon="1.89397">
        <ele>1528.8</ele>
        <time>2024-06-30T10:33:46Z</time>
      </trkpt>
      <trkpt lat="42.76889" lon="1.89392">
        <ele>1529</ele>
        <time>2024-06-30T10:33:47Z</time>
      </trkpt>
      <trkpt lat="42.76887" lon="1.89388">
        <ele>1529.2</ele>
        <time>2024-06-30T10:33:48Z</time>
      </trkpt>
      <trkpt lat="42.76886" lon="1.89384">
        <ele>1529.4</ele>
        <time>2024-06-30T10:33:49Z</time>
      </trkpt>
      <trkpt lat="42.76884" lon="1.8938">
        <ele>1529.6</ele>
        <time>2024-06-30T10:33:50Z</time>
      </trkpt>
      <trkpt lat="42.76882" lon="1.89375">
        <ele>1530</ele>
        <time>2024-06-30T10:33:51Z</time>
      </trkpt>
      <trkpt lat="42.7688" lon="1.8937">
        <ele>1530.2</ele>
        <time>2024-06-30T10:33:52Z</time>
      </trkpt>
      <trkpt lat="42.76879" lon="1.89366">
        <ele>1530.4</ele>
        <time>2024-06-30T10:33:53Z</time>
      </trkpt>
      <trkpt lat="42.76877" lon="1.89363">
        <ele>1530.8</ele>
        <time>2024-06-30T10:33:54Z</time>
      </trkpt>
      <trkpt lat="42.76874" lon="1.89358">
        <ele>1530.8</ele>
        <time>2024-06-30T10:33:55Z</time>
      </trkpt>
      <trkpt lat="42.76872" lon="1.89354">
        <ele>1531</ele>
        <time>2024-06-30T10:33:56Z</time>
      </trkpt>
      <trkpt lat="42.7687" lon="1.89351">
        <ele>1531.2</ele>
        <time>2024-06-30T10:33:57Z</time>
      </trkpt>
      <trkpt lat="42.76868" lon="1.89347">
        <ele>1531.8</ele>
        <time>2024-06-30T10:33:58Z</time>
      </trkpt>
      <trkpt lat="42.76865" lon="1.89341">
        <ele>1532.4</ele>
        <time>2024-06-30T10:33:59Z</time>
      </trkpt>
      <trkpt lat="42.76862" lon="1.89338">
        <ele>1532.6</ele>
        <time>2024-06-30T10:34:00Z</time>
      </trkpt>
      <trkpt lat="42.76861" lon="1.89336">
        <ele>1533</ele>
        <time>2024-06-30T10:34:01Z</time>
      </trkpt>
      <trkpt lat="42.76859" lon="1.89333">
        <ele>1533.4</ele>
        <time>2024-06-30T10:34:02Z</time>
      </trkpt>
      <trkpt lat="42.76857" lon="1.8933">
        <ele>1533.8</ele>
        <time>2024-06-30T10:34:03Z</time>
      </trkpt>
      <trkpt lat="42.76855" lon="1.89327">
        <ele>1533.8</ele>
        <time>2024-06-30T10:34:04Z</time>
      </trkpt>
      <trkpt lat="42.76854" lon="1.89324">
        <ele>1534.2</ele>
        <time>2024-06-30T10:34:05Z</time>
      </trkpt>
      <trkpt lat="42.76852" lon="1.89321">
        <ele>1534.4</ele>
        <time>2024-06-30T10:34:06Z</time>
      </trkpt>
      <trkpt lat="42.7685" lon="1.89317">
        <ele>1534.8</ele>
        <time>2024-06-30T10:34:07Z</time>
      </trkpt>
      <trkpt lat="42.76848" lon="1.89314">
        <ele>1535.2</ele>
        <time>2024-06-30T10:34:08Z</time>
      </trkpt>
      <trkpt lat="42.76846" lon="1.89311">
        <ele>1535.4</ele>
        <time>2024-06-30T10:34:09Z</time>
      </trkpt>
      <trkpt lat="42.76845" lon="1.89308">
        <ele>1535.6</ele>
        <time>2024-06-30T10:34:10Z</time>
      </trkpt>
      <trkpt lat="42.76843" lon="1.89304">
        <ele>1535.8</ele>
        <time>2024-06-30T10:34:11Z</time>
      </trkpt>
      <trkpt lat="42.76841" lon="1.89301">
        <ele>1536.6</ele>
        <time>2024-06-30T10:34:12Z</time>
      </trkpt>
      <trkpt lat="42.7684" lon="1.89297">
        <ele>1536.8</ele>
        <time>2024-06-30T10:34:13Z</time>
      </trkpt>
      <trkpt lat="42.76838" lon="1.89293">
        <ele>1537.2</ele>
        <time>2024-06-30T10:34:14Z</time>
      </trkpt>
      <trkpt lat="42.76836" lon="1.8929">
        <ele>1537.4</ele>
        <time>2024-06-30T10:34:15Z</time>
      </trkpt>
      <trkpt lat="42.76834" lon="1.89286">
        <ele>1537.6</ele>
        <time>2024-06-30T10:34:16Z</time>
      </trkpt>
      <trkpt lat="42.76833" lon="1.89282">
        <ele>1538.2</ele>
        <time>2024-06-30T10:34:17Z</time>
      </trkpt>
      <trkpt lat="42.76832" lon="1.89279">
        <ele>1538.6</ele>
        <time>2024-06-30T10:34:18Z</time>
      </trkpt>
      <trkpt lat="42.76831" lon="1.89274">
        <ele>1539</ele>
        <time>2024-06-30T10:34:19Z</time>
      </trkpt>
      <trkpt lat="42.76831" lon="1.8927">
        <ele>1539.2</ele>
        <time>2024-06-30T10:34:20Z</time>
      </trkpt>
      <trkpt lat="42.76831" lon="1.89266">
        <ele>1539.8</ele>
        <time>2024-06-30T10:34:21Z</time>
      </trkpt>
      <trkpt lat="42.7683" lon="1.89262">
        <ele>1540</ele>
        <time>2024-06-30T10:34:22Z</time>
      </trkpt>
      <trkpt lat="42.7683" lon="1.89258">
        <ele>1540.4</ele>
        <time>2024-06-30T10:34:23Z</time>
      </trkpt>
      <trkpt lat="42.76831" lon="1.89253">
        <ele>1540.6</ele>
        <time>2024-06-30T10:34:24Z</time>
      </trkpt>
      <trkpt lat="42.76832" lon="1.89248">
        <ele>1540.8</ele>
        <time>2024-06-30T10:34:25Z</time>
      </trkpt>
      <trkpt lat="42.76834" lon="1.89243">
        <ele>1541.2</ele>
        <time>2024-06-30T10:34:26Z</time>
      </trkpt>
      <trkpt lat="42.76836" lon="1.89238">
        <ele>1541.4</ele>
        <time>2024-06-30T10:34:27Z</time>
      </trkpt>
      <trkpt lat="42.76837" lon="1.89234">
        <ele>1541.8</ele>
        <time>2024-06-30T10:34:28Z</time>
      </trkpt>
      <trkpt lat="42.76839" lon="1.8923">
        <ele>1542</ele>
        <time>2024-06-30T10:34:29Z</time>
      </trkpt>
      <trkpt lat="42.76841" lon="1.89225">
        <ele>1542.4</ele>
        <time>2024-06-30T10:34:30Z</time>
      </trkpt>
      <trkpt lat="42.76842" lon="1.89221">
        <ele>1542.6</ele>
        <time>2024-06-30T10:34:31Z</time>
      </trkpt>
      <trkpt lat="42.76844" lon="1.89216">
        <ele>1543</ele>
        <time>2024-06-30T10:34:32Z</time>
      </trkpt>
      <trkpt lat="42.76845" lon="1.89212">
        <ele>1543.2</ele>
        <time>2024-06-30T10:34:33Z</time>
      </trkpt>
      <trkpt lat="42.76846" lon="1.89206">
        <ele>1543.2</ele>
        <time>2024-06-30T10:34:34Z</time>
      </trkpt>
      <trkpt lat="42.76847" lon="1.89201">
        <ele>1543.2</ele>
        <time>2024-06-30T10:34:35Z</time>
      </trkpt>
      <trkpt lat="42.76847" lon="1.89195">
        <ele>1543.2</ele>
        <time>2024-06-30T10:34:36Z</time>
      </trkpt>
      <trkpt lat="42.76847" lon="1.8919">
        <ele>1543.4</ele>
        <time>2024-06-30T10:34:37Z</time>
      </trkpt>
      <trkpt lat="42.76848" lon="1.89184">
        <ele>1543.4</ele>
        <time>2024-06-30T10:34:38Z</time>
      </trkpt>
      <trkpt lat="42.76849" lon="1.89179">
        <ele>1543.6</ele>
        <time>2024-06-30T10:34:39Z</time>
      </trkpt>
      <trkpt lat="42.7685" lon="1.89174">
        <ele>1543.8</ele>
        <time>2024-06-30T10:34:40Z</time>
      </trkpt>
      <trkpt lat="42.76852" lon="1.89169">
        <ele>1543.8</ele>
        <time>2024-06-30T10:34:41Z</time>
      </trkpt>
      <trkpt lat="42.76852" lon="1.89163">
        <ele>1543.8</ele>
        <time>2024-06-30T10:34:42Z</time>
      </trkpt>
      <trkpt lat="42.76853" lon="1.89156">
        <ele>1543.8</ele>
        <time>2024-06-30T10:34:43Z</time>
      </trkpt>
      <trkpt lat="42.76852" lon="1.89149">
        <ele>1543.8</ele>
        <time>2024-06-30T10:34:44Z</time>
      </trkpt>
      <trkpt lat="42.76853" lon="1.89142">
        <ele>1544</ele>
        <time>2024-06-30T10:34:45Z</time>
      </trkpt>
      <trkpt lat="42.76853" lon="1.89135">
        <ele>1544</ele>
        <time>2024-06-30T10:34:46Z</time>
      </trkpt>
      <trkpt lat="42.76855" lon="1.89128">
        <ele>1544</ele>
        <time>2024-06-30T10:34:47Z</time>
      </trkpt>
      <trkpt lat="42.76858" lon="1.89122">
        <ele>1543.8</ele>
        <time>2024-06-30T10:34:48Z</time>
      </trkpt>
      <trkpt lat="42.76863" lon="1.89118">
        <ele>1543.8</ele>
        <time>2024-06-30T10:34:49Z</time>
      </trkpt>
      <trkpt lat="42.76869" lon="1.89116">
        <ele>1543.6</ele>
        <time>2024-06-30T10:34:50Z</time>
      </trkpt>
      <trkpt lat="42.76875" lon="1.89116">
        <ele>1543.6</ele>
        <time>2024-06-30T10:34:51Z</time>
      </trkpt>
      <trkpt lat="42.7688" lon="1.8912">
        <ele>1543.4</ele>
        <time>2024-06-30T10:34:52Z</time>
      </trkpt>
      <trkpt lat="42.76886" lon="1.89123">
        <ele>1543.4</ele>
        <time>2024-06-30T10:34:53Z</time>
      </trkpt>
      <trkpt lat="42.76893" lon="1.89126">
        <ele>1543.4</ele>
        <time>2024-06-30T10:34:54Z</time>
      </trkpt>
      <trkpt lat="42.76899" lon="1.89129">
        <ele>1542.8</ele>
        <time>2024-06-30T10:34:55Z</time>
      </trkpt>
      <trkpt lat="42.76905" lon="1.89132">
        <ele>1542.6</ele>
        <time>2024-06-30T10:34:56Z</time>
      </trkpt>
      <trkpt lat="42.76911" lon="1.89134">
        <ele>1542.2</ele>
        <time>2024-06-30T10:34:57Z</time>
      </trkpt>
      <trkpt lat="42.76929" lon="1.89143">
        <ele>1540.6</ele>
        <time>2024-06-30T10:35:00Z</time>
      </trkpt>
      <trkpt lat="42.76948" lon="1.89156">
        <ele>1539.6</ele>
        <time>2024-06-30T10:35:03Z</time>
      </trkpt>
      <trkpt lat="42.76966" lon="1.8917">
        <ele>1538.8</ele>
        <time>2024-06-30T10:35:06Z</time>
      </trkpt>
      <trkpt lat="42.76972" lon="1.89174">
        <ele>1538.6</ele>
        <time>2024-06-30T10:35:07Z</time>
      </trkpt>
      <trkpt lat="42.76979" lon="1.89177">
        <ele>1538.6</ele>
        <time>2024-06-30T10:35:08Z</time>
      </trkpt>
      <trkpt lat="42.76994" lon="1.89183">
        <ele>1538</ele>
        <time>2024-06-30T10:35:10Z</time>
      </trkpt>
      <trkpt lat="42.77008" lon="1.89189">
        <ele>1537.2</ele>
        <time>2024-06-30T10:35:12Z</time>
      </trkpt>
      <trkpt lat="42.77027" lon="1.89196">
        <ele>1536.4</ele>
        <time>2024-06-30T10:35:15Z</time>
      </trkpt>
      <trkpt lat="42.77032" lon="1.89197">
        <ele>1535.8</ele>
        <time>2024-06-30T10:35:16Z</time>
      </trkpt>
      <trkpt lat="42.77035" lon="1.89199">
        <ele>1535.4</ele>
        <time>2024-06-30T10:35:17Z</time>
      </trkpt>
      <trkpt lat="42.77039" lon="1.892">
        <ele>1534.8</ele>
        <time>2024-06-30T10:35:18Z</time>
      </trkpt>
      <trkpt lat="42.77041" lon="1.892">
        <ele>1534.6</ele>
        <time>2024-06-30T10:35:19Z</time>
      </trkpt>
      <trkpt lat="42.77044" lon="1.89201">
        <ele>1534.2</ele>
        <time>2024-06-30T10:35:20Z</time>
      </trkpt>
      <trkpt lat="42.77048" lon="1.89201">
        <ele>1534</ele>
        <time>2024-06-30T10:35:21Z</time>
      </trkpt>
      <trkpt lat="42.77061" lon="1.89194">
        <ele>1533.6</ele>
        <time>2024-06-30T10:35:24Z</time>
      </trkpt>
      <trkpt lat="42.77065" lon="1.8919">
        <ele>1533.2</ele>
        <time>2024-06-30T10:35:25Z</time>
      </trkpt>
      <trkpt lat="42.77068" lon="1.89186">
        <ele>1533.2</ele>
        <time>2024-06-30T10:35:26Z</time>
      </trkpt>
      <trkpt lat="42.77072" lon="1.89181">
        <ele>1532.8</ele>
        <time>2024-06-30T10:35:27Z</time>
      </trkpt>
      <trkpt lat="42.77076" lon="1.89176">
        <ele>1532.8</ele>
        <time>2024-06-30T10:35:28Z</time>
      </trkpt>
      <trkpt lat="42.7708" lon="1.8917">
        <ele>1532.6</ele>
        <time>2024-06-30T10:35:29Z</time>
      </trkpt>
      <trkpt lat="42.77083" lon="1.89165">
        <ele>1532.6</ele>
        <time>2024-06-30T10:35:30Z</time>
      </trkpt>
      <trkpt lat="42.77095" lon="1.89149">
        <ele>1532.2</ele>
        <time>2024-06-30T10:35:33Z</time>
      </trkpt>
      <trkpt lat="42.77104" lon="1.89138">
        <ele>1532</ele>
        <time>2024-06-30T10:35:35Z</time>
      </trkpt>
      <trkpt lat="42.7711" lon="1.89134">
        <ele>1531.8</ele>
        <time>2024-06-30T10:35:36Z</time>
      </trkpt>
      <trkpt lat="42.77126" lon="1.89127">
        <ele>1531.8</ele>
        <time>2024-06-30T10:35:39Z</time>
      </trkpt>
      <trkpt lat="42.77132" lon="1.89128">
        <ele>1531.8</ele>
        <time>2024-06-30T10:35:40Z</time>
      </trkpt>
      <trkpt lat="42.77138" lon="1.89129">
        <ele>1531.8</ele>
        <time>2024-06-30T10:35:41Z</time>
      </trkpt>
      <trkpt lat="42.77145" lon="1.8913">
        <ele>1531.8</ele>
        <time>2024-06-30T10:35:42Z</time>
      </trkpt>
      <trkpt lat="42.77151" lon="1.8913">
        <ele>1531.6</ele>
        <time>2024-06-30T10:35:43Z</time>
      </trkpt>
      <trkpt lat="42.77178" lon="1.89129">
        <ele>1531.4</ele>
        <time>2024-06-30T10:35:47Z</time>
      </trkpt>
      <trkpt lat="42.77184" lon="1.89129">
        <ele>1531.2</ele>
        <time>2024-06-30T10:35:48Z</time>
      </trkpt>
      <trkpt lat="42.77191" lon="1.89129">
        <ele>1531.2</ele>
        <time>2024-06-30T10:35:49Z</time>
      </trkpt>
      <trkpt lat="42.77205" lon="1.89131">
        <ele>1531</ele>
        <time>2024-06-30T10:35:51Z</time>
      </trkpt>
      <trkpt lat="42.77219" lon="1.89135">
        <ele>1530.4</ele>
        <time>2024-06-30T10:35:53Z</time>
      </trkpt>
      <trkpt lat="42.77225" lon="1.89137">
        <ele>1530.2</ele>
        <time>2024-06-30T10:35:54Z</time>
      </trkpt>
      <trkpt lat="42.77246" lon="1.89146">
        <ele>1529.2</ele>
        <time>2024-06-30T10:35:57Z</time>
      </trkpt>
      <trkpt lat="42.77267" lon="1.89162">
        <ele>1528.6</ele>
        <time>2024-06-30T10:36:00Z</time>
      </trkpt>
      <trkpt lat="42.77272" lon="1.89166">
        <ele>1528.2</ele>
        <time>2024-06-30T10:36:01Z</time>
      </trkpt>
      <trkpt lat="42.77278" lon="1.89172">
        <ele>1527.8</ele>
        <time>2024-06-30T10:36:02Z</time>
      </trkpt>
      <trkpt lat="42.77299" lon="1.89201">
        <ele>1526.4</ele>
        <time>2024-06-30T10:36:06Z</time>
      </trkpt>
      <trkpt lat="42.77302" lon="1.89211">
        <ele>1526.2</ele>
        <time>2024-06-30T10:36:07Z</time>
      </trkpt>
      <trkpt lat="42.77306" lon="1.89222">
        <ele>1526</ele>
        <time>2024-06-30T10:36:08Z</time>
      </trkpt>
      <trkpt lat="42.77311" lon="1.89233">
        <ele>1526</ele>
        <time>2024-06-30T10:36:09Z</time>
      </trkpt>
      <trkpt lat="42.77324" lon="1.89252">
        <ele>1525.2</ele>
        <time>2024-06-30T10:36:11Z</time>
      </trkpt>
      <trkpt lat="42.77331" lon="1.89259">
        <ele>1525</ele>
        <time>2024-06-30T10:36:12Z</time>
      </trkpt>
      <trkpt lat="42.77339" lon="1.89263">
        <ele>1524.4</ele>
        <time>2024-06-30T10:36:13Z</time>
      </trkpt>
      <trkpt lat="42.77347" lon="1.89265">
        <ele>1524.2</ele>
        <time>2024-06-30T10:36:14Z</time>
      </trkpt>
      <trkpt lat="42.77356" lon="1.89267">
        <ele>1523.6</ele>
        <time>2024-06-30T10:36:15Z</time>
      </trkpt>
      <trkpt lat="42.77365" lon="1.89268">
        <ele>1523.2</ele>
        <time>2024-06-30T10:36:16Z</time>
      </trkpt>
      <trkpt lat="42.77373" lon="1.89268">
        <ele>1522.2</ele>
        <time>2024-06-30T10:36:17Z</time>
      </trkpt>
      <trkpt lat="42.77381" lon="1.89266">
        <ele>1521</ele>
        <time>2024-06-30T10:36:18Z</time>
      </trkpt>
      <trkpt lat="42.77389" lon="1.89262">
        <ele>1520.6</ele>
        <time>2024-06-30T10:36:19Z</time>
      </trkpt>
      <trkpt lat="42.77397" lon="1.89259">
        <ele>1520</ele>
        <time>2024-06-30T10:36:20Z</time>
      </trkpt>
      <trkpt lat="42.77406" lon="1.89258">
        <ele>1519.6</ele>
        <time>2024-06-30T10:36:21Z</time>
      </trkpt>
      <trkpt lat="42.77406" lon="1.89258">
        <ele>1518.8</ele>
        <time>2024-06-30T10:36:22Z</time>
      </trkpt>
      <trkpt lat="42.77422" lon="1.8926">
        <ele>1518.6</ele>
        <time>2024-06-30T10:36:23Z</time>
      </trkpt>
      <trkpt lat="42.77429" lon="1.89262">
        <ele>1518</ele>
        <time>2024-06-30T10:36:24Z</time>
      </trkpt>
      <trkpt lat="42.77435" lon="1.89264">
        <ele>1518</ele>
        <time>2024-06-30T10:36:25Z</time>
      </trkpt>
      <trkpt lat="42.77441" lon="1.89266">
        <ele>1517.8</ele>
        <time>2024-06-30T10:36:26Z</time>
      </trkpt>
      <trkpt lat="42.77447" lon="1.89267">
        <ele>1517.8</ele>
        <time>2024-06-30T10:36:27Z</time>
      </trkpt>
      <trkpt lat="42.77452" lon="1.89269">
        <ele>1517.8</ele>
        <time>2024-06-30T10:36:28Z</time>
      </trkpt>
      <trkpt lat="42.77457" lon="1.89271">
        <ele>1517.8</ele>
        <time>2024-06-30T10:36:29Z</time>
      </trkpt>
      <trkpt lat="42.77462" lon="1.89272">
        <ele>1517.8</ele>
        <time>2024-06-30T10:36:30Z</time>
      </trkpt>
      <trkpt lat="42.77466" lon="1.89272">
        <ele>1517.8</ele>
        <time>2024-06-30T10:36:31Z</time>
      </trkpt>
      <trkpt lat="42.7747" lon="1.89273">
        <ele>1517.8</ele>
        <time>2024-06-30T10:36:32Z</time>
      </trkpt>
      <trkpt lat="42.77474" lon="1.89273">
        <ele>1518</ele>
        <time>2024-06-30T10:36:33Z</time>
      </trkpt>
      <trkpt lat="42.77478" lon="1.89273">
        <ele>1518</ele>
        <time>2024-06-30T10:36:34Z</time>
      </trkpt>
      <trkpt lat="42.77483" lon="1.89272">
        <ele>1518.2</ele>
        <time>2024-06-30T10:36:35Z</time>
      </trkpt>
      <trkpt lat="42.77486" lon="1.89272">
        <ele>1518.2</ele>
        <time>2024-06-30T10:36:36Z</time>
      </trkpt>
      <trkpt lat="42.7749" lon="1.89272">
        <ele>1518.2</ele>
        <time>2024-06-30T10:36:37Z</time>
      </trkpt>
      <trkpt lat="42.77496" lon="1.89273">
        <ele>1518.4</ele>
        <time>2024-06-30T10:36:38Z</time>
      </trkpt>
      <trkpt lat="42.77507" lon="1.89279">
        <ele>1518.4</ele>
        <time>2024-06-30T10:36:40Z</time>
      </trkpt>
      <trkpt lat="42.77514" lon="1.89285">
        <ele>1518.4</ele>
        <time>2024-06-30T10:36:41Z</time>
      </trkpt>
      <trkpt lat="42.77521" lon="1.89292">
        <ele>1518.6</ele>
        <time>2024-06-30T10:36:42Z</time>
      </trkpt>
      <trkpt lat="42.77527" lon="1.89298">
        <ele>1518.6</ele>
        <time>2024-06-30T10:36:43Z</time>
      </trkpt>
      <trkpt lat="42.77532" lon="1.89303">
        <ele>1518.6</ele>
        <time>2024-06-30T10:36:44Z</time>
      </trkpt>
      <trkpt lat="42.77538" lon="1.89307">
        <ele>1518.6</ele>
        <time>2024-06-30T10:36:45Z</time>
      </trkpt>
      <trkpt lat="42.77544" lon="1.89307">
        <ele>1518.4</ele>
        <time>2024-06-30T10:36:46Z</time>
      </trkpt>
      <trkpt lat="42.77549" lon="1.89304">
        <ele>1518</ele>
        <time>2024-06-30T10:36:47Z</time>
      </trkpt>
      <trkpt lat="42.77553" lon="1.89299">
        <ele>1517.8</ele>
        <time>2024-06-30T10:36:48Z</time>
      </trkpt>
      <trkpt lat="42.77555" lon="1.89292">
        <ele>1517.4</ele>
        <time>2024-06-30T10:36:49Z</time>
      </trkpt>
      <trkpt lat="42.77555" lon="1.89283">
        <ele>1517.2</ele>
        <time>2024-06-30T10:36:50Z</time>
      </trkpt>
      <trkpt lat="42.77554" lon="1.89265">
        <ele>1516.4</ele>
        <time>2024-06-30T10:36:52Z</time>
      </trkpt>
      <trkpt lat="42.77552" lon="1.89256">
        <ele>1516.2</ele>
        <time>2024-06-30T10:36:53Z</time>
      </trkpt>
      <trkpt lat="42.77551" lon="1.89246">
        <ele>1515.6</ele>
        <time>2024-06-30T10:36:54Z</time>
      </trkpt>
      <trkpt lat="42.77551" lon="1.89237">
        <ele>1515.4</ele>
        <time>2024-06-30T10:36:55Z</time>
      </trkpt>
      <trkpt lat="42.77551" lon="1.89228">
        <ele>1515</ele>
        <time>2024-06-30T10:36:56Z</time>
      </trkpt>
      <trkpt lat="42.7755" lon="1.89219">
        <ele>1514.8</ele>
        <time>2024-06-30T10:36:57Z</time>
      </trkpt>
      <trkpt lat="42.77549" lon="1.89213">
        <ele>1514.4</ele>
        <time>2024-06-30T10:36:58Z</time>
      </trkpt>
      <trkpt lat="42.7755" lon="1.89209">
        <ele>1513.8</ele>
        <time>2024-06-30T10:36:59Z</time>
      </trkpt>
      <trkpt lat="42.77549" lon="1.89206">
        <ele>1513.4</ele>
        <time>2024-06-30T10:37:00Z</time>
      </trkpt>
      <trkpt lat="42.77548" lon="1.89202">
        <ele>1512.4</ele>
        <time>2024-06-30T10:37:01Z</time>
      </trkpt>
      <trkpt lat="42.77546" lon="1.89199">
        <ele>1511.8</ele>
        <time>2024-06-30T10:37:02Z</time>
      </trkpt>
      <trkpt lat="42.77545" lon="1.89197">
        <ele>1511.2</ele>
        <time>2024-06-30T10:37:03Z</time>
      </trkpt>
      <trkpt lat="42.77542" lon="1.89195">
        <ele>1511</ele>
        <time>2024-06-30T10:37:04Z</time>
      </trkpt>
      <trkpt lat="42.77541" lon="1.89193">
        <ele>1510.6</ele>
        <time>2024-06-30T10:37:05Z</time>
      </trkpt>
      <trkpt lat="42.77541" lon="1.89191">
        <ele>1510.6</ele>
        <time>2024-06-30T10:37:06Z</time>
      </trkpt>
      <trkpt lat="42.77539" lon="1.89189">
        <ele>1510.6</ele>
        <time>2024-06-30T10:37:07Z</time>
      </trkpt>
      <trkpt lat="42.77534" lon="1.89184">
        <ele>1510.8</ele>
        <time>2024-06-30T10:37:11Z</time>
      </trkpt>
      <trkpt lat="42.77532" lon="1.89181">
        <ele>1510.8</ele>
        <time>2024-06-30T10:37:12Z</time>
      </trkpt>
      <trkpt lat="42.7753" lon="1.8918">
        <ele>1511.2</ele>
        <time>2024-06-30T10:37:13Z</time>
      </trkpt>
      <trkpt lat="42.77527" lon="1.89179">
        <ele>1512</ele>
        <time>2024-06-30T10:37:14Z</time>
      </trkpt>
      <trkpt lat="42.77525" lon="1.89177">
        <ele>1512.6</ele>
        <time>2024-06-30T10:37:15Z</time>
      </trkpt>
      <trkpt lat="42.77523" lon="1.89176">
        <ele>1513</ele>
        <time>2024-06-30T10:37:16Z</time>
      </trkpt>
      <trkpt lat="42.77521" lon="1.89174">
        <ele>1513.8</ele>
        <time>2024-06-30T10:37:17Z</time>
      </trkpt>
      <trkpt lat="42.77521" lon="1.89174">
        <ele>1514.2</ele>
        <time>2024-06-30T10:37:18Z</time>
      </trkpt>
      <trkpt lat="42.7752" lon="1.89174">
        <ele>1515</ele>
        <time>2024-06-30T10:37:19Z</time>
      </trkpt>
      <trkpt lat="42.77518" lon="1.89173">
        <ele>1515.6</ele>
        <time>2024-06-30T10:37:20Z</time>
      </trkpt>
      <trkpt lat="42.77517" lon="1.89172">
        <ele>1516.4</ele>
        <time>2024-06-30T10:37:21Z</time>
      </trkpt>
      <trkpt lat="42.77517" lon="1.89173">
        <ele>1516.8</ele>
        <time>2024-06-30T10:37:22Z</time>
      </trkpt>
      <trkpt lat="42.77517" lon="1.89174">
        <ele>1517.6</ele>
        <time>2024-06-30T10:37:23Z</time>
      </trkpt>
      <trkpt lat="42.77515" lon="1.89173">
        <ele>1518.6</ele>
        <time>2024-06-30T10:37:25Z</time>
      </trkpt>
      <trkpt lat="42.77514" lon="1.89172">
        <ele>1519</ele>
        <time>2024-06-30T10:37:26Z</time>
      </trkpt>
      <trkpt lat="42.77512" lon="1.89171">
        <ele>1519.4</ele>
        <time>2024-06-30T10:37:27Z</time>
      </trkpt>
      <trkpt lat="42.77511" lon="1.89171">
        <ele>1520</ele>
        <time>2024-06-30T10:37:28Z</time>
      </trkpt>
      <trkpt lat="42.77507" lon="1.89169">
        <ele>1520.4</ele>
        <time>2024-06-30T10:37:29Z</time>
      </trkpt>
      <trkpt lat="42.77506" lon="1.89169">
        <ele>1521</ele>
        <time>2024-06-30T10:37:30Z</time>
      </trkpt>
      <trkpt lat="42.77505" lon="1.89169">
        <ele>1521.2</ele>
        <time>2024-06-30T10:37:31Z</time>
      </trkpt>
      <trkpt lat="42.77503" lon="1.89169">
        <ele>1521.8</ele>
        <time>2024-06-30T10:37:32Z</time>
      </trkpt>
      <trkpt lat="42.77501" lon="1.89169">
        <ele>1522.6</ele>
        <time>2024-06-30T10:37:33Z</time>
      </trkpt>
      <trkpt lat="42.77499" lon="1.89169">
        <ele>1522.8</ele>
        <time>2024-06-30T10:37:34Z</time>
      </trkpt>
      <trkpt lat="42.77498" lon="1.89169">
        <ele>1523.6</ele>
        <time>2024-06-30T10:37:35Z</time>
      </trkpt>
      <trkpt lat="42.77497" lon="1.8917">
        <ele>1524</ele>
        <time>2024-06-30T10:37:36Z</time>
      </trkpt>
      <trkpt lat="42.77495" lon="1.8917">
        <ele>1524.6</ele>
        <time>2024-06-30T10:37:37Z</time>
      </trkpt>
      <trkpt lat="42.77494" lon="1.8917">
        <ele>1524.8</ele>
        <time>2024-06-30T10:37:38Z</time>
      </trkpt>
      <trkpt lat="42.77492" lon="1.8917">
        <ele>1525.2</ele>
        <time>2024-06-30T10:37:39Z</time>
      </trkpt>
      <trkpt lat="42.77491" lon="1.89171">
        <ele>1526.4</ele>
        <time>2024-06-30T10:37:40Z</time>
      </trkpt>
      <trkpt lat="42.7749" lon="1.89171">
        <ele>1527</ele>
        <time>2024-06-30T10:37:41Z</time>
      </trkpt>
      <trkpt lat="42.77489" lon="1.89172">
        <ele>1527.6</ele>
        <time>2024-06-30T10:37:42Z</time>
      </trkpt>
      <trkpt lat="42.77486" lon="1.89172">
        <ele>1528</ele>
        <time>2024-06-30T10:37:43Z</time>
      </trkpt>
      <trkpt lat="42.77484" lon="1.89173">
        <ele>1528.6</ele>
        <time>2024-06-30T10:37:44Z</time>
      </trkpt>
      <trkpt lat="42.77482" lon="1.89174">
        <ele>1529</ele>
        <time>2024-06-30T10:37:45Z</time>
      </trkpt>
      <trkpt lat="42.7748" lon="1.89175">
        <ele>1529.8</ele>
        <time>2024-06-30T10:37:46Z</time>
      </trkpt>
      <trkpt lat="42.77479" lon="1.89176">
        <ele>1530.2</ele>
        <time>2024-06-30T10:37:47Z</time>
      </trkpt>
      <trkpt lat="42.77477" lon="1.89176">
        <ele>1530.8</ele>
        <time>2024-06-30T10:37:48Z</time>
      </trkpt>
      <trkpt lat="42.77475" lon="1.89177">
        <ele>1531.2</ele>
        <time>2024-06-30T10:37:49Z</time>
      </trkpt>
      <trkpt lat="42.77473" lon="1.89178">
        <ele>1531.6</ele>
        <time>2024-06-30T10:37:50Z</time>
      </trkpt>
      <trkpt lat="42.7747" lon="1.89178">
        <ele>1532.2</ele>
        <time>2024-06-30T10:37:51Z</time>
      </trkpt>
      <trkpt lat="42.77467" lon="1.89178">
        <ele>1532.4</ele>
        <time>2024-06-30T10:37:52Z</time>
      </trkpt>
      <trkpt lat="42.77465" lon="1.89177">
        <ele>1532.8</ele>
        <time>2024-06-30T10:37:53Z</time>
      </trkpt>
      <trkpt lat="42.77462" lon="1.89177">
        <ele>1533.2</ele>
        <time>2024-06-30T10:37:54Z</time>
      </trkpt>
      <trkpt lat="42.77459" lon="1.89176">
        <ele>1533.6</ele>
        <time>2024-06-30T10:37:55Z</time>
      </trkpt>
      <trkpt lat="42.77457" lon="1.89174">
        <ele>1534.2</ele>
        <time>2024-06-30T10:37:56Z</time>
      </trkpt>
      <trkpt lat="42.77455" lon="1.89173">
        <ele>1534.4</ele>
        <time>2024-06-30T10:37:57Z</time>
      </trkpt>
      <trkpt lat="42.77454" lon="1.89172">
        <ele>1534.6</ele>
        <time>2024-06-30T10:37:58Z</time>
      </trkpt>
      <trkpt lat="42.77452" lon="1.8917">
        <ele>1534.8</ele>
        <time>2024-06-30T10:37:59Z</time>
      </trkpt>
      <trkpt lat="42.77449" lon="1.89168">
        <ele>1535</ele>
        <time>2024-06-30T10:38:00Z</time>
      </trkpt>
      <trkpt lat="42.77447" lon="1.89164">
        <ele>1535.2</ele>
        <time>2024-06-30T10:38:01Z</time>
      </trkpt>
      <trkpt lat="42.77445" lon="1.89162">
        <ele>1535.6</ele>
        <time>2024-06-30T10:38:02Z</time>
      </trkpt>
      <trkpt lat="42.77445" lon="1.89162">
        <ele>1535.6</ele>
        <time>2024-06-30T10:38:03Z</time>
      </trkpt>
      <trkpt lat="42.77443" lon="1.89161">
        <ele>1536.2</ele>
        <time>2024-06-30T10:38:04Z</time>
      </trkpt>
      <trkpt lat="42.77441" lon="1.89159">
        <ele>1536.6</ele>
        <time>2024-06-30T10:38:05Z</time>
      </trkpt>
      <trkpt lat="42.77439" lon="1.89158">
        <ele>1536.8</ele>
        <time>2024-06-30T10:38:06Z</time>
      </trkpt>
      <trkpt lat="42.77438" lon="1.89156">
        <ele>1537.2</ele>
        <time>2024-06-30T10:38:07Z</time>
      </trkpt>
      <trkpt lat="42.77436" lon="1.89152">
        <ele>1537.4</ele>
        <time>2024-06-30T10:38:08Z</time>
      </trkpt>
      <trkpt lat="42.77435" lon="1.8915">
        <ele>1538</ele>
        <time>2024-06-30T10:38:09Z</time>
      </trkpt>
      <trkpt lat="42.77433" lon="1.89147">
        <ele>1538.2</ele>
        <time>2024-06-30T10:38:10Z</time>
      </trkpt>
      <trkpt lat="42.77431" lon="1.89145">
        <ele>1538.6</ele>
        <time>2024-06-30T10:38:11Z</time>
      </trkpt>
      <trkpt lat="42.77429" lon="1.89144">
        <ele>1538.8</ele>
        <time>2024-06-30T10:38:12Z</time>
      </trkpt>
      <trkpt lat="42.77427" lon="1.89142">
        <ele>1539</ele>
        <time>2024-06-30T10:38:13Z</time>
      </trkpt>
      <trkpt lat="42.77422" lon="1.89137">
        <ele>1539.4</ele>
        <time>2024-06-30T10:38:14Z</time>
      </trkpt>
      <trkpt lat="42.77418" lon="1.89134">
        <ele>1539.6</ele>
        <time>2024-06-30T10:38:15Z</time>
      </trkpt>
      <trkpt lat="42.77415" lon="1.89132">
        <ele>1539.8</ele>
        <time>2024-06-30T10:38:16Z</time>
      </trkpt>
      <trkpt lat="42.77413" lon="1.89131">
        <ele>1540</ele>
        <time>2024-06-30T10:38:17Z</time>
      </trkpt>
      <trkpt lat="42.77411" lon="1.8913">
        <ele>1540.2</ele>
        <time>2024-06-30T10:38:18Z</time>
      </trkpt>
      <trkpt lat="42.7741" lon="1.89129">
        <ele>1540.4</ele>
        <time>2024-06-30T10:38:19Z</time>
      </trkpt>
      <trkpt lat="42.77409" lon="1.89127">
        <ele>1540.4</ele>
        <time>2024-06-30T10:38:20Z</time>
      </trkpt>
      <trkpt lat="42.77409" lon="1.89127">
        <ele>1540.6</ele>
        <time>2024-06-30T10:38:21Z</time>
      </trkpt>
      <trkpt lat="42.77408" lon="1.89125">
        <ele>1540.6</ele>
        <time>2024-06-30T10:38:22Z</time>
      </trkpt>
      <trkpt lat="42.77408" lon="1.89125">
        <ele>1540.6</ele>
        <time>2024-06-30T10:38:23Z</time>
      </trkpt>
      <trkpt lat="42.77408" lon="1.89125">
        <ele>1540.8</ele>
        <time>2024-06-30T10:38:24Z</time>
      </trkpt>
      <trkpt lat="42.77406" lon="1.89121">
        <ele>1541.2</ele>
        <time>2024-06-30T10:38:25Z</time>
      </trkpt>
      <trkpt lat="42.77403" lon="1.89116">
        <ele>1541.4</ele>
        <time>2024-06-30T10:38:26Z</time>
      </trkpt>
      <trkpt lat="42.77401" lon="1.89111">
        <ele>1541.6</ele>
        <time>2024-06-30T10:38:27Z</time>
      </trkpt>
      <trkpt lat="42.77399" lon="1.89108">
        <ele>1541.8</ele>
        <time>2024-06-30T10:38:28Z</time>
      </trkpt>
      <trkpt lat="42.77397" lon="1.89106">
        <ele>1542.2</ele>
        <time>2024-06-30T10:38:29Z</time>
      </trkpt>
      <trkpt lat="42.77395" lon="1.89105">
        <ele>1542.8</ele>
        <time>2024-06-30T10:38:30Z</time>
      </trkpt>
      <trkpt lat="42.77393" lon="1.89103">
        <ele>1543</ele>
        <time>2024-06-30T10:38:31Z</time>
      </trkpt>
      <trkpt lat="42.77392" lon="1.89102">
        <ele>1543.6</ele>
        <time>2024-06-30T10:38:32Z</time>
      </trkpt>
      <trkpt lat="42.77389" lon="1.89099">
        <ele>1543.8</ele>
        <time>2024-06-30T10:38:33Z</time>
      </trkpt>
      <trkpt lat="42.77387" lon="1.89098">
        <ele>1544.2</ele>
        <time>2024-06-30T10:38:34Z</time>
      </trkpt>
      <trkpt lat="42.77383" lon="1.89096">
        <ele>1544.4</ele>
        <time>2024-06-30T10:38:35Z</time>
      </trkpt>
      <trkpt lat="42.77379" lon="1.89092">
        <ele>1544.4</ele>
        <time>2024-06-30T10:38:36Z</time>
      </trkpt>
      <trkpt lat="42.77376" lon="1.8909">
        <ele>1544.8</ele>
        <time>2024-06-30T10:38:37Z</time>
      </trkpt>
      <trkpt lat="42.77373" lon="1.89089">
        <ele>1545</ele>
        <time>2024-06-30T10:38:38Z</time>
      </trkpt>
      <trkpt lat="42.77371" lon="1.89086">
        <ele>1545.4</ele>
        <time>2024-06-30T10:38:39Z</time>
      </trkpt>
      <trkpt lat="42.77368" lon="1.89084">
        <ele>1545.4</ele>
        <time>2024-06-30T10:38:40Z</time>
      </trkpt>
      <trkpt lat="42.77365" lon="1.89082">
        <ele>1545.8</ele>
        <time>2024-06-30T10:38:41Z</time>
      </trkpt>
      <trkpt lat="42.77365" lon="1.8908">
        <ele>1545.8</ele>
        <time>2024-06-30T10:38:42Z</time>
      </trkpt>
      <trkpt lat="42.77362" lon="1.89077">
        <ele>1546.4</ele>
        <time>2024-06-30T10:38:43Z</time>
      </trkpt>
      <trkpt lat="42.7736" lon="1.89075">
        <ele>1546.6</ele>
        <time>2024-06-30T10:38:44Z</time>
      </trkpt>
      <trkpt lat="42.77357" lon="1.89074">
        <ele>1547</ele>
        <time>2024-06-30T10:38:45Z</time>
      </trkpt>
      <trkpt lat="42.77356" lon="1.89072">
        <ele>1547.4</ele>
        <time>2024-06-30T10:38:46Z</time>
      </trkpt>
      <trkpt lat="42.77354" lon="1.8907">
        <ele>1547.6</ele>
        <time>2024-06-30T10:38:47Z</time>
      </trkpt>
      <trkpt lat="42.77352" lon="1.8907">
        <ele>1548.2</ele>
        <time>2024-06-30T10:38:48Z</time>
      </trkpt>
      <trkpt lat="42.77351" lon="1.89067">
        <ele>1548.8</ele>
        <time>2024-06-30T10:38:49Z</time>
      </trkpt>
      <trkpt lat="42.77349" lon="1.89065">
        <ele>1549.6</ele>
        <time>2024-06-30T10:38:50Z</time>
      </trkpt>
      <trkpt lat="42.77348" lon="1.89063">
        <ele>1549.8</ele>
        <time>2024-06-30T10:38:51Z</time>
      </trkpt>
      <trkpt lat="42.77346" lon="1.89062">
        <ele>1550.2</ele>
        <time>2024-06-30T10:38:52Z</time>
      </trkpt>
      <trkpt lat="42.77345" lon="1.8906">
        <ele>1551</ele>
        <time>2024-06-30T10:38:53Z</time>
      </trkpt>
      <trkpt lat="42.77344" lon="1.89059">
        <ele>1551.6</ele>
        <time>2024-06-30T10:38:54Z</time>
      </trkpt>
      <trkpt lat="42.77342" lon="1.89057">
        <ele>1552.6</ele>
        <time>2024-06-30T10:38:55Z</time>
      </trkpt>
      <trkpt lat="42.77341" lon="1.89056">
        <ele>1553</ele>
        <time>2024-06-30T10:38:56Z</time>
      </trkpt>
      <trkpt lat="42.7734" lon="1.89053">
        <ele>1553.6</ele>
        <time>2024-06-30T10:38:57Z</time>
      </trkpt>
      <trkpt lat="42.77338" lon="1.89051">
        <ele>1554</ele>
        <time>2024-06-30T10:38:58Z</time>
      </trkpt>
      <trkpt lat="42.77336" lon="1.89049">
        <ele>1554.6</ele>
        <time>2024-06-30T10:38:59Z</time>
      </trkpt>
      <trkpt lat="42.77335" lon="1.89047">
        <ele>1555</ele>
        <time>2024-06-30T10:39:00Z</time>
      </trkpt>
      <trkpt lat="42.77334" lon="1.89045">
        <ele>1555.8</ele>
        <time>2024-06-30T10:39:01Z</time>
      </trkpt>
      <trkpt lat="42.77334" lon="1.89044">
        <ele>1556.4</ele>
        <time>2024-06-30T10:39:02Z</time>
      </trkpt>
      <trkpt lat="42.77332" lon="1.89042">
        <ele>1556.6</ele>
        <time>2024-06-30T10:39:03Z</time>
      </trkpt>
      <trkpt lat="42.77331" lon="1.8904">
        <ele>1557</ele>
        <time>2024-06-30T10:39:04Z</time>
      </trkpt>
      <trkpt lat="42.77329" lon="1.89039">
        <ele>1557</ele>
        <time>2024-06-30T10:39:05Z</time>
      </trkpt>
      <trkpt lat="42.77327" lon="1.89037">
        <ele>1557.6</ele>
        <time>2024-06-30T10:39:06Z</time>
      </trkpt>
      <trkpt lat="42.77325" lon="1.89035">
        <ele>1558.2</ele>
        <time>2024-06-30T10:39:07Z</time>
      </trkpt>
      <trkpt lat="42.77324" lon="1.89034">
        <ele>1559</ele>
        <time>2024-06-30T10:39:08Z</time>
      </trkpt>
      <trkpt lat="42.77323" lon="1.89033">
        <ele>1559.2</ele>
        <time>2024-06-30T10:39:09Z</time>
      </trkpt>
      <trkpt lat="42.77321" lon="1.89031">
        <ele>1559.8</ele>
        <time>2024-06-30T10:39:10Z</time>
      </trkpt>
      <trkpt lat="42.77318" lon="1.89029">
        <ele>1560.8</ele>
        <time>2024-06-30T10:39:11Z</time>
      </trkpt>
      <trkpt lat="42.77315" lon="1.89027">
        <ele>1561.2</ele>
        <time>2024-06-30T10:39:12Z</time>
      </trkpt>
      <trkpt lat="42.77312" lon="1.89026">
        <ele>1561.8</ele>
        <time>2024-06-30T10:39:13Z</time>
      </trkpt>
      <trkpt lat="42.77309" lon="1.89024">
        <ele>1562</ele>
        <time>2024-06-30T10:39:14Z</time>
      </trkpt>
      <trkpt lat="42.77306" lon="1.89022">
        <ele>1562.6</ele>
        <time>2024-06-30T10:39:15Z</time>
      </trkpt>
      <trkpt lat="42.77304" lon="1.89021">
        <ele>1563.2</ele>
        <time>2024-06-30T10:39:16Z</time>
      </trkpt>
      <trkpt lat="42.77301" lon="1.8902">
        <ele>1563.8</ele>
        <time>2024-06-30T10:39:17Z</time>
      </trkpt>
      <trkpt lat="42.77298" lon="1.89018">
        <ele>1564.6</ele>
        <time>2024-06-30T10:39:18Z</time>
      </trkpt>
      <trkpt lat="42.77295" lon="1.89016">
        <ele>1565</ele>
        <time>2024-06-30T10:39:19Z</time>
      </trkpt>
      <trkpt lat="42.77294" lon="1.89015">
        <ele>1565.6</ele>
        <time>2024-06-30T10:39:20Z</time>
      </trkpt>
      <trkpt lat="42.77292" lon="1.89012">
        <ele>1566.2</ele>
        <time>2024-06-30T10:39:21Z</time>
      </trkpt>
      <trkpt lat="42.7729" lon="1.89011">
        <ele>1566.8</ele>
        <time>2024-06-30T10:39:22Z</time>
      </trkpt>
      <trkpt lat="42.77288" lon="1.8901">
        <ele>1567.2</ele>
        <time>2024-06-30T10:39:23Z</time>
      </trkpt>
      <trkpt lat="42.77287" lon="1.89009">
        <ele>1567.6</ele>
        <time>2024-06-30T10:39:24Z</time>
      </trkpt>
      <trkpt lat="42.77285" lon="1.89008">
        <ele>1567.8</ele>
        <time>2024-06-30T10:39:25Z</time>
      </trkpt>
      <trkpt lat="42.77282" lon="1.89008">
        <ele>1568.4</ele>
        <time>2024-06-30T10:39:26Z</time>
      </trkpt>
      <trkpt lat="42.7728" lon="1.89008">
        <ele>1568.6</ele>
        <time>2024-06-30T10:39:27Z</time>
      </trkpt>
      <trkpt lat="42.77277" lon="1.89007">
        <ele>1569</ele>
        <time>2024-06-30T10:39:28Z</time>
      </trkpt>
      <trkpt lat="42.77275" lon="1.89007">
        <ele>1569.4</ele>
        <time>2024-06-30T10:39:29Z</time>
      </trkpt>
      <trkpt lat="42.77272" lon="1.89007">
        <ele>1569.8</ele>
        <time>2024-06-30T10:39:30Z</time>
      </trkpt>
      <trkpt lat="42.7727" lon="1.89006">
        <ele>1570.4</ele>
        <time>2024-06-30T10:39:31Z</time>
      </trkpt>
      <trkpt lat="42.77268" lon="1.89005">
        <ele>1570.8</ele>
        <time>2024-06-30T10:39:32Z</time>
      </trkpt>
      <trkpt lat="42.77265" lon="1.89005">
        <ele>1571.2</ele>
        <time>2024-06-30T10:39:33Z</time>
      </trkpt>
      <trkpt lat="42.77263" lon="1.89004">
        <ele>1572</ele>
        <time>2024-06-30T10:39:34Z</time>
      </trkpt>
      <trkpt lat="42.77261" lon="1.89004">
        <ele>1572.4</ele>
        <time>2024-06-30T10:39:35Z</time>
      </trkpt>
      <trkpt lat="42.77259" lon="1.89004">
        <ele>1572.8</ele>
        <time>2024-06-30T10:39:36Z</time>
      </trkpt>
      <trkpt lat="42.77257" lon="1.89004">
        <ele>1573</ele>
        <time>2024-06-30T10:39:37Z</time>
      </trkpt>
      <trkpt lat="42.77255" lon="1.89004">
        <ele>1574</ele>
        <time>2024-06-30T10:39:38Z</time>
      </trkpt>
      <trkpt lat="42.77253" lon="1.89004">
        <ele>1574.4</ele>
        <time>2024-06-30T10:39:39Z</time>
      </trkpt>
      <trkpt lat="42.77251" lon="1.89005">
        <ele>1575</ele>
        <time>2024-06-30T10:39:40Z</time>
      </trkpt>
      <trkpt lat="42.7725" lon="1.89005">
        <ele>1575</ele>
        <time>2024-06-30T10:39:41Z</time>
      </trkpt>
      <trkpt lat="42.77248" lon="1.89006">
        <ele>1575.4</ele>
        <time>2024-06-30T10:39:42Z</time>
      </trkpt>
      <trkpt lat="42.77247" lon="1.89006">
        <ele>1576</ele>
        <time>2024-06-30T10:39:43Z</time>
      </trkpt>
      <trkpt lat="42.77245" lon="1.89007">
        <ele>1576.4</ele>
        <time>2024-06-30T10:39:44Z</time>
      </trkpt>
      <trkpt lat="42.77243" lon="1.89008">
        <ele>1577</ele>
        <time>2024-06-30T10:39:45Z</time>
      </trkpt>
      <trkpt lat="42.77241" lon="1.89008">
        <ele>1577.2</ele>
        <time>2024-06-30T10:39:46Z</time>
      </trkpt>
      <trkpt lat="42.7724" lon="1.89007">
        <ele>1577.8</ele>
        <time>2024-06-30T10:39:47Z</time>
      </trkpt>
      <trkpt lat="42.77237" lon="1.89007">
        <ele>1578</ele>
        <time>2024-06-30T10:39:48Z</time>
      </trkpt>
      <trkpt lat="42.77234" lon="1.89006">
        <ele>1578.4</ele>
        <time>2024-06-30T10:39:49Z</time>
      </trkpt>
      <trkpt lat="42.77232" lon="1.89006">
        <ele>1578.6</ele>
        <time>2024-06-30T10:39:50Z</time>
      </trkpt>
      <trkpt lat="42.7723" lon="1.89005">
        <ele>1579.2</ele>
        <time>2024-06-30T10:39:51Z</time>
      </trkpt>
      <trkpt lat="42.77227" lon="1.89004">
        <ele>1579.8</ele>
        <time>2024-06-30T10:39:52Z</time>
      </trkpt>
      <trkpt lat="42.77225" lon="1.89002">
        <ele>1580.2</ele>
        <time>2024-06-30T10:39:53Z</time>
      </trkpt>
      <trkpt lat="42.77222" lon="1.89001">
        <ele>1580.8</ele>
        <time>2024-06-30T10:39:54Z</time>
      </trkpt>
      <trkpt lat="42.7722" lon="1.89">
        <ele>1581</ele>
        <time>2024-06-30T10:39:55Z</time>
      </trkpt>
      <trkpt lat="42.77218" lon="1.89">
        <ele>1581.8</ele>
        <time>2024-06-30T10:39:56Z</time>
      </trkpt>
      <trkpt lat="42.77216" lon="1.88999">
        <ele>1582</ele>
        <time>2024-06-30T10:39:57Z</time>
      </trkpt>
      <trkpt lat="42.77213" lon="1.88997">
        <ele>1582.8</ele>
        <time>2024-06-30T10:39:58Z</time>
      </trkpt>
      <trkpt lat="42.7721" lon="1.88996">
        <ele>1583.2</ele>
        <time>2024-06-30T10:39:59Z</time>
      </trkpt>
      <trkpt lat="42.77208" lon="1.88994">
        <ele>1583.4</ele>
        <time>2024-06-30T10:40:00Z</time>
      </trkpt>
      <trkpt lat="42.77206" lon="1.88993">
        <ele>1584</ele>
        <time>2024-06-30T10:40:01Z</time>
      </trkpt>
      <trkpt lat="42.77204" lon="1.88991">
        <ele>1584</ele>
        <time>2024-06-30T10:40:02Z</time>
      </trkpt>
      <trkpt lat="42.77202" lon="1.88988">
        <ele>1584.2</ele>
        <time>2024-06-30T10:40:03Z</time>
      </trkpt>
      <trkpt lat="42.77199" lon="1.88984">
        <ele>1584.6</ele>
        <time>2024-06-30T10:40:04Z</time>
      </trkpt>
      <trkpt lat="42.77197" lon="1.88981">
        <ele>1584.8</ele>
        <time>2024-06-30T10:40:05Z</time>
      </trkpt>
      <trkpt lat="42.77196" lon="1.88979">
        <ele>1584.8</ele>
        <time>2024-06-30T10:40:06Z</time>
      </trkpt>
      <trkpt lat="42.77193" lon="1.88976">
        <ele>1585.2</ele>
        <time>2024-06-30T10:40:07Z</time>
      </trkpt>
      <trkpt lat="42.7719" lon="1.88974">
        <ele>1585.4</ele>
        <time>2024-06-30T10:40:08Z</time>
      </trkpt>
      <trkpt lat="42.77188" lon="1.88971">
        <ele>1585.4</ele>
        <time>2024-06-30T10:40:09Z</time>
      </trkpt>
      <trkpt lat="42.77186" lon="1.8897">
        <ele>1585.6</ele>
        <time>2024-06-30T10:40:10Z</time>
      </trkpt>
      <trkpt lat="42.77183" lon="1.88969">
        <ele>1585.6</ele>
        <time>2024-06-30T10:40:11Z</time>
      </trkpt>
      <trkpt lat="42.7718" lon="1.88968">
        <ele>1585.8</ele>
        <time>2024-06-30T10:40:12Z</time>
      </trkpt>
      <trkpt lat="42.77177" lon="1.88968">
        <ele>1585.8</ele>
        <time>2024-06-30T10:40:13Z</time>
      </trkpt>
      <trkpt lat="42.77175" lon="1.88968">
        <ele>1585.8</ele>
        <time>2024-06-30T10:40:14Z</time>
      </trkpt>
      <trkpt lat="42.77172" lon="1.88967">
        <ele>1586</ele>
        <time>2024-06-30T10:40:15Z</time>
      </trkpt>
      <trkpt lat="42.7717" lon="1.88967">
        <ele>1586</ele>
        <time>2024-06-30T10:40:16Z</time>
      </trkpt>
      <trkpt lat="42.77166" lon="1.88965">
        <ele>1586.2</ele>
        <time>2024-06-30T10:40:17Z</time>
      </trkpt>
      <trkpt lat="42.77162" lon="1.88965">
        <ele>1586.4</ele>
        <time>2024-06-30T10:40:18Z</time>
      </trkpt>
      <trkpt lat="42.77158" lon="1.88964">
        <ele>1586.6</ele>
        <time>2024-06-30T10:40:19Z</time>
      </trkpt>
      <trkpt lat="42.77155" lon="1.88963">
        <ele>1586.8</ele>
        <time>2024-06-30T10:40:20Z</time>
      </trkpt>
      <trkpt lat="42.77152" lon="1.88962">
        <ele>1587</ele>
        <time>2024-06-30T10:40:21Z</time>
      </trkpt>
      <trkpt lat="42.77149" lon="1.88963">
        <ele>1587.2</ele>
        <time>2024-06-30T10:40:22Z</time>
      </trkpt>
      <trkpt lat="42.77145" lon="1.88964">
        <ele>1587.4</ele>
        <time>2024-06-30T10:40:23Z</time>
      </trkpt>
      <trkpt lat="42.77142" lon="1.88965">
        <ele>1587.8</ele>
        <time>2024-06-30T10:40:24Z</time>
      </trkpt>
      <trkpt lat="42.77138" lon="1.88965">
        <ele>1588</ele>
        <time>2024-06-30T10:40:25Z</time>
      </trkpt>
      <trkpt lat="42.77134" lon="1.88965">
        <ele>1588.4</ele>
        <time>2024-06-30T10:40:26Z</time>
      </trkpt>
      <trkpt lat="42.77132" lon="1.88967">
        <ele>1588.6</ele>
        <time>2024-06-30T10:40:27Z</time>
      </trkpt>
      <trkpt lat="42.7713" lon="1.88968">
        <ele>1589.4</ele>
        <time>2024-06-30T10:40:28Z</time>
      </trkpt>
      <trkpt lat="42.77126" lon="1.8897">
        <ele>1589.8</ele>
        <time>2024-06-30T10:40:29Z</time>
      </trkpt>
      <trkpt lat="42.77124" lon="1.88972">
        <ele>1590.4</ele>
        <time>2024-06-30T10:40:30Z</time>
      </trkpt>
      <trkpt lat="42.77123" lon="1.88974">
        <ele>1590.4</ele>
        <time>2024-06-30T10:40:31Z</time>
      </trkpt>
      <trkpt lat="42.77122" lon="1.88975">
        <ele>1591</ele>
        <time>2024-06-30T10:40:32Z</time>
      </trkpt>
      <trkpt lat="42.7712" lon="1.88975">
        <ele>1591.4</ele>
        <time>2024-06-30T10:40:33Z</time>
      </trkpt>
      <trkpt lat="42.77117" lon="1.88976">
        <ele>1591.8</ele>
        <time>2024-06-30T10:40:34Z</time>
      </trkpt>
      <trkpt lat="42.77115" lon="1.88977">
        <ele>1592.4</ele>
        <time>2024-06-30T10:40:35Z</time>
      </trkpt>
      <trkpt lat="42.77114" lon="1.88978">
        <ele>1592.8</ele>
        <time>2024-06-30T10:40:36Z</time>
      </trkpt>
      <trkpt lat="42.77112" lon="1.8898">
        <ele>1592.8</ele>
        <time>2024-06-30T10:40:37Z</time>
      </trkpt>
      <trkpt lat="42.77111" lon="1.88983">
        <ele>1593.2</ele>
        <time>2024-06-30T10:40:38Z</time>
      </trkpt>
      <trkpt lat="42.77109" lon="1.88985">
        <ele>1593.8</ele>
        <time>2024-06-30T10:40:39Z</time>
      </trkpt>
      <trkpt lat="42.77107" lon="1.88987">
        <ele>1594.2</ele>
        <time>2024-06-30T10:40:40Z</time>
      </trkpt>
      <trkpt lat="42.77105" lon="1.88988">
        <ele>1594.2</ele>
        <time>2024-06-30T10:40:41Z</time>
      </trkpt>
      <trkpt lat="42.77103" lon="1.88989">
        <ele>1594.6</ele>
        <time>2024-06-30T10:40:42Z</time>
      </trkpt>
      <trkpt lat="42.771" lon="1.88991">
        <ele>1594.8</ele>
        <time>2024-06-30T10:40:43Z</time>
      </trkpt>
      <trkpt lat="42.77097" lon="1.88992">
        <ele>1595.2</ele>
        <time>2024-06-30T10:40:44Z</time>
      </trkpt>
      <trkpt lat="42.77095" lon="1.88993">
        <ele>1595.2</ele>
        <time>2024-06-30T10:40:45Z</time>
      </trkpt>
      <trkpt lat="42.77092" lon="1.88994">
        <ele>1595.4</ele>
        <time>2024-06-30T10:40:46Z</time>
      </trkpt>
      <trkpt lat="42.77091" lon="1.88995">
        <ele>1595.6</ele>
        <time>2024-06-30T10:40:47Z</time>
      </trkpt>
      <trkpt lat="42.77088" lon="1.88996">
        <ele>1595.8</ele>
        <time>2024-06-30T10:40:48Z</time>
      </trkpt>
      <trkpt lat="42.77086" lon="1.88997">
        <ele>1596</ele>
        <time>2024-06-30T10:40:49Z</time>
      </trkpt>
      <trkpt lat="42.77083" lon="1.88998">
        <ele>1596</ele>
        <time>2024-06-30T10:40:50Z</time>
      </trkpt>
      <trkpt lat="42.7708" lon="1.88998">
        <ele>1596.2</ele>
        <time>2024-06-30T10:40:51Z</time>
      </trkpt>
      <trkpt lat="42.77077" lon="1.88997">
        <ele>1596.2</ele>
        <time>2024-06-30T10:40:52Z</time>
      </trkpt>
      <trkpt lat="42.77073" lon="1.88996">
        <ele>1596.4</ele>
        <time>2024-06-30T10:40:53Z</time>
      </trkpt>
      <trkpt lat="42.7707" lon="1.88994">
        <ele>1596.4</ele>
        <time>2024-06-30T10:40:54Z</time>
      </trkpt>
      <trkpt lat="42.77067" lon="1.88992">
        <ele>1596.4</ele>
        <time>2024-06-30T10:40:55Z</time>
      </trkpt>
      <trkpt lat="42.77064" lon="1.88991">
        <ele>1596.4</ele>
        <time>2024-06-30T10:40:56Z</time>
      </trkpt>
      <trkpt lat="42.77063" lon="1.8899">
        <ele>1596.4</ele>
        <time>2024-06-30T10:40:57Z</time>
      </trkpt>
      <trkpt lat="42.77059" lon="1.88987">
        <ele>1596.4</ele>
        <time>2024-06-30T10:40:58Z</time>
      </trkpt>
      <trkpt lat="42.77055" lon="1.88986">
        <ele>1596.4</ele>
        <time>2024-06-30T10:40:59Z</time>
      </trkpt>
      <trkpt lat="42.7705" lon="1.88983">
        <ele>1596.4</ele>
        <time>2024-06-30T10:41:00Z</time>
      </trkpt>
      <trkpt lat="42.77046" lon="1.88982">
        <ele>1596.4</ele>
        <time>2024-06-30T10:41:01Z</time>
      </trkpt>
      <trkpt lat="42.77042" lon="1.8898">
        <ele>1596.4</ele>
        <time>2024-06-30T10:41:02Z</time>
      </trkpt>
      <trkpt lat="42.77037" lon="1.88978">
        <ele>1596.4</ele>
        <time>2024-06-30T10:41:03Z</time>
      </trkpt>
      <trkpt lat="42.77033" lon="1.88977">
        <ele>1596.4</ele>
        <time>2024-06-30T10:41:04Z</time>
      </trkpt>
      <trkpt lat="42.77028" lon="1.88975">
        <ele>1596.4</ele>
        <time>2024-06-30T10:41:05Z</time>
      </trkpt>
      <trkpt lat="42.77024" lon="1.88974">
        <ele>1596.4</ele>
        <time>2024-06-30T10:41:06Z</time>
      </trkpt>
      <trkpt lat="42.77019" lon="1.88972">
        <ele>1596.4</ele>
        <time>2024-06-30T10:41:07Z</time>
      </trkpt>
      <trkpt lat="42.77015" lon="1.88971">
        <ele>1596.4</ele>
        <time>2024-06-30T10:41:08Z</time>
      </trkpt>
      <trkpt lat="42.77011" lon="1.88969">
        <ele>1596.4</ele>
        <time>2024-06-30T10:41:09Z</time>
      </trkpt>
      <trkpt lat="42.77006" lon="1.88967">
        <ele>1596.2</ele>
        <time>2024-06-30T10:41:10Z</time>
      </trkpt>
      <trkpt lat="42.77" lon="1.88964">
        <ele>1596</ele>
        <time>2024-06-30T10:41:11Z</time>
      </trkpt>
      <trkpt lat="42.76995" lon="1.88961">
        <ele>1596</ele>
        <time>2024-06-30T10:41:12Z</time>
      </trkpt>
      <trkpt lat="42.76983" lon="1.88956">
        <ele>1594.6</ele>
        <time>2024-06-30T10:41:14Z</time>
      </trkpt>
      <trkpt lat="42.7697" lon="1.88951">
        <ele>1593.8</ele>
        <time>2024-06-30T10:41:16Z</time>
      </trkpt>
      <trkpt lat="42.76965" lon="1.88949">
        <ele>1593.8</ele>
        <time>2024-06-30T10:41:17Z</time>
      </trkpt>
      <trkpt lat="42.7696" lon="1.88947">
        <ele>1593.4</ele>
        <time>2024-06-30T10:41:18Z</time>
      </trkpt>
      <trkpt lat="42.76956" lon="1.88945">
        <ele>1593.4</ele>
        <time>2024-06-30T10:41:19Z</time>
      </trkpt>
      <trkpt lat="42.76952" lon="1.88942">
        <ele>1593</ele>
        <time>2024-06-30T10:41:20Z</time>
      </trkpt>
      <trkpt lat="42.76949" lon="1.88939">
        <ele>1592.6</ele>
        <time>2024-06-30T10:41:21Z</time>
      </trkpt>
      <trkpt lat="42.76947" lon="1.88935">
        <ele>1592.4</ele>
        <time>2024-06-30T10:41:22Z</time>
      </trkpt>
      <trkpt lat="42.76944" lon="1.88932">
        <ele>1592</ele>
        <time>2024-06-30T10:41:23Z</time>
      </trkpt>
      <trkpt lat="42.76942" lon="1.88928">
        <ele>1592</ele>
        <time>2024-06-30T10:41:24Z</time>
      </trkpt>
      <trkpt lat="42.76939" lon="1.88926">
        <ele>1592</ele>
        <time>2024-06-30T10:41:25Z</time>
      </trkpt>
      <trkpt lat="42.76934" lon="1.88922">
        <ele>1592</ele>
        <time>2024-06-30T10:41:27Z</time>
      </trkpt>
      <trkpt lat="42.76931" lon="1.8892">
        <ele>1592</ele>
        <time>2024-06-30T10:41:28Z</time>
      </trkpt>
      <trkpt lat="42.76928" lon="1.88919">
        <ele>1592.2</ele>
        <time>2024-06-30T10:41:29Z</time>
      </trkpt>
      <trkpt lat="42.76926" lon="1.88916">
        <ele>1592.2</ele>
        <time>2024-06-30T10:41:30Z</time>
      </trkpt>
      <trkpt lat="42.76924" lon="1.88914">
        <ele>1592.4</ele>
        <time>2024-06-30T10:41:31Z</time>
      </trkpt>
      <trkpt lat="42.76922" lon="1.88911">
        <ele>1593.2</ele>
        <time>2024-06-30T10:41:32Z</time>
      </trkpt>
      <trkpt lat="42.76919" lon="1.88909">
        <ele>1593.6</ele>
        <time>2024-06-30T10:41:33Z</time>
      </trkpt>
      <trkpt lat="42.76917" lon="1.88906">
        <ele>1593.8</ele>
        <time>2024-06-30T10:41:34Z</time>
      </trkpt>
      <trkpt lat="42.76915" lon="1.88904">
        <ele>1594</ele>
        <time>2024-06-30T10:41:35Z</time>
      </trkpt>
      <trkpt lat="42.7691" lon="1.88899">
        <ele>1594.4</ele>
        <time>2024-06-30T10:41:37Z</time>
      </trkpt>
      <trkpt lat="42.76908" lon="1.88897">
        <ele>1594.8</ele>
        <time>2024-06-30T10:41:38Z</time>
      </trkpt>
      <trkpt lat="42.76906" lon="1.88894">
        <ele>1595</ele>
        <time>2024-06-30T10:41:39Z</time>
      </trkpt>
      <trkpt lat="42.76901" lon="1.8889">
        <ele>1595.6</ele>
        <time>2024-06-30T10:41:41Z</time>
      </trkpt>
      <trkpt lat="42.76891" lon="1.88881">
        <ele>1596.2</ele>
        <time>2024-06-30T10:41:45Z</time>
      </trkpt>
      <trkpt lat="42.76888" lon="1.88879">
        <ele>1596.6</ele>
        <time>2024-06-30T10:41:46Z</time>
      </trkpt>
      <trkpt lat="42.76886" lon="1.88876">
        <ele>1596.8</ele>
        <time>2024-06-30T10:41:47Z</time>
      </trkpt>
      <trkpt lat="42.76884" lon="1.88874">
        <ele>1597.2</ele>
        <time>2024-06-30T10:41:48Z</time>
      </trkpt>
      <trkpt lat="42.76882" lon="1.88872">
        <ele>1597.4</ele>
        <time>2024-06-30T10:41:49Z</time>
      </trkpt>
      <trkpt lat="42.7688" lon="1.8887">
        <ele>1597.8</ele>
        <time>2024-06-30T10:41:50Z</time>
      </trkpt>
      <trkpt lat="42.76878" lon="1.88868">
        <ele>1598</ele>
        <time>2024-06-30T10:41:51Z</time>
      </trkpt>
      <trkpt lat="42.76875" lon="1.88866">
        <ele>1598.2</ele>
        <time>2024-06-30T10:41:52Z</time>
      </trkpt>
      <trkpt lat="42.76872" lon="1.88864">
        <ele>1598.4</ele>
        <time>2024-06-30T10:41:53Z</time>
      </trkpt>
      <trkpt lat="42.7687" lon="1.88863">
        <ele>1598.8</ele>
        <time>2024-06-30T10:41:54Z</time>
      </trkpt>
      <trkpt lat="42.76867" lon="1.88861">
        <ele>1599</ele>
        <time>2024-06-30T10:41:55Z</time>
      </trkpt>
      <trkpt lat="42.76864" lon="1.8886">
        <ele>1599.2</ele>
        <time>2024-06-30T10:41:56Z</time>
      </trkpt>
      <trkpt lat="42.76862" lon="1.88858">
        <ele>1599.8</ele>
        <time>2024-06-30T10:41:57Z</time>
      </trkpt>
      <trkpt lat="42.76859" lon="1.88857">
        <ele>1600</ele>
        <time>2024-06-30T10:41:58Z</time>
      </trkpt>
      <trkpt lat="42.76858" lon="1.88856">
        <ele>1600.4</ele>
        <time>2024-06-30T10:41:59Z</time>
      </trkpt>
      <trkpt lat="42.76855" lon="1.88854">
        <ele>1600.6</ele>
        <time>2024-06-30T10:42:00Z</time>
      </trkpt>
      <trkpt lat="42.76853" lon="1.88853">
        <ele>1600.8</ele>
        <time>2024-06-30T10:42:01Z</time>
      </trkpt>
      <trkpt lat="42.7685" lon="1.88852">
        <ele>1601</ele>
        <time>2024-06-30T10:42:02Z</time>
      </trkpt>
      <trkpt lat="42.76848" lon="1.8885">
        <ele>1601.4</ele>
        <time>2024-06-30T10:42:03Z</time>
      </trkpt>
      <trkpt lat="42.76845" lon="1.8885">
        <ele>1601.8</ele>
        <time>2024-06-30T10:42:04Z</time>
      </trkpt>
      <trkpt lat="42.76843" lon="1.8885">
        <ele>1602.2</ele>
        <time>2024-06-30T10:42:05Z</time>
      </trkpt>
      <trkpt lat="42.7684" lon="1.8885">
        <ele>1602.6</ele>
        <time>2024-06-30T10:42:06Z</time>
      </trkpt>
      <trkpt lat="42.76838" lon="1.8885">
        <ele>1602.8</ele>
        <time>2024-06-30T10:42:07Z</time>
      </trkpt>
      <trkpt lat="42.76835" lon="1.88849">
        <ele>1603.2</ele>
        <time>2024-06-30T10:42:08Z</time>
      </trkpt>
      <trkpt lat="42.76833" lon="1.88849">
        <ele>1603.4</ele>
        <time>2024-06-30T10:42:09Z</time>
      </trkpt>
      <trkpt lat="42.7683" lon="1.88849">
        <ele>1603.6</ele>
        <time>2024-06-30T10:42:10Z</time>
      </trkpt>
      <trkpt lat="42.76828" lon="1.88848">
        <ele>1603.8</ele>
        <time>2024-06-30T10:42:11Z</time>
      </trkpt>
      <trkpt lat="42.76825" lon="1.88848">
        <ele>1604.2</ele>
        <time>2024-06-30T10:42:12Z</time>
      </trkpt>
      <trkpt lat="42.76823" lon="1.88847">
        <ele>1605</ele>
        <time>2024-06-30T10:42:13Z</time>
      </trkpt>
      <trkpt lat="42.7682" lon="1.88847">
        <ele>1605.4</ele>
        <time>2024-06-30T10:42:14Z</time>
      </trkpt>
      <trkpt lat="42.76818" lon="1.88847">
        <ele>1605.8</ele>
        <time>2024-06-30T10:42:15Z</time>
      </trkpt>
      <trkpt lat="42.76816" lon="1.88846">
        <ele>1606.2</ele>
        <time>2024-06-30T10:42:16Z</time>
      </trkpt>
      <trkpt lat="42.76813" lon="1.88846">
        <ele>1606.8</ele>
        <time>2024-06-30T10:42:17Z</time>
      </trkpt>
      <trkpt lat="42.76811" lon="1.88845">
        <ele>1607.2</ele>
        <time>2024-06-30T10:42:18Z</time>
      </trkpt>
      <trkpt lat="42.76808" lon="1.88844">
        <ele>1608</ele>
        <time>2024-06-30T10:42:19Z</time>
      </trkpt>
      <trkpt lat="42.76805" lon="1.88844">
        <ele>1608.8</ele>
        <time>2024-06-30T10:42:20Z</time>
      </trkpt>
      <trkpt lat="42.76802" lon="1.88844">
        <ele>1609.4</ele>
        <time>2024-06-30T10:42:21Z</time>
      </trkpt>
      <trkpt lat="42.76799" lon="1.88843">
        <ele>1610</ele>
        <time>2024-06-30T10:42:22Z</time>
      </trkpt>
      <trkpt lat="42.76797" lon="1.88843">
        <ele>1610.2</ele>
        <time>2024-06-30T10:42:23Z</time>
      </trkpt>
      <trkpt lat="42.76794" lon="1.88842">
        <ele>1610.6</ele>
        <time>2024-06-30T10:42:24Z</time>
      </trkpt>
      <trkpt lat="42.76791" lon="1.88841">
        <ele>1610.8</ele>
        <time>2024-06-30T10:42:25Z</time>
      </trkpt>
      <trkpt lat="42.76788" lon="1.8884">
        <ele>1611</ele>
        <time>2024-06-30T10:42:26Z</time>
      </trkpt>
      <trkpt lat="42.76785" lon="1.8884">
        <ele>1611.2</ele>
        <time>2024-06-30T10:42:27Z</time>
      </trkpt>
      <trkpt lat="42.76783" lon="1.8884">
        <ele>1611.4</ele>
        <time>2024-06-30T10:42:28Z</time>
      </trkpt>
      <trkpt lat="42.7678" lon="1.88839">
        <ele>1611.6</ele>
        <time>2024-06-30T10:42:29Z</time>
      </trkpt>
      <trkpt lat="42.76778" lon="1.88838">
        <ele>1611.8</ele>
        <time>2024-06-30T10:42:30Z</time>
      </trkpt>
      <trkpt lat="42.76775" lon="1.88838">
        <ele>1612</ele>
        <time>2024-06-30T10:42:31Z</time>
      </trkpt>
      <trkpt lat="42.76772" lon="1.88838">
        <ele>1612.2</ele>
        <time>2024-06-30T10:42:32Z</time>
      </trkpt>
      <trkpt lat="42.7677" lon="1.88838">
        <ele>1612.4</ele>
        <time>2024-06-30T10:42:33Z</time>
      </trkpt>
      <trkpt lat="42.76767" lon="1.88838">
        <ele>1612.4</ele>
        <time>2024-06-30T10:42:34Z</time>
      </trkpt>
      <trkpt lat="42.76764" lon="1.88838">
        <ele>1612.6</ele>
        <time>2024-06-30T10:42:35Z</time>
      </trkpt>
      <trkpt lat="42.76762" lon="1.88837">
        <ele>1613</ele>
        <time>2024-06-30T10:42:36Z</time>
      </trkpt>
      <trkpt lat="42.76759" lon="1.88837">
        <ele>1613</ele>
        <time>2024-06-30T10:42:37Z</time>
      </trkpt>
      <trkpt lat="42.76757" lon="1.88836">
        <ele>1613.4</ele>
        <time>2024-06-30T10:42:38Z</time>
      </trkpt>
      <trkpt lat="42.76754" lon="1.88836">
        <ele>1613.4</ele>
        <time>2024-06-30T10:42:39Z</time>
      </trkpt>
      <trkpt lat="42.76752" lon="1.88836">
        <ele>1613.6</ele>
        <time>2024-06-30T10:42:40Z</time>
      </trkpt>
      <trkpt lat="42.76749" lon="1.88836">
        <ele>1613.8</ele>
        <time>2024-06-30T10:42:41Z</time>
      </trkpt>
      <trkpt lat="42.76747" lon="1.88836">
        <ele>1614.2</ele>
        <time>2024-06-30T10:42:42Z</time>
      </trkpt>
      <trkpt lat="42.76745" lon="1.88835">
        <ele>1614.4</ele>
        <time>2024-06-30T10:42:43Z</time>
      </trkpt>
      <trkpt lat="42.76742" lon="1.88835">
        <ele>1615</ele>
        <time>2024-06-30T10:42:44Z</time>
      </trkpt>
      <trkpt lat="42.76739" lon="1.88835">
        <ele>1615.2</ele>
        <time>2024-06-30T10:42:45Z</time>
      </trkpt>
      <trkpt lat="42.76736" lon="1.88835">
        <ele>1615.4</ele>
        <time>2024-06-30T10:42:46Z</time>
      </trkpt>
      <trkpt lat="42.76733" lon="1.88835">
        <ele>1615.6</ele>
        <time>2024-06-30T10:42:47Z</time>
      </trkpt>
      <trkpt lat="42.76731" lon="1.88835">
        <ele>1615.8</ele>
        <time>2024-06-30T10:42:48Z</time>
      </trkpt>
      <trkpt lat="42.76728" lon="1.88836">
        <ele>1616</ele>
        <time>2024-06-30T10:42:49Z</time>
      </trkpt>
      <trkpt lat="42.76726" lon="1.88836">
        <ele>1616</ele>
        <time>2024-06-30T10:42:50Z</time>
      </trkpt>
      <trkpt lat="42.76723" lon="1.88836">
        <ele>1616.2</ele>
        <time>2024-06-30T10:42:51Z</time>
      </trkpt>
      <trkpt lat="42.76721" lon="1.88837">
        <ele>1616.6</ele>
        <time>2024-06-30T10:42:52Z</time>
      </trkpt>
      <trkpt lat="42.76718" lon="1.88838">
        <ele>1616.8</ele>
        <time>2024-06-30T10:42:53Z</time>
      </trkpt>
      <trkpt lat="42.76715" lon="1.88838">
        <ele>1617</ele>
        <time>2024-06-30T10:42:54Z</time>
      </trkpt>
      <trkpt lat="42.76713" lon="1.88838">
        <ele>1617.4</ele>
        <time>2024-06-30T10:42:55Z</time>
      </trkpt>
      <trkpt lat="42.7671" lon="1.88838">
        <ele>1618</ele>
        <time>2024-06-30T10:42:56Z</time>
      </trkpt>
      <trkpt lat="42.76708" lon="1.88838">
        <ele>1618.2</ele>
        <time>2024-06-30T10:42:57Z</time>
      </trkpt>
      <trkpt lat="42.76705" lon="1.88838">
        <ele>1618.6</ele>
        <time>2024-06-30T10:42:58Z</time>
      </trkpt>
      <trkpt lat="42.76703" lon="1.88838">
        <ele>1618.8</ele>
        <time>2024-06-30T10:42:59Z</time>
      </trkpt>
      <trkpt lat="42.767" lon="1.88838">
        <ele>1619.4</ele>
        <time>2024-06-30T10:43:00Z</time>
      </trkpt>
      <trkpt lat="42.76697" lon="1.88837">
        <ele>1620</ele>
        <time>2024-06-30T10:43:01Z</time>
      </trkpt>
      <trkpt lat="42.76694" lon="1.88836">
        <ele>1620.2</ele>
        <time>2024-06-30T10:43:02Z</time>
      </trkpt>
      <trkpt lat="42.76692" lon="1.88836">
        <ele>1620.8</ele>
        <time>2024-06-30T10:43:03Z</time>
      </trkpt>
      <trkpt lat="42.76689" lon="1.88835">
        <ele>1621.2</ele>
        <time>2024-06-30T10:43:04Z</time>
      </trkpt>
      <trkpt lat="42.76686" lon="1.88835">
        <ele>1622</ele>
        <time>2024-06-30T10:43:05Z</time>
      </trkpt>
      <trkpt lat="42.76683" lon="1.88835">
        <ele>1622.4</ele>
        <time>2024-06-30T10:43:06Z</time>
      </trkpt>
      <trkpt lat="42.7668" lon="1.88835">
        <ele>1623</ele>
        <time>2024-06-30T10:43:07Z</time>
      </trkpt>
      <trkpt lat="42.76677" lon="1.88834">
        <ele>1623.4</ele>
        <time>2024-06-30T10:43:08Z</time>
      </trkpt>
      <trkpt lat="42.76674" lon="1.88834">
        <ele>1623.8</ele>
        <time>2024-06-30T10:43:09Z</time>
      </trkpt>
      <trkpt lat="42.76671" lon="1.88834">
        <ele>1624</ele>
        <time>2024-06-30T10:43:10Z</time>
      </trkpt>
      <trkpt lat="42.76669" lon="1.88835">
        <ele>1624.2</ele>
        <time>2024-06-30T10:43:11Z</time>
      </trkpt>
      <trkpt lat="42.76666" lon="1.88835">
        <ele>1624.4</ele>
        <time>2024-06-30T10:43:12Z</time>
      </trkpt>
      <trkpt lat="42.76663" lon="1.88836">
        <ele>1624.8</ele>
        <time>2024-06-30T10:43:13Z</time>
      </trkpt>
      <trkpt lat="42.76661" lon="1.88838">
        <ele>1625.2</ele>
        <time>2024-06-30T10:43:14Z</time>
      </trkpt>
      <trkpt lat="42.76658" lon="1.8884">
        <ele>1625.2</ele>
        <time>2024-06-30T10:43:15Z</time>
      </trkpt>
      <trkpt lat="42.76655" lon="1.88842">
        <ele>1625.6</ele>
        <time>2024-06-30T10:43:16Z</time>
      </trkpt>
      <trkpt lat="42.76652" lon="1.88843">
        <ele>1626</ele>
        <time>2024-06-30T10:43:17Z</time>
      </trkpt>
      <trkpt lat="42.7665" lon="1.88845">
        <ele>1626.4</ele>
        <time>2024-06-30T10:43:18Z</time>
      </trkpt>
      <trkpt lat="42.76648" lon="1.88846">
        <ele>1626.6</ele>
        <time>2024-06-30T10:43:19Z</time>
      </trkpt>
      <trkpt lat="42.76646" lon="1.88848">
        <ele>1626.8</ele>
        <time>2024-06-30T10:43:20Z</time>
      </trkpt>
      <trkpt lat="42.76644" lon="1.88849">
        <ele>1626.8</ele>
        <time>2024-06-30T10:43:21Z</time>
      </trkpt>
      <trkpt lat="42.76642" lon="1.88851">
        <ele>1627</ele>
        <time>2024-06-30T10:43:22Z</time>
      </trkpt>
      <trkpt lat="42.7664" lon="1.88854">
        <ele>1627.6</ele>
        <time>2024-06-30T10:43:23Z</time>
      </trkpt>
      <trkpt lat="42.76638" lon="1.88856">
        <ele>1627.8</ele>
        <time>2024-06-30T10:43:24Z</time>
      </trkpt>
      <trkpt lat="42.76636" lon="1.88858">
        <ele>1628.2</ele>
        <time>2024-06-30T10:43:25Z</time>
      </trkpt>
      <trkpt lat="42.76634" lon="1.8886">
        <ele>1628.4</ele>
        <time>2024-06-30T10:43:26Z</time>
      </trkpt>
      <trkpt lat="42.76632" lon="1.88862">
        <ele>1628.6</ele>
        <time>2024-06-30T10:43:27Z</time>
      </trkpt>
      <trkpt lat="42.7663" lon="1.88864">
        <ele>1628.8</ele>
        <time>2024-06-30T10:43:28Z</time>
      </trkpt>
      <trkpt lat="42.76628" lon="1.88866">
        <ele>1628.8</ele>
        <time>2024-06-30T10:43:29Z</time>
      </trkpt>
      <trkpt lat="42.76626" lon="1.88868">
        <ele>1629.2</ele>
        <time>2024-06-30T10:43:30Z</time>
      </trkpt>
      <trkpt lat="42.76624" lon="1.8887">
        <ele>1629.4</ele>
        <time>2024-06-30T10:43:31Z</time>
      </trkpt>
      <trkpt lat="42.76623" lon="1.88873">
        <ele>1630</ele>
        <time>2024-06-30T10:43:32Z</time>
      </trkpt>
      <trkpt lat="42.76621" lon="1.88875">
        <ele>1630.6</ele>
        <time>2024-06-30T10:43:33Z</time>
      </trkpt>
      <trkpt lat="42.76619" lon="1.88877">
        <ele>1630.8</ele>
        <time>2024-06-30T10:43:34Z</time>
      </trkpt>
      <trkpt lat="42.76617" lon="1.88879">
        <ele>1631.8</ele>
        <time>2024-06-30T10:43:35Z</time>
      </trkpt>
      <trkpt lat="42.76614" lon="1.88881">
        <ele>1632.2</ele>
        <time>2024-06-30T10:43:36Z</time>
      </trkpt>
      <trkpt lat="42.76611" lon="1.88883">
        <ele>1632.6</ele>
        <time>2024-06-30T10:43:37Z</time>
      </trkpt>
      <trkpt lat="42.76609" lon="1.88884">
        <ele>1633</ele>
        <time>2024-06-30T10:43:38Z</time>
      </trkpt>
      <trkpt lat="42.76606" lon="1.88886">
        <ele>1633.4</ele>
        <time>2024-06-30T10:43:39Z</time>
      </trkpt>
      <trkpt lat="42.76603" lon="1.88887">
        <ele>1633.6</ele>
        <time>2024-06-30T10:43:40Z</time>
      </trkpt>
      <trkpt lat="42.766" lon="1.88888">
        <ele>1634.2</ele>
        <time>2024-06-30T10:43:41Z</time>
      </trkpt>
      <trkpt lat="42.76597" lon="1.88889">
        <ele>1634.6</ele>
        <time>2024-06-30T10:43:42Z</time>
      </trkpt>
      <trkpt lat="42.76594" lon="1.8889">
        <ele>1634.6</ele>
        <time>2024-06-30T10:43:43Z</time>
      </trkpt>
      <trkpt lat="42.76591" lon="1.8889">
        <ele>1635</ele>
        <time>2024-06-30T10:43:44Z</time>
      </trkpt>
      <trkpt lat="42.76588" lon="1.88891">
        <ele>1635.2</ele>
        <time>2024-06-30T10:43:45Z</time>
      </trkpt>
      <trkpt lat="42.76585" lon="1.88891">
        <ele>1635.6</ele>
        <time>2024-06-30T10:43:46Z</time>
      </trkpt>
      <trkpt lat="42.76582" lon="1.88892">
        <ele>1635.8</ele>
        <time>2024-06-30T10:43:47Z</time>
      </trkpt>
      <trkpt lat="42.76579" lon="1.88892">
        <ele>1636</ele>
        <time>2024-06-30T10:43:48Z</time>
      </trkpt>
      <trkpt lat="42.76576" lon="1.88893">
        <ele>1636.4</ele>
        <time>2024-06-30T10:43:49Z</time>
      </trkpt>
      <trkpt lat="42.76573" lon="1.88894">
        <ele>1636.8</ele>
        <time>2024-06-30T10:43:50Z</time>
      </trkpt>
      <trkpt lat="42.7657" lon="1.88894">
        <ele>1637.2</ele>
        <time>2024-06-30T10:43:51Z</time>
      </trkpt>
      <trkpt lat="42.76567" lon="1.88895">
        <ele>1637.4</ele>
        <time>2024-06-30T10:43:52Z</time>
      </trkpt>
      <trkpt lat="42.76564" lon="1.88896">
        <ele>1637.6</ele>
        <time>2024-06-30T10:43:53Z</time>
      </trkpt>
      <trkpt lat="42.76561" lon="1.88896">
        <ele>1637.8</ele>
        <time>2024-06-30T10:43:54Z</time>
      </trkpt>
      <trkpt lat="42.76559" lon="1.88896">
        <ele>1638</ele>
        <time>2024-06-30T10:43:55Z</time>
      </trkpt>
      <trkpt lat="42.76556" lon="1.88897">
        <ele>1638</ele>
        <time>2024-06-30T10:43:56Z</time>
      </trkpt>
      <trkpt lat="42.76553" lon="1.88898">
        <ele>1638.2</ele>
        <time>2024-06-30T10:43:57Z</time>
      </trkpt>
      <trkpt lat="42.7655" lon="1.88898">
        <ele>1638.8</ele>
        <time>2024-06-30T10:43:58Z</time>
      </trkpt>
      <trkpt lat="42.76547" lon="1.88899">
        <ele>1639</ele>
        <time>2024-06-30T10:43:59Z</time>
      </trkpt>
      <trkpt lat="42.76544" lon="1.889">
        <ele>1639.4</ele>
        <time>2024-06-30T10:44:00Z</time>
      </trkpt>
      <trkpt lat="42.76541" lon="1.889">
        <ele>1639.4</ele>
        <time>2024-06-30T10:44:01Z</time>
      </trkpt>
      <trkpt lat="42.76539" lon="1.889">
        <ele>1639.6</ele>
        <time>2024-06-30T10:44:02Z</time>
      </trkpt>
      <trkpt lat="42.76536" lon="1.88901">
        <ele>1640</ele>
        <time>2024-06-30T10:44:03Z</time>
      </trkpt>
      <trkpt lat="42.76533" lon="1.88901">
        <ele>1640.4</ele>
        <time>2024-06-30T10:44:04Z</time>
      </trkpt>
      <trkpt lat="42.76531" lon="1.88902">
        <ele>1640.6</ele>
        <time>2024-06-30T10:44:05Z</time>
      </trkpt>
      <trkpt lat="42.76529" lon="1.88903">
        <ele>1641.6</ele>
        <time>2024-06-30T10:44:06Z</time>
      </trkpt>
      <trkpt lat="42.76527" lon="1.88903">
        <ele>1642</ele>
        <time>2024-06-30T10:44:07Z</time>
      </trkpt>
      <trkpt lat="42.76524" lon="1.88903">
        <ele>1642.2</ele>
        <time>2024-06-30T10:44:08Z</time>
      </trkpt>
      <trkpt lat="42.76521" lon="1.88903">
        <ele>1643</ele>
        <time>2024-06-30T10:44:09Z</time>
      </trkpt>
      <trkpt lat="42.76519" lon="1.88903">
        <ele>1643.2</ele>
        <time>2024-06-30T10:44:10Z</time>
      </trkpt>
      <trkpt lat="42.76516" lon="1.88902">
        <ele>1643.6</ele>
        <time>2024-06-30T10:44:11Z</time>
      </trkpt>
      <trkpt lat="42.76513" lon="1.88902">
        <ele>1644</ele>
        <time>2024-06-30T10:44:12Z</time>
      </trkpt>
      <trkpt lat="42.7651" lon="1.88901">
        <ele>1644.2</ele>
        <time>2024-06-30T10:44:13Z</time>
      </trkpt>
      <trkpt lat="42.76507" lon="1.889">
        <ele>1644.6</ele>
        <time>2024-06-30T10:44:14Z</time>
      </trkpt>
      <trkpt lat="42.76505" lon="1.88899">
        <ele>1644.8</ele>
        <time>2024-06-30T10:44:15Z</time>
      </trkpt>
      <trkpt lat="42.76502" lon="1.88898">
        <ele>1645.4</ele>
        <time>2024-06-30T10:44:16Z</time>
      </trkpt>
      <trkpt lat="42.765" lon="1.88897">
        <ele>1645.8</ele>
        <time>2024-06-30T10:44:17Z</time>
      </trkpt>
      <trkpt lat="42.76498" lon="1.88896">
        <ele>1646.2</ele>
        <time>2024-06-30T10:44:18Z</time>
      </trkpt>
      <trkpt lat="42.76497" lon="1.88894">
        <ele>1646.2</ele>
        <time>2024-06-30T10:44:19Z</time>
      </trkpt>
      <trkpt lat="42.76496" lon="1.88892">
        <ele>1646.4</ele>
        <time>2024-06-30T10:44:20Z</time>
      </trkpt>
      <trkpt lat="42.76496" lon="1.88889">
        <ele>1646.6</ele>
        <time>2024-06-30T10:44:21Z</time>
      </trkpt>
      <trkpt lat="42.76496" lon="1.88886">
        <ele>1646.8</ele>
        <time>2024-06-30T10:44:22Z</time>
      </trkpt>
      <trkpt lat="42.76495" lon="1.88882">
        <ele>1647</ele>
        <time>2024-06-30T10:44:23Z</time>
      </trkpt>
      <trkpt lat="42.76494" lon="1.88879">
        <ele>1647</ele>
        <time>2024-06-30T10:44:24Z</time>
      </trkpt>
      <trkpt lat="42.76494" lon="1.88874">
        <ele>1647.2</ele>
        <time>2024-06-30T10:44:25Z</time>
      </trkpt>
      <trkpt lat="42.76493" lon="1.8887">
        <ele>1647.2</ele>
        <time>2024-06-30T10:44:26Z</time>
      </trkpt>
      <trkpt lat="42.76493" lon="1.88865">
        <ele>1647.4</ele>
        <time>2024-06-30T10:44:27Z</time>
      </trkpt>
      <trkpt lat="42.76493" lon="1.88858">
        <ele>1647.2</ele>
        <time>2024-06-30T10:44:28Z</time>
      </trkpt>
      <trkpt lat="42.76493" lon="1.88852">
        <ele>1647.2</ele>
        <time>2024-06-30T10:44:29Z</time>
      </trkpt>
      <trkpt lat="42.76492" lon="1.88846">
        <ele>1647.2</ele>
        <time>2024-06-30T10:44:30Z</time>
      </trkpt>
      <trkpt lat="42.76491" lon="1.88842">
        <ele>1647.2</ele>
        <time>2024-06-30T10:44:31Z</time>
      </trkpt>
      <trkpt lat="42.7649" lon="1.88836">
        <ele>1647.2</ele>
        <time>2024-06-30T10:44:32Z</time>
      </trkpt>
      <trkpt lat="42.76489" lon="1.88829">
        <ele>1647</ele>
        <time>2024-06-30T10:44:33Z</time>
      </trkpt>
      <trkpt lat="42.76487" lon="1.88823">
        <ele>1646.4</ele>
        <time>2024-06-30T10:44:34Z</time>
      </trkpt>
      <trkpt lat="42.76485" lon="1.88818">
        <ele>1646.2</ele>
        <time>2024-06-30T10:44:35Z</time>
      </trkpt>
      <trkpt lat="42.76484" lon="1.88815">
        <ele>1646</ele>
        <time>2024-06-30T10:44:36Z</time>
      </trkpt>
      <trkpt lat="42.76482" lon="1.8881">
        <ele>1645.8</ele>
        <time>2024-06-30T10:44:37Z</time>
      </trkpt>
      <trkpt lat="42.76479" lon="1.88805">
        <ele>1645.6</ele>
        <time>2024-06-30T10:44:38Z</time>
      </trkpt>
      <trkpt lat="42.76477" lon="1.888">
        <ele>1645.4</ele>
        <time>2024-06-30T10:44:39Z</time>
      </trkpt>
      <trkpt lat="42.76475" lon="1.88794">
        <ele>1645.2</ele>
        <time>2024-06-30T10:44:40Z</time>
      </trkpt>
      <trkpt lat="42.76473" lon="1.88787">
        <ele>1645</ele>
        <time>2024-06-30T10:44:41Z</time>
      </trkpt>
      <trkpt lat="42.7647" lon="1.88775">
        <ele>1644.8</ele>
        <time>2024-06-30T10:44:43Z</time>
      </trkpt>
      <trkpt lat="42.76466" lon="1.88763">
        <ele>1644.4</ele>
        <time>2024-06-30T10:44:45Z</time>
      </trkpt>
      <trkpt lat="42.76464" lon="1.88758">
        <ele>1644.2</ele>
        <time>2024-06-30T10:44:46Z</time>
      </trkpt>
      <trkpt lat="42.76459" lon="1.88737">
        <ele>1643.6</ele>
        <time>2024-06-30T10:44:49Z</time>
      </trkpt>
      <trkpt lat="42.76457" lon="1.88731">
        <ele>1643.2</ele>
        <time>2024-06-30T10:44:50Z</time>
      </trkpt>
      <trkpt lat="42.76455" lon="1.88721">
        <ele>1642.8</ele>
        <time>2024-06-30T10:44:52Z</time>
      </trkpt>
      <trkpt lat="42.76455" lon="1.88718">
        <ele>1642.8</ele>
        <time>2024-06-30T10:44:53Z</time>
      </trkpt>
      <trkpt lat="42.76454" lon="1.88713">
        <ele>1642.4</ele>
        <time>2024-06-30T10:44:54Z</time>
      </trkpt>
      <trkpt lat="42.76453" lon="1.88709">
        <ele>1641.6</ele>
        <time>2024-06-30T10:44:55Z</time>
      </trkpt>
      <trkpt lat="42.76453" lon="1.88705">
        <ele>1641.4</ele>
        <time>2024-06-30T10:44:56Z</time>
      </trkpt>
      <trkpt lat="42.76451" lon="1.887">
        <ele>1641</ele>
        <time>2024-06-30T10:44:57Z</time>
      </trkpt>
      <trkpt lat="42.76447" lon="1.88691">
        <ele>1640.6</ele>
        <time>2024-06-30T10:44:59Z</time>
      </trkpt>
      <trkpt lat="42.76434" lon="1.88667">
        <ele>1639</ele>
        <time>2024-06-30T10:45:04Z</time>
      </trkpt>
      <trkpt lat="42.76432" lon="1.88665">
        <ele>1638.8</ele>
        <time>2024-06-30T10:45:05Z</time>
      </trkpt>
      <trkpt lat="42.76431" lon="1.88664">
        <ele>1638.2</ele>
        <time>2024-06-30T10:45:06Z</time>
      </trkpt>
      <trkpt lat="42.76431" lon="1.88664">
        <ele>1638.2</ele>
        <time>2024-06-30T10:45:07Z</time>
      </trkpt>
      <trkpt lat="42.76431" lon="1.88664">
        <ele>1637.6</ele>
        <time>2024-06-30T10:45:08Z</time>
      </trkpt>
      <trkpt lat="42.76429" lon="1.88662">
        <ele>1634.8</ele>
        <time>2024-06-30T10:46:24Z</time>
      </trkpt>
      <trkpt lat="42.76425" lon="1.88657">
        <ele>1634.6</ele>
        <time>2024-06-30T10:46:26Z</time>
      </trkpt>
      <trkpt lat="42.76411" lon="1.88642">
        <ele>1634.2</ele>
        <time>2024-06-30T10:46:30Z</time>
      </trkpt>
      <trkpt lat="42.76405" lon="1.88634">
        <ele>1633.8</ele>
        <time>2024-06-30T10:46:32Z</time>
      </trkpt>
      <trkpt lat="42.76403" lon="1.88629">
        <ele>1633.2</ele>
        <time>2024-06-30T10:46:33Z</time>
      </trkpt>
      <trkpt lat="42.76401" lon="1.88624">
        <ele>1633</ele>
        <time>2024-06-30T10:46:34Z</time>
      </trkpt>
      <trkpt lat="42.764" lon="1.88619">
        <ele>1632.2</ele>
        <time>2024-06-30T10:46:35Z</time>
      </trkpt>
      <trkpt lat="42.76399" lon="1.88613">
        <ele>1632</ele>
        <time>2024-06-30T10:46:36Z</time>
      </trkpt>
      <trkpt lat="42.76398" lon="1.88602">
        <ele>1631</ele>
        <time>2024-06-30T10:46:38Z</time>
      </trkpt>
      <trkpt lat="42.76398" lon="1.88592">
        <ele>1630.6</ele>
        <time>2024-06-30T10:46:40Z</time>
      </trkpt>
      <trkpt lat="42.76398" lon="1.88574">
        <ele>1629.8</ele>
        <time>2024-06-30T10:46:43Z</time>
      </trkpt>
      <trkpt lat="42.76398" lon="1.88562">
        <ele>1628.6</ele>
        <time>2024-06-30T10:46:45Z</time>
      </trkpt>
      <trkpt lat="42.76398" lon="1.88557">
        <ele>1628.4</ele>
        <time>2024-06-30T10:46:46Z</time>
      </trkpt>
      <trkpt lat="42.76398" lon="1.88551">
        <ele>1627.8</ele>
        <time>2024-06-30T10:46:47Z</time>
      </trkpt>
      <trkpt lat="42.76398" lon="1.88545">
        <ele>1627.4</ele>
        <time>2024-06-30T10:46:48Z</time>
      </trkpt>
      <trkpt lat="42.76399" lon="1.88517">
        <ele>1626.2</ele>
        <time>2024-06-30T10:46:52Z</time>
      </trkpt>
      <trkpt lat="42.76399" lon="1.88504">
        <ele>1625</ele>
        <time>2024-06-30T10:46:54Z</time>
      </trkpt>
      <trkpt lat="42.764" lon="1.885">
        <ele>1624.8</ele>
        <time>2024-06-30T10:46:55Z</time>
      </trkpt>
      <trkpt lat="42.764" lon="1.88494">
        <ele>1624</ele>
        <time>2024-06-30T10:46:56Z</time>
      </trkpt>
      <trkpt lat="42.76401" lon="1.88489">
        <ele>1623.6</ele>
        <time>2024-06-30T10:46:57Z</time>
      </trkpt>
      <trkpt lat="42.76402" lon="1.88483">
        <ele>1622.8</ele>
        <time>2024-06-30T10:46:58Z</time>
      </trkpt>
      <trkpt lat="42.76402" lon="1.88477">
        <ele>1622.4</ele>
        <time>2024-06-30T10:46:59Z</time>
      </trkpt>
      <trkpt lat="42.76402" lon="1.88464">
        <ele>1621</ele>
        <time>2024-06-30T10:47:01Z</time>
      </trkpt>
      <trkpt lat="42.76401" lon="1.88458">
        <ele>1620.8</ele>
        <time>2024-06-30T10:47:02Z</time>
      </trkpt>
      <trkpt lat="42.764" lon="1.88451">
        <ele>1619.8</ele>
        <time>2024-06-30T10:47:03Z</time>
      </trkpt>
      <trkpt lat="42.76397" lon="1.88437">
        <ele>1618.8</ele>
        <time>2024-06-30T10:47:05Z</time>
      </trkpt>
      <trkpt lat="42.76397" lon="1.88431">
        <ele>1618.4</ele>
        <time>2024-06-30T10:47:06Z</time>
      </trkpt>
      <trkpt lat="42.76398" lon="1.88425">
        <ele>1617.6</ele>
        <time>2024-06-30T10:47:07Z</time>
      </trkpt>
      <trkpt lat="42.764" lon="1.88418">
        <ele>1617</ele>
        <time>2024-06-30T10:47:08Z</time>
      </trkpt>
      <trkpt lat="42.76401" lon="1.88412">
        <ele>1616.8</ele>
        <time>2024-06-30T10:47:09Z</time>
      </trkpt>
      <trkpt lat="42.76402" lon="1.88405">
        <ele>1616.4</ele>
        <time>2024-06-30T10:47:10Z</time>
      </trkpt>
      <trkpt lat="42.76402" lon="1.88393">
        <ele>1615.8</ele>
        <time>2024-06-30T10:47:12Z</time>
      </trkpt>
      <trkpt lat="42.76401" lon="1.88389">
        <ele>1615.6</ele>
        <time>2024-06-30T10:47:13Z</time>
      </trkpt>
      <trkpt lat="42.76399" lon="1.88388">
        <ele>1614.8</ele>
        <time>2024-06-30T10:47:14Z</time>
      </trkpt>
      <trkpt lat="42.76398" lon="1.88389">
        <ele>1614.4</ele>
        <time>2024-06-30T10:47:15Z</time>
      </trkpt>
      <trkpt lat="42.76396" lon="1.88391">
        <ele>1613.2</ele>
        <time>2024-06-30T10:47:16Z</time>
      </trkpt>
      <trkpt lat="42.76393" lon="1.88392">
        <ele>1612.4</ele>
        <time>2024-06-30T10:47:17Z</time>
      </trkpt>
      <trkpt lat="42.76389" lon="1.88394">
        <ele>1612</ele>
        <time>2024-06-30T10:47:18Z</time>
      </trkpt>
      <trkpt lat="42.76385" lon="1.88397">
        <ele>1611.6</ele>
        <time>2024-06-30T10:47:19Z</time>
      </trkpt>
      <trkpt lat="42.7638" lon="1.88399">
        <ele>1611.4</ele>
        <time>2024-06-30T10:47:20Z</time>
      </trkpt>
      <trkpt lat="42.76375" lon="1.88402">
        <ele>1610.8</ele>
        <time>2024-06-30T10:47:21Z</time>
      </trkpt>
      <trkpt lat="42.76365" lon="1.88408">
        <ele>1610</ele>
        <time>2024-06-30T10:47:23Z</time>
      </trkpt>
      <trkpt lat="42.7636" lon="1.88411">
        <ele>1609.4</ele>
        <time>2024-06-30T10:47:24Z</time>
      </trkpt>
      <trkpt lat="42.76356" lon="1.88414">
        <ele>1608.8</ele>
        <time>2024-06-30T10:47:25Z</time>
      </trkpt>
      <trkpt lat="42.76352" lon="1.88416">
        <ele>1608.2</ele>
        <time>2024-06-30T10:47:26Z</time>
      </trkpt>
      <trkpt lat="42.76348" lon="1.88417">
        <ele>1607.8</ele>
        <time>2024-06-30T10:47:27Z</time>
      </trkpt>
      <trkpt lat="42.76344" lon="1.88418">
        <ele>1607.4</ele>
        <time>2024-06-30T10:47:28Z</time>
      </trkpt>
      <trkpt lat="42.7634" lon="1.88418">
        <ele>1607</ele>
        <time>2024-06-30T10:47:29Z</time>
      </trkpt>
      <trkpt lat="42.76337" lon="1.88419">
        <ele>1606.2</ele>
        <time>2024-06-30T10:47:30Z</time>
      </trkpt>
      <trkpt lat="42.76334" lon="1.88422">
        <ele>1605.4</ele>
        <time>2024-06-30T10:47:31Z</time>
      </trkpt>
      <trkpt lat="42.76332" lon="1.88425">
        <ele>1605.2</ele>
        <time>2024-06-30T10:47:32Z</time>
      </trkpt>
      <trkpt lat="42.76329" lon="1.88429">
        <ele>1604.8</ele>
        <time>2024-06-30T10:47:33Z</time>
      </trkpt>
      <trkpt lat="42.76327" lon="1.88433">
        <ele>1604.6</ele>
        <time>2024-06-30T10:47:34Z</time>
      </trkpt>
      <trkpt lat="42.76325" lon="1.88438">
        <ele>1604</ele>
        <time>2024-06-30T10:47:35Z</time>
      </trkpt>
      <trkpt lat="42.76321" lon="1.88441">
        <ele>1603.8</ele>
        <time>2024-06-30T10:47:36Z</time>
      </trkpt>
      <trkpt lat="42.76317" lon="1.88443">
        <ele>1603.4</ele>
        <time>2024-06-30T10:47:37Z</time>
      </trkpt>
      <trkpt lat="42.76311" lon="1.88445">
        <ele>1602.2</ele>
        <time>2024-06-30T10:47:38Z</time>
      </trkpt>
      <trkpt lat="42.76305" lon="1.88446">
        <ele>1601.8</ele>
        <time>2024-06-30T10:47:39Z</time>
      </trkpt>
      <trkpt lat="42.76298" lon="1.88447">
        <ele>1601.4</ele>
        <time>2024-06-30T10:47:40Z</time>
      </trkpt>
      <trkpt lat="42.76292" lon="1.88447">
        <ele>1601</ele>
        <time>2024-06-30T10:47:41Z</time>
      </trkpt>
      <trkpt lat="42.76285" lon="1.88447">
        <ele>1600.6</ele>
        <time>2024-06-30T10:47:42Z</time>
      </trkpt>
      <trkpt lat="42.76278" lon="1.88445">
        <ele>1600</ele>
        <time>2024-06-30T10:47:43Z</time>
      </trkpt>
      <trkpt lat="42.76272" lon="1.88444">
        <ele>1599.6</ele>
        <time>2024-06-30T10:47:44Z</time>
      </trkpt>
      <trkpt lat="42.76265" lon="1.88443">
        <ele>1599.2</ele>
        <time>2024-06-30T10:47:45Z</time>
      </trkpt>
      <trkpt lat="42.76259" lon="1.88442">
        <ele>1598.2</ele>
        <time>2024-06-30T10:47:46Z</time>
      </trkpt>
      <trkpt lat="42.76252" lon="1.8844">
        <ele>1597.2</ele>
        <time>2024-06-30T10:47:47Z</time>
      </trkpt>
      <trkpt lat="42.76246" lon="1.88437">
        <ele>1596.8</ele>
        <time>2024-06-30T10:47:48Z</time>
      </trkpt>
      <trkpt lat="42.76235" lon="1.8843">
        <ele>1596.2</ele>
        <time>2024-06-30T10:47:50Z</time>
      </trkpt>
      <trkpt lat="42.76231" lon="1.88426">
        <ele>1596.2</ele>
        <time>2024-06-30T10:47:51Z</time>
      </trkpt>
      <trkpt lat="42.76228" lon="1.88423">
        <ele>1595.8</ele>
        <time>2024-06-30T10:47:52Z</time>
      </trkpt>
      <trkpt lat="42.76226" lon="1.88419">
        <ele>1595</ele>
        <time>2024-06-30T10:47:53Z</time>
      </trkpt>
      <trkpt lat="42.76224" lon="1.88415">
        <ele>1594.6</ele>
        <time>2024-06-30T10:47:54Z</time>
      </trkpt>
      <trkpt lat="42.76222" lon="1.88412">
        <ele>1594.6</ele>
        <time>2024-06-30T10:47:55Z</time>
      </trkpt>
      <trkpt lat="42.7622" lon="1.88409">
        <ele>1594.2</ele>
        <time>2024-06-30T10:47:56Z</time>
      </trkpt>
      <trkpt lat="42.76218" lon="1.88406">
        <ele>1594.2</ele>
        <time>2024-06-30T10:47:57Z</time>
      </trkpt>
      <trkpt lat="42.76216" lon="1.88402">
        <ele>1594.2</ele>
        <time>2024-06-30T10:47:58Z</time>
      </trkpt>
      <trkpt lat="42.76212" lon="1.88397">
        <ele>1594.4</ele>
        <time>2024-06-30T10:48:00Z</time>
      </trkpt>
      <trkpt lat="42.7621" lon="1.88394">
        <ele>1594.6</ele>
        <time>2024-06-30T10:48:01Z</time>
      </trkpt>
      <trkpt lat="42.76208" lon="1.88391">
        <ele>1594.6</ele>
        <time>2024-06-30T10:48:02Z</time>
      </trkpt>
      <trkpt lat="42.76205" lon="1.88388">
        <ele>1594.8</ele>
        <time>2024-06-30T10:48:03Z</time>
      </trkpt>
      <trkpt lat="42.76203" lon="1.88387">
        <ele>1595</ele>
        <time>2024-06-30T10:48:04Z</time>
      </trkpt>
      <trkpt lat="42.76197" lon="1.88379">
        <ele>1595.6</ele>
        <time>2024-06-30T10:48:07Z</time>
      </trkpt>
      <trkpt lat="42.76195" lon="1.88377">
        <ele>1595.6</ele>
        <time>2024-06-30T10:48:08Z</time>
      </trkpt>
      <trkpt lat="42.76192" lon="1.88375">
        <ele>1595.8</ele>
        <time>2024-06-30T10:48:09Z</time>
      </trkpt>
      <trkpt lat="42.76191" lon="1.88372">
        <ele>1596</ele>
        <time>2024-06-30T10:48:10Z</time>
      </trkpt>
      <trkpt lat="42.76189" lon="1.88369">
        <ele>1596.2</ele>
        <time>2024-06-30T10:48:11Z</time>
      </trkpt>
      <trkpt lat="42.76187" lon="1.88366">
        <ele>1596.4</ele>
        <time>2024-06-30T10:48:12Z</time>
      </trkpt>
      <trkpt lat="42.76185" lon="1.88363">
        <ele>1596.6</ele>
        <time>2024-06-30T10:48:13Z</time>
      </trkpt>
      <trkpt lat="42.76183" lon="1.8836">
        <ele>1596.8</ele>
        <time>2024-06-30T10:48:14Z</time>
      </trkpt>
      <trkpt lat="42.76175" lon="1.88341">
        <ele>1597.6</ele>
        <time>2024-06-30T10:48:19Z</time>
      </trkpt>
      <trkpt lat="42.76173" lon="1.88336">
        <ele>1597.8</ele>
        <time>2024-06-30T10:48:20Z</time>
      </trkpt>
      <trkpt lat="42.76171" lon="1.88332">
        <ele>1597.8</ele>
        <time>2024-06-30T10:48:21Z</time>
      </trkpt>
      <trkpt lat="42.76167" lon="1.88322">
        <ele>1598</ele>
        <time>2024-06-30T10:48:23Z</time>
      </trkpt>
      <trkpt lat="42.76163" lon="1.8831">
        <ele>1598.2</ele>
        <time>2024-06-30T10:48:25Z</time>
      </trkpt>
      <trkpt lat="42.76161" lon="1.88305">
        <ele>1598.2</ele>
        <time>2024-06-30T10:48:26Z</time>
      </trkpt>
      <trkpt lat="42.76157" lon="1.88293">
        <ele>1598.4</ele>
        <time>2024-06-30T10:48:28Z</time>
      </trkpt>
      <trkpt lat="42.76151" lon="1.88277">
        <ele>1598.2</ele>
        <time>2024-06-30T10:48:31Z</time>
      </trkpt>
      <trkpt lat="42.76146" lon="1.88262">
        <ele>1598.2</ele>
        <time>2024-06-30T10:48:34Z</time>
      </trkpt>
      <trkpt lat="42.76142" lon="1.88251">
        <ele>1598.2</ele>
        <time>2024-06-30T10:48:36Z</time>
      </trkpt>
      <trkpt lat="42.76139" lon="1.88246">
        <ele>1598.2</ele>
        <time>2024-06-30T10:48:37Z</time>
      </trkpt>
      <trkpt lat="42.76126" lon="1.88214">
        <ele>1598.2</ele>
        <time>2024-06-30T10:48:43Z</time>
      </trkpt>
      <trkpt lat="42.76124" lon="1.88209">
        <ele>1598.2</ele>
        <time>2024-06-30T10:48:44Z</time>
      </trkpt>
      <trkpt lat="42.76122" lon="1.88204">
        <ele>1598.2</ele>
        <time>2024-06-30T10:48:45Z</time>
      </trkpt>
      <trkpt lat="42.76118" lon="1.88195">
        <ele>1598.2</ele>
        <time>2024-06-30T10:48:47Z</time>
      </trkpt>
      <trkpt lat="42.76116" lon="1.8819">
        <ele>1598.2</ele>
        <time>2024-06-30T10:48:48Z</time>
      </trkpt>
      <trkpt lat="42.76114" lon="1.88185">
        <ele>1598.2</ele>
        <time>2024-06-30T10:48:49Z</time>
      </trkpt>
      <trkpt lat="42.76114" lon="1.8818">
        <ele>1598.2</ele>
        <time>2024-06-30T10:48:50Z</time>
      </trkpt>
      <trkpt lat="42.76113" lon="1.88175">
        <ele>1598.4</ele>
        <time>2024-06-30T10:48:51Z</time>
      </trkpt>
      <trkpt lat="42.76113" lon="1.88171">
        <ele>1598.8</ele>
        <time>2024-06-30T10:48:52Z</time>
      </trkpt>
      <trkpt lat="42.76112" lon="1.88166">
        <ele>1599</ele>
        <time>2024-06-30T10:48:53Z</time>
      </trkpt>
      <trkpt lat="42.76111" lon="1.88161">
        <ele>1599.2</ele>
        <time>2024-06-30T10:48:54Z</time>
      </trkpt>
      <trkpt lat="42.76108" lon="1.8815">
        <ele>1599.2</ele>
        <time>2024-06-30T10:48:56Z</time>
      </trkpt>
      <trkpt lat="42.76105" lon="1.88144">
        <ele>1599.2</ele>
        <time>2024-06-30T10:48:57Z</time>
      </trkpt>
      <trkpt lat="42.76096" lon="1.88124">
        <ele>1599.6</ele>
        <time>2024-06-30T10:49:00Z</time>
      </trkpt>
      <trkpt lat="42.76093" lon="1.88118">
        <ele>1599.8</ele>
        <time>2024-06-30T10:49:01Z</time>
      </trkpt>
      <trkpt lat="42.76087" lon="1.88106">
        <ele>1599.6</ele>
        <time>2024-06-30T10:49:03Z</time>
      </trkpt>
      <trkpt lat="42.76083" lon="1.881">
        <ele>1599.6</ele>
        <time>2024-06-30T10:49:04Z</time>
      </trkpt>
      <trkpt lat="42.76072" lon="1.88084">
        <ele>1599.4</ele>
        <time>2024-06-30T10:49:07Z</time>
      </trkpt>
      <trkpt lat="42.76068" lon="1.8808">
        <ele>1599</ele>
        <time>2024-06-30T10:49:08Z</time>
      </trkpt>
      <trkpt lat="42.76064" lon="1.88076">
        <ele>1599</ele>
        <time>2024-06-30T10:49:09Z</time>
      </trkpt>
      <trkpt lat="42.7606" lon="1.88072">
        <ele>1598.4</ele>
        <time>2024-06-30T10:49:10Z</time>
      </trkpt>
      <trkpt lat="42.76057" lon="1.88067">
        <ele>1598.2</ele>
        <time>2024-06-30T10:49:11Z</time>
      </trkpt>
      <trkpt lat="42.76053" lon="1.88063">
        <ele>1598</ele>
        <time>2024-06-30T10:49:12Z</time>
      </trkpt>
      <trkpt lat="42.76046" lon="1.88055">
        <ele>1597.8</ele>
        <time>2024-06-30T10:49:14Z</time>
      </trkpt>
      <trkpt lat="42.76044" lon="1.8805">
        <ele>1597.4</ele>
        <time>2024-06-30T10:49:15Z</time>
      </trkpt>
      <trkpt lat="42.76043" lon="1.88046">
        <ele>1597.4</ele>
        <time>2024-06-30T10:49:16Z</time>
      </trkpt>
      <trkpt lat="42.76042" lon="1.88041">
        <ele>1597</ele>
        <time>2024-06-30T10:49:17Z</time>
      </trkpt>
      <trkpt lat="42.7604" lon="1.88035">
        <ele>1596.8</ele>
        <time>2024-06-30T10:49:18Z</time>
      </trkpt>
      <trkpt lat="42.76038" lon="1.88029">
        <ele>1596.6</ele>
        <time>2024-06-30T10:49:19Z</time>
      </trkpt>
      <trkpt lat="42.76035" lon="1.88023">
        <ele>1596.2</ele>
        <time>2024-06-30T10:49:20Z</time>
      </trkpt>
      <trkpt lat="42.76031" lon="1.88018">
        <ele>1595.4</ele>
        <time>2024-06-30T10:49:21Z</time>
      </trkpt>
      <trkpt lat="42.76028" lon="1.88012">
        <ele>1594.6</ele>
        <time>2024-06-30T10:49:22Z</time>
      </trkpt>
      <trkpt lat="42.76024" lon="1.88005">
        <ele>1594.4</ele>
        <time>2024-06-30T10:49:23Z</time>
      </trkpt>
      <trkpt lat="42.76022" lon="1.87999">
        <ele>1593.6</ele>
        <time>2024-06-30T10:49:24Z</time>
      </trkpt>
      <trkpt lat="42.76021" lon="1.87991">
        <ele>1593.2</ele>
        <time>2024-06-30T10:49:25Z</time>
      </trkpt>
      <trkpt lat="42.7602" lon="1.87984">
        <ele>1592.4</ele>
        <time>2024-06-30T10:49:26Z</time>
      </trkpt>
      <trkpt lat="42.76018" lon="1.87977">
        <ele>1591.8</ele>
        <time>2024-06-30T10:49:27Z</time>
      </trkpt>
      <trkpt lat="42.76016" lon="1.87971">
        <ele>1591</ele>
        <time>2024-06-30T10:49:28Z</time>
      </trkpt>
      <trkpt lat="42.7601" lon="1.87959">
        <ele>1590.2</ele>
        <time>2024-06-30T10:49:30Z</time>
      </trkpt>
      <trkpt lat="42.76008" lon="1.87954">
        <ele>1589.6</ele>
        <time>2024-06-30T10:49:31Z</time>
      </trkpt>
      <trkpt lat="42.76006" lon="1.87948">
        <ele>1589.4</ele>
        <time>2024-06-30T10:49:32Z</time>
      </trkpt>
      <trkpt lat="42.76005" lon="1.87943">
        <ele>1588.8</ele>
        <time>2024-06-30T10:49:33Z</time>
      </trkpt>
      <trkpt lat="42.76003" lon="1.87936">
        <ele>1588.6</ele>
        <time>2024-06-30T10:49:34Z</time>
      </trkpt>
      <trkpt lat="42.76002" lon="1.8793">
        <ele>1588.2</ele>
        <time>2024-06-30T10:49:35Z</time>
      </trkpt>
      <trkpt lat="42.76001" lon="1.87922">
        <ele>1587.6</ele>
        <time>2024-06-30T10:49:36Z</time>
      </trkpt>
      <trkpt lat="42.75999" lon="1.87915">
        <ele>1587.2</ele>
        <time>2024-06-30T10:49:37Z</time>
      </trkpt>
      <trkpt lat="42.75998" lon="1.87906">
        <ele>1586.8</ele>
        <time>2024-06-30T10:49:38Z</time>
      </trkpt>
      <trkpt lat="42.75997" lon="1.87888">
        <ele>1586.2</ele>
        <time>2024-06-30T10:49:40Z</time>
      </trkpt>
      <trkpt lat="42.75997" lon="1.87873">
        <ele>1585.6</ele>
        <time>2024-06-30T10:49:42Z</time>
      </trkpt>
      <trkpt lat="42.75996" lon="1.87866">
        <ele>1585.2</ele>
        <time>2024-06-30T10:49:43Z</time>
      </trkpt>
      <trkpt lat="42.75995" lon="1.87862">
        <ele>1585.2</ele>
        <time>2024-06-30T10:49:44Z</time>
      </trkpt>
      <trkpt lat="42.75993" lon="1.87859">
        <ele>1585.4</ele>
        <time>2024-06-30T10:49:45Z</time>
      </trkpt>
      <trkpt lat="42.7599" lon="1.87856">
        <ele>1585</ele>
        <time>2024-06-30T10:49:46Z</time>
      </trkpt>
      <trkpt lat="42.75988" lon="1.87854">
        <ele>1584.6</ele>
        <time>2024-06-30T10:49:47Z</time>
      </trkpt>
      <trkpt lat="42.75986" lon="1.87851">
        <ele>1584.4</ele>
        <time>2024-06-30T10:49:48Z</time>
      </trkpt>
      <trkpt lat="42.75984" lon="1.87848">
        <ele>1584.2</ele>
        <time>2024-06-30T10:49:49Z</time>
      </trkpt>
      <trkpt lat="42.75983" lon="1.87845">
        <ele>1584</ele>
        <time>2024-06-30T10:49:50Z</time>
      </trkpt>
      <trkpt lat="42.75982" lon="1.87842">
        <ele>1583.8</ele>
        <time>2024-06-30T10:49:51Z</time>
      </trkpt>
      <trkpt lat="42.75981" lon="1.87839">
        <ele>1583.8</ele>
        <time>2024-06-30T10:49:52Z</time>
      </trkpt>
      <trkpt lat="42.75979" lon="1.87832">
        <ele>1584</ele>
        <time>2024-06-30T10:49:54Z</time>
      </trkpt>
      <trkpt lat="42.75977" lon="1.87829">
        <ele>1584</ele>
        <time>2024-06-30T10:49:55Z</time>
      </trkpt>
      <trkpt lat="42.75976" lon="1.87825">
        <ele>1584.2</ele>
        <time>2024-06-30T10:49:56Z</time>
      </trkpt>
      <trkpt lat="42.75974" lon="1.87822">
        <ele>1584.2</ele>
        <time>2024-06-30T10:49:57Z</time>
      </trkpt>
      <trkpt lat="42.75972" lon="1.87815">
        <ele>1585.4</ele>
        <time>2024-06-30T10:49:59Z</time>
      </trkpt>
      <trkpt lat="42.7597" lon="1.87807">
        <ele>1586.4</ele>
        <time>2024-06-30T10:50:01Z</time>
      </trkpt>
      <trkpt lat="42.75967" lon="1.87796">
        <ele>1587.6</ele>
        <time>2024-06-30T10:50:04Z</time>
      </trkpt>
      <trkpt lat="42.75966" lon="1.87793">
        <ele>1588</ele>
        <time>2024-06-30T10:50:05Z</time>
      </trkpt>
      <trkpt lat="42.75963" lon="1.87781">
        <ele>1589</ele>
        <time>2024-06-30T10:50:08Z</time>
      </trkpt>
      <trkpt lat="42.7596" lon="1.87769">
        <ele>1590</ele>
        <time>2024-06-30T10:50:11Z</time>
      </trkpt>
      <trkpt lat="42.7596" lon="1.87764">
        <ele>1590.2</ele>
        <time>2024-06-30T10:50:12Z</time>
      </trkpt>
      <trkpt lat="42.75959" lon="1.8776">
        <ele>1590.6</ele>
        <time>2024-06-30T10:50:13Z</time>
      </trkpt>
      <trkpt lat="42.75958" lon="1.87755">
        <ele>1590.6</ele>
        <time>2024-06-30T10:50:14Z</time>
      </trkpt>
      <trkpt lat="42.75957" lon="1.8775">
        <ele>1591.6</ele>
        <time>2024-06-30T10:50:15Z</time>
      </trkpt>
      <trkpt lat="42.75957" lon="1.87745">
        <ele>1592</ele>
        <time>2024-06-30T10:50:16Z</time>
      </trkpt>
      <trkpt lat="42.75957" lon="1.8774">
        <ele>1592.2</ele>
        <time>2024-06-30T10:50:17Z</time>
      </trkpt>
      <trkpt lat="42.75956" lon="1.87734">
        <ele>1592.4</ele>
        <time>2024-06-30T10:50:18Z</time>
      </trkpt>
      <trkpt lat="42.75956" lon="1.87728">
        <ele>1592.6</ele>
        <time>2024-06-30T10:50:19Z</time>
      </trkpt>
      <trkpt lat="42.75956" lon="1.87724">
        <ele>1592.8</ele>
        <time>2024-06-30T10:50:20Z</time>
      </trkpt>
      <trkpt lat="42.75956" lon="1.87719">
        <ele>1593</ele>
        <time>2024-06-30T10:50:21Z</time>
      </trkpt>
      <trkpt lat="42.75956" lon="1.87713">
        <ele>1593.2</ele>
        <time>2024-06-30T10:50:22Z</time>
      </trkpt>
      <trkpt lat="42.75956" lon="1.87708">
        <ele>1593.4</ele>
        <time>2024-06-30T10:50:23Z</time>
      </trkpt>
      <trkpt lat="42.75956" lon="1.87703">
        <ele>1593.4</ele>
        <time>2024-06-30T10:50:24Z</time>
      </trkpt>
      <trkpt lat="42.75956" lon="1.87698">
        <ele>1593.4</ele>
        <time>2024-06-30T10:50:25Z</time>
      </trkpt>
      <trkpt lat="42.75957" lon="1.87693">
        <ele>1593.6</ele>
        <time>2024-06-30T10:50:26Z</time>
      </trkpt>
      <trkpt lat="42.75957" lon="1.87688">
        <ele>1593.8</ele>
        <time>2024-06-30T10:50:27Z</time>
      </trkpt>
      <trkpt lat="42.75958" lon="1.87683">
        <ele>1593.8</ele>
        <time>2024-06-30T10:50:28Z</time>
      </trkpt>
      <trkpt lat="42.75958" lon="1.87678">
        <ele>1594.2</ele>
        <time>2024-06-30T10:50:29Z</time>
      </trkpt>
      <trkpt lat="42.75959" lon="1.87673">
        <ele>1594.4</ele>
        <time>2024-06-30T10:50:30Z</time>
      </trkpt>
      <trkpt lat="42.7596" lon="1.87669">
        <ele>1595</ele>
        <time>2024-06-30T10:50:31Z</time>
      </trkpt>
      <trkpt lat="42.7596" lon="1.87665">
        <ele>1595.2</ele>
        <time>2024-06-30T10:50:32Z</time>
      </trkpt>
      <trkpt lat="42.75961" lon="1.8766">
        <ele>1595.8</ele>
        <time>2024-06-30T10:50:33Z</time>
      </trkpt>
      <trkpt lat="42.75962" lon="1.87657">
        <ele>1596</ele>
        <time>2024-06-30T10:50:34Z</time>
      </trkpt>
      <trkpt lat="42.75963" lon="1.87653">
        <ele>1596.2</ele>
        <time>2024-06-30T10:50:35Z</time>
      </trkpt>
      <trkpt lat="42.75964" lon="1.8765">
        <ele>1596.4</ele>
        <time>2024-06-30T10:50:36Z</time>
      </trkpt>
      <trkpt lat="42.75965" lon="1.87647">
        <ele>1596.4</ele>
        <time>2024-06-30T10:50:37Z</time>
      </trkpt>
      <trkpt lat="42.75966" lon="1.87643">
        <ele>1596.6</ele>
        <time>2024-06-30T10:50:38Z</time>
      </trkpt>
      <trkpt lat="42.75966" lon="1.87638">
        <ele>1596.6</ele>
        <time>2024-06-30T10:50:39Z</time>
      </trkpt>
      <trkpt lat="42.75966" lon="1.87634">
        <ele>1596.8</ele>
        <time>2024-06-30T10:50:40Z</time>
      </trkpt>
      <trkpt lat="42.75967" lon="1.87628">
        <ele>1597</ele>
        <time>2024-06-30T10:50:41Z</time>
      </trkpt>
      <trkpt lat="42.75967" lon="1.87623">
        <ele>1597</ele>
        <time>2024-06-30T10:50:42Z</time>
      </trkpt>
      <trkpt lat="42.75967" lon="1.87617">
        <ele>1597.2</ele>
        <time>2024-06-30T10:50:43Z</time>
      </trkpt>
      <trkpt lat="42.75967" lon="1.87611">
        <ele>1597.2</ele>
        <time>2024-06-30T10:50:44Z</time>
      </trkpt>
      <trkpt lat="42.75967" lon="1.87605">
        <ele>1597.4</ele>
        <time>2024-06-30T10:50:45Z</time>
      </trkpt>
      <trkpt lat="42.75967" lon="1.876">
        <ele>1597.4</ele>
        <time>2024-06-30T10:50:46Z</time>
      </trkpt>
      <trkpt lat="42.75967" lon="1.87594">
        <ele>1597.6</ele>
        <time>2024-06-30T10:50:47Z</time>
      </trkpt>
      <trkpt lat="42.75967" lon="1.87588">
        <ele>1597.6</ele>
        <time>2024-06-30T10:50:48Z</time>
      </trkpt>
      <trkpt lat="42.75968" lon="1.87582">
        <ele>1597.6</ele>
        <time>2024-06-30T10:50:49Z</time>
      </trkpt>
      <trkpt lat="42.75968" lon="1.87576">
        <ele>1597.6</ele>
        <time>2024-06-30T10:50:50Z</time>
      </trkpt>
      <trkpt lat="42.75968" lon="1.87569">
        <ele>1597.8</ele>
        <time>2024-06-30T10:50:51Z</time>
      </trkpt>
      <trkpt lat="42.75969" lon="1.87563">
        <ele>1597.8</ele>
        <time>2024-06-30T10:50:52Z</time>
      </trkpt>
      <trkpt lat="42.7597" lon="1.87556">
        <ele>1597.8</ele>
        <time>2024-06-30T10:50:53Z</time>
      </trkpt>
      <trkpt lat="42.75972" lon="1.87549">
        <ele>1597.2</ele>
        <time>2024-06-30T10:50:54Z</time>
      </trkpt>
      <trkpt lat="42.75976" lon="1.87543">
        <ele>1597</ele>
        <time>2024-06-30T10:50:55Z</time>
      </trkpt>
      <trkpt lat="42.7598" lon="1.87536">
        <ele>1596.8</ele>
        <time>2024-06-30T10:50:56Z</time>
      </trkpt>
      <trkpt lat="42.75985" lon="1.8753">
        <ele>1596.6</ele>
        <time>2024-06-30T10:50:57Z</time>
      </trkpt>
      <trkpt lat="42.75989" lon="1.87523">
        <ele>1596.4</ele>
        <time>2024-06-30T10:50:58Z</time>
      </trkpt>
      <trkpt lat="42.75994" lon="1.87515">
        <ele>1596.2</ele>
        <time>2024-06-30T10:50:59Z</time>
      </trkpt>
      <trkpt lat="42.76011" lon="1.87495">
        <ele>1595</ele>
        <time>2024-06-30T10:51:02Z</time>
      </trkpt>
      <trkpt lat="42.76025" lon="1.87483">
        <ele>1594.2</ele>
        <time>2024-06-30T10:51:04Z</time>
      </trkpt>
      <trkpt lat="42.76031" lon="1.87479">
        <ele>1593.8</ele>
        <time>2024-06-30T10:51:05Z</time>
      </trkpt>
      <trkpt lat="42.76036" lon="1.87473">
        <ele>1593.4</ele>
        <time>2024-06-30T10:51:06Z</time>
      </trkpt>
      <trkpt lat="42.76041" lon="1.87467">
        <ele>1593</ele>
        <time>2024-06-30T10:51:07Z</time>
      </trkpt>
      <trkpt lat="42.76044" lon="1.87459">
        <ele>1592.8</ele>
        <time>2024-06-30T10:51:08Z</time>
      </trkpt>
      <trkpt lat="42.76046" lon="1.8745">
        <ele>1592.4</ele>
        <time>2024-06-30T10:51:09Z</time>
      </trkpt>
      <trkpt lat="42.76045" lon="1.87439">
        <ele>1591.8</ele>
        <time>2024-06-30T10:51:10Z</time>
      </trkpt>
      <trkpt lat="42.76044" lon="1.87428">
        <ele>1591.2</ele>
        <time>2024-06-30T10:51:11Z</time>
      </trkpt>
      <trkpt lat="42.76043" lon="1.87416">
        <ele>1590.4</ele>
        <time>2024-06-30T10:51:12Z</time>
      </trkpt>
      <trkpt lat="42.76042" lon="1.87403">
        <ele>1589.2</ele>
        <time>2024-06-30T10:51:13Z</time>
      </trkpt>
      <trkpt lat="42.7604" lon="1.87374">
        <ele>1587.2</ele>
        <time>2024-06-30T10:51:15Z</time>
      </trkpt>
      <trkpt lat="42.76038" lon="1.87364">
        <ele>1586.2</ele>
        <time>2024-06-30T10:51:16Z</time>
      </trkpt>
      <trkpt lat="42.76035" lon="1.87352">
        <ele>1585.8</ele>
        <time>2024-06-30T10:51:17Z</time>
      </trkpt>
      <trkpt lat="42.7603" lon="1.87342">
        <ele>1584.6</ele>
        <time>2024-06-30T10:51:18Z</time>
      </trkpt>
      <trkpt lat="42.76024" lon="1.87332">
        <ele>1584.4</ele>
        <time>2024-06-30T10:51:19Z</time>
      </trkpt>
      <trkpt lat="42.76018" lon="1.87321">
        <ele>1582.8</ele>
        <time>2024-06-30T10:51:20Z</time>
      </trkpt>
      <trkpt lat="42.76007" lon="1.87301">
        <ele>1580.4</ele>
        <time>2024-06-30T10:51:22Z</time>
      </trkpt>
      <trkpt lat="42.76003" lon="1.87291">
        <ele>1579.2</ele>
        <time>2024-06-30T10:51:23Z</time>
      </trkpt>
      <trkpt lat="42.76" lon="1.8728">
        <ele>1578.8</ele>
        <time>2024-06-30T10:51:24Z</time>
      </trkpt>
      <trkpt lat="42.75998" lon="1.8727">
        <ele>1577.4</ele>
        <time>2024-06-30T10:51:25Z</time>
      </trkpt>
      <trkpt lat="42.75998" lon="1.8726">
        <ele>1577</ele>
        <time>2024-06-30T10:51:26Z</time>
      </trkpt>
      <trkpt lat="42.75999" lon="1.8725">
        <ele>1576.2</ele>
        <time>2024-06-30T10:51:27Z</time>
      </trkpt>
      <trkpt lat="42.75999" lon="1.87239">
        <ele>1576</ele>
        <time>2024-06-30T10:51:28Z</time>
      </trkpt>
      <trkpt lat="42.75996" lon="1.87229">
        <ele>1575</ele>
        <time>2024-06-30T10:51:29Z</time>
      </trkpt>
      <trkpt lat="42.75992" lon="1.87224">
        <ele>1574.4</ele>
        <time>2024-06-30T10:51:30Z</time>
      </trkpt>
      <trkpt lat="42.75987" lon="1.8722">
        <ele>1573.8</ele>
        <time>2024-06-30T10:51:31Z</time>
      </trkpt>
      <trkpt lat="42.7598" lon="1.87219">
        <ele>1573.2</ele>
        <time>2024-06-30T10:51:32Z</time>
      </trkpt>
      <trkpt lat="42.75964" lon="1.87215">
        <ele>1572.6</ele>
        <time>2024-06-30T10:51:34Z</time>
      </trkpt>
      <trkpt lat="42.75957" lon="1.87212">
        <ele>1572.4</ele>
        <time>2024-06-30T10:51:35Z</time>
      </trkpt>
      <trkpt lat="42.75941" lon="1.87206">
        <ele>1571.6</ele>
        <time>2024-06-30T10:51:37Z</time>
      </trkpt>
      <trkpt lat="42.75911" lon="1.87197">
        <ele>1570.4</ele>
        <time>2024-06-30T10:51:41Z</time>
      </trkpt>
      <trkpt lat="42.75905" lon="1.87195">
        <ele>1570.2</ele>
        <time>2024-06-30T10:51:42Z</time>
      </trkpt>
      <trkpt lat="42.75902" lon="1.87192">
        <ele>1569.2</ele>
        <time>2024-06-30T10:51:43Z</time>
      </trkpt>
      <trkpt lat="42.75901" lon="1.87188">
        <ele>1568.6</ele>
        <time>2024-06-30T10:51:44Z</time>
      </trkpt>
      <trkpt lat="42.75902" lon="1.87183">
        <ele>1568.4</ele>
        <time>2024-06-30T10:51:45Z</time>
      </trkpt>
      <trkpt lat="42.75905" lon="1.87181">
        <ele>1567.2</ele>
        <time>2024-06-30T10:51:46Z</time>
      </trkpt>
      <trkpt lat="42.7591" lon="1.87181">
        <ele>1566.8</ele>
        <time>2024-06-30T10:51:47Z</time>
      </trkpt>
      <trkpt lat="42.75914" lon="1.87182">
        <ele>1566.2</ele>
        <time>2024-06-30T10:51:48Z</time>
      </trkpt>
      <trkpt lat="42.75925" lon="1.87184">
        <ele>1566</ele>
        <time>2024-06-30T10:51:50Z</time>
      </trkpt>
      <trkpt lat="42.75931" lon="1.87184">
        <ele>1565.6</ele>
        <time>2024-06-30T10:51:51Z</time>
      </trkpt>
      <trkpt lat="42.75936" lon="1.87182">
        <ele>1565.4</ele>
        <time>2024-06-30T10:51:52Z</time>
      </trkpt>
      <trkpt lat="42.75942" lon="1.8718">
        <ele>1564.8</ele>
        <time>2024-06-30T10:51:53Z</time>
      </trkpt>
      <trkpt lat="42.75954" lon="1.87173">
        <ele>1564.4</ele>
        <time>2024-06-30T10:51:55Z</time>
      </trkpt>
      <trkpt lat="42.7596" lon="1.87168">
        <ele>1564.4</ele>
        <time>2024-06-30T10:51:56Z</time>
      </trkpt>
      <trkpt lat="42.75973" lon="1.87157">
        <ele>1563.8</ele>
        <time>2024-06-30T10:51:58Z</time>
      </trkpt>
      <trkpt lat="42.7598" lon="1.87152">
        <ele>1563.6</ele>
        <time>2024-06-30T10:51:59Z</time>
      </trkpt>
      <trkpt lat="42.75988" lon="1.87149">
        <ele>1563.4</ele>
        <time>2024-06-30T10:52:00Z</time>
      </trkpt>
      <trkpt lat="42.75997" lon="1.87148">
        <ele>1563.4</ele>
        <time>2024-06-30T10:52:01Z</time>
      </trkpt>
      <trkpt lat="42.76007" lon="1.87151">
        <ele>1563.2</ele>
        <time>2024-06-30T10:52:02Z</time>
      </trkpt>
      <trkpt lat="42.76017" lon="1.87157">
        <ele>1563.2</ele>
        <time>2024-06-30T10:52:03Z</time>
      </trkpt>
      <trkpt lat="42.76027" lon="1.87164">
        <ele>1562.8</ele>
        <time>2024-06-30T10:52:04Z</time>
      </trkpt>
      <trkpt lat="42.76037" lon="1.87171">
        <ele>1562</ele>
        <time>2024-06-30T10:52:05Z</time>
      </trkpt>
      <trkpt lat="42.76048" lon="1.87179">
        <ele>1560.8</ele>
        <time>2024-06-30T10:52:06Z</time>
      </trkpt>
      <trkpt lat="42.76058" lon="1.87187">
        <ele>1559.2</ele>
        <time>2024-06-30T10:52:07Z</time>
      </trkpt>
      <trkpt lat="42.76079" lon="1.87204">
        <ele>1557.2</ele>
        <time>2024-06-30T10:52:09Z</time>
      </trkpt>
      <trkpt lat="42.76099" lon="1.87222">
        <ele>1555.6</ele>
        <time>2024-06-30T10:52:11Z</time>
      </trkpt>
      <trkpt lat="42.76108" lon="1.87231">
        <ele>1554.4</ele>
        <time>2024-06-30T10:52:12Z</time>
      </trkpt>
      <trkpt lat="42.76117" lon="1.87239">
        <ele>1553.4</ele>
        <time>2024-06-30T10:52:13Z</time>
      </trkpt>
      <trkpt lat="42.76127" lon="1.87248">
        <ele>1550.8</ele>
        <time>2024-06-30T10:52:14Z</time>
      </trkpt>
      <trkpt lat="42.76137" lon="1.87255">
        <ele>1549.8</ele>
        <time>2024-06-30T10:52:15Z</time>
      </trkpt>
      <trkpt lat="42.76146" lon="1.8726">
        <ele>1548.4</ele>
        <time>2024-06-30T10:52:16Z</time>
      </trkpt>
      <trkpt lat="42.76155" lon="1.87266">
        <ele>1547.8</ele>
        <time>2024-06-30T10:52:17Z</time>
      </trkpt>
      <trkpt lat="42.76163" lon="1.87273">
        <ele>1547.4</ele>
        <time>2024-06-30T10:52:18Z</time>
      </trkpt>
      <trkpt lat="42.76171" lon="1.87282">
        <ele>1547</ele>
        <time>2024-06-30T10:52:19Z</time>
      </trkpt>
      <trkpt lat="42.76178" lon="1.87291">
        <ele>1546.8</ele>
        <time>2024-06-30T10:52:20Z</time>
      </trkpt>
      <trkpt lat="42.76186" lon="1.873">
        <ele>1546.2</ele>
        <time>2024-06-30T10:52:21Z</time>
      </trkpt>
      <trkpt lat="42.76201" lon="1.87321">
        <ele>1544.4</ele>
        <time>2024-06-30T10:52:23Z</time>
      </trkpt>
      <trkpt lat="42.76215" lon="1.87342">
        <ele>1542.6</ele>
        <time>2024-06-30T10:52:25Z</time>
      </trkpt>
      <trkpt lat="42.76221" lon="1.8735">
        <ele>1541.4</ele>
        <time>2024-06-30T10:52:26Z</time>
      </trkpt>
      <trkpt lat="42.76227" lon="1.87357">
        <ele>1541</ele>
        <time>2024-06-30T10:52:27Z</time>
      </trkpt>
      <trkpt lat="42.76235" lon="1.8736">
        <ele>1539.2</ele>
        <time>2024-06-30T10:52:28Z</time>
      </trkpt>
      <trkpt lat="42.76243" lon="1.87361">
        <ele>1538.6</ele>
        <time>2024-06-30T10:52:29Z</time>
      </trkpt>
      <trkpt lat="42.76248" lon="1.8736">
        <ele>1538</ele>
        <time>2024-06-30T10:52:30Z</time>
      </trkpt>
      <trkpt lat="42.76254" lon="1.87356">
        <ele>1537.6</ele>
        <time>2024-06-30T10:52:31Z</time>
      </trkpt>
      <trkpt lat="42.76261" lon="1.87351">
        <ele>1537</ele>
        <time>2024-06-30T10:52:32Z</time>
      </trkpt>
      <trkpt lat="42.76268" lon="1.87346">
        <ele>1536.2</ele>
        <time>2024-06-30T10:52:33Z</time>
      </trkpt>
      <trkpt lat="42.76275" lon="1.87341">
        <ele>1535.8</ele>
        <time>2024-06-30T10:52:34Z</time>
      </trkpt>
      <trkpt lat="42.76283" lon="1.87336">
        <ele>1533.8</ele>
        <time>2024-06-30T10:52:35Z</time>
      </trkpt>
      <trkpt lat="42.76299" lon="1.87325">
        <ele>1532.2</ele>
        <time>2024-06-30T10:52:37Z</time>
      </trkpt>
      <trkpt lat="42.76315" lon="1.87317">
        <ele>1531.2</ele>
        <time>2024-06-30T10:52:39Z</time>
      </trkpt>
      <trkpt lat="42.76323" lon="1.87314">
        <ele>1531</ele>
        <time>2024-06-30T10:52:40Z</time>
      </trkpt>
      <trkpt lat="42.7633" lon="1.87313">
        <ele>1530.8</ele>
        <time>2024-06-30T10:52:41Z</time>
      </trkpt>
      <trkpt lat="42.76338" lon="1.87313">
        <ele>1530.6</ele>
        <time>2024-06-30T10:52:42Z</time>
      </trkpt>
      <trkpt lat="42.76346" lon="1.87314">
        <ele>1530.4</ele>
        <time>2024-06-30T10:52:43Z</time>
      </trkpt>
      <trkpt lat="42.7635" lon="1.87314">
        <ele>1529.8</ele>
        <time>2024-06-30T10:52:44Z</time>
      </trkpt>
      <trkpt lat="42.76354" lon="1.87312">
        <ele>1529.6</ele>
        <time>2024-06-30T10:52:45Z</time>
      </trkpt>
      <trkpt lat="42.76357" lon="1.87307">
        <ele>1529.2</ele>
        <time>2024-06-30T10:52:46Z</time>
      </trkpt>
      <trkpt lat="42.76358" lon="1.87301">
        <ele>1528.4</ele>
        <time>2024-06-30T10:52:47Z</time>
      </trkpt>
      <trkpt lat="42.76357" lon="1.87294">
        <ele>1527.8</ele>
        <time>2024-06-30T10:52:48Z</time>
      </trkpt>
      <trkpt lat="42.76353" lon="1.87288">
        <ele>1527</ele>
        <time>2024-06-30T10:52:49Z</time>
      </trkpt>
      <trkpt lat="42.76348" lon="1.87283">
        <ele>1526.2</ele>
        <time>2024-06-30T10:52:50Z</time>
      </trkpt>
      <trkpt lat="42.76341" lon="1.87279">
        <ele>1525.2</ele>
        <time>2024-06-30T10:52:51Z</time>
      </trkpt>
      <trkpt lat="42.76335" lon="1.87276">
        <ele>1524.8</ele>
        <time>2024-06-30T10:52:52Z</time>
      </trkpt>
      <trkpt lat="42.76328" lon="1.87274">
        <ele>1524.4</ele>
        <time>2024-06-30T10:52:53Z</time>
      </trkpt>
      <trkpt lat="42.76322" lon="1.87273">
        <ele>1524</ele>
        <time>2024-06-30T10:52:54Z</time>
      </trkpt>
      <trkpt lat="42.76315" lon="1.87272">
        <ele>1523.6</ele>
        <time>2024-06-30T10:52:55Z</time>
      </trkpt>
      <trkpt lat="42.76309" lon="1.87272">
        <ele>1522.8</ele>
        <time>2024-06-30T10:52:56Z</time>
      </trkpt>
      <trkpt lat="42.76302" lon="1.8727">
        <ele>1522.4</ele>
        <time>2024-06-30T10:52:57Z</time>
      </trkpt>
      <trkpt lat="42.76296" lon="1.87268">
        <ele>1521.4</ele>
        <time>2024-06-30T10:52:58Z</time>
      </trkpt>
      <trkpt lat="42.76291" lon="1.87265">
        <ele>1520.8</ele>
        <time>2024-06-30T10:52:59Z</time>
      </trkpt>
      <trkpt lat="42.76285" lon="1.87261">
        <ele>1520.2</ele>
        <time>2024-06-30T10:53:00Z</time>
      </trkpt>
      <trkpt lat="42.76262" lon="1.87244">
        <ele>1519.2</ele>
        <time>2024-06-30T10:53:04Z</time>
      </trkpt>
      <trkpt lat="42.76256" lon="1.8724">
        <ele>1518.6</ele>
        <time>2024-06-30T10:53:05Z</time>
      </trkpt>
      <trkpt lat="42.76251" lon="1.87236">
        <ele>1518.4</ele>
        <time>2024-06-30T10:53:06Z</time>
      </trkpt>
      <trkpt lat="42.7622" lon="1.87218">
        <ele>1518.2</ele>
        <time>2024-06-30T10:53:11Z</time>
      </trkpt>
      <trkpt lat="42.76203" lon="1.87203">
        <ele>1517.8</ele>
        <time>2024-06-30T10:53:14Z</time>
      </trkpt>
      <trkpt lat="42.76199" lon="1.87196">
        <ele>1517.8</ele>
        <time>2024-06-30T10:53:15Z</time>
      </trkpt>
      <trkpt lat="42.76194" lon="1.87188">
        <ele>1517.8</ele>
        <time>2024-06-30T10:53:16Z</time>
      </trkpt>
      <trkpt lat="42.76193" lon="1.87183">
        <ele>1517.6</ele>
        <time>2024-06-30T10:53:17Z</time>
      </trkpt>
      <trkpt lat="42.76191" lon="1.87176">
        <ele>1517.4</ele>
        <time>2024-06-30T10:53:18Z</time>
      </trkpt>
      <trkpt lat="42.76191" lon="1.87166">
        <ele>1517</ele>
        <time>2024-06-30T10:53:19Z</time>
      </trkpt>
      <trkpt lat="42.7619" lon="1.87156">
        <ele>1517</ele>
        <time>2024-06-30T10:53:20Z</time>
      </trkpt>
      <trkpt lat="42.76188" lon="1.87147">
        <ele>1516.6</ele>
        <time>2024-06-30T10:53:21Z</time>
      </trkpt>
      <trkpt lat="42.76186" lon="1.87136">
        <ele>1516.2</ele>
        <time>2024-06-30T10:53:22Z</time>
      </trkpt>
      <trkpt lat="42.76182" lon="1.87127">
        <ele>1516.2</ele>
        <time>2024-06-30T10:53:23Z</time>
      </trkpt>
      <trkpt lat="42.76174" lon="1.87108">
        <ele>1515.8</ele>
        <time>2024-06-30T10:53:25Z</time>
      </trkpt>
      <trkpt lat="42.76168" lon="1.871">
        <ele>1515.6</ele>
        <time>2024-06-30T10:53:26Z</time>
      </trkpt>
      <trkpt lat="42.76163" lon="1.87092">
        <ele>1515.4</ele>
        <time>2024-06-30T10:53:27Z</time>
      </trkpt>
      <trkpt lat="42.76157" lon="1.87084">
        <ele>1515</ele>
        <time>2024-06-30T10:53:28Z</time>
      </trkpt>
      <trkpt lat="42.76147" lon="1.87068">
        <ele>1514.8</ele>
        <time>2024-06-30T10:53:30Z</time>
      </trkpt>
      <trkpt lat="42.76142" lon="1.87059">
        <ele>1514.4</ele>
        <time>2024-06-30T10:53:31Z</time>
      </trkpt>
      <trkpt lat="42.76137" lon="1.87051">
        <ele>1514.4</ele>
        <time>2024-06-30T10:53:32Z</time>
      </trkpt>
      <trkpt lat="42.76125" lon="1.87034">
        <ele>1514.2</ele>
        <time>2024-06-30T10:53:34Z</time>
      </trkpt>
      <trkpt lat="42.76105" lon="1.86997">
        <ele>1514.2</ele>
        <time>2024-06-30T10:53:38Z</time>
      </trkpt>
      <trkpt lat="42.761" lon="1.8699">
        <ele>1514.2</ele>
        <time>2024-06-30T10:53:39Z</time>
      </trkpt>
      <trkpt lat="42.76095" lon="1.86983">
        <ele>1513.6</ele>
        <time>2024-06-30T10:53:40Z</time>
      </trkpt>
      <trkpt lat="42.76087" lon="1.86976">
        <ele>1513.6</ele>
        <time>2024-06-30T10:53:41Z</time>
      </trkpt>
      <trkpt lat="42.76082" lon="1.86969">
        <ele>1513.4</ele>
        <time>2024-06-30T10:53:42Z</time>
      </trkpt>
      <trkpt lat="42.76077" lon="1.86961">
        <ele>1513.4</ele>
        <time>2024-06-30T10:53:43Z</time>
      </trkpt>
      <trkpt lat="42.76073" lon="1.86953">
        <ele>1513</ele>
        <time>2024-06-30T10:53:44Z</time>
      </trkpt>
      <trkpt lat="42.76069" lon="1.86946">
        <ele>1512.6</ele>
        <time>2024-06-30T10:53:45Z</time>
      </trkpt>
      <trkpt lat="42.76063" lon="1.86934">
        <ele>1512</ele>
        <time>2024-06-30T10:53:47Z</time>
      </trkpt>
      <trkpt lat="42.76061" lon="1.86929">
        <ele>1512</ele>
        <time>2024-06-30T10:53:48Z</time>
      </trkpt>
      <trkpt lat="42.76058" lon="1.86924">
        <ele>1512</ele>
        <time>2024-06-30T10:53:49Z</time>
      </trkpt>
      <trkpt lat="42.76054" lon="1.86919">
        <ele>1512</ele>
        <time>2024-06-30T10:53:50Z</time>
      </trkpt>
      <trkpt lat="42.7605" lon="1.86915">
        <ele>1511.8</ele>
        <time>2024-06-30T10:53:51Z</time>
      </trkpt>
      <trkpt lat="42.76047" lon="1.86911">
        <ele>1511.8</ele>
        <time>2024-06-30T10:53:52Z</time>
      </trkpt>
      <trkpt lat="42.76043" lon="1.86908">
        <ele>1511.8</ele>
        <time>2024-06-30T10:53:53Z</time>
      </trkpt>
      <trkpt lat="42.76039" lon="1.86905">
        <ele>1511.8</ele>
        <time>2024-06-30T10:53:54Z</time>
      </trkpt>
      <trkpt lat="42.76036" lon="1.86903">
        <ele>1512</ele>
        <time>2024-06-30T10:53:55Z</time>
      </trkpt>
      <trkpt lat="42.76033" lon="1.869">
        <ele>1512.4</ele>
        <time>2024-06-30T10:53:56Z</time>
      </trkpt>
      <trkpt lat="42.76029" lon="1.86898">
        <ele>1512.4</ele>
        <time>2024-06-30T10:53:57Z</time>
      </trkpt>
      <trkpt lat="42.76026" lon="1.86896">
        <ele>1512.8</ele>
        <time>2024-06-30T10:53:58Z</time>
      </trkpt>
      <trkpt lat="42.76018" lon="1.86895">
        <ele>1513.4</ele>
        <time>2024-06-30T10:54:00Z</time>
      </trkpt>
      <trkpt lat="42.76014" lon="1.86894">
        <ele>1514</ele>
        <time>2024-06-30T10:54:01Z</time>
      </trkpt>
      <trkpt lat="42.76011" lon="1.86895">
        <ele>1514.4</ele>
        <time>2024-06-30T10:54:02Z</time>
      </trkpt>
      <trkpt lat="42.76007" lon="1.86897">
        <ele>1514.8</ele>
        <time>2024-06-30T10:54:03Z</time>
      </trkpt>
      <trkpt lat="42.76004" lon="1.86899">
        <ele>1515.2</ele>
        <time>2024-06-30T10:54:04Z</time>
      </trkpt>
      <trkpt lat="42.76001" lon="1.86902">
        <ele>1515.8</ele>
        <time>2024-06-30T10:54:05Z</time>
      </trkpt>
      <trkpt lat="42.75998" lon="1.86906">
        <ele>1516</ele>
        <time>2024-06-30T10:54:06Z</time>
      </trkpt>
      <trkpt lat="42.75996" lon="1.86911">
        <ele>1516.2</ele>
        <time>2024-06-30T10:54:07Z</time>
      </trkpt>
      <trkpt lat="42.75992" lon="1.86917">
        <ele>1516.4</ele>
        <time>2024-06-30T10:54:08Z</time>
      </trkpt>
      <trkpt lat="42.75988" lon="1.86922">
        <ele>1516.4</ele>
        <time>2024-06-30T10:54:09Z</time>
      </trkpt>
      <trkpt lat="42.75984" lon="1.86928">
        <ele>1516.6</ele>
        <time>2024-06-30T10:54:10Z</time>
      </trkpt>
      <trkpt lat="42.75981" lon="1.86934">
        <ele>1516.6</ele>
        <time>2024-06-30T10:54:11Z</time>
      </trkpt>
      <trkpt lat="42.75976" lon="1.86941">
        <ele>1516.6</ele>
        <time>2024-06-30T10:54:12Z</time>
      </trkpt>
      <trkpt lat="42.75971" lon="1.86948">
        <ele>1516.6</ele>
        <time>2024-06-30T10:54:13Z</time>
      </trkpt>
      <trkpt lat="42.75966" lon="1.86955">
        <ele>1516.6</ele>
        <time>2024-06-30T10:54:14Z</time>
      </trkpt>
      <trkpt lat="42.7596" lon="1.86961">
        <ele>1516.6</ele>
        <time>2024-06-30T10:54:15Z</time>
      </trkpt>
      <trkpt lat="42.75953" lon="1.86968">
        <ele>1516.4</ele>
        <time>2024-06-30T10:54:16Z</time>
      </trkpt>
      <trkpt lat="42.75946" lon="1.86976">
        <ele>1516.2</ele>
        <time>2024-06-30T10:54:17Z</time>
      </trkpt>
      <trkpt lat="42.75939" lon="1.86982">
        <ele>1516</ele>
        <time>2024-06-30T10:54:18Z</time>
      </trkpt>
      <trkpt lat="42.75931" lon="1.86988">
        <ele>1516</ele>
        <time>2024-06-30T10:54:19Z</time>
      </trkpt>
      <trkpt lat="42.75924" lon="1.86995">
        <ele>1515.6</ele>
        <time>2024-06-30T10:54:20Z</time>
      </trkpt>
      <trkpt lat="42.75916" lon="1.87002">
        <ele>1515.4</ele>
        <time>2024-06-30T10:54:21Z</time>
      </trkpt>
      <trkpt lat="42.75909" lon="1.87007">
        <ele>1515</ele>
        <time>2024-06-30T10:54:22Z</time>
      </trkpt>
      <trkpt lat="42.75901" lon="1.87013">
        <ele>1514.8</ele>
        <time>2024-06-30T10:54:23Z</time>
      </trkpt>
      <trkpt lat="42.75893" lon="1.87018">
        <ele>1513.4</ele>
        <time>2024-06-30T10:54:24Z</time>
      </trkpt>
      <trkpt lat="42.75883" lon="1.87023">
        <ele>1513.2</ele>
        <time>2024-06-30T10:54:25Z</time>
      </trkpt>
      <trkpt lat="42.75874" lon="1.87027">
        <ele>1512.4</ele>
        <time>2024-06-30T10:54:26Z</time>
      </trkpt>
      <trkpt lat="42.7586" lon="1.87033">
        <ele>1511.4</ele>
        <time>2024-06-30T10:54:28Z</time>
      </trkpt>
      <trkpt lat="42.75851" lon="1.87034">
        <ele>1510.6</ele>
        <time>2024-06-30T10:54:29Z</time>
      </trkpt>
      <trkpt lat="42.75843" lon="1.87034">
        <ele>1510.2</ele>
        <time>2024-06-30T10:54:30Z</time>
      </trkpt>
      <trkpt lat="42.75834" lon="1.87034">
        <ele>1509.6</ele>
        <time>2024-06-30T10:54:31Z</time>
      </trkpt>
      <trkpt lat="42.75819" lon="1.87032">
        <ele>1508.8</ele>
        <time>2024-06-30T10:54:33Z</time>
      </trkpt>
      <trkpt lat="42.75815" lon="1.87033">
        <ele>1508.4</ele>
        <time>2024-06-30T10:54:34Z</time>
      </trkpt>
      <trkpt lat="42.75811" lon="1.87033">
        <ele>1508.4</ele>
        <time>2024-06-30T10:54:35Z</time>
      </trkpt>
      <trkpt lat="42.75808" lon="1.87035">
        <ele>1508.2</ele>
        <time>2024-06-30T10:54:36Z</time>
      </trkpt>
      <trkpt lat="42.75804" lon="1.87035">
        <ele>1508.2</ele>
        <time>2024-06-30T10:54:37Z</time>
      </trkpt>
      <trkpt lat="42.758" lon="1.87036">
        <ele>1508.2</ele>
        <time>2024-06-30T10:54:38Z</time>
      </trkpt>
      <trkpt lat="42.75791" lon="1.87036">
        <ele>1508.8</ele>
        <time>2024-06-30T10:54:40Z</time>
      </trkpt>
      <trkpt lat="42.75782" lon="1.87038">
        <ele>1509</ele>
        <time>2024-06-30T10:54:42Z</time>
      </trkpt>
      <trkpt lat="42.75778" lon="1.87038">
        <ele>1509.4</ele>
        <time>2024-06-30T10:54:43Z</time>
      </trkpt>
      <trkpt lat="42.75773" lon="1.87038">
        <ele>1509.6</ele>
        <time>2024-06-30T10:54:44Z</time>
      </trkpt>
      <trkpt lat="42.75769" lon="1.87038">
        <ele>1509.8</ele>
        <time>2024-06-30T10:54:45Z</time>
      </trkpt>
      <trkpt lat="42.75761" lon="1.87038">
        <ele>1510.4</ele>
        <time>2024-06-30T10:54:47Z</time>
      </trkpt>
      <trkpt lat="42.75757" lon="1.87038">
        <ele>1510.6</ele>
        <time>2024-06-30T10:54:48Z</time>
      </trkpt>
      <trkpt lat="42.75747" lon="1.87039">
        <ele>1511.6</ele>
        <time>2024-06-30T10:54:50Z</time>
      </trkpt>
      <trkpt lat="42.75734" lon="1.8704">
        <ele>1512.6</ele>
        <time>2024-06-30T10:54:53Z</time>
      </trkpt>
      <trkpt lat="42.75729" lon="1.8704">
        <ele>1513.2</ele>
        <time>2024-06-30T10:54:54Z</time>
      </trkpt>
      <trkpt lat="42.75721" lon="1.87041">
        <ele>1513.6</ele>
        <time>2024-06-30T10:54:56Z</time>
      </trkpt>
      <trkpt lat="42.75712" lon="1.8704">
        <ele>1514.4</ele>
        <time>2024-06-30T10:54:58Z</time>
      </trkpt>
      <trkpt lat="42.75707" lon="1.87039">
        <ele>1514.6</ele>
        <time>2024-06-30T10:54:59Z</time>
      </trkpt>
      <trkpt lat="42.75701" lon="1.87037">
        <ele>1514.8</ele>
        <time>2024-06-30T10:55:00Z</time>
      </trkpt>
      <trkpt lat="42.75696" lon="1.87036">
        <ele>1515.2</ele>
        <time>2024-06-30T10:55:01Z</time>
      </trkpt>
      <trkpt lat="42.75691" lon="1.87035">
        <ele>1515.2</ele>
        <time>2024-06-30T10:55:02Z</time>
      </trkpt>
      <trkpt lat="42.75687" lon="1.87035">
        <ele>1515.4</ele>
        <time>2024-06-30T10:55:03Z</time>
      </trkpt>
      <trkpt lat="42.75683" lon="1.87035">
        <ele>1515.8</ele>
        <time>2024-06-30T10:55:04Z</time>
      </trkpt>
      <trkpt lat="42.75679" lon="1.87035">
        <ele>1516</ele>
        <time>2024-06-30T10:55:05Z</time>
      </trkpt>
      <trkpt lat="42.75675" lon="1.87035">
        <ele>1516.4</ele>
        <time>2024-06-30T10:55:06Z</time>
      </trkpt>
      <trkpt lat="42.75671" lon="1.87035">
        <ele>1516.6</ele>
        <time>2024-06-30T10:55:07Z</time>
      </trkpt>
      <trkpt lat="42.75667" lon="1.87035">
        <ele>1517</ele>
        <time>2024-06-30T10:55:08Z</time>
      </trkpt>
      <trkpt lat="42.75665" lon="1.87034">
        <ele>1517</ele>
        <time>2024-06-30T10:55:09Z</time>
      </trkpt>
      <trkpt lat="42.7566" lon="1.87034">
        <ele>1517.2</ele>
        <time>2024-06-30T10:55:10Z</time>
      </trkpt>
      <trkpt lat="42.75656" lon="1.87033">
        <ele>1517.4</ele>
        <time>2024-06-30T10:55:11Z</time>
      </trkpt>
      <trkpt lat="42.75652" lon="1.87033">
        <ele>1517.4</ele>
        <time>2024-06-30T10:55:12Z</time>
      </trkpt>
      <trkpt lat="42.75647" lon="1.87032">
        <ele>1517.6</ele>
        <time>2024-06-30T10:55:13Z</time>
      </trkpt>
      <trkpt lat="42.75643" lon="1.87032">
        <ele>1517.8</ele>
        <time>2024-06-30T10:55:14Z</time>
      </trkpt>
      <trkpt lat="42.7564" lon="1.87032">
        <ele>1517.8</ele>
        <time>2024-06-30T10:55:15Z</time>
      </trkpt>
      <trkpt lat="42.75635" lon="1.87032">
        <ele>1518</ele>
        <time>2024-06-30T10:55:16Z</time>
      </trkpt>
      <trkpt lat="42.7563" lon="1.87031">
        <ele>1518.2</ele>
        <time>2024-06-30T10:55:17Z</time>
      </trkpt>
      <trkpt lat="42.75626" lon="1.87031">
        <ele>1518.4</ele>
        <time>2024-06-30T10:55:18Z</time>
      </trkpt>
      <trkpt lat="42.75622" lon="1.8703">
        <ele>1518.6</ele>
        <time>2024-06-30T10:55:19Z</time>
      </trkpt>
      <trkpt lat="42.75617" lon="1.8703">
        <ele>1519</ele>
        <time>2024-06-30T10:55:20Z</time>
      </trkpt>
      <trkpt lat="42.75613" lon="1.87028">
        <ele>1519.2</ele>
        <time>2024-06-30T10:55:21Z</time>
      </trkpt>
      <trkpt lat="42.75609" lon="1.8703">
        <ele>1519.4</ele>
        <time>2024-06-30T10:55:22Z</time>
      </trkpt>
      <trkpt lat="42.75607" lon="1.87031">
        <ele>1519.4</ele>
        <time>2024-06-30T10:55:23Z</time>
      </trkpt>
      <trkpt lat="42.75604" lon="1.87029">
        <ele>1519.6</ele>
        <time>2024-06-30T10:55:24Z</time>
      </trkpt>
      <trkpt lat="42.75601" lon="1.87028">
        <ele>1519.6</ele>
        <time>2024-06-30T10:55:25Z</time>
      </trkpt>
      <trkpt lat="42.75598" lon="1.87026">
        <ele>1519.8</ele>
        <time>2024-06-30T10:55:26Z</time>
      </trkpt>
      <trkpt lat="42.75594" lon="1.87025">
        <ele>1519.8</ele>
        <time>2024-06-30T10:55:27Z</time>
      </trkpt>
      <trkpt lat="42.75592" lon="1.87024">
        <ele>1520</ele>
        <time>2024-06-30T10:55:28Z</time>
      </trkpt>
      <trkpt lat="42.75587" lon="1.87022">
        <ele>1520.4</ele>
        <time>2024-06-30T10:55:29Z</time>
      </trkpt>
      <trkpt lat="42.75583" lon="1.8702">
        <ele>1520.6</ele>
        <time>2024-06-30T10:55:30Z</time>
      </trkpt>
      <trkpt lat="42.75579" lon="1.87018">
        <ele>1520.8</ele>
        <time>2024-06-30T10:55:31Z</time>
      </trkpt>
      <trkpt lat="42.75575" lon="1.87016">
        <ele>1520.8</ele>
        <time>2024-06-30T10:55:32Z</time>
      </trkpt>
      <trkpt lat="42.75572" lon="1.87013">
        <ele>1521</ele>
        <time>2024-06-30T10:55:33Z</time>
      </trkpt>
      <trkpt lat="42.75566" lon="1.87009">
        <ele>1521</ele>
        <time>2024-06-30T10:55:34Z</time>
      </trkpt>
      <trkpt lat="42.75562" lon="1.87006">
        <ele>1521</ele>
        <time>2024-06-30T10:55:35Z</time>
      </trkpt>
      <trkpt lat="42.75557" lon="1.87003">
        <ele>1521</ele>
        <time>2024-06-30T10:55:36Z</time>
      </trkpt>
      <trkpt lat="42.75552" lon="1.87001">
        <ele>1521</ele>
        <time>2024-06-30T10:55:37Z</time>
      </trkpt>
      <trkpt lat="42.75548" lon="1.86999">
        <ele>1521</ele>
        <time>2024-06-30T10:55:38Z</time>
      </trkpt>
      <trkpt lat="42.75543" lon="1.86997">
        <ele>1520.8</ele>
        <time>2024-06-30T10:55:39Z</time>
      </trkpt>
      <trkpt lat="42.75538" lon="1.86994">
        <ele>1520.8</ele>
        <time>2024-06-30T10:55:40Z</time>
      </trkpt>
      <trkpt lat="42.75529" lon="1.8699">
        <ele>1520.8</ele>
        <time>2024-06-30T10:55:41Z</time>
      </trkpt>
      <trkpt lat="42.75526" lon="1.86991">
        <ele>1520.6</ele>
        <time>2024-06-30T10:55:42Z</time>
      </trkpt>
      <trkpt lat="42.75522" lon="1.86993">
        <ele>1520.2</ele>
        <time>2024-06-30T10:55:43Z</time>
      </trkpt>
      <trkpt lat="42.7552" lon="1.86992">
        <ele>1520.2</ele>
        <time>2024-06-30T10:55:44Z</time>
      </trkpt>
      <trkpt lat="42.75516" lon="1.86992">
        <ele>1520.2</ele>
        <time>2024-06-30T10:55:45Z</time>
      </trkpt>
      <trkpt lat="42.75512" lon="1.86992">
        <ele>1520.2</ele>
        <time>2024-06-30T10:55:46Z</time>
      </trkpt>
      <trkpt lat="42.75509" lon="1.86991">
        <ele>1520.2</ele>
        <time>2024-06-30T10:55:47Z</time>
      </trkpt>
      <trkpt lat="42.75506" lon="1.86991">
        <ele>1520.4</ele>
        <time>2024-06-30T10:55:48Z</time>
      </trkpt>
      <trkpt lat="42.75503" lon="1.86991">
        <ele>1520.8</ele>
        <time>2024-06-30T10:55:49Z</time>
      </trkpt>
      <trkpt lat="42.755" lon="1.8699">
        <ele>1521.2</ele>
        <time>2024-06-30T10:55:50Z</time>
      </trkpt>
      <trkpt lat="42.75494" lon="1.86988">
        <ele>1521.6</ele>
        <time>2024-06-30T10:55:52Z</time>
      </trkpt>
      <trkpt lat="42.75492" lon="1.86988">
        <ele>1521.6</ele>
        <time>2024-06-30T10:55:53Z</time>
      </trkpt>
      <trkpt lat="42.75489" lon="1.86988">
        <ele>1521.8</ele>
        <time>2024-06-30T10:55:54Z</time>
      </trkpt>
      <trkpt lat="42.75486" lon="1.86988">
        <ele>1522</ele>
        <time>2024-06-30T10:55:55Z</time>
      </trkpt>
      <trkpt lat="42.75482" lon="1.86988">
        <ele>1522.2</ele>
        <time>2024-06-30T10:55:56Z</time>
      </trkpt>
      <trkpt lat="42.75478" lon="1.86987">
        <ele>1522.6</ele>
        <time>2024-06-30T10:55:57Z</time>
      </trkpt>
      <trkpt lat="42.75476" lon="1.86987">
        <ele>1523</ele>
        <time>2024-06-30T10:55:58Z</time>
      </trkpt>
      <trkpt lat="42.75473" lon="1.86987">
        <ele>1523.8</ele>
        <time>2024-06-30T10:55:59Z</time>
      </trkpt>
      <trkpt lat="42.7547" lon="1.86987">
        <ele>1524</ele>
        <time>2024-06-30T10:56:00Z</time>
      </trkpt>
      <trkpt lat="42.75466" lon="1.86987">
        <ele>1524.4</ele>
        <time>2024-06-30T10:56:01Z</time>
      </trkpt>
      <trkpt lat="42.75464" lon="1.86987">
        <ele>1524.8</ele>
        <time>2024-06-30T10:56:02Z</time>
      </trkpt>
      <trkpt lat="42.75461" lon="1.86986">
        <ele>1525.4</ele>
        <time>2024-06-30T10:56:03Z</time>
      </trkpt>
      <trkpt lat="42.75458" lon="1.86986">
        <ele>1525.8</ele>
        <time>2024-06-30T10:56:04Z</time>
      </trkpt>
      <trkpt lat="42.75456" lon="1.86986">
        <ele>1526.2</ele>
        <time>2024-06-30T10:56:05Z</time>
      </trkpt>
      <trkpt lat="42.75452" lon="1.86986">
        <ele>1526.6</ele>
        <time>2024-06-30T10:56:06Z</time>
      </trkpt>
      <trkpt lat="42.75449" lon="1.86986">
        <ele>1526.8</ele>
        <time>2024-06-30T10:56:07Z</time>
      </trkpt>
      <trkpt lat="42.75446" lon="1.86987">
        <ele>1527.8</ele>
        <time>2024-06-30T10:56:08Z</time>
      </trkpt>
      <trkpt lat="42.75444" lon="1.86989">
        <ele>1528.2</ele>
        <time>2024-06-30T10:56:09Z</time>
      </trkpt>
      <trkpt lat="42.75441" lon="1.8699">
        <ele>1528.8</ele>
        <time>2024-06-30T10:56:10Z</time>
      </trkpt>
      <trkpt lat="42.75437" lon="1.86991">
        <ele>1529</ele>
        <time>2024-06-30T10:56:11Z</time>
      </trkpt>
      <trkpt lat="42.75434" lon="1.86992">
        <ele>1529.4</ele>
        <time>2024-06-30T10:56:12Z</time>
      </trkpt>
      <trkpt lat="42.75431" lon="1.86991">
        <ele>1530</ele>
        <time>2024-06-30T10:56:13Z</time>
      </trkpt>
      <trkpt lat="42.75429" lon="1.86989">
        <ele>1530.2</ele>
        <time>2024-06-30T10:56:14Z</time>
      </trkpt>
      <trkpt lat="42.75426" lon="1.86986">
        <ele>1530.8</ele>
        <time>2024-06-30T10:56:15Z</time>
      </trkpt>
      <trkpt lat="42.75422" lon="1.86983">
        <ele>1531</ele>
        <time>2024-06-30T10:56:16Z</time>
      </trkpt>
      <trkpt lat="42.7542" lon="1.8698">
        <ele>1531.4</ele>
        <time>2024-06-30T10:56:17Z</time>
      </trkpt>
      <trkpt lat="42.75417" lon="1.86976">
        <ele>1531.6</ele>
        <time>2024-06-30T10:56:18Z</time>
      </trkpt>
      <trkpt lat="42.75416" lon="1.86972">
        <ele>1532.2</ele>
        <time>2024-06-30T10:56:19Z</time>
      </trkpt>
      <trkpt lat="42.75414" lon="1.86968">
        <ele>1532.8</ele>
        <time>2024-06-30T10:56:20Z</time>
      </trkpt>
      <trkpt lat="42.75412" lon="1.86963">
        <ele>1532.8</ele>
        <time>2024-06-30T10:56:21Z</time>
      </trkpt>
      <trkpt lat="42.75411" lon="1.86957">
        <ele>1533.2</ele>
        <time>2024-06-30T10:56:22Z</time>
      </trkpt>
      <trkpt lat="42.7541" lon="1.86951">
        <ele>1533.4</ele>
        <time>2024-06-30T10:56:23Z</time>
      </trkpt>
      <trkpt lat="42.75409" lon="1.86946">
        <ele>1533.6</ele>
        <time>2024-06-30T10:56:24Z</time>
      </trkpt>
      <trkpt lat="42.75408" lon="1.8694">
        <ele>1533.6</ele>
        <time>2024-06-30T10:56:25Z</time>
      </trkpt>
      <trkpt lat="42.75406" lon="1.86934">
        <ele>1534.2</ele>
        <time>2024-06-30T10:56:26Z</time>
      </trkpt>
      <trkpt lat="42.75405" lon="1.86928">
        <ele>1534.8</ele>
        <time>2024-06-30T10:56:27Z</time>
      </trkpt>
      <trkpt lat="42.75404" lon="1.86923">
        <ele>1535</ele>
        <time>2024-06-30T10:56:28Z</time>
      </trkpt>
      <trkpt lat="42.75402" lon="1.86919">
        <ele>1535.4</ele>
        <time>2024-06-30T10:56:29Z</time>
      </trkpt>
      <trkpt lat="42.754" lon="1.86915">
        <ele>1535.6</ele>
        <time>2024-06-30T10:56:30Z</time>
      </trkpt>
      <trkpt lat="42.75398" lon="1.86911">
        <ele>1536</ele>
        <time>2024-06-30T10:56:31Z</time>
      </trkpt>
      <trkpt lat="42.75394" lon="1.86908">
        <ele>1536.2</ele>
        <time>2024-06-30T10:56:32Z</time>
      </trkpt>
      <trkpt lat="42.75391" lon="1.86907">
        <ele>1536.6</ele>
        <time>2024-06-30T10:56:33Z</time>
      </trkpt>
      <trkpt lat="42.75387" lon="1.86906">
        <ele>1537</ele>
        <time>2024-06-30T10:56:34Z</time>
      </trkpt>
      <trkpt lat="42.75384" lon="1.86905">
        <ele>1537.4</ele>
        <time>2024-06-30T10:56:35Z</time>
      </trkpt>
      <trkpt lat="42.7538" lon="1.86906">
        <ele>1537.8</ele>
        <time>2024-06-30T10:56:36Z</time>
      </trkpt>
      <trkpt lat="42.75376" lon="1.86906">
        <ele>1538</ele>
        <time>2024-06-30T10:56:37Z</time>
      </trkpt>
      <trkpt lat="42.75372" lon="1.86907">
        <ele>1538.6</ele>
        <time>2024-06-30T10:56:38Z</time>
      </trkpt>
      <trkpt lat="42.75369" lon="1.86908">
        <ele>1538.8</ele>
        <time>2024-06-30T10:56:39Z</time>
      </trkpt>
      <trkpt lat="42.75366" lon="1.86909">
        <ele>1539</ele>
        <time>2024-06-30T10:56:40Z</time>
      </trkpt>
      <trkpt lat="42.75363" lon="1.8691">
        <ele>1539.2</ele>
        <time>2024-06-30T10:56:41Z</time>
      </trkpt>
      <trkpt lat="42.75358" lon="1.86911">
        <ele>1539.8</ele>
        <time>2024-06-30T10:56:42Z</time>
      </trkpt>
      <trkpt lat="42.75354" lon="1.86911">
        <ele>1540.4</ele>
        <time>2024-06-30T10:56:43Z</time>
      </trkpt>
      <trkpt lat="42.75351" lon="1.86912">
        <ele>1540.6</ele>
        <time>2024-06-30T10:56:44Z</time>
      </trkpt>
      <trkpt lat="42.75347" lon="1.86912">
        <ele>1540.8</ele>
        <time>2024-06-30T10:56:45Z</time>
      </trkpt>
      <trkpt lat="42.75344" lon="1.86913">
        <ele>1541.2</ele>
        <time>2024-06-30T10:56:46Z</time>
      </trkpt>
      <trkpt lat="42.7534" lon="1.86913">
        <ele>1541.4</ele>
        <time>2024-06-30T10:56:47Z</time>
      </trkpt>
      <trkpt lat="42.75336" lon="1.86914">
        <ele>1541.6</ele>
        <time>2024-06-30T10:56:48Z</time>
      </trkpt>
      <trkpt lat="42.75333" lon="1.86914">
        <ele>1542</ele>
        <time>2024-06-30T10:56:49Z</time>
      </trkpt>
      <trkpt lat="42.75329" lon="1.86914">
        <ele>1542.6</ele>
        <time>2024-06-30T10:56:50Z</time>
      </trkpt>
      <trkpt lat="42.75326" lon="1.86915">
        <ele>1542.8</ele>
        <time>2024-06-30T10:56:51Z</time>
      </trkpt>
      <trkpt lat="42.75322" lon="1.86916">
        <ele>1543</ele>
        <time>2024-06-30T10:56:52Z</time>
      </trkpt>
      <trkpt lat="42.75319" lon="1.86918">
        <ele>1543.4</ele>
        <time>2024-06-30T10:56:53Z</time>
      </trkpt>
      <trkpt lat="42.75316" lon="1.8692">
        <ele>1543.6</ele>
        <time>2024-06-30T10:56:54Z</time>
      </trkpt>
      <trkpt lat="42.75313" lon="1.86922">
        <ele>1544</ele>
        <time>2024-06-30T10:56:55Z</time>
      </trkpt>
      <trkpt lat="42.7531" lon="1.86924">
        <ele>1544.4</ele>
        <time>2024-06-30T10:56:56Z</time>
      </trkpt>
      <trkpt lat="42.75307" lon="1.86926">
        <ele>1544.4</ele>
        <time>2024-06-30T10:56:57Z</time>
      </trkpt>
      <trkpt lat="42.75304" lon="1.86928">
        <ele>1544.8</ele>
        <time>2024-06-30T10:56:58Z</time>
      </trkpt>
      <trkpt lat="42.75301" lon="1.8693">
        <ele>1545</ele>
        <time>2024-06-30T10:56:59Z</time>
      </trkpt>
      <trkpt lat="42.75298" lon="1.86933">
        <ele>1545.2</ele>
        <time>2024-06-30T10:57:00Z</time>
      </trkpt>
      <trkpt lat="42.75295" lon="1.86935">
        <ele>1545.8</ele>
        <time>2024-06-30T10:57:01Z</time>
      </trkpt>
      <trkpt lat="42.75293" lon="1.86937">
        <ele>1546.2</ele>
        <time>2024-06-30T10:57:02Z</time>
      </trkpt>
      <trkpt lat="42.7529" lon="1.86939">
        <ele>1546.6</ele>
        <time>2024-06-30T10:57:03Z</time>
      </trkpt>
      <trkpt lat="42.75287" lon="1.86941">
        <ele>1546.8</ele>
        <time>2024-06-30T10:57:04Z</time>
      </trkpt>
      <trkpt lat="42.75284" lon="1.86944">
        <ele>1547.2</ele>
        <time>2024-06-30T10:57:05Z</time>
      </trkpt>
      <trkpt lat="42.75282" lon="1.86946">
        <ele>1547.6</ele>
        <time>2024-06-30T10:57:06Z</time>
      </trkpt>
      <trkpt lat="42.75279" lon="1.86948">
        <ele>1548</ele>
        <time>2024-06-30T10:57:07Z</time>
      </trkpt>
      <trkpt lat="42.75275" lon="1.8695">
        <ele>1548.4</ele>
        <time>2024-06-30T10:57:08Z</time>
      </trkpt>
      <trkpt lat="42.75272" lon="1.86951">
        <ele>1548.6</ele>
        <time>2024-06-30T10:57:09Z</time>
      </trkpt>
      <trkpt lat="42.75269" lon="1.86952">
        <ele>1549.2</ele>
        <time>2024-06-30T10:57:10Z</time>
      </trkpt>
      <trkpt lat="42.75266" lon="1.86952">
        <ele>1549.4</ele>
        <time>2024-06-30T10:57:11Z</time>
      </trkpt>
      <trkpt lat="42.75263" lon="1.8695">
        <ele>1549.6</ele>
        <time>2024-06-30T10:57:12Z</time>
      </trkpt>
      <trkpt lat="42.75259" lon="1.86948">
        <ele>1549.8</ele>
        <time>2024-06-30T10:57:13Z</time>
      </trkpt>
      <trkpt lat="42.75256" lon="1.86945">
        <ele>1550</ele>
        <time>2024-06-30T10:57:14Z</time>
      </trkpt>
      <trkpt lat="42.75254" lon="1.86941">
        <ele>1550.2</ele>
        <time>2024-06-30T10:57:15Z</time>
      </trkpt>
      <trkpt lat="42.75251" lon="1.86938">
        <ele>1550.4</ele>
        <time>2024-06-30T10:57:16Z</time>
      </trkpt>
      <trkpt lat="42.75249" lon="1.86934">
        <ele>1550.6</ele>
        <time>2024-06-30T10:57:17Z</time>
      </trkpt>
      <trkpt lat="42.75246" lon="1.8693">
        <ele>1550.8</ele>
        <time>2024-06-30T10:57:18Z</time>
      </trkpt>
      <trkpt lat="42.75243" lon="1.86927">
        <ele>1551</ele>
        <time>2024-06-30T10:57:19Z</time>
      </trkpt>
      <trkpt lat="42.7524" lon="1.86923">
        <ele>1551.2</ele>
        <time>2024-06-30T10:57:20Z</time>
      </trkpt>
      <trkpt lat="42.75238" lon="1.8692">
        <ele>1551.4</ele>
        <time>2024-06-30T10:57:21Z</time>
      </trkpt>
      <trkpt lat="42.75235" lon="1.86916">
        <ele>1551.6</ele>
        <time>2024-06-30T10:57:22Z</time>
      </trkpt>
      <trkpt lat="42.75232" lon="1.86913">
        <ele>1552</ele>
        <time>2024-06-30T10:57:23Z</time>
      </trkpt>
      <trkpt lat="42.75229" lon="1.8691">
        <ele>1552.6</ele>
        <time>2024-06-30T10:57:24Z</time>
      </trkpt>
      <trkpt lat="42.75226" lon="1.86908">
        <ele>1552.8</ele>
        <time>2024-06-30T10:57:25Z</time>
      </trkpt>
      <trkpt lat="42.75224" lon="1.86905">
        <ele>1553</ele>
        <time>2024-06-30T10:57:26Z</time>
      </trkpt>
      <trkpt lat="42.75221" lon="1.86903">
        <ele>1553.2</ele>
        <time>2024-06-30T10:57:27Z</time>
      </trkpt>
      <trkpt lat="42.75218" lon="1.86899">
        <ele>1553.6</ele>
        <time>2024-06-30T10:57:28Z</time>
      </trkpt>
      <trkpt lat="42.75215" lon="1.86896">
        <ele>1554</ele>
        <time>2024-06-30T10:57:29Z</time>
      </trkpt>
      <trkpt lat="42.75212" lon="1.86893">
        <ele>1554.2</ele>
        <time>2024-06-30T10:57:30Z</time>
      </trkpt>
      <trkpt lat="42.7521" lon="1.86891">
        <ele>1554.6</ele>
        <time>2024-06-30T10:57:31Z</time>
      </trkpt>
      <trkpt lat="42.75207" lon="1.86888">
        <ele>1554.8</ele>
        <time>2024-06-30T10:57:32Z</time>
      </trkpt>
      <trkpt lat="42.75205" lon="1.86886">
        <ele>1555.2</ele>
        <time>2024-06-30T10:57:33Z</time>
      </trkpt>
      <trkpt lat="42.75201" lon="1.86883">
        <ele>1555.4</ele>
        <time>2024-06-30T10:57:34Z</time>
      </trkpt>
      <trkpt lat="42.75197" lon="1.86881">
        <ele>1555.8</ele>
        <time>2024-06-30T10:57:35Z</time>
      </trkpt>
      <trkpt lat="42.75194" lon="1.8688">
        <ele>1556.4</ele>
        <time>2024-06-30T10:57:36Z</time>
      </trkpt>
      <trkpt lat="42.7519" lon="1.86879">
        <ele>1556.4</ele>
        <time>2024-06-30T10:57:37Z</time>
      </trkpt>
      <trkpt lat="42.75186" lon="1.86879">
        <ele>1557</ele>
        <time>2024-06-30T10:57:38Z</time>
      </trkpt>
      <trkpt lat="42.75183" lon="1.86879">
        <ele>1557.2</ele>
        <time>2024-06-30T10:57:39Z</time>
      </trkpt>
      <trkpt lat="42.7518" lon="1.86879">
        <ele>1557.4</ele>
        <time>2024-06-30T10:57:40Z</time>
      </trkpt>
      <trkpt lat="42.75176" lon="1.86879">
        <ele>1557.6</ele>
        <time>2024-06-30T10:57:41Z</time>
      </trkpt>
      <trkpt lat="42.75173" lon="1.86879">
        <ele>1558</ele>
        <time>2024-06-30T10:57:42Z</time>
      </trkpt>
      <trkpt lat="42.7517" lon="1.86879">
        <ele>1558</ele>
        <time>2024-06-30T10:57:43Z</time>
      </trkpt>
      <trkpt lat="42.75167" lon="1.86879">
        <ele>1558.4</ele>
        <time>2024-06-30T10:57:44Z</time>
      </trkpt>
      <trkpt lat="42.75163" lon="1.8688">
        <ele>1558.8</ele>
        <time>2024-06-30T10:57:45Z</time>
      </trkpt>
      <trkpt lat="42.7516" lon="1.86879">
        <ele>1559</ele>
        <time>2024-06-30T10:57:46Z</time>
      </trkpt>
      <trkpt lat="42.75157" lon="1.86878">
        <ele>1559.6</ele>
        <time>2024-06-30T10:57:47Z</time>
      </trkpt>
      <trkpt lat="42.75155" lon="1.86875">
        <ele>1559.8</ele>
        <time>2024-06-30T10:57:48Z</time>
      </trkpt>
      <trkpt lat="42.75155" lon="1.86871">
        <ele>1560.2</ele>
        <time>2024-06-30T10:57:49Z</time>
      </trkpt>
      <trkpt lat="42.75156" lon="1.86868">
        <ele>1560.4</ele>
        <time>2024-06-30T10:57:50Z</time>
      </trkpt>
      <trkpt lat="42.75158" lon="1.86866">
        <ele>1560.6</ele>
        <time>2024-06-30T10:57:51Z</time>
      </trkpt>
      <trkpt lat="42.75161" lon="1.86864">
        <ele>1560.8</ele>
        <time>2024-06-30T10:57:52Z</time>
      </trkpt>
      <trkpt lat="42.75164" lon="1.86864">
        <ele>1560.8</ele>
        <time>2024-06-30T10:57:53Z</time>
      </trkpt>
      <trkpt lat="42.75167" lon="1.86863">
        <ele>1561</ele>
        <time>2024-06-30T10:57:54Z</time>
      </trkpt>
      <trkpt lat="42.75171" lon="1.86863">
        <ele>1561.2</ele>
        <time>2024-06-30T10:57:55Z</time>
      </trkpt>
      <trkpt lat="42.75174" lon="1.86862">
        <ele>1561.8</ele>
        <time>2024-06-30T10:57:56Z</time>
      </trkpt>
      <trkpt lat="42.75177" lon="1.8686">
        <ele>1562</ele>
        <time>2024-06-30T10:57:57Z</time>
      </trkpt>
      <trkpt lat="42.7518" lon="1.86859">
        <ele>1562.2</ele>
        <time>2024-06-30T10:57:58Z</time>
      </trkpt>
      <trkpt lat="42.75183" lon="1.86857">
        <ele>1562.6</ele>
        <time>2024-06-30T10:57:59Z</time>
      </trkpt>
      <trkpt lat="42.75186" lon="1.86856">
        <ele>1563</ele>
        <time>2024-06-30T10:58:00Z</time>
      </trkpt>
      <trkpt lat="42.7519" lon="1.86854">
        <ele>1563.4</ele>
        <time>2024-06-30T10:58:01Z</time>
      </trkpt>
      <trkpt lat="42.75193" lon="1.86853">
        <ele>1563.6</ele>
        <time>2024-06-30T10:58:02Z</time>
      </trkpt>
      <trkpt lat="42.75195" lon="1.86852">
        <ele>1564.2</ele>
        <time>2024-06-30T10:58:03Z</time>
      </trkpt>
      <trkpt lat="42.75199" lon="1.8685">
        <ele>1564.2</ele>
        <time>2024-06-30T10:58:04Z</time>
      </trkpt>
      <trkpt lat="42.75202" lon="1.86849">
        <ele>1564.4</ele>
        <time>2024-06-30T10:58:05Z</time>
      </trkpt>
      <trkpt lat="42.75205" lon="1.86848">
        <ele>1564.6</ele>
        <time>2024-06-30T10:58:06Z</time>
      </trkpt>
      <trkpt lat="42.75208" lon="1.86848">
        <ele>1565.2</ele>
        <time>2024-06-30T10:58:07Z</time>
      </trkpt>
      <trkpt lat="42.75212" lon="1.86848">
        <ele>1565.6</ele>
        <time>2024-06-30T10:58:08Z</time>
      </trkpt>
      <trkpt lat="42.75215" lon="1.86848">
        <ele>1565.8</ele>
        <time>2024-06-30T10:58:09Z</time>
      </trkpt>
      <trkpt lat="42.75217" lon="1.86848">
        <ele>1566.2</ele>
        <time>2024-06-30T10:58:10Z</time>
      </trkpt>
      <trkpt lat="42.75221" lon="1.86848">
        <ele>1566.4</ele>
        <time>2024-06-30T10:58:11Z</time>
      </trkpt>
      <trkpt lat="42.75224" lon="1.86848">
        <ele>1566.8</ele>
        <time>2024-06-30T10:58:12Z</time>
      </trkpt>
      <trkpt lat="42.75227" lon="1.86848">
        <ele>1567</ele>
        <time>2024-06-30T10:58:13Z</time>
      </trkpt>
      <trkpt lat="42.7523" lon="1.86848">
        <ele>1567.4</ele>
        <time>2024-06-30T10:58:14Z</time>
      </trkpt>
      <trkpt lat="42.75233" lon="1.86848">
        <ele>1567.6</ele>
        <time>2024-06-30T10:58:15Z</time>
      </trkpt>
      <trkpt lat="42.75236" lon="1.86848">
        <ele>1567.8</ele>
        <time>2024-06-30T10:58:16Z</time>
      </trkpt>
      <trkpt lat="42.7524" lon="1.86847">
        <ele>1568.2</ele>
        <time>2024-06-30T10:58:17Z</time>
      </trkpt>
      <trkpt lat="42.75243" lon="1.86846">
        <ele>1568.4</ele>
        <time>2024-06-30T10:58:18Z</time>
      </trkpt>
      <trkpt lat="42.75246" lon="1.86844">
        <ele>1568.6</ele>
        <time>2024-06-30T10:58:19Z</time>
      </trkpt>
      <trkpt lat="42.75249" lon="1.86842">
        <ele>1568.8</ele>
        <time>2024-06-30T10:58:20Z</time>
      </trkpt>
      <trkpt lat="42.75252" lon="1.8684">
        <ele>1569.2</ele>
        <time>2024-06-30T10:58:21Z</time>
      </trkpt>
      <trkpt lat="42.75255" lon="1.86839">
        <ele>1569.4</ele>
        <time>2024-06-30T10:58:22Z</time>
      </trkpt>
      <trkpt lat="42.75258" lon="1.86837">
        <ele>1569.8</ele>
        <time>2024-06-30T10:58:23Z</time>
      </trkpt>
      <trkpt lat="42.75262" lon="1.86836">
        <ele>1570.2</ele>
        <time>2024-06-30T10:58:24Z</time>
      </trkpt>
      <trkpt lat="42.75265" lon="1.86835">
        <ele>1570.4</ele>
        <time>2024-06-30T10:58:25Z</time>
      </trkpt>
      <trkpt lat="42.75268" lon="1.86836">
        <ele>1570.6</ele>
        <time>2024-06-30T10:58:26Z</time>
      </trkpt>
      <trkpt lat="42.75271" lon="1.86836">
        <ele>1570.6</ele>
        <time>2024-06-30T10:58:27Z</time>
      </trkpt>
      <trkpt lat="42.75274" lon="1.86836">
        <ele>1571</ele>
        <time>2024-06-30T10:58:28Z</time>
      </trkpt>
      <trkpt lat="42.75277" lon="1.86836">
        <ele>1571.2</ele>
        <time>2024-06-30T10:58:29Z</time>
      </trkpt>
      <trkpt lat="42.75282" lon="1.86835">
        <ele>1571.4</ele>
        <time>2024-06-30T10:58:30Z</time>
      </trkpt>
      <trkpt lat="42.75285" lon="1.86834">
        <ele>1571.8</ele>
        <time>2024-06-30T10:58:31Z</time>
      </trkpt>
      <trkpt lat="42.75289" lon="1.86832">
        <ele>1572</ele>
        <time>2024-06-30T10:58:32Z</time>
      </trkpt>
      <trkpt lat="42.75292" lon="1.8683">
        <ele>1572.2</ele>
        <time>2024-06-30T10:58:33Z</time>
      </trkpt>
      <trkpt lat="42.75295" lon="1.86828">
        <ele>1572.2</ele>
        <time>2024-06-30T10:58:34Z</time>
      </trkpt>
      <trkpt lat="42.75298" lon="1.86824">
        <ele>1572.8</ele>
        <time>2024-06-30T10:58:35Z</time>
      </trkpt>
      <trkpt lat="42.75299" lon="1.86821">
        <ele>1573</ele>
        <time>2024-06-30T10:58:36Z</time>
      </trkpt>
      <trkpt lat="42.753" lon="1.86816">
        <ele>1573.4</ele>
        <time>2024-06-30T10:58:37Z</time>
      </trkpt>
      <trkpt lat="42.75301" lon="1.86813">
        <ele>1573.8</ele>
        <time>2024-06-30T10:58:38Z</time>
      </trkpt>
      <trkpt lat="42.753" lon="1.86809">
        <ele>1574.2</ele>
        <time>2024-06-30T10:58:39Z</time>
      </trkpt>
      <trkpt lat="42.75299" lon="1.86805">
        <ele>1574.6</ele>
        <time>2024-06-30T10:58:40Z</time>
      </trkpt>
      <trkpt lat="42.75297" lon="1.86802">
        <ele>1574.6</ele>
        <time>2024-06-30T10:58:41Z</time>
      </trkpt>
      <trkpt lat="42.75295" lon="1.86798">
        <ele>1575</ele>
        <time>2024-06-30T10:58:42Z</time>
      </trkpt>
      <trkpt lat="42.75293" lon="1.86794">
        <ele>1575.2</ele>
        <time>2024-06-30T10:58:43Z</time>
      </trkpt>
      <trkpt lat="42.7529" lon="1.86791">
        <ele>1575.6</ele>
        <time>2024-06-30T10:58:44Z</time>
      </trkpt>
      <trkpt lat="42.75288" lon="1.86788">
        <ele>1575.8</ele>
        <time>2024-06-30T10:58:45Z</time>
      </trkpt>
      <trkpt lat="42.75284" lon="1.86784">
        <ele>1576</ele>
        <time>2024-06-30T10:58:46Z</time>
      </trkpt>
      <trkpt lat="42.75282" lon="1.86781">
        <ele>1576.2</ele>
        <time>2024-06-30T10:58:47Z</time>
      </trkpt>
      <trkpt lat="42.75279" lon="1.86778">
        <ele>1576.2</ele>
        <time>2024-06-30T10:58:48Z</time>
      </trkpt>
      <trkpt lat="42.75276" lon="1.86775">
        <ele>1576.6</ele>
        <time>2024-06-30T10:58:49Z</time>
      </trkpt>
      <trkpt lat="42.75273" lon="1.86772">
        <ele>1576.6</ele>
        <time>2024-06-30T10:58:50Z</time>
      </trkpt>
      <trkpt lat="42.7527" lon="1.86768">
        <ele>1577</ele>
        <time>2024-06-30T10:58:51Z</time>
      </trkpt>
      <trkpt lat="42.75268" lon="1.86765">
        <ele>1577</ele>
        <time>2024-06-30T10:58:52Z</time>
      </trkpt>
      <trkpt lat="42.75265" lon="1.86762">
        <ele>1577.6</ele>
        <time>2024-06-30T10:58:53Z</time>
      </trkpt>
      <trkpt lat="42.75263" lon="1.86758">
        <ele>1578</ele>
        <time>2024-06-30T10:58:54Z</time>
      </trkpt>
      <trkpt lat="42.7526" lon="1.86754">
        <ele>1578.2</ele>
        <time>2024-06-30T10:58:55Z</time>
      </trkpt>
      <trkpt lat="42.75257" lon="1.8675">
        <ele>1578.4</ele>
        <time>2024-06-30T10:58:56Z</time>
      </trkpt>
      <trkpt lat="42.75255" lon="1.86746">
        <ele>1578.6</ele>
        <time>2024-06-30T10:58:57Z</time>
      </trkpt>
      <trkpt lat="42.75253" lon="1.86743">
        <ele>1578.8</ele>
        <time>2024-06-30T10:58:58Z</time>
      </trkpt>
      <trkpt lat="42.75251" lon="1.86739">
        <ele>1579</ele>
        <time>2024-06-30T10:58:59Z</time>
      </trkpt>
      <trkpt lat="42.75249" lon="1.86736">
        <ele>1579.2</ele>
        <time>2024-06-30T10:59:00Z</time>
      </trkpt>
      <trkpt lat="42.75246" lon="1.86732">
        <ele>1579.6</ele>
        <time>2024-06-30T10:59:01Z</time>
      </trkpt>
      <trkpt lat="42.75244" lon="1.86728">
        <ele>1579.8</ele>
        <time>2024-06-30T10:59:02Z</time>
      </trkpt>
      <trkpt lat="42.75241" lon="1.86725">
        <ele>1580.2</ele>
        <time>2024-06-30T10:59:03Z</time>
      </trkpt>
      <trkpt lat="42.75239" lon="1.86722">
        <ele>1580.2</ele>
        <time>2024-06-30T10:59:04Z</time>
      </trkpt>
      <trkpt lat="42.75236" lon="1.8672">
        <ele>1580.6</ele>
        <time>2024-06-30T10:59:05Z</time>
      </trkpt>
      <trkpt lat="42.75233" lon="1.86717">
        <ele>1580.6</ele>
        <time>2024-06-30T10:59:06Z</time>
      </trkpt>
      <trkpt lat="42.7523" lon="1.86713">
        <ele>1580.8</ele>
        <time>2024-06-30T10:59:07Z</time>
      </trkpt>
      <trkpt lat="42.75226" lon="1.86711">
        <ele>1581</ele>
        <time>2024-06-30T10:59:08Z</time>
      </trkpt>
      <trkpt lat="42.75224" lon="1.86709">
        <ele>1581.2</ele>
        <time>2024-06-30T10:59:09Z</time>
      </trkpt>
      <trkpt lat="42.7522" lon="1.86706">
        <ele>1581.4</ele>
        <time>2024-06-30T10:59:10Z</time>
      </trkpt>
      <trkpt lat="42.75216" lon="1.86704">
        <ele>1581.4</ele>
        <time>2024-06-30T10:59:11Z</time>
      </trkpt>
      <trkpt lat="42.75213" lon="1.86701">
        <ele>1581.6</ele>
        <time>2024-06-30T10:59:12Z</time>
      </trkpt>
      <trkpt lat="42.7521" lon="1.86699">
        <ele>1581.8</ele>
        <time>2024-06-30T10:59:13Z</time>
      </trkpt>
      <trkpt lat="42.75207" lon="1.86696">
        <ele>1582.2</ele>
        <time>2024-06-30T10:59:14Z</time>
      </trkpt>
      <trkpt lat="42.75204" lon="1.86693">
        <ele>1582.2</ele>
        <time>2024-06-30T10:59:15Z</time>
      </trkpt>
      <trkpt lat="42.75201" lon="1.8669">
        <ele>1582.4</ele>
        <time>2024-06-30T10:59:16Z</time>
      </trkpt>
      <trkpt lat="42.75199" lon="1.86686">
        <ele>1582.6</ele>
        <time>2024-06-30T10:59:17Z</time>
      </trkpt>
      <trkpt lat="42.75197" lon="1.86682">
        <ele>1582.6</ele>
        <time>2024-06-30T10:59:18Z</time>
      </trkpt>
      <trkpt lat="42.75196" lon="1.86678">
        <ele>1582.8</ele>
        <time>2024-06-30T10:59:19Z</time>
      </trkpt>
      <trkpt lat="42.75193" lon="1.86674">
        <ele>1582.8</ele>
        <time>2024-06-30T10:59:20Z</time>
      </trkpt>
      <trkpt lat="42.7519" lon="1.86672">
        <ele>1583</ele>
        <time>2024-06-30T10:59:21Z</time>
      </trkpt>
      <trkpt lat="42.75187" lon="1.86672">
        <ele>1583.2</ele>
        <time>2024-06-30T10:59:22Z</time>
      </trkpt>
      <trkpt lat="42.75184" lon="1.86674">
        <ele>1583.4</ele>
        <time>2024-06-30T10:59:23Z</time>
      </trkpt>
      <trkpt lat="42.75181" lon="1.86677">
        <ele>1584</ele>
        <time>2024-06-30T10:59:24Z</time>
      </trkpt>
      <trkpt lat="42.75178" lon="1.8668">
        <ele>1584.2</ele>
        <time>2024-06-30T10:59:25Z</time>
      </trkpt>
      <trkpt lat="42.75175" lon="1.86683">
        <ele>1584.4</ele>
        <time>2024-06-30T10:59:26Z</time>
      </trkpt>
      <trkpt lat="42.75172" lon="1.86686">
        <ele>1584.4</ele>
        <time>2024-06-30T10:59:27Z</time>
      </trkpt>
      <trkpt lat="42.75169" lon="1.86688">
        <ele>1584.8</ele>
        <time>2024-06-30T10:59:28Z</time>
      </trkpt>
      <trkpt lat="42.75166" lon="1.86691">
        <ele>1585</ele>
        <time>2024-06-30T10:59:29Z</time>
      </trkpt>
      <trkpt lat="42.75163" lon="1.86693">
        <ele>1585.2</ele>
        <time>2024-06-30T10:59:30Z</time>
      </trkpt>
      <trkpt lat="42.75159" lon="1.86695">
        <ele>1585.4</ele>
        <time>2024-06-30T10:59:31Z</time>
      </trkpt>
      <trkpt lat="42.75156" lon="1.86697">
        <ele>1585.4</ele>
        <time>2024-06-30T10:59:32Z</time>
      </trkpt>
      <trkpt lat="42.75153" lon="1.86699">
        <ele>1586.2</ele>
        <time>2024-06-30T10:59:33Z</time>
      </trkpt>
      <trkpt lat="42.75149" lon="1.86701">
        <ele>1586.6</ele>
        <time>2024-06-30T10:59:34Z</time>
      </trkpt>
      <trkpt lat="42.75145" lon="1.86703">
        <ele>1587.2</ele>
        <time>2024-06-30T10:59:35Z</time>
      </trkpt>
      <trkpt lat="42.75141" lon="1.86705">
        <ele>1587.4</ele>
        <time>2024-06-30T10:59:36Z</time>
      </trkpt>
      <trkpt lat="42.75138" lon="1.86707">
        <ele>1588</ele>
        <time>2024-06-30T10:59:37Z</time>
      </trkpt>
      <trkpt lat="42.75134" lon="1.8671">
        <ele>1588.2</ele>
        <time>2024-06-30T10:59:38Z</time>
      </trkpt>
      <trkpt lat="42.7513" lon="1.86712">
        <ele>1588.6</ele>
        <time>2024-06-30T10:59:39Z</time>
      </trkpt>
      <trkpt lat="42.75127" lon="1.86714">
        <ele>1589</ele>
        <time>2024-06-30T10:59:40Z</time>
      </trkpt>
      <trkpt lat="42.75123" lon="1.86717">
        <ele>1589</ele>
        <time>2024-06-30T10:59:41Z</time>
      </trkpt>
      <trkpt lat="42.7512" lon="1.8672">
        <ele>1589.2</ele>
        <time>2024-06-30T10:59:42Z</time>
      </trkpt>
      <trkpt lat="42.75116" lon="1.86723">
        <ele>1589.2</ele>
        <time>2024-06-30T10:59:43Z</time>
      </trkpt>
      <trkpt lat="42.75113" lon="1.86727">
        <ele>1589.4</ele>
        <time>2024-06-30T10:59:44Z</time>
      </trkpt>
      <trkpt lat="42.75109" lon="1.8673">
        <ele>1589.4</ele>
        <time>2024-06-30T10:59:45Z</time>
      </trkpt>
      <trkpt lat="42.75106" lon="1.86733">
        <ele>1589.4</ele>
        <time>2024-06-30T10:59:46Z</time>
      </trkpt>
      <trkpt lat="42.75102" lon="1.86737">
        <ele>1589.6</ele>
        <time>2024-06-30T10:59:47Z</time>
      </trkpt>
      <trkpt lat="42.75099" lon="1.8674">
        <ele>1589.6</ele>
        <time>2024-06-30T10:59:48Z</time>
      </trkpt>
      <trkpt lat="42.75096" lon="1.86742">
        <ele>1590</ele>
        <time>2024-06-30T10:59:49Z</time>
      </trkpt>
      <trkpt lat="42.75091" lon="1.86747">
        <ele>1590.4</ele>
        <time>2024-06-30T10:59:50Z</time>
      </trkpt>
      <trkpt lat="42.75088" lon="1.8675">
        <ele>1590.6</ele>
        <time>2024-06-30T10:59:51Z</time>
      </trkpt>
      <trkpt lat="42.75085" lon="1.86753">
        <ele>1590.8</ele>
        <time>2024-06-30T10:59:52Z</time>
      </trkpt>
      <trkpt lat="42.75081" lon="1.86757">
        <ele>1591</ele>
        <time>2024-06-30T10:59:53Z</time>
      </trkpt>
      <trkpt lat="42.75078" lon="1.86762">
        <ele>1591.2</ele>
        <time>2024-06-30T10:59:54Z</time>
      </trkpt>
      <trkpt lat="42.75074" lon="1.86767">
        <ele>1591.6</ele>
        <time>2024-06-30T10:59:55Z</time>
      </trkpt>
      <trkpt lat="42.75071" lon="1.86772">
        <ele>1591.8</ele>
        <time>2024-06-30T10:59:56Z</time>
      </trkpt>
      <trkpt lat="42.75068" lon="1.86777">
        <ele>1592</ele>
        <time>2024-06-30T10:59:57Z</time>
      </trkpt>
      <trkpt lat="42.75065" lon="1.86783">
        <ele>1592.4</ele>
        <time>2024-06-30T10:59:58Z</time>
      </trkpt>
      <trkpt lat="42.75061" lon="1.8679">
        <ele>1592.4</ele>
        <time>2024-06-30T10:59:59Z</time>
      </trkpt>
      <trkpt lat="42.75058" lon="1.86796">
        <ele>1592.8</ele>
        <time>2024-06-30T11:00:00Z</time>
      </trkpt>
      <trkpt lat="42.75055" lon="1.86802">
        <ele>1592.8</ele>
        <time>2024-06-30T11:00:01Z</time>
      </trkpt>
      <trkpt lat="42.75052" lon="1.86808">
        <ele>1593</ele>
        <time>2024-06-30T11:00:02Z</time>
      </trkpt>
      <trkpt lat="42.75049" lon="1.86813">
        <ele>1593</ele>
        <time>2024-06-30T11:00:03Z</time>
      </trkpt>
      <trkpt lat="42.75046" lon="1.8682">
        <ele>1593.2</ele>
        <time>2024-06-30T11:00:04Z</time>
      </trkpt>
      <trkpt lat="42.75042" lon="1.86826">
        <ele>1593.2</ele>
        <time>2024-06-30T11:00:05Z</time>
      </trkpt>
      <trkpt lat="42.75039" lon="1.86832">
        <ele>1593.4</ele>
        <time>2024-06-30T11:00:06Z</time>
      </trkpt>
      <trkpt lat="42.75035" lon="1.86838">
        <ele>1593.6</ele>
        <time>2024-06-30T11:00:07Z</time>
      </trkpt>
      <trkpt lat="42.75032" lon="1.86842">
        <ele>1593.6</ele>
        <time>2024-06-30T11:00:08Z</time>
      </trkpt>
      <trkpt lat="42.75028" lon="1.86849">
        <ele>1593.6</ele>
        <time>2024-06-30T11:00:09Z</time>
      </trkpt>
      <trkpt lat="42.75023" lon="1.86854">
        <ele>1593.8</ele>
        <time>2024-06-30T11:00:10Z</time>
      </trkpt>
      <trkpt lat="42.75019" lon="1.86859">
        <ele>1593.8</ele>
        <time>2024-06-30T11:00:11Z</time>
      </trkpt>
      <trkpt lat="42.75015" lon="1.86863">
        <ele>1594</ele>
        <time>2024-06-30T11:00:12Z</time>
      </trkpt>
      <trkpt lat="42.75011" lon="1.86866">
        <ele>1594</ele>
        <time>2024-06-30T11:00:13Z</time>
      </trkpt>
      <trkpt lat="42.75007" lon="1.86868">
        <ele>1594</ele>
        <time>2024-06-30T11:00:14Z</time>
      </trkpt>
      <trkpt lat="42.75002" lon="1.8687">
        <ele>1594</ele>
        <time>2024-06-30T11:00:15Z</time>
      </trkpt>
      <trkpt lat="42.74997" lon="1.86872">
        <ele>1594.2</ele>
        <time>2024-06-30T11:00:16Z</time>
      </trkpt>
      <trkpt lat="42.74992" lon="1.86873">
        <ele>1594.2</ele>
        <time>2024-06-30T11:00:17Z</time>
      </trkpt>
      <trkpt lat="42.74987" lon="1.86874">
        <ele>1594.2</ele>
        <time>2024-06-30T11:00:18Z</time>
      </trkpt>
      <trkpt lat="42.74983" lon="1.86874">
        <ele>1594.2</ele>
        <time>2024-06-30T11:00:19Z</time>
      </trkpt>
      <trkpt lat="42.74978" lon="1.86875">
        <ele>1594.2</ele>
        <time>2024-06-30T11:00:20Z</time>
      </trkpt>
      <trkpt lat="42.74973" lon="1.86875">
        <ele>1594.4</ele>
        <time>2024-06-30T11:00:21Z</time>
      </trkpt>
      <trkpt lat="42.74968" lon="1.86875">
        <ele>1594.4</ele>
        <time>2024-06-30T11:00:22Z</time>
      </trkpt>
      <trkpt lat="42.74964" lon="1.86876">
        <ele>1594.6</ele>
        <time>2024-06-30T11:00:23Z</time>
      </trkpt>
      <trkpt lat="42.7496" lon="1.86877">
        <ele>1594.6</ele>
        <time>2024-06-30T11:00:24Z</time>
      </trkpt>
      <trkpt lat="42.74955" lon="1.86878">
        <ele>1594.8</ele>
        <time>2024-06-30T11:00:25Z</time>
      </trkpt>
      <trkpt lat="42.74951" lon="1.86879">
        <ele>1595.2</ele>
        <time>2024-06-30T11:00:26Z</time>
      </trkpt>
      <trkpt lat="42.74947" lon="1.86881">
        <ele>1595.4</ele>
        <time>2024-06-30T11:00:27Z</time>
      </trkpt>
      <trkpt lat="42.74943" lon="1.86883">
        <ele>1595.6</ele>
        <time>2024-06-30T11:00:28Z</time>
      </trkpt>
      <trkpt lat="42.74939" lon="1.86885">
        <ele>1595.8</ele>
        <time>2024-06-30T11:00:29Z</time>
      </trkpt>
      <trkpt lat="42.74935" lon="1.86888">
        <ele>1596.2</ele>
        <time>2024-06-30T11:00:30Z</time>
      </trkpt>
      <trkpt lat="42.74931" lon="1.86892">
        <ele>1596.4</ele>
        <time>2024-06-30T11:00:31Z</time>
      </trkpt>
      <trkpt lat="42.74927" lon="1.86896">
        <ele>1596.6</ele>
        <time>2024-06-30T11:00:32Z</time>
      </trkpt>
      <trkpt lat="42.74923" lon="1.869">
        <ele>1596.8</ele>
        <time>2024-06-30T11:00:33Z</time>
      </trkpt>
      <trkpt lat="42.7492" lon="1.86905">
        <ele>1596.8</ele>
        <time>2024-06-30T11:00:34Z</time>
      </trkpt>
      <trkpt lat="42.74917" lon="1.8691">
        <ele>1597</ele>
        <time>2024-06-30T11:00:35Z</time>
      </trkpt>
      <trkpt lat="42.74913" lon="1.86916">
        <ele>1597.2</ele>
        <time>2024-06-30T11:00:36Z</time>
      </trkpt>
      <trkpt lat="42.7491" lon="1.86921">
        <ele>1597.6</ele>
        <time>2024-06-30T11:00:37Z</time>
      </trkpt>
      <trkpt lat="42.74907" lon="1.86927">
        <ele>1597.8</ele>
        <time>2024-06-30T11:00:38Z</time>
      </trkpt>
      <trkpt lat="42.74904" lon="1.86932">
        <ele>1598</ele>
        <time>2024-06-30T11:00:39Z</time>
      </trkpt>
      <trkpt lat="42.74901" lon="1.86939">
        <ele>1598.2</ele>
        <time>2024-06-30T11:00:40Z</time>
      </trkpt>
      <trkpt lat="42.74898" lon="1.86946">
        <ele>1598.4</ele>
        <time>2024-06-30T11:00:41Z</time>
      </trkpt>
      <trkpt lat="42.74894" lon="1.86955">
        <ele>1598.2</ele>
        <time>2024-06-30T11:00:42Z</time>
      </trkpt>
      <trkpt lat="42.74891" lon="1.86962">
        <ele>1598.2</ele>
        <time>2024-06-30T11:00:43Z</time>
      </trkpt>
      <trkpt lat="42.74887" lon="1.86969">
        <ele>1598.2</ele>
        <time>2024-06-30T11:00:44Z</time>
      </trkpt>
      <trkpt lat="42.74884" lon="1.86973">
        <ele>1598.2</ele>
        <time>2024-06-30T11:00:45Z</time>
      </trkpt>
      <trkpt lat="42.74879" lon="1.86978">
        <ele>1598.2</ele>
        <time>2024-06-30T11:00:46Z</time>
      </trkpt>
      <trkpt lat="42.74873" lon="1.86983">
        <ele>1598.2</ele>
        <time>2024-06-30T11:00:47Z</time>
      </trkpt>
      <trkpt lat="42.74868" lon="1.86987">
        <ele>1598.2</ele>
        <time>2024-06-30T11:00:48Z</time>
      </trkpt>
      <trkpt lat="42.74863" lon="1.86989">
        <ele>1598.2</ele>
        <time>2024-06-30T11:00:49Z</time>
      </trkpt>
      <trkpt lat="42.74857" lon="1.86992">
        <ele>1598.2</ele>
        <time>2024-06-30T11:00:50Z</time>
      </trkpt>
      <trkpt lat="42.74853" lon="1.86994">
        <ele>1598</ele>
        <time>2024-06-30T11:00:51Z</time>
      </trkpt>
      <trkpt lat="42.74846" lon="1.86996">
        <ele>1598</ele>
        <time>2024-06-30T11:00:52Z</time>
      </trkpt>
      <trkpt lat="42.7484" lon="1.86997">
        <ele>1598</ele>
        <time>2024-06-30T11:00:53Z</time>
      </trkpt>
      <trkpt lat="42.74834" lon="1.86999">
        <ele>1598</ele>
        <time>2024-06-30T11:00:54Z</time>
      </trkpt>
      <trkpt lat="42.74828" lon="1.87">
        <ele>1598</ele>
        <time>2024-06-30T11:00:55Z</time>
      </trkpt>
      <trkpt lat="42.74823" lon="1.87001">
        <ele>1598</ele>
        <time>2024-06-30T11:00:56Z</time>
      </trkpt>
      <trkpt lat="42.74817" lon="1.87003">
        <ele>1598</ele>
        <time>2024-06-30T11:00:57Z</time>
      </trkpt>
      <trkpt lat="42.74802" lon="1.87008">
        <ele>1598.2</ele>
        <time>2024-06-30T11:01:00Z</time>
      </trkpt>
      <trkpt lat="42.74797" lon="1.8701">
        <ele>1598.2</ele>
        <time>2024-06-30T11:01:01Z</time>
      </trkpt>
      <trkpt lat="42.74793" lon="1.87012">
        <ele>1598.4</ele>
        <time>2024-06-30T11:01:02Z</time>
      </trkpt>
      <trkpt lat="42.74789" lon="1.87014">
        <ele>1598.4</ele>
        <time>2024-06-30T11:01:03Z</time>
      </trkpt>
      <trkpt lat="42.74785" lon="1.87016">
        <ele>1598.4</ele>
        <time>2024-06-30T11:01:04Z</time>
      </trkpt>
      <trkpt lat="42.74781" lon="1.87018">
        <ele>1598.8</ele>
        <time>2024-06-30T11:01:05Z</time>
      </trkpt>
      <trkpt lat="42.74768" lon="1.87023">
        <ele>1599.8</ele>
        <time>2024-06-30T11:01:08Z</time>
      </trkpt>
      <trkpt lat="42.74759" lon="1.87027">
        <ele>1600.4</ele>
        <time>2024-06-30T11:01:10Z</time>
      </trkpt>
      <trkpt lat="42.74749" lon="1.8703">
        <ele>1600.8</ele>
        <time>2024-06-30T11:01:12Z</time>
      </trkpt>
      <trkpt lat="42.7474" lon="1.87033">
        <ele>1601</ele>
        <time>2024-06-30T11:01:14Z</time>
      </trkpt>
      <trkpt lat="42.74735" lon="1.87035">
        <ele>1601.2</ele>
        <time>2024-06-30T11:01:15Z</time>
      </trkpt>
      <trkpt lat="42.7473" lon="1.87037">
        <ele>1601.6</ele>
        <time>2024-06-30T11:01:16Z</time>
      </trkpt>
      <trkpt lat="42.74726" lon="1.87039">
        <ele>1601.8</ele>
        <time>2024-06-30T11:01:17Z</time>
      </trkpt>
      <trkpt lat="42.74721" lon="1.87041">
        <ele>1602</ele>
        <time>2024-06-30T11:01:18Z</time>
      </trkpt>
      <trkpt lat="42.74717" lon="1.87043">
        <ele>1602.2</ele>
        <time>2024-06-30T11:01:19Z</time>
      </trkpt>
      <trkpt lat="42.74713" lon="1.87046">
        <ele>1602.2</ele>
        <time>2024-06-30T11:01:20Z</time>
      </trkpt>
      <trkpt lat="42.74708" lon="1.87049">
        <ele>1602.4</ele>
        <time>2024-06-30T11:01:21Z</time>
      </trkpt>
      <trkpt lat="42.74705" lon="1.87052">
        <ele>1602.6</ele>
        <time>2024-06-30T11:01:22Z</time>
      </trkpt>
      <trkpt lat="42.747" lon="1.87056">
        <ele>1602.8</ele>
        <time>2024-06-30T11:01:23Z</time>
      </trkpt>
      <trkpt lat="42.74696" lon="1.87059">
        <ele>1603</ele>
        <time>2024-06-30T11:01:24Z</time>
      </trkpt>
      <trkpt lat="42.74692" lon="1.87062">
        <ele>1603.2</ele>
        <time>2024-06-30T11:01:25Z</time>
      </trkpt>
      <trkpt lat="42.74688" lon="1.87065">
        <ele>1603.4</ele>
        <time>2024-06-30T11:01:26Z</time>
      </trkpt>
      <trkpt lat="42.74683" lon="1.87067">
        <ele>1603.6</ele>
        <time>2024-06-30T11:01:27Z</time>
      </trkpt>
      <trkpt lat="42.74679" lon="1.87069">
        <ele>1603.6</ele>
        <time>2024-06-30T11:01:28Z</time>
      </trkpt>
      <trkpt lat="42.74674" lon="1.87072">
        <ele>1603.6</ele>
        <time>2024-06-30T11:01:29Z</time>
      </trkpt>
      <trkpt lat="42.7467" lon="1.87074">
        <ele>1603.6</ele>
        <time>2024-06-30T11:01:30Z</time>
      </trkpt>
      <trkpt lat="42.74666" lon="1.87077">
        <ele>1603.8</ele>
        <time>2024-06-30T11:01:31Z</time>
      </trkpt>
      <trkpt lat="42.74662" lon="1.8708">
        <ele>1604.2</ele>
        <time>2024-06-30T11:01:32Z</time>
      </trkpt>
      <trkpt lat="42.74658" lon="1.87082">
        <ele>1604.4</ele>
        <time>2024-06-30T11:01:33Z</time>
      </trkpt>
      <trkpt lat="42.74654" lon="1.87085">
        <ele>1604.6</ele>
        <time>2024-06-30T11:01:34Z</time>
      </trkpt>
      <trkpt lat="42.74651" lon="1.87089">
        <ele>1604.8</ele>
        <time>2024-06-30T11:01:35Z</time>
      </trkpt>
      <trkpt lat="42.74649" lon="1.87093">
        <ele>1605</ele>
        <time>2024-06-30T11:01:36Z</time>
      </trkpt>
      <trkpt lat="42.74647" lon="1.87098">
        <ele>1605.4</ele>
        <time>2024-06-30T11:01:37Z</time>
      </trkpt>
      <trkpt lat="42.74645" lon="1.87103">
        <ele>1605.4</ele>
        <time>2024-06-30T11:01:38Z</time>
      </trkpt>
      <trkpt lat="42.74644" lon="1.87109">
        <ele>1605.6</ele>
        <time>2024-06-30T11:01:39Z</time>
      </trkpt>
      <trkpt lat="42.74643" lon="1.87115">
        <ele>1605.6</ele>
        <time>2024-06-30T11:01:40Z</time>
      </trkpt>
      <trkpt lat="42.74642" lon="1.87121">
        <ele>1605.8</ele>
        <time>2024-06-30T11:01:41Z</time>
      </trkpt>
      <trkpt lat="42.74642" lon="1.87127">
        <ele>1605.8</ele>
        <time>2024-06-30T11:01:42Z</time>
      </trkpt>
      <trkpt lat="42.7464" lon="1.87135">
        <ele>1606.2</ele>
        <time>2024-06-30T11:01:43Z</time>
      </trkpt>
      <trkpt lat="42.74639" lon="1.87142">
        <ele>1606.4</ele>
        <time>2024-06-30T11:01:44Z</time>
      </trkpt>
      <trkpt lat="42.74637" lon="1.87148">
        <ele>1606.2</ele>
        <time>2024-06-30T11:01:45Z</time>
      </trkpt>
      <trkpt lat="42.74635" lon="1.87156">
        <ele>1606.4</ele>
        <time>2024-06-30T11:01:46Z</time>
      </trkpt>
      <trkpt lat="42.74634" lon="1.87164">
        <ele>1606.4</ele>
        <time>2024-06-30T11:01:47Z</time>
      </trkpt>
      <trkpt lat="42.74631" lon="1.87173">
        <ele>1606.2</ele>
        <time>2024-06-30T11:01:48Z</time>
      </trkpt>
      <trkpt lat="42.7463" lon="1.87182">
        <ele>1606.2</ele>
        <time>2024-06-30T11:01:49Z</time>
      </trkpt>
      <trkpt lat="42.74628" lon="1.87189">
        <ele>1606</ele>
        <time>2024-06-30T11:01:50Z</time>
      </trkpt>
      <trkpt lat="42.74627" lon="1.87199">
        <ele>1606</ele>
        <time>2024-06-30T11:01:51Z</time>
      </trkpt>
      <trkpt lat="42.74627" lon="1.87207">
        <ele>1605.8</ele>
        <time>2024-06-30T11:01:52Z</time>
      </trkpt>
      <trkpt lat="42.74627" lon="1.87216">
        <ele>1605.6</ele>
        <time>2024-06-30T11:01:53Z</time>
      </trkpt>
      <trkpt lat="42.74627" lon="1.87224">
        <ele>1605.6</ele>
        <time>2024-06-30T11:01:54Z</time>
      </trkpt>
      <trkpt lat="42.74628" lon="1.87233">
        <ele>1605.4</ele>
        <time>2024-06-30T11:01:55Z</time>
      </trkpt>
      <trkpt lat="42.74628" lon="1.87241">
        <ele>1605.4</ele>
        <time>2024-06-30T11:01:56Z</time>
      </trkpt>
      <trkpt lat="42.74627" lon="1.87249">
        <ele>1605.2</ele>
        <time>2024-06-30T11:01:57Z</time>
      </trkpt>
      <trkpt lat="42.74625" lon="1.87272">
        <ele>1605</ele>
        <time>2024-06-30T11:02:00Z</time>
      </trkpt>
      <trkpt lat="42.74623" lon="1.87279">
        <ele>1605</ele>
        <time>2024-06-30T11:02:01Z</time>
      </trkpt>
      <trkpt lat="42.74621" lon="1.87287">
        <ele>1605</ele>
        <time>2024-06-30T11:02:02Z</time>
      </trkpt>
      <trkpt lat="42.74619" lon="1.87295">
        <ele>1604.8</ele>
        <time>2024-06-30T11:02:03Z</time>
      </trkpt>
      <trkpt lat="42.74612" lon="1.87309">
        <ele>1604.8</ele>
        <time>2024-06-30T11:02:05Z</time>
      </trkpt>
      <trkpt lat="42.74603" lon="1.87322">
        <ele>1604.8</ele>
        <time>2024-06-30T11:02:07Z</time>
      </trkpt>
      <trkpt lat="42.74593" lon="1.87329">
        <ele>1604.6</ele>
        <time>2024-06-30T11:02:09Z</time>
      </trkpt>
      <trkpt lat="42.74588" lon="1.8733">
        <ele>1604.6</ele>
        <time>2024-06-30T11:02:10Z</time>
      </trkpt>
      <trkpt lat="42.74583" lon="1.8733">
        <ele>1604.6</ele>
        <time>2024-06-30T11:02:11Z</time>
      </trkpt>
      <trkpt lat="42.74578" lon="1.87329">
        <ele>1604.6</ele>
        <time>2024-06-30T11:02:12Z</time>
      </trkpt>
      <trkpt lat="42.74573" lon="1.87327">
        <ele>1604.6</ele>
        <time>2024-06-30T11:02:13Z</time>
      </trkpt>
      <trkpt lat="42.74568" lon="1.87325">
        <ele>1604.8</ele>
        <time>2024-06-30T11:02:14Z</time>
      </trkpt>
      <trkpt lat="42.74564" lon="1.87323">
        <ele>1604.8</ele>
        <time>2024-06-30T11:02:15Z</time>
      </trkpt>
      <trkpt lat="42.74561" lon="1.87321">
        <ele>1605</ele>
        <time>2024-06-30T11:02:16Z</time>
      </trkpt>
      <trkpt lat="42.74557" lon="1.8732">
        <ele>1605</ele>
        <time>2024-06-30T11:02:17Z</time>
      </trkpt>
      <trkpt lat="42.74553" lon="1.87319">
        <ele>1605.2</ele>
        <time>2024-06-30T11:02:18Z</time>
      </trkpt>
      <trkpt lat="42.74549" lon="1.87318">
        <ele>1605.2</ele>
        <time>2024-06-30T11:02:19Z</time>
      </trkpt>
      <trkpt lat="42.74545" lon="1.87318">
        <ele>1605.6</ele>
        <time>2024-06-30T11:02:20Z</time>
      </trkpt>
      <trkpt lat="42.74537" lon="1.87319">
        <ele>1606.2</ele>
        <time>2024-06-30T11:02:22Z</time>
      </trkpt>
      <trkpt lat="42.74533" lon="1.8732">
        <ele>1606.8</ele>
        <time>2024-06-30T11:02:23Z</time>
      </trkpt>
      <trkpt lat="42.74526" lon="1.87321">
        <ele>1607.4</ele>
        <time>2024-06-30T11:02:25Z</time>
      </trkpt>
      <trkpt lat="42.74513" lon="1.87323">
        <ele>1608.4</ele>
        <time>2024-06-30T11:02:28Z</time>
      </trkpt>
      <trkpt lat="42.74505" lon="1.87325">
        <ele>1609.6</ele>
        <time>2024-06-30T11:02:30Z</time>
      </trkpt>
      <trkpt lat="42.74501" lon="1.87326">
        <ele>1609.8</ele>
        <time>2024-06-30T11:02:31Z</time>
      </trkpt>
      <trkpt lat="42.74496" lon="1.87326">
        <ele>1610.4</ele>
        <time>2024-06-30T11:02:32Z</time>
      </trkpt>
      <trkpt lat="42.74492" lon="1.87326">
        <ele>1610.8</ele>
        <time>2024-06-30T11:02:33Z</time>
      </trkpt>
      <trkpt lat="42.74489" lon="1.87326">
        <ele>1611</ele>
        <time>2024-06-30T11:02:34Z</time>
      </trkpt>
      <trkpt lat="42.74483" lon="1.87326">
        <ele>1611.2</ele>
        <time>2024-06-30T11:02:35Z</time>
      </trkpt>
      <trkpt lat="42.74479" lon="1.87327">
        <ele>1611.6</ele>
        <time>2024-06-30T11:02:36Z</time>
      </trkpt>
      <trkpt lat="42.74475" lon="1.87327">
        <ele>1612.6</ele>
        <time>2024-06-30T11:02:37Z</time>
      </trkpt>
      <trkpt lat="42.7447" lon="1.87328">
        <ele>1612.8</ele>
        <time>2024-06-30T11:02:38Z</time>
      </trkpt>
      <trkpt lat="42.74465" lon="1.87329">
        <ele>1613.2</ele>
        <time>2024-06-30T11:02:39Z</time>
      </trkpt>
      <trkpt lat="42.74459" lon="1.87329">
        <ele>1613.2</ele>
        <time>2024-06-30T11:02:40Z</time>
      </trkpt>
      <trkpt lat="42.74454" lon="1.87329">
        <ele>1613.4</ele>
        <time>2024-06-30T11:02:41Z</time>
      </trkpt>
      <trkpt lat="42.74451" lon="1.8733">
        <ele>1613.4</ele>
        <time>2024-06-30T11:02:42Z</time>
      </trkpt>
      <trkpt lat="42.74446" lon="1.87331">
        <ele>1613.6</ele>
        <time>2024-06-30T11:02:43Z</time>
      </trkpt>
      <trkpt lat="42.74443" lon="1.87332">
        <ele>1613.6</ele>
        <time>2024-06-30T11:02:44Z</time>
      </trkpt>
      <trkpt lat="42.74438" lon="1.87333">
        <ele>1613.8</ele>
        <time>2024-06-30T11:02:45Z</time>
      </trkpt>
      <trkpt lat="42.74434" lon="1.87334">
        <ele>1614</ele>
        <time>2024-06-30T11:02:46Z</time>
      </trkpt>
      <trkpt lat="42.74431" lon="1.87334">
        <ele>1614</ele>
        <time>2024-06-30T11:02:47Z</time>
      </trkpt>
      <trkpt lat="42.74427" lon="1.87334">
        <ele>1614.2</ele>
        <time>2024-06-30T11:02:48Z</time>
      </trkpt>
      <trkpt lat="42.74423" lon="1.87333">
        <ele>1614.4</ele>
        <time>2024-06-30T11:02:49Z</time>
      </trkpt>
      <trkpt lat="42.74418" lon="1.87332">
        <ele>1614.6</ele>
        <time>2024-06-30T11:02:50Z</time>
      </trkpt>
      <trkpt lat="42.74414" lon="1.87332">
        <ele>1614.8</ele>
        <time>2024-06-30T11:02:51Z</time>
      </trkpt>
      <trkpt lat="42.7441" lon="1.8733">
        <ele>1615.2</ele>
        <time>2024-06-30T11:02:52Z</time>
      </trkpt>
      <trkpt lat="42.74406" lon="1.87329">
        <ele>1615.6</ele>
        <time>2024-06-30T11:02:53Z</time>
      </trkpt>
      <trkpt lat="42.74402" lon="1.87328">
        <ele>1615.8</ele>
        <time>2024-06-30T11:02:54Z</time>
      </trkpt>
      <trkpt lat="42.74398" lon="1.87326">
        <ele>1616</ele>
        <time>2024-06-30T11:02:55Z</time>
      </trkpt>
      <trkpt lat="42.74394" lon="1.87324">
        <ele>1616.2</ele>
        <time>2024-06-30T11:02:56Z</time>
      </trkpt>
      <trkpt lat="42.74391" lon="1.87323">
        <ele>1616.4</ele>
        <time>2024-06-30T11:02:57Z</time>
      </trkpt>
      <trkpt lat="42.74387" lon="1.87322">
        <ele>1616.6</ele>
        <time>2024-06-30T11:02:58Z</time>
      </trkpt>
      <trkpt lat="42.74384" lon="1.87321">
        <ele>1616.6</ele>
        <time>2024-06-30T11:02:59Z</time>
      </trkpt>
      <trkpt lat="42.7438" lon="1.8732">
        <ele>1616.8</ele>
        <time>2024-06-30T11:03:00Z</time>
      </trkpt>
      <trkpt lat="42.74376" lon="1.87319">
        <ele>1617</ele>
        <time>2024-06-30T11:03:01Z</time>
      </trkpt>
      <trkpt lat="42.74372" lon="1.87318">
        <ele>1617.6</ele>
        <time>2024-06-30T11:03:02Z</time>
      </trkpt>
      <trkpt lat="42.74368" lon="1.87316">
        <ele>1617.8</ele>
        <time>2024-06-30T11:03:03Z</time>
      </trkpt>
      <trkpt lat="42.74363" lon="1.87315">
        <ele>1618.2</ele>
        <time>2024-06-30T11:03:04Z</time>
      </trkpt>
      <trkpt lat="42.74359" lon="1.87314">
        <ele>1618.4</ele>
        <time>2024-06-30T11:03:05Z</time>
      </trkpt>
      <trkpt lat="42.74354" lon="1.87313">
        <ele>1618.6</ele>
        <time>2024-06-30T11:03:06Z</time>
      </trkpt>
      <trkpt lat="42.7435" lon="1.87312">
        <ele>1618.8</ele>
        <time>2024-06-30T11:03:07Z</time>
      </trkpt>
      <trkpt lat="42.74345" lon="1.87311">
        <ele>1619</ele>
        <time>2024-06-30T11:03:08Z</time>
      </trkpt>
      <trkpt lat="42.74342" lon="1.8731">
        <ele>1619.2</ele>
        <time>2024-06-30T11:03:09Z</time>
      </trkpt>
      <trkpt lat="42.74337" lon="1.87309">
        <ele>1619.2</ele>
        <time>2024-06-30T11:03:10Z</time>
      </trkpt>
      <trkpt lat="42.74332" lon="1.87309">
        <ele>1619.2</ele>
        <time>2024-06-30T11:03:11Z</time>
      </trkpt>
      <trkpt lat="42.74327" lon="1.87309">
        <ele>1619.4</ele>
        <time>2024-06-30T11:03:12Z</time>
      </trkpt>
      <trkpt lat="42.74323" lon="1.87308">
        <ele>1619.6</ele>
        <time>2024-06-30T11:03:13Z</time>
      </trkpt>
      <trkpt lat="42.74318" lon="1.87308">
        <ele>1619.8</ele>
        <time>2024-06-30T11:03:14Z</time>
      </trkpt>
      <trkpt lat="42.74314" lon="1.87307">
        <ele>1620</ele>
        <time>2024-06-30T11:03:15Z</time>
      </trkpt>
      <trkpt lat="42.7431" lon="1.87307">
        <ele>1620</ele>
        <time>2024-06-30T11:03:16Z</time>
      </trkpt>
      <trkpt lat="42.74306" lon="1.87305">
        <ele>1620.2</ele>
        <time>2024-06-30T11:03:17Z</time>
      </trkpt>
      <trkpt lat="42.74302" lon="1.87304">
        <ele>1620.6</ele>
        <time>2024-06-30T11:03:18Z</time>
      </trkpt>
      <trkpt lat="42.74298" lon="1.87303">
        <ele>1620.6</ele>
        <time>2024-06-30T11:03:19Z</time>
      </trkpt>
      <trkpt lat="42.74295" lon="1.87301">
        <ele>1621</ele>
        <time>2024-06-30T11:03:20Z</time>
      </trkpt>
      <trkpt lat="42.74291" lon="1.873">
        <ele>1621.2</ele>
        <time>2024-06-30T11:03:21Z</time>
      </trkpt>
      <trkpt lat="42.74288" lon="1.87299">
        <ele>1621.6</ele>
        <time>2024-06-30T11:03:22Z</time>
      </trkpt>
      <trkpt lat="42.74284" lon="1.87297">
        <ele>1622</ele>
        <time>2024-06-30T11:03:23Z</time>
      </trkpt>
      <trkpt lat="42.74282" lon="1.87296">
        <ele>1622.2</ele>
        <time>2024-06-30T11:03:24Z</time>
      </trkpt>
      <trkpt lat="42.74278" lon="1.87295">
        <ele>1622.4</ele>
        <time>2024-06-30T11:03:25Z</time>
      </trkpt>
      <trkpt lat="42.74274" lon="1.87294">
        <ele>1622.6</ele>
        <time>2024-06-30T11:03:26Z</time>
      </trkpt>
      <trkpt lat="42.74271" lon="1.87293">
        <ele>1622.8</ele>
        <time>2024-06-30T11:03:27Z</time>
      </trkpt>
      <trkpt lat="42.74267" lon="1.87292">
        <ele>1622.8</ele>
        <time>2024-06-30T11:03:28Z</time>
      </trkpt>
      <trkpt lat="42.74265" lon="1.87292">
        <ele>1623</ele>
        <time>2024-06-30T11:03:29Z</time>
      </trkpt>
      <trkpt lat="42.74261" lon="1.87292">
        <ele>1623.6</ele>
        <time>2024-06-30T11:03:30Z</time>
      </trkpt>
      <trkpt lat="42.74258" lon="1.87291">
        <ele>1624</ele>
        <time>2024-06-30T11:03:31Z</time>
      </trkpt>
      <trkpt lat="42.74255" lon="1.87291">
        <ele>1624.2</ele>
        <time>2024-06-30T11:03:32Z</time>
      </trkpt>
      <trkpt lat="42.74251" lon="1.8729">
        <ele>1624.4</ele>
        <time>2024-06-30T11:03:33Z</time>
      </trkpt>
      <trkpt lat="42.74247" lon="1.8729">
        <ele>1624.8</ele>
        <time>2024-06-30T11:03:34Z</time>
      </trkpt>
      <trkpt lat="42.74244" lon="1.87291">
        <ele>1625.2</ele>
        <time>2024-06-30T11:03:35Z</time>
      </trkpt>
      <trkpt lat="42.74239" lon="1.87291">
        <ele>1625.6</ele>
        <time>2024-06-30T11:03:36Z</time>
      </trkpt>
      <trkpt lat="42.74236" lon="1.87291">
        <ele>1625.8</ele>
        <time>2024-06-30T11:03:37Z</time>
      </trkpt>
      <trkpt lat="42.74232" lon="1.87292">
        <ele>1626.8</ele>
        <time>2024-06-30T11:03:38Z</time>
      </trkpt>
      <trkpt lat="42.74228" lon="1.87293">
        <ele>1627.2</ele>
        <time>2024-06-30T11:03:39Z</time>
      </trkpt>
      <trkpt lat="42.74224" lon="1.87296">
        <ele>1627.4</ele>
        <time>2024-06-30T11:03:40Z</time>
      </trkpt>
      <trkpt lat="42.7422" lon="1.87299">
        <ele>1627.6</ele>
        <time>2024-06-30T11:03:41Z</time>
      </trkpt>
      <trkpt lat="42.74216" lon="1.87304">
        <ele>1627.6</ele>
        <time>2024-06-30T11:03:42Z</time>
      </trkpt>
      <trkpt lat="42.74212" lon="1.8731">
        <ele>1627.8</ele>
        <time>2024-06-30T11:03:43Z</time>
      </trkpt>
      <trkpt lat="42.74209" lon="1.87317">
        <ele>1628</ele>
        <time>2024-06-30T11:03:44Z</time>
      </trkpt>
      <trkpt lat="42.74204" lon="1.87323">
        <ele>1628.4</ele>
        <time>2024-06-30T11:03:45Z</time>
      </trkpt>
      <trkpt lat="42.742" lon="1.87328">
        <ele>1628.6</ele>
        <time>2024-06-30T11:03:46Z</time>
      </trkpt>
      <trkpt lat="42.74194" lon="1.87336">
        <ele>1628.6</ele>
        <time>2024-06-30T11:03:47Z</time>
      </trkpt>
      <trkpt lat="42.74188" lon="1.8734">
        <ele>1628.8</ele>
        <time>2024-06-30T11:03:48Z</time>
      </trkpt>
      <trkpt lat="42.74183" lon="1.87344">
        <ele>1628.8</ele>
        <time>2024-06-30T11:03:49Z</time>
      </trkpt>
      <trkpt lat="42.74176" lon="1.87348">
        <ele>1628.4</ele>
        <time>2024-06-30T11:03:50Z</time>
      </trkpt>
      <trkpt lat="42.7417" lon="1.87353">
        <ele>1627.6</ele>
        <time>2024-06-30T11:03:51Z</time>
      </trkpt>
      <trkpt lat="42.74162" lon="1.87358">
        <ele>1626.6</ele>
        <time>2024-06-30T11:03:52Z</time>
      </trkpt>
      <trkpt lat="42.74156" lon="1.87363">
        <ele>1625.6</ele>
        <time>2024-06-30T11:03:53Z</time>
      </trkpt>
      <trkpt lat="42.74152" lon="1.87364">
        <ele>1625.2</ele>
        <time>2024-06-30T11:03:54Z</time>
      </trkpt>
      <trkpt lat="42.74147" lon="1.87366">
        <ele>1623.4</ele>
        <time>2024-06-30T11:03:55Z</time>
      </trkpt>
      <trkpt lat="42.74138" lon="1.87369">
        <ele>1622.6</ele>
        <time>2024-06-30T11:03:56Z</time>
      </trkpt>
      <trkpt lat="42.7413" lon="1.87371">
        <ele>1621.6</ele>
        <time>2024-06-30T11:03:57Z</time>
      </trkpt>
      <trkpt lat="42.74124" lon="1.8737">
        <ele>1621</ele>
        <time>2024-06-30T11:03:58Z</time>
      </trkpt>
      <trkpt lat="42.74119" lon="1.87368">
        <ele>1620</ele>
        <time>2024-06-30T11:03:59Z</time>
      </trkpt>
      <trkpt lat="42.74113" lon="1.87365">
        <ele>1618.4</ele>
        <time>2024-06-30T11:04:00Z</time>
      </trkpt>
      <trkpt lat="42.74106" lon="1.87361">
        <ele>1616.2</ele>
        <time>2024-06-30T11:04:01Z</time>
      </trkpt>
      <trkpt lat="42.741" lon="1.87357">
        <ele>1614.6</ele>
        <time>2024-06-30T11:04:02Z</time>
      </trkpt>
      <trkpt lat="42.74094" lon="1.87354">
        <ele>1613.8</ele>
        <time>2024-06-30T11:04:03Z</time>
      </trkpt>
      <trkpt lat="42.74089" lon="1.8735">
        <ele>1612.4</ele>
        <time>2024-06-30T11:04:04Z</time>
      </trkpt>
      <trkpt lat="42.74083" lon="1.87346">
        <ele>1611.6</ele>
        <time>2024-06-30T11:04:05Z</time>
      </trkpt>
      <trkpt lat="42.74077" lon="1.87342">
        <ele>1610.6</ele>
        <time>2024-06-30T11:04:06Z</time>
      </trkpt>
      <trkpt lat="42.74071" lon="1.87338">
        <ele>1610.4</ele>
        <time>2024-06-30T11:04:07Z</time>
      </trkpt>
      <trkpt lat="42.74066" lon="1.87334">
        <ele>1609.6</ele>
        <time>2024-06-30T11:04:08Z</time>
      </trkpt>
      <trkpt lat="42.74061" lon="1.87331">
        <ele>1609.2</ele>
        <time>2024-06-30T11:04:09Z</time>
      </trkpt>
      <trkpt lat="42.74057" lon="1.87328">
        <ele>1608.2</ele>
        <time>2024-06-30T11:04:10Z</time>
      </trkpt>
      <trkpt lat="42.74054" lon="1.87326">
        <ele>1604.6</ele>
        <time>2024-06-30T11:04:11Z</time>
      </trkpt>
      <trkpt lat="42.74052" lon="1.87325">
        <ele>1603.2</ele>
        <time>2024-06-30T11:04:12Z</time>
      </trkpt>
      <trkpt lat="42.7405" lon="1.87324">
        <ele>1601.6</ele>
        <time>2024-06-30T11:04:13Z</time>
      </trkpt>
      <trkpt lat="42.74047" lon="1.8732">
        <ele>1600.8</ele>
        <time>2024-06-30T11:04:14Z</time>
      </trkpt>
      <trkpt lat="42.74044" lon="1.87317">
        <ele>1599.8</ele>
        <time>2024-06-30T11:04:15Z</time>
      </trkpt>
      <trkpt lat="42.7404" lon="1.87313">
        <ele>1598.6</ele>
        <time>2024-06-30T11:04:16Z</time>
      </trkpt>
      <trkpt lat="42.74035" lon="1.87308">
        <ele>1598</ele>
        <time>2024-06-30T11:04:17Z</time>
      </trkpt>
      <trkpt lat="42.74031" lon="1.87303">
        <ele>1596.6</ele>
        <time>2024-06-30T11:04:18Z</time>
      </trkpt>
      <trkpt lat="42.74022" lon="1.87293">
        <ele>1595.4</ele>
        <time>2024-06-30T11:04:20Z</time>
      </trkpt>
      <trkpt lat="42.74018" lon="1.87288">
        <ele>1595</ele>
        <time>2024-06-30T11:04:21Z</time>
      </trkpt>
      <trkpt lat="42.74013" lon="1.87282">
        <ele>1593.8</ele>
        <time>2024-06-30T11:04:22Z</time>
      </trkpt>
      <trkpt lat="42.74008" lon="1.87276">
        <ele>1593.4</ele>
        <time>2024-06-30T11:04:23Z</time>
      </trkpt>
      <trkpt lat="42.74004" lon="1.8727">
        <ele>1592.2</ele>
        <time>2024-06-30T11:04:24Z</time>
      </trkpt>
      <trkpt lat="42.73999" lon="1.87265">
        <ele>1591.2</ele>
        <time>2024-06-30T11:04:25Z</time>
      </trkpt>
      <trkpt lat="42.73994" lon="1.8726">
        <ele>1590.4</ele>
        <time>2024-06-30T11:04:26Z</time>
      </trkpt>
      <trkpt lat="42.7399" lon="1.87257">
        <ele>1589.2</ele>
        <time>2024-06-30T11:04:27Z</time>
      </trkpt>
      <trkpt lat="42.73984" lon="1.8725">
        <ele>1588.2</ele>
        <time>2024-06-30T11:04:29Z</time>
      </trkpt>
      <trkpt lat="42.7398" lon="1.87244">
        <ele>1588</ele>
        <time>2024-06-30T11:04:30Z</time>
      </trkpt>
      <trkpt lat="42.73977" lon="1.87239">
        <ele>1587.2</ele>
        <time>2024-06-30T11:04:31Z</time>
      </trkpt>
      <trkpt lat="42.73972" lon="1.87233">
        <ele>1585.8</ele>
        <time>2024-06-30T11:04:32Z</time>
      </trkpt>
      <trkpt lat="42.73965" lon="1.87225">
        <ele>1585.4</ele>
        <time>2024-06-30T11:04:33Z</time>
      </trkpt>
      <trkpt lat="42.73954" lon="1.8721">
        <ele>1584.2</ele>
        <time>2024-06-30T11:04:35Z</time>
      </trkpt>
      <trkpt lat="42.73947" lon="1.87204">
        <ele>1583.2</ele>
        <time>2024-06-30T11:04:36Z</time>
      </trkpt>
      <trkpt lat="42.73936" lon="1.87193">
        <ele>1580.8</ele>
        <time>2024-06-30T11:04:38Z</time>
      </trkpt>
      <trkpt lat="42.7393" lon="1.8719">
        <ele>1580.2</ele>
        <time>2024-06-30T11:04:39Z</time>
      </trkpt>
      <trkpt lat="42.73924" lon="1.87186">
        <ele>1579</ele>
        <time>2024-06-30T11:04:40Z</time>
      </trkpt>
      <trkpt lat="42.73915" lon="1.8718">
        <ele>1578</ele>
        <time>2024-06-30T11:04:41Z</time>
      </trkpt>
      <trkpt lat="42.73896" lon="1.87169">
        <ele>1576.4</ele>
        <time>2024-06-30T11:04:43Z</time>
      </trkpt>
      <trkpt lat="42.7389" lon="1.87168">
        <ele>1575.8</ele>
        <time>2024-06-30T11:04:44Z</time>
      </trkpt>
      <trkpt lat="42.73885" lon="1.87167">
        <ele>1574.8</ele>
        <time>2024-06-30T11:04:45Z</time>
      </trkpt>
      <trkpt lat="42.73879" lon="1.87166">
        <ele>1574.4</ele>
        <time>2024-06-30T11:04:46Z</time>
      </trkpt>
      <trkpt lat="42.73868" lon="1.87164">
        <ele>1573.4</ele>
        <time>2024-06-30T11:04:47Z</time>
      </trkpt>
      <trkpt lat="42.73856" lon="1.87159">
        <ele>1572.2</ele>
        <time>2024-06-30T11:04:49Z</time>
      </trkpt>
      <trkpt lat="42.73853" lon="1.87157">
        <ele>1571.2</ele>
        <time>2024-06-30T11:04:50Z</time>
      </trkpt>
      <trkpt lat="42.73849" lon="1.87156">
        <ele>1570.6</ele>
        <time>2024-06-30T11:04:51Z</time>
      </trkpt>
      <trkpt lat="42.73842" lon="1.87153">
        <ele>1569.2</ele>
        <time>2024-06-30T11:04:52Z</time>
      </trkpt>
      <trkpt lat="42.7384" lon="1.87153">
        <ele>1568.6</ele>
        <time>2024-06-30T11:04:53Z</time>
      </trkpt>
      <trkpt lat="42.73838" lon="1.87154">
        <ele>1567.6</ele>
        <time>2024-06-30T11:04:54Z</time>
      </trkpt>
      <trkpt lat="42.73835" lon="1.87153">
        <ele>1566.4</ele>
        <time>2024-06-30T11:04:55Z</time>
      </trkpt>
      <trkpt lat="42.73835" lon="1.87153">
        <ele>1565.8</ele>
        <time>2024-06-30T11:04:56Z</time>
      </trkpt>
      <trkpt lat="42.73832" lon="1.87152">
        <ele>1565</ele>
        <time>2024-06-30T11:04:57Z</time>
      </trkpt>
      <trkpt lat="42.73829" lon="1.87152">
        <ele>1564.6</ele>
        <time>2024-06-30T11:04:58Z</time>
      </trkpt>
      <trkpt lat="42.73827" lon="1.87152">
        <ele>1563.8</ele>
        <time>2024-06-30T11:04:59Z</time>
      </trkpt>
      <trkpt lat="42.73824" lon="1.87154">
        <ele>1562.4</ele>
        <time>2024-06-30T11:05:01Z</time>
      </trkpt>
      <trkpt lat="42.73822" lon="1.87154">
        <ele>1562.2</ele>
        <time>2024-06-30T11:05:02Z</time>
      </trkpt>
      <trkpt lat="42.73821" lon="1.87154">
        <ele>1561.4</ele>
        <time>2024-06-30T11:05:03Z</time>
      </trkpt>
      <trkpt lat="42.73816" lon="1.8715">
        <ele>1560</ele>
        <time>2024-06-30T11:05:06Z</time>
      </trkpt>
      <trkpt lat="42.73813" lon="1.87149">
        <ele>1558.8</ele>
        <time>2024-06-30T11:05:08Z</time>
      </trkpt>
      <trkpt lat="42.73812" lon="1.87148">
        <ele>1558.4</ele>
        <time>2024-06-30T11:05:09Z</time>
      </trkpt>
      <trkpt lat="42.73811" lon="1.87147">
        <ele>1557.6</ele>
        <time>2024-06-30T11:05:10Z</time>
      </trkpt>
      <trkpt lat="42.73811" lon="1.87147">
        <ele>1557</ele>
        <time>2024-06-30T11:05:11Z</time>
      </trkpt>
      <trkpt lat="42.7381" lon="1.87146">
        <ele>1557</ele>
        <time>2024-06-30T11:05:12Z</time>
      </trkpt>
      <trkpt lat="42.73809" lon="1.87146">
        <ele>1556.4</ele>
        <time>2024-06-30T11:05:13Z</time>
      </trkpt>
      <trkpt lat="42.73806" lon="1.87145">
        <ele>1556.2</ele>
        <time>2024-06-30T11:05:14Z</time>
      </trkpt>
      <trkpt lat="42.73804" lon="1.87145">
        <ele>1555.4</ele>
        <time>2024-06-30T11:05:15Z</time>
      </trkpt>
      <trkpt lat="42.73801" lon="1.87147">
        <ele>1555.2</ele>
        <time>2024-06-30T11:05:16Z</time>
      </trkpt>
      <trkpt lat="42.73794" lon="1.8715">
        <ele>1554.4</ele>
        <time>2024-06-30T11:05:19Z</time>
      </trkpt>
      <trkpt lat="42.73793" lon="1.8715">
        <ele>1553.6</ele>
        <time>2024-06-30T11:05:20Z</time>
      </trkpt>
      <trkpt lat="42.73793" lon="1.87151">
        <ele>1553.2</ele>
        <time>2024-06-30T11:05:21Z</time>
      </trkpt>
      <trkpt lat="42.73789" lon="1.87151">
        <ele>1552.8</ele>
        <time>2024-06-30T11:05:22Z</time>
      </trkpt>
      <trkpt lat="42.73788" lon="1.8715">
        <ele>1552.8</ele>
        <time>2024-06-30T11:05:23Z</time>
      </trkpt>
      <trkpt lat="42.73786" lon="1.87149">
        <ele>1552.4</ele>
        <time>2024-06-30T11:05:24Z</time>
      </trkpt>
      <trkpt lat="42.73785" lon="1.87149">
        <ele>1552</ele>
        <time>2024-06-30T11:05:25Z</time>
      </trkpt>
      <trkpt lat="42.73784" lon="1.87148">
        <ele>1551</ele>
        <time>2024-06-30T11:05:26Z</time>
      </trkpt>
      <trkpt lat="42.73782" lon="1.87145">
        <ele>1550.2</ele>
        <time>2024-06-30T11:05:27Z</time>
      </trkpt>
      <trkpt lat="42.7378" lon="1.87144">
        <ele>1550</ele>
        <time>2024-06-30T11:05:28Z</time>
      </trkpt>
      <trkpt lat="42.73778" lon="1.87141">
        <ele>1549.8</ele>
        <time>2024-06-30T11:05:29Z</time>
      </trkpt>
      <trkpt lat="42.73775" lon="1.87142">
        <ele>1549.6</ele>
        <time>2024-06-30T11:05:30Z</time>
      </trkpt>
      <trkpt lat="42.73771" lon="1.87141">
        <ele>1549.2</ele>
        <time>2024-06-30T11:05:31Z</time>
      </trkpt>
      <trkpt lat="42.73769" lon="1.87138">
        <ele>1549</ele>
        <time>2024-06-30T11:05:32Z</time>
      </trkpt>
      <trkpt lat="42.73766" lon="1.87136">
        <ele>1548.4</ele>
        <time>2024-06-30T11:05:33Z</time>
      </trkpt>
      <trkpt lat="42.73764" lon="1.87134">
        <ele>1548</ele>
        <time>2024-06-30T11:05:34Z</time>
      </trkpt>
      <trkpt lat="42.73761" lon="1.87135">
        <ele>1547.2</ele>
        <time>2024-06-30T11:05:35Z</time>
      </trkpt>
      <trkpt lat="42.7376" lon="1.87135">
        <ele>1546.8</ele>
        <time>2024-06-30T11:05:36Z</time>
      </trkpt>
      <trkpt lat="42.73757" lon="1.87133">
        <ele>1546.4</ele>
        <time>2024-06-30T11:05:37Z</time>
      </trkpt>
      <trkpt lat="42.73754" lon="1.87131">
        <ele>1546</ele>
        <time>2024-06-30T11:05:38Z</time>
      </trkpt>
      <trkpt lat="42.73751" lon="1.87128">
        <ele>1545.6</ele>
        <time>2024-06-30T11:05:39Z</time>
      </trkpt>
      <trkpt lat="42.73746" lon="1.87125">
        <ele>1544.8</ele>
        <time>2024-06-30T11:05:40Z</time>
      </trkpt>
      <trkpt lat="42.73743" lon="1.87123">
        <ele>1544.6</ele>
        <time>2024-06-30T11:05:41Z</time>
      </trkpt>
      <trkpt lat="42.73738" lon="1.87123">
        <ele>1543.8</ele>
        <time>2024-06-30T11:05:42Z</time>
      </trkpt>
      <trkpt lat="42.73733" lon="1.8712">
        <ele>1542.8</ele>
        <time>2024-06-30T11:05:43Z</time>
      </trkpt>
      <trkpt lat="42.73727" lon="1.87115">
        <ele>1542.4</ele>
        <time>2024-06-30T11:05:44Z</time>
      </trkpt>
      <trkpt lat="42.73722" lon="1.8711">
        <ele>1541.8</ele>
        <time>2024-06-30T11:05:45Z</time>
      </trkpt>
      <trkpt lat="42.73714" lon="1.87105">
        <ele>1540.8</ele>
        <time>2024-06-30T11:05:47Z</time>
      </trkpt>
      <trkpt lat="42.73709" lon="1.87103">
        <ele>1540.6</ele>
        <time>2024-06-30T11:05:48Z</time>
      </trkpt>
      <trkpt lat="42.73704" lon="1.87102">
        <ele>1539.2</ele>
        <time>2024-06-30T11:05:49Z</time>
      </trkpt>
      <trkpt lat="42.73699" lon="1.87103">
        <ele>1538.6</ele>
        <time>2024-06-30T11:05:50Z</time>
      </trkpt>
      <trkpt lat="42.73695" lon="1.87103">
        <ele>1537.4</ele>
        <time>2024-06-30T11:05:51Z</time>
      </trkpt>
      <trkpt lat="42.73688" lon="1.871">
        <ele>1536.6</ele>
        <time>2024-06-30T11:05:52Z</time>
      </trkpt>
      <trkpt lat="42.73682" lon="1.87098">
        <ele>1536.2</ele>
        <time>2024-06-30T11:05:53Z</time>
      </trkpt>
      <trkpt lat="42.73675" lon="1.87099">
        <ele>1534.8</ele>
        <time>2024-06-30T11:05:55Z</time>
      </trkpt>
      <trkpt lat="42.73671" lon="1.87097">
        <ele>1533.6</ele>
        <time>2024-06-30T11:05:56Z</time>
      </trkpt>
      <trkpt lat="42.73653" lon="1.87089">
        <ele>1532</ele>
        <time>2024-06-30T11:05:59Z</time>
      </trkpt>
      <trkpt lat="42.73646" lon="1.8709">
        <ele>1531.8</ele>
        <time>2024-06-30T11:06:00Z</time>
      </trkpt>
      <trkpt lat="42.7364" lon="1.87089">
        <ele>1530.8</ele>
        <time>2024-06-30T11:06:01Z</time>
      </trkpt>
      <trkpt lat="42.73627" lon="1.87088">
        <ele>1529.6</ele>
        <time>2024-06-30T11:06:03Z</time>
      </trkpt>
      <trkpt lat="42.73621" lon="1.87087">
        <ele>1529.2</ele>
        <time>2024-06-30T11:06:04Z</time>
      </trkpt>
      <trkpt lat="42.73615" lon="1.8709">
        <ele>1528</ele>
        <time>2024-06-30T11:06:05Z</time>
      </trkpt>
      <trkpt lat="42.7361" lon="1.87093">
        <ele>1527.2</ele>
        <time>2024-06-30T11:06:06Z</time>
      </trkpt>
      <trkpt lat="42.73604" lon="1.87094">
        <ele>1525.8</ele>
        <time>2024-06-30T11:06:07Z</time>
      </trkpt>
      <trkpt lat="42.73597" lon="1.87094">
        <ele>1524</ele>
        <time>2024-06-30T11:06:08Z</time>
      </trkpt>
      <trkpt lat="42.7359" lon="1.87094">
        <ele>1523.4</ele>
        <time>2024-06-30T11:06:09Z</time>
      </trkpt>
      <trkpt lat="42.73582" lon="1.87098">
        <ele>1522</ele>
        <time>2024-06-30T11:06:10Z</time>
      </trkpt>
      <trkpt lat="42.73577" lon="1.87101">
        <ele>1521.6</ele>
        <time>2024-06-30T11:06:11Z</time>
      </trkpt>
      <trkpt lat="42.73571" lon="1.87105">
        <ele>1520.2</ele>
        <time>2024-06-30T11:06:12Z</time>
      </trkpt>
      <trkpt lat="42.73562" lon="1.87111">
        <ele>1518.4</ele>
        <time>2024-06-30T11:06:14Z</time>
      </trkpt>
      <trkpt lat="42.73557" lon="1.87113">
        <ele>1517.4</ele>
        <time>2024-06-30T11:06:15Z</time>
      </trkpt>
      <trkpt lat="42.73553" lon="1.87116">
        <ele>1517.2</ele>
        <time>2024-06-30T11:06:16Z</time>
      </trkpt>
      <trkpt lat="42.73549" lon="1.87119">
        <ele>1516</ele>
        <time>2024-06-30T11:06:17Z</time>
      </trkpt>
      <trkpt lat="42.7354" lon="1.87127">
        <ele>1514.2</ele>
        <time>2024-06-30T11:06:19Z</time>
      </trkpt>
      <trkpt lat="42.7353" lon="1.87135">
        <ele>1512.2</ele>
        <time>2024-06-30T11:06:21Z</time>
      </trkpt>
      <trkpt lat="42.73526" lon="1.87139">
        <ele>1511</ele>
        <time>2024-06-30T11:06:22Z</time>
      </trkpt>
      <trkpt lat="42.73522" lon="1.87142">
        <ele>1510.6</ele>
        <time>2024-06-30T11:06:23Z</time>
      </trkpt>
      <trkpt lat="42.73519" lon="1.87144">
        <ele>1510</ele>
        <time>2024-06-30T11:06:24Z</time>
      </trkpt>
      <trkpt lat="42.73516" lon="1.87146">
        <ele>1509.6</ele>
        <time>2024-06-30T11:06:25Z</time>
      </trkpt>
      <trkpt lat="42.73512" lon="1.87149">
        <ele>1509</ele>
        <time>2024-06-30T11:06:26Z</time>
      </trkpt>
      <trkpt lat="42.73502" lon="1.87158">
        <ele>1506.4</ele>
        <time>2024-06-30T11:06:28Z</time>
      </trkpt>
      <trkpt lat="42.7349" lon="1.87167">
        <ele>1505</ele>
        <time>2024-06-30T11:06:30Z</time>
      </trkpt>
      <trkpt lat="42.73484" lon="1.87174">
        <ele>1504</ele>
        <time>2024-06-30T11:06:31Z</time>
      </trkpt>
      <trkpt lat="42.73479" lon="1.8718">
        <ele>1503.2</ele>
        <time>2024-06-30T11:06:32Z</time>
      </trkpt>
      <trkpt lat="42.73475" lon="1.87185">
        <ele>1502</ele>
        <time>2024-06-30T11:06:33Z</time>
      </trkpt>
      <trkpt lat="42.73471" lon="1.87189">
        <ele>1501.2</ele>
        <time>2024-06-30T11:06:34Z</time>
      </trkpt>
      <trkpt lat="42.73464" lon="1.87199">
        <ele>1499.8</ele>
        <time>2024-06-30T11:06:35Z</time>
      </trkpt>
      <trkpt lat="42.73458" lon="1.87206">
        <ele>1499.2</ele>
        <time>2024-06-30T11:06:36Z</time>
      </trkpt>
      <trkpt lat="42.73453" lon="1.87213">
        <ele>1498.4</ele>
        <time>2024-06-30T11:06:37Z</time>
      </trkpt>
      <trkpt lat="42.73437" lon="1.87231">
        <ele>1496.8</ele>
        <time>2024-06-30T11:06:40Z</time>
      </trkpt>
      <trkpt lat="42.73431" lon="1.87237">
        <ele>1496.2</ele>
        <time>2024-06-30T11:06:41Z</time>
      </trkpt>
      <trkpt lat="42.73428" lon="1.87241">
        <ele>1495</ele>
        <time>2024-06-30T11:06:42Z</time>
      </trkpt>
      <trkpt lat="42.73424" lon="1.87244">
        <ele>1494.6</ele>
        <time>2024-06-30T11:06:43Z</time>
      </trkpt>
      <trkpt lat="42.73417" lon="1.87251">
        <ele>1494</ele>
        <time>2024-06-30T11:06:44Z</time>
      </trkpt>
      <trkpt lat="42.73411" lon="1.87257">
        <ele>1493.8</ele>
        <time>2024-06-30T11:06:45Z</time>
      </trkpt>
      <trkpt lat="42.73405" lon="1.87263">
        <ele>1492.8</ele>
        <time>2024-06-30T11:06:46Z</time>
      </trkpt>
      <trkpt lat="42.73396" lon="1.87274">
        <ele>1491.8</ele>
        <time>2024-06-30T11:06:48Z</time>
      </trkpt>
      <trkpt lat="42.73387" lon="1.87286">
        <ele>1490.6</ele>
        <time>2024-06-30T11:06:50Z</time>
      </trkpt>
      <trkpt lat="42.73383" lon="1.87291">
        <ele>1490.2</ele>
        <time>2024-06-30T11:06:51Z</time>
      </trkpt>
      <trkpt lat="42.7338" lon="1.87296">
        <ele>1490</ele>
        <time>2024-06-30T11:06:52Z</time>
      </trkpt>
      <trkpt lat="42.73377" lon="1.873">
        <ele>1489.4</ele>
        <time>2024-06-30T11:06:53Z</time>
      </trkpt>
      <trkpt lat="42.73373" lon="1.87307">
        <ele>1489</ele>
        <time>2024-06-30T11:06:54Z</time>
      </trkpt>
      <trkpt lat="42.73369" lon="1.87313">
        <ele>1487.8</ele>
        <time>2024-06-30T11:06:55Z</time>
      </trkpt>
      <trkpt lat="42.73365" lon="1.87321">
        <ele>1487.2</ele>
        <time>2024-06-30T11:06:56Z</time>
      </trkpt>
      <trkpt lat="42.73359" lon="1.87333">
        <ele>1485.4</ele>
        <time>2024-06-30T11:06:58Z</time>
      </trkpt>
      <trkpt lat="42.73353" lon="1.87346">
        <ele>1483.8</ele>
        <time>2024-06-30T11:07:00Z</time>
      </trkpt>
      <trkpt lat="42.73347" lon="1.87361">
        <ele>1482.2</ele>
        <time>2024-06-30T11:07:02Z</time>
      </trkpt>
      <trkpt lat="42.73344" lon="1.87368">
        <ele>1481.2</ele>
        <time>2024-06-30T11:07:03Z</time>
      </trkpt>
      <trkpt lat="42.73339" lon="1.87378">
        <ele>1479.6</ele>
        <time>2024-06-30T11:07:05Z</time>
      </trkpt>
      <trkpt lat="42.73336" lon="1.87385">
        <ele>1479</ele>
        <time>2024-06-30T11:07:06Z</time>
      </trkpt>
      <trkpt lat="42.73335" lon="1.8739">
        <ele>1477.6</ele>
        <time>2024-06-30T11:07:07Z</time>
      </trkpt>
      <trkpt lat="42.73332" lon="1.87398">
        <ele>1477.2</ele>
        <time>2024-06-30T11:07:08Z</time>
      </trkpt>
      <trkpt lat="42.73331" lon="1.87405">
        <ele>1476.2</ele>
        <time>2024-06-30T11:07:09Z</time>
      </trkpt>
      <trkpt lat="42.73329" lon="1.87412">
        <ele>1475.6</ele>
        <time>2024-06-30T11:07:10Z</time>
      </trkpt>
      <trkpt lat="42.73328" lon="1.87419">
        <ele>1474.4</ele>
        <time>2024-06-30T11:07:11Z</time>
      </trkpt>
      <trkpt lat="42.73326" lon="1.87426">
        <ele>1473.2</ele>
        <time>2024-06-30T11:07:12Z</time>
      </trkpt>
      <trkpt lat="42.73324" lon="1.87439">
        <ele>1471.4</ele>
        <time>2024-06-30T11:07:14Z</time>
      </trkpt>
      <trkpt lat="42.73323" lon="1.87443">
        <ele>1471</ele>
        <time>2024-06-30T11:07:15Z</time>
      </trkpt>
      <trkpt lat="42.73323" lon="1.87449">
        <ele>1469.8</ele>
        <time>2024-06-30T11:07:16Z</time>
      </trkpt>
      <trkpt lat="42.73322" lon="1.87452">
        <ele>1469</ele>
        <time>2024-06-30T11:07:17Z</time>
      </trkpt>
      <trkpt lat="42.73321" lon="1.87457">
        <ele>1468.4</ele>
        <time>2024-06-30T11:07:18Z</time>
      </trkpt>
      <trkpt lat="42.7332" lon="1.87462">
        <ele>1467.4</ele>
        <time>2024-06-30T11:07:19Z</time>
      </trkpt>
      <trkpt lat="42.73319" lon="1.87467">
        <ele>1466.6</ele>
        <time>2024-06-30T11:07:20Z</time>
      </trkpt>
      <trkpt lat="42.73319" lon="1.87472">
        <ele>1465.2</ele>
        <time>2024-06-30T11:07:21Z</time>
      </trkpt>
      <trkpt lat="42.73319" lon="1.87479">
        <ele>1464.6</ele>
        <time>2024-06-30T11:07:22Z</time>
      </trkpt>
      <trkpt lat="42.73319" lon="1.87485">
        <ele>1463.8</ele>
        <time>2024-06-30T11:07:23Z</time>
      </trkpt>
      <trkpt lat="42.73319" lon="1.87495">
        <ele>1461.6</ele>
        <time>2024-06-30T11:07:25Z</time>
      </trkpt>
      <trkpt lat="42.73318" lon="1.87501">
        <ele>1461</ele>
        <time>2024-06-30T11:07:26Z</time>
      </trkpt>
      <trkpt lat="42.73319" lon="1.87509">
        <ele>1459.8</ele>
        <time>2024-06-30T11:07:27Z</time>
      </trkpt>
      <trkpt lat="42.73319" lon="1.87517">
        <ele>1458.6</ele>
        <time>2024-06-30T11:07:28Z</time>
      </trkpt>
      <trkpt lat="42.73319" lon="1.87534">
        <ele>1456.4</ele>
        <time>2024-06-30T11:07:30Z</time>
      </trkpt>
      <trkpt lat="42.73319" lon="1.87548">
        <ele>1454.6</ele>
        <time>2024-06-30T11:07:32Z</time>
      </trkpt>
      <trkpt lat="42.7332" lon="1.87554">
        <ele>1454.2</ele>
        <time>2024-06-30T11:07:33Z</time>
      </trkpt>
      <trkpt lat="42.7332" lon="1.87561">
        <ele>1453.6</ele>
        <time>2024-06-30T11:07:34Z</time>
      </trkpt>
      <trkpt lat="42.73319" lon="1.8757">
        <ele>1452</ele>
        <time>2024-06-30T11:07:35Z</time>
      </trkpt>
      <trkpt lat="42.73314" lon="1.87588">
        <ele>1450</ele>
        <time>2024-06-30T11:07:37Z</time>
      </trkpt>
      <trkpt lat="42.73311" lon="1.87596">
        <ele>1449.4</ele>
        <time>2024-06-30T11:07:38Z</time>
      </trkpt>
      <trkpt lat="42.73307" lon="1.87604">
        <ele>1447.8</ele>
        <time>2024-06-30T11:07:39Z</time>
      </trkpt>
      <trkpt lat="42.733" lon="1.87616">
        <ele>1445.6</ele>
        <time>2024-06-30T11:07:41Z</time>
      </trkpt>
      <trkpt lat="42.73296" lon="1.87621">
        <ele>1445</ele>
        <time>2024-06-30T11:07:42Z</time>
      </trkpt>
      <trkpt lat="42.73291" lon="1.87627">
        <ele>1444.2</ele>
        <time>2024-06-30T11:07:43Z</time>
      </trkpt>
      <trkpt lat="42.73288" lon="1.87631">
        <ele>1443.4</ele>
        <time>2024-06-30T11:07:44Z</time>
      </trkpt>
      <trkpt lat="42.73284" lon="1.87635">
        <ele>1443</ele>
        <time>2024-06-30T11:07:45Z</time>
      </trkpt>
      <trkpt lat="42.7328" lon="1.8764">
        <ele>1442.4</ele>
        <time>2024-06-30T11:07:46Z</time>
      </trkpt>
      <trkpt lat="42.73276" lon="1.87645">
        <ele>1442</ele>
        <time>2024-06-30T11:07:47Z</time>
      </trkpt>
      <trkpt lat="42.73272" lon="1.87651">
        <ele>1441</ele>
        <time>2024-06-30T11:07:48Z</time>
      </trkpt>
      <trkpt lat="42.73264" lon="1.87662">
        <ele>1439.8</ele>
        <time>2024-06-30T11:07:50Z</time>
      </trkpt>
      <trkpt lat="42.73259" lon="1.87668">
        <ele>1438.2</ele>
        <time>2024-06-30T11:07:51Z</time>
      </trkpt>
      <trkpt lat="42.73252" lon="1.8768">
        <ele>1436.8</ele>
        <time>2024-06-30T11:07:53Z</time>
      </trkpt>
      <trkpt lat="42.73247" lon="1.87686">
        <ele>1435.8</ele>
        <time>2024-06-30T11:07:54Z</time>
      </trkpt>
      <trkpt lat="42.73242" lon="1.87692">
        <ele>1434</ele>
        <time>2024-06-30T11:07:55Z</time>
      </trkpt>
      <trkpt lat="42.73237" lon="1.87697">
        <ele>1432.8</ele>
        <time>2024-06-30T11:07:56Z</time>
      </trkpt>
      <trkpt lat="42.73232" lon="1.87702">
        <ele>1431.2</ele>
        <time>2024-06-30T11:07:57Z</time>
      </trkpt>
      <trkpt lat="42.73227" lon="1.87706">
        <ele>1430.8</ele>
        <time>2024-06-30T11:07:58Z</time>
      </trkpt>
      <trkpt lat="42.73221" lon="1.87709">
        <ele>1429.4</ele>
        <time>2024-06-30T11:07:59Z</time>
      </trkpt>
      <trkpt lat="42.73215" lon="1.87711">
        <ele>1428</ele>
        <time>2024-06-30T11:08:00Z</time>
      </trkpt>
      <trkpt lat="42.73211" lon="1.87713">
        <ele>1427.2</ele>
        <time>2024-06-30T11:08:01Z</time>
      </trkpt>
      <trkpt lat="42.73206" lon="1.87717">
        <ele>1425.8</ele>
        <time>2024-06-30T11:08:02Z</time>
      </trkpt>
      <trkpt lat="42.73202" lon="1.87721">
        <ele>1424.8</ele>
        <time>2024-06-30T11:08:03Z</time>
      </trkpt>
      <trkpt lat="42.73198" lon="1.87724">
        <ele>1423.8</ele>
        <time>2024-06-30T11:08:04Z</time>
      </trkpt>
      <trkpt lat="42.73195" lon="1.87726">
        <ele>1423</ele>
        <time>2024-06-30T11:08:05Z</time>
      </trkpt>
      <trkpt lat="42.73192" lon="1.87728">
        <ele>1421.8</ele>
        <time>2024-06-30T11:08:06Z</time>
      </trkpt>
      <trkpt lat="42.73188" lon="1.8773">
        <ele>1420.6</ele>
        <time>2024-06-30T11:08:07Z</time>
      </trkpt>
      <trkpt lat="42.73178" lon="1.8773">
        <ele>1419.2</ele>
        <time>2024-06-30T11:08:09Z</time>
      </trkpt>
      <trkpt lat="42.73172" lon="1.8773">
        <ele>1418.4</ele>
        <time>2024-06-30T11:08:10Z</time>
      </trkpt>
      <trkpt lat="42.73167" lon="1.8773">
        <ele>1416.6</ele>
        <time>2024-06-30T11:08:11Z</time>
      </trkpt>
      <trkpt lat="42.73157" lon="1.87731">
        <ele>1415.2</ele>
        <time>2024-06-30T11:08:13Z</time>
      </trkpt>
      <trkpt lat="42.73152" lon="1.87731">
        <ele>1414.8</ele>
        <time>2024-06-30T11:08:14Z</time>
      </trkpt>
      <trkpt lat="42.73148" lon="1.8773">
        <ele>1413.4</ele>
        <time>2024-06-30T11:08:15Z</time>
      </trkpt>
      <trkpt lat="42.73145" lon="1.87729">
        <ele>1410.8</ele>
        <time>2024-06-30T11:08:16Z</time>
      </trkpt>
      <trkpt lat="42.73142" lon="1.87731">
        <ele>1409.8</ele>
        <time>2024-06-30T11:08:17Z</time>
      </trkpt>
      <trkpt lat="42.73139" lon="1.87733">
        <ele>1408</ele>
        <time>2024-06-30T11:08:18Z</time>
      </trkpt>
      <trkpt lat="42.73131" lon="1.87733">
        <ele>1406</ele>
        <time>2024-06-30T11:08:20Z</time>
      </trkpt>
      <trkpt lat="42.73126" lon="1.87722">
        <ele>1403.6</ele>
        <time>2024-06-30T11:08:22Z</time>
      </trkpt>
      <trkpt lat="42.73123" lon="1.87715">
        <ele>1402.2</ele>
        <time>2024-06-30T11:08:23Z</time>
      </trkpt>
      <trkpt lat="42.73119" lon="1.87709">
        <ele>1402</ele>
        <time>2024-06-30T11:08:24Z</time>
      </trkpt>
      <trkpt lat="42.73115" lon="1.87703">
        <ele>1400.8</ele>
        <time>2024-06-30T11:08:25Z</time>
      </trkpt>
      <trkpt lat="42.73109" lon="1.87694">
        <ele>1399.4</ele>
        <time>2024-06-30T11:08:27Z</time>
      </trkpt>
      <trkpt lat="42.73106" lon="1.8769">
        <ele>1398.8</ele>
        <time>2024-06-30T11:08:28Z</time>
      </trkpt>
      <trkpt lat="42.73103" lon="1.87689">
        <ele>1397</ele>
        <time>2024-06-30T11:08:29Z</time>
      </trkpt>
      <trkpt lat="42.731" lon="1.87691">
        <ele>1396.2</ele>
        <time>2024-06-30T11:08:30Z</time>
      </trkpt>
      <trkpt lat="42.73097" lon="1.87694">
        <ele>1395</ele>
        <time>2024-06-30T11:08:31Z</time>
      </trkpt>
      <trkpt lat="42.73093" lon="1.87697">
        <ele>1394.2</ele>
        <time>2024-06-30T11:08:32Z</time>
      </trkpt>
      <trkpt lat="42.73089" lon="1.87699">
        <ele>1394</ele>
        <time>2024-06-30T11:08:33Z</time>
      </trkpt>
      <trkpt lat="42.73086" lon="1.87699">
        <ele>1392.6</ele>
        <time>2024-06-30T11:08:34Z</time>
      </trkpt>
      <trkpt lat="42.73083" lon="1.87696">
        <ele>1391.8</ele>
        <time>2024-06-30T11:08:35Z</time>
      </trkpt>
      <trkpt lat="42.7308" lon="1.87691">
        <ele>1390.8</ele>
        <time>2024-06-30T11:08:36Z</time>
      </trkpt>
      <trkpt lat="42.73076" lon="1.87681">
        <ele>1388.6</ele>
        <time>2024-06-30T11:08:38Z</time>
      </trkpt>
      <trkpt lat="42.73073" lon="1.87675">
        <ele>1387.4</ele>
        <time>2024-06-30T11:08:39Z</time>
      </trkpt>
      <trkpt lat="42.73071" lon="1.87668">
        <ele>1386.6</ele>
        <time>2024-06-30T11:08:40Z</time>
      </trkpt>
      <trkpt lat="42.73068" lon="1.87663">
        <ele>1385.8</ele>
        <time>2024-06-30T11:08:41Z</time>
      </trkpt>
      <trkpt lat="42.73065" lon="1.87657">
        <ele>1385.2</ele>
        <time>2024-06-30T11:08:42Z</time>
      </trkpt>
      <trkpt lat="42.73063" lon="1.87651">
        <ele>1383.6</ele>
        <time>2024-06-30T11:08:43Z</time>
      </trkpt>
      <trkpt lat="42.73061" lon="1.87636">
        <ele>1380.6</ele>
        <time>2024-06-30T11:08:45Z</time>
      </trkpt>
      <trkpt lat="42.73062" lon="1.8763">
        <ele>1379.4</ele>
        <time>2024-06-30T11:08:46Z</time>
      </trkpt>
      <trkpt lat="42.73064" lon="1.87626">
        <ele>1377.8</ele>
        <time>2024-06-30T11:08:47Z</time>
      </trkpt>
      <trkpt lat="42.73065" lon="1.87622">
        <ele>1376.4</ele>
        <time>2024-06-30T11:08:48Z</time>
      </trkpt>
      <trkpt lat="42.73064" lon="1.87619">
        <ele>1375.8</ele>
        <time>2024-06-30T11:08:49Z</time>
      </trkpt>
      <trkpt lat="42.73062" lon="1.87617">
        <ele>1374.2</ele>
        <time>2024-06-30T11:08:50Z</time>
      </trkpt>
      <trkpt lat="42.73059" lon="1.87616">
        <ele>1373.6</ele>
        <time>2024-06-30T11:08:51Z</time>
      </trkpt>
      <trkpt lat="42.73056" lon="1.87618">
        <ele>1372.4</ele>
        <time>2024-06-30T11:08:52Z</time>
      </trkpt>
      <trkpt lat="42.73051" lon="1.87624">
        <ele>1370.8</ele>
        <time>2024-06-30T11:08:54Z</time>
      </trkpt>
      <trkpt lat="42.73048" lon="1.87626">
        <ele>1369.6</ele>
        <time>2024-06-30T11:08:55Z</time>
      </trkpt>
      <trkpt lat="42.73045" lon="1.87628">
        <ele>1369.2</ele>
        <time>2024-06-30T11:08:56Z</time>
      </trkpt>
      <trkpt lat="42.73042" lon="1.87629">
        <ele>1367.6</ele>
        <time>2024-06-30T11:08:57Z</time>
      </trkpt>
      <trkpt lat="42.73037" lon="1.87632">
        <ele>1366.8</ele>
        <time>2024-06-30T11:08:58Z</time>
      </trkpt>
      <trkpt lat="42.73033" lon="1.87634">
        <ele>1365.8</ele>
        <time>2024-06-30T11:08:59Z</time>
      </trkpt>
      <trkpt lat="42.73028" lon="1.8764">
        <ele>1364</ele>
        <time>2024-06-30T11:09:01Z</time>
      </trkpt>
      <trkpt lat="42.73025" lon="1.87644">
        <ele>1363.4</ele>
        <time>2024-06-30T11:09:02Z</time>
      </trkpt>
      <trkpt lat="42.73022" lon="1.87648">
        <ele>1362.2</ele>
        <time>2024-06-30T11:09:03Z</time>
      </trkpt>
      <trkpt lat="42.73018" lon="1.87652">
        <ele>1361.4</ele>
        <time>2024-06-30T11:09:04Z</time>
      </trkpt>
      <trkpt lat="42.73015" lon="1.87656">
        <ele>1361</ele>
        <time>2024-06-30T11:09:05Z</time>
      </trkpt>
      <trkpt lat="42.73011" lon="1.8766">
        <ele>1360.4</ele>
        <time>2024-06-30T11:09:06Z</time>
      </trkpt>
      <trkpt lat="42.73007" lon="1.87664">
        <ele>1360</ele>
        <time>2024-06-30T11:09:07Z</time>
      </trkpt>
      <trkpt lat="42.73005" lon="1.87669">
        <ele>1359.4</ele>
        <time>2024-06-30T11:09:08Z</time>
      </trkpt>
      <trkpt lat="42.73002" lon="1.87673">
        <ele>1358.6</ele>
        <time>2024-06-30T11:09:09Z</time>
      </trkpt>
      <trkpt lat="42.72999" lon="1.87677">
        <ele>1356.6</ele>
        <time>2024-06-30T11:09:10Z</time>
      </trkpt>
      <trkpt lat="42.72997" lon="1.87679">
        <ele>1354.4</ele>
        <time>2024-06-30T11:09:11Z</time>
      </trkpt>
      <trkpt lat="42.72992" lon="1.87689">
        <ele>1352.4</ele>
        <time>2024-06-30T11:09:13Z</time>
      </trkpt>
      <trkpt lat="42.72989" lon="1.87696">
        <ele>1350.6</ele>
        <time>2024-06-30T11:09:15Z</time>
      </trkpt>
      <trkpt lat="42.72989" lon="1.877">
        <ele>1350</ele>
        <time>2024-06-30T11:09:16Z</time>
      </trkpt>
      <trkpt lat="42.72988" lon="1.87703">
        <ele>1348.6</ele>
        <time>2024-06-30T11:09:17Z</time>
      </trkpt>
      <trkpt lat="42.72988" lon="1.87705">
        <ele>1348</ele>
        <time>2024-06-30T11:09:18Z</time>
      </trkpt>
      <trkpt lat="42.72987" lon="1.87707">
        <ele>1347.2</ele>
        <time>2024-06-30T11:09:19Z</time>
      </trkpt>
      <trkpt lat="42.72986" lon="1.87708">
        <ele>1345.8</ele>
        <time>2024-06-30T11:09:20Z</time>
      </trkpt>
      <trkpt lat="42.72985" lon="1.87707">
        <ele>1345.4</ele>
        <time>2024-06-30T11:09:21Z</time>
      </trkpt>
      <trkpt lat="42.72983" lon="1.87706">
        <ele>1344.4</ele>
        <time>2024-06-30T11:09:22Z</time>
      </trkpt>
      <trkpt lat="42.72982" lon="1.87705">
        <ele>1343.6</ele>
        <time>2024-06-30T11:09:23Z</time>
      </trkpt>
      <trkpt lat="42.7298" lon="1.87702">
        <ele>1342.6</ele>
        <time>2024-06-30T11:09:24Z</time>
      </trkpt>
      <trkpt lat="42.72974" lon="1.87694">
        <ele>1341.6</ele>
        <time>2024-06-30T11:09:26Z</time>
      </trkpt>
      <trkpt lat="42.72971" lon="1.87689">
        <ele>1341.4</ele>
        <time>2024-06-30T11:09:27Z</time>
      </trkpt>
      <trkpt lat="42.72965" lon="1.87677">
        <ele>1339.6</ele>
        <time>2024-06-30T11:09:30Z</time>
      </trkpt>
      <trkpt lat="42.72963" lon="1.87673">
        <ele>1338.6</ele>
        <time>2024-06-30T11:09:31Z</time>
      </trkpt>
      <trkpt lat="42.7296" lon="1.87667">
        <ele>1338.2</ele>
        <time>2024-06-30T11:09:32Z</time>
      </trkpt>
      <trkpt lat="42.72958" lon="1.87661">
        <ele>1336.6</ele>
        <time>2024-06-30T11:09:33Z</time>
      </trkpt>
      <trkpt lat="42.72956" lon="1.87653">
        <ele>1336</ele>
        <time>2024-06-30T11:09:34Z</time>
      </trkpt>
      <trkpt lat="42.72954" lon="1.87644">
        <ele>1335</ele>
        <time>2024-06-30T11:09:35Z</time>
      </trkpt>
      <trkpt lat="42.72951" lon="1.87626">
        <ele>1333.4</ele>
        <time>2024-06-30T11:09:37Z</time>
      </trkpt>
      <trkpt lat="42.72951" lon="1.87616">
        <ele>1331.6</ele>
        <time>2024-06-30T11:09:38Z</time>
      </trkpt>
      <trkpt lat="42.72951" lon="1.87607">
        <ele>1330.8</ele>
        <time>2024-06-30T11:09:39Z</time>
      </trkpt>
      <trkpt lat="42.72952" lon="1.87598">
        <ele>1330</ele>
        <time>2024-06-30T11:09:40Z</time>
      </trkpt>
      <trkpt lat="42.72952" lon="1.87584">
        <ele>1327.4</ele>
        <time>2024-06-30T11:09:42Z</time>
      </trkpt>
      <trkpt lat="42.72953" lon="1.87578">
        <ele>1325.4</ele>
        <time>2024-06-30T11:09:43Z</time>
      </trkpt>
      <trkpt lat="42.72953" lon="1.87572">
        <ele>1324.4</ele>
        <time>2024-06-30T11:09:44Z</time>
      </trkpt>
      <trkpt lat="42.72954" lon="1.87567">
        <ele>1322.6</ele>
        <time>2024-06-30T11:09:45Z</time>
      </trkpt>
      <trkpt lat="42.72955" lon="1.87563">
        <ele>1322</ele>
        <time>2024-06-30T11:09:46Z</time>
      </trkpt>
      <trkpt lat="42.72954" lon="1.87559">
        <ele>1320.8</ele>
        <time>2024-06-30T11:09:47Z</time>
      </trkpt>
      <trkpt lat="42.72954" lon="1.87554">
        <ele>1320.2</ele>
        <time>2024-06-30T11:09:48Z</time>
      </trkpt>
      <trkpt lat="42.72953" lon="1.87549">
        <ele>1319</ele>
        <time>2024-06-30T11:09:49Z</time>
      </trkpt>
      <trkpt lat="42.72952" lon="1.87544">
        <ele>1318</ele>
        <time>2024-06-30T11:09:50Z</time>
      </trkpt>
      <trkpt lat="42.72952" lon="1.87539">
        <ele>1316.8</ele>
        <time>2024-06-30T11:09:51Z</time>
      </trkpt>
      <trkpt lat="42.72951" lon="1.87533">
        <ele>1315.4</ele>
        <time>2024-06-30T11:09:52Z</time>
      </trkpt>
      <trkpt lat="42.72952" lon="1.87524">
        <ele>1314.2</ele>
        <time>2024-06-30T11:09:54Z</time>
      </trkpt>
      <trkpt lat="42.72952" lon="1.87521">
        <ele>1313.6</ele>
        <time>2024-06-30T11:09:55Z</time>
      </trkpt>
      <trkpt lat="42.72952" lon="1.87518">
        <ele>1312.6</ele>
        <time>2024-06-30T11:09:56Z</time>
      </trkpt>
      <trkpt lat="42.72951" lon="1.87516">
        <ele>1311.6</ele>
        <time>2024-06-30T11:09:57Z</time>
      </trkpt>
      <trkpt lat="42.7295" lon="1.87514">
        <ele>1310.2</ele>
        <time>2024-06-30T11:09:58Z</time>
      </trkpt>
      <trkpt lat="42.72949" lon="1.87513">
        <ele>1309.6</ele>
        <time>2024-06-30T11:09:59Z</time>
      </trkpt>
      <trkpt lat="42.72947" lon="1.87514">
        <ele>1308.4</ele>
        <time>2024-06-30T11:10:00Z</time>
      </trkpt>
      <trkpt lat="42.72943" lon="1.87516">
        <ele>1307.6</ele>
        <time>2024-06-30T11:10:01Z</time>
      </trkpt>
      <trkpt lat="42.72939" lon="1.87519">
        <ele>1307.4</ele>
        <time>2024-06-30T11:10:02Z</time>
      </trkpt>
      <trkpt lat="42.72931" lon="1.87531">
        <ele>1306.4</ele>
        <time>2024-06-30T11:10:04Z</time>
      </trkpt>
      <trkpt lat="42.72928" lon="1.87538">
        <ele>1305.2</ele>
        <time>2024-06-30T11:10:05Z</time>
      </trkpt>
      <trkpt lat="42.72924" lon="1.87546">
        <ele>1304.8</ele>
        <time>2024-06-30T11:10:06Z</time>
      </trkpt>
      <trkpt lat="42.72921" lon="1.87555">
        <ele>1303.8</ele>
        <time>2024-06-30T11:10:07Z</time>
      </trkpt>
      <trkpt lat="42.72917" lon="1.87563">
        <ele>1302.8</ele>
        <time>2024-06-30T11:10:08Z</time>
      </trkpt>
      <trkpt lat="42.72913" lon="1.8757">
        <ele>1302.2</ele>
        <time>2024-06-30T11:10:09Z</time>
      </trkpt>
      <trkpt lat="42.72909" lon="1.87576">
        <ele>1301.6</ele>
        <time>2024-06-30T11:10:10Z</time>
      </trkpt>
      <trkpt lat="42.72904" lon="1.87581">
        <ele>1301.2</ele>
        <time>2024-06-30T11:10:11Z</time>
      </trkpt>
      <trkpt lat="42.729" lon="1.87584">
        <ele>1299.8</ele>
        <time>2024-06-30T11:10:12Z</time>
      </trkpt>
      <trkpt lat="42.72895" lon="1.87588">
        <ele>1299.4</ele>
        <time>2024-06-30T11:10:13Z</time>
      </trkpt>
      <trkpt lat="42.72892" lon="1.87594">
        <ele>1298.4</ele>
        <time>2024-06-30T11:10:14Z</time>
      </trkpt>
      <trkpt lat="42.72889" lon="1.87602">
        <ele>1298</ele>
        <time>2024-06-30T11:10:15Z</time>
      </trkpt>
      <trkpt lat="42.72887" lon="1.87612">
        <ele>1297</ele>
        <time>2024-06-30T11:10:16Z</time>
      </trkpt>
      <trkpt lat="42.72885" lon="1.87622">
        <ele>1296.2</ele>
        <time>2024-06-30T11:10:17Z</time>
      </trkpt>
      <trkpt lat="42.72883" lon="1.87632">
        <ele>1295.6</ele>
        <time>2024-06-30T11:10:18Z</time>
      </trkpt>
      <trkpt lat="42.72878" lon="1.8765">
        <ele>1294.2</ele>
        <time>2024-06-30T11:10:20Z</time>
      </trkpt>
      <trkpt lat="42.72877" lon="1.87657">
        <ele>1293.2</ele>
        <time>2024-06-30T11:10:21Z</time>
      </trkpt>
      <trkpt lat="42.72875" lon="1.87662">
        <ele>1292.4</ele>
        <time>2024-06-30T11:10:22Z</time>
      </trkpt>
      <trkpt lat="42.72874" lon="1.87667">
        <ele>1290.8</ele>
        <time>2024-06-30T11:10:23Z</time>
      </trkpt>
      <trkpt lat="42.72872" lon="1.87671">
        <ele>1289.6</ele>
        <time>2024-06-30T11:10:24Z</time>
      </trkpt>
      <trkpt lat="42.7287" lon="1.87675">
        <ele>1289.2</ele>
        <time>2024-06-30T11:10:25Z</time>
      </trkpt>
      <trkpt lat="42.72869" lon="1.8768">
        <ele>1288.6</ele>
        <time>2024-06-30T11:10:26Z</time>
      </trkpt>
      <trkpt lat="42.72868" lon="1.87684">
        <ele>1287.6</ele>
        <time>2024-06-30T11:10:27Z</time>
      </trkpt>
      <trkpt lat="42.72866" lon="1.87689">
        <ele>1286.4</ele>
        <time>2024-06-30T11:10:28Z</time>
      </trkpt>
      <trkpt lat="42.72864" lon="1.87698">
        <ele>1284.8</ele>
        <time>2024-06-30T11:10:30Z</time>
      </trkpt>
      <trkpt lat="42.72864" lon="1.87701">
        <ele>1284.6</ele>
        <time>2024-06-30T11:10:31Z</time>
      </trkpt>
      <trkpt lat="42.72864" lon="1.87702">
        <ele>1283.8</ele>
        <time>2024-06-30T11:10:32Z</time>
      </trkpt>
      <trkpt lat="42.72863" lon="1.87703">
        <ele>1282</ele>
        <time>2024-06-30T11:10:33Z</time>
      </trkpt>
      <trkpt lat="42.72863" lon="1.87703">
        <ele>1281.4</ele>
        <time>2024-06-30T11:10:34Z</time>
      </trkpt>
      <trkpt lat="42.72862" lon="1.87703">
        <ele>1279.6</ele>
        <time>2024-06-30T11:10:35Z</time>
      </trkpt>
      <trkpt lat="42.72861" lon="1.87702">
        <ele>1279</ele>
        <time>2024-06-30T11:10:36Z</time>
      </trkpt>
      <trkpt lat="42.72859" lon="1.87699">
        <ele>1278.4</ele>
        <time>2024-06-30T11:10:37Z</time>
      </trkpt>
      <trkpt lat="42.72854" lon="1.87688">
        <ele>1277.2</ele>
        <time>2024-06-30T11:10:40Z</time>
      </trkpt>
      <trkpt lat="42.72839" lon="1.87664">
        <ele>1276.4</ele>
        <time>2024-06-30T11:10:44Z</time>
      </trkpt>
      <trkpt lat="42.72835" lon="1.87656">
        <ele>1276.2</ele>
        <time>2024-06-30T11:10:45Z</time>
      </trkpt>
      <trkpt lat="42.72827" lon="1.87634">
        <ele>1275</ele>
        <time>2024-06-30T11:10:48Z</time>
      </trkpt>
      <trkpt lat="42.72825" lon="1.87627">
        <ele>1274.4</ele>
        <time>2024-06-30T11:10:49Z</time>
      </trkpt>
      <trkpt lat="42.72824" lon="1.87622">
        <ele>1274</ele>
        <time>2024-06-30T11:10:50Z</time>
      </trkpt>
      <trkpt lat="42.72823" lon="1.87619">
        <ele>1273.4</ele>
        <time>2024-06-30T11:10:51Z</time>
      </trkpt>
      <trkpt lat="42.72821" lon="1.87617">
        <ele>1272.6</ele>
        <time>2024-06-30T11:10:52Z</time>
      </trkpt>
      <trkpt lat="42.72819" lon="1.87616">
        <ele>1271.2</ele>
        <time>2024-06-30T11:10:53Z</time>
      </trkpt>
      <trkpt lat="42.72815" lon="1.87616">
        <ele>1270.8</ele>
        <time>2024-06-30T11:10:54Z</time>
      </trkpt>
      <trkpt lat="42.72809" lon="1.87617">
        <ele>1269.8</ele>
        <time>2024-06-30T11:10:55Z</time>
      </trkpt>
      <trkpt lat="42.72805" lon="1.87617">
        <ele>1268.4</ele>
        <time>2024-06-30T11:10:56Z</time>
      </trkpt>
      <trkpt lat="42.72802" lon="1.87617">
        <ele>1267.6</ele>
        <time>2024-06-30T11:10:57Z</time>
      </trkpt>
      <trkpt lat="42.72794" lon="1.87617">
        <ele>1266.4</ele>
        <time>2024-06-30T11:10:58Z</time>
      </trkpt>
      <trkpt lat="42.7279" lon="1.87617">
        <ele>1265.6</ele>
        <time>2024-06-30T11:10:59Z</time>
      </trkpt>
      <trkpt lat="42.72786" lon="1.87615">
        <ele>1264.4</ele>
        <time>2024-06-30T11:11:00Z</time>
      </trkpt>
      <trkpt lat="42.72781" lon="1.87611">
        <ele>1263.8</ele>
        <time>2024-06-30T11:11:01Z</time>
      </trkpt>
      <trkpt lat="42.72777" lon="1.87607">
        <ele>1263.2</ele>
        <time>2024-06-30T11:11:02Z</time>
      </trkpt>
      <trkpt lat="42.72774" lon="1.87604">
        <ele>1262.8</ele>
        <time>2024-06-30T11:11:03Z</time>
      </trkpt>
      <trkpt lat="42.72772" lon="1.87602">
        <ele>1262.4</ele>
        <time>2024-06-30T11:11:04Z</time>
      </trkpt>
      <trkpt lat="42.7277" lon="1.876">
        <ele>1261.6</ele>
        <time>2024-06-30T11:11:05Z</time>
      </trkpt>
      <trkpt lat="42.72768" lon="1.87599">
        <ele>1261.2</ele>
        <time>2024-06-30T11:11:06Z</time>
      </trkpt>
      <trkpt lat="42.72765" lon="1.87599">
        <ele>1260.4</ele>
        <time>2024-06-30T11:11:07Z</time>
      </trkpt>
      <trkpt lat="42.72763" lon="1.87602">
        <ele>1259.8</ele>
        <time>2024-06-30T11:11:08Z</time>
      </trkpt>
      <trkpt lat="42.7276" lon="1.87605">
        <ele>1259.2</ele>
        <time>2024-06-30T11:11:09Z</time>
      </trkpt>
      <trkpt lat="42.72756" lon="1.87606">
        <ele>1258.4</ele>
        <time>2024-06-30T11:11:10Z</time>
      </trkpt>
      <trkpt lat="42.72752" lon="1.87607">
        <ele>1257.4</ele>
        <time>2024-06-30T11:11:11Z</time>
      </trkpt>
      <trkpt lat="42.72745" lon="1.87607">
        <ele>1256.2</ele>
        <time>2024-06-30T11:11:13Z</time>
      </trkpt>
      <trkpt lat="42.72742" lon="1.87603">
        <ele>1255</ele>
        <time>2024-06-30T11:11:14Z</time>
      </trkpt>
      <trkpt lat="42.72739" lon="1.876">
        <ele>1254.6</ele>
        <time>2024-06-30T11:11:15Z</time>
      </trkpt>
      <trkpt lat="42.72735" lon="1.87596">
        <ele>1253.2</ele>
        <time>2024-06-30T11:11:16Z</time>
      </trkpt>
      <trkpt lat="42.72732" lon="1.8759">
        <ele>1252.4</ele>
        <time>2024-06-30T11:11:17Z</time>
      </trkpt>
      <trkpt lat="42.72731" lon="1.87585">
        <ele>1251.2</ele>
        <time>2024-06-30T11:11:18Z</time>
      </trkpt>
      <trkpt lat="42.72731" lon="1.87581">
        <ele>1250.8</ele>
        <time>2024-06-30T11:11:19Z</time>
      </trkpt>
      <trkpt lat="42.72732" lon="1.87576">
        <ele>1250</ele>
        <time>2024-06-30T11:11:20Z</time>
      </trkpt>
      <trkpt lat="42.72733" lon="1.87572">
        <ele>1248.6</ele>
        <time>2024-06-30T11:11:21Z</time>
      </trkpt>
      <trkpt lat="42.72733" lon="1.87569">
        <ele>1247.8</ele>
        <time>2024-06-30T11:11:22Z</time>
      </trkpt>
      <trkpt lat="42.72734" lon="1.87565">
        <ele>1247</ele>
        <time>2024-06-30T11:11:23Z</time>
      </trkpt>
      <trkpt lat="42.72733" lon="1.87554">
        <ele>1246</ele>
        <time>2024-06-30T11:11:26Z</time>
      </trkpt>
      <trkpt lat="42.72729" lon="1.87544">
        <ele>1244.8</ele>
        <time>2024-06-30T11:11:28Z</time>
      </trkpt>
      <trkpt lat="42.72729" lon="1.87532">
        <ele>1244.4</ele>
        <time>2024-06-30T11:11:30Z</time>
      </trkpt>
      <trkpt lat="42.7273" lon="1.87525">
        <ele>1242.6</ele>
        <time>2024-06-30T11:11:31Z</time>
      </trkpt>
      <trkpt lat="42.72731" lon="1.87518">
        <ele>1240.2</ele>
        <time>2024-06-30T11:11:32Z</time>
      </trkpt>
      <trkpt lat="42.72731" lon="1.87504">
        <ele>1238.2</ele>
        <time>2024-06-30T11:11:34Z</time>
      </trkpt>
      <trkpt lat="42.72732" lon="1.87499">
        <ele>1237.4</ele>
        <time>2024-06-30T11:11:35Z</time>
      </trkpt>
      <trkpt lat="42.72732" lon="1.87494">
        <ele>1236.4</ele>
        <time>2024-06-30T11:11:36Z</time>
      </trkpt>
      <trkpt lat="42.72733" lon="1.87489">
        <ele>1234.6</ele>
        <time>2024-06-30T11:11:37Z</time>
      </trkpt>
      <trkpt lat="42.72732" lon="1.87484">
        <ele>1233.8</ele>
        <time>2024-06-30T11:11:38Z</time>
      </trkpt>
      <trkpt lat="42.72732" lon="1.87479">
        <ele>1232.6</ele>
        <time>2024-06-30T11:11:39Z</time>
      </trkpt>
      <trkpt lat="42.72731" lon="1.87475">
        <ele>1232.2</ele>
        <time>2024-06-30T11:11:40Z</time>
      </trkpt>
      <trkpt lat="42.72731" lon="1.8747">
        <ele>1230.8</ele>
        <time>2024-06-30T11:11:41Z</time>
      </trkpt>
      <trkpt lat="42.72731" lon="1.87466">
        <ele>1230.4</ele>
        <time>2024-06-30T11:11:42Z</time>
      </trkpt>
      <trkpt lat="42.72731" lon="1.8746">
        <ele>1227.8</ele>
        <time>2024-06-30T11:11:43Z</time>
      </trkpt>
      <trkpt lat="42.72731" lon="1.87455">
        <ele>1226.2</ele>
        <time>2024-06-30T11:11:44Z</time>
      </trkpt>
      <trkpt lat="42.72731" lon="1.87451">
        <ele>1225.4</ele>
        <time>2024-06-30T11:11:45Z</time>
      </trkpt>
      <trkpt lat="42.7273" lon="1.87446">
        <ele>1224.2</ele>
        <time>2024-06-30T11:11:46Z</time>
      </trkpt>
      <trkpt lat="42.72729" lon="1.87443">
        <ele>1224</ele>
        <time>2024-06-30T11:11:47Z</time>
      </trkpt>
      <trkpt lat="42.72729" lon="1.87442">
        <ele>1222.6</ele>
        <time>2024-06-30T11:11:48Z</time>
      </trkpt>
      <trkpt lat="42.72728" lon="1.87439">
        <ele>1222.2</ele>
        <time>2024-06-30T11:11:49Z</time>
      </trkpt>
      <trkpt lat="42.72726" lon="1.87436">
        <ele>1220.4</ele>
        <time>2024-06-30T11:11:50Z</time>
      </trkpt>
      <trkpt lat="42.72723" lon="1.87431">
        <ele>1219.6</ele>
        <time>2024-06-30T11:11:51Z</time>
      </trkpt>
      <trkpt lat="42.72722" lon="1.87426">
        <ele>1218.2</ele>
        <time>2024-06-30T11:11:52Z</time>
      </trkpt>
      <trkpt lat="42.72721" lon="1.87422">
        <ele>1216.8</ele>
        <time>2024-06-30T11:11:53Z</time>
      </trkpt>
      <trkpt lat="42.7272" lon="1.87416">
        <ele>1216.2</ele>
        <time>2024-06-30T11:11:54Z</time>
      </trkpt>
      <trkpt lat="42.7272" lon="1.87408">
        <ele>1215.2</ele>
        <time>2024-06-30T11:11:55Z</time>
      </trkpt>
      <trkpt lat="42.7272" lon="1.87401">
        <ele>1214.8</ele>
        <time>2024-06-30T11:11:56Z</time>
      </trkpt>
      <trkpt lat="42.7272" lon="1.87393">
        <ele>1213.4</ele>
        <time>2024-06-30T11:11:57Z</time>
      </trkpt>
      <trkpt lat="42.72723" lon="1.87376">
        <ele>1211.2</ele>
        <time>2024-06-30T11:11:59Z</time>
      </trkpt>
      <trkpt lat="42.72726" lon="1.87368">
        <ele>1210</ele>
        <time>2024-06-30T11:12:00Z</time>
      </trkpt>
      <trkpt lat="42.72729" lon="1.87351">
        <ele>1208.4</ele>
        <time>2024-06-30T11:12:02Z</time>
      </trkpt>
      <trkpt lat="42.72731" lon="1.87344">
        <ele>1208</ele>
        <time>2024-06-30T11:12:03Z</time>
      </trkpt>
      <trkpt lat="42.72731" lon="1.87338">
        <ele>1205.4</ele>
        <time>2024-06-30T11:12:04Z</time>
      </trkpt>
      <trkpt lat="42.72732" lon="1.87331">
        <ele>1204.2</ele>
        <time>2024-06-30T11:12:05Z</time>
      </trkpt>
      <trkpt lat="42.72734" lon="1.87327">
        <ele>1202.8</ele>
        <time>2024-06-30T11:12:06Z</time>
      </trkpt>
      <trkpt lat="42.72736" lon="1.87321">
        <ele>1202.4</ele>
        <time>2024-06-30T11:12:07Z</time>
      </trkpt>
      <trkpt lat="42.72739" lon="1.87315">
        <ele>1201.4</ele>
        <time>2024-06-30T11:12:08Z</time>
      </trkpt>
      <trkpt lat="42.7274" lon="1.87305">
        <ele>1199.8</ele>
        <time>2024-06-30T11:12:09Z</time>
      </trkpt>
      <trkpt lat="42.7274" lon="1.87295">
        <ele>1198.6</ele>
        <time>2024-06-30T11:12:10Z</time>
      </trkpt>
      <trkpt lat="42.72741" lon="1.87285">
        <ele>1197.4</ele>
        <time>2024-06-30T11:12:11Z</time>
      </trkpt>
      <trkpt lat="42.72741" lon="1.87277">
        <ele>1196.6</ele>
        <time>2024-06-30T11:12:12Z</time>
      </trkpt>
      <trkpt lat="42.72741" lon="1.87272">
        <ele>1195</ele>
        <time>2024-06-30T11:12:13Z</time>
      </trkpt>
      <trkpt lat="42.7274" lon="1.87268">
        <ele>1194.2</ele>
        <time>2024-06-30T11:12:14Z</time>
      </trkpt>
      <trkpt lat="42.7274" lon="1.87264">
        <ele>1191.8</ele>
        <time>2024-06-30T11:12:15Z</time>
      </trkpt>
      <trkpt lat="42.72741" lon="1.87261">
        <ele>1190.2</ele>
        <time>2024-06-30T11:12:16Z</time>
      </trkpt>
      <trkpt lat="42.72741" lon="1.87255">
        <ele>1189.6</ele>
        <time>2024-06-30T11:12:17Z</time>
      </trkpt>
      <trkpt lat="42.72742" lon="1.87248">
        <ele>1188.6</ele>
        <time>2024-06-30T11:12:18Z</time>
      </trkpt>
      <trkpt lat="42.72745" lon="1.87233">
        <ele>1187.6</ele>
        <time>2024-06-30T11:12:20Z</time>
      </trkpt>
      <trkpt lat="42.72746" lon="1.87226">
        <ele>1186.8</ele>
        <time>2024-06-30T11:12:21Z</time>
      </trkpt>
      <trkpt lat="42.72746" lon="1.87216">
        <ele>1185.4</ele>
        <time>2024-06-30T11:12:22Z</time>
      </trkpt>
      <trkpt lat="42.72745" lon="1.87207">
        <ele>1184.8</ele>
        <time>2024-06-30T11:12:23Z</time>
      </trkpt>
      <trkpt lat="42.72744" lon="1.87198">
        <ele>1183.6</ele>
        <time>2024-06-30T11:12:24Z</time>
      </trkpt>
      <trkpt lat="42.72744" lon="1.8718">
        <ele>1182.4</ele>
        <time>2024-06-30T11:12:26Z</time>
      </trkpt>
      <trkpt lat="42.72745" lon="1.87167">
        <ele>1182</ele>
        <time>2024-06-30T11:12:27Z</time>
      </trkpt>
      <trkpt lat="42.72748" lon="1.87145">
        <ele>1181.2</ele>
        <time>2024-06-30T11:12:29Z</time>
      </trkpt>
      <trkpt lat="42.72754" lon="1.87111">
        <ele>1180</ele>
        <time>2024-06-30T11:12:32Z</time>
      </trkpt>
      <trkpt lat="42.7276" lon="1.87091">
        <ele>1178.8</ele>
        <time>2024-06-30T11:12:34Z</time>
      </trkpt>
      <trkpt lat="42.72764" lon="1.87081">
        <ele>1178.6</ele>
        <time>2024-06-30T11:12:35Z</time>
      </trkpt>
      <trkpt lat="42.72769" lon="1.87072">
        <ele>1178.2</ele>
        <time>2024-06-30T11:12:36Z</time>
      </trkpt>
      <trkpt lat="42.72781" lon="1.87053">
        <ele>1177</ele>
        <time>2024-06-30T11:12:38Z</time>
      </trkpt>
      <trkpt lat="42.72796" lon="1.87035">
        <ele>1176.2</ele>
        <time>2024-06-30T11:12:40Z</time>
      </trkpt>
      <trkpt lat="42.72803" lon="1.87026">
        <ele>1175.2</ele>
        <time>2024-06-30T11:12:41Z</time>
      </trkpt>
      <trkpt lat="42.72809" lon="1.87018">
        <ele>1174.6</ele>
        <time>2024-06-30T11:12:42Z</time>
      </trkpt>
      <trkpt lat="42.72818" lon="1.87007">
        <ele>1174</ele>
        <time>2024-06-30T11:12:43Z</time>
      </trkpt>
      <trkpt lat="42.72824" lon="1.86998">
        <ele>1173.8</ele>
        <time>2024-06-30T11:12:44Z</time>
      </trkpt>
      <trkpt lat="42.72829" lon="1.86988">
        <ele>1172.6</ele>
        <time>2024-06-30T11:12:45Z</time>
      </trkpt>
      <trkpt lat="42.72833" lon="1.86976">
        <ele>1172.2</ele>
        <time>2024-06-30T11:12:46Z</time>
      </trkpt>
      <trkpt lat="42.72837" lon="1.86967">
        <ele>1171.6</ele>
        <time>2024-06-30T11:12:47Z</time>
      </trkpt>
      <trkpt lat="42.72841" lon="1.86955">
        <ele>1171</ele>
        <time>2024-06-30T11:12:48Z</time>
      </trkpt>
      <trkpt lat="42.7285" lon="1.86929">
        <ele>1170</ele>
        <time>2024-06-30T11:12:50Z</time>
      </trkpt>
      <trkpt lat="42.72853" lon="1.8692">
        <ele>1169.8</ele>
        <time>2024-06-30T11:12:51Z</time>
      </trkpt>
      <trkpt lat="42.72857" lon="1.86908">
        <ele>1169.2</ele>
        <time>2024-06-30T11:12:52Z</time>
      </trkpt>
      <trkpt lat="42.72862" lon="1.86896">
        <ele>1169</ele>
        <time>2024-06-30T11:12:53Z</time>
      </trkpt>
      <trkpt lat="42.72867" lon="1.86886">
        <ele>1168.6</ele>
        <time>2024-06-30T11:12:54Z</time>
      </trkpt>
      <trkpt lat="42.72872" lon="1.86875">
        <ele>1168.6</ele>
        <time>2024-06-30T11:12:55Z</time>
      </trkpt>
      <trkpt lat="42.72876" lon="1.86866">
        <ele>1168.2</ele>
        <time>2024-06-30T11:12:56Z</time>
      </trkpt>
      <trkpt lat="42.72881" lon="1.86856">
        <ele>1167.8</ele>
        <time>2024-06-30T11:12:57Z</time>
      </trkpt>
      <trkpt lat="42.72885" lon="1.86845">
        <ele>1167.6</ele>
        <time>2024-06-30T11:12:58Z</time>
      </trkpt>
      <trkpt lat="42.72888" lon="1.86834">
        <ele>1167.2</ele>
        <time>2024-06-30T11:12:59Z</time>
      </trkpt>
      <trkpt lat="42.72889" lon="1.86821">
        <ele>1167</ele>
        <time>2024-06-30T11:13:00Z</time>
      </trkpt>
      <trkpt lat="42.72889" lon="1.86809">
        <ele>1166.8</ele>
        <time>2024-06-30T11:13:01Z</time>
      </trkpt>
      <trkpt lat="42.7289" lon="1.86796">
        <ele>1166.6</ele>
        <time>2024-06-30T11:13:02Z</time>
      </trkpt>
      <trkpt lat="42.7289" lon="1.86785">
        <ele>1166.4</ele>
        <time>2024-06-30T11:13:03Z</time>
      </trkpt>
      <trkpt lat="42.72896" lon="1.86729">
        <ele>1165</ele>
        <time>2024-06-30T11:13:08Z</time>
      </trkpt>
      <trkpt lat="42.729" lon="1.86705">
        <ele>1164.6</ele>
        <time>2024-06-30T11:13:10Z</time>
      </trkpt>
      <trkpt lat="42.72903" lon="1.86695">
        <ele>1164.6</ele>
        <time>2024-06-30T11:13:11Z</time>
      </trkpt>
      <trkpt lat="42.72909" lon="1.86673">
        <ele>1164.2</ele>
        <time>2024-06-30T11:13:13Z</time>
      </trkpt>
      <trkpt lat="42.72911" lon="1.86663">
        <ele>1164</ele>
        <time>2024-06-30T11:13:14Z</time>
      </trkpt>
      <trkpt lat="42.72913" lon="1.86653">
        <ele>1163.8</ele>
        <time>2024-06-30T11:13:15Z</time>
      </trkpt>
      <trkpt lat="42.72916" lon="1.86643">
        <ele>1163.4</ele>
        <time>2024-06-30T11:13:16Z</time>
      </trkpt>
      <trkpt lat="42.7292" lon="1.86623">
        <ele>1162.8</ele>
        <time>2024-06-30T11:13:18Z</time>
      </trkpt>
      <trkpt lat="42.72922" lon="1.86612">
        <ele>1162.4</ele>
        <time>2024-06-30T11:13:19Z</time>
      </trkpt>
      <trkpt lat="42.72924" lon="1.86601">
        <ele>1162.2</ele>
        <time>2024-06-30T11:13:20Z</time>
      </trkpt>
      <trkpt lat="42.72925" lon="1.86589">
        <ele>1162</ele>
        <time>2024-06-30T11:13:21Z</time>
      </trkpt>
      <trkpt lat="42.72927" lon="1.86562">
        <ele>1161.8</ele>
        <time>2024-06-30T11:13:23Z</time>
      </trkpt>
      <trkpt lat="42.7293" lon="1.86549">
        <ele>1161.2</ele>
        <time>2024-06-30T11:13:24Z</time>
      </trkpt>
      <trkpt lat="42.72933" lon="1.86534">
        <ele>1161</ele>
        <time>2024-06-30T11:13:25Z</time>
      </trkpt>
      <trkpt lat="42.7294" lon="1.86506">
        <ele>1160.2</ele>
        <time>2024-06-30T11:13:27Z</time>
      </trkpt>
      <trkpt lat="42.72946" lon="1.86477">
        <ele>1158.8</ele>
        <time>2024-06-30T11:13:29Z</time>
      </trkpt>
      <trkpt lat="42.72947" lon="1.86462">
        <ele>1158.2</ele>
        <time>2024-06-30T11:13:30Z</time>
      </trkpt>
      <trkpt lat="42.72945" lon="1.86446">
        <ele>1157.4</ele>
        <time>2024-06-30T11:13:31Z</time>
      </trkpt>
      <trkpt lat="42.72945" lon="1.86429">
        <ele>1156.8</ele>
        <time>2024-06-30T11:13:32Z</time>
      </trkpt>
      <trkpt lat="42.72946" lon="1.86412">
        <ele>1155.6</ele>
        <time>2024-06-30T11:13:33Z</time>
      </trkpt>
      <trkpt lat="42.72952" lon="1.86379">
        <ele>1153.8</ele>
        <time>2024-06-30T11:13:35Z</time>
      </trkpt>
      <trkpt lat="42.72955" lon="1.86363">
        <ele>1152.4</ele>
        <time>2024-06-30T11:13:36Z</time>
      </trkpt>
      <trkpt lat="42.72959" lon="1.8635">
        <ele>1152</ele>
        <time>2024-06-30T11:13:37Z</time>
      </trkpt>
      <trkpt lat="42.72964" lon="1.86339">
        <ele>1150.6</ele>
        <time>2024-06-30T11:13:38Z</time>
      </trkpt>
      <trkpt lat="42.72968" lon="1.8633">
        <ele>1150</ele>
        <time>2024-06-30T11:13:39Z</time>
      </trkpt>
      <trkpt lat="42.72972" lon="1.86323">
        <ele>1148.6</ele>
        <time>2024-06-30T11:13:40Z</time>
      </trkpt>
      <trkpt lat="42.72974" lon="1.86315">
        <ele>1148</ele>
        <time>2024-06-30T11:13:41Z</time>
      </trkpt>
      <trkpt lat="42.72975" lon="1.86305">
        <ele>1146.2</ele>
        <time>2024-06-30T11:13:42Z</time>
      </trkpt>
      <trkpt lat="42.72974" lon="1.86295">
        <ele>1145</ele>
        <time>2024-06-30T11:13:43Z</time>
      </trkpt>
      <trkpt lat="42.72973" lon="1.86284">
        <ele>1144.2</ele>
        <time>2024-06-30T11:13:44Z</time>
      </trkpt>
      <trkpt lat="42.72973" lon="1.86273">
        <ele>1142.8</ele>
        <time>2024-06-30T11:13:45Z</time>
      </trkpt>
      <trkpt lat="42.72972" lon="1.86261">
        <ele>1141.8</ele>
        <time>2024-06-30T11:13:46Z</time>
      </trkpt>
      <trkpt lat="42.72972" lon="1.8625">
        <ele>1140.2</ele>
        <time>2024-06-30T11:13:47Z</time>
      </trkpt>
      <trkpt lat="42.72973" lon="1.8623">
        <ele>1138.6</ele>
        <time>2024-06-30T11:13:49Z</time>
      </trkpt>
      <trkpt lat="42.72974" lon="1.8622">
        <ele>1137.8</ele>
        <time>2024-06-30T11:13:50Z</time>
      </trkpt>
      <trkpt lat="42.72977" lon="1.86209">
        <ele>1136</ele>
        <time>2024-06-30T11:13:51Z</time>
      </trkpt>
      <trkpt lat="42.72982" lon="1.862">
        <ele>1134</ele>
        <time>2024-06-30T11:13:52Z</time>
      </trkpt>
      <trkpt lat="42.72987" lon="1.86193">
        <ele>1133.2</ele>
        <time>2024-06-30T11:13:53Z</time>
      </trkpt>
      <trkpt lat="42.72992" lon="1.86185">
        <ele>1130.8</ele>
        <time>2024-06-30T11:13:54Z</time>
      </trkpt>
      <trkpt lat="42.72995" lon="1.86178">
        <ele>1130</ele>
        <time>2024-06-30T11:13:55Z</time>
      </trkpt>
      <trkpt lat="42.73" lon="1.86166">
        <ele>1128.2</ele>
        <time>2024-06-30T11:13:56Z</time>
      </trkpt>
      <trkpt lat="42.73003" lon="1.86154">
        <ele>1127.8</ele>
        <time>2024-06-30T11:13:57Z</time>
      </trkpt>
      <trkpt lat="42.73005" lon="1.86141">
        <ele>1126.4</ele>
        <time>2024-06-30T11:13:58Z</time>
      </trkpt>
      <trkpt lat="42.73007" lon="1.86127">
        <ele>1124</ele>
        <time>2024-06-30T11:13:59Z</time>
      </trkpt>
      <trkpt lat="42.73009" lon="1.86103">
        <ele>1121.6</ele>
        <time>2024-06-30T11:14:01Z</time>
      </trkpt>
      <trkpt lat="42.73007" lon="1.86091">
        <ele>1121</ele>
        <time>2024-06-30T11:14:02Z</time>
      </trkpt>
      <trkpt lat="42.73007" lon="1.86078">
        <ele>1119.4</ele>
        <time>2024-06-30T11:14:03Z</time>
      </trkpt>
      <trkpt lat="42.73006" lon="1.86064">
        <ele>1118.8</ele>
        <time>2024-06-30T11:14:04Z</time>
      </trkpt>
      <trkpt lat="42.73007" lon="1.86047">
        <ele>1117.2</ele>
        <time>2024-06-30T11:14:05Z</time>
      </trkpt>
      <trkpt lat="42.73008" lon="1.86032">
        <ele>1116.4</ele>
        <time>2024-06-30T11:14:06Z</time>
      </trkpt>
      <trkpt lat="42.7301" lon="1.86017">
        <ele>1114.2</ele>
        <time>2024-06-30T11:14:07Z</time>
      </trkpt>
      <trkpt lat="42.73012" lon="1.86002">
        <ele>1112.4</ele>
        <time>2024-06-30T11:14:08Z</time>
      </trkpt>
      <trkpt lat="42.73013" lon="1.85973">
        <ele>1110.6</ele>
        <time>2024-06-30T11:14:10Z</time>
      </trkpt>
      <trkpt lat="42.73012" lon="1.85953">
        <ele>1109.6</ele>
        <time>2024-06-30T11:14:11Z</time>
      </trkpt>
      <trkpt lat="42.7301" lon="1.85937">
        <ele>1108</ele>
        <time>2024-06-30T11:14:12Z</time>
      </trkpt>
      <trkpt lat="42.73005" lon="1.85906">
        <ele>1106.2</ele>
        <time>2024-06-30T11:14:14Z</time>
      </trkpt>
      <trkpt lat="42.73004" lon="1.85895">
        <ele>1105.2</ele>
        <time>2024-06-30T11:14:15Z</time>
      </trkpt>
      <trkpt lat="42.73004" lon="1.85886">
        <ele>1104.8</ele>
        <time>2024-06-30T11:14:16Z</time>
      </trkpt>
      <trkpt lat="42.73005" lon="1.85875">
        <ele>1104</ele>
        <time>2024-06-30T11:14:17Z</time>
      </trkpt>
      <trkpt lat="42.73008" lon="1.85865">
        <ele>1103.4</ele>
        <time>2024-06-30T11:14:18Z</time>
      </trkpt>
      <trkpt lat="42.73013" lon="1.85856">
        <ele>1103.2</ele>
        <time>2024-06-30T11:14:19Z</time>
      </trkpt>
      <trkpt lat="42.73017" lon="1.85848">
        <ele>1102.8</ele>
        <time>2024-06-30T11:14:20Z</time>
      </trkpt>
      <trkpt lat="42.73021" lon="1.85842">
        <ele>1102</ele>
        <time>2024-06-30T11:14:21Z</time>
      </trkpt>
      <trkpt lat="42.73025" lon="1.85832">
        <ele>1101.6</ele>
        <time>2024-06-30T11:14:22Z</time>
      </trkpt>
      <trkpt lat="42.73029" lon="1.85824">
        <ele>1101.2</ele>
        <time>2024-06-30T11:14:23Z</time>
      </trkpt>
      <trkpt lat="42.73032" lon="1.85816">
        <ele>1100.4</ele>
        <time>2024-06-30T11:14:24Z</time>
      </trkpt>
      <trkpt lat="42.73036" lon="1.85808">
        <ele>1100</ele>
        <time>2024-06-30T11:14:25Z</time>
      </trkpt>
      <trkpt lat="42.73039" lon="1.858">
        <ele>1099.6</ele>
        <time>2024-06-30T11:14:26Z</time>
      </trkpt>
      <trkpt lat="42.73041" lon="1.85792">
        <ele>1099.4</ele>
        <time>2024-06-30T11:14:27Z</time>
      </trkpt>
      <trkpt lat="42.73042" lon="1.85784">
        <ele>1098.8</ele>
        <time>2024-06-30T11:14:28Z</time>
      </trkpt>
      <trkpt lat="42.73043" lon="1.85775">
        <ele>1098.4</ele>
        <time>2024-06-30T11:14:29Z</time>
      </trkpt>
      <trkpt lat="42.73042" lon="1.85766">
        <ele>1098</ele>
        <time>2024-06-30T11:14:30Z</time>
      </trkpt>
      <trkpt lat="42.73041" lon="1.85755">
        <ele>1097.6</ele>
        <time>2024-06-30T11:14:31Z</time>
      </trkpt>
      <trkpt lat="42.7304" lon="1.85745">
        <ele>1097.6</ele>
        <time>2024-06-30T11:14:32Z</time>
      </trkpt>
      <trkpt lat="42.73041" lon="1.85731">
        <ele>1097.2</ele>
        <time>2024-06-30T11:14:33Z</time>
      </trkpt>
      <trkpt lat="42.73045" lon="1.85707">
        <ele>1096.8</ele>
        <time>2024-06-30T11:14:35Z</time>
      </trkpt>
      <trkpt lat="42.73053" lon="1.85684">
        <ele>1096.2</ele>
        <time>2024-06-30T11:14:37Z</time>
      </trkpt>
      <trkpt lat="42.73056" lon="1.85673">
        <ele>1095.8</ele>
        <time>2024-06-30T11:14:38Z</time>
      </trkpt>
      <trkpt lat="42.73058" lon="1.85663">
        <ele>1095</ele>
        <time>2024-06-30T11:14:39Z</time>
      </trkpt>
      <trkpt lat="42.73058" lon="1.85649">
        <ele>1093.6</ele>
        <time>2024-06-30T11:14:40Z</time>
      </trkpt>
      <trkpt lat="42.73055" lon="1.85634">
        <ele>1093.2</ele>
        <time>2024-06-30T11:14:41Z</time>
      </trkpt>
      <trkpt lat="42.73054" lon="1.85619">
        <ele>1092.2</ele>
        <time>2024-06-30T11:14:42Z</time>
      </trkpt>
      <trkpt lat="42.73052" lon="1.85606">
        <ele>1091.6</ele>
        <time>2024-06-30T11:14:43Z</time>
      </trkpt>
      <trkpt lat="42.7305" lon="1.85592">
        <ele>1090.4</ele>
        <time>2024-06-30T11:14:44Z</time>
      </trkpt>
      <trkpt lat="42.73049" lon="1.85577">
        <ele>1090</ele>
        <time>2024-06-30T11:14:45Z</time>
      </trkpt>
      <trkpt lat="42.73048" lon="1.85564">
        <ele>1089</ele>
        <time>2024-06-30T11:14:46Z</time>
      </trkpt>
      <trkpt lat="42.73047" lon="1.85548">
        <ele>1088.6</ele>
        <time>2024-06-30T11:14:47Z</time>
      </trkpt>
      <trkpt lat="42.73044" lon="1.85532">
        <ele>1087.8</ele>
        <time>2024-06-30T11:14:48Z</time>
      </trkpt>
      <trkpt lat="42.73042" lon="1.85516">
        <ele>1086.2</ele>
        <time>2024-06-30T11:14:49Z</time>
      </trkpt>
      <trkpt lat="42.7304" lon="1.85502">
        <ele>1085.2</ele>
        <time>2024-06-30T11:14:50Z</time>
      </trkpt>
      <trkpt lat="42.73038" lon="1.85487">
        <ele>1084</ele>
        <time>2024-06-30T11:14:51Z</time>
      </trkpt>
      <trkpt lat="42.73035" lon="1.85471">
        <ele>1083</ele>
        <time>2024-06-30T11:14:52Z</time>
      </trkpt>
      <trkpt lat="42.73033" lon="1.85457">
        <ele>1081.6</ele>
        <time>2024-06-30T11:14:53Z</time>
      </trkpt>
      <trkpt lat="42.73033" lon="1.85444">
        <ele>1080.6</ele>
        <time>2024-06-30T11:14:54Z</time>
      </trkpt>
      <trkpt lat="42.73033" lon="1.85429">
        <ele>1079.6</ele>
        <time>2024-06-30T11:14:55Z</time>
      </trkpt>
      <trkpt lat="42.73033" lon="1.85411">
        <ele>1078.4</ele>
        <time>2024-06-30T11:14:56Z</time>
      </trkpt>
      <trkpt lat="42.73034" lon="1.85374">
        <ele>1076.2</ele>
        <time>2024-06-30T11:14:58Z</time>
      </trkpt>
      <trkpt lat="42.73032" lon="1.85342">
        <ele>1074.4</ele>
        <time>2024-06-30T11:15:00Z</time>
      </trkpt>
      <trkpt lat="42.73028" lon="1.85308">
        <ele>1072</ele>
        <time>2024-06-30T11:15:02Z</time>
      </trkpt>
      <trkpt lat="42.73028" lon="1.85294">
        <ele>1070.4</ele>
        <time>2024-06-30T11:15:03Z</time>
      </trkpt>
      <trkpt lat="42.73029" lon="1.85282">
        <ele>1069.6</ele>
        <time>2024-06-30T11:15:04Z</time>
      </trkpt>
      <trkpt lat="42.7303" lon="1.85273">
        <ele>1067.8</ele>
        <time>2024-06-30T11:15:05Z</time>
      </trkpt>
      <trkpt lat="42.73031" lon="1.85264">
        <ele>1067.2</ele>
        <time>2024-06-30T11:15:06Z</time>
      </trkpt>
      <trkpt lat="42.7303" lon="1.85254">
        <ele>1065.6</ele>
        <time>2024-06-30T11:15:07Z</time>
      </trkpt>
      <trkpt lat="42.73028" lon="1.85244">
        <ele>1064.4</ele>
        <time>2024-06-30T11:15:08Z</time>
      </trkpt>
      <trkpt lat="42.73027" lon="1.85236">
        <ele>1062.8</ele>
        <time>2024-06-30T11:15:09Z</time>
      </trkpt>
      <trkpt lat="42.73027" lon="1.85229">
        <ele>1062.2</ele>
        <time>2024-06-30T11:15:10Z</time>
      </trkpt>
      <trkpt lat="42.73025" lon="1.85223">
        <ele>1061.6</ele>
        <time>2024-06-30T11:15:11Z</time>
      </trkpt>
      <trkpt lat="42.73022" lon="1.85216">
        <ele>1061</ele>
        <time>2024-06-30T11:15:12Z</time>
      </trkpt>
      <trkpt lat="42.73019" lon="1.85208">
        <ele>1060.6</ele>
        <time>2024-06-30T11:15:13Z</time>
      </trkpt>
      <trkpt lat="42.73015" lon="1.85199">
        <ele>1060</ele>
        <time>2024-06-30T11:15:14Z</time>
      </trkpt>
      <trkpt lat="42.73011" lon="1.85192">
        <ele>1059.8</ele>
        <time>2024-06-30T11:15:15Z</time>
      </trkpt>
      <trkpt lat="42.73006" lon="1.85184">
        <ele>1059.2</ele>
        <time>2024-06-30T11:15:16Z</time>
      </trkpt>
      <trkpt lat="42.72995" lon="1.85174">
        <ele>1058.4</ele>
        <time>2024-06-30T11:15:18Z</time>
      </trkpt>
      <trkpt lat="42.72989" lon="1.85171">
        <ele>1058</ele>
        <time>2024-06-30T11:15:19Z</time>
      </trkpt>
      <trkpt lat="42.72983" lon="1.85168">
        <ele>1057.8</ele>
        <time>2024-06-30T11:15:20Z</time>
      </trkpt>
      <trkpt lat="42.72977" lon="1.85164">
        <ele>1057.6</ele>
        <time>2024-06-30T11:15:21Z</time>
      </trkpt>
      <trkpt lat="42.72971" lon="1.8516">
        <ele>1057.4</ele>
        <time>2024-06-30T11:15:22Z</time>
      </trkpt>
      <trkpt lat="42.72957" lon="1.85161">
        <ele>1057</ele>
        <time>2024-06-30T11:15:24Z</time>
      </trkpt>
      <trkpt lat="42.72951" lon="1.85163">
        <ele>1056.8</ele>
        <time>2024-06-30T11:15:25Z</time>
      </trkpt>
      <trkpt lat="42.72945" lon="1.85166">
        <ele>1056.4</ele>
        <time>2024-06-30T11:15:26Z</time>
      </trkpt>
      <trkpt lat="42.72938" lon="1.85169">
        <ele>1056.2</ele>
        <time>2024-06-30T11:15:27Z</time>
      </trkpt>
      <trkpt lat="42.72932" lon="1.85168">
        <ele>1056</ele>
        <time>2024-06-30T11:15:28Z</time>
      </trkpt>
      <trkpt lat="42.72925" lon="1.85164">
        <ele>1055.8</ele>
        <time>2024-06-30T11:15:29Z</time>
      </trkpt>
      <trkpt lat="42.7292" lon="1.8516">
        <ele>1055.4</ele>
        <time>2024-06-30T11:15:30Z</time>
      </trkpt>
      <trkpt lat="42.72916" lon="1.85157">
        <ele>1055.4</ele>
        <time>2024-06-30T11:15:31Z</time>
      </trkpt>
      <trkpt lat="42.72913" lon="1.85153">
        <ele>1055</ele>
        <time>2024-06-30T11:15:32Z</time>
      </trkpt>
      <trkpt lat="42.72909" lon="1.85149">
        <ele>1054.8</ele>
        <time>2024-06-30T11:15:33Z</time>
      </trkpt>
      <trkpt lat="42.72906" lon="1.85144">
        <ele>1054.4</ele>
        <time>2024-06-30T11:15:34Z</time>
      </trkpt>
      <trkpt lat="42.72902" lon="1.85139">
        <ele>1053.8</ele>
        <time>2024-06-30T11:15:35Z</time>
      </trkpt>
      <trkpt lat="42.72898" lon="1.85134">
        <ele>1053</ele>
        <time>2024-06-30T11:15:36Z</time>
      </trkpt>
      <trkpt lat="42.72887" lon="1.85124">
        <ele>1051.8</ele>
        <time>2024-06-30T11:15:38Z</time>
      </trkpt>
      <trkpt lat="42.72878" lon="1.85117">
        <ele>1050.8</ele>
        <time>2024-06-30T11:15:40Z</time>
      </trkpt>
      <trkpt lat="42.72874" lon="1.85116">
        <ele>1050</ele>
        <time>2024-06-30T11:15:41Z</time>
      </trkpt>
      <trkpt lat="42.72871" lon="1.85116">
        <ele>1049.6</ele>
        <time>2024-06-30T11:15:42Z</time>
      </trkpt>
      <trkpt lat="42.72867" lon="1.85118">
        <ele>1049.2</ele>
        <time>2024-06-30T11:15:43Z</time>
      </trkpt>
      <trkpt lat="42.72863" lon="1.85123">
        <ele>1048.6</ele>
        <time>2024-06-30T11:15:44Z</time>
      </trkpt>
      <trkpt lat="42.72861" lon="1.85128">
        <ele>1048.2</ele>
        <time>2024-06-30T11:15:45Z</time>
      </trkpt>
      <trkpt lat="42.72859" lon="1.85134">
        <ele>1047.4</ele>
        <time>2024-06-30T11:15:46Z</time>
      </trkpt>
      <trkpt lat="42.72857" lon="1.8514">
        <ele>1047.4</ele>
        <time>2024-06-30T11:15:47Z</time>
      </trkpt>
      <trkpt lat="42.72852" lon="1.85153">
        <ele>1046.6</ele>
        <time>2024-06-30T11:15:49Z</time>
      </trkpt>
      <trkpt lat="42.72837" lon="1.85194">
        <ele>1046</ele>
        <time>2024-06-30T11:15:55Z</time>
      </trkpt>
      <trkpt lat="42.72814" lon="1.85251">
        <ele>1046.8</ele>
        <time>2024-06-30T11:16:03Z</time>
      </trkpt>
      <trkpt lat="42.728" lon="1.85285">
        <ele>1047.8</ele>
        <time>2024-06-30T11:16:08Z</time>
      </trkpt>
      <trkpt lat="42.72795" lon="1.85297">
        <ele>1048</ele>
        <time>2024-06-30T11:16:10Z</time>
      </trkpt>
      <trkpt lat="42.72792" lon="1.85303">
        <ele>1048.2</ele>
        <time>2024-06-30T11:16:11Z</time>
      </trkpt>
      <trkpt lat="42.7279" lon="1.85309">
        <ele>1048.4</ele>
        <time>2024-06-30T11:16:12Z</time>
      </trkpt>
      <trkpt lat="42.72788" lon="1.85315">
        <ele>1048.4</ele>
        <time>2024-06-30T11:16:13Z</time>
      </trkpt>
      <trkpt lat="42.72785" lon="1.85321">
        <ele>1048.6</ele>
        <time>2024-06-30T11:16:14Z</time>
      </trkpt>
      <trkpt lat="42.72783" lon="1.85327">
        <ele>1048.6</ele>
        <time>2024-06-30T11:16:15Z</time>
      </trkpt>
      <trkpt lat="42.72781" lon="1.85333">
        <ele>1048.6</ele>
        <time>2024-06-30T11:16:16Z</time>
      </trkpt>
      <trkpt lat="42.72779" lon="1.85338">
        <ele>1048.6</ele>
        <time>2024-06-30T11:16:17Z</time>
      </trkpt>
      <trkpt lat="42.72776" lon="1.85343">
        <ele>1049</ele>
        <time>2024-06-30T11:16:18Z</time>
      </trkpt>
      <trkpt lat="42.72774" lon="1.85348">
        <ele>1049</ele>
        <time>2024-06-30T11:16:19Z</time>
      </trkpt>
      <trkpt lat="42.72771" lon="1.85352">
        <ele>1049.2</ele>
        <time>2024-06-30T11:16:20Z</time>
      </trkpt>
      <trkpt lat="42.72767" lon="1.85357">
        <ele>1049.4</ele>
        <time>2024-06-30T11:16:21Z</time>
      </trkpt>
      <trkpt lat="42.72763" lon="1.85362">
        <ele>1049.4</ele>
        <time>2024-06-30T11:16:22Z</time>
      </trkpt>
      <trkpt lat="42.7275" lon="1.85376">
        <ele>1050</ele>
        <time>2024-06-30T11:16:25Z</time>
      </trkpt>
      <trkpt lat="42.72746" lon="1.85381">
        <ele>1050.2</ele>
        <time>2024-06-30T11:16:26Z</time>
      </trkpt>
      <trkpt lat="42.7274" lon="1.85394">
        <ele>1050.2</ele>
        <time>2024-06-30T11:16:28Z</time>
      </trkpt>
      <trkpt lat="42.72738" lon="1.85401">
        <ele>1050.2</ele>
        <time>2024-06-30T11:16:29Z</time>
      </trkpt>
      <trkpt lat="42.72735" lon="1.85409">
        <ele>1050.2</ele>
        <time>2024-06-30T11:16:30Z</time>
      </trkpt>
      <trkpt lat="42.72731" lon="1.85416">
        <ele>1050.2</ele>
        <time>2024-06-30T11:16:31Z</time>
      </trkpt>
      <trkpt lat="42.72727" lon="1.85422">
        <ele>1050.2</ele>
        <time>2024-06-30T11:16:32Z</time>
      </trkpt>
      <trkpt lat="42.72723" lon="1.85428">
        <ele>1050.2</ele>
        <time>2024-06-30T11:16:33Z</time>
      </trkpt>
      <trkpt lat="42.72691" lon="1.85464">
        <ele>1049.8</ele>
        <time>2024-06-30T11:16:40Z</time>
      </trkpt>
      <trkpt lat="42.72687" lon="1.85468">
        <ele>1049.6</ele>
        <time>2024-06-30T11:16:41Z</time>
      </trkpt>
      <trkpt lat="42.72684" lon="1.85473">
        <ele>1049.6</ele>
        <time>2024-06-30T11:16:42Z</time>
      </trkpt>
      <trkpt lat="42.7268" lon="1.85476">
        <ele>1049.6</ele>
        <time>2024-06-30T11:16:43Z</time>
      </trkpt>
      <trkpt lat="42.72677" lon="1.8548">
        <ele>1049.6</ele>
        <time>2024-06-30T11:16:44Z</time>
      </trkpt>
      <trkpt lat="42.72673" lon="1.85484">
        <ele>1049.8</ele>
        <time>2024-06-30T11:16:45Z</time>
      </trkpt>
      <trkpt lat="42.72669" lon="1.85489">
        <ele>1049.8</ele>
        <time>2024-06-30T11:16:46Z</time>
      </trkpt>
      <trkpt lat="42.72651" lon="1.85512">
        <ele>1050.6</ele>
        <time>2024-06-30T11:16:50Z</time>
      </trkpt>
      <trkpt lat="42.72647" lon="1.85518">
        <ele>1050.4</ele>
        <time>2024-06-30T11:16:51Z</time>
      </trkpt>
      <trkpt lat="42.72628" lon="1.85547">
        <ele>1050.8</ele>
        <time>2024-06-30T11:16:55Z</time>
      </trkpt>
      <trkpt lat="42.72611" lon="1.85577">
        <ele>1050.2</ele>
        <time>2024-06-30T11:16:59Z</time>
      </trkpt>
      <trkpt lat="42.72608" lon="1.85584">
        <ele>1049.8</ele>
        <time>2024-06-30T11:17:00Z</time>
      </trkpt>
      <trkpt lat="42.72604" lon="1.85591">
        <ele>1049.8</ele>
        <time>2024-06-30T11:17:01Z</time>
      </trkpt>
      <trkpt lat="42.726" lon="1.85598">
        <ele>1049.6</ele>
        <time>2024-06-30T11:17:02Z</time>
      </trkpt>
      <trkpt lat="42.72592" lon="1.8561">
        <ele>1049.4</ele>
        <time>2024-06-30T11:17:04Z</time>
      </trkpt>
      <trkpt lat="42.72588" lon="1.85616">
        <ele>1049.4</ele>
        <time>2024-06-30T11:17:05Z</time>
      </trkpt>
      <trkpt lat="42.72584" lon="1.85622">
        <ele>1049.4</ele>
        <time>2024-06-30T11:17:06Z</time>
      </trkpt>
      <trkpt lat="42.72571" lon="1.85642">
        <ele>1049.4</ele>
        <time>2024-06-30T11:17:09Z</time>
      </trkpt>
      <trkpt lat="42.72554" lon="1.85664">
        <ele>1049.4</ele>
        <time>2024-06-30T11:17:12Z</time>
      </trkpt>
      <trkpt lat="42.7255" lon="1.85672">
        <ele>1049.2</ele>
        <time>2024-06-30T11:17:13Z</time>
      </trkpt>
      <trkpt lat="42.72539" lon="1.85688">
        <ele>1049</ele>
        <time>2024-06-30T11:17:15Z</time>
      </trkpt>
      <trkpt lat="42.72527" lon="1.85704">
        <ele>1048.8</ele>
        <time>2024-06-30T11:17:17Z</time>
      </trkpt>
      <trkpt lat="42.72521" lon="1.85722">
        <ele>1047.8</ele>
        <time>2024-06-30T11:17:19Z</time>
      </trkpt>
      <trkpt lat="42.7252" lon="1.85732">
        <ele>1047.4</ele>
        <time>2024-06-30T11:17:20Z</time>
      </trkpt>
      <trkpt lat="42.72519" lon="1.85741">
        <ele>1047</ele>
        <time>2024-06-30T11:17:21Z</time>
      </trkpt>
      <trkpt lat="42.72519" lon="1.85748">
        <ele>1046.6</ele>
        <time>2024-06-30T11:17:22Z</time>
      </trkpt>
      <trkpt lat="42.72518" lon="1.85754">
        <ele>1046.2</ele>
        <time>2024-06-30T11:17:23Z</time>
      </trkpt>
      <trkpt lat="42.72517" lon="1.85759">
        <ele>1045.4</ele>
        <time>2024-06-30T11:17:24Z</time>
      </trkpt>
      <trkpt lat="42.72517" lon="1.85762">
        <ele>1044.6</ele>
        <time>2024-06-30T11:17:25Z</time>
      </trkpt>
      <trkpt lat="42.72518" lon="1.85764">
        <ele>1044.2</ele>
        <time>2024-06-30T11:17:26Z</time>
      </trkpt>
      <trkpt lat="42.72518" lon="1.85766">
        <ele>1043.8</ele>
        <time>2024-06-30T11:17:27Z</time>
      </trkpt>
      <trkpt lat="42.72519" lon="1.85767">
        <ele>1043.6</ele>
        <time>2024-06-30T11:17:28Z</time>
      </trkpt>
      <trkpt lat="42.72519" lon="1.85767">
        <ele>1043.2</ele>
        <time>2024-06-30T11:17:29Z</time>
      </trkpt>
      <trkpt lat="42.72519" lon="1.85767">
        <ele>1043</ele>
        <time>2024-06-30T11:17:30Z</time>
      </trkpt>
      <trkpt lat="42.72519" lon="1.85767">
        <ele>1042.6</ele>
        <time>2024-06-30T11:17:31Z</time>
      </trkpt>
      <trkpt lat="42.72529" lon="1.85782">
        <ele>1040.8</ele>
        <time>2024-06-30T11:17:42Z</time>
      </trkpt>
      <trkpt lat="42.72533" lon="1.85787">
        <ele>1040.6</ele>
        <time>2024-06-30T11:17:44Z</time>
      </trkpt>
      <trkpt lat="42.72536" lon="1.85788">
        <ele>1040.4</ele>
        <time>2024-06-30T11:17:45Z</time>
      </trkpt>
      <trkpt lat="42.72538" lon="1.85791">
        <ele>1040.2</ele>
        <time>2024-06-30T11:17:46Z</time>
      </trkpt>
      <trkpt lat="42.72542" lon="1.85796">
        <ele>1040</ele>
        <time>2024-06-30T11:17:47Z</time>
      </trkpt>
      <trkpt lat="42.72545" lon="1.85801">
        <ele>1039.6</ele>
        <time>2024-06-30T11:17:48Z</time>
      </trkpt>
      <trkpt lat="42.72548" lon="1.85808">
        <ele>1039.4</ele>
        <time>2024-06-30T11:17:49Z</time>
      </trkpt>
      <trkpt lat="42.72551" lon="1.85815">
        <ele>1039.2</ele>
        <time>2024-06-30T11:17:50Z</time>
      </trkpt>
      <trkpt lat="42.72554" lon="1.85822">
        <ele>1039</ele>
        <time>2024-06-30T11:17:51Z</time>
      </trkpt>
      <trkpt lat="42.72557" lon="1.85825">
        <ele>1038.6</ele>
        <time>2024-06-30T11:17:52Z</time>
      </trkpt>
      <trkpt lat="42.72559" lon="1.85827">
        <ele>1038.6</ele>
        <time>2024-06-30T11:17:53Z</time>
      </trkpt>
      <trkpt lat="42.7256" lon="1.85829">
        <ele>1038.4</ele>
        <time>2024-06-30T11:17:54Z</time>
      </trkpt>
      <trkpt lat="42.72562" lon="1.85834">
        <ele>1038.4</ele>
        <time>2024-06-30T11:17:55Z</time>
      </trkpt>
      <trkpt lat="42.72563" lon="1.85839">
        <ele>1038.4</ele>
        <time>2024-06-30T11:17:56Z</time>
      </trkpt>
      <trkpt lat="42.72568" lon="1.85855">
        <ele>1038.4</ele>
        <time>2024-06-30T11:17:59Z</time>
      </trkpt>
      <trkpt lat="42.7257" lon="1.85861">
        <ele>1038.8</ele>
        <time>2024-06-30T11:18:01Z</time>
      </trkpt>
      <trkpt lat="42.7257" lon="1.85863">
        <ele>1039</ele>
        <time>2024-06-30T11:18:02Z</time>
      </trkpt>
      <trkpt lat="42.72569" lon="1.85864">
        <ele>1039</ele>
        <time>2024-06-30T11:18:03Z</time>
      </trkpt>
      <trkpt lat="42.72568" lon="1.85866">
        <ele>1039.6</ele>
        <time>2024-06-30T11:18:04Z</time>
      </trkpt>
      <trkpt lat="42.72567" lon="1.85868">
        <ele>1039.8</ele>
        <time>2024-06-30T11:18:05Z</time>
      </trkpt>
      <trkpt lat="42.72566" lon="1.85867">
        <ele>1040</ele>
        <time>2024-06-30T11:18:06Z</time>
      </trkpt>
      <trkpt lat="42.72565" lon="1.85866">
        <ele>1040</ele>
        <time>2024-06-30T11:18:07Z</time>
      </trkpt>
      <trkpt lat="42.72564" lon="1.85865">
        <ele>1040.2</ele>
        <time>2024-06-30T11:18:08Z</time>
      </trkpt>
      <trkpt lat="42.72557" lon="1.85862">
        <ele>1040.2</ele>
        <time>2024-06-30T11:18:11Z</time>
      </trkpt>
      <trkpt lat="42.72554" lon="1.85862">
        <ele>1040.2</ele>
        <time>2024-06-30T11:18:12Z</time>
      </trkpt>
      <trkpt lat="42.72549" lon="1.85862">
        <ele>1039.8</ele>
        <time>2024-06-30T11:18:13Z</time>
      </trkpt>
      <trkpt lat="42.72545" lon="1.85862">
        <ele>1039.6</ele>
        <time>2024-06-30T11:18:14Z</time>
      </trkpt>
      <trkpt lat="42.72531" lon="1.8586">
        <ele>1038.6</ele>
        <time>2024-06-30T11:18:17Z</time>
      </trkpt>
      <trkpt lat="42.72524" lon="1.85859">
        <ele>1038.4</ele>
        <time>2024-06-30T11:18:18Z</time>
      </trkpt>
      <trkpt lat="42.72518" lon="1.85858">
        <ele>1038</ele>
        <time>2024-06-30T11:18:19Z</time>
      </trkpt>
      <trkpt lat="42.72507" lon="1.8586">
        <ele>1037.4</ele>
        <time>2024-06-30T11:18:21Z</time>
      </trkpt>
      <trkpt lat="42.72502" lon="1.85864">
        <ele>1036.8</ele>
        <time>2024-06-30T11:18:22Z</time>
      </trkpt>
      <trkpt lat="42.72497" lon="1.85869">
        <ele>1036.6</ele>
        <time>2024-06-30T11:18:23Z</time>
      </trkpt>
      <trkpt lat="42.72492" lon="1.85876">
        <ele>1036.4</ele>
        <time>2024-06-30T11:18:24Z</time>
      </trkpt>
      <trkpt lat="42.72488" lon="1.85884">
        <ele>1035.8</ele>
        <time>2024-06-30T11:18:25Z</time>
      </trkpt>
      <trkpt lat="42.72483" lon="1.85893">
        <ele>1035.4</ele>
        <time>2024-06-30T11:18:26Z</time>
      </trkpt>
      <trkpt lat="42.72479" lon="1.85901">
        <ele>1034.8</ele>
        <time>2024-06-30T11:18:27Z</time>
      </trkpt>
      <trkpt lat="42.7247" lon="1.85919">
        <ele>1033.8</ele>
        <time>2024-06-30T11:18:29Z</time>
      </trkpt>
      <trkpt lat="42.72467" lon="1.85928">
        <ele>1033.6</ele>
        <time>2024-06-30T11:18:30Z</time>
      </trkpt>
      <trkpt lat="42.72462" lon="1.85941">
        <ele>1032.4</ele>
        <time>2024-06-30T11:18:32Z</time>
      </trkpt>
      <trkpt lat="42.72461" lon="1.85946">
        <ele>1032</ele>
        <time>2024-06-30T11:18:33Z</time>
      </trkpt>
      <trkpt lat="42.72461" lon="1.85953">
        <ele>1031.8</ele>
        <time>2024-06-30T11:18:34Z</time>
      </trkpt>
      <trkpt lat="42.7246" lon="1.85959">
        <ele>1031.8</ele>
        <time>2024-06-30T11:18:35Z</time>
      </trkpt>
      <trkpt lat="42.72458" lon="1.85964">
        <ele>1031.8</ele>
        <time>2024-06-30T11:18:36Z</time>
      </trkpt>
      <trkpt lat="42.72455" lon="1.85969">
        <ele>1031.8</ele>
        <time>2024-06-30T11:18:37Z</time>
      </trkpt>
      <trkpt lat="42.7245" lon="1.85978">
        <ele>1031.8</ele>
        <time>2024-06-30T11:18:38Z</time>
      </trkpt>
      <trkpt lat="42.72445" lon="1.85982">
        <ele>1031.8</ele>
        <time>2024-06-30T11:18:39Z</time>
      </trkpt>
      <trkpt lat="42.72441" lon="1.85985">
        <ele>1031.8</ele>
        <time>2024-06-30T11:18:40Z</time>
      </trkpt>
      <trkpt lat="42.72438" lon="1.85986">
        <ele>1031.8</ele>
        <time>2024-06-30T11:18:41Z</time>
      </trkpt>
      <trkpt lat="42.72434" lon="1.85985">
        <ele>1031.8</ele>
        <time>2024-06-30T11:18:42Z</time>
      </trkpt>
      <trkpt lat="42.72431" lon="1.85983">
        <ele>1031.8</ele>
        <time>2024-06-30T11:18:43Z</time>
      </trkpt>
      <trkpt lat="42.72427" lon="1.85984">
        <ele>1031.8</ele>
        <time>2024-06-30T11:18:44Z</time>
      </trkpt>
      <trkpt lat="42.72424" lon="1.85985">
        <ele>1031.8</ele>
        <time>2024-06-30T11:18:45Z</time>
      </trkpt>
      <trkpt lat="42.72421" lon="1.85987">
        <ele>1031.8</ele>
        <time>2024-06-30T11:18:46Z</time>
      </trkpt>
      <trkpt lat="42.72411" lon="1.86">
        <ele>1031.8</ele>
        <time>2024-06-30T11:18:49Z</time>
      </trkpt>
      <trkpt lat="42.72408" lon="1.86003">
        <ele>1032</ele>
        <time>2024-06-30T11:18:50Z</time>
      </trkpt>
      <trkpt lat="42.72406" lon="1.86006">
        <ele>1032</ele>
        <time>2024-06-30T11:18:51Z</time>
      </trkpt>
      <trkpt lat="42.72404" lon="1.86009">
        <ele>1032.2</ele>
        <time>2024-06-30T11:18:52Z</time>
      </trkpt>
      <trkpt lat="42.72391" lon="1.86026">
        <ele>1033.8</ele>
        <time>2024-06-30T11:18:56Z</time>
      </trkpt>
      <trkpt lat="42.72383" lon="1.86038">
        <ele>1034.8</ele>
        <time>2024-06-30T11:18:59Z</time>
      </trkpt>
      <trkpt lat="42.7238" lon="1.8604">
        <ele>1035.2</ele>
        <time>2024-06-30T11:19:00Z</time>
      </trkpt>
      <trkpt lat="42.72373" lon="1.86045">
        <ele>1036</ele>
        <time>2024-06-30T11:19:02Z</time>
      </trkpt>
      <trkpt lat="42.72369" lon="1.86047">
        <ele>1037</ele>
        <time>2024-06-30T11:19:03Z</time>
      </trkpt>
      <trkpt lat="42.72364" lon="1.8605">
        <ele>1037.8</ele>
        <time>2024-06-30T11:19:04Z</time>
      </trkpt>
      <trkpt lat="42.72359" lon="1.86055">
        <ele>1038.4</ele>
        <time>2024-06-30T11:19:05Z</time>
      </trkpt>
      <trkpt lat="42.72356" lon="1.86058">
        <ele>1039.2</ele>
        <time>2024-06-30T11:19:06Z</time>
      </trkpt>
      <trkpt lat="42.72352" lon="1.86063">
        <ele>1039.4</ele>
        <time>2024-06-30T11:19:07Z</time>
      </trkpt>
      <trkpt lat="42.72347" lon="1.86069">
        <ele>1039.8</ele>
        <time>2024-06-30T11:19:08Z</time>
      </trkpt>
      <trkpt lat="42.72343" lon="1.86072">
        <ele>1040</ele>
        <time>2024-06-30T11:19:09Z</time>
      </trkpt>
      <trkpt lat="42.72338" lon="1.86076">
        <ele>1040.4</ele>
        <time>2024-06-30T11:19:10Z</time>
      </trkpt>
      <trkpt lat="42.72334" lon="1.86079">
        <ele>1040.8</ele>
        <time>2024-06-30T11:19:11Z</time>
      </trkpt>
      <trkpt lat="42.72331" lon="1.86081">
        <ele>1041</ele>
        <time>2024-06-30T11:19:12Z</time>
      </trkpt>
      <trkpt lat="42.72329" lon="1.86084">
        <ele>1041.2</ele>
        <time>2024-06-30T11:19:13Z</time>
      </trkpt>
      <trkpt lat="42.72326" lon="1.86088">
        <ele>1041.2</ele>
        <time>2024-06-30T11:19:14Z</time>
      </trkpt>
      <trkpt lat="42.72324" lon="1.86094">
        <ele>1041.2</ele>
        <time>2024-06-30T11:19:15Z</time>
      </trkpt>
      <trkpt lat="42.72324" lon="1.86102">
        <ele>1041.2</ele>
        <time>2024-06-30T11:19:16Z</time>
      </trkpt>
      <trkpt lat="42.72323" lon="1.86107">
        <ele>1041.4</ele>
        <time>2024-06-30T11:19:17Z</time>
      </trkpt>
      <trkpt lat="42.72321" lon="1.86112">
        <ele>1041.4</ele>
        <time>2024-06-30T11:19:18Z</time>
      </trkpt>
      <trkpt lat="42.72319" lon="1.86115">
        <ele>1041.6</ele>
        <time>2024-06-30T11:19:19Z</time>
      </trkpt>
      <trkpt lat="42.72316" lon="1.86118">
        <ele>1041.8</ele>
        <time>2024-06-30T11:19:20Z</time>
      </trkpt>
      <trkpt lat="42.72313" lon="1.86123">
        <ele>1041.8</ele>
        <time>2024-06-30T11:19:21Z</time>
      </trkpt>
      <trkpt lat="42.7231" lon="1.86126">
        <ele>1042</ele>
        <time>2024-06-30T11:19:22Z</time>
      </trkpt>
      <trkpt lat="42.72308" lon="1.86127">
        <ele>1042.2</ele>
        <time>2024-06-30T11:19:23Z</time>
      </trkpt>
      <trkpt lat="42.72305" lon="1.86128">
        <ele>1042.4</ele>
        <time>2024-06-30T11:19:24Z</time>
      </trkpt>
      <trkpt lat="42.72304" lon="1.8613">
        <ele>1042.8</ele>
        <time>2024-06-30T11:19:25Z</time>
      </trkpt>
      <trkpt lat="42.72303" lon="1.8613">
        <ele>1043</ele>
        <time>2024-06-30T11:19:26Z</time>
      </trkpt>
      <trkpt lat="42.72304" lon="1.86129">
        <ele>1043.2</ele>
        <time>2024-06-30T11:19:27Z</time>
      </trkpt>
      <trkpt lat="42.72305" lon="1.86128">
        <ele>1043.6</ele>
        <time>2024-06-30T11:19:28Z</time>
      </trkpt>
      <trkpt lat="42.72307" lon="1.86127">
        <ele>1044</ele>
        <time>2024-06-30T11:19:29Z</time>
      </trkpt>
      <trkpt lat="42.7231" lon="1.86126">
        <ele>1044.2</ele>
        <time>2024-06-30T11:19:30Z</time>
      </trkpt>
      <trkpt lat="42.72313" lon="1.86125">
        <ele>1044.2</ele>
        <time>2024-06-30T11:19:31Z</time>
      </trkpt>
      <trkpt lat="42.72316" lon="1.86124">
        <ele>1044.4</ele>
        <time>2024-06-30T11:19:32Z</time>
      </trkpt>
      <trkpt lat="42.7232" lon="1.86122">
        <ele>1044.6</ele>
        <time>2024-06-30T11:19:33Z</time>
      </trkpt>
      <trkpt lat="42.72323" lon="1.8612">
        <ele>1044.6</ele>
        <time>2024-06-30T11:19:34Z</time>
      </trkpt>
      <trkpt lat="42.72327" lon="1.86119">
        <ele>1044.6</ele>
        <time>2024-06-30T11:19:35Z</time>
      </trkpt>
      <trkpt lat="42.7233" lon="1.86118">
        <ele>1044.6</ele>
        <time>2024-06-30T11:19:36Z</time>
      </trkpt>
      <trkpt lat="42.72333" lon="1.86117">
        <ele>1044.8</ele>
        <time>2024-06-30T11:19:37Z</time>
      </trkpt>
      <trkpt lat="42.72336" lon="1.86116">
        <ele>1044.8</ele>
        <time>2024-06-30T11:19:38Z</time>
      </trkpt>
      <trkpt lat="42.72339" lon="1.86115">
        <ele>1044.8</ele>
        <time>2024-06-30T11:19:39Z</time>
      </trkpt>
      <trkpt lat="42.72343" lon="1.86113">
        <ele>1045</ele>
        <time>2024-06-30T11:19:40Z</time>
      </trkpt>
      <trkpt lat="42.72346" lon="1.8611">
        <ele>1045.2</ele>
        <time>2024-06-30T11:19:41Z</time>
      </trkpt>
      <trkpt lat="42.72349" lon="1.86108">
        <ele>1045.2</ele>
        <time>2024-06-30T11:19:42Z</time>
      </trkpt>
      <trkpt lat="42.72353" lon="1.86107">
        <ele>1045.4</ele>
        <time>2024-06-30T11:19:43Z</time>
      </trkpt>
      <trkpt lat="42.72356" lon="1.86106">
        <ele>1045.6</ele>
        <time>2024-06-30T11:19:44Z</time>
      </trkpt>
      <trkpt lat="42.7236" lon="1.86105">
        <ele>1046</ele>
        <time>2024-06-30T11:19:45Z</time>
      </trkpt>
      <trkpt lat="42.72363" lon="1.86104">
        <ele>1046.2</ele>
        <time>2024-06-30T11:19:46Z</time>
      </trkpt>
      <trkpt lat="42.72367" lon="1.86103">
        <ele>1046.8</ele>
        <time>2024-06-30T11:19:47Z</time>
      </trkpt>
      <trkpt lat="42.7237" lon="1.86103">
        <ele>1047.4</ele>
        <time>2024-06-30T11:19:48Z</time>
      </trkpt>
      <trkpt lat="42.72373" lon="1.86103">
        <ele>1047.6</ele>
        <time>2024-06-30T11:19:49Z</time>
      </trkpt>
      <trkpt lat="42.72376" lon="1.861">
        <ele>1047.8</ele>
        <time>2024-06-30T11:19:50Z</time>
      </trkpt>
      <trkpt lat="42.72379" lon="1.86099">
        <ele>1048</ele>
        <time>2024-06-30T11:19:51Z</time>
      </trkpt>
      <trkpt lat="42.72382" lon="1.86097">
        <ele>1048.2</ele>
        <time>2024-06-30T11:19:52Z</time>
      </trkpt>
      <trkpt lat="42.72385" lon="1.86094">
        <ele>1048.6</ele>
        <time>2024-06-30T11:19:53Z</time>
      </trkpt>
      <trkpt lat="42.72388" lon="1.86093">
        <ele>1049.2</ele>
        <time>2024-06-30T11:19:54Z</time>
      </trkpt>
      <trkpt lat="42.72391" lon="1.86091">
        <ele>1049.8</ele>
        <time>2024-06-30T11:19:55Z</time>
      </trkpt>
      <trkpt lat="42.72394" lon="1.8609">
        <ele>1050</ele>
        <time>2024-06-30T11:19:56Z</time>
      </trkpt>
      <trkpt lat="42.72396" lon="1.86088">
        <ele>1050.4</ele>
        <time>2024-06-30T11:19:57Z</time>
      </trkpt>
      <trkpt lat="42.72399" lon="1.86086">
        <ele>1050.6</ele>
        <time>2024-06-30T11:19:58Z</time>
      </trkpt>
      <trkpt lat="42.72402" lon="1.86085">
        <ele>1050.8</ele>
        <time>2024-06-30T11:19:59Z</time>
      </trkpt>
      <trkpt lat="42.72405" lon="1.86083">
        <ele>1050.8</ele>
        <time>2024-06-30T11:20:00Z</time>
      </trkpt>
      <trkpt lat="42.72408" lon="1.86082">
        <ele>1051.2</ele>
        <time>2024-06-30T11:20:01Z</time>
      </trkpt>
      <trkpt lat="42.7241" lon="1.8608">
        <ele>1051.6</ele>
        <time>2024-06-30T11:20:02Z</time>
      </trkpt>
      <trkpt lat="42.72413" lon="1.86078">
        <ele>1051.8</ele>
        <time>2024-06-30T11:20:03Z</time>
      </trkpt>
      <trkpt lat="42.72416" lon="1.86076">
        <ele>1052.4</ele>
        <time>2024-06-30T11:20:04Z</time>
      </trkpt>
      <trkpt lat="42.7242" lon="1.86075">
        <ele>1052.6</ele>
        <time>2024-06-30T11:20:05Z</time>
      </trkpt>
      <trkpt lat="42.72422" lon="1.86073">
        <ele>1053</ele>
        <time>2024-06-30T11:20:06Z</time>
      </trkpt>
      <trkpt lat="42.72426" lon="1.86072">
        <ele>1053.2</ele>
        <time>2024-06-30T11:20:07Z</time>
      </trkpt>
      <trkpt lat="42.72429" lon="1.8607">
        <ele>1053.6</ele>
        <time>2024-06-30T11:20:08Z</time>
      </trkpt>
      <trkpt lat="42.72433" lon="1.86069">
        <ele>1054</ele>
        <time>2024-06-30T11:20:09Z</time>
      </trkpt>
      <trkpt lat="42.72437" lon="1.86069">
        <ele>1054.2</ele>
        <time>2024-06-30T11:20:10Z</time>
      </trkpt>
      <trkpt lat="42.7244" lon="1.8607">
        <ele>1054.6</ele>
        <time>2024-06-30T11:20:11Z</time>
      </trkpt>
      <trkpt lat="42.72443" lon="1.8607">
        <ele>1055</ele>
        <time>2024-06-30T11:20:12Z</time>
      </trkpt>
      <trkpt lat="42.72448" lon="1.86071">
        <ele>1055.2</ele>
        <time>2024-06-30T11:20:13Z</time>
      </trkpt>
      <trkpt lat="42.72452" lon="1.86071">
        <ele>1055.4</ele>
        <time>2024-06-30T11:20:14Z</time>
      </trkpt>
      <trkpt lat="42.72455" lon="1.86071">
        <ele>1055.6</ele>
        <time>2024-06-30T11:20:15Z</time>
      </trkpt>
      <trkpt lat="42.72459" lon="1.86073">
        <ele>1055.8</ele>
        <time>2024-06-30T11:20:16Z</time>
      </trkpt>
      <trkpt lat="42.72463" lon="1.86073">
        <ele>1056.2</ele>
        <time>2024-06-30T11:20:17Z</time>
      </trkpt>
      <trkpt lat="42.72466" lon="1.86074">
        <ele>1056.4</ele>
        <time>2024-06-30T11:20:18Z</time>
      </trkpt>
      <trkpt lat="42.7247" lon="1.86075">
        <ele>1056.2</ele>
        <time>2024-06-30T11:20:19Z</time>
      </trkpt>
      <trkpt lat="42.72473" lon="1.86077">
        <ele>1056.8</ele>
        <time>2024-06-30T11:20:20Z</time>
      </trkpt>
      <trkpt lat="42.72476" lon="1.86079">
        <ele>1057</ele>
        <time>2024-06-30T11:20:21Z</time>
      </trkpt>
      <trkpt lat="42.72477" lon="1.86081">
        <ele>1057.4</ele>
        <time>2024-06-30T11:20:22Z</time>
      </trkpt>
      <trkpt lat="42.72477" lon="1.86083">
        <ele>1057.4</ele>
        <time>2024-06-30T11:20:23Z</time>
      </trkpt>
      <trkpt lat="42.72477" lon="1.86086">
        <ele>1057.8</ele>
        <time>2024-06-30T11:20:24Z</time>
      </trkpt>
      <trkpt lat="42.72476" lon="1.86087">
        <ele>1058.2</ele>
        <time>2024-06-30T11:20:25Z</time>
      </trkpt>
      <trkpt lat="42.72475" lon="1.86089">
        <ele>1058.4</ele>
        <time>2024-06-30T11:20:26Z</time>
      </trkpt>
      <trkpt lat="42.72473" lon="1.8609">
        <ele>1058.6</ele>
        <time>2024-06-30T11:20:27Z</time>
      </trkpt>
      <trkpt lat="42.72471" lon="1.86091">
        <ele>1058.6</ele>
        <time>2024-06-30T11:20:28Z</time>
      </trkpt>
      <trkpt lat="42.72469" lon="1.86092">
        <ele>1058.8</ele>
        <time>2024-06-30T11:20:29Z</time>
      </trkpt>
      <trkpt lat="42.72467" lon="1.86092">
        <ele>1059</ele>
        <time>2024-06-30T11:20:30Z</time>
      </trkpt>
      <trkpt lat="42.72464" lon="1.86093">
        <ele>1059.4</ele>
        <time>2024-06-30T11:20:31Z</time>
      </trkpt>
      <trkpt lat="42.72461" lon="1.86094">
        <ele>1059.6</ele>
        <time>2024-06-30T11:20:32Z</time>
      </trkpt>
      <trkpt lat="42.72459" lon="1.86094">
        <ele>1059.8</ele>
        <time>2024-06-30T11:20:33Z</time>
      </trkpt>
      <trkpt lat="42.72456" lon="1.86095">
        <ele>1060.4</ele>
        <time>2024-06-30T11:20:34Z</time>
      </trkpt>
      <trkpt lat="42.72454" lon="1.86096">
        <ele>1060.6</ele>
        <time>2024-06-30T11:20:35Z</time>
      </trkpt>
      <trkpt lat="42.72451" lon="1.86097">
        <ele>1060.8</ele>
        <time>2024-06-30T11:20:36Z</time>
      </trkpt>
      <trkpt lat="42.72449" lon="1.86098">
        <ele>1061</ele>
        <time>2024-06-30T11:20:37Z</time>
      </trkpt>
      <trkpt lat="42.72447" lon="1.86099">
        <ele>1061.4</ele>
        <time>2024-06-30T11:20:38Z</time>
      </trkpt>
      <trkpt lat="42.72446" lon="1.86101">
        <ele>1061.6</ele>
        <time>2024-06-30T11:20:39Z</time>
      </trkpt>
      <trkpt lat="42.72444" lon="1.86103">
        <ele>1061.6</ele>
        <time>2024-06-30T11:20:40Z</time>
      </trkpt>
      <trkpt lat="42.72441" lon="1.86105">
        <ele>1062</ele>
        <time>2024-06-30T11:20:41Z</time>
      </trkpt>
      <trkpt lat="42.72439" lon="1.86107">
        <ele>1062</ele>
        <time>2024-06-30T11:20:42Z</time>
      </trkpt>
      <trkpt lat="42.72438" lon="1.8611">
        <ele>1062.4</ele>
        <time>2024-06-30T11:20:43Z</time>
      </trkpt>
      <trkpt lat="42.72436" lon="1.86112">
        <ele>1062.6</ele>
        <time>2024-06-30T11:20:44Z</time>
      </trkpt>
      <trkpt lat="42.72433" lon="1.86114">
        <ele>1062.8</ele>
        <time>2024-06-30T11:20:45Z</time>
      </trkpt>
      <trkpt lat="42.72429" lon="1.86116">
        <ele>1063</ele>
        <time>2024-06-30T11:20:46Z</time>
      </trkpt>
      <trkpt lat="42.72427" lon="1.86117">
        <ele>1063.4</ele>
        <time>2024-06-30T11:20:47Z</time>
      </trkpt>
      <trkpt lat="42.72424" lon="1.86118">
        <ele>1063.8</ele>
        <time>2024-06-30T11:20:48Z</time>
      </trkpt>
      <trkpt lat="42.72422" lon="1.86119">
        <ele>1064</ele>
        <time>2024-06-30T11:20:49Z</time>
      </trkpt>
      <trkpt lat="42.72419" lon="1.8612">
        <ele>1064.6</ele>
        <time>2024-06-30T11:20:50Z</time>
      </trkpt>
      <trkpt lat="42.72417" lon="1.86121">
        <ele>1064.8</ele>
        <time>2024-06-30T11:20:51Z</time>
      </trkpt>
      <trkpt lat="42.72415" lon="1.86123">
        <ele>1065</ele>
        <time>2024-06-30T11:20:52Z</time>
      </trkpt>
      <trkpt lat="42.72413" lon="1.86125">
        <ele>1065.2</ele>
        <time>2024-06-30T11:20:53Z</time>
      </trkpt>
      <trkpt lat="42.72413" lon="1.86128">
        <ele>1065.6</ele>
        <time>2024-06-30T11:20:54Z</time>
      </trkpt>
      <trkpt lat="42.72414" lon="1.86131">
        <ele>1066</ele>
        <time>2024-06-30T11:20:55Z</time>
      </trkpt>
      <trkpt lat="42.72416" lon="1.86134">
        <ele>1066.2</ele>
        <time>2024-06-30T11:20:56Z</time>
      </trkpt>
      <trkpt lat="42.72418" lon="1.86137">
        <ele>1066.6</ele>
        <time>2024-06-30T11:20:57Z</time>
      </trkpt>
      <trkpt lat="42.7242" lon="1.8614">
        <ele>1066.8</ele>
        <time>2024-06-30T11:20:58Z</time>
      </trkpt>
      <trkpt lat="42.72422" lon="1.86144">
        <ele>1067.2</ele>
        <time>2024-06-30T11:20:59Z</time>
      </trkpt>
      <trkpt lat="42.72424" lon="1.86147">
        <ele>1067.4</ele>
        <time>2024-06-30T11:21:00Z</time>
      </trkpt>
      <trkpt lat="42.72426" lon="1.8615">
        <ele>1067.6</ele>
        <time>2024-06-30T11:21:01Z</time>
      </trkpt>
      <trkpt lat="42.72427" lon="1.86154">
        <ele>1068</ele>
        <time>2024-06-30T11:21:02Z</time>
      </trkpt>
      <trkpt lat="42.72428" lon="1.86157">
        <ele>1068.2</ele>
        <time>2024-06-30T11:21:03Z</time>
      </trkpt>
      <trkpt lat="42.72429" lon="1.86161">
        <ele>1068.4</ele>
        <time>2024-06-30T11:21:04Z</time>
      </trkpt>
      <trkpt lat="42.7243" lon="1.86164">
        <ele>1068.6</ele>
        <time>2024-06-30T11:21:05Z</time>
      </trkpt>
      <trkpt lat="42.72431" lon="1.86167">
        <ele>1068.6</ele>
        <time>2024-06-30T11:21:06Z</time>
      </trkpt>
      <trkpt lat="42.72431" lon="1.8617">
        <ele>1068.8</ele>
        <time>2024-06-30T11:21:07Z</time>
      </trkpt>
      <trkpt lat="42.72432" lon="1.86173">
        <ele>1069</ele>
        <time>2024-06-30T11:21:08Z</time>
      </trkpt>
      <trkpt lat="42.72433" lon="1.86176">
        <ele>1069.2</ele>
        <time>2024-06-30T11:21:09Z</time>
      </trkpt>
      <trkpt lat="42.72433" lon="1.86179">
        <ele>1069.6</ele>
        <time>2024-06-30T11:21:10Z</time>
      </trkpt>
      <trkpt lat="42.72434" lon="1.86182">
        <ele>1069.8</ele>
        <time>2024-06-30T11:21:11Z</time>
      </trkpt>
      <trkpt lat="42.72434" lon="1.86186">
        <ele>1069.8</ele>
        <time>2024-06-30T11:21:12Z</time>
      </trkpt>
      <trkpt lat="42.72434" lon="1.86189">
        <ele>1070</ele>
        <time>2024-06-30T11:21:13Z</time>
      </trkpt>
      <trkpt lat="42.72434" lon="1.86193">
        <ele>1070.2</ele>
        <time>2024-06-30T11:21:14Z</time>
      </trkpt>
      <trkpt lat="42.72433" lon="1.86196">
        <ele>1070.4</ele>
        <time>2024-06-30T11:21:15Z</time>
      </trkpt>
      <trkpt lat="42.72432" lon="1.86199">
        <ele>1070.8</ele>
        <time>2024-06-30T11:21:16Z</time>
      </trkpt>
      <trkpt lat="42.7243" lon="1.86202">
        <ele>1071.6</ele>
        <time>2024-06-30T11:21:17Z</time>
      </trkpt>
      <trkpt lat="42.72429" lon="1.86205">
        <ele>1072.2</ele>
        <time>2024-06-30T11:21:18Z</time>
      </trkpt>
      <trkpt lat="42.72428" lon="1.86208">
        <ele>1072.4</ele>
        <time>2024-06-30T11:21:19Z</time>
      </trkpt>
      <trkpt lat="42.72427" lon="1.86212">
        <ele>1072.8</ele>
        <time>2024-06-30T11:21:20Z</time>
      </trkpt>
      <trkpt lat="42.72426" lon="1.86215">
        <ele>1073</ele>
        <time>2024-06-30T11:21:21Z</time>
      </trkpt>
      <trkpt lat="42.72425" lon="1.86219">
        <ele>1073.6</ele>
        <time>2024-06-30T11:21:22Z</time>
      </trkpt>
      <trkpt lat="42.72424" lon="1.86223">
        <ele>1073.8</ele>
        <time>2024-06-30T11:21:23Z</time>
      </trkpt>
      <trkpt lat="42.72422" lon="1.86228">
        <ele>1074.2</ele>
        <time>2024-06-30T11:21:24Z</time>
      </trkpt>
      <trkpt lat="42.7242" lon="1.86232">
        <ele>1074.8</ele>
        <time>2024-06-30T11:21:25Z</time>
      </trkpt>
      <trkpt lat="42.72417" lon="1.86236">
        <ele>1074.8</ele>
        <time>2024-06-30T11:21:26Z</time>
      </trkpt>
      <trkpt lat="42.72413" lon="1.86239">
        <ele>1075</ele>
        <time>2024-06-30T11:21:27Z</time>
      </trkpt>
      <trkpt lat="42.7241" lon="1.86242">
        <ele>1075.2</ele>
        <time>2024-06-30T11:21:28Z</time>
      </trkpt>
      <trkpt lat="42.72406" lon="1.86245">
        <ele>1075.2</ele>
        <time>2024-06-30T11:21:29Z</time>
      </trkpt>
      <trkpt lat="42.72403" lon="1.86249">
        <ele>1075.4</ele>
        <time>2024-06-30T11:21:30Z</time>
      </trkpt>
      <trkpt lat="42.72399" lon="1.86253">
        <ele>1075.4</ele>
        <time>2024-06-30T11:21:31Z</time>
      </trkpt>
      <trkpt lat="42.72395" lon="1.86258">
        <ele>1075.4</ele>
        <time>2024-06-30T11:21:32Z</time>
      </trkpt>
      <trkpt lat="42.72392" lon="1.86264">
        <ele>1075.4</ele>
        <time>2024-06-30T11:21:33Z</time>
      </trkpt>
      <trkpt lat="42.7239" lon="1.8627">
        <ele>1075.4</ele>
        <time>2024-06-30T11:21:34Z</time>
      </trkpt>
      <trkpt lat="42.72389" lon="1.86276">
        <ele>1075.2</ele>
        <time>2024-06-30T11:21:35Z</time>
      </trkpt>
      <trkpt lat="42.72387" lon="1.86282">
        <ele>1075</ele>
        <time>2024-06-30T11:21:36Z</time>
      </trkpt>
      <trkpt lat="42.72385" lon="1.86288">
        <ele>1074.8</ele>
        <time>2024-06-30T11:21:37Z</time>
      </trkpt>
      <trkpt lat="42.72383" lon="1.86294">
        <ele>1074.6</ele>
        <time>2024-06-30T11:21:38Z</time>
      </trkpt>
      <trkpt lat="42.7238" lon="1.863">
        <ele>1074.4</ele>
        <time>2024-06-30T11:21:39Z</time>
      </trkpt>
      <trkpt lat="42.72377" lon="1.86305">
        <ele>1074.2</ele>
        <time>2024-06-30T11:21:40Z</time>
      </trkpt>
      <trkpt lat="42.72374" lon="1.86311">
        <ele>1074.2</ele>
        <time>2024-06-30T11:21:41Z</time>
      </trkpt>
      <trkpt lat="42.7237" lon="1.86315">
        <ele>1074</ele>
        <time>2024-06-30T11:21:42Z</time>
      </trkpt>
      <trkpt lat="42.72365" lon="1.86316">
        <ele>1074</ele>
        <time>2024-06-30T11:21:43Z</time>
      </trkpt>
      <trkpt lat="42.7236" lon="1.86315">
        <ele>1074</ele>
        <time>2024-06-30T11:21:44Z</time>
      </trkpt>
      <trkpt lat="42.72354" lon="1.86312">
        <ele>1073.8</ele>
        <time>2024-06-30T11:21:45Z</time>
      </trkpt>
      <trkpt lat="42.72348" lon="1.86309">
        <ele>1073.8</ele>
        <time>2024-06-30T11:21:46Z</time>
      </trkpt>
      <trkpt lat="42.72341" lon="1.86307">
        <ele>1073.6</ele>
        <time>2024-06-30T11:21:47Z</time>
      </trkpt>
      <trkpt lat="42.72334" lon="1.86306">
        <ele>1073.6</ele>
        <time>2024-06-30T11:21:48Z</time>
      </trkpt>
      <trkpt lat="42.72328" lon="1.86307">
        <ele>1073.4</ele>
        <time>2024-06-30T11:21:49Z</time>
      </trkpt>
      <trkpt lat="42.72322" lon="1.86309">
        <ele>1073.4</ele>
        <time>2024-06-30T11:21:50Z</time>
      </trkpt>
      <trkpt lat="42.72317" lon="1.86308">
        <ele>1073.2</ele>
        <time>2024-06-30T11:21:51Z</time>
      </trkpt>
      <trkpt lat="42.72313" lon="1.86305">
        <ele>1072</ele>
        <time>2024-06-30T11:21:52Z</time>
      </trkpt>
      <trkpt lat="42.72308" lon="1.86302">
        <ele>1071.8</ele>
        <time>2024-06-30T11:21:53Z</time>
      </trkpt>
      <trkpt lat="42.72303" lon="1.86299">
        <ele>1070.8</ele>
        <time>2024-06-30T11:21:54Z</time>
      </trkpt>
      <trkpt lat="42.72299" lon="1.86295">
        <ele>1070.2</ele>
        <time>2024-06-30T11:21:55Z</time>
      </trkpt>
      <trkpt lat="42.72294" lon="1.86292">
        <ele>1070</ele>
        <time>2024-06-30T11:21:56Z</time>
      </trkpt>
      <trkpt lat="42.72289" lon="1.8629">
        <ele>1069.6</ele>
        <time>2024-06-30T11:21:57Z</time>
      </trkpt>
      <trkpt lat="42.72283" lon="1.86288">
        <ele>1069.6</ele>
        <time>2024-06-30T11:21:58Z</time>
      </trkpt>
      <trkpt lat="42.72278" lon="1.86287">
        <ele>1069</ele>
        <time>2024-06-30T11:21:59Z</time>
      </trkpt>
      <trkpt lat="42.72268" lon="1.86286">
        <ele>1068.2</ele>
        <time>2024-06-30T11:22:01Z</time>
      </trkpt>
      <trkpt lat="42.72264" lon="1.86286">
        <ele>1067.8</ele>
        <time>2024-06-30T11:22:02Z</time>
      </trkpt>
      <trkpt lat="42.7226" lon="1.86286">
        <ele>1067.8</ele>
        <time>2024-06-30T11:22:03Z</time>
      </trkpt>
      <trkpt lat="42.72256" lon="1.86287">
        <ele>1067.6</ele>
        <time>2024-06-30T11:22:04Z</time>
      </trkpt>
      <trkpt lat="42.72254" lon="1.8629">
        <ele>1067.4</ele>
        <time>2024-06-30T11:22:05Z</time>
      </trkpt>
      <trkpt lat="42.72251" lon="1.86293">
        <ele>1067</ele>
        <time>2024-06-30T11:22:06Z</time>
      </trkpt>
      <trkpt lat="42.72249" lon="1.86298">
        <ele>1066.8</ele>
        <time>2024-06-30T11:22:07Z</time>
      </trkpt>
      <trkpt lat="42.72246" lon="1.86302">
        <ele>1066</ele>
        <time>2024-06-30T11:22:08Z</time>
      </trkpt>
      <trkpt lat="42.72242" lon="1.86306">
        <ele>1065.2</ele>
        <time>2024-06-30T11:22:09Z</time>
      </trkpt>
      <trkpt lat="42.72238" lon="1.8631">
        <ele>1064.8</ele>
        <time>2024-06-30T11:22:10Z</time>
      </trkpt>
      <trkpt lat="42.72233" lon="1.86314">
        <ele>1064</ele>
        <time>2024-06-30T11:22:11Z</time>
      </trkpt>
      <trkpt lat="42.72229" lon="1.86317">
        <ele>1063.8</ele>
        <time>2024-06-30T11:22:12Z</time>
      </trkpt>
      <trkpt lat="42.72224" lon="1.86321">
        <ele>1062.2</ele>
        <time>2024-06-30T11:22:13Z</time>
      </trkpt>
      <trkpt lat="42.7222" lon="1.86325">
        <ele>1061.6</ele>
        <time>2024-06-30T11:22:14Z</time>
      </trkpt>
      <trkpt lat="42.72215" lon="1.86328">
        <ele>1060.8</ele>
        <time>2024-06-30T11:22:15Z</time>
      </trkpt>
      <trkpt lat="42.7221" lon="1.8633">
        <ele>1059.4</ele>
        <time>2024-06-30T11:22:16Z</time>
      </trkpt>
      <trkpt lat="42.72206" lon="1.86331">
        <ele>1057.4</ele>
        <time>2024-06-30T11:22:17Z</time>
      </trkpt>
      <trkpt lat="42.72204" lon="1.8633">
        <ele>1056.8</ele>
        <time>2024-06-30T11:22:18Z</time>
      </trkpt>
      <trkpt lat="42.72202" lon="1.86327">
        <ele>1056.2</ele>
        <time>2024-06-30T11:22:19Z</time>
      </trkpt>
      <trkpt lat="42.72202" lon="1.86324">
        <ele>1055.8</ele>
        <time>2024-06-30T11:22:20Z</time>
      </trkpt>
      <trkpt lat="42.72203" lon="1.86319">
        <ele>1055.4</ele>
        <time>2024-06-30T11:22:21Z</time>
      </trkpt>
      <trkpt lat="42.72203" lon="1.86314">
        <ele>1053.8</ele>
        <time>2024-06-30T11:22:22Z</time>
      </trkpt>
      <trkpt lat="42.72206" lon="1.86306">
        <ele>1051.4</ele>
        <time>2024-06-30T11:22:24Z</time>
      </trkpt>
      <trkpt lat="42.72207" lon="1.86303">
        <ele>1050.2</ele>
        <time>2024-06-30T11:22:25Z</time>
      </trkpt>
      <trkpt lat="42.72205" lon="1.86299">
        <ele>1049.6</ele>
        <time>2024-06-30T11:22:26Z</time>
      </trkpt>
      <trkpt lat="42.72204" lon="1.86297">
        <ele>1048.4</ele>
        <time>2024-06-30T11:22:27Z</time>
      </trkpt>
      <trkpt lat="42.72202" lon="1.86294">
        <ele>1047.6</ele>
        <time>2024-06-30T11:22:28Z</time>
      </trkpt>
      <trkpt lat="42.722" lon="1.86292">
        <ele>1046.8</ele>
        <time>2024-06-30T11:22:29Z</time>
      </trkpt>
      <trkpt lat="42.72198" lon="1.86289">
        <ele>1046.2</ele>
        <time>2024-06-30T11:22:30Z</time>
      </trkpt>
      <trkpt lat="42.72196" lon="1.86287">
        <ele>1042</ele>
        <time>2024-06-30T11:22:43Z</time>
      </trkpt>
      <trkpt lat="42.72194" lon="1.86284">
        <ele>1041.8</ele>
        <time>2024-06-30T11:22:44Z</time>
      </trkpt>
      <trkpt lat="42.72187" lon="1.86281">
        <ele>1041.2</ele>
        <time>2024-06-30T11:22:46Z</time>
      </trkpt>
      <trkpt lat="42.72186" lon="1.86278">
        <ele>1040.8</ele>
        <time>2024-06-30T11:22:47Z</time>
      </trkpt>
      <trkpt lat="42.72184" lon="1.86277">
        <ele>1040.4</ele>
        <time>2024-06-30T11:22:48Z</time>
      </trkpt>
      <trkpt lat="42.72183" lon="1.86276">
        <ele>1040</ele>
        <time>2024-06-30T11:22:49Z</time>
      </trkpt>
      <trkpt lat="42.72181" lon="1.86279">
        <ele>1039.4</ele>
        <time>2024-06-30T11:22:50Z</time>
      </trkpt>
      <trkpt lat="42.72181" lon="1.86284">
        <ele>1039</ele>
        <time>2024-06-30T11:22:51Z</time>
      </trkpt>
      <trkpt lat="42.7218" lon="1.86289">
        <ele>1038.4</ele>
        <time>2024-06-30T11:22:52Z</time>
      </trkpt>
      <trkpt lat="42.7218" lon="1.86296">
        <ele>1037.6</ele>
        <time>2024-06-30T11:22:54Z</time>
      </trkpt>
      <trkpt lat="42.7218" lon="1.86298">
        <ele>1037.2</ele>
        <time>2024-06-30T11:22:55Z</time>
      </trkpt>
      <trkpt lat="42.7218" lon="1.863">
        <ele>1036.8</ele>
        <time>2024-06-30T11:22:56Z</time>
      </trkpt>
      <trkpt lat="42.72178" lon="1.86301">
        <ele>1036.4</ele>
        <time>2024-06-30T11:22:57Z</time>
      </trkpt>
      <trkpt lat="42.72176" lon="1.86304">
        <ele>1036</ele>
        <time>2024-06-30T11:22:58Z</time>
      </trkpt>
      <trkpt lat="42.72169" lon="1.86312">
        <ele>1035.2</ele>
        <time>2024-06-30T11:23:01Z</time>
      </trkpt>
      <trkpt lat="42.72166" lon="1.86313">
        <ele>1034.4</ele>
        <time>2024-06-30T11:23:02Z</time>
      </trkpt>
      <trkpt lat="42.72161" lon="1.86314">
        <ele>1034</ele>
        <time>2024-06-30T11:23:03Z</time>
      </trkpt>
      <trkpt lat="42.72156" lon="1.86314">
        <ele>1033.6</ele>
        <time>2024-06-30T11:23:04Z</time>
      </trkpt>
      <trkpt lat="42.72151" lon="1.86315">
        <ele>1033.2</ele>
        <time>2024-06-30T11:23:05Z</time>
      </trkpt>
      <trkpt lat="42.72146" lon="1.86316">
        <ele>1032.2</ele>
        <time>2024-06-30T11:23:06Z</time>
      </trkpt>
      <trkpt lat="42.72141" lon="1.86319">
        <ele>1032</ele>
        <time>2024-06-30T11:23:07Z</time>
      </trkpt>
      <trkpt lat="42.72136" lon="1.86323">
        <ele>1031.8</ele>
        <time>2024-06-30T11:23:08Z</time>
      </trkpt>
      <trkpt lat="42.72134" lon="1.86328">
        <ele>1031.2</ele>
        <time>2024-06-30T11:23:09Z</time>
      </trkpt>
      <trkpt lat="42.72132" lon="1.86333">
        <ele>1031</ele>
        <time>2024-06-30T11:23:10Z</time>
      </trkpt>
      <trkpt lat="42.72133" lon="1.86338">
        <ele>1030.2</ele>
        <time>2024-06-30T11:23:11Z</time>
      </trkpt>
      <trkpt lat="42.72134" lon="1.86342">
        <ele>1029.2</ele>
        <time>2024-06-30T11:23:12Z</time>
      </trkpt>
      <trkpt lat="42.72134" lon="1.86346">
        <ele>1027.8</ele>
        <time>2024-06-30T11:23:13Z</time>
      </trkpt>
      <trkpt lat="42.72134" lon="1.8635">
        <ele>1027.2</ele>
        <time>2024-06-30T11:23:14Z</time>
      </trkpt>
      <trkpt lat="42.72134" lon="1.86354">
        <ele>1027.2</ele>
        <time>2024-06-30T11:23:15Z</time>
      </trkpt>
      <trkpt lat="42.72134" lon="1.86358">
        <ele>1027</ele>
        <time>2024-06-30T11:23:16Z</time>
      </trkpt>
      <trkpt lat="42.72134" lon="1.86362">
        <ele>1027</ele>
        <time>2024-06-30T11:23:17Z</time>
      </trkpt>
      <trkpt lat="42.72134" lon="1.86369">
        <ele>1027</ele>
        <time>2024-06-30T11:23:19Z</time>
      </trkpt>
      <trkpt lat="42.72134" lon="1.86373">
        <ele>1027</ele>
        <time>2024-06-30T11:23:20Z</time>
      </trkpt>
      <trkpt lat="42.72134" lon="1.86377">
        <ele>1027</ele>
        <time>2024-06-30T11:23:21Z</time>
      </trkpt>
      <trkpt lat="42.72133" lon="1.8638">
        <ele>1027</ele>
        <time>2024-06-30T11:23:22Z</time>
      </trkpt>
      <trkpt lat="42.72133" lon="1.86384">
        <ele>1027.4</ele>
        <time>2024-06-30T11:23:23Z</time>
      </trkpt>
      <trkpt lat="42.72133" lon="1.86388">
        <ele>1027.8</ele>
        <time>2024-06-30T11:23:24Z</time>
      </trkpt>
      <trkpt lat="42.72132" lon="1.86391">
        <ele>1028.6</ele>
        <time>2024-06-30T11:23:25Z</time>
      </trkpt>
      <trkpt lat="42.72131" lon="1.86394">
        <ele>1029</ele>
        <time>2024-06-30T11:23:26Z</time>
      </trkpt>
      <trkpt lat="42.7213" lon="1.86397">
        <ele>1029.6</ele>
        <time>2024-06-30T11:23:27Z</time>
      </trkpt>
      <trkpt lat="42.7213" lon="1.86401">
        <ele>1029.6</ele>
        <time>2024-06-30T11:23:28Z</time>
      </trkpt>
      <trkpt lat="42.72129" lon="1.86405">
        <ele>1030.4</ele>
        <time>2024-06-30T11:23:29Z</time>
      </trkpt>
      <trkpt lat="42.72129" lon="1.86409">
        <ele>1031.4</ele>
        <time>2024-06-30T11:23:30Z</time>
      </trkpt>
      <trkpt lat="42.72129" lon="1.86413">
        <ele>1031.8</ele>
        <time>2024-06-30T11:23:31Z</time>
      </trkpt>
      <trkpt lat="42.72129" lon="1.86417">
        <ele>1032.4</ele>
        <time>2024-06-30T11:23:32Z</time>
      </trkpt>
      <trkpt lat="42.72129" lon="1.8642">
        <ele>1032.6</ele>
        <time>2024-06-30T11:23:33Z</time>
      </trkpt>
      <trkpt lat="42.72129" lon="1.86424">
        <ele>1033.4</ele>
        <time>2024-06-30T11:23:34Z</time>
      </trkpt>
      <trkpt lat="42.72128" lon="1.86427">
        <ele>1034</ele>
        <time>2024-06-30T11:23:35Z</time>
      </trkpt>
      <trkpt lat="42.72127" lon="1.8643">
        <ele>1034.8</ele>
        <time>2024-06-30T11:23:36Z</time>
      </trkpt>
      <trkpt lat="42.72127" lon="1.86433">
        <ele>1035.8</ele>
        <time>2024-06-30T11:23:37Z</time>
      </trkpt>
      <trkpt lat="42.72126" lon="1.86436">
        <ele>1036.2</ele>
        <time>2024-06-30T11:23:38Z</time>
      </trkpt>
      <trkpt lat="42.72126" lon="1.8644">
        <ele>1036.6</ele>
        <time>2024-06-30T11:23:39Z</time>
      </trkpt>
      <trkpt lat="42.72126" lon="1.86442">
        <ele>1036.8</ele>
        <time>2024-06-30T11:23:40Z</time>
      </trkpt>
      <trkpt lat="42.72126" lon="1.86446">
        <ele>1037.6</ele>
        <time>2024-06-30T11:23:41Z</time>
      </trkpt>
      <trkpt lat="42.72125" lon="1.8645">
        <ele>1038</ele>
        <time>2024-06-30T11:23:42Z</time>
      </trkpt>
      <trkpt lat="42.72126" lon="1.86455">
        <ele>1038.6</ele>
        <time>2024-06-30T11:23:43Z</time>
      </trkpt>
      <trkpt lat="42.72126" lon="1.86457">
        <ele>1039.2</ele>
        <time>2024-06-30T11:23:44Z</time>
      </trkpt>
      <trkpt lat="42.72125" lon="1.8646">
        <ele>1039.6</ele>
        <time>2024-06-30T11:23:45Z</time>
      </trkpt>
      <trkpt lat="42.72124" lon="1.86463">
        <ele>1040.8</ele>
        <time>2024-06-30T11:23:46Z</time>
      </trkpt>
      <trkpt lat="42.72124" lon="1.86468">
        <ele>1041.2</ele>
        <time>2024-06-30T11:23:47Z</time>
      </trkpt>
      <trkpt lat="42.72124" lon="1.86472">
        <ele>1042.2</ele>
        <time>2024-06-30T11:23:48Z</time>
      </trkpt>
      <trkpt lat="42.72124" lon="1.86476">
        <ele>1042.6</ele>
        <time>2024-06-30T11:23:49Z</time>
      </trkpt>
      <trkpt lat="42.72123" lon="1.86479">
        <ele>1043.2</ele>
        <time>2024-06-30T11:23:50Z</time>
      </trkpt>
      <trkpt lat="42.72121" lon="1.86482">
        <ele>1043.6</ele>
        <time>2024-06-30T11:23:51Z</time>
      </trkpt>
      <trkpt lat="42.7212" lon="1.86485">
        <ele>1043.8</ele>
        <time>2024-06-30T11:23:52Z</time>
      </trkpt>
      <trkpt lat="42.72119" lon="1.86487">
        <ele>1044.4</ele>
        <time>2024-06-30T11:23:53Z</time>
      </trkpt>
      <trkpt lat="42.72117" lon="1.86491">
        <ele>1044.6</ele>
        <time>2024-06-30T11:23:54Z</time>
      </trkpt>
      <trkpt lat="42.72116" lon="1.86496">
        <ele>1045.2</ele>
        <time>2024-06-30T11:23:55Z</time>
      </trkpt>
      <trkpt lat="42.72116" lon="1.865">
        <ele>1045.6</ele>
        <time>2024-06-30T11:23:56Z</time>
      </trkpt>
      <trkpt lat="42.72114" lon="1.86502">
        <ele>1046.2</ele>
        <time>2024-06-30T11:23:57Z</time>
      </trkpt>
      <trkpt lat="42.72114" lon="1.86505">
        <ele>1046.6</ele>
        <time>2024-06-30T11:23:58Z</time>
      </trkpt>
      <trkpt lat="42.72114" lon="1.86509">
        <ele>1046.6</ele>
        <time>2024-06-30T11:23:59Z</time>
      </trkpt>
      <trkpt lat="42.72113" lon="1.86512">
        <ele>1047</ele>
        <time>2024-06-30T11:24:00Z</time>
      </trkpt>
      <trkpt lat="42.72113" lon="1.86515">
        <ele>1047.4</ele>
        <time>2024-06-30T11:24:01Z</time>
      </trkpt>
      <trkpt lat="42.72113" lon="1.8652">
        <ele>1047.8</ele>
        <time>2024-06-30T11:24:02Z</time>
      </trkpt>
      <trkpt lat="42.72113" lon="1.86524">
        <ele>1048</ele>
        <time>2024-06-30T11:24:03Z</time>
      </trkpt>
      <trkpt lat="42.72114" lon="1.86527">
        <ele>1048.6</ele>
        <time>2024-06-30T11:24:04Z</time>
      </trkpt>
      <trkpt lat="42.72113" lon="1.86531">
        <ele>1049.6</ele>
        <time>2024-06-30T11:24:05Z</time>
      </trkpt>
      <trkpt lat="42.72113" lon="1.86535">
        <ele>1050</ele>
        <time>2024-06-30T11:24:06Z</time>
      </trkpt>
      <trkpt lat="42.72113" lon="1.86539">
        <ele>1050.8</ele>
        <time>2024-06-30T11:24:07Z</time>
      </trkpt>
      <trkpt lat="42.72113" lon="1.86542">
        <ele>1051.2</ele>
        <time>2024-06-30T11:24:08Z</time>
      </trkpt>
      <trkpt lat="42.72112" lon="1.86546">
        <ele>1051.8</ele>
        <time>2024-06-30T11:24:09Z</time>
      </trkpt>
      <trkpt lat="42.72112" lon="1.8655">
        <ele>1052</ele>
        <time>2024-06-30T11:24:10Z</time>
      </trkpt>
      <trkpt lat="42.72111" lon="1.86554">
        <ele>1052.4</ele>
        <time>2024-06-30T11:24:11Z</time>
      </trkpt>
      <trkpt lat="42.72111" lon="1.86557">
        <ele>1052.8</ele>
        <time>2024-06-30T11:24:12Z</time>
      </trkpt>
      <trkpt lat="42.72111" lon="1.8656">
        <ele>1053</ele>
        <time>2024-06-30T11:24:13Z</time>
      </trkpt>
      <trkpt lat="42.72111" lon="1.86564">
        <ele>1053.4</ele>
        <time>2024-06-30T11:24:14Z</time>
      </trkpt>
      <trkpt lat="42.72111" lon="1.86567">
        <ele>1054</ele>
        <time>2024-06-30T11:24:15Z</time>
      </trkpt>
      <trkpt lat="42.7211" lon="1.86571">
        <ele>1054.6</ele>
        <time>2024-06-30T11:24:16Z</time>
      </trkpt>
      <trkpt lat="42.7211" lon="1.86574">
        <ele>1055</ele>
        <time>2024-06-30T11:24:17Z</time>
      </trkpt>
      <trkpt lat="42.72109" lon="1.86577">
        <ele>1055.4</ele>
        <time>2024-06-30T11:24:18Z</time>
      </trkpt>
      <trkpt lat="42.72109" lon="1.86581">
        <ele>1056.2</ele>
        <time>2024-06-30T11:24:19Z</time>
      </trkpt>
      <trkpt lat="42.72108" lon="1.86584">
        <ele>1056.4</ele>
        <time>2024-06-30T11:24:20Z</time>
      </trkpt>
      <trkpt lat="42.72108" lon="1.86588">
        <ele>1057</ele>
        <time>2024-06-30T11:24:21Z</time>
      </trkpt>
      <trkpt lat="42.72108" lon="1.86592">
        <ele>1057.4</ele>
        <time>2024-06-30T11:24:22Z</time>
      </trkpt>
      <trkpt lat="42.72108" lon="1.86595">
        <ele>1057.8</ele>
        <time>2024-06-30T11:24:23Z</time>
      </trkpt>
      <trkpt lat="42.72108" lon="1.86599">
        <ele>1058</ele>
        <time>2024-06-30T11:24:24Z</time>
      </trkpt>
      <trkpt lat="42.72109" lon="1.86601">
        <ele>1058.2</ele>
        <time>2024-06-30T11:24:25Z</time>
      </trkpt>
      <trkpt lat="42.7211" lon="1.86603">
        <ele>1058.4</ele>
        <time>2024-06-30T11:24:26Z</time>
      </trkpt>
      <trkpt lat="42.72112" lon="1.86606">
        <ele>1058.6</ele>
        <time>2024-06-30T11:24:27Z</time>
      </trkpt>
      <trkpt lat="42.72113" lon="1.8661">
        <ele>1058.8</ele>
        <time>2024-06-30T11:24:28Z</time>
      </trkpt>
      <trkpt lat="42.72114" lon="1.86613">
        <ele>1059</ele>
        <time>2024-06-30T11:24:29Z</time>
      </trkpt>
      <trkpt lat="42.72114" lon="1.86615">
        <ele>1059.4</ele>
        <time>2024-06-30T11:24:30Z</time>
      </trkpt>
      <trkpt lat="42.72115" lon="1.86617">
        <ele>1059.4</ele>
        <time>2024-06-30T11:24:31Z</time>
      </trkpt>
      <trkpt lat="42.72115" lon="1.86619">
        <ele>1059.6</ele>
        <time>2024-06-30T11:24:32Z</time>
      </trkpt>
      <trkpt lat="42.72116" lon="1.86621">
        <ele>1060.2</ele>
        <time>2024-06-30T11:24:33Z</time>
      </trkpt>
      <trkpt lat="42.72116" lon="1.86623">
        <ele>1060.4</ele>
        <time>2024-06-30T11:24:34Z</time>
      </trkpt>
      <trkpt lat="42.72116" lon="1.86625">
        <ele>1060.6</ele>
        <time>2024-06-30T11:24:35Z</time>
      </trkpt>
      <trkpt lat="42.72116" lon="1.86628">
        <ele>1060.8</ele>
        <time>2024-06-30T11:24:36Z</time>
      </trkpt>
      <trkpt lat="42.72117" lon="1.86631">
        <ele>1061</ele>
        <time>2024-06-30T11:24:37Z</time>
      </trkpt>
      <trkpt lat="42.72117" lon="1.86633">
        <ele>1061</ele>
        <time>2024-06-30T11:24:38Z</time>
      </trkpt>
      <trkpt lat="42.72116" lon="1.86636">
        <ele>1061.2</ele>
        <time>2024-06-30T11:24:39Z</time>
      </trkpt>
      <trkpt lat="42.72115" lon="1.86641">
        <ele>1061.6</ele>
        <time>2024-06-30T11:24:40Z</time>
      </trkpt>
      <trkpt lat="42.72114" lon="1.86647">
        <ele>1061.6</ele>
        <time>2024-06-30T11:24:41Z</time>
      </trkpt>
      <trkpt lat="42.72114" lon="1.86652">
        <ele>1062</ele>
        <time>2024-06-30T11:24:42Z</time>
      </trkpt>
      <trkpt lat="42.72113" lon="1.86659">
        <ele>1062</ele>
        <time>2024-06-30T11:24:43Z</time>
      </trkpt>
      <trkpt lat="42.72113" lon="1.86665">
        <ele>1062.2</ele>
        <time>2024-06-30T11:24:44Z</time>
      </trkpt>
      <trkpt lat="42.72112" lon="1.86671">
        <ele>1062.4</ele>
        <time>2024-06-30T11:24:45Z</time>
      </trkpt>
      <trkpt lat="42.72111" lon="1.86676">
        <ele>1062.4</ele>
        <time>2024-06-30T11:24:46Z</time>
      </trkpt>
      <trkpt lat="42.7211" lon="1.86682">
        <ele>1062.8</ele>
        <time>2024-06-30T11:24:47Z</time>
      </trkpt>
      <trkpt lat="42.7211" lon="1.86687">
        <ele>1062.8</ele>
        <time>2024-06-30T11:24:48Z</time>
      </trkpt>
      <trkpt lat="42.72109" lon="1.86691">
        <ele>1063.2</ele>
        <time>2024-06-30T11:24:49Z</time>
      </trkpt>
      <trkpt lat="42.72109" lon="1.86694">
        <ele>1063.2</ele>
        <time>2024-06-30T11:24:50Z</time>
      </trkpt>
      <trkpt lat="42.72109" lon="1.86698">
        <ele>1063.6</ele>
        <time>2024-06-30T11:24:51Z</time>
      </trkpt>
      <trkpt lat="42.72109" lon="1.86702">
        <ele>1064</ele>
        <time>2024-06-30T11:24:52Z</time>
      </trkpt>
      <trkpt lat="42.7211" lon="1.86707">
        <ele>1064</ele>
        <time>2024-06-30T11:24:53Z</time>
      </trkpt>
      <trkpt lat="42.7211" lon="1.86712">
        <ele>1064.4</ele>
        <time>2024-06-30T11:24:54Z</time>
      </trkpt>
      <trkpt lat="42.72111" lon="1.86717">
        <ele>1064.6</ele>
        <time>2024-06-30T11:24:55Z</time>
      </trkpt>
      <trkpt lat="42.72112" lon="1.86723">
        <ele>1065</ele>
        <time>2024-06-30T11:24:56Z</time>
      </trkpt>
      <trkpt lat="42.72112" lon="1.86728">
        <ele>1065.2</ele>
        <time>2024-06-30T11:24:57Z</time>
      </trkpt>
      <trkpt lat="42.72112" lon="1.86735">
        <ele>1065.6</ele>
        <time>2024-06-30T11:24:58Z</time>
      </trkpt>
      <trkpt lat="42.72113" lon="1.86741">
        <ele>1065.8</ele>
        <time>2024-06-30T11:24:59Z</time>
      </trkpt>
      <trkpt lat="42.72114" lon="1.86746">
        <ele>1066.4</ele>
        <time>2024-06-30T11:25:00Z</time>
      </trkpt>
      <trkpt lat="42.72115" lon="1.86753">
        <ele>1066.6</ele>
        <time>2024-06-30T11:25:01Z</time>
      </trkpt>
      <trkpt lat="42.72116" lon="1.86759">
        <ele>1066.8</ele>
        <time>2024-06-30T11:25:02Z</time>
      </trkpt>
      <trkpt lat="42.72117" lon="1.86765">
        <ele>1067.2</ele>
        <time>2024-06-30T11:25:03Z</time>
      </trkpt>
      <trkpt lat="42.72118" lon="1.8677">
        <ele>1067.4</ele>
        <time>2024-06-30T11:25:04Z</time>
      </trkpt>
      <trkpt lat="42.72118" lon="1.86775">
        <ele>1067.6</ele>
        <time>2024-06-30T11:25:05Z</time>
      </trkpt>
      <trkpt lat="42.72118" lon="1.8678">
        <ele>1067.8</ele>
        <time>2024-06-30T11:25:06Z</time>
      </trkpt>
      <trkpt lat="42.72118" lon="1.86784">
        <ele>1067.8</ele>
        <time>2024-06-30T11:25:07Z</time>
      </trkpt>
      <trkpt lat="42.72118" lon="1.86788">
        <ele>1068.2</ele>
        <time>2024-06-30T11:25:08Z</time>
      </trkpt>
      <trkpt lat="42.72118" lon="1.86792">
        <ele>1068.6</ele>
        <time>2024-06-30T11:25:09Z</time>
      </trkpt>
      <trkpt lat="42.72118" lon="1.86797">
        <ele>1069</ele>
        <time>2024-06-30T11:25:10Z</time>
      </trkpt>
      <trkpt lat="42.72119" lon="1.86803">
        <ele>1069</ele>
        <time>2024-06-30T11:25:11Z</time>
      </trkpt>
      <trkpt lat="42.72119" lon="1.86808">
        <ele>1069.4</ele>
        <time>2024-06-30T11:25:12Z</time>
      </trkpt>
      <trkpt lat="42.72119" lon="1.86814">
        <ele>1069.4</ele>
        <time>2024-06-30T11:25:13Z</time>
      </trkpt>
      <trkpt lat="42.7212" lon="1.86819">
        <ele>1069.8</ele>
        <time>2024-06-30T11:25:14Z</time>
      </trkpt>
      <trkpt lat="42.7212" lon="1.86824">
        <ele>1069.8</ele>
        <time>2024-06-30T11:25:15Z</time>
      </trkpt>
      <trkpt lat="42.72119" lon="1.86828">
        <ele>1070.2</ele>
        <time>2024-06-30T11:25:16Z</time>
      </trkpt>
      <trkpt lat="42.72118" lon="1.86834">
        <ele>1070.8</ele>
        <time>2024-06-30T11:25:17Z</time>
      </trkpt>
      <trkpt lat="42.72117" lon="1.8684">
        <ele>1071</ele>
        <time>2024-06-30T11:25:18Z</time>
      </trkpt>
      <trkpt lat="42.72116" lon="1.86846">
        <ele>1071.4</ele>
        <time>2024-06-30T11:25:19Z</time>
      </trkpt>
      <trkpt lat="42.72115" lon="1.86854">
        <ele>1071.4</ele>
        <time>2024-06-30T11:25:20Z</time>
      </trkpt>
      <trkpt lat="42.72114" lon="1.86861">
        <ele>1071.8</ele>
        <time>2024-06-30T11:25:21Z</time>
      </trkpt>
      <trkpt lat="42.72113" lon="1.86867">
        <ele>1072</ele>
        <time>2024-06-30T11:25:22Z</time>
      </trkpt>
      <trkpt lat="42.72112" lon="1.86874">
        <ele>1072.4</ele>
        <time>2024-06-30T11:25:23Z</time>
      </trkpt>
      <trkpt lat="42.72112" lon="1.8688">
        <ele>1072.4</ele>
        <time>2024-06-30T11:25:24Z</time>
      </trkpt>
      <trkpt lat="42.72111" lon="1.86884">
        <ele>1072.6</ele>
        <time>2024-06-30T11:25:25Z</time>
      </trkpt>
      <trkpt lat="42.7211" lon="1.86887">
        <ele>1072.8</ele>
        <time>2024-06-30T11:25:26Z</time>
      </trkpt>
      <trkpt lat="42.7211" lon="1.86889">
        <ele>1072.8</ele>
        <time>2024-06-30T11:25:27Z</time>
      </trkpt>
      <trkpt lat="42.7211" lon="1.86891">
        <ele>1073</ele>
        <time>2024-06-30T11:25:28Z</time>
      </trkpt>
      <trkpt lat="42.7211" lon="1.86893">
        <ele>1073</ele>
        <time>2024-06-30T11:25:29Z</time>
      </trkpt>
      <trkpt lat="42.7211" lon="1.86895">
        <ele>1073.2</ele>
        <time>2024-06-30T11:25:30Z</time>
      </trkpt>
      <trkpt lat="42.7211" lon="1.86899">
        <ele>1073.2</ele>
        <time>2024-06-30T11:25:31Z</time>
      </trkpt>
      <trkpt lat="42.7211" lon="1.86904">
        <ele>1073.4</ele>
        <time>2024-06-30T11:25:32Z</time>
      </trkpt>
      <trkpt lat="42.72109" lon="1.86909">
        <ele>1073.4</ele>
        <time>2024-06-30T11:25:33Z</time>
      </trkpt>
      <trkpt lat="42.72108" lon="1.86914">
        <ele>1073.6</ele>
        <time>2024-06-30T11:25:34Z</time>
      </trkpt>
      <trkpt lat="42.72107" lon="1.86918">
        <ele>1073.6</ele>
        <time>2024-06-30T11:25:35Z</time>
      </trkpt>
      <trkpt lat="42.72107" lon="1.86924">
        <ele>1073.8</ele>
        <time>2024-06-30T11:25:36Z</time>
      </trkpt>
      <trkpt lat="42.72107" lon="1.8693">
        <ele>1073.8</ele>
        <time>2024-06-30T11:25:37Z</time>
      </trkpt>
      <trkpt lat="42.72107" lon="1.86936">
        <ele>1074</ele>
        <time>2024-06-30T11:25:38Z</time>
      </trkpt>
      <trkpt lat="42.72107" lon="1.86942">
        <ele>1074.2</ele>
        <time>2024-06-30T11:25:39Z</time>
      </trkpt>
      <trkpt lat="42.72107" lon="1.86948">
        <ele>1074.8</ele>
        <time>2024-06-30T11:25:40Z</time>
      </trkpt>
      <trkpt lat="42.72107" lon="1.86953">
        <ele>1074.8</ele>
        <time>2024-06-30T11:25:41Z</time>
      </trkpt>
      <trkpt lat="42.72107" lon="1.86957">
        <ele>1075</ele>
        <time>2024-06-30T11:25:42Z</time>
      </trkpt>
      <trkpt lat="42.72107" lon="1.8696">
        <ele>1075.4</ele>
        <time>2024-06-30T11:25:43Z</time>
      </trkpt>
      <trkpt lat="42.72107" lon="1.86963">
        <ele>1076</ele>
        <time>2024-06-30T11:25:44Z</time>
      </trkpt>
      <trkpt lat="42.72107" lon="1.86966">
        <ele>1076.6</ele>
        <time>2024-06-30T11:25:45Z</time>
      </trkpt>
      <trkpt lat="42.72106" lon="1.86969">
        <ele>1076.8</ele>
        <time>2024-06-30T11:25:46Z</time>
      </trkpt>
      <trkpt lat="42.72106" lon="1.86971">
        <ele>1077</ele>
        <time>2024-06-30T11:25:47Z</time>
      </trkpt>
      <trkpt lat="42.72106" lon="1.86973">
        <ele>1077.2</ele>
        <time>2024-06-30T11:25:48Z</time>
      </trkpt>
      <trkpt lat="42.72105" lon="1.86977">
        <ele>1077.8</ele>
        <time>2024-06-30T11:25:49Z</time>
      </trkpt>
      <trkpt lat="42.72105" lon="1.86982">
        <ele>1078.2</ele>
        <time>2024-06-30T11:25:50Z</time>
      </trkpt>
      <trkpt lat="42.72102" lon="1.86988">
        <ele>1078.4</ele>
        <time>2024-06-30T11:25:51Z</time>
      </trkpt>
      <trkpt lat="42.721" lon="1.86991">
        <ele>1078.8</ele>
        <time>2024-06-30T11:25:52Z</time>
      </trkpt>
      <trkpt lat="42.72099" lon="1.86995">
        <ele>1078.8</ele>
        <time>2024-06-30T11:25:53Z</time>
      </trkpt>
      <trkpt lat="42.72096" lon="1.87">
        <ele>1079</ele>
        <time>2024-06-30T11:25:54Z</time>
      </trkpt>
      <trkpt lat="42.72094" lon="1.87006">
        <ele>1079.2</ele>
        <time>2024-06-30T11:25:55Z</time>
      </trkpt>
      <trkpt lat="42.72093" lon="1.87011">
        <ele>1079.4</ele>
        <time>2024-06-30T11:25:56Z</time>
      </trkpt>
      <trkpt lat="42.72092" lon="1.87019">
        <ele>1079.6</ele>
        <time>2024-06-30T11:25:57Z</time>
      </trkpt>
      <trkpt lat="42.72092" lon="1.87025">
        <ele>1080</ele>
        <time>2024-06-30T11:25:58Z</time>
      </trkpt>
      <trkpt lat="42.72093" lon="1.87032">
        <ele>1080.2</ele>
        <time>2024-06-30T11:25:59Z</time>
      </trkpt>
      <trkpt lat="42.72092" lon="1.87038">
        <ele>1080.4</ele>
        <time>2024-06-30T11:26:00Z</time>
      </trkpt>
      <trkpt lat="42.72092" lon="1.87044">
        <ele>1080.6</ele>
        <time>2024-06-30T11:26:01Z</time>
      </trkpt>
      <trkpt lat="42.72093" lon="1.87048">
        <ele>1080.8</ele>
        <time>2024-06-30T11:26:02Z</time>
      </trkpt>
      <trkpt lat="42.72092" lon="1.87053">
        <ele>1081</ele>
        <time>2024-06-30T11:26:03Z</time>
      </trkpt>
      <trkpt lat="42.72091" lon="1.87057">
        <ele>1081.4</ele>
        <time>2024-06-30T11:26:04Z</time>
      </trkpt>
      <trkpt lat="42.7209" lon="1.87062">
        <ele>1081.8</ele>
        <time>2024-06-30T11:26:05Z</time>
      </trkpt>
      <trkpt lat="42.72091" lon="1.87067">
        <ele>1082.2</ele>
        <time>2024-06-30T11:26:06Z</time>
      </trkpt>
      <trkpt lat="42.7209" lon="1.87072">
        <ele>1082.6</ele>
        <time>2024-06-30T11:26:07Z</time>
      </trkpt>
      <trkpt lat="42.72089" lon="1.87075">
        <ele>1083</ele>
        <time>2024-06-30T11:26:08Z</time>
      </trkpt>
      <trkpt lat="42.72089" lon="1.87079">
        <ele>1083.2</ele>
        <time>2024-06-30T11:26:09Z</time>
      </trkpt>
      <trkpt lat="42.72089" lon="1.87083">
        <ele>1083.8</ele>
        <time>2024-06-30T11:26:10Z</time>
      </trkpt>
      <trkpt lat="42.72088" lon="1.87087">
        <ele>1084.2</ele>
        <time>2024-06-30T11:26:11Z</time>
      </trkpt>
      <trkpt lat="42.72087" lon="1.87091">
        <ele>1084.8</ele>
        <time>2024-06-30T11:26:12Z</time>
      </trkpt>
      <trkpt lat="42.72087" lon="1.87095">
        <ele>1085.2</ele>
        <time>2024-06-30T11:26:13Z</time>
      </trkpt>
      <trkpt lat="42.72086" lon="1.87098">
        <ele>1085.4</ele>
        <time>2024-06-30T11:26:14Z</time>
      </trkpt>
      <trkpt lat="42.72086" lon="1.87101">
        <ele>1085.8</ele>
        <time>2024-06-30T11:26:15Z</time>
      </trkpt>
      <trkpt lat="42.72084" lon="1.87105">
        <ele>1086.2</ele>
        <time>2024-06-30T11:26:16Z</time>
      </trkpt>
      <trkpt lat="42.72083" lon="1.87108">
        <ele>1087</ele>
        <time>2024-06-30T11:26:17Z</time>
      </trkpt>
      <trkpt lat="42.72081" lon="1.8711">
        <ele>1087.2</ele>
        <time>2024-06-30T11:26:18Z</time>
      </trkpt>
      <trkpt lat="42.7208" lon="1.87113">
        <ele>1087.6</ele>
        <time>2024-06-30T11:26:19Z</time>
      </trkpt>
      <trkpt lat="42.72079" lon="1.87116">
        <ele>1087.8</ele>
        <time>2024-06-30T11:26:20Z</time>
      </trkpt>
      <trkpt lat="42.7208" lon="1.8712">
        <ele>1088.2</ele>
        <time>2024-06-30T11:26:21Z</time>
      </trkpt>
      <trkpt lat="42.72081" lon="1.87125">
        <ele>1088.4</ele>
        <time>2024-06-30T11:26:22Z</time>
      </trkpt>
      <trkpt lat="42.72081" lon="1.8713">
        <ele>1088.6</ele>
        <time>2024-06-30T11:26:23Z</time>
      </trkpt>
      <trkpt lat="42.72081" lon="1.87136">
        <ele>1088.8</ele>
        <time>2024-06-30T11:26:24Z</time>
      </trkpt>
      <trkpt lat="42.72081" lon="1.87142">
        <ele>1089</ele>
        <time>2024-06-30T11:26:25Z</time>
      </trkpt>
      <trkpt lat="42.72081" lon="1.87148">
        <ele>1089</ele>
        <time>2024-06-30T11:26:26Z</time>
      </trkpt>
      <trkpt lat="42.7208" lon="1.87154">
        <ele>1089.2</ele>
        <time>2024-06-30T11:26:27Z</time>
      </trkpt>
      <trkpt lat="42.7208" lon="1.8716">
        <ele>1089.2</ele>
        <time>2024-06-30T11:26:28Z</time>
      </trkpt>
      <trkpt lat="42.72079" lon="1.87165">
        <ele>1089.4</ele>
        <time>2024-06-30T11:26:29Z</time>
      </trkpt>
      <trkpt lat="42.72079" lon="1.8717">
        <ele>1089.4</ele>
        <time>2024-06-30T11:26:30Z</time>
      </trkpt>
      <trkpt lat="42.72078" lon="1.87175">
        <ele>1089.6</ele>
        <time>2024-06-30T11:26:31Z</time>
      </trkpt>
      <trkpt lat="42.72076" lon="1.87179">
        <ele>1089.6</ele>
        <time>2024-06-30T11:26:32Z</time>
      </trkpt>
      <trkpt lat="42.72075" lon="1.87185">
        <ele>1089.8</ele>
        <time>2024-06-30T11:26:33Z</time>
      </trkpt>
      <trkpt lat="42.72075" lon="1.8719">
        <ele>1089.8</ele>
        <time>2024-06-30T11:26:34Z</time>
      </trkpt>
      <trkpt lat="42.72074" lon="1.87196">
        <ele>1090</ele>
        <time>2024-06-30T11:26:35Z</time>
      </trkpt>
      <trkpt lat="42.72073" lon="1.87203">
        <ele>1090</ele>
        <time>2024-06-30T11:26:36Z</time>
      </trkpt>
      <trkpt lat="42.72073" lon="1.87209">
        <ele>1090</ele>
        <time>2024-06-30T11:26:37Z</time>
      </trkpt>
      <trkpt lat="42.72073" lon="1.87216">
        <ele>1090.2</ele>
        <time>2024-06-30T11:26:38Z</time>
      </trkpt>
      <trkpt lat="42.72074" lon="1.87222">
        <ele>1090.2</ele>
        <time>2024-06-30T11:26:39Z</time>
      </trkpt>
      <trkpt lat="42.72075" lon="1.87227">
        <ele>1090.2</ele>
        <time>2024-06-30T11:26:40Z</time>
      </trkpt>
      <trkpt lat="42.72074" lon="1.87233">
        <ele>1090.2</ele>
        <time>2024-06-30T11:26:41Z</time>
      </trkpt>
      <trkpt lat="42.72073" lon="1.87239">
        <ele>1090.4</ele>
        <time>2024-06-30T11:26:42Z</time>
      </trkpt>
      <trkpt lat="42.72073" lon="1.87245">
        <ele>1090.4</ele>
        <time>2024-06-30T11:26:43Z</time>
      </trkpt>
      <trkpt lat="42.72072" lon="1.87251">
        <ele>1090.4</ele>
        <time>2024-06-30T11:26:44Z</time>
      </trkpt>
      <trkpt lat="42.72072" lon="1.87258">
        <ele>1090.4</ele>
        <time>2024-06-30T11:26:45Z</time>
      </trkpt>
      <trkpt lat="42.72071" lon="1.87265">
        <ele>1090.4</ele>
        <time>2024-06-30T11:26:46Z</time>
      </trkpt>
      <trkpt lat="42.7207" lon="1.87271">
        <ele>1090.4</ele>
        <time>2024-06-30T11:26:47Z</time>
      </trkpt>
      <trkpt lat="42.7207" lon="1.87277">
        <ele>1090.4</ele>
        <time>2024-06-30T11:26:48Z</time>
      </trkpt>
      <trkpt lat="42.72069" lon="1.87283">
        <ele>1090.6</ele>
        <time>2024-06-30T11:26:49Z</time>
      </trkpt>
      <trkpt lat="42.72067" lon="1.87289">
        <ele>1091</ele>
        <time>2024-06-30T11:26:50Z</time>
      </trkpt>
      <trkpt lat="42.72066" lon="1.87294">
        <ele>1091</ele>
        <time>2024-06-30T11:26:51Z</time>
      </trkpt>
      <trkpt lat="42.72065" lon="1.87299">
        <ele>1091.6</ele>
        <time>2024-06-30T11:26:52Z</time>
      </trkpt>
      <trkpt lat="42.72064" lon="1.87304">
        <ele>1091.8</ele>
        <time>2024-06-30T11:26:53Z</time>
      </trkpt>
      <trkpt lat="42.72063" lon="1.87308">
        <ele>1092</ele>
        <time>2024-06-30T11:26:54Z</time>
      </trkpt>
      <trkpt lat="42.72063" lon="1.87311">
        <ele>1092.2</ele>
        <time>2024-06-30T11:26:55Z</time>
      </trkpt>
      <trkpt lat="42.72062" lon="1.87315">
        <ele>1092.6</ele>
        <time>2024-06-30T11:26:56Z</time>
      </trkpt>
      <trkpt lat="42.72061" lon="1.87318">
        <ele>1093.4</ele>
        <time>2024-06-30T11:26:57Z</time>
      </trkpt>
      <trkpt lat="42.72062" lon="1.87322">
        <ele>1093.6</ele>
        <time>2024-06-30T11:26:58Z</time>
      </trkpt>
      <trkpt lat="42.72063" lon="1.87325">
        <ele>1094</ele>
        <time>2024-06-30T11:26:59Z</time>
      </trkpt>
      <trkpt lat="42.72065" lon="1.87329">
        <ele>1094.2</ele>
        <time>2024-06-30T11:27:00Z</time>
      </trkpt>
      <trkpt lat="42.72067" lon="1.87333">
        <ele>1094.6</ele>
        <time>2024-06-30T11:27:01Z</time>
      </trkpt>
      <trkpt lat="42.72069" lon="1.87337">
        <ele>1094.8</ele>
        <time>2024-06-30T11:27:02Z</time>
      </trkpt>
      <trkpt lat="42.7207" lon="1.87342">
        <ele>1095.2</ele>
        <time>2024-06-30T11:27:03Z</time>
      </trkpt>
      <trkpt lat="42.72072" lon="1.87347">
        <ele>1095.4</ele>
        <time>2024-06-30T11:27:04Z</time>
      </trkpt>
      <trkpt lat="42.72073" lon="1.87351">
        <ele>1095.6</ele>
        <time>2024-06-30T11:27:05Z</time>
      </trkpt>
      <trkpt lat="42.72074" lon="1.87355">
        <ele>1096</ele>
        <time>2024-06-30T11:27:06Z</time>
      </trkpt>
      <trkpt lat="42.72075" lon="1.8736">
        <ele>1096.2</ele>
        <time>2024-06-30T11:27:07Z</time>
      </trkpt>
      <trkpt lat="42.72076" lon="1.87366">
        <ele>1096.4</ele>
        <time>2024-06-30T11:27:08Z</time>
      </trkpt>
      <trkpt lat="42.72076" lon="1.87372">
        <ele>1096.4</ele>
        <time>2024-06-30T11:27:09Z</time>
      </trkpt>
      <trkpt lat="42.72076" lon="1.87378">
        <ele>1096.8</ele>
        <time>2024-06-30T11:27:10Z</time>
      </trkpt>
      <trkpt lat="42.72076" lon="1.87384">
        <ele>1097</ele>
        <time>2024-06-30T11:27:11Z</time>
      </trkpt>
      <trkpt lat="42.72076" lon="1.8739">
        <ele>1097.2</ele>
        <time>2024-06-30T11:27:12Z</time>
      </trkpt>
      <trkpt lat="42.72075" lon="1.87396">
        <ele>1097.8</ele>
        <time>2024-06-30T11:27:13Z</time>
      </trkpt>
      <trkpt lat="42.72075" lon="1.87401">
        <ele>1098.2</ele>
        <time>2024-06-30T11:27:14Z</time>
      </trkpt>
      <trkpt lat="42.72075" lon="1.87405">
        <ele>1099.4</ele>
        <time>2024-06-30T11:27:15Z</time>
      </trkpt>
      <trkpt lat="42.72076" lon="1.87408">
        <ele>1099.8</ele>
        <time>2024-06-30T11:27:16Z</time>
      </trkpt>
      <trkpt lat="42.72076" lon="1.87411">
        <ele>1100.6</ele>
        <time>2024-06-30T11:27:17Z</time>
      </trkpt>
      <trkpt lat="42.72075" lon="1.87415">
        <ele>1101</ele>
        <time>2024-06-30T11:27:18Z</time>
      </trkpt>
      <trkpt lat="42.72074" lon="1.87421">
        <ele>1101</ele>
        <time>2024-06-30T11:27:19Z</time>
      </trkpt>
      <trkpt lat="42.72072" lon="1.87426">
        <ele>1101.4</ele>
        <time>2024-06-30T11:27:20Z</time>
      </trkpt>
      <trkpt lat="42.7207" lon="1.87433">
        <ele>1101.4</ele>
        <time>2024-06-30T11:27:21Z</time>
      </trkpt>
      <trkpt lat="42.72069" lon="1.87439">
        <ele>1101.6</ele>
        <time>2024-06-30T11:27:22Z</time>
      </trkpt>
      <trkpt lat="42.72067" lon="1.87444">
        <ele>1101.6</ele>
        <time>2024-06-30T11:27:23Z</time>
      </trkpt>
      <trkpt lat="42.72066" lon="1.8745">
        <ele>1101.8</ele>
        <time>2024-06-30T11:27:24Z</time>
      </trkpt>
      <trkpt lat="42.72065" lon="1.87456">
        <ele>1101.8</ele>
        <time>2024-06-30T11:27:25Z</time>
      </trkpt>
      <trkpt lat="42.72066" lon="1.87462">
        <ele>1101.8</ele>
        <time>2024-06-30T11:27:26Z</time>
      </trkpt>
      <trkpt lat="42.72067" lon="1.87468">
        <ele>1101.8</ele>
        <time>2024-06-30T11:27:27Z</time>
      </trkpt>
      <trkpt lat="42.72068" lon="1.87474">
        <ele>1102</ele>
        <time>2024-06-30T11:27:28Z</time>
      </trkpt>
      <trkpt lat="42.72069" lon="1.8748">
        <ele>1102</ele>
        <time>2024-06-30T11:27:29Z</time>
      </trkpt>
      <trkpt lat="42.72071" lon="1.87486">
        <ele>1102.4</ele>
        <time>2024-06-30T11:27:30Z</time>
      </trkpt>
      <trkpt lat="42.72073" lon="1.87492">
        <ele>1102.6</ele>
        <time>2024-06-30T11:27:31Z</time>
      </trkpt>
      <trkpt lat="42.72075" lon="1.87498">
        <ele>1102.8</ele>
        <time>2024-06-30T11:27:32Z</time>
      </trkpt>
      <trkpt lat="42.72077" lon="1.87505">
        <ele>1103</ele>
        <time>2024-06-30T11:27:33Z</time>
      </trkpt>
      <trkpt lat="42.72079" lon="1.87511">
        <ele>1103.2</ele>
        <time>2024-06-30T11:27:34Z</time>
      </trkpt>
      <trkpt lat="42.72081" lon="1.87517">
        <ele>1103.4</ele>
        <time>2024-06-30T11:27:35Z</time>
      </trkpt>
      <trkpt lat="42.72082" lon="1.87522">
        <ele>1103.8</ele>
        <time>2024-06-30T11:27:36Z</time>
      </trkpt>
      <trkpt lat="42.72083" lon="1.87528">
        <ele>1104</ele>
        <time>2024-06-30T11:27:37Z</time>
      </trkpt>
      <trkpt lat="42.72085" lon="1.87534">
        <ele>1104.2</ele>
        <time>2024-06-30T11:27:38Z</time>
      </trkpt>
      <trkpt lat="42.72087" lon="1.8754">
        <ele>1104.4</ele>
        <time>2024-06-30T11:27:39Z</time>
      </trkpt>
      <trkpt lat="42.72088" lon="1.87546">
        <ele>1104.8</ele>
        <time>2024-06-30T11:27:40Z</time>
      </trkpt>
      <trkpt lat="42.7209" lon="1.87552">
        <ele>1105.2</ele>
        <time>2024-06-30T11:27:41Z</time>
      </trkpt>
      <trkpt lat="42.72092" lon="1.87558">
        <ele>1105.6</ele>
        <time>2024-06-30T11:27:42Z</time>
      </trkpt>
      <trkpt lat="42.72094" lon="1.87564">
        <ele>1106.2</ele>
        <time>2024-06-30T11:27:43Z</time>
      </trkpt>
      <trkpt lat="42.72095" lon="1.8757">
        <ele>1106.4</ele>
        <time>2024-06-30T11:27:44Z</time>
      </trkpt>
      <trkpt lat="42.72097" lon="1.87575">
        <ele>1106.6</ele>
        <time>2024-06-30T11:27:45Z</time>
      </trkpt>
      <trkpt lat="42.72098" lon="1.8758">
        <ele>1106.8</ele>
        <time>2024-06-30T11:27:46Z</time>
      </trkpt>
      <trkpt lat="42.721" lon="1.87585">
        <ele>1107.2</ele>
        <time>2024-06-30T11:27:47Z</time>
      </trkpt>
      <trkpt lat="42.72102" lon="1.87591">
        <ele>1108</ele>
        <time>2024-06-30T11:27:48Z</time>
      </trkpt>
      <trkpt lat="42.72104" lon="1.87596">
        <ele>1108.4</ele>
        <time>2024-06-30T11:27:49Z</time>
      </trkpt>
      <trkpt lat="42.72105" lon="1.87601">
        <ele>1108.8</ele>
        <time>2024-06-30T11:27:50Z</time>
      </trkpt>
      <trkpt lat="42.72106" lon="1.87607">
        <ele>1109</ele>
        <time>2024-06-30T11:27:51Z</time>
      </trkpt>
      <trkpt lat="42.72107" lon="1.87612">
        <ele>1109.2</ele>
        <time>2024-06-30T11:27:52Z</time>
      </trkpt>
      <trkpt lat="42.72109" lon="1.87617">
        <ele>1109.4</ele>
        <time>2024-06-30T11:27:53Z</time>
      </trkpt>
      <trkpt lat="42.7211" lon="1.87622">
        <ele>1109.8</ele>
        <time>2024-06-30T11:27:54Z</time>
      </trkpt>
      <trkpt lat="42.72112" lon="1.87628">
        <ele>1110.2</ele>
        <time>2024-06-30T11:27:55Z</time>
      </trkpt>
      <trkpt lat="42.72114" lon="1.87633">
        <ele>1110.2</ele>
        <time>2024-06-30T11:27:56Z</time>
      </trkpt>
      <trkpt lat="42.72115" lon="1.87639">
        <ele>1110.6</ele>
        <time>2024-06-30T11:27:57Z</time>
      </trkpt>
      <trkpt lat="42.72116" lon="1.87645">
        <ele>1110.8</ele>
        <time>2024-06-30T11:27:58Z</time>
      </trkpt>
      <trkpt lat="42.72117" lon="1.87651">
        <ele>1111.4</ele>
        <time>2024-06-30T11:27:59Z</time>
      </trkpt>
      <trkpt lat="42.72118" lon="1.87657">
        <ele>1111.6</ele>
        <time>2024-06-30T11:28:00Z</time>
      </trkpt>
      <trkpt lat="42.7212" lon="1.87663">
        <ele>1112</ele>
        <time>2024-06-30T11:28:01Z</time>
      </trkpt>
      <trkpt lat="42.72122" lon="1.87668">
        <ele>1112.4</ele>
        <time>2024-06-30T11:28:02Z</time>
      </trkpt>
      <trkpt lat="42.72123" lon="1.87674">
        <ele>1112.6</ele>
        <time>2024-06-30T11:28:03Z</time>
      </trkpt>
      <trkpt lat="42.72125" lon="1.8768">
        <ele>1112.6</ele>
        <time>2024-06-30T11:28:04Z</time>
      </trkpt>
      <trkpt lat="42.72126" lon="1.87685">
        <ele>1112.8</ele>
        <time>2024-06-30T11:28:05Z</time>
      </trkpt>
      <trkpt lat="42.72127" lon="1.8769">
        <ele>1113.4</ele>
        <time>2024-06-30T11:28:06Z</time>
      </trkpt>
      <trkpt lat="42.72129" lon="1.87696">
        <ele>1113.6</ele>
        <time>2024-06-30T11:28:07Z</time>
      </trkpt>
      <trkpt lat="42.7213" lon="1.87701">
        <ele>1114.2</ele>
        <time>2024-06-30T11:28:08Z</time>
      </trkpt>
      <trkpt lat="42.72132" lon="1.87706">
        <ele>1114.4</ele>
        <time>2024-06-30T11:28:09Z</time>
      </trkpt>
      <trkpt lat="42.72134" lon="1.87712">
        <ele>1114.8</ele>
        <time>2024-06-30T11:28:10Z</time>
      </trkpt>
      <trkpt lat="42.72137" lon="1.87718">
        <ele>1115.2</ele>
        <time>2024-06-30T11:28:11Z</time>
      </trkpt>
      <trkpt lat="42.72139" lon="1.87724">
        <ele>1115.2</ele>
        <time>2024-06-30T11:28:12Z</time>
      </trkpt>
      <trkpt lat="42.72141" lon="1.87729">
        <ele>1115.6</ele>
        <time>2024-06-30T11:28:13Z</time>
      </trkpt>
      <trkpt lat="42.72144" lon="1.87735">
        <ele>1115.8</ele>
        <time>2024-06-30T11:28:14Z</time>
      </trkpt>
      <trkpt lat="42.72146" lon="1.87739">
        <ele>1116.2</ele>
        <time>2024-06-30T11:28:15Z</time>
      </trkpt>
      <trkpt lat="42.72149" lon="1.87744">
        <ele>1116.8</ele>
        <time>2024-06-30T11:28:16Z</time>
      </trkpt>
      <trkpt lat="42.72151" lon="1.87748">
        <ele>1116.8</ele>
        <time>2024-06-30T11:28:17Z</time>
      </trkpt>
      <trkpt lat="42.72154" lon="1.87753">
        <ele>1117.2</ele>
        <time>2024-06-30T11:28:18Z</time>
      </trkpt>
      <trkpt lat="42.72156" lon="1.87758">
        <ele>1117.4</ele>
        <time>2024-06-30T11:28:19Z</time>
      </trkpt>
      <trkpt lat="42.72159" lon="1.87764">
        <ele>1118</ele>
        <time>2024-06-30T11:28:20Z</time>
      </trkpt>
      <trkpt lat="42.72161" lon="1.8777">
        <ele>1118.2</ele>
        <time>2024-06-30T11:28:21Z</time>
      </trkpt>
      <trkpt lat="42.72164" lon="1.87775">
        <ele>1118.4</ele>
        <time>2024-06-30T11:28:22Z</time>
      </trkpt>
      <trkpt lat="42.72167" lon="1.87781">
        <ele>1119</ele>
        <time>2024-06-30T11:28:23Z</time>
      </trkpt>
      <trkpt lat="42.7217" lon="1.87786">
        <ele>1119.2</ele>
        <time>2024-06-30T11:28:24Z</time>
      </trkpt>
      <trkpt lat="42.72174" lon="1.87791">
        <ele>1119.4</ele>
        <time>2024-06-30T11:28:25Z</time>
      </trkpt>
      <trkpt lat="42.72177" lon="1.87797">
        <ele>1119.6</ele>
        <time>2024-06-30T11:28:26Z</time>
      </trkpt>
      <trkpt lat="42.72181" lon="1.87802">
        <ele>1119.8</ele>
        <time>2024-06-30T11:28:27Z</time>
      </trkpt>
      <trkpt lat="42.72184" lon="1.87806">
        <ele>1120</ele>
        <time>2024-06-30T11:28:28Z</time>
      </trkpt>
      <trkpt lat="42.72188" lon="1.87811">
        <ele>1120.4</ele>
        <time>2024-06-30T11:28:29Z</time>
      </trkpt>
      <trkpt lat="42.72191" lon="1.87814">
        <ele>1120.6</ele>
        <time>2024-06-30T11:28:30Z</time>
      </trkpt>
      <trkpt lat="42.72194" lon="1.87818">
        <ele>1120.6</ele>
        <time>2024-06-30T11:28:31Z</time>
      </trkpt>
      <trkpt lat="42.72198" lon="1.87821">
        <ele>1120.8</ele>
        <time>2024-06-30T11:28:32Z</time>
      </trkpt>
      <trkpt lat="42.72201" lon="1.87824">
        <ele>1121</ele>
        <time>2024-06-30T11:28:33Z</time>
      </trkpt>
      <trkpt lat="42.72205" lon="1.87827">
        <ele>1121.2</ele>
        <time>2024-06-30T11:28:34Z</time>
      </trkpt>
      <trkpt lat="42.72208" lon="1.87831">
        <ele>1121.2</ele>
        <time>2024-06-30T11:28:35Z</time>
      </trkpt>
      <trkpt lat="42.72212" lon="1.87835">
        <ele>1121.4</ele>
        <time>2024-06-30T11:28:36Z</time>
      </trkpt>
      <trkpt lat="42.72216" lon="1.87839">
        <ele>1121.6</ele>
        <time>2024-06-30T11:28:37Z</time>
      </trkpt>
      <trkpt lat="42.7222" lon="1.87843">
        <ele>1121.6</ele>
        <time>2024-06-30T11:28:38Z</time>
      </trkpt>
      <trkpt lat="42.72223" lon="1.87847">
        <ele>1121.8</ele>
        <time>2024-06-30T11:28:39Z</time>
      </trkpt>
      <trkpt lat="42.72226" lon="1.87852">
        <ele>1121.8</ele>
        <time>2024-06-30T11:28:40Z</time>
      </trkpt>
      <trkpt lat="42.72229" lon="1.87857">
        <ele>1122.2</ele>
        <time>2024-06-30T11:28:41Z</time>
      </trkpt>
      <trkpt lat="42.72232" lon="1.87862">
        <ele>1122.2</ele>
        <time>2024-06-30T11:28:42Z</time>
      </trkpt>
      <trkpt lat="42.72235" lon="1.87867">
        <ele>1122.4</ele>
        <time>2024-06-30T11:28:43Z</time>
      </trkpt>
      <trkpt lat="42.72239" lon="1.87873">
        <ele>1122.6</ele>
        <time>2024-06-30T11:28:44Z</time>
      </trkpt>
      <trkpt lat="42.72242" lon="1.87879">
        <ele>1122.6</ele>
        <time>2024-06-30T11:28:45Z</time>
      </trkpt>
      <trkpt lat="42.72245" lon="1.87885">
        <ele>1122.6</ele>
        <time>2024-06-30T11:28:46Z</time>
      </trkpt>
      <trkpt lat="42.72249" lon="1.87892">
        <ele>1122.6</ele>
        <time>2024-06-30T11:28:47Z</time>
      </trkpt>
      <trkpt lat="42.72253" lon="1.87899">
        <ele>1122.6</ele>
        <time>2024-06-30T11:28:48Z</time>
      </trkpt>
      <trkpt lat="42.72258" lon="1.87907">
        <ele>1122.6</ele>
        <time>2024-06-30T11:28:49Z</time>
      </trkpt>
      <trkpt lat="42.72263" lon="1.87915">
        <ele>1122.6</ele>
        <time>2024-06-30T11:28:50Z</time>
      </trkpt>
      <trkpt lat="42.72267" lon="1.87924">
        <ele>1122.4</ele>
        <time>2024-06-30T11:28:51Z</time>
      </trkpt>
      <trkpt lat="42.72271" lon="1.87934">
        <ele>1122.4</ele>
        <time>2024-06-30T11:28:52Z</time>
      </trkpt>
      <trkpt lat="42.72275" lon="1.87944">
        <ele>1122.4</ele>
        <time>2024-06-30T11:28:53Z</time>
      </trkpt>
      <trkpt lat="42.72278" lon="1.87955">
        <ele>1122.2</ele>
        <time>2024-06-30T11:28:54Z</time>
      </trkpt>
      <trkpt lat="42.72281" lon="1.87966">
        <ele>1122</ele>
        <time>2024-06-30T11:28:55Z</time>
      </trkpt>
      <trkpt lat="42.72285" lon="1.87977">
        <ele>1121.8</ele>
        <time>2024-06-30T11:28:56Z</time>
      </trkpt>
      <trkpt lat="42.72288" lon="1.87988">
        <ele>1121.4</ele>
        <time>2024-06-30T11:28:57Z</time>
      </trkpt>
      <trkpt lat="42.72296" lon="1.8801">
        <ele>1120.8</ele>
        <time>2024-06-30T11:28:59Z</time>
      </trkpt>
      <trkpt lat="42.72299" lon="1.88021">
        <ele>1120.2</ele>
        <time>2024-06-30T11:29:00Z</time>
      </trkpt>
      <trkpt lat="42.72307" lon="1.88044">
        <ele>1119.6</ele>
        <time>2024-06-30T11:29:02Z</time>
      </trkpt>
      <trkpt lat="42.72317" lon="1.88078">
        <ele>1118.6</ele>
        <time>2024-06-30T11:29:05Z</time>
      </trkpt>
      <trkpt lat="42.72324" lon="1.881">
        <ele>1117.6</ele>
        <time>2024-06-30T11:29:07Z</time>
      </trkpt>
      <trkpt lat="42.72328" lon="1.88111">
        <ele>1117.4</ele>
        <time>2024-06-30T11:29:08Z</time>
      </trkpt>
      <trkpt lat="42.72346" lon="1.88167">
        <ele>1116.4</ele>
        <time>2024-06-30T11:29:13Z</time>
      </trkpt>
      <trkpt lat="42.72357" lon="1.88201">
        <ele>1114.8</ele>
        <time>2024-06-30T11:29:16Z</time>
      </trkpt>
      <trkpt lat="42.7236" lon="1.88213">
        <ele>1114.4</ele>
        <time>2024-06-30T11:29:17Z</time>
      </trkpt>
      <trkpt lat="42.72371" lon="1.88249">
        <ele>1113.2</ele>
        <time>2024-06-30T11:29:20Z</time>
      </trkpt>
      <trkpt lat="42.72383" lon="1.88285">
        <ele>1112.2</ele>
        <time>2024-06-30T11:29:23Z</time>
      </trkpt>
      <trkpt lat="42.72386" lon="1.88298">
        <ele>1112</ele>
        <time>2024-06-30T11:29:24Z</time>
      </trkpt>
      <trkpt lat="42.72388" lon="1.88311">
        <ele>1111.6</ele>
        <time>2024-06-30T11:29:25Z</time>
      </trkpt>
      <trkpt lat="42.72394" lon="1.88338">
        <ele>1110.4</ele>
        <time>2024-06-30T11:29:27Z</time>
      </trkpt>
      <trkpt lat="42.724" lon="1.88366">
        <ele>1109.6</ele>
        <time>2024-06-30T11:29:29Z</time>
      </trkpt>
      <trkpt lat="42.72401" lon="1.88379">
        <ele>1109</ele>
        <time>2024-06-30T11:29:30Z</time>
      </trkpt>
      <trkpt lat="42.72402" lon="1.88391">
        <ele>1108.8</ele>
        <time>2024-06-30T11:29:31Z</time>
      </trkpt>
      <trkpt lat="42.72403" lon="1.88403">
        <ele>1108.4</ele>
        <time>2024-06-30T11:29:32Z</time>
      </trkpt>
      <trkpt lat="42.72405" lon="1.88415">
        <ele>1108.4</ele>
        <time>2024-06-30T11:29:33Z</time>
      </trkpt>
      <trkpt lat="42.72408" lon="1.88428">
        <ele>1107.6</ele>
        <time>2024-06-30T11:29:34Z</time>
      </trkpt>
      <trkpt lat="42.72416" lon="1.88454">
        <ele>1106.4</ele>
        <time>2024-06-30T11:29:36Z</time>
      </trkpt>
      <trkpt lat="42.72426" lon="1.88482">
        <ele>1105.2</ele>
        <time>2024-06-30T11:29:38Z</time>
      </trkpt>
      <trkpt lat="42.7243" lon="1.88496">
        <ele>1104.4</ele>
        <time>2024-06-30T11:29:39Z</time>
      </trkpt>
      <trkpt lat="42.72434" lon="1.88511">
        <ele>1104</ele>
        <time>2024-06-30T11:29:40Z</time>
      </trkpt>
      <trkpt lat="42.72442" lon="1.88539">
        <ele>1101.8</ele>
        <time>2024-06-30T11:29:42Z</time>
      </trkpt>
      <trkpt lat="42.72447" lon="1.88551">
        <ele>1101.2</ele>
        <time>2024-06-30T11:29:43Z</time>
      </trkpt>
      <trkpt lat="42.72451" lon="1.88563">
        <ele>1100.4</ele>
        <time>2024-06-30T11:29:44Z</time>
      </trkpt>
      <trkpt lat="42.72456" lon="1.88591">
        <ele>1098.8</ele>
        <time>2024-06-30T11:29:46Z</time>
      </trkpt>
      <trkpt lat="42.72457" lon="1.88605">
        <ele>1098.2</ele>
        <time>2024-06-30T11:29:47Z</time>
      </trkpt>
      <trkpt lat="42.72459" lon="1.88619">
        <ele>1097.4</ele>
        <time>2024-06-30T11:29:48Z</time>
      </trkpt>
      <trkpt lat="42.72465" lon="1.88647">
        <ele>1096.8</ele>
        <time>2024-06-30T11:29:50Z</time>
      </trkpt>
      <trkpt lat="42.72467" lon="1.8866">
        <ele>1096</ele>
        <time>2024-06-30T11:29:51Z</time>
      </trkpt>
      <trkpt lat="42.72468" lon="1.88673">
        <ele>1095.6</ele>
        <time>2024-06-30T11:29:52Z</time>
      </trkpt>
      <trkpt lat="42.72469" lon="1.88701">
        <ele>1094.6</ele>
        <time>2024-06-30T11:29:54Z</time>
      </trkpt>
      <trkpt lat="42.72472" lon="1.88728">
        <ele>1093.2</ele>
        <time>2024-06-30T11:29:56Z</time>
      </trkpt>
      <trkpt lat="42.72473" lon="1.88741">
        <ele>1093</ele>
        <time>2024-06-30T11:29:57Z</time>
      </trkpt>
      <trkpt lat="42.72474" lon="1.88752">
        <ele>1092.2</ele>
        <time>2024-06-30T11:29:58Z</time>
      </trkpt>
      <trkpt lat="42.72475" lon="1.88764">
        <ele>1091.8</ele>
        <time>2024-06-30T11:29:59Z</time>
      </trkpt>
      <trkpt lat="42.72477" lon="1.88777">
        <ele>1091</ele>
        <time>2024-06-30T11:30:00Z</time>
      </trkpt>
      <trkpt lat="42.72479" lon="1.88788">
        <ele>1090.8</ele>
        <time>2024-06-30T11:30:01Z</time>
      </trkpt>
      <trkpt lat="42.72481" lon="1.88799">
        <ele>1090.4</ele>
        <time>2024-06-30T11:30:02Z</time>
      </trkpt>
      <trkpt lat="42.72485" lon="1.88808">
        <ele>1089.4</ele>
        <time>2024-06-30T11:30:03Z</time>
      </trkpt>
      <trkpt lat="42.72488" lon="1.88817">
        <ele>1089.2</ele>
        <time>2024-06-30T11:30:04Z</time>
      </trkpt>
      <trkpt lat="42.72492" lon="1.88826">
        <ele>1088.8</ele>
        <time>2024-06-30T11:30:05Z</time>
      </trkpt>
      <trkpt lat="42.72496" lon="1.88835">
        <ele>1088.6</ele>
        <time>2024-06-30T11:30:06Z</time>
      </trkpt>
      <trkpt lat="42.72502" lon="1.88842">
        <ele>1088.4</ele>
        <time>2024-06-30T11:30:07Z</time>
      </trkpt>
      <trkpt lat="42.72513" lon="1.88859">
        <ele>1088.4</ele>
        <time>2024-06-30T11:30:09Z</time>
      </trkpt>
      <trkpt lat="42.72528" lon="1.88886">
        <ele>1088</ele>
        <time>2024-06-30T11:30:12Z</time>
      </trkpt>
      <trkpt lat="42.72533" lon="1.88895">
        <ele>1088</ele>
        <time>2024-06-30T11:30:13Z</time>
      </trkpt>
      <trkpt lat="42.72546" lon="1.88912">
        <ele>1087.6</ele>
        <time>2024-06-30T11:30:15Z</time>
      </trkpt>
      <trkpt lat="42.7255" lon="1.88922">
        <ele>1087.4</ele>
        <time>2024-06-30T11:30:16Z</time>
      </trkpt>
      <trkpt lat="42.72554" lon="1.88932">
        <ele>1087</ele>
        <time>2024-06-30T11:30:17Z</time>
      </trkpt>
      <trkpt lat="42.72553" lon="1.88943">
        <ele>1086.4</ele>
        <time>2024-06-30T11:30:18Z</time>
      </trkpt>
      <trkpt lat="42.7255" lon="1.88951">
        <ele>1085.8</ele>
        <time>2024-06-30T11:30:19Z</time>
      </trkpt>
      <trkpt lat="42.72545" lon="1.88957">
        <ele>1085.6</ele>
        <time>2024-06-30T11:30:20Z</time>
      </trkpt>
      <trkpt lat="42.72539" lon="1.88961">
        <ele>1085</ele>
        <time>2024-06-30T11:30:21Z</time>
      </trkpt>
      <trkpt lat="42.72532" lon="1.88965">
        <ele>1084.8</ele>
        <time>2024-06-30T11:30:22Z</time>
      </trkpt>
      <trkpt lat="42.72526" lon="1.88968">
        <ele>1084.6</ele>
        <time>2024-06-30T11:30:23Z</time>
      </trkpt>
      <trkpt lat="42.72521" lon="1.8897">
        <ele>1084.4</ele>
        <time>2024-06-30T11:30:24Z</time>
      </trkpt>
      <trkpt lat="42.72514" lon="1.88973">
        <ele>1084.2</ele>
        <time>2024-06-30T11:30:25Z</time>
      </trkpt>
      <trkpt lat="42.72508" lon="1.88977">
        <ele>1083.8</ele>
        <time>2024-06-30T11:30:26Z</time>
      </trkpt>
      <trkpt lat="42.7249" lon="1.88987">
        <ele>1083.4</ele>
        <time>2024-06-30T11:30:29Z</time>
      </trkpt>
      <trkpt lat="42.72483" lon="1.88988">
        <ele>1083.2</ele>
        <time>2024-06-30T11:30:30Z</time>
      </trkpt>
      <trkpt lat="42.72477" lon="1.88989">
        <ele>1083.2</ele>
        <time>2024-06-30T11:30:31Z</time>
      </trkpt>
      <trkpt lat="42.72471" lon="1.8899">
        <ele>1083.2</ele>
        <time>2024-06-30T11:30:32Z</time>
      </trkpt>
      <trkpt lat="42.72466" lon="1.88991">
        <ele>1083.2</ele>
        <time>2024-06-30T11:30:33Z</time>
      </trkpt>
      <trkpt lat="42.72461" lon="1.88993">
        <ele>1083.2</ele>
        <time>2024-06-30T11:30:34Z</time>
      </trkpt>
      <trkpt lat="42.72456" lon="1.88996">
        <ele>1083.2</ele>
        <time>2024-06-30T11:30:35Z</time>
      </trkpt>
      <trkpt lat="42.72452" lon="1.89001">
        <ele>1083.4</ele>
        <time>2024-06-30T11:30:36Z</time>
      </trkpt>
      <trkpt lat="42.72449" lon="1.89007">
        <ele>1083.6</ele>
        <time>2024-06-30T11:30:37Z</time>
      </trkpt>
      <trkpt lat="42.72447" lon="1.89014">
        <ele>1083.6</ele>
        <time>2024-06-30T11:30:38Z</time>
      </trkpt>
      <trkpt lat="42.72446" lon="1.89021">
        <ele>1083.8</ele>
        <time>2024-06-30T11:30:39Z</time>
      </trkpt>
      <trkpt lat="42.72446" lon="1.89028">
        <ele>1084.2</ele>
        <time>2024-06-30T11:30:40Z</time>
      </trkpt>
      <trkpt lat="42.72446" lon="1.89036">
        <ele>1084.4</ele>
        <time>2024-06-30T11:30:41Z</time>
      </trkpt>
      <trkpt lat="42.72447" lon="1.89044">
        <ele>1084.6</ele>
        <time>2024-06-30T11:30:42Z</time>
      </trkpt>
      <trkpt lat="42.72451" lon="1.8906">
        <ele>1085</ele>
        <time>2024-06-30T11:30:44Z</time>
      </trkpt>
      <trkpt lat="42.7246" lon="1.8909">
        <ele>1085.8</ele>
        <time>2024-06-30T11:30:48Z</time>
      </trkpt>
      <trkpt lat="42.72467" lon="1.89114">
        <ele>1086.2</ele>
        <time>2024-06-30T11:30:51Z</time>
      </trkpt>
      <trkpt lat="42.72475" lon="1.89151">
        <ele>1086.8</ele>
        <time>2024-06-30T11:30:56Z</time>
      </trkpt>
      <trkpt lat="42.72475" lon="1.89157">
        <ele>1087</ele>
        <time>2024-06-30T11:30:57Z</time>
      </trkpt>
      <trkpt lat="42.72476" lon="1.89164">
        <ele>1087.2</ele>
        <time>2024-06-30T11:30:58Z</time>
      </trkpt>
      <trkpt lat="42.72476" lon="1.89171">
        <ele>1087.2</ele>
        <time>2024-06-30T11:30:59Z</time>
      </trkpt>
      <trkpt lat="42.72477" lon="1.89177">
        <ele>1087.2</ele>
        <time>2024-06-30T11:31:00Z</time>
      </trkpt>
      <trkpt lat="42.72477" lon="1.89184">
        <ele>1087.4</ele>
        <time>2024-06-30T11:31:01Z</time>
      </trkpt>
      <trkpt lat="42.72478" lon="1.89192">
        <ele>1087.4</ele>
        <time>2024-06-30T11:31:02Z</time>
      </trkpt>
      <trkpt lat="42.72478" lon="1.89201">
        <ele>1087.8</ele>
        <time>2024-06-30T11:31:03Z</time>
      </trkpt>
      <trkpt lat="42.72477" lon="1.8921">
        <ele>1088.2</ele>
        <time>2024-06-30T11:31:04Z</time>
      </trkpt>
      <trkpt lat="42.72476" lon="1.89219">
        <ele>1088.6</ele>
        <time>2024-06-30T11:31:05Z</time>
      </trkpt>
      <trkpt lat="42.72475" lon="1.89228">
        <ele>1088.8</ele>
        <time>2024-06-30T11:31:06Z</time>
      </trkpt>
      <trkpt lat="42.72473" lon="1.89237">
        <ele>1089</ele>
        <time>2024-06-30T11:31:07Z</time>
      </trkpt>
      <trkpt lat="42.72471" lon="1.89246">
        <ele>1089</ele>
        <time>2024-06-30T11:31:08Z</time>
      </trkpt>
      <trkpt lat="42.72468" lon="1.89255">
        <ele>1089</ele>
        <time>2024-06-30T11:31:09Z</time>
      </trkpt>
      <trkpt lat="42.72465" lon="1.89263">
        <ele>1089.2</ele>
        <time>2024-06-30T11:31:10Z</time>
      </trkpt>
      <trkpt lat="42.72461" lon="1.89272">
        <ele>1089.4</ele>
        <time>2024-06-30T11:31:11Z</time>
      </trkpt>
      <trkpt lat="42.72458" lon="1.89278">
        <ele>1089.4</ele>
        <time>2024-06-30T11:31:12Z</time>
      </trkpt>
      <trkpt lat="42.72454" lon="1.89285">
        <ele>1089.6</ele>
        <time>2024-06-30T11:31:13Z</time>
      </trkpt>
      <trkpt lat="42.7245" lon="1.89291">
        <ele>1089.6</ele>
        <time>2024-06-30T11:31:14Z</time>
      </trkpt>
      <trkpt lat="42.72446" lon="1.89297">
        <ele>1089.6</ele>
        <time>2024-06-30T11:31:15Z</time>
      </trkpt>
      <trkpt lat="42.72441" lon="1.89301">
        <ele>1089.6</ele>
        <time>2024-06-30T11:31:16Z</time>
      </trkpt>
      <trkpt lat="42.72435" lon="1.89304">
        <ele>1089.6</ele>
        <time>2024-06-30T11:31:17Z</time>
      </trkpt>
      <trkpt lat="42.72429" lon="1.89304">
        <ele>1089.6</ele>
        <time>2024-06-30T11:31:18Z</time>
      </trkpt>
      <trkpt lat="42.72423" lon="1.893">
        <ele>1089.4</ele>
        <time>2024-06-30T11:31:19Z</time>
      </trkpt>
      <trkpt lat="42.72418" lon="1.89294">
        <ele>1089.4</ele>
        <time>2024-06-30T11:31:20Z</time>
      </trkpt>
      <trkpt lat="42.72412" lon="1.89285">
        <ele>1089.4</ele>
        <time>2024-06-30T11:31:21Z</time>
      </trkpt>
      <trkpt lat="42.72407" lon="1.89275">
        <ele>1089.2</ele>
        <time>2024-06-30T11:31:22Z</time>
      </trkpt>
      <trkpt lat="42.72401" lon="1.89263">
        <ele>1089.2</ele>
        <time>2024-06-30T11:31:23Z</time>
      </trkpt>
      <trkpt lat="42.72393" lon="1.89254">
        <ele>1089</ele>
        <time>2024-06-30T11:31:24Z</time>
      </trkpt>
      <trkpt lat="42.72385" lon="1.89245">
        <ele>1088.8</ele>
        <time>2024-06-30T11:31:25Z</time>
      </trkpt>
      <trkpt lat="42.72364" lon="1.89217">
        <ele>1086.6</ele>
        <time>2024-06-30T11:31:28Z</time>
      </trkpt>
      <trkpt lat="42.72361" lon="1.89205">
        <ele>1086</ele>
        <time>2024-06-30T11:31:29Z</time>
      </trkpt>
      <trkpt lat="42.72359" lon="1.89195">
        <ele>1085.2</ele>
        <time>2024-06-30T11:31:30Z</time>
      </trkpt>
      <trkpt lat="42.72359" lon="1.89184">
        <ele>1084.4</ele>
        <time>2024-06-30T11:31:31Z</time>
      </trkpt>
      <trkpt lat="42.72359" lon="1.89174">
        <ele>1084</ele>
        <time>2024-06-30T11:31:32Z</time>
      </trkpt>
      <trkpt lat="42.7236" lon="1.89164">
        <ele>1083.8</ele>
        <time>2024-06-30T11:31:33Z</time>
      </trkpt>
      <trkpt lat="42.7236" lon="1.89155">
        <ele>1083.6</ele>
        <time>2024-06-30T11:31:34Z</time>
      </trkpt>
      <trkpt lat="42.72361" lon="1.89146">
        <ele>1083.4</ele>
        <time>2024-06-30T11:31:35Z</time>
      </trkpt>
      <trkpt lat="42.7236" lon="1.89136">
        <ele>1083.4</ele>
        <time>2024-06-30T11:31:36Z</time>
      </trkpt>
      <trkpt lat="42.72359" lon="1.89117">
        <ele>1083</ele>
        <time>2024-06-30T11:31:38Z</time>
      </trkpt>
      <trkpt lat="42.72358" lon="1.89098">
        <ele>1083</ele>
        <time>2024-06-30T11:31:40Z</time>
      </trkpt>
      <trkpt lat="42.72357" lon="1.89088">
        <ele>1083</ele>
        <time>2024-06-30T11:31:41Z</time>
      </trkpt>
      <trkpt lat="42.72347" lon="1.89026">
        <ele>1083.2</ele>
        <time>2024-06-30T11:31:47Z</time>
      </trkpt>
      <trkpt lat="42.72334" lon="1.88952">
        <ele>1083.6</ele>
        <time>2024-06-30T11:31:54Z</time>
      </trkpt>
      <trkpt lat="42.72332" lon="1.88944">
        <ele>1083.6</ele>
        <time>2024-06-30T11:31:55Z</time>
      </trkpt>
      <trkpt lat="42.72331" lon="1.88936">
        <ele>1083.8</ele>
        <time>2024-06-30T11:31:56Z</time>
      </trkpt>
      <trkpt lat="42.7233" lon="1.88928">
        <ele>1083.8</ele>
        <time>2024-06-30T11:31:57Z</time>
      </trkpt>
      <trkpt lat="42.72329" lon="1.88918">
        <ele>1083.8</ele>
        <time>2024-06-30T11:31:58Z</time>
      </trkpt>
      <trkpt lat="42.72326" lon="1.88901">
        <ele>1084</ele>
        <time>2024-06-30T11:32:00Z</time>
      </trkpt>
      <trkpt lat="42.7232" lon="1.88884">
        <ele>1084</ele>
        <time>2024-06-30T11:32:02Z</time>
      </trkpt>
      <trkpt lat="42.72314" lon="1.88859">
        <ele>1084</ele>
        <time>2024-06-30T11:32:05Z</time>
      </trkpt>
      <trkpt lat="42.72309" lon="1.8884">
        <ele>1083.8</ele>
        <time>2024-06-30T11:32:07Z</time>
      </trkpt>
      <trkpt lat="42.72303" lon="1.88821">
        <ele>1083.4</ele>
        <time>2024-06-30T11:32:09Z</time>
      </trkpt>
      <trkpt lat="42.723" lon="1.88811">
        <ele>1083.2</ele>
        <time>2024-06-30T11:32:10Z</time>
      </trkpt>
      <trkpt lat="42.72291" lon="1.88781">
        <ele>1083</ele>
        <time>2024-06-30T11:32:13Z</time>
      </trkpt>
      <trkpt lat="42.72288" lon="1.88768">
        <ele>1083</ele>
        <time>2024-06-30T11:32:14Z</time>
      </trkpt>
      <trkpt lat="42.72284" lon="1.8875">
        <ele>1082.8</ele>
        <time>2024-06-30T11:32:16Z</time>
      </trkpt>
      <trkpt lat="42.72282" lon="1.8874">
        <ele>1082.6</ele>
        <time>2024-06-30T11:32:17Z</time>
      </trkpt>
      <trkpt lat="42.72277" lon="1.88721">
        <ele>1082.4</ele>
        <time>2024-06-30T11:32:19Z</time>
      </trkpt>
      <trkpt lat="42.72277" lon="1.88713">
        <ele>1082.2</ele>
        <time>2024-06-30T11:32:20Z</time>
      </trkpt>
      <trkpt lat="42.72278" lon="1.88704">
        <ele>1082</ele>
        <time>2024-06-30T11:32:21Z</time>
      </trkpt>
      <trkpt lat="42.72278" lon="1.88695">
        <ele>1081.8</ele>
        <time>2024-06-30T11:32:22Z</time>
      </trkpt>
      <trkpt lat="42.72282" lon="1.88686">
        <ele>1081.8</ele>
        <time>2024-06-30T11:32:23Z</time>
      </trkpt>
      <trkpt lat="42.72283" lon="1.88678">
        <ele>1081.8</ele>
        <time>2024-06-30T11:32:24Z</time>
      </trkpt>
      <trkpt lat="42.72284" lon="1.8867">
        <ele>1081.8</ele>
        <time>2024-06-30T11:32:25Z</time>
      </trkpt>
      <trkpt lat="42.72285" lon="1.88663">
        <ele>1081.8</ele>
        <time>2024-06-30T11:32:26Z</time>
      </trkpt>
      <trkpt lat="42.72286" lon="1.88656">
        <ele>1081.8</ele>
        <time>2024-06-30T11:32:27Z</time>
      </trkpt>
      <trkpt lat="42.72286" lon="1.8864">
        <ele>1082.2</ele>
        <time>2024-06-30T11:32:29Z</time>
      </trkpt>
      <trkpt lat="42.72283" lon="1.88625">
        <ele>1082.4</ele>
        <time>2024-06-30T11:32:31Z</time>
      </trkpt>
      <trkpt lat="42.72282" lon="1.8861">
        <ele>1082.8</ele>
        <time>2024-06-30T11:32:33Z</time>
      </trkpt>
      <trkpt lat="42.72282" lon="1.88603">
        <ele>1083.4</ele>
        <time>2024-06-30T11:32:34Z</time>
      </trkpt>
      <trkpt lat="42.72281" lon="1.88596">
        <ele>1084.2</ele>
        <time>2024-06-30T11:32:35Z</time>
      </trkpt>
      <trkpt lat="42.72279" lon="1.8859">
        <ele>1084.6</ele>
        <time>2024-06-30T11:32:36Z</time>
      </trkpt>
      <trkpt lat="42.72274" lon="1.88571">
        <ele>1085.6</ele>
        <time>2024-06-30T11:32:39Z</time>
      </trkpt>
      <trkpt lat="42.72271" lon="1.88566">
        <ele>1086.2</ele>
        <time>2024-06-30T11:32:40Z</time>
      </trkpt>
      <trkpt lat="42.72266" lon="1.88561">
        <ele>1086.2</ele>
        <time>2024-06-30T11:32:41Z</time>
      </trkpt>
      <trkpt lat="42.72262" lon="1.88557">
        <ele>1086.8</ele>
        <time>2024-06-30T11:32:42Z</time>
      </trkpt>
      <trkpt lat="42.72258" lon="1.88554">
        <ele>1087.2</ele>
        <time>2024-06-30T11:32:43Z</time>
      </trkpt>
      <trkpt lat="42.72254" lon="1.88552">
        <ele>1087.4</ele>
        <time>2024-06-30T11:32:44Z</time>
      </trkpt>
      <trkpt lat="42.72252" lon="1.8855">
        <ele>1087.8</ele>
        <time>2024-06-30T11:32:45Z</time>
      </trkpt>
      <trkpt lat="42.72249" lon="1.88546">
        <ele>1087.8</ele>
        <time>2024-06-30T11:32:46Z</time>
      </trkpt>
      <trkpt lat="42.72248" lon="1.88541">
        <ele>1088</ele>
        <time>2024-06-30T11:32:47Z</time>
      </trkpt>
      <trkpt lat="42.72246" lon="1.88535">
        <ele>1088</ele>
        <time>2024-06-30T11:32:48Z</time>
      </trkpt>
      <trkpt lat="42.72245" lon="1.88528">
        <ele>1088.2</ele>
        <time>2024-06-30T11:32:49Z</time>
      </trkpt>
      <trkpt lat="42.72245" lon="1.88522">
        <ele>1088.2</ele>
        <time>2024-06-30T11:32:50Z</time>
      </trkpt>
      <trkpt lat="42.72244" lon="1.88515">
        <ele>1088.2</ele>
        <time>2024-06-30T11:32:51Z</time>
      </trkpt>
      <trkpt lat="42.72244" lon="1.88508">
        <ele>1088.4</ele>
        <time>2024-06-30T11:32:52Z</time>
      </trkpt>
      <trkpt lat="42.72243" lon="1.88501">
        <ele>1088.4</ele>
        <time>2024-06-30T11:32:53Z</time>
      </trkpt>
      <trkpt lat="42.72241" lon="1.88494">
        <ele>1088.4</ele>
        <time>2024-06-30T11:32:54Z</time>
      </trkpt>
      <trkpt lat="42.72238" lon="1.88488">
        <ele>1088.4</ele>
        <time>2024-06-30T11:32:55Z</time>
      </trkpt>
      <trkpt lat="42.72234" lon="1.88482">
        <ele>1088.6</ele>
        <time>2024-06-30T11:32:56Z</time>
      </trkpt>
      <trkpt lat="42.72231" lon="1.88478">
        <ele>1088.6</ele>
        <time>2024-06-30T11:32:57Z</time>
      </trkpt>
      <trkpt lat="42.72227" lon="1.88473">
        <ele>1089</ele>
        <time>2024-06-30T11:32:58Z</time>
      </trkpt>
      <trkpt lat="42.72223" lon="1.88467">
        <ele>1089.2</ele>
        <time>2024-06-30T11:32:59Z</time>
      </trkpt>
      <trkpt lat="42.7222" lon="1.88463">
        <ele>1089.2</ele>
        <time>2024-06-30T11:33:00Z</time>
      </trkpt>
      <trkpt lat="42.72217" lon="1.88458">
        <ele>1089.4</ele>
        <time>2024-06-30T11:33:01Z</time>
      </trkpt>
      <trkpt lat="42.72212" lon="1.88452">
        <ele>1089.6</ele>
        <time>2024-06-30T11:33:02Z</time>
      </trkpt>
      <trkpt lat="42.72209" lon="1.88448">
        <ele>1090</ele>
        <time>2024-06-30T11:33:03Z</time>
      </trkpt>
      <trkpt lat="42.72206" lon="1.88443">
        <ele>1090</ele>
        <time>2024-06-30T11:33:04Z</time>
      </trkpt>
      <trkpt lat="42.72203" lon="1.8844">
        <ele>1090.4</ele>
        <time>2024-06-30T11:33:05Z</time>
      </trkpt>
      <trkpt lat="42.722" lon="1.88436">
        <ele>1090.6</ele>
        <time>2024-06-30T11:33:06Z</time>
      </trkpt>
      <trkpt lat="42.72196" lon="1.88433">
        <ele>1090.8</ele>
        <time>2024-06-30T11:33:07Z</time>
      </trkpt>
      <trkpt lat="42.72192" lon="1.8843">
        <ele>1091</ele>
        <time>2024-06-30T11:33:08Z</time>
      </trkpt>
      <trkpt lat="42.72188" lon="1.88427">
        <ele>1091.2</ele>
        <time>2024-06-30T11:33:09Z</time>
      </trkpt>
      <trkpt lat="42.72183" lon="1.88423">
        <ele>1091.6</ele>
        <time>2024-06-30T11:33:10Z</time>
      </trkpt>
      <trkpt lat="42.72177" lon="1.88418">
        <ele>1092</ele>
        <time>2024-06-30T11:33:11Z</time>
      </trkpt>
      <trkpt lat="42.72173" lon="1.88415">
        <ele>1092.6</ele>
        <time>2024-06-30T11:33:12Z</time>
      </trkpt>
      <trkpt lat="42.72168" lon="1.88411">
        <ele>1093</ele>
        <time>2024-06-30T11:33:13Z</time>
      </trkpt>
      <trkpt lat="42.72163" lon="1.88407">
        <ele>1093.2</ele>
        <time>2024-06-30T11:33:14Z</time>
      </trkpt>
      <trkpt lat="42.72158" lon="1.88403">
        <ele>1094</ele>
        <time>2024-06-30T11:33:15Z</time>
      </trkpt>
      <trkpt lat="42.72154" lon="1.88401">
        <ele>1094.2</ele>
        <time>2024-06-30T11:33:16Z</time>
      </trkpt>
      <trkpt lat="42.72148" lon="1.88397">
        <ele>1094.6</ele>
        <time>2024-06-30T11:33:17Z</time>
      </trkpt>
      <trkpt lat="42.72142" lon="1.88391">
        <ele>1095</ele>
        <time>2024-06-30T11:33:18Z</time>
      </trkpt>
      <trkpt lat="42.72137" lon="1.88388">
        <ele>1095.2</ele>
        <time>2024-06-30T11:33:19Z</time>
      </trkpt>
      <trkpt lat="42.72132" lon="1.88385">
        <ele>1095.2</ele>
        <time>2024-06-30T11:33:20Z</time>
      </trkpt>
      <trkpt lat="42.72127" lon="1.88383">
        <ele>1095.4</ele>
        <time>2024-06-30T11:33:21Z</time>
      </trkpt>
      <trkpt lat="42.72123" lon="1.8838">
        <ele>1095.6</ele>
        <time>2024-06-30T11:33:22Z</time>
      </trkpt>
      <trkpt lat="42.72117" lon="1.88376">
        <ele>1095.8</ele>
        <time>2024-06-30T11:33:23Z</time>
      </trkpt>
      <trkpt lat="42.72113" lon="1.88374">
        <ele>1096</ele>
        <time>2024-06-30T11:33:24Z</time>
      </trkpt>
      <trkpt lat="42.72108" lon="1.88371">
        <ele>1096</ele>
        <time>2024-06-30T11:33:25Z</time>
      </trkpt>
      <trkpt lat="42.72102" lon="1.8837">
        <ele>1096.2</ele>
        <time>2024-06-30T11:33:26Z</time>
      </trkpt>
      <trkpt lat="42.72098" lon="1.88367">
        <ele>1096.2</ele>
        <time>2024-06-30T11:33:27Z</time>
      </trkpt>
      <trkpt lat="42.72095" lon="1.88365">
        <ele>1096.4</ele>
        <time>2024-06-30T11:33:28Z</time>
      </trkpt>
      <trkpt lat="42.7209" lon="1.88361">
        <ele>1096.6</ele>
        <time>2024-06-30T11:33:29Z</time>
      </trkpt>
      <trkpt lat="42.72085" lon="1.88359">
        <ele>1096.6</ele>
        <time>2024-06-30T11:33:30Z</time>
      </trkpt>
      <trkpt lat="42.7208" lon="1.88356">
        <ele>1096.8</ele>
        <time>2024-06-30T11:33:31Z</time>
      </trkpt>
      <trkpt lat="42.72075" lon="1.88354">
        <ele>1097</ele>
        <time>2024-06-30T11:33:32Z</time>
      </trkpt>
      <trkpt lat="42.7207" lon="1.88351">
        <ele>1097</ele>
        <time>2024-06-30T11:33:33Z</time>
      </trkpt>
      <trkpt lat="42.72065" lon="1.88348">
        <ele>1097.2</ele>
        <time>2024-06-30T11:33:34Z</time>
      </trkpt>
      <trkpt lat="42.72059" lon="1.88345">
        <ele>1097.2</ele>
        <time>2024-06-30T11:33:35Z</time>
      </trkpt>
      <trkpt lat="42.72054" lon="1.88342">
        <ele>1097.6</ele>
        <time>2024-06-30T11:33:36Z</time>
      </trkpt>
      <trkpt lat="42.72049" lon="1.88339">
        <ele>1097.8</ele>
        <time>2024-06-30T11:33:37Z</time>
      </trkpt>
      <trkpt lat="42.72044" lon="1.88336">
        <ele>1097.8</ele>
        <time>2024-06-30T11:33:38Z</time>
      </trkpt>
      <trkpt lat="42.72039" lon="1.88334">
        <ele>1098</ele>
        <time>2024-06-30T11:33:39Z</time>
      </trkpt>
      <trkpt lat="42.72034" lon="1.88332">
        <ele>1098</ele>
        <time>2024-06-30T11:33:40Z</time>
      </trkpt>
      <trkpt lat="42.72027" lon="1.88329">
        <ele>1098</ele>
        <time>2024-06-30T11:33:41Z</time>
      </trkpt>
      <trkpt lat="42.72022" lon="1.88327">
        <ele>1098.2</ele>
        <time>2024-06-30T11:33:42Z</time>
      </trkpt>
      <trkpt lat="42.72017" lon="1.88324">
        <ele>1098.2</ele>
        <time>2024-06-30T11:33:43Z</time>
      </trkpt>
      <trkpt lat="42.72011" lon="1.88321">
        <ele>1098.2</ele>
        <time>2024-06-30T11:33:44Z</time>
      </trkpt>
      <trkpt lat="42.72005" lon="1.88318">
        <ele>1098.2</ele>
        <time>2024-06-30T11:33:45Z</time>
      </trkpt>
      <trkpt lat="42.72" lon="1.88315">
        <ele>1098.4</ele>
        <time>2024-06-30T11:33:46Z</time>
      </trkpt>
      <trkpt lat="42.71995" lon="1.88311">
        <ele>1098.6</ele>
        <time>2024-06-30T11:33:47Z</time>
      </trkpt>
      <trkpt lat="42.7199" lon="1.88306">
        <ele>1098.8</ele>
        <time>2024-06-30T11:33:48Z</time>
      </trkpt>
      <trkpt lat="42.71986" lon="1.883">
        <ele>1098.8</ele>
        <time>2024-06-30T11:33:49Z</time>
      </trkpt>
      <trkpt lat="42.71982" lon="1.88294">
        <ele>1099</ele>
        <time>2024-06-30T11:33:50Z</time>
      </trkpt>
      <trkpt lat="42.71978" lon="1.88288">
        <ele>1099.2</ele>
        <time>2024-06-30T11:33:51Z</time>
      </trkpt>
      <trkpt lat="42.71975" lon="1.88282">
        <ele>1099.2</ele>
        <time>2024-06-30T11:33:52Z</time>
      </trkpt>
      <trkpt lat="42.71969" lon="1.88273">
        <ele>1099.2</ele>
        <time>2024-06-30T11:33:53Z</time>
      </trkpt>
      <trkpt lat="42.71964" lon="1.88267">
        <ele>1099.4</ele>
        <time>2024-06-30T11:33:54Z</time>
      </trkpt>
      <trkpt lat="42.71959" lon="1.88262">
        <ele>1099.4</ele>
        <time>2024-06-30T11:33:55Z</time>
      </trkpt>
      <trkpt lat="42.71953" lon="1.88256">
        <ele>1099.6</ele>
        <time>2024-06-30T11:33:56Z</time>
      </trkpt>
      <trkpt lat="42.71947" lon="1.8825">
        <ele>1099.6</ele>
        <time>2024-06-30T11:33:57Z</time>
      </trkpt>
      <trkpt lat="42.71941" lon="1.88246">
        <ele>1099.4</ele>
        <time>2024-06-30T11:33:58Z</time>
      </trkpt>
      <trkpt lat="42.71934" lon="1.88242">
        <ele>1099.4</ele>
        <time>2024-06-30T11:33:59Z</time>
      </trkpt>
      <trkpt lat="42.71928" lon="1.88235">
        <ele>1099.2</ele>
        <time>2024-06-30T11:34:00Z</time>
      </trkpt>
      <trkpt lat="42.71921" lon="1.88229">
        <ele>1099.2</ele>
        <time>2024-06-30T11:34:01Z</time>
      </trkpt>
      <trkpt lat="42.71916" lon="1.88223">
        <ele>1099.2</ele>
        <time>2024-06-30T11:34:02Z</time>
      </trkpt>
      <trkpt lat="42.71894" lon="1.88204">
        <ele>1099</ele>
        <time>2024-06-30T11:34:05Z</time>
      </trkpt>
      <trkpt lat="42.71887" lon="1.88187">
        <ele>1098.8</ele>
        <time>2024-06-30T11:34:07Z</time>
      </trkpt>
      <trkpt lat="42.71885" lon="1.8818">
        <ele>1098.6</ele>
        <time>2024-06-30T11:34:08Z</time>
      </trkpt>
      <trkpt lat="42.71884" lon="1.8817">
        <ele>1098.6</ele>
        <time>2024-06-30T11:34:09Z</time>
      </trkpt>
      <trkpt lat="42.71883" lon="1.88164">
        <ele>1098.6</ele>
        <time>2024-06-30T11:34:10Z</time>
      </trkpt>
      <trkpt lat="42.71881" lon="1.88156">
        <ele>1098.4</ele>
        <time>2024-06-30T11:34:11Z</time>
      </trkpt>
      <trkpt lat="42.71879" lon="1.88152">
        <ele>1098.4</ele>
        <time>2024-06-30T11:34:12Z</time>
      </trkpt>
      <trkpt lat="42.71876" lon="1.88147">
        <ele>1098.4</ele>
        <time>2024-06-30T11:34:13Z</time>
      </trkpt>
      <trkpt lat="42.71871" lon="1.88143">
        <ele>1098.4</ele>
        <time>2024-06-30T11:34:14Z</time>
      </trkpt>
      <trkpt lat="42.71866" lon="1.88137">
        <ele>1098.4</ele>
        <time>2024-06-30T11:34:15Z</time>
      </trkpt>
      <trkpt lat="42.71863" lon="1.8813">
        <ele>1098.4</ele>
        <time>2024-06-30T11:34:16Z</time>
      </trkpt>
      <trkpt lat="42.71861" lon="1.88122">
        <ele>1098.2</ele>
        <time>2024-06-30T11:34:17Z</time>
      </trkpt>
      <trkpt lat="42.71855" lon="1.88103">
        <ele>1098.2</ele>
        <time>2024-06-30T11:34:19Z</time>
      </trkpt>
      <trkpt lat="42.7185" lon="1.88081">
        <ele>1098.2</ele>
        <time>2024-06-30T11:34:21Z</time>
      </trkpt>
      <trkpt lat="42.71849" lon="1.88073">
        <ele>1098</ele>
        <time>2024-06-30T11:34:22Z</time>
      </trkpt>
      <trkpt lat="42.71847" lon="1.88063">
        <ele>1097.8</ele>
        <time>2024-06-30T11:34:23Z</time>
      </trkpt>
      <trkpt lat="42.71845" lon="1.88053">
        <ele>1097.8</ele>
        <time>2024-06-30T11:34:24Z</time>
      </trkpt>
      <trkpt lat="42.7184" lon="1.88032">
        <ele>1097.2</ele>
        <time>2024-06-30T11:34:26Z</time>
      </trkpt>
      <trkpt lat="42.71835" lon="1.88012">
        <ele>1096.6</ele>
        <time>2024-06-30T11:34:28Z</time>
      </trkpt>
      <trkpt lat="42.71829" lon="1.87993">
        <ele>1096.2</ele>
        <time>2024-06-30T11:34:30Z</time>
      </trkpt>
      <trkpt lat="42.71824" lon="1.87985">
        <ele>1096.2</ele>
        <time>2024-06-30T11:34:31Z</time>
      </trkpt>
      <trkpt lat="42.71818" lon="1.87977">
        <ele>1096.2</ele>
        <time>2024-06-30T11:34:32Z</time>
      </trkpt>
      <trkpt lat="42.71808" lon="1.8796">
        <ele>1095.6</ele>
        <time>2024-06-30T11:34:34Z</time>
      </trkpt>
      <trkpt lat="42.71804" lon="1.87948">
        <ele>1095.2</ele>
        <time>2024-06-30T11:34:35Z</time>
      </trkpt>
      <trkpt lat="42.718" lon="1.87932">
        <ele>1094.6</ele>
        <time>2024-06-30T11:34:36Z</time>
      </trkpt>
      <trkpt lat="42.71798" lon="1.87918">
        <ele>1094</ele>
        <time>2024-06-30T11:34:37Z</time>
      </trkpt>
      <trkpt lat="42.71796" lon="1.87906">
        <ele>1093.4</ele>
        <time>2024-06-30T11:34:38Z</time>
      </trkpt>
      <trkpt lat="42.71798" lon="1.87896">
        <ele>1093.2</ele>
        <time>2024-06-30T11:34:39Z</time>
      </trkpt>
      <trkpt lat="42.71797" lon="1.87885">
        <ele>1092.8</ele>
        <time>2024-06-30T11:34:40Z</time>
      </trkpt>
      <trkpt lat="42.71797" lon="1.87872">
        <ele>1092.6</ele>
        <time>2024-06-30T11:34:41Z</time>
      </trkpt>
      <trkpt lat="42.71797" lon="1.87861">
        <ele>1092.4</ele>
        <time>2024-06-30T11:34:42Z</time>
      </trkpt>
      <trkpt lat="42.71798" lon="1.8784">
        <ele>1091.8</ele>
        <time>2024-06-30T11:34:44Z</time>
      </trkpt>
      <trkpt lat="42.71797" lon="1.87815">
        <ele>1091.4</ele>
        <time>2024-06-30T11:34:46Z</time>
      </trkpt>
      <trkpt lat="42.71796" lon="1.87804">
        <ele>1091.2</ele>
        <time>2024-06-30T11:34:47Z</time>
      </trkpt>
      <trkpt lat="42.71793" lon="1.87784">
        <ele>1090.8</ele>
        <time>2024-06-30T11:34:49Z</time>
      </trkpt>
      <trkpt lat="42.7179" lon="1.87773">
        <ele>1090.6</ele>
        <time>2024-06-30T11:34:50Z</time>
      </trkpt>
      <trkpt lat="42.71786" lon="1.87761">
        <ele>1090.6</ele>
        <time>2024-06-30T11:34:51Z</time>
      </trkpt>
      <trkpt lat="42.71769" lon="1.87722">
        <ele>1089.6</ele>
        <time>2024-06-30T11:34:55Z</time>
      </trkpt>
      <trkpt lat="42.71766" lon="1.87709">
        <ele>1089</ele>
        <time>2024-06-30T11:34:56Z</time>
      </trkpt>
      <trkpt lat="42.71766" lon="1.8769">
        <ele>1088.4</ele>
        <time>2024-06-30T11:34:58Z</time>
      </trkpt>
      <trkpt lat="42.71768" lon="1.87677">
        <ele>1088</ele>
        <time>2024-06-30T11:34:59Z</time>
      </trkpt>
      <trkpt lat="42.71773" lon="1.87669">
        <ele>1087.6</ele>
        <time>2024-06-30T11:35:00Z</time>
      </trkpt>
      <trkpt lat="42.71777" lon="1.87656">
        <ele>1087.2</ele>
        <time>2024-06-30T11:35:01Z</time>
      </trkpt>
      <trkpt lat="42.71778" lon="1.87645">
        <ele>1087</ele>
        <time>2024-06-30T11:35:02Z</time>
      </trkpt>
      <trkpt lat="42.71775" lon="1.87625">
        <ele>1086</ele>
        <time>2024-06-30T11:35:04Z</time>
      </trkpt>
      <trkpt lat="42.71771" lon="1.87614">
        <ele>1085.6</ele>
        <time>2024-06-30T11:35:05Z</time>
      </trkpt>
      <trkpt lat="42.71765" lon="1.87602">
        <ele>1085.2</ele>
        <time>2024-06-30T11:35:06Z</time>
      </trkpt>
      <trkpt lat="42.7176" lon="1.87595">
        <ele>1084.6</ele>
        <time>2024-06-30T11:35:07Z</time>
      </trkpt>
      <trkpt lat="42.71754" lon="1.87584">
        <ele>1084.2</ele>
        <time>2024-06-30T11:35:08Z</time>
      </trkpt>
      <trkpt lat="42.71748" lon="1.87573">
        <ele>1084</ele>
        <time>2024-06-30T11:35:09Z</time>
      </trkpt>
      <trkpt lat="42.71743" lon="1.87562">
        <ele>1083.6</ele>
        <time>2024-06-30T11:35:10Z</time>
      </trkpt>
      <trkpt lat="42.71737" lon="1.87538">
        <ele>1082.8</ele>
        <time>2024-06-30T11:35:12Z</time>
      </trkpt>
      <trkpt lat="42.71736" lon="1.87525">
        <ele>1082.2</ele>
        <time>2024-06-30T11:35:13Z</time>
      </trkpt>
      <trkpt lat="42.71736" lon="1.87512">
        <ele>1081.8</ele>
        <time>2024-06-30T11:35:14Z</time>
      </trkpt>
      <trkpt lat="42.71736" lon="1.87499">
        <ele>1081.4</ele>
        <time>2024-06-30T11:35:15Z</time>
      </trkpt>
      <trkpt lat="42.71738" lon="1.87486">
        <ele>1081</ele>
        <time>2024-06-30T11:35:16Z</time>
      </trkpt>
      <trkpt lat="42.71739" lon="1.87471">
        <ele>1080.6</ele>
        <time>2024-06-30T11:35:17Z</time>
      </trkpt>
      <trkpt lat="42.71738" lon="1.87449">
        <ele>1079.4</ele>
        <time>2024-06-30T11:35:19Z</time>
      </trkpt>
      <trkpt lat="42.71728" lon="1.87405">
        <ele>1077.2</ele>
        <time>2024-06-30T11:35:22Z</time>
      </trkpt>
      <trkpt lat="42.71727" lon="1.8739">
        <ele>1076.2</ele>
        <time>2024-06-30T11:35:23Z</time>
      </trkpt>
      <trkpt lat="42.71727" lon="1.87378">
        <ele>1074.4</ele>
        <time>2024-06-30T11:35:24Z</time>
      </trkpt>
      <trkpt lat="42.71729" lon="1.87348">
        <ele>1072</ele>
        <time>2024-06-30T11:35:26Z</time>
      </trkpt>
      <trkpt lat="42.71731" lon="1.87331">
        <ele>1070.8</ele>
        <time>2024-06-30T11:35:27Z</time>
      </trkpt>
      <trkpt lat="42.71732" lon="1.87318">
        <ele>1070.6</ele>
        <time>2024-06-30T11:35:28Z</time>
      </trkpt>
      <trkpt lat="42.71732" lon="1.87304">
        <ele>1069.6</ele>
        <time>2024-06-30T11:35:29Z</time>
      </trkpt>
      <trkpt lat="42.71732" lon="1.87293">
        <ele>1069</ele>
        <time>2024-06-30T11:35:30Z</time>
      </trkpt>
      <trkpt lat="42.71733" lon="1.8728">
        <ele>1067.8</ele>
        <time>2024-06-30T11:35:31Z</time>
      </trkpt>
      <trkpt lat="42.71732" lon="1.87264">
        <ele>1067.4</ele>
        <time>2024-06-30T11:35:32Z</time>
      </trkpt>
      <trkpt lat="42.71731" lon="1.87251">
        <ele>1066.4</ele>
        <time>2024-06-30T11:35:33Z</time>
      </trkpt>
      <trkpt lat="42.71729" lon="1.87237">
        <ele>1066</ele>
        <time>2024-06-30T11:35:34Z</time>
      </trkpt>
      <trkpt lat="42.71727" lon="1.87227">
        <ele>1065.2</ele>
        <time>2024-06-30T11:35:35Z</time>
      </trkpt>
      <trkpt lat="42.71724" lon="1.87215">
        <ele>1064.4</ele>
        <time>2024-06-30T11:35:36Z</time>
      </trkpt>
      <trkpt lat="42.71723" lon="1.87206">
        <ele>1064.2</ele>
        <time>2024-06-30T11:35:37Z</time>
      </trkpt>
      <trkpt lat="42.71722" lon="1.87197">
        <ele>1063.4</ele>
        <time>2024-06-30T11:35:38Z</time>
      </trkpt>
      <trkpt lat="42.71721" lon="1.87189">
        <ele>1063.2</ele>
        <time>2024-06-30T11:35:39Z</time>
      </trkpt>
      <trkpt lat="42.7172" lon="1.87183">
        <ele>1062.8</ele>
        <time>2024-06-30T11:35:40Z</time>
      </trkpt>
      <trkpt lat="42.71719" lon="1.87178">
        <ele>1062.6</ele>
        <time>2024-06-30T11:35:41Z</time>
      </trkpt>
      <trkpt lat="42.71718" lon="1.87176">
        <ele>1061.2</ele>
        <time>2024-06-30T11:35:42Z</time>
      </trkpt>
      <trkpt lat="42.71717" lon="1.87173">
        <ele>1059.4</ele>
        <time>2024-06-30T11:35:43Z</time>
      </trkpt>
      <trkpt lat="42.71715" lon="1.87168">
        <ele>1058.2</ele>
        <time>2024-06-30T11:35:44Z</time>
      </trkpt>
      <trkpt lat="42.71713" lon="1.87164">
        <ele>1057</ele>
        <time>2024-06-30T11:35:45Z</time>
      </trkpt>
      <trkpt lat="42.71709" lon="1.87148">
        <ele>1055.8</ele>
        <time>2024-06-30T11:35:48Z</time>
      </trkpt>
      <trkpt lat="42.7171" lon="1.8714">
        <ele>1055.4</ele>
        <time>2024-06-30T11:35:49Z</time>
      </trkpt>
      <trkpt lat="42.71711" lon="1.87133">
        <ele>1054.4</ele>
        <time>2024-06-30T11:35:50Z</time>
      </trkpt>
      <trkpt lat="42.71713" lon="1.87125">
        <ele>1054</ele>
        <time>2024-06-30T11:35:51Z</time>
      </trkpt>
      <trkpt lat="42.71717" lon="1.87116">
        <ele>1053.6</ele>
        <time>2024-06-30T11:35:52Z</time>
      </trkpt>
      <trkpt lat="42.71719" lon="1.87109">
        <ele>1053.2</ele>
        <time>2024-06-30T11:35:53Z</time>
      </trkpt>
      <trkpt lat="42.71722" lon="1.87091">
        <ele>1052.6</ele>
        <time>2024-06-30T11:35:55Z</time>
      </trkpt>
      <trkpt lat="42.71724" lon="1.87081">
        <ele>1051.8</ele>
        <time>2024-06-30T11:35:56Z</time>
      </trkpt>
      <trkpt lat="42.71725" lon="1.87073">
        <ele>1051.2</ele>
        <time>2024-06-30T11:35:57Z</time>
      </trkpt>
      <trkpt lat="42.71725" lon="1.87067">
        <ele>1050.6</ele>
        <time>2024-06-30T11:35:58Z</time>
      </trkpt>
      <trkpt lat="42.71724" lon="1.87061">
        <ele>1049.8</ele>
        <time>2024-06-30T11:35:59Z</time>
      </trkpt>
      <trkpt lat="42.71724" lon="1.87056">
        <ele>1049.6</ele>
        <time>2024-06-30T11:36:00Z</time>
      </trkpt>
      <trkpt lat="42.71721" lon="1.8705">
        <ele>1048.8</ele>
        <time>2024-06-30T11:36:01Z</time>
      </trkpt>
      <trkpt lat="42.71717" lon="1.87037">
        <ele>1048.4</ele>
        <time>2024-06-30T11:36:02Z</time>
      </trkpt>
      <trkpt lat="42.71712" lon="1.87023">
        <ele>1047.4</ele>
        <time>2024-06-30T11:36:03Z</time>
      </trkpt>
      <trkpt lat="42.71706" lon="1.87011">
        <ele>1047</ele>
        <time>2024-06-30T11:36:04Z</time>
      </trkpt>
      <trkpt lat="42.71703" lon="1.87">
        <ele>1044.2</ele>
        <time>2024-06-30T11:36:05Z</time>
      </trkpt>
      <trkpt lat="42.71703" lon="1.86992">
        <ele>1042.8</ele>
        <time>2024-06-30T11:36:06Z</time>
      </trkpt>
      <trkpt lat="42.71703" lon="1.86985">
        <ele>1042.4</ele>
        <time>2024-06-30T11:36:07Z</time>
      </trkpt>
      <trkpt lat="42.71705" lon="1.86979">
        <ele>1041.2</ele>
        <time>2024-06-30T11:36:08Z</time>
      </trkpt>
      <trkpt lat="42.71708" lon="1.86972">
        <ele>1040.6</ele>
        <time>2024-06-30T11:36:09Z</time>
      </trkpt>
      <trkpt lat="42.71711" lon="1.86968">
        <ele>1039.4</ele>
        <time>2024-06-30T11:36:10Z</time>
      </trkpt>
      <trkpt lat="42.71715" lon="1.86965">
        <ele>1039</ele>
        <time>2024-06-30T11:36:11Z</time>
      </trkpt>
      <trkpt lat="42.7172" lon="1.86961">
        <ele>1037.8</ele>
        <time>2024-06-30T11:36:12Z</time>
      </trkpt>
      <trkpt lat="42.71723" lon="1.86959">
        <ele>1036.6</ele>
        <time>2024-06-30T11:36:13Z</time>
      </trkpt>
      <trkpt lat="42.71726" lon="1.86956">
        <ele>1036</ele>
        <time>2024-06-30T11:36:14Z</time>
      </trkpt>
      <trkpt lat="42.71727" lon="1.86946">
        <ele>1034.8</ele>
        <time>2024-06-30T11:36:15Z</time>
      </trkpt>
      <trkpt lat="42.71729" lon="1.86937">
        <ele>1033.6</ele>
        <time>2024-06-30T11:36:16Z</time>
      </trkpt>
      <trkpt lat="42.71729" lon="1.86922">
        <ele>1032.2</ele>
        <time>2024-06-30T11:36:17Z</time>
      </trkpt>
      <trkpt lat="42.7173" lon="1.86906">
        <ele>1031.6</ele>
        <time>2024-06-30T11:36:18Z</time>
      </trkpt>
      <trkpt lat="42.71733" lon="1.86898">
        <ele>1030.2</ele>
        <time>2024-06-30T11:36:19Z</time>
      </trkpt>
      <trkpt lat="42.71736" lon="1.86888">
        <ele>1028.6</ele>
        <time>2024-06-30T11:36:20Z</time>
      </trkpt>
      <trkpt lat="42.71737" lon="1.86878">
        <ele>1028.2</ele>
        <time>2024-06-30T11:36:21Z</time>
      </trkpt>
      <trkpt lat="42.71736" lon="1.86873">
        <ele>1026.2</ele>
        <time>2024-06-30T11:36:22Z</time>
      </trkpt>
      <trkpt lat="42.71734" lon="1.86869">
        <ele>1025.2</ele>
        <time>2024-06-30T11:36:23Z</time>
      </trkpt>
      <trkpt lat="42.7173" lon="1.86865">
        <ele>1024.2</ele>
        <time>2024-06-30T11:36:24Z</time>
      </trkpt>
      <trkpt lat="42.71727" lon="1.86863">
        <ele>1024</ele>
        <time>2024-06-30T11:36:25Z</time>
      </trkpt>
      <trkpt lat="42.71724" lon="1.86859">
        <ele>1023</ele>
        <time>2024-06-30T11:36:26Z</time>
      </trkpt>
      <trkpt lat="42.71723" lon="1.86856">
        <ele>1022.6</ele>
        <time>2024-06-30T11:36:27Z</time>
      </trkpt>
      <trkpt lat="42.71721" lon="1.86853">
        <ele>1022.4</ele>
        <time>2024-06-30T11:36:28Z</time>
      </trkpt>
      <trkpt lat="42.71719" lon="1.86852">
        <ele>1022.2</ele>
        <time>2024-06-30T11:36:29Z</time>
      </trkpt>
      <trkpt lat="42.71718" lon="1.86851">
        <ele>1022.2</ele>
        <time>2024-06-30T11:36:30Z</time>
      </trkpt>
      <trkpt lat="42.71716" lon="1.8685">
        <ele>1022.2</ele>
        <time>2024-06-30T11:36:31Z</time>
      </trkpt>
      <trkpt lat="42.71713" lon="1.86848">
        <ele>1022.2</ele>
        <time>2024-06-30T11:36:32Z</time>
      </trkpt>
      <trkpt lat="42.71708" lon="1.86845">
        <ele>1022.2</ele>
        <time>2024-06-30T11:36:33Z</time>
      </trkpt>
      <trkpt lat="42.71686" lon="1.86828">
        <ele>1023.8</ele>
        <time>2024-06-30T11:36:39Z</time>
      </trkpt>
      <trkpt lat="42.71682" lon="1.86826">
        <ele>1024.2</ele>
        <time>2024-06-30T11:36:40Z</time>
      </trkpt>
      <trkpt lat="42.71674" lon="1.86819">
        <ele>1025.4</ele>
        <time>2024-06-30T11:36:43Z</time>
      </trkpt>
      <trkpt lat="42.71671" lon="1.86815">
        <ele>1025.6</ele>
        <time>2024-06-30T11:36:44Z</time>
      </trkpt>
      <trkpt lat="42.71665" lon="1.86809">
        <ele>1025.8</ele>
        <time>2024-06-30T11:36:45Z</time>
      </trkpt>
      <trkpt lat="42.71654" lon="1.86796">
        <ele>1026.4</ele>
        <time>2024-06-30T11:36:48Z</time>
      </trkpt>
      <trkpt lat="42.71651" lon="1.86792">
        <ele>1026.6</ele>
        <time>2024-06-30T11:36:49Z</time>
      </trkpt>
      <trkpt lat="42.71647" lon="1.86789">
        <ele>1027</ele>
        <time>2024-06-30T11:36:50Z</time>
      </trkpt>
      <trkpt lat="42.71637" lon="1.86784">
        <ele>1027.4</ele>
        <time>2024-06-30T11:36:52Z</time>
      </trkpt>
      <trkpt lat="42.71632" lon="1.86784">
        <ele>1027.6</ele>
        <time>2024-06-30T11:36:53Z</time>
      </trkpt>
      <trkpt lat="42.71628" lon="1.86784">
        <ele>1027.8</ele>
        <time>2024-06-30T11:36:54Z</time>
      </trkpt>
      <trkpt lat="42.71608" lon="1.86785">
        <ele>1028.8</ele>
        <time>2024-06-30T11:36:58Z</time>
      </trkpt>
      <trkpt lat="42.71603" lon="1.86787">
        <ele>1029.2</ele>
        <time>2024-06-30T11:36:59Z</time>
      </trkpt>
      <trkpt lat="42.71597" lon="1.86787">
        <ele>1029.2</ele>
        <time>2024-06-30T11:37:00Z</time>
      </trkpt>
      <trkpt lat="42.71593" lon="1.86788">
        <ele>1029.6</ele>
        <time>2024-06-30T11:37:01Z</time>
      </trkpt>
      <trkpt lat="42.71589" lon="1.8679">
        <ele>1029.6</ele>
        <time>2024-06-30T11:37:02Z</time>
      </trkpt>
      <trkpt lat="42.71583" lon="1.86792">
        <ele>1030</ele>
        <time>2024-06-30T11:37:03Z</time>
      </trkpt>
      <trkpt lat="42.71579" lon="1.86794">
        <ele>1030.2</ele>
        <time>2024-06-30T11:37:04Z</time>
      </trkpt>
      <trkpt lat="42.71574" lon="1.86795">
        <ele>1030.6</ele>
        <time>2024-06-30T11:37:05Z</time>
      </trkpt>
      <trkpt lat="42.7157" lon="1.86797">
        <ele>1030.8</ele>
        <time>2024-06-30T11:37:06Z</time>
      </trkpt>
      <trkpt lat="42.71566" lon="1.86798">
        <ele>1031</ele>
        <time>2024-06-30T11:37:07Z</time>
      </trkpt>
      <trkpt lat="42.71561" lon="1.86799">
        <ele>1031</ele>
        <time>2024-06-30T11:37:08Z</time>
      </trkpt>
      <trkpt lat="42.71557" lon="1.86801">
        <ele>1031.2</ele>
        <time>2024-06-30T11:37:09Z</time>
      </trkpt>
      <trkpt lat="42.71552" lon="1.86802">
        <ele>1031.4</ele>
        <time>2024-06-30T11:37:10Z</time>
      </trkpt>
      <trkpt lat="42.71546" lon="1.86802">
        <ele>1031.4</ele>
        <time>2024-06-30T11:37:11Z</time>
      </trkpt>
      <trkpt lat="42.71541" lon="1.86802">
        <ele>1031.4</ele>
        <time>2024-06-30T11:37:12Z</time>
      </trkpt>
      <trkpt lat="42.71536" lon="1.86802">
        <ele>1031.6</ele>
        <time>2024-06-30T11:37:13Z</time>
      </trkpt>
      <trkpt lat="42.71531" lon="1.86803">
        <ele>1031.6</ele>
        <time>2024-06-30T11:37:14Z</time>
      </trkpt>
      <trkpt lat="42.71525" lon="1.86804">
        <ele>1031.8</ele>
        <time>2024-06-30T11:37:15Z</time>
      </trkpt>
      <trkpt lat="42.71521" lon="1.86804">
        <ele>1031.8</ele>
        <time>2024-06-30T11:37:16Z</time>
      </trkpt>
      <trkpt lat="42.71516" lon="1.86803">
        <ele>1031.8</ele>
        <time>2024-06-30T11:37:17Z</time>
      </trkpt>
      <trkpt lat="42.71507" lon="1.86803">
        <ele>1031.8</ele>
        <time>2024-06-30T11:37:18Z</time>
      </trkpt>
      <trkpt lat="42.715" lon="1.86801">
        <ele>1031.8</ele>
        <time>2024-06-30T11:37:19Z</time>
      </trkpt>
      <trkpt lat="42.71493" lon="1.868">
        <ele>1031.6</ele>
        <time>2024-06-30T11:37:20Z</time>
      </trkpt>
      <trkpt lat="42.71483" lon="1.86799">
        <ele>1031.4</ele>
        <time>2024-06-30T11:37:21Z</time>
      </trkpt>
      <trkpt lat="42.71476" lon="1.86799">
        <ele>1031</ele>
        <time>2024-06-30T11:37:22Z</time>
      </trkpt>
      <trkpt lat="42.71467" lon="1.86797">
        <ele>1030.8</ele>
        <time>2024-06-30T11:37:23Z</time>
      </trkpt>
      <trkpt lat="42.71458" lon="1.86797">
        <ele>1030.2</ele>
        <time>2024-06-30T11:37:24Z</time>
      </trkpt>
      <trkpt lat="42.71449" lon="1.86796">
        <ele>1029.6</ele>
        <time>2024-06-30T11:37:25Z</time>
      </trkpt>
      <trkpt lat="42.7144" lon="1.86796">
        <ele>1028.6</ele>
        <time>2024-06-30T11:37:26Z</time>
      </trkpt>
      <trkpt lat="42.71432" lon="1.86796">
        <ele>1028</ele>
        <time>2024-06-30T11:37:27Z</time>
      </trkpt>
      <trkpt lat="42.71426" lon="1.86795">
        <ele>1027</ele>
        <time>2024-06-30T11:37:28Z</time>
      </trkpt>
      <trkpt lat="42.71419" lon="1.86792">
        <ele>1026.2</ele>
        <time>2024-06-30T11:37:29Z</time>
      </trkpt>
      <trkpt lat="42.71411" lon="1.86785">
        <ele>1025.6</ele>
        <time>2024-06-30T11:37:30Z</time>
      </trkpt>
      <trkpt lat="42.71405" lon="1.86778">
        <ele>1024.2</ele>
        <time>2024-06-30T11:37:31Z</time>
      </trkpt>
      <trkpt lat="42.71401" lon="1.86771">
        <ele>1023.6</ele>
        <time>2024-06-30T11:37:32Z</time>
      </trkpt>
      <trkpt lat="42.71398" lon="1.86766">
        <ele>1022.8</ele>
        <time>2024-06-30T11:37:33Z</time>
      </trkpt>
      <trkpt lat="42.71397" lon="1.86761">
        <ele>1022.4</ele>
        <time>2024-06-30T11:37:34Z</time>
      </trkpt>
      <trkpt lat="42.71397" lon="1.8676">
        <ele>1021.8</ele>
        <time>2024-06-30T11:37:35Z</time>
      </trkpt>
      <trkpt lat="42.714" lon="1.86761">
        <ele>1020.4</ele>
        <time>2024-06-30T11:37:36Z</time>
      </trkpt>
      <trkpt lat="42.71403" lon="1.86764">
        <ele>1020</ele>
        <time>2024-06-30T11:37:37Z</time>
      </trkpt>
      <trkpt lat="42.71406" lon="1.86767">
        <ele>1018.8</ele>
        <time>2024-06-30T11:37:38Z</time>
      </trkpt>
      <trkpt lat="42.71416" lon="1.86768">
        <ele>1017.6</ele>
        <time>2024-06-30T11:37:40Z</time>
      </trkpt>
      <trkpt lat="42.71423" lon="1.86767">
        <ele>1017.2</ele>
        <time>2024-06-30T11:37:41Z</time>
      </trkpt>
      <trkpt lat="42.7143" lon="1.86764">
        <ele>1016.2</ele>
        <time>2024-06-30T11:37:42Z</time>
      </trkpt>
      <trkpt lat="42.71437" lon="1.86758">
        <ele>1015.6</ele>
        <time>2024-06-30T11:37:43Z</time>
      </trkpt>
      <trkpt lat="42.71443" lon="1.86753">
        <ele>1015.6</ele>
        <time>2024-06-30T11:37:44Z</time>
      </trkpt>
      <trkpt lat="42.71453" lon="1.86746">
        <ele>1015</ele>
        <time>2024-06-30T11:37:45Z</time>
      </trkpt>
      <trkpt lat="42.71472" lon="1.86731">
        <ele>1014</ele>
        <time>2024-06-30T11:37:47Z</time>
      </trkpt>
      <trkpt lat="42.71492" lon="1.86715">
        <ele>1012</ele>
        <time>2024-06-30T11:37:49Z</time>
      </trkpt>
      <trkpt lat="42.71501" lon="1.86707">
        <ele>1010.8</ele>
        <time>2024-06-30T11:37:50Z</time>
      </trkpt>
      <trkpt lat="42.71509" lon="1.86699">
        <ele>1010</ele>
        <time>2024-06-30T11:37:51Z</time>
      </trkpt>
      <trkpt lat="42.71516" lon="1.86692">
        <ele>1007.6</ele>
        <time>2024-06-30T11:37:52Z</time>
      </trkpt>
      <trkpt lat="42.7152" lon="1.86688">
        <ele>1006.8</ele>
        <time>2024-06-30T11:37:53Z</time>
      </trkpt>
      <trkpt lat="42.71523" lon="1.86683">
        <ele>1004</ele>
        <time>2024-06-30T11:37:54Z</time>
      </trkpt>
      <trkpt lat="42.71524" lon="1.86676">
        <ele>1003</ele>
        <time>2024-06-30T11:37:55Z</time>
      </trkpt>
      <trkpt lat="42.71521" lon="1.86667">
        <ele>1001.2</ele>
        <time>2024-06-30T11:37:56Z</time>
      </trkpt>
      <trkpt lat="42.71517" lon="1.86663">
        <ele>1000.2</ele>
        <time>2024-06-30T11:37:57Z</time>
      </trkpt>
      <trkpt lat="42.7151" lon="1.8666">
        <ele>998.6</ele>
        <time>2024-06-30T11:37:58Z</time>
      </trkpt>
      <trkpt lat="42.71504" lon="1.86656">
        <ele>997.2</ele>
        <time>2024-06-30T11:37:59Z</time>
      </trkpt>
      <trkpt lat="42.71495" lon="1.86653">
        <ele>997</ele>
        <time>2024-06-30T11:38:00Z</time>
      </trkpt>
      <trkpt lat="42.71485" lon="1.86647">
        <ele>996</ele>
        <time>2024-06-30T11:38:01Z</time>
      </trkpt>
      <trkpt lat="42.71477" lon="1.8664">
        <ele>995.2</ele>
        <time>2024-06-30T11:38:02Z</time>
      </trkpt>
      <trkpt lat="42.71467" lon="1.86631">
        <ele>993.6</ele>
        <time>2024-06-30T11:38:03Z</time>
      </trkpt>
      <trkpt lat="42.71452" lon="1.86614">
        <ele>991.6</ele>
        <time>2024-06-30T11:38:05Z</time>
      </trkpt>
      <trkpt lat="42.71445" lon="1.86604">
        <ele>991</ele>
        <time>2024-06-30T11:38:06Z</time>
      </trkpt>
      <trkpt lat="42.7144" lon="1.86593">
        <ele>990.8</ele>
        <time>2024-06-30T11:38:07Z</time>
      </trkpt>
      <trkpt lat="42.71435" lon="1.86583">
        <ele>990.2</ele>
        <time>2024-06-30T11:38:08Z</time>
      </trkpt>
      <trkpt lat="42.71432" lon="1.86573">
        <ele>989.8</ele>
        <time>2024-06-30T11:38:09Z</time>
      </trkpt>
      <trkpt lat="42.7143" lon="1.86563">
        <ele>989</ele>
        <time>2024-06-30T11:38:10Z</time>
      </trkpt>
      <trkpt lat="42.71431" lon="1.86553">
        <ele>988.8</ele>
        <time>2024-06-30T11:38:11Z</time>
      </trkpt>
      <trkpt lat="42.7143" lon="1.86544">
        <ele>988.2</ele>
        <time>2024-06-30T11:38:12Z</time>
      </trkpt>
      <trkpt lat="42.71429" lon="1.86534">
        <ele>987.8</ele>
        <time>2024-06-30T11:38:13Z</time>
      </trkpt>
      <trkpt lat="42.71428" lon="1.86526">
        <ele>987.4</ele>
        <time>2024-06-30T11:38:14Z</time>
      </trkpt>
      <trkpt lat="42.71427" lon="1.86519">
        <ele>986.8</ele>
        <time>2024-06-30T11:38:15Z</time>
      </trkpt>
      <trkpt lat="42.71426" lon="1.86509">
        <ele>986.6</ele>
        <time>2024-06-30T11:38:16Z</time>
      </trkpt>
      <trkpt lat="42.71421" lon="1.86485">
        <ele>985.4</ele>
        <time>2024-06-30T11:38:18Z</time>
      </trkpt>
      <trkpt lat="42.7142" lon="1.86472">
        <ele>985</ele>
        <time>2024-06-30T11:38:19Z</time>
      </trkpt>
      <trkpt lat="42.7142" lon="1.86461">
        <ele>984.8</ele>
        <time>2024-06-30T11:38:20Z</time>
      </trkpt>
      <trkpt lat="42.71419" lon="1.86453">
        <ele>983.4</ele>
        <time>2024-06-30T11:38:21Z</time>
      </trkpt>
      <trkpt lat="42.71421" lon="1.86441">
        <ele>982.6</ele>
        <time>2024-06-30T11:38:22Z</time>
      </trkpt>
      <trkpt lat="42.71426" lon="1.86429">
        <ele>982.2</ele>
        <time>2024-06-30T11:38:23Z</time>
      </trkpt>
      <trkpt lat="42.7143" lon="1.8642">
        <ele>981.4</ele>
        <time>2024-06-30T11:38:24Z</time>
      </trkpt>
      <trkpt lat="42.71434" lon="1.86413">
        <ele>981</ele>
        <time>2024-06-30T11:38:25Z</time>
      </trkpt>
      <trkpt lat="42.71439" lon="1.86404">
        <ele>980.4</ele>
        <time>2024-06-30T11:38:26Z</time>
      </trkpt>
      <trkpt lat="42.71443" lon="1.86398">
        <ele>980</ele>
        <time>2024-06-30T11:38:27Z</time>
      </trkpt>
      <trkpt lat="42.71447" lon="1.86391">
        <ele>979.8</ele>
        <time>2024-06-30T11:38:28Z</time>
      </trkpt>
      <trkpt lat="42.71449" lon="1.86385">
        <ele>979.4</ele>
        <time>2024-06-30T11:38:29Z</time>
      </trkpt>
      <trkpt lat="42.71453" lon="1.86378">
        <ele>979.2</ele>
        <time>2024-06-30T11:38:30Z</time>
      </trkpt>
      <trkpt lat="42.71456" lon="1.86372">
        <ele>979.4</ele>
        <time>2024-06-30T11:38:31Z</time>
      </trkpt>
      <trkpt lat="42.7146" lon="1.86367">
        <ele>979.4</ele>
        <time>2024-06-30T11:38:32Z</time>
      </trkpt>
      <trkpt lat="42.71464" lon="1.86363">
        <ele>979.4</ele>
        <time>2024-06-30T11:38:33Z</time>
      </trkpt>
      <trkpt lat="42.71468" lon="1.86358">
        <ele>979.4</ele>
        <time>2024-06-30T11:38:34Z</time>
      </trkpt>
      <trkpt lat="42.71472" lon="1.86354">
        <ele>979.4</ele>
        <time>2024-06-30T11:38:35Z</time>
      </trkpt>
      <trkpt lat="42.71482" lon="1.86348">
        <ele>979.4</ele>
        <time>2024-06-30T11:38:37Z</time>
      </trkpt>
      <trkpt lat="42.71488" lon="1.86346">
        <ele>979.4</ele>
        <time>2024-06-30T11:38:38Z</time>
      </trkpt>
      <trkpt lat="42.71495" lon="1.86343">
        <ele>979.2</ele>
        <time>2024-06-30T11:38:39Z</time>
      </trkpt>
      <trkpt lat="42.71519" lon="1.86331">
        <ele>979.2</ele>
        <time>2024-06-30T11:38:42Z</time>
      </trkpt>
      <trkpt lat="42.71533" lon="1.86324">
        <ele>978.8</ele>
        <time>2024-06-30T11:38:44Z</time>
      </trkpt>
      <trkpt lat="42.71537" lon="1.86319">
        <ele>978.4</ele>
        <time>2024-06-30T11:38:45Z</time>
      </trkpt>
      <trkpt lat="42.71542" lon="1.86314">
        <ele>978.2</ele>
        <time>2024-06-30T11:38:46Z</time>
      </trkpt>
      <trkpt lat="42.71547" lon="1.86311">
        <ele>977.6</ele>
        <time>2024-06-30T11:38:47Z</time>
      </trkpt>
      <trkpt lat="42.71554" lon="1.86309">
        <ele>977.2</ele>
        <time>2024-06-30T11:38:48Z</time>
      </trkpt>
      <trkpt lat="42.7156" lon="1.86306">
        <ele>976.2</ele>
        <time>2024-06-30T11:38:49Z</time>
      </trkpt>
      <trkpt lat="42.71572" lon="1.86295">
        <ele>974.4</ele>
        <time>2024-06-30T11:38:51Z</time>
      </trkpt>
      <trkpt lat="42.71578" lon="1.8629">
        <ele>973.2</ele>
        <time>2024-06-30T11:38:52Z</time>
      </trkpt>
      <trkpt lat="42.71591" lon="1.86282">
        <ele>971.8</ele>
        <time>2024-06-30T11:38:54Z</time>
      </trkpt>
      <trkpt lat="42.71598" lon="1.86282">
        <ele>971.6</ele>
        <time>2024-06-30T11:38:55Z</time>
      </trkpt>
      <trkpt lat="42.71605" lon="1.86283">
        <ele>971.2</ele>
        <time>2024-06-30T11:38:56Z</time>
      </trkpt>
      <trkpt lat="42.71612" lon="1.86285">
        <ele>971</ele>
        <time>2024-06-30T11:38:57Z</time>
      </trkpt>
      <trkpt lat="42.71617" lon="1.86288">
        <ele>970.4</ele>
        <time>2024-06-30T11:38:58Z</time>
      </trkpt>
      <trkpt lat="42.71622" lon="1.86293">
        <ele>969.8</ele>
        <time>2024-06-30T11:38:59Z</time>
      </trkpt>
      <trkpt lat="42.71627" lon="1.86298">
        <ele>969.6</ele>
        <time>2024-06-30T11:39:00Z</time>
      </trkpt>
      <trkpt lat="42.71631" lon="1.86299">
        <ele>969</ele>
        <time>2024-06-30T11:39:01Z</time>
      </trkpt>
      <trkpt lat="42.71637" lon="1.863">
        <ele>968.6</ele>
        <time>2024-06-30T11:39:02Z</time>
      </trkpt>
      <trkpt lat="42.71643" lon="1.86303">
        <ele>968.2</ele>
        <time>2024-06-30T11:39:03Z</time>
      </trkpt>
      <trkpt lat="42.71648" lon="1.86307">
        <ele>968</ele>
        <time>2024-06-30T11:39:04Z</time>
      </trkpt>
      <trkpt lat="42.71654" lon="1.86312">
        <ele>967.8</ele>
        <time>2024-06-30T11:39:05Z</time>
      </trkpt>
      <trkpt lat="42.71668" lon="1.86319">
        <ele>967.4</ele>
        <time>2024-06-30T11:39:07Z</time>
      </trkpt>
      <trkpt lat="42.71675" lon="1.86321">
        <ele>966.6</ele>
        <time>2024-06-30T11:39:08Z</time>
      </trkpt>
      <trkpt lat="42.71681" lon="1.86321">
        <ele>966.2</ele>
        <time>2024-06-30T11:39:09Z</time>
      </trkpt>
      <trkpt lat="42.71685" lon="1.86323">
        <ele>965.2</ele>
        <time>2024-06-30T11:39:10Z</time>
      </trkpt>
      <trkpt lat="42.71688" lon="1.86326">
        <ele>964.4</ele>
        <time>2024-06-30T11:39:11Z</time>
      </trkpt>
      <trkpt lat="42.7169" lon="1.86332">
        <ele>963</ele>
        <time>2024-06-30T11:39:12Z</time>
      </trkpt>
      <trkpt lat="42.71692" lon="1.86337">
        <ele>962.6</ele>
        <time>2024-06-30T11:39:13Z</time>
      </trkpt>
      <trkpt lat="42.71695" lon="1.86341">
        <ele>961.2</ele>
        <time>2024-06-30T11:39:14Z</time>
      </trkpt>
      <trkpt lat="42.71698" lon="1.86344">
        <ele>959.6</ele>
        <time>2024-06-30T11:39:15Z</time>
      </trkpt>
      <trkpt lat="42.71702" lon="1.86346">
        <ele>959</ele>
        <time>2024-06-30T11:39:16Z</time>
      </trkpt>
      <trkpt lat="42.71705" lon="1.86347">
        <ele>958</ele>
        <time>2024-06-30T11:39:17Z</time>
      </trkpt>
      <trkpt lat="42.71708" lon="1.86346">
        <ele>957.6</ele>
        <time>2024-06-30T11:39:18Z</time>
      </trkpt>
      <trkpt lat="42.71712" lon="1.86344">
        <ele>957</ele>
        <time>2024-06-30T11:39:19Z</time>
      </trkpt>
      <trkpt lat="42.71718" lon="1.86343">
        <ele>956.6</ele>
        <time>2024-06-30T11:39:20Z</time>
      </trkpt>
      <trkpt lat="42.71725" lon="1.86342">
        <ele>955.6</ele>
        <time>2024-06-30T11:39:21Z</time>
      </trkpt>
      <trkpt lat="42.71734" lon="1.8634">
        <ele>955</ele>
        <time>2024-06-30T11:39:22Z</time>
      </trkpt>
      <trkpt lat="42.71742" lon="1.86339">
        <ele>954.8</ele>
        <time>2024-06-30T11:39:23Z</time>
      </trkpt>
      <trkpt lat="42.7175" lon="1.86339">
        <ele>954.4</ele>
        <time>2024-06-30T11:39:24Z</time>
      </trkpt>
      <trkpt lat="42.71768" lon="1.86339">
        <ele>952.2</ele>
        <time>2024-06-30T11:39:26Z</time>
      </trkpt>
      <trkpt lat="42.71786" lon="1.86331">
        <ele>950.8</ele>
        <time>2024-06-30T11:39:28Z</time>
      </trkpt>
      <trkpt lat="42.718" lon="1.86326">
        <ele>949.6</ele>
        <time>2024-06-30T11:39:30Z</time>
      </trkpt>
      <trkpt lat="42.71806" lon="1.86326">
        <ele>948.4</ele>
        <time>2024-06-30T11:39:31Z</time>
      </trkpt>
      <trkpt lat="42.71815" lon="1.86327">
        <ele>947.8</ele>
        <time>2024-06-30T11:39:32Z</time>
      </trkpt>
      <trkpt lat="42.71823" lon="1.86327">
        <ele>946.8</ele>
        <time>2024-06-30T11:39:33Z</time>
      </trkpt>
      <trkpt lat="42.71842" lon="1.8633">
        <ele>945.6</ele>
        <time>2024-06-30T11:39:35Z</time>
      </trkpt>
      <trkpt lat="42.7185" lon="1.86333">
        <ele>945</ele>
        <time>2024-06-30T11:39:36Z</time>
      </trkpt>
      <trkpt lat="42.71855" lon="1.86335">
        <ele>944.2</ele>
        <time>2024-06-30T11:39:37Z</time>
      </trkpt>
      <trkpt lat="42.71861" lon="1.86337">
        <ele>943.2</ele>
        <time>2024-06-30T11:39:38Z</time>
      </trkpt>
      <trkpt lat="42.71866" lon="1.86338">
        <ele>942.8</ele>
        <time>2024-06-30T11:39:39Z</time>
      </trkpt>
      <trkpt lat="42.71869" lon="1.86339">
        <ele>942</ele>
        <time>2024-06-30T11:39:40Z</time>
      </trkpt>
      <trkpt lat="42.71871" lon="1.86337">
        <ele>941.8</ele>
        <time>2024-06-30T11:39:41Z</time>
      </trkpt>
      <trkpt lat="42.71873" lon="1.86333">
        <ele>941.2</ele>
        <time>2024-06-30T11:39:42Z</time>
      </trkpt>
      <trkpt lat="42.71874" lon="1.86328">
        <ele>941</ele>
        <time>2024-06-30T11:39:43Z</time>
      </trkpt>
      <trkpt lat="42.71875" lon="1.86323">
        <ele>940.4</ele>
        <time>2024-06-30T11:39:44Z</time>
      </trkpt>
      <trkpt lat="42.71873" lon="1.86318">
        <ele>939.8</ele>
        <time>2024-06-30T11:39:45Z</time>
      </trkpt>
      <trkpt lat="42.7187" lon="1.86312">
        <ele>939.4</ele>
        <time>2024-06-30T11:39:46Z</time>
      </trkpt>
      <trkpt lat="42.71862" lon="1.86297">
        <ele>938.6</ele>
        <time>2024-06-30T11:39:48Z</time>
      </trkpt>
      <trkpt lat="42.71859" lon="1.86289">
        <ele>938.2</ele>
        <time>2024-06-30T11:39:49Z</time>
      </trkpt>
      <trkpt lat="42.71858" lon="1.8628">
        <ele>937.6</ele>
        <time>2024-06-30T11:39:50Z</time>
      </trkpt>
      <trkpt lat="42.71858" lon="1.86269">
        <ele>936.8</ele>
        <time>2024-06-30T11:39:51Z</time>
      </trkpt>
      <trkpt lat="42.71858" lon="1.86257">
        <ele>936.4</ele>
        <time>2024-06-30T11:39:52Z</time>
      </trkpt>
      <trkpt lat="42.71854" lon="1.86246">
        <ele>935.8</ele>
        <time>2024-06-30T11:39:53Z</time>
      </trkpt>
      <trkpt lat="42.71851" lon="1.86235">
        <ele>934.4</ele>
        <time>2024-06-30T11:39:54Z</time>
      </trkpt>
      <trkpt lat="42.71847" lon="1.86226">
        <ele>934</ele>
        <time>2024-06-30T11:39:55Z</time>
      </trkpt>
      <trkpt lat="42.71843" lon="1.86217">
        <ele>933.4</ele>
        <time>2024-06-30T11:39:56Z</time>
      </trkpt>
      <trkpt lat="42.71839" lon="1.86209">
        <ele>933.2</ele>
        <time>2024-06-30T11:39:57Z</time>
      </trkpt>
      <trkpt lat="42.71835" lon="1.86201">
        <ele>932.8</ele>
        <time>2024-06-30T11:39:58Z</time>
      </trkpt>
      <trkpt lat="42.71826" lon="1.86183">
        <ele>932.2</ele>
        <time>2024-06-30T11:40:00Z</time>
      </trkpt>
      <trkpt lat="42.71823" lon="1.86174">
        <ele>932</ele>
        <time>2024-06-30T11:40:01Z</time>
      </trkpt>
      <trkpt lat="42.71822" lon="1.86161">
        <ele>931.8</ele>
        <time>2024-06-30T11:40:02Z</time>
      </trkpt>
      <trkpt lat="42.71821" lon="1.86148">
        <ele>931.4</ele>
        <time>2024-06-30T11:40:03Z</time>
      </trkpt>
      <trkpt lat="42.71819" lon="1.86126">
        <ele>930.8</ele>
        <time>2024-06-30T11:40:05Z</time>
      </trkpt>
      <trkpt lat="42.7182" lon="1.86115">
        <ele>930.6</ele>
        <time>2024-06-30T11:40:06Z</time>
      </trkpt>
      <trkpt lat="42.71821" lon="1.86105">
        <ele>930</ele>
        <time>2024-06-30T11:40:07Z</time>
      </trkpt>
      <trkpt lat="42.71821" lon="1.86093">
        <ele>929.6</ele>
        <time>2024-06-30T11:40:08Z</time>
      </trkpt>
      <trkpt lat="42.7182" lon="1.8608">
        <ele>929.2</ele>
        <time>2024-06-30T11:40:09Z</time>
      </trkpt>
      <trkpt lat="42.71821" lon="1.86066">
        <ele>928.8</ele>
        <time>2024-06-30T11:40:10Z</time>
      </trkpt>
      <trkpt lat="42.71824" lon="1.86053">
        <ele>928.6</ele>
        <time>2024-06-30T11:40:11Z</time>
      </trkpt>
      <trkpt lat="42.71826" lon="1.86043">
        <ele>928</ele>
        <time>2024-06-30T11:40:12Z</time>
      </trkpt>
      <trkpt lat="42.7183" lon="1.86036">
        <ele>928</ele>
        <time>2024-06-30T11:40:13Z</time>
      </trkpt>
      <trkpt lat="42.71835" lon="1.86029">
        <ele>927.6</ele>
        <time>2024-06-30T11:40:14Z</time>
      </trkpt>
      <trkpt lat="42.7184" lon="1.86024">
        <ele>927</ele>
        <time>2024-06-30T11:40:15Z</time>
      </trkpt>
      <trkpt lat="42.71846" lon="1.86016">
        <ele>926.6</ele>
        <time>2024-06-30T11:40:16Z</time>
      </trkpt>
      <trkpt lat="42.71851" lon="1.86008">
        <ele>925.2</ele>
        <time>2024-06-30T11:40:17Z</time>
      </trkpt>
      <trkpt lat="42.71855" lon="1.85999">
        <ele>924.6</ele>
        <time>2024-06-30T11:40:18Z</time>
      </trkpt>
      <trkpt lat="42.71858" lon="1.85989">
        <ele>922.4</ele>
        <time>2024-06-30T11:40:19Z</time>
      </trkpt>
      <trkpt lat="42.71859" lon="1.85976">
        <ele>921.8</ele>
        <time>2024-06-30T11:40:20Z</time>
      </trkpt>
      <trkpt lat="42.71861" lon="1.8596">
        <ele>921</ele>
        <time>2024-06-30T11:40:21Z</time>
      </trkpt>
      <trkpt lat="42.71865" lon="1.85948">
        <ele>920.4</ele>
        <time>2024-06-30T11:40:22Z</time>
      </trkpt>
      <trkpt lat="42.7187" lon="1.85935">
        <ele>918</ele>
        <time>2024-06-30T11:40:23Z</time>
      </trkpt>
      <trkpt lat="42.71875" lon="1.85924">
        <ele>916.8</ele>
        <time>2024-06-30T11:40:24Z</time>
      </trkpt>
      <trkpt lat="42.71885" lon="1.85902">
        <ele>915.6</ele>
        <time>2024-06-30T11:40:26Z</time>
      </trkpt>
      <trkpt lat="42.71895" lon="1.8588">
        <ele>914.4</ele>
        <time>2024-06-30T11:40:28Z</time>
      </trkpt>
      <trkpt lat="42.719" lon="1.85869">
        <ele>914</ele>
        <time>2024-06-30T11:40:29Z</time>
      </trkpt>
      <trkpt lat="42.71905" lon="1.85859">
        <ele>913.2</ele>
        <time>2024-06-30T11:40:30Z</time>
      </trkpt>
      <trkpt lat="42.71909" lon="1.8585">
        <ele>912.6</ele>
        <time>2024-06-30T11:40:31Z</time>
      </trkpt>
      <trkpt lat="42.71914" lon="1.85842">
        <ele>912.2</ele>
        <time>2024-06-30T11:40:32Z</time>
      </trkpt>
      <trkpt lat="42.71914" lon="1.85834">
        <ele>911.8</ele>
        <time>2024-06-30T11:40:33Z</time>
      </trkpt>
      <trkpt lat="42.71913" lon="1.85824">
        <ele>911.6</ele>
        <time>2024-06-30T11:40:34Z</time>
      </trkpt>
      <trkpt lat="42.71915" lon="1.85817">
        <ele>911</ele>
        <time>2024-06-30T11:40:35Z</time>
      </trkpt>
      <trkpt lat="42.71919" lon="1.85809">
        <ele>910.8</ele>
        <time>2024-06-30T11:40:36Z</time>
      </trkpt>
      <trkpt lat="42.71923" lon="1.85804">
        <ele>910.4</ele>
        <time>2024-06-30T11:40:37Z</time>
      </trkpt>
      <trkpt lat="42.71927" lon="1.85801">
        <ele>910.2</ele>
        <time>2024-06-30T11:40:38Z</time>
      </trkpt>
      <trkpt lat="42.71931" lon="1.85796">
        <ele>910.2</ele>
        <time>2024-06-30T11:40:39Z</time>
      </trkpt>
      <trkpt lat="42.71935" lon="1.85793">
        <ele>910.2</ele>
        <time>2024-06-30T11:40:40Z</time>
      </trkpt>
      <trkpt lat="42.71939" lon="1.85788">
        <ele>910.2</ele>
        <time>2024-06-30T11:40:41Z</time>
      </trkpt>
      <trkpt lat="42.71941" lon="1.85784">
        <ele>910</ele>
        <time>2024-06-30T11:40:42Z</time>
      </trkpt>
      <trkpt lat="42.71942" lon="1.85777">
        <ele>909.8</ele>
        <time>2024-06-30T11:40:43Z</time>
      </trkpt>
      <trkpt lat="42.71945" lon="1.85774">
        <ele>910</ele>
        <time>2024-06-30T11:40:44Z</time>
      </trkpt>
      <trkpt lat="42.71947" lon="1.8577">
        <ele>909.8</ele>
        <time>2024-06-30T11:40:45Z</time>
      </trkpt>
      <trkpt lat="42.71949" lon="1.85762">
        <ele>909.8</ele>
        <time>2024-06-30T11:40:46Z</time>
      </trkpt>
      <trkpt lat="42.71957" lon="1.85745">
        <ele>909.8</ele>
        <time>2024-06-30T11:40:48Z</time>
      </trkpt>
      <trkpt lat="42.71967" lon="1.85733">
        <ele>909.8</ele>
        <time>2024-06-30T11:40:50Z</time>
      </trkpt>
      <trkpt lat="42.71974" lon="1.85727">
        <ele>909.8</ele>
        <time>2024-06-30T11:40:51Z</time>
      </trkpt>
      <trkpt lat="42.71985" lon="1.85707">
        <ele>909.8</ele>
        <time>2024-06-30T11:40:53Z</time>
      </trkpt>
      <trkpt lat="42.71987" lon="1.857">
        <ele>909.8</ele>
        <time>2024-06-30T11:40:54Z</time>
      </trkpt>
      <trkpt lat="42.71991" lon="1.85691">
        <ele>910</ele>
        <time>2024-06-30T11:40:55Z</time>
      </trkpt>
      <trkpt lat="42.71997" lon="1.8568">
        <ele>910.6</ele>
        <time>2024-06-30T11:40:57Z</time>
      </trkpt>
      <trkpt lat="42.72" lon="1.85678">
        <ele>910.8</ele>
        <time>2024-06-30T11:40:58Z</time>
      </trkpt>
      <trkpt lat="42.72003" lon="1.85678">
        <ele>910.8</ele>
        <time>2024-06-30T11:40:59Z</time>
      </trkpt>
      <trkpt lat="42.72008" lon="1.85673">
        <ele>911</ele>
        <time>2024-06-30T11:41:00Z</time>
      </trkpt>
      <trkpt lat="42.7201" lon="1.85668">
        <ele>911.2</ele>
        <time>2024-06-30T11:41:01Z</time>
      </trkpt>
      <trkpt lat="42.72013" lon="1.85662">
        <ele>911.2</ele>
        <time>2024-06-30T11:41:02Z</time>
      </trkpt>
      <trkpt lat="42.72027" lon="1.85633">
        <ele>911.6</ele>
        <time>2024-06-30T11:41:06Z</time>
      </trkpt>
      <trkpt lat="42.7203" lon="1.85629">
        <ele>911.6</ele>
        <time>2024-06-30T11:41:07Z</time>
      </trkpt>
      <trkpt lat="42.72033" lon="1.85624">
        <ele>911.6</ele>
        <time>2024-06-30T11:41:08Z</time>
      </trkpt>
      <trkpt lat="42.72034" lon="1.85621">
        <ele>912</ele>
        <time>2024-06-30T11:41:09Z</time>
      </trkpt>
      <trkpt lat="42.72039" lon="1.8561">
        <ele>912.2</ele>
        <time>2024-06-30T11:41:11Z</time>
      </trkpt>
      <trkpt lat="42.72043" lon="1.85604">
        <ele>912.2</ele>
        <time>2024-06-30T11:41:12Z</time>
      </trkpt>
      <trkpt lat="42.72047" lon="1.85595">
        <ele>912.4</ele>
        <time>2024-06-30T11:41:13Z</time>
      </trkpt>
      <trkpt lat="42.72052" lon="1.8559">
        <ele>912.4</ele>
        <time>2024-06-30T11:41:14Z</time>
      </trkpt>
      <trkpt lat="42.72055" lon="1.85587">
        <ele>912.6</ele>
        <time>2024-06-30T11:41:15Z</time>
      </trkpt>
      <trkpt lat="42.72058" lon="1.85583">
        <ele>913</ele>
        <time>2024-06-30T11:41:16Z</time>
      </trkpt>
      <trkpt lat="42.72061" lon="1.85579">
        <ele>913.6</ele>
        <time>2024-06-30T11:41:17Z</time>
      </trkpt>
      <trkpt lat="42.72062" lon="1.85577">
        <ele>913.8</ele>
        <time>2024-06-30T11:41:18Z</time>
      </trkpt>
      <trkpt lat="42.72063" lon="1.85575">
        <ele>914</ele>
        <time>2024-06-30T11:41:19Z</time>
      </trkpt>
      <trkpt lat="42.72066" lon="1.85568">
        <ele>914.4</ele>
        <time>2024-06-30T11:41:20Z</time>
      </trkpt>
      <trkpt lat="42.72068" lon="1.85563">
        <ele>914.6</ele>
        <time>2024-06-30T11:41:21Z</time>
      </trkpt>
      <trkpt lat="42.72069" lon="1.85559">
        <ele>914.8</ele>
        <time>2024-06-30T11:41:22Z</time>
      </trkpt>
      <trkpt lat="42.7207" lon="1.85554">
        <ele>915.4</ele>
        <time>2024-06-30T11:41:23Z</time>
      </trkpt>
      <trkpt lat="42.72072" lon="1.85543">
        <ele>915.8</ele>
        <time>2024-06-30T11:41:24Z</time>
      </trkpt>
      <trkpt lat="42.72075" lon="1.85538">
        <ele>916</ele>
        <time>2024-06-30T11:41:25Z</time>
      </trkpt>
      <trkpt lat="42.72075" lon="1.85533">
        <ele>916.2</ele>
        <time>2024-06-30T11:41:26Z</time>
      </trkpt>
      <trkpt lat="42.72074" lon="1.85527">
        <ele>916.4</ele>
        <time>2024-06-30T11:41:27Z</time>
      </trkpt>
      <trkpt lat="42.72073" lon="1.85521">
        <ele>916.6</ele>
        <time>2024-06-30T11:41:28Z</time>
      </trkpt>
      <trkpt lat="42.72072" lon="1.85515">
        <ele>917</ele>
        <time>2024-06-30T11:41:29Z</time>
      </trkpt>
      <trkpt lat="42.72073" lon="1.85508">
        <ele>917.2</ele>
        <time>2024-06-30T11:41:30Z</time>
      </trkpt>
      <trkpt lat="42.72073" lon="1.85499">
        <ele>917.2</ele>
        <time>2024-06-30T11:41:31Z</time>
      </trkpt>
      <trkpt lat="42.72075" lon="1.85494">
        <ele>917.4</ele>
        <time>2024-06-30T11:41:32Z</time>
      </trkpt>
      <trkpt lat="42.72077" lon="1.85487">
        <ele>917.4</ele>
        <time>2024-06-30T11:41:33Z</time>
      </trkpt>
      <trkpt lat="42.72079" lon="1.85475">
        <ele>917.6</ele>
        <time>2024-06-30T11:41:34Z</time>
      </trkpt>
      <trkpt lat="42.72081" lon="1.85469">
        <ele>917.6</ele>
        <time>2024-06-30T11:41:35Z</time>
      </trkpt>
      <trkpt lat="42.72082" lon="1.85465">
        <ele>917.8</ele>
        <time>2024-06-30T11:41:36Z</time>
      </trkpt>
      <trkpt lat="42.72083" lon="1.85462">
        <ele>917.8</ele>
        <time>2024-06-30T11:41:37Z</time>
      </trkpt>
      <trkpt lat="42.72081" lon="1.85459">
        <ele>918</ele>
        <time>2024-06-30T11:41:38Z</time>
      </trkpt>
      <trkpt lat="42.72078" lon="1.85455">
        <ele>918</ele>
        <time>2024-06-30T11:41:39Z</time>
      </trkpt>
      <trkpt lat="42.72075" lon="1.85451">
        <ele>918.2</ele>
        <time>2024-06-30T11:41:40Z</time>
      </trkpt>
      <trkpt lat="42.72071" lon="1.85446">
        <ele>918.2</ele>
        <time>2024-06-30T11:41:41Z</time>
      </trkpt>
      <trkpt lat="42.72066" lon="1.85437">
        <ele>918.2</ele>
        <time>2024-06-30T11:41:42Z</time>
      </trkpt>
      <trkpt lat="42.72063" lon="1.85427">
        <ele>918.2</ele>
        <time>2024-06-30T11:41:43Z</time>
      </trkpt>
      <trkpt lat="42.7206" lon="1.85412">
        <ele>918.2</ele>
        <time>2024-06-30T11:41:44Z</time>
      </trkpt>
      <trkpt lat="42.72059" lon="1.85402">
        <ele>918.2</ele>
        <time>2024-06-30T11:41:45Z</time>
      </trkpt>
      <trkpt lat="42.72056" lon="1.85394">
        <ele>917.6</ele>
        <time>2024-06-30T11:41:46Z</time>
      </trkpt>
      <trkpt lat="42.72054" lon="1.85384">
        <ele>917</ele>
        <time>2024-06-30T11:41:47Z</time>
      </trkpt>
      <trkpt lat="42.72053" lon="1.85369">
        <ele>916.8</ele>
        <time>2024-06-30T11:41:48Z</time>
      </trkpt>
      <trkpt lat="42.72054" lon="1.85355">
        <ele>916.2</ele>
        <time>2024-06-30T11:41:49Z</time>
      </trkpt>
      <trkpt lat="42.72055" lon="1.85344">
        <ele>915.8</ele>
        <time>2024-06-30T11:41:50Z</time>
      </trkpt>
      <trkpt lat="42.72056" lon="1.85335">
        <ele>915.2</ele>
        <time>2024-06-30T11:41:51Z</time>
      </trkpt>
      <trkpt lat="42.72057" lon="1.85326">
        <ele>914.4</ele>
        <time>2024-06-30T11:41:52Z</time>
      </trkpt>
      <trkpt lat="42.72058" lon="1.85315">
        <ele>913.6</ele>
        <time>2024-06-30T11:41:53Z</time>
      </trkpt>
      <trkpt lat="42.72058" lon="1.85307">
        <ele>913.4</ele>
        <time>2024-06-30T11:41:54Z</time>
      </trkpt>
      <trkpt lat="42.72058" lon="1.85298">
        <ele>910.8</ele>
        <time>2024-06-30T11:41:55Z</time>
      </trkpt>
      <trkpt lat="42.72056" lon="1.85289">
        <ele>907.8</ele>
        <time>2024-06-30T11:41:56Z</time>
      </trkpt>
      <trkpt lat="42.72051" lon="1.85282">
        <ele>906.6</ele>
        <time>2024-06-30T11:41:57Z</time>
      </trkpt>
      <trkpt lat="42.72045" lon="1.85275">
        <ele>904.8</ele>
        <time>2024-06-30T11:41:58Z</time>
      </trkpt>
      <trkpt lat="42.72039" lon="1.85266">
        <ele>904.4</ele>
        <time>2024-06-30T11:41:59Z</time>
      </trkpt>
      <trkpt lat="42.72034" lon="1.85255">
        <ele>904</ele>
        <time>2024-06-30T11:42:00Z</time>
      </trkpt>
      <trkpt lat="42.7203" lon="1.85245">
        <ele>903.6</ele>
        <time>2024-06-30T11:42:01Z</time>
      </trkpt>
      <trkpt lat="42.72025" lon="1.85238">
        <ele>902.6</ele>
        <time>2024-06-30T11:42:02Z</time>
      </trkpt>
      <trkpt lat="42.72019" lon="1.85232">
        <ele>902.2</ele>
        <time>2024-06-30T11:42:03Z</time>
      </trkpt>
      <trkpt lat="42.72014" lon="1.85223">
        <ele>902</ele>
        <time>2024-06-30T11:42:04Z</time>
      </trkpt>
      <trkpt lat="42.7201" lon="1.85214">
        <ele>901</ele>
        <time>2024-06-30T11:42:05Z</time>
      </trkpt>
      <trkpt lat="42.72009" lon="1.85206">
        <ele>900.4</ele>
        <time>2024-06-30T11:42:06Z</time>
      </trkpt>
      <trkpt lat="42.72009" lon="1.85196">
        <ele>897.8</ele>
        <time>2024-06-30T11:42:07Z</time>
      </trkpt>
      <trkpt lat="42.72007" lon="1.85185">
        <ele>896.8</ele>
        <time>2024-06-30T11:42:08Z</time>
      </trkpt>
      <trkpt lat="42.72004" lon="1.85179">
        <ele>895.6</ele>
        <time>2024-06-30T11:42:09Z</time>
      </trkpt>
      <trkpt lat="42.72001" lon="1.85175">
        <ele>892.6</ele>
        <time>2024-06-30T11:42:10Z</time>
      </trkpt>
      <trkpt lat="42.71995" lon="1.85169">
        <ele>891.4</ele>
        <time>2024-06-30T11:42:11Z</time>
      </trkpt>
      <trkpt lat="42.7199" lon="1.85164">
        <ele>890</ele>
        <time>2024-06-30T11:42:12Z</time>
      </trkpt>
      <trkpt lat="42.71986" lon="1.85161">
        <ele>889.4</ele>
        <time>2024-06-30T11:42:13Z</time>
      </trkpt>
      <trkpt lat="42.71984" lon="1.85158">
        <ele>888</ele>
        <time>2024-06-30T11:42:14Z</time>
      </trkpt>
      <trkpt lat="42.71984" lon="1.85154">
        <ele>887.4</ele>
        <time>2024-06-30T11:42:15Z</time>
      </trkpt>
      <trkpt lat="42.71985" lon="1.85151">
        <ele>886.6</ele>
        <time>2024-06-30T11:42:16Z</time>
      </trkpt>
      <trkpt lat="42.71988" lon="1.8515">
        <ele>886.4</ele>
        <time>2024-06-30T11:42:17Z</time>
      </trkpt>
      <trkpt lat="42.71994" lon="1.85149">
        <ele>885.2</ele>
        <time>2024-06-30T11:42:18Z</time>
      </trkpt>
      <trkpt lat="42.72" lon="1.85148">
        <ele>883.6</ele>
        <time>2024-06-30T11:42:19Z</time>
      </trkpt>
      <trkpt lat="42.72006" lon="1.85147">
        <ele>883</ele>
        <time>2024-06-30T11:42:20Z</time>
      </trkpt>
      <trkpt lat="42.72011" lon="1.85147">
        <ele>881.8</ele>
        <time>2024-06-30T11:42:21Z</time>
      </trkpt>
      <trkpt lat="42.72016" lon="1.85145">
        <ele>881.2</ele>
        <time>2024-06-30T11:42:22Z</time>
      </trkpt>
      <trkpt lat="42.72019" lon="1.85143">
        <ele>880.2</ele>
        <time>2024-06-30T11:42:23Z</time>
      </trkpt>
      <trkpt lat="42.72021" lon="1.85139">
        <ele>879.6</ele>
        <time>2024-06-30T11:42:24Z</time>
      </trkpt>
      <trkpt lat="42.72023" lon="1.85136">
        <ele>877.4</ele>
        <time>2024-06-30T11:42:25Z</time>
      </trkpt>
      <trkpt lat="42.72024" lon="1.85134">
        <ele>875.8</ele>
        <time>2024-06-30T11:42:26Z</time>
      </trkpt>
      <trkpt lat="42.72025" lon="1.85132">
        <ele>875.2</ele>
        <time>2024-06-30T11:42:27Z</time>
      </trkpt>
      <trkpt lat="42.72026" lon="1.85129">
        <ele>874.2</ele>
        <time>2024-06-30T11:42:28Z</time>
      </trkpt>
      <trkpt lat="42.72027" lon="1.85125">
        <ele>872.8</ele>
        <time>2024-06-30T11:42:29Z</time>
      </trkpt>
      <trkpt lat="42.72028" lon="1.85121">
        <ele>871.2</ele>
        <time>2024-06-30T11:42:30Z</time>
      </trkpt>
      <trkpt lat="42.72028" lon="1.85117">
        <ele>870.6</ele>
        <time>2024-06-30T11:42:31Z</time>
      </trkpt>
      <trkpt lat="42.72027" lon="1.85111">
        <ele>869.4</ele>
        <time>2024-06-30T11:42:32Z</time>
      </trkpt>
      <trkpt lat="42.72025" lon="1.85103">
        <ele>868.6</ele>
        <time>2024-06-30T11:42:33Z</time>
      </trkpt>
      <trkpt lat="42.72023" lon="1.85095">
        <ele>867.4</ele>
        <time>2024-06-30T11:42:34Z</time>
      </trkpt>
      <trkpt lat="42.72022" lon="1.85089">
        <ele>866.2</ele>
        <time>2024-06-30T11:42:35Z</time>
      </trkpt>
      <trkpt lat="42.72016" lon="1.85075">
        <ele>864.6</ele>
        <time>2024-06-30T11:42:37Z</time>
      </trkpt>
      <trkpt lat="42.72013" lon="1.85066">
        <ele>864.2</ele>
        <time>2024-06-30T11:42:38Z</time>
      </trkpt>
      <trkpt lat="42.72013" lon="1.85061">
        <ele>863.2</ele>
        <time>2024-06-30T11:42:39Z</time>
      </trkpt>
      <trkpt lat="42.72012" lon="1.85059">
        <ele>862.6</ele>
        <time>2024-06-30T11:42:40Z</time>
      </trkpt>
      <trkpt lat="42.72012" lon="1.85057">
        <ele>860.8</ele>
        <time>2024-06-30T11:42:41Z</time>
      </trkpt>
      <trkpt lat="42.72012" lon="1.85054">
        <ele>858.8</ele>
        <time>2024-06-30T11:42:42Z</time>
      </trkpt>
      <trkpt lat="42.72013" lon="1.85052">
        <ele>857.8</ele>
        <time>2024-06-30T11:42:43Z</time>
      </trkpt>
      <trkpt lat="42.72013" lon="1.8505">
        <ele>856</ele>
        <time>2024-06-30T11:42:44Z</time>
      </trkpt>
      <trkpt lat="42.72014" lon="1.85047">
        <ele>855.4</ele>
        <time>2024-06-30T11:42:45Z</time>
      </trkpt>
      <trkpt lat="42.72016" lon="1.85046">
        <ele>854.4</ele>
        <time>2024-06-30T11:42:46Z</time>
      </trkpt>
      <trkpt lat="42.72014" lon="1.85043">
        <ele>853.8</ele>
        <time>2024-06-30T11:42:47Z</time>
      </trkpt>
      <trkpt lat="42.72014" lon="1.8504">
        <ele>853</ele>
        <time>2024-06-30T11:42:48Z</time>
      </trkpt>
      <trkpt lat="42.72013" lon="1.85037">
        <ele>852.2</ele>
        <time>2024-06-30T11:42:49Z</time>
      </trkpt>
      <trkpt lat="42.72013" lon="1.85035">
        <ele>851.6</ele>
        <time>2024-06-30T11:42:50Z</time>
      </trkpt>
      <trkpt lat="42.72013" lon="1.85035">
        <ele>850.8</ele>
        <time>2024-06-30T11:42:51Z</time>
      </trkpt>
      <trkpt lat="42.72013" lon="1.85035">
        <ele>850.2</ele>
        <time>2024-06-30T11:42:52Z</time>
      </trkpt>
      <trkpt lat="42.72011" lon="1.85032">
        <ele>849</ele>
        <time>2024-06-30T11:42:53Z</time>
      </trkpt>
      <trkpt lat="42.72009" lon="1.85026">
        <ele>848.4</ele>
        <time>2024-06-30T11:42:54Z</time>
      </trkpt>
      <trkpt lat="42.72008" lon="1.85023">
        <ele>846.4</ele>
        <time>2024-06-30T11:42:55Z</time>
      </trkpt>
      <trkpt lat="42.72007" lon="1.85019">
        <ele>845.6</ele>
        <time>2024-06-30T11:42:56Z</time>
      </trkpt>
      <trkpt lat="42.72006" lon="1.85015">
        <ele>844.4</ele>
        <time>2024-06-30T11:42:57Z</time>
      </trkpt>
      <trkpt lat="42.72004" lon="1.85013">
        <ele>844</ele>
        <time>2024-06-30T11:42:58Z</time>
      </trkpt>
      <trkpt lat="42.72001" lon="1.85009">
        <ele>843.4</ele>
        <time>2024-06-30T11:42:59Z</time>
      </trkpt>
      <trkpt lat="42.72001" lon="1.85005">
        <ele>842.8</ele>
        <time>2024-06-30T11:43:00Z</time>
      </trkpt>
      <trkpt lat="42.72001" lon="1.85002">
        <ele>842.4</ele>
        <time>2024-06-30T11:43:01Z</time>
      </trkpt>
      <trkpt lat="42.72" lon="1.84997">
        <ele>841.2</ele>
        <time>2024-06-30T11:43:02Z</time>
      </trkpt>
      <trkpt lat="42.71998" lon="1.84992">
        <ele>839.2</ele>
        <time>2024-06-30T11:43:04Z</time>
      </trkpt>
      <trkpt lat="42.71995" lon="1.84987">
        <ele>838</ele>
        <time>2024-06-30T11:43:05Z</time>
      </trkpt>
      <trkpt lat="42.71992" lon="1.8498">
        <ele>837.2</ele>
        <time>2024-06-30T11:43:06Z</time>
      </trkpt>
      <trkpt lat="42.7199" lon="1.84973">
        <ele>836</ele>
        <time>2024-06-30T11:43:07Z</time>
      </trkpt>
      <trkpt lat="42.71985" lon="1.84964">
        <ele>835.4</ele>
        <time>2024-06-30T11:43:08Z</time>
      </trkpt>
      <trkpt lat="42.71981" lon="1.84954">
        <ele>834</ele>
        <time>2024-06-30T11:43:09Z</time>
      </trkpt>
      <trkpt lat="42.71978" lon="1.84937">
        <ele>832.4</ele>
        <time>2024-06-30T11:43:11Z</time>
      </trkpt>
      <trkpt lat="42.71976" lon="1.84928">
        <ele>831.4</ele>
        <time>2024-06-30T11:43:12Z</time>
      </trkpt>
      <trkpt lat="42.71975" lon="1.84911">
        <ele>829.2</ele>
        <time>2024-06-30T11:43:14Z</time>
      </trkpt>
      <trkpt lat="42.71974" lon="1.84904">
        <ele>828.4</ele>
        <time>2024-06-30T11:43:15Z</time>
      </trkpt>
      <trkpt lat="42.71976" lon="1.84895">
        <ele>827.8</ele>
        <time>2024-06-30T11:43:16Z</time>
      </trkpt>
      <trkpt lat="42.71976" lon="1.84888">
        <ele>827.4</ele>
        <time>2024-06-30T11:43:17Z</time>
      </trkpt>
      <trkpt lat="42.71973" lon="1.84872">
        <ele>826.6</ele>
        <time>2024-06-30T11:43:19Z</time>
      </trkpt>
      <trkpt lat="42.7197" lon="1.84861">
        <ele>826.4</ele>
        <time>2024-06-30T11:43:20Z</time>
      </trkpt>
      <trkpt lat="42.71968" lon="1.84853">
        <ele>825.6</ele>
        <time>2024-06-30T11:43:21Z</time>
      </trkpt>
      <trkpt lat="42.71967" lon="1.84848">
        <ele>825.2</ele>
        <time>2024-06-30T11:43:22Z</time>
      </trkpt>
      <trkpt lat="42.71966" lon="1.84847">
        <ele>824.8</ele>
        <time>2024-06-30T11:43:23Z</time>
      </trkpt>
      <trkpt lat="42.71965" lon="1.84843">
        <ele>824.4</ele>
        <time>2024-06-30T11:43:24Z</time>
      </trkpt>
      <trkpt lat="42.71962" lon="1.84839">
        <ele>824</ele>
        <time>2024-06-30T11:43:25Z</time>
      </trkpt>
      <trkpt lat="42.71959" lon="1.8483">
        <ele>823</ele>
        <time>2024-06-30T11:43:27Z</time>
      </trkpt>
      <trkpt lat="42.71958" lon="1.84826">
        <ele>822.6</ele>
        <time>2024-06-30T11:43:28Z</time>
      </trkpt>
      <trkpt lat="42.71958" lon="1.8482">
        <ele>822.4</ele>
        <time>2024-06-30T11:43:29Z</time>
      </trkpt>
      <trkpt lat="42.71958" lon="1.84814">
        <ele>822</ele>
        <time>2024-06-30T11:43:30Z</time>
      </trkpt>
      <trkpt lat="42.71959" lon="1.84808">
        <ele>821.8</ele>
        <time>2024-06-30T11:43:31Z</time>
      </trkpt>
      <trkpt lat="42.7196" lon="1.84794">
        <ele>820.8</ele>
        <time>2024-06-30T11:43:33Z</time>
      </trkpt>
      <trkpt lat="42.71961" lon="1.84783">
        <ele>819.6</ele>
        <time>2024-06-30T11:43:35Z</time>
      </trkpt>
      <trkpt lat="42.71961" lon="1.84778">
        <ele>819</ele>
        <time>2024-06-30T11:43:36Z</time>
      </trkpt>
      <trkpt lat="42.71962" lon="1.84773">
        <ele>818.4</ele>
        <time>2024-06-30T11:43:37Z</time>
      </trkpt>
      <trkpt lat="42.71962" lon="1.84769">
        <ele>817.6</ele>
        <time>2024-06-30T11:43:38Z</time>
      </trkpt>
      <trkpt lat="42.71962" lon="1.84767">
        <ele>816.2</ele>
        <time>2024-06-30T11:43:39Z</time>
      </trkpt>
      <trkpt lat="42.71962" lon="1.84766">
        <ele>815.8</ele>
        <time>2024-06-30T11:43:40Z</time>
      </trkpt>
      <trkpt lat="42.7196" lon="1.84765">
        <ele>815</ele>
        <time>2024-06-30T11:43:41Z</time>
      </trkpt>
      <trkpt lat="42.71955" lon="1.84763">
        <ele>813.8</ele>
        <time>2024-06-30T11:43:43Z</time>
      </trkpt>
      <trkpt lat="42.71955" lon="1.8476">
        <ele>812.4</ele>
        <time>2024-06-30T11:43:44Z</time>
      </trkpt>
      <trkpt lat="42.71956" lon="1.84757">
        <ele>811.6</ele>
        <time>2024-06-30T11:43:45Z</time>
      </trkpt>
      <trkpt lat="42.71957" lon="1.84755">
        <ele>810.4</ele>
        <time>2024-06-30T11:43:46Z</time>
      </trkpt>
      <trkpt lat="42.71958" lon="1.84754">
        <ele>810</ele>
        <time>2024-06-30T11:43:47Z</time>
      </trkpt>
      <trkpt lat="42.7196" lon="1.84753">
        <ele>809.2</ele>
        <time>2024-06-30T11:43:48Z</time>
      </trkpt>
      <trkpt lat="42.71962" lon="1.84751">
        <ele>808.8</ele>
        <time>2024-06-30T11:43:49Z</time>
      </trkpt>
      <trkpt lat="42.71965" lon="1.84748">
        <ele>808.4</ele>
        <time>2024-06-30T11:43:50Z</time>
      </trkpt>
      <trkpt lat="42.71967" lon="1.84745">
        <ele>807.2</ele>
        <time>2024-06-30T11:43:51Z</time>
      </trkpt>
      <trkpt lat="42.71968" lon="1.84742">
        <ele>806.6</ele>
        <time>2024-06-30T11:43:52Z</time>
      </trkpt>
      <trkpt lat="42.71969" lon="1.84735">
        <ele>805.6</ele>
        <time>2024-06-30T11:43:53Z</time>
      </trkpt>
      <trkpt lat="42.7197" lon="1.84728">
        <ele>805</ele>
        <time>2024-06-30T11:43:54Z</time>
      </trkpt>
      <trkpt lat="42.7197" lon="1.84719">
        <ele>804.4</ele>
        <time>2024-06-30T11:43:55Z</time>
      </trkpt>
      <trkpt lat="42.71969" lon="1.84713">
        <ele>804</ele>
        <time>2024-06-30T11:43:56Z</time>
      </trkpt>
      <trkpt lat="42.71968" lon="1.84709">
        <ele>802.8</ele>
        <time>2024-06-30T11:43:57Z</time>
      </trkpt>
      <trkpt lat="42.71966" lon="1.84708">
        <ele>801.8</ele>
        <time>2024-06-30T11:43:58Z</time>
      </trkpt>
      <trkpt lat="42.71963" lon="1.84707">
        <ele>800</ele>
        <time>2024-06-30T11:43:59Z</time>
      </trkpt>
      <trkpt lat="42.71958" lon="1.84706">
        <ele>799</ele>
        <time>2024-06-30T11:44:00Z</time>
      </trkpt>
      <trkpt lat="42.71953" lon="1.84702">
        <ele>797.8</ele>
        <time>2024-06-30T11:44:01Z</time>
      </trkpt>
      <trkpt lat="42.71949" lon="1.84697">
        <ele>796.6</ele>
        <time>2024-06-30T11:44:02Z</time>
      </trkpt>
      <trkpt lat="42.71949" lon="1.84689">
        <ele>796</ele>
        <time>2024-06-30T11:44:03Z</time>
      </trkpt>
      <trkpt lat="42.71946" lon="1.84677">
        <ele>795</ele>
        <time>2024-06-30T11:44:04Z</time>
      </trkpt>
      <trkpt lat="42.71946" lon="1.84666">
        <ele>794.4</ele>
        <time>2024-06-30T11:44:05Z</time>
      </trkpt>
      <trkpt lat="42.71945" lon="1.84655">
        <ele>793.2</ele>
        <time>2024-06-30T11:44:06Z</time>
      </trkpt>
      <trkpt lat="42.71944" lon="1.84644">
        <ele>792.4</ele>
        <time>2024-06-30T11:44:07Z</time>
      </trkpt>
      <trkpt lat="42.71943" lon="1.84634">
        <ele>791.6</ele>
        <time>2024-06-30T11:44:08Z</time>
      </trkpt>
      <trkpt lat="42.7194" lon="1.84624">
        <ele>790.2</ele>
        <time>2024-06-30T11:44:09Z</time>
      </trkpt>
      <trkpt lat="42.71936" lon="1.84615">
        <ele>789.4</ele>
        <time>2024-06-30T11:44:10Z</time>
      </trkpt>
      <trkpt lat="42.71931" lon="1.84609">
        <ele>787.6</ele>
        <time>2024-06-30T11:44:11Z</time>
      </trkpt>
      <trkpt lat="42.71928" lon="1.84604">
        <ele>787</ele>
        <time>2024-06-30T11:44:12Z</time>
      </trkpt>
      <trkpt lat="42.71925" lon="1.84599">
        <ele>786.4</ele>
        <time>2024-06-30T11:44:13Z</time>
      </trkpt>
      <trkpt lat="42.71922" lon="1.84595">
        <ele>786</ele>
        <time>2024-06-30T11:44:14Z</time>
      </trkpt>
      <trkpt lat="42.71919" lon="1.84591">
        <ele>786</ele>
        <time>2024-06-30T11:44:15Z</time>
      </trkpt>
      <trkpt lat="42.71917" lon="1.84588">
        <ele>785.8</ele>
        <time>2024-06-30T11:44:16Z</time>
      </trkpt>
      <trkpt lat="42.71914" lon="1.84584">
        <ele>785.8</ele>
        <time>2024-06-30T11:44:17Z</time>
      </trkpt>
      <trkpt lat="42.71906" lon="1.84573">
        <ele>785.8</ele>
        <time>2024-06-30T11:44:19Z</time>
      </trkpt>
      <trkpt lat="42.71898" lon="1.84555">
        <ele>785.8</ele>
        <time>2024-06-30T11:44:21Z</time>
      </trkpt>
      <trkpt lat="42.71894" lon="1.84534">
        <ele>785.6</ele>
        <time>2024-06-30T11:44:23Z</time>
      </trkpt>
      <trkpt lat="42.71893" lon="1.84523">
        <ele>785.6</ele>
        <time>2024-06-30T11:44:24Z</time>
      </trkpt>
      <trkpt lat="42.71894" lon="1.8451">
        <ele>784.4</ele>
        <time>2024-06-30T11:44:25Z</time>
      </trkpt>
      <trkpt lat="42.71895" lon="1.84495">
        <ele>783.8</ele>
        <time>2024-06-30T11:44:26Z</time>
      </trkpt>
      <trkpt lat="42.71897" lon="1.84481">
        <ele>782.4</ele>
        <time>2024-06-30T11:44:27Z</time>
      </trkpt>
      <trkpt lat="42.71901" lon="1.84453">
        <ele>780.2</ele>
        <time>2024-06-30T11:44:29Z</time>
      </trkpt>
      <trkpt lat="42.71903" lon="1.84438">
        <ele>778</ele>
        <time>2024-06-30T11:44:30Z</time>
      </trkpt>
      <trkpt lat="42.71904" lon="1.84422">
        <ele>776.6</ele>
        <time>2024-06-30T11:44:31Z</time>
      </trkpt>
      <trkpt lat="42.71905" lon="1.84407">
        <ele>775</ele>
        <time>2024-06-30T11:44:32Z</time>
      </trkpt>
      <trkpt lat="42.71907" lon="1.84392">
        <ele>774</ele>
        <time>2024-06-30T11:44:33Z</time>
      </trkpt>
      <trkpt lat="42.71908" lon="1.8438">
        <ele>771.8</ele>
        <time>2024-06-30T11:44:34Z</time>
      </trkpt>
      <trkpt lat="42.7191" lon="1.84367">
        <ele>770.6</ele>
        <time>2024-06-30T11:44:35Z</time>
      </trkpt>
      <trkpt lat="42.7191" lon="1.84356">
        <ele>768.6</ele>
        <time>2024-06-30T11:44:36Z</time>
      </trkpt>
      <trkpt lat="42.71909" lon="1.84346">
        <ele>766</ele>
        <time>2024-06-30T11:44:37Z</time>
      </trkpt>
      <trkpt lat="42.71905" lon="1.84337">
        <ele>764.6</ele>
        <time>2024-06-30T11:44:38Z</time>
      </trkpt>
      <trkpt lat="42.71901" lon="1.84327">
        <ele>762.4</ele>
        <time>2024-06-30T11:44:39Z</time>
      </trkpt>
      <trkpt lat="42.71898" lon="1.84317">
        <ele>761</ele>
        <time>2024-06-30T11:44:40Z</time>
      </trkpt>
      <trkpt lat="42.71896" lon="1.84307">
        <ele>758.8</ele>
        <time>2024-06-30T11:44:41Z</time>
      </trkpt>
      <trkpt lat="42.71897" lon="1.84297">
        <ele>758</ele>
        <time>2024-06-30T11:44:42Z</time>
      </trkpt>
      <trkpt lat="42.71898" lon="1.84286">
        <ele>756</ele>
        <time>2024-06-30T11:44:43Z</time>
      </trkpt>
      <trkpt lat="42.719" lon="1.84277">
        <ele>754.8</ele>
        <time>2024-06-30T11:44:44Z</time>
      </trkpt>
      <trkpt lat="42.71902" lon="1.84269">
        <ele>752.8</ele>
        <time>2024-06-30T11:44:45Z</time>
      </trkpt>
      <trkpt lat="42.71901" lon="1.8426">
        <ele>750.6</ele>
        <time>2024-06-30T11:44:46Z</time>
      </trkpt>
      <trkpt lat="42.719" lon="1.84253">
        <ele>749.8</ele>
        <time>2024-06-30T11:44:47Z</time>
      </trkpt>
      <trkpt lat="42.71901" lon="1.84247">
        <ele>748.2</ele>
        <time>2024-06-30T11:44:48Z</time>
      </trkpt>
      <trkpt lat="42.71903" lon="1.84243">
        <ele>747.6</ele>
        <time>2024-06-30T11:44:49Z</time>
      </trkpt>
      <trkpt lat="42.71908" lon="1.84242">
        <ele>746.6</ele>
        <time>2024-06-30T11:44:50Z</time>
      </trkpt>
      <trkpt lat="42.71913" lon="1.84242">
        <ele>746</ele>
        <time>2024-06-30T11:44:51Z</time>
      </trkpt>
      <trkpt lat="42.71918" lon="1.84243">
        <ele>744.4</ele>
        <time>2024-06-30T11:44:52Z</time>
      </trkpt>
      <trkpt lat="42.71923" lon="1.84244">
        <ele>743.2</ele>
        <time>2024-06-30T11:44:53Z</time>
      </trkpt>
      <trkpt lat="42.71934" lon="1.84245">
        <ele>741.6</ele>
        <time>2024-06-30T11:44:55Z</time>
      </trkpt>
      <trkpt lat="42.7195" lon="1.84245">
        <ele>740.8</ele>
        <time>2024-06-30T11:44:58Z</time>
      </trkpt>
      <trkpt lat="42.71959" lon="1.84244">
        <ele>740.8</ele>
        <time>2024-06-30T11:45:00Z</time>
      </trkpt>
      <trkpt lat="42.71963" lon="1.84244">
        <ele>740.6</ele>
        <time>2024-06-30T11:45:01Z</time>
      </trkpt>
      <trkpt lat="42.71966" lon="1.84245">
        <ele>740.6</ele>
        <time>2024-06-30T11:45:02Z</time>
      </trkpt>
      <trkpt lat="42.71969" lon="1.84246">
        <ele>740.6</ele>
        <time>2024-06-30T11:45:03Z</time>
      </trkpt>
      <trkpt lat="42.71972" lon="1.84244">
        <ele>740.8</ele>
        <time>2024-06-30T11:45:04Z</time>
      </trkpt>
      <trkpt lat="42.71974" lon="1.8424">
        <ele>740.8</ele>
        <time>2024-06-30T11:45:05Z</time>
      </trkpt>
      <trkpt lat="42.71976" lon="1.84234">
        <ele>740.8</ele>
        <time>2024-06-30T11:45:06Z</time>
      </trkpt>
      <trkpt lat="42.7198" lon="1.84218">
        <ele>740.8</ele>
        <time>2024-06-30T11:45:08Z</time>
      </trkpt>
      <trkpt lat="42.71983" lon="1.8421">
        <ele>740.8</ele>
        <time>2024-06-30T11:45:09Z</time>
      </trkpt>
      <trkpt lat="42.71987" lon="1.84192">
        <ele>740.6</ele>
        <time>2024-06-30T11:45:11Z</time>
      </trkpt>
      <trkpt lat="42.71992" lon="1.84171">
        <ele>740.6</ele>
        <time>2024-06-30T11:45:13Z</time>
      </trkpt>
      <trkpt lat="42.71997" lon="1.84152">
        <ele>740</ele>
        <time>2024-06-30T11:45:15Z</time>
      </trkpt>
      <trkpt lat="42.72" lon="1.84142">
        <ele>739.8</ele>
        <time>2024-06-30T11:45:16Z</time>
      </trkpt>
      <trkpt lat="42.72002" lon="1.84133">
        <ele>739.4</ele>
        <time>2024-06-30T11:45:17Z</time>
      </trkpt>
      <trkpt lat="42.72005" lon="1.84123">
        <ele>738.8</ele>
        <time>2024-06-30T11:45:18Z</time>
      </trkpt>
      <trkpt lat="42.72007" lon="1.84112">
        <ele>738.4</ele>
        <time>2024-06-30T11:45:19Z</time>
      </trkpt>
      <trkpt lat="42.72014" lon="1.84082">
        <ele>737.2</ele>
        <time>2024-06-30T11:45:22Z</time>
      </trkpt>
      <trkpt lat="42.72019" lon="1.8406">
        <ele>736.4</ele>
        <time>2024-06-30T11:45:24Z</time>
      </trkpt>
      <trkpt lat="42.72022" lon="1.84049">
        <ele>735.8</ele>
        <time>2024-06-30T11:45:25Z</time>
      </trkpt>
      <trkpt lat="42.72027" lon="1.84025">
        <ele>734.8</ele>
        <time>2024-06-30T11:45:27Z</time>
      </trkpt>
      <trkpt lat="42.7203" lon="1.84013">
        <ele>734.4</ele>
        <time>2024-06-30T11:45:28Z</time>
      </trkpt>
      <trkpt lat="42.72033" lon="1.84003">
        <ele>733.6</ele>
        <time>2024-06-30T11:45:29Z</time>
      </trkpt>
      <trkpt lat="42.72035" lon="1.83995">
        <ele>733.4</ele>
        <time>2024-06-30T11:45:30Z</time>
      </trkpt>
      <trkpt lat="42.72037" lon="1.83988">
        <ele>732.8</ele>
        <time>2024-06-30T11:45:31Z</time>
      </trkpt>
      <trkpt lat="42.72039" lon="1.83982">
        <ele>732.2</ele>
        <time>2024-06-30T11:45:32Z</time>
      </trkpt>
      <trkpt lat="42.72041" lon="1.83975">
        <ele>731.8</ele>
        <time>2024-06-30T11:45:33Z</time>
      </trkpt>
      <trkpt lat="42.72041" lon="1.83968">
        <ele>730.6</ele>
        <time>2024-06-30T11:45:34Z</time>
      </trkpt>
      <trkpt lat="42.72039" lon="1.83961">
        <ele>730.4</ele>
        <time>2024-06-30T11:45:35Z</time>
      </trkpt>
      <trkpt lat="42.72035" lon="1.83956">
        <ele>729.2</ele>
        <time>2024-06-30T11:45:36Z</time>
      </trkpt>
      <trkpt lat="42.72031" lon="1.83953">
        <ele>728.8</ele>
        <time>2024-06-30T11:45:37Z</time>
      </trkpt>
      <trkpt lat="42.72026" lon="1.83952">
        <ele>728</ele>
        <time>2024-06-30T11:45:38Z</time>
      </trkpt>
      <trkpt lat="42.72015" lon="1.83952">
        <ele>727</ele>
        <time>2024-06-30T11:45:40Z</time>
      </trkpt>
      <trkpt lat="42.72009" lon="1.83954">
        <ele>726.6</ele>
        <time>2024-06-30T11:45:41Z</time>
      </trkpt>
      <trkpt lat="42.72003" lon="1.83958">
        <ele>726.4</ele>
        <time>2024-06-30T11:45:42Z</time>
      </trkpt>
      <trkpt lat="42.71998" lon="1.83962">
        <ele>726.2</ele>
        <time>2024-06-30T11:45:43Z</time>
      </trkpt>
      <trkpt lat="42.71994" lon="1.83967">
        <ele>726.2</ele>
        <time>2024-06-30T11:45:44Z</time>
      </trkpt>
      <trkpt lat="42.7199" lon="1.83972">
        <ele>726.2</ele>
        <time>2024-06-30T11:45:45Z</time>
      </trkpt>
      <trkpt lat="42.71987" lon="1.83978">
        <ele>726.2</ele>
        <time>2024-06-30T11:45:46Z</time>
      </trkpt>
      <trkpt lat="42.71981" lon="1.83991">
        <ele>726.2</ele>
        <time>2024-06-30T11:45:48Z</time>
      </trkpt>
      <trkpt lat="42.71969" lon="1.84033">
        <ele>726.8</ele>
        <time>2024-06-30T11:45:54Z</time>
      </trkpt>
      <trkpt lat="42.71967" lon="1.84039">
        <ele>727</ele>
        <time>2024-06-30T11:45:55Z</time>
      </trkpt>
      <trkpt lat="42.71965" lon="1.84044">
        <ele>727.2</ele>
        <time>2024-06-30T11:45:56Z</time>
      </trkpt>
      <trkpt lat="42.7196" lon="1.84047">
        <ele>727.4</ele>
        <time>2024-06-30T11:45:57Z</time>
      </trkpt>
      <trkpt lat="42.71955" lon="1.84048">
        <ele>727.6</ele>
        <time>2024-06-30T11:45:58Z</time>
      </trkpt>
      <trkpt lat="42.71949" lon="1.84048">
        <ele>728</ele>
        <time>2024-06-30T11:45:59Z</time>
      </trkpt>
      <trkpt lat="42.71929" lon="1.84049">
        <ele>728.4</ele>
        <time>2024-06-30T11:46:03Z</time>
      </trkpt>
      <trkpt lat="42.71923" lon="1.84049">
        <ele>729</ele>
        <time>2024-06-30T11:46:04Z</time>
      </trkpt>
      <trkpt lat="42.71919" lon="1.8405">
        <ele>729.2</ele>
        <time>2024-06-30T11:46:05Z</time>
      </trkpt>
      <trkpt lat="42.71914" lon="1.8405">
        <ele>729.4</ele>
        <time>2024-06-30T11:46:06Z</time>
      </trkpt>
      <trkpt lat="42.71909" lon="1.8405">
        <ele>729.6</ele>
        <time>2024-06-30T11:46:07Z</time>
      </trkpt>
      <trkpt lat="42.719" lon="1.8405">
        <ele>730</ele>
        <time>2024-06-30T11:46:09Z</time>
      </trkpt>
      <trkpt lat="42.71895" lon="1.8405">
        <ele>730.2</ele>
        <time>2024-06-30T11:46:10Z</time>
      </trkpt>
      <trkpt lat="42.71891" lon="1.84051">
        <ele>730.6</ele>
        <time>2024-06-30T11:46:11Z</time>
      </trkpt>
      <trkpt lat="42.71887" lon="1.84051">
        <ele>730.8</ele>
        <time>2024-06-30T11:46:12Z</time>
      </trkpt>
      <trkpt lat="42.71882" lon="1.84052">
        <ele>731</ele>
        <time>2024-06-30T11:46:13Z</time>
      </trkpt>
      <trkpt lat="42.71878" lon="1.84052">
        <ele>731.4</ele>
        <time>2024-06-30T11:46:14Z</time>
      </trkpt>
      <trkpt lat="42.71874" lon="1.84052">
        <ele>731.6</ele>
        <time>2024-06-30T11:46:15Z</time>
      </trkpt>
      <trkpt lat="42.7187" lon="1.84052">
        <ele>731.8</ele>
        <time>2024-06-30T11:46:16Z</time>
      </trkpt>
      <trkpt lat="42.71866" lon="1.84052">
        <ele>732</ele>
        <time>2024-06-30T11:46:17Z</time>
      </trkpt>
      <trkpt lat="42.71862" lon="1.84052">
        <ele>732.2</ele>
        <time>2024-06-30T11:46:18Z</time>
      </trkpt>
      <trkpt lat="42.71858" lon="1.84052">
        <ele>732.4</ele>
        <time>2024-06-30T11:46:19Z</time>
      </trkpt>
      <trkpt lat="42.71854" lon="1.84052">
        <ele>732.8</ele>
        <time>2024-06-30T11:46:20Z</time>
      </trkpt>
      <trkpt lat="42.7185" lon="1.84053">
        <ele>733</ele>
        <time>2024-06-30T11:46:21Z</time>
      </trkpt>
      <trkpt lat="42.71846" lon="1.84053">
        <ele>733.2</ele>
        <time>2024-06-30T11:46:22Z</time>
      </trkpt>
      <trkpt lat="42.71842" lon="1.84053">
        <ele>733.2</ele>
        <time>2024-06-30T11:46:23Z</time>
      </trkpt>
      <trkpt lat="42.71838" lon="1.84053">
        <ele>733.6</ele>
        <time>2024-06-30T11:46:24Z</time>
      </trkpt>
      <trkpt lat="42.71834" lon="1.84054">
        <ele>733.6</ele>
        <time>2024-06-30T11:46:25Z</time>
      </trkpt>
      <trkpt lat="42.7183" lon="1.84054">
        <ele>734</ele>
        <time>2024-06-30T11:46:26Z</time>
      </trkpt>
      <trkpt lat="42.71826" lon="1.84054">
        <ele>734.4</ele>
        <time>2024-06-30T11:46:27Z</time>
      </trkpt>
      <trkpt lat="42.71822" lon="1.84054">
        <ele>734.6</ele>
        <time>2024-06-30T11:46:28Z</time>
      </trkpt>
      <trkpt lat="42.71818" lon="1.84054">
        <ele>735</ele>
        <time>2024-06-30T11:46:29Z</time>
      </trkpt>
      <trkpt lat="42.71814" lon="1.84054">
        <ele>735</ele>
        <time>2024-06-30T11:46:30Z</time>
      </trkpt>
      <trkpt lat="42.71809" lon="1.84055">
        <ele>735.4</ele>
        <time>2024-06-30T11:46:31Z</time>
      </trkpt>
      <trkpt lat="42.71805" lon="1.84056">
        <ele>735.6</ele>
        <time>2024-06-30T11:46:32Z</time>
      </trkpt>
      <trkpt lat="42.71801" lon="1.84056">
        <ele>735.8</ele>
        <time>2024-06-30T11:46:33Z</time>
      </trkpt>
      <trkpt lat="42.71796" lon="1.84057">
        <ele>736.2</ele>
        <time>2024-06-30T11:46:34Z</time>
      </trkpt>
      <trkpt lat="42.71792" lon="1.84058">
        <ele>736.4</ele>
        <time>2024-06-30T11:46:35Z</time>
      </trkpt>
      <trkpt lat="42.71788" lon="1.84057">
        <ele>736.6</ele>
        <time>2024-06-30T11:46:36Z</time>
      </trkpt>
      <trkpt lat="42.71783" lon="1.84057">
        <ele>736.6</ele>
        <time>2024-06-30T11:46:37Z</time>
      </trkpt>
      <trkpt lat="42.71779" lon="1.84058">
        <ele>737</ele>
        <time>2024-06-30T11:46:38Z</time>
      </trkpt>
      <trkpt lat="42.71775" lon="1.84057">
        <ele>737.2</ele>
        <time>2024-06-30T11:46:39Z</time>
      </trkpt>
      <trkpt lat="42.7177" lon="1.84056">
        <ele>737.6</ele>
        <time>2024-06-30T11:46:40Z</time>
      </trkpt>
      <trkpt lat="42.71766" lon="1.84055">
        <ele>738.2</ele>
        <time>2024-06-30T11:46:41Z</time>
      </trkpt>
      <trkpt lat="42.71762" lon="1.84055">
        <ele>738.2</ele>
        <time>2024-06-30T11:46:42Z</time>
      </trkpt>
      <trkpt lat="42.71758" lon="1.84055">
        <ele>738.6</ele>
        <time>2024-06-30T11:46:43Z</time>
      </trkpt>
      <trkpt lat="42.71754" lon="1.84056">
        <ele>738.6</ele>
        <time>2024-06-30T11:46:44Z</time>
      </trkpt>
      <trkpt lat="42.7175" lon="1.84056">
        <ele>739</ele>
        <time>2024-06-30T11:46:45Z</time>
      </trkpt>
      <trkpt lat="42.71746" lon="1.84056">
        <ele>739</ele>
        <time>2024-06-30T11:46:46Z</time>
      </trkpt>
      <trkpt lat="42.71742" lon="1.84055">
        <ele>739.2</ele>
        <time>2024-06-30T11:46:47Z</time>
      </trkpt>
      <trkpt lat="42.71738" lon="1.84054">
        <ele>739.4</ele>
        <time>2024-06-30T11:46:48Z</time>
      </trkpt>
      <trkpt lat="42.71734" lon="1.84054">
        <ele>739.8</ele>
        <time>2024-06-30T11:46:49Z</time>
      </trkpt>
      <trkpt lat="42.71729" lon="1.84053">
        <ele>740</ele>
        <time>2024-06-30T11:46:50Z</time>
      </trkpt>
      <trkpt lat="42.71725" lon="1.84053">
        <ele>740.2</ele>
        <time>2024-06-30T11:46:51Z</time>
      </trkpt>
      <trkpt lat="42.71721" lon="1.84052">
        <ele>740.4</ele>
        <time>2024-06-30T11:46:52Z</time>
      </trkpt>
      <trkpt lat="42.71717" lon="1.84052">
        <ele>740.6</ele>
        <time>2024-06-30T11:46:53Z</time>
      </trkpt>
      <trkpt lat="42.71712" lon="1.84051">
        <ele>741.2</ele>
        <time>2024-06-30T11:46:54Z</time>
      </trkpt>
      <trkpt lat="42.71708" lon="1.84051">
        <ele>741.4</ele>
        <time>2024-06-30T11:46:55Z</time>
      </trkpt>
      <trkpt lat="42.71704" lon="1.8405">
        <ele>741.6</ele>
        <time>2024-06-30T11:46:56Z</time>
      </trkpt>
      <trkpt lat="42.717" lon="1.8405">
        <ele>741.8</ele>
        <time>2024-06-30T11:46:57Z</time>
      </trkpt>
      <trkpt lat="42.71696" lon="1.8405">
        <ele>742</ele>
        <time>2024-06-30T11:46:58Z</time>
      </trkpt>
      <trkpt lat="42.71691" lon="1.84049">
        <ele>742.2</ele>
        <time>2024-06-30T11:46:59Z</time>
      </trkpt>
      <trkpt lat="42.71687" lon="1.84048">
        <ele>742.2</ele>
        <time>2024-06-30T11:47:00Z</time>
      </trkpt>
      <trkpt lat="42.71683" lon="1.84047">
        <ele>742.6</ele>
        <time>2024-06-30T11:47:01Z</time>
      </trkpt>
      <trkpt lat="42.71678" lon="1.84046">
        <ele>742.8</ele>
        <time>2024-06-30T11:47:03Z</time>
      </trkpt>
      <trkpt lat="42.71674" lon="1.84046">
        <ele>743.2</ele>
        <time>2024-06-30T11:47:04Z</time>
      </trkpt>
      <trkpt lat="42.71669" lon="1.84045">
        <ele>743.6</ele>
        <time>2024-06-30T11:47:05Z</time>
      </trkpt>
      <trkpt lat="42.71665" lon="1.84045">
        <ele>743.8</ele>
        <time>2024-06-30T11:47:06Z</time>
      </trkpt>
      <trkpt lat="42.71661" lon="1.84044">
        <ele>744.2</ele>
        <time>2024-06-30T11:47:07Z</time>
      </trkpt>
      <trkpt lat="42.71656" lon="1.84043">
        <ele>744.4</ele>
        <time>2024-06-30T11:47:08Z</time>
      </trkpt>
      <trkpt lat="42.71652" lon="1.84043">
        <ele>744.6</ele>
        <time>2024-06-30T11:47:09Z</time>
      </trkpt>
      <trkpt lat="42.71648" lon="1.84043">
        <ele>744.8</ele>
        <time>2024-06-30T11:47:10Z</time>
      </trkpt>
      <trkpt lat="42.71643" lon="1.84042">
        <ele>745</ele>
        <time>2024-06-30T11:47:11Z</time>
      </trkpt>
      <trkpt lat="42.71639" lon="1.84042">
        <ele>745</ele>
        <time>2024-06-30T11:47:12Z</time>
      </trkpt>
      <trkpt lat="42.71635" lon="1.84041">
        <ele>745.4</ele>
        <time>2024-06-30T11:47:13Z</time>
      </trkpt>
      <trkpt lat="42.7163" lon="1.84041">
        <ele>745.8</ele>
        <time>2024-06-30T11:47:14Z</time>
      </trkpt>
      <trkpt lat="42.71625" lon="1.84041">
        <ele>746</ele>
        <time>2024-06-30T11:47:15Z</time>
      </trkpt>
      <trkpt lat="42.71621" lon="1.8404">
        <ele>746.2</ele>
        <time>2024-06-30T11:47:16Z</time>
      </trkpt>
      <trkpt lat="42.71617" lon="1.8404">
        <ele>746.6</ele>
        <time>2024-06-30T11:47:17Z</time>
      </trkpt>
      <trkpt lat="42.71613" lon="1.84039">
        <ele>747</ele>
        <time>2024-06-30T11:47:18Z</time>
      </trkpt>
      <trkpt lat="42.71608" lon="1.84038">
        <ele>747.2</ele>
        <time>2024-06-30T11:47:19Z</time>
      </trkpt>
      <trkpt lat="42.71604" lon="1.84038">
        <ele>747.4</ele>
        <time>2024-06-30T11:47:20Z</time>
      </trkpt>
      <trkpt lat="42.716" lon="1.84037">
        <ele>747.6</ele>
        <time>2024-06-30T11:47:21Z</time>
      </trkpt>
      <trkpt lat="42.71595" lon="1.84037">
        <ele>747.6</ele>
        <time>2024-06-30T11:47:22Z</time>
      </trkpt>
      <trkpt lat="42.71591" lon="1.84037">
        <ele>747.8</ele>
        <time>2024-06-30T11:47:23Z</time>
      </trkpt>
      <trkpt lat="42.71586" lon="1.84036">
        <ele>747.8</ele>
        <time>2024-06-30T11:47:24Z</time>
      </trkpt>
      <trkpt lat="42.71582" lon="1.84036">
        <ele>748.2</ele>
        <time>2024-06-30T11:47:25Z</time>
      </trkpt>
      <trkpt lat="42.71577" lon="1.84035">
        <ele>748.4</ele>
        <time>2024-06-30T11:47:26Z</time>
      </trkpt>
      <trkpt lat="42.71573" lon="1.84035">
        <ele>748.8</ele>
        <time>2024-06-30T11:47:27Z</time>
      </trkpt>
      <trkpt lat="42.71568" lon="1.84034">
        <ele>749</ele>
        <time>2024-06-30T11:47:28Z</time>
      </trkpt>
      <trkpt lat="42.71564" lon="1.84033">
        <ele>749</ele>
        <time>2024-06-30T11:47:29Z</time>
      </trkpt>
      <trkpt lat="42.71559" lon="1.84033">
        <ele>749.2</ele>
        <time>2024-06-30T11:47:30Z</time>
      </trkpt>
      <trkpt lat="42.71554" lon="1.84032">
        <ele>749.4</ele>
        <time>2024-06-30T11:47:31Z</time>
      </trkpt>
      <trkpt lat="42.7155" lon="1.84032">
        <ele>749.8</ele>
        <time>2024-06-30T11:47:32Z</time>
      </trkpt>
      <trkpt lat="42.71546" lon="1.84031">
        <ele>750</ele>
        <time>2024-06-30T11:47:33Z</time>
      </trkpt>
      <trkpt lat="42.71541" lon="1.84031">
        <ele>750.2</ele>
        <time>2024-06-30T11:47:34Z</time>
      </trkpt>
      <trkpt lat="42.71537" lon="1.84031">
        <ele>750.6</ele>
        <time>2024-06-30T11:47:35Z</time>
      </trkpt>
      <trkpt lat="42.71532" lon="1.84033">
        <ele>750.6</ele>
        <time>2024-06-30T11:47:36Z</time>
      </trkpt>
      <trkpt lat="42.71527" lon="1.84034">
        <ele>750.8</ele>
        <time>2024-06-30T11:47:37Z</time>
      </trkpt>
      <trkpt lat="42.71522" lon="1.84036">
        <ele>751</ele>
        <time>2024-06-30T11:47:38Z</time>
      </trkpt>
      <trkpt lat="42.71518" lon="1.84038">
        <ele>751.4</ele>
        <time>2024-06-30T11:47:39Z</time>
      </trkpt>
      <trkpt lat="42.71513" lon="1.84039">
        <ele>751.6</ele>
        <time>2024-06-30T11:47:40Z</time>
      </trkpt>
      <trkpt lat="42.71508" lon="1.84041">
        <ele>751.6</ele>
        <time>2024-06-30T11:47:41Z</time>
      </trkpt>
      <trkpt lat="42.71504" lon="1.84043">
        <ele>751.8</ele>
        <time>2024-06-30T11:47:42Z</time>
      </trkpt>
      <trkpt lat="42.715" lon="1.84045">
        <ele>752.2</ele>
        <time>2024-06-30T11:47:43Z</time>
      </trkpt>
      <trkpt lat="42.71495" lon="1.84046">
        <ele>752.4</ele>
        <time>2024-06-30T11:47:44Z</time>
      </trkpt>
      <trkpt lat="42.71491" lon="1.84048">
        <ele>752.4</ele>
        <time>2024-06-30T11:47:45Z</time>
      </trkpt>
      <trkpt lat="42.71486" lon="1.8405">
        <ele>752.8</ele>
        <time>2024-06-30T11:47:46Z</time>
      </trkpt>
      <trkpt lat="42.71481" lon="1.84052">
        <ele>752.8</ele>
        <time>2024-06-30T11:47:47Z</time>
      </trkpt>
      <trkpt lat="42.71477" lon="1.84054">
        <ele>753.2</ele>
        <time>2024-06-30T11:47:48Z</time>
      </trkpt>
      <trkpt lat="42.71472" lon="1.84056">
        <ele>753.6</ele>
        <time>2024-06-30T11:47:49Z</time>
      </trkpt>
      <trkpt lat="42.71468" lon="1.84058">
        <ele>754</ele>
        <time>2024-06-30T11:47:50Z</time>
      </trkpt>
      <trkpt lat="42.71464" lon="1.84059">
        <ele>754.4</ele>
        <time>2024-06-30T11:47:51Z</time>
      </trkpt>
      <trkpt lat="42.7146" lon="1.8406">
        <ele>754.6</ele>
        <time>2024-06-30T11:47:52Z</time>
      </trkpt>
      <trkpt lat="42.71455" lon="1.84062">
        <ele>755</ele>
        <time>2024-06-30T11:47:53Z</time>
      </trkpt>
      <trkpt lat="42.71451" lon="1.84064">
        <ele>755.2</ele>
        <time>2024-06-30T11:47:54Z</time>
      </trkpt>
      <trkpt lat="42.71446" lon="1.84065">
        <ele>755.6</ele>
        <time>2024-06-30T11:47:55Z</time>
      </trkpt>
      <trkpt lat="42.71442" lon="1.84065">
        <ele>755.6</ele>
        <time>2024-06-30T11:47:56Z</time>
      </trkpt>
      <trkpt lat="42.71437" lon="1.84064">
        <ele>755.8</ele>
        <time>2024-06-30T11:47:57Z</time>
      </trkpt>
      <trkpt lat="42.71433" lon="1.84061">
        <ele>756.2</ele>
        <time>2024-06-30T11:47:58Z</time>
      </trkpt>
      <trkpt lat="42.71429" lon="1.84057">
        <ele>756.4</ele>
        <time>2024-06-30T11:47:59Z</time>
      </trkpt>
      <trkpt lat="42.71425" lon="1.84053">
        <ele>756.8</ele>
        <time>2024-06-30T11:48:00Z</time>
      </trkpt>
      <trkpt lat="42.71422" lon="1.84047">
        <ele>756.8</ele>
        <time>2024-06-30T11:48:01Z</time>
      </trkpt>
      <trkpt lat="42.7142" lon="1.84041">
        <ele>757</ele>
        <time>2024-06-30T11:48:02Z</time>
      </trkpt>
      <trkpt lat="42.71417" lon="1.84036">
        <ele>757</ele>
        <time>2024-06-30T11:48:03Z</time>
      </trkpt>
      <trkpt lat="42.71415" lon="1.8403">
        <ele>757.4</ele>
        <time>2024-06-30T11:48:04Z</time>
      </trkpt>
      <trkpt lat="42.71412" lon="1.84024">
        <ele>757.6</ele>
        <time>2024-06-30T11:48:05Z</time>
      </trkpt>
      <trkpt lat="42.7141" lon="1.84018">
        <ele>757.8</ele>
        <time>2024-06-30T11:48:06Z</time>
      </trkpt>
      <trkpt lat="42.71407" lon="1.84012">
        <ele>757.8</ele>
        <time>2024-06-30T11:48:07Z</time>
      </trkpt>
      <trkpt lat="42.71405" lon="1.84006">
        <ele>758</ele>
        <time>2024-06-30T11:48:08Z</time>
      </trkpt>
      <trkpt lat="42.71403" lon="1.84">
        <ele>758.4</ele>
        <time>2024-06-30T11:48:09Z</time>
      </trkpt>
      <trkpt lat="42.71401" lon="1.83995">
        <ele>758.4</ele>
        <time>2024-06-30T11:48:10Z</time>
      </trkpt>
      <trkpt lat="42.71398" lon="1.83989">
        <ele>758.6</ele>
        <time>2024-06-30T11:48:11Z</time>
      </trkpt>
      <trkpt lat="42.71396" lon="1.83984">
        <ele>758.8</ele>
        <time>2024-06-30T11:48:12Z</time>
      </trkpt>
      <trkpt lat="42.71394" lon="1.83978">
        <ele>758.8</ele>
        <time>2024-06-30T11:48:13Z</time>
      </trkpt>
      <trkpt lat="42.71392" lon="1.83973">
        <ele>759.2</ele>
        <time>2024-06-30T11:48:14Z</time>
      </trkpt>
      <trkpt lat="42.7139" lon="1.83967">
        <ele>759.4</ele>
        <time>2024-06-30T11:48:15Z</time>
      </trkpt>
      <trkpt lat="42.71389" lon="1.83962">
        <ele>759.6</ele>
        <time>2024-06-30T11:48:16Z</time>
      </trkpt>
      <trkpt lat="42.71388" lon="1.83956">
        <ele>759.6</ele>
        <time>2024-06-30T11:48:17Z</time>
      </trkpt>
      <trkpt lat="42.71386" lon="1.8395">
        <ele>759.8</ele>
        <time>2024-06-30T11:48:18Z</time>
      </trkpt>
      <trkpt lat="42.71385" lon="1.83943">
        <ele>760</ele>
        <time>2024-06-30T11:48:19Z</time>
      </trkpt>
      <trkpt lat="42.71384" lon="1.83937">
        <ele>760.4</ele>
        <time>2024-06-30T11:48:20Z</time>
      </trkpt>
      <trkpt lat="42.71382" lon="1.83932">
        <ele>760.6</ele>
        <time>2024-06-30T11:48:21Z</time>
      </trkpt>
      <trkpt lat="42.71381" lon="1.83926">
        <ele>760.8</ele>
        <time>2024-06-30T11:48:22Z</time>
      </trkpt>
      <trkpt lat="42.7138" lon="1.83921">
        <ele>761.4</ele>
        <time>2024-06-30T11:48:23Z</time>
      </trkpt>
      <trkpt lat="42.71379" lon="1.83915">
        <ele>761.6</ele>
        <time>2024-06-30T11:48:24Z</time>
      </trkpt>
      <trkpt lat="42.71377" lon="1.83909">
        <ele>762</ele>
        <time>2024-06-30T11:48:25Z</time>
      </trkpt>
      <trkpt lat="42.71376" lon="1.83904">
        <ele>762.2</ele>
        <time>2024-06-30T11:48:26Z</time>
      </trkpt>
      <trkpt lat="42.71375" lon="1.83898">
        <ele>762.6</ele>
        <time>2024-06-30T11:48:27Z</time>
      </trkpt>
      <trkpt lat="42.71373" lon="1.83893">
        <ele>762.8</ele>
        <time>2024-06-30T11:48:28Z</time>
      </trkpt>
      <trkpt lat="42.71372" lon="1.83887">
        <ele>763</ele>
        <time>2024-06-30T11:48:29Z</time>
      </trkpt>
      <trkpt lat="42.7137" lon="1.83882">
        <ele>763.2</ele>
        <time>2024-06-30T11:48:30Z</time>
      </trkpt>
      <trkpt lat="42.71368" lon="1.83878">
        <ele>763.4</ele>
        <time>2024-06-30T11:48:31Z</time>
      </trkpt>
      <trkpt lat="42.71367" lon="1.83873">
        <ele>763.6</ele>
        <time>2024-06-30T11:48:32Z</time>
      </trkpt>
      <trkpt lat="42.71366" lon="1.83869">
        <ele>763.8</ele>
        <time>2024-06-30T11:48:33Z</time>
      </trkpt>
      <trkpt lat="42.71363" lon="1.83863">
        <ele>764.2</ele>
        <time>2024-06-30T11:48:34Z</time>
      </trkpt>
      <trkpt lat="42.71362" lon="1.83858">
        <ele>764.4</ele>
        <time>2024-06-30T11:48:35Z</time>
      </trkpt>
      <trkpt lat="42.71362" lon="1.83853">
        <ele>764.6</ele>
        <time>2024-06-30T11:48:36Z</time>
      </trkpt>
      <trkpt lat="42.71363" lon="1.83848">
        <ele>765</ele>
        <time>2024-06-30T11:48:37Z</time>
      </trkpt>
      <trkpt lat="42.71365" lon="1.83842">
        <ele>765</ele>
        <time>2024-06-30T11:48:38Z</time>
      </trkpt>
      <trkpt lat="42.71367" lon="1.83838">
        <ele>765.2</ele>
        <time>2024-06-30T11:48:39Z</time>
      </trkpt>
      <trkpt lat="42.7137" lon="1.83835">
        <ele>765.4</ele>
        <time>2024-06-30T11:48:40Z</time>
      </trkpt>
      <trkpt lat="42.71372" lon="1.83831">
        <ele>765.6</ele>
        <time>2024-06-30T11:48:41Z</time>
      </trkpt>
      <trkpt lat="42.71374" lon="1.83828">
        <ele>766</ele>
        <time>2024-06-30T11:48:42Z</time>
      </trkpt>
      <trkpt lat="42.71377" lon="1.83823">
        <ele>766</ele>
        <time>2024-06-30T11:48:43Z</time>
      </trkpt>
      <trkpt lat="42.71378" lon="1.83818">
        <ele>766.4</ele>
        <time>2024-06-30T11:48:44Z</time>
      </trkpt>
      <trkpt lat="42.7138" lon="1.83814">
        <ele>766.8</ele>
        <time>2024-06-30T11:48:45Z</time>
      </trkpt>
      <trkpt lat="42.71382" lon="1.83809">
        <ele>767.4</ele>
        <time>2024-06-30T11:48:46Z</time>
      </trkpt>
      <trkpt lat="42.71384" lon="1.83805">
        <ele>767.8</ele>
        <time>2024-06-30T11:48:47Z</time>
      </trkpt>
      <trkpt lat="42.71386" lon="1.838">
        <ele>768.4</ele>
        <time>2024-06-30T11:48:48Z</time>
      </trkpt>
      <trkpt lat="42.71389" lon="1.83796">
        <ele>768.6</ele>
        <time>2024-06-30T11:48:49Z</time>
      </trkpt>
      <trkpt lat="42.71391" lon="1.83792">
        <ele>768.8</ele>
        <time>2024-06-30T11:48:50Z</time>
      </trkpt>
      <trkpt lat="42.71394" lon="1.83789">
        <ele>769.4</ele>
        <time>2024-06-30T11:48:51Z</time>
      </trkpt>
      <trkpt lat="42.71396" lon="1.83786">
        <ele>769.6</ele>
        <time>2024-06-30T11:48:52Z</time>
      </trkpt>
      <trkpt lat="42.714" lon="1.83782">
        <ele>770</ele>
        <time>2024-06-30T11:48:53Z</time>
      </trkpt>
      <trkpt lat="42.71403" lon="1.8378">
        <ele>770.2</ele>
        <time>2024-06-30T11:48:54Z</time>
      </trkpt>
      <trkpt lat="42.71406" lon="1.83778">
        <ele>770.8</ele>
        <time>2024-06-30T11:48:55Z</time>
      </trkpt>
      <trkpt lat="42.71409" lon="1.83775">
        <ele>771</ele>
        <time>2024-06-30T11:48:56Z</time>
      </trkpt>
      <trkpt lat="42.71412" lon="1.83774">
        <ele>771.4</ele>
        <time>2024-06-30T11:48:57Z</time>
      </trkpt>
      <trkpt lat="42.71416" lon="1.83772">
        <ele>772.2</ele>
        <time>2024-06-30T11:48:58Z</time>
      </trkpt>
      <trkpt lat="42.7142" lon="1.83771">
        <ele>772.4</ele>
        <time>2024-06-30T11:48:59Z</time>
      </trkpt>
      <trkpt lat="42.71423" lon="1.83769">
        <ele>772.8</ele>
        <time>2024-06-30T11:49:00Z</time>
      </trkpt>
      <trkpt lat="42.71425" lon="1.83768">
        <ele>773.2</ele>
        <time>2024-06-30T11:49:01Z</time>
      </trkpt>
      <trkpt lat="42.71429" lon="1.83767">
        <ele>773.6</ele>
        <time>2024-06-30T11:49:02Z</time>
      </trkpt>
      <trkpt lat="42.71433" lon="1.83765">
        <ele>773.8</ele>
        <time>2024-06-30T11:49:03Z</time>
      </trkpt>
      <trkpt lat="42.71436" lon="1.83764">
        <ele>774.2</ele>
        <time>2024-06-30T11:49:04Z</time>
      </trkpt>
      <trkpt lat="42.71439" lon="1.83763">
        <ele>774.6</ele>
        <time>2024-06-30T11:49:05Z</time>
      </trkpt>
      <trkpt lat="42.71442" lon="1.83763">
        <ele>774.8</ele>
        <time>2024-06-30T11:49:06Z</time>
      </trkpt>
      <trkpt lat="42.71446" lon="1.83761">
        <ele>775.2</ele>
        <time>2024-06-30T11:49:07Z</time>
      </trkpt>
      <trkpt lat="42.71449" lon="1.83759">
        <ele>775.6</ele>
        <time>2024-06-30T11:49:08Z</time>
      </trkpt>
      <trkpt lat="42.71452" lon="1.83758">
        <ele>776</ele>
        <time>2024-06-30T11:49:09Z</time>
      </trkpt>
      <trkpt lat="42.71456" lon="1.83756">
        <ele>776.2</ele>
        <time>2024-06-30T11:49:10Z</time>
      </trkpt>
      <trkpt lat="42.71459" lon="1.83754">
        <ele>776.8</ele>
        <time>2024-06-30T11:49:11Z</time>
      </trkpt>
      <trkpt lat="42.71463" lon="1.83752">
        <ele>777.4</ele>
        <time>2024-06-30T11:49:12Z</time>
      </trkpt>
      <trkpt lat="42.71466" lon="1.8375">
        <ele>777.6</ele>
        <time>2024-06-30T11:49:13Z</time>
      </trkpt>
      <trkpt lat="42.7147" lon="1.83748">
        <ele>777.8</ele>
        <time>2024-06-30T11:49:14Z</time>
      </trkpt>
      <trkpt lat="42.71474" lon="1.83746">
        <ele>778</ele>
        <time>2024-06-30T11:49:15Z</time>
      </trkpt>
      <trkpt lat="42.71478" lon="1.83744">
        <ele>778.6</ele>
        <time>2024-06-30T11:49:16Z</time>
      </trkpt>
      <trkpt lat="42.71481" lon="1.83743">
        <ele>779</ele>
        <time>2024-06-30T11:49:17Z</time>
      </trkpt>
      <trkpt lat="42.71485" lon="1.83743">
        <ele>779.4</ele>
        <time>2024-06-30T11:49:18Z</time>
      </trkpt>
      <trkpt lat="42.71489" lon="1.83742">
        <ele>779.8</ele>
        <time>2024-06-30T11:49:19Z</time>
      </trkpt>
      <trkpt lat="42.71493" lon="1.83741">
        <ele>779.8</ele>
        <time>2024-06-30T11:49:20Z</time>
      </trkpt>
      <trkpt lat="42.71497" lon="1.8374">
        <ele>780.4</ele>
        <time>2024-06-30T11:49:21Z</time>
      </trkpt>
      <trkpt lat="42.71501" lon="1.83738">
        <ele>780.6</ele>
        <time>2024-06-30T11:49:22Z</time>
      </trkpt>
      <trkpt lat="42.71505" lon="1.83736">
        <ele>781</ele>
        <time>2024-06-30T11:49:23Z</time>
      </trkpt>
      <trkpt lat="42.71509" lon="1.83735">
        <ele>781.2</ele>
        <time>2024-06-30T11:49:24Z</time>
      </trkpt>
      <trkpt lat="42.71513" lon="1.83733">
        <ele>781.4</ele>
        <time>2024-06-30T11:49:25Z</time>
      </trkpt>
      <trkpt lat="42.71517" lon="1.83732">
        <ele>781.6</ele>
        <time>2024-06-30T11:49:26Z</time>
      </trkpt>
      <trkpt lat="42.71521" lon="1.83731">
        <ele>781.8</ele>
        <time>2024-06-30T11:49:27Z</time>
      </trkpt>
      <trkpt lat="42.71525" lon="1.8373">
        <ele>782</ele>
        <time>2024-06-30T11:49:28Z</time>
      </trkpt>
      <trkpt lat="42.71529" lon="1.83729">
        <ele>782</ele>
        <time>2024-06-30T11:49:29Z</time>
      </trkpt>
      <trkpt lat="42.71533" lon="1.83727">
        <ele>782.2</ele>
        <time>2024-06-30T11:49:30Z</time>
      </trkpt>
      <trkpt lat="42.71537" lon="1.83726">
        <ele>782.6</ele>
        <time>2024-06-30T11:49:31Z</time>
      </trkpt>
      <trkpt lat="42.71542" lon="1.83726">
        <ele>782.8</ele>
        <time>2024-06-30T11:49:32Z</time>
      </trkpt>
      <trkpt lat="42.71546" lon="1.83726">
        <ele>782.8</ele>
        <time>2024-06-30T11:49:33Z</time>
      </trkpt>
      <trkpt lat="42.71551" lon="1.83726">
        <ele>783</ele>
        <time>2024-06-30T11:49:34Z</time>
      </trkpt>
      <trkpt lat="42.71556" lon="1.83726">
        <ele>783.4</ele>
        <time>2024-06-30T11:49:35Z</time>
      </trkpt>
      <trkpt lat="42.71561" lon="1.83728">
        <ele>783.6</ele>
        <time>2024-06-30T11:49:36Z</time>
      </trkpt>
      <trkpt lat="42.71567" lon="1.83729">
        <ele>783.8</ele>
        <time>2024-06-30T11:49:37Z</time>
      </trkpt>
      <trkpt lat="42.71572" lon="1.83731">
        <ele>783.8</ele>
        <time>2024-06-30T11:49:38Z</time>
      </trkpt>
      <trkpt lat="42.71576" lon="1.83734">
        <ele>784.2</ele>
        <time>2024-06-30T11:49:39Z</time>
      </trkpt>
      <trkpt lat="42.71579" lon="1.83737">
        <ele>784.2</ele>
        <time>2024-06-30T11:49:40Z</time>
      </trkpt>
      <trkpt lat="42.71583" lon="1.8374">
        <ele>784.4</ele>
        <time>2024-06-30T11:49:41Z</time>
      </trkpt>
      <trkpt lat="42.71587" lon="1.83744">
        <ele>784.6</ele>
        <time>2024-06-30T11:49:42Z</time>
      </trkpt>
      <trkpt lat="42.7159" lon="1.83748">
        <ele>784.8</ele>
        <time>2024-06-30T11:49:43Z</time>
      </trkpt>
      <trkpt lat="42.71593" lon="1.83751">
        <ele>785</ele>
        <time>2024-06-30T11:49:44Z</time>
      </trkpt>
      <trkpt lat="42.71597" lon="1.83756">
        <ele>785</ele>
        <time>2024-06-30T11:49:45Z</time>
      </trkpt>
      <trkpt lat="42.71599" lon="1.8376">
        <ele>785</ele>
        <time>2024-06-30T11:49:46Z</time>
      </trkpt>
      <trkpt lat="42.71601" lon="1.83765">
        <ele>785.2</ele>
        <time>2024-06-30T11:49:47Z</time>
      </trkpt>
      <trkpt lat="42.71602" lon="1.83771">
        <ele>785</ele>
        <time>2024-06-30T11:49:48Z</time>
      </trkpt>
      <trkpt lat="42.71602" lon="1.83777">
        <ele>785</ele>
        <time>2024-06-30T11:49:49Z</time>
      </trkpt>
      <trkpt lat="42.71601" lon="1.83785">
        <ele>785</ele>
        <time>2024-06-30T11:49:50Z</time>
      </trkpt>
      <trkpt lat="42.71601" lon="1.83792">
        <ele>785</ele>
        <time>2024-06-30T11:49:51Z</time>
      </trkpt>
      <trkpt lat="42.71602" lon="1.83803">
        <ele>784.8</ele>
        <time>2024-06-30T11:49:52Z</time>
      </trkpt>
      <trkpt lat="42.71602" lon="1.83815">
        <ele>784.6</ele>
        <time>2024-06-30T11:49:53Z</time>
      </trkpt>
      <trkpt lat="42.71603" lon="1.83825">
        <ele>784.4</ele>
        <time>2024-06-30T11:49:54Z</time>
      </trkpt>
      <trkpt lat="42.71604" lon="1.83832">
        <ele>783.8</ele>
        <time>2024-06-30T11:49:55Z</time>
      </trkpt>
      <trkpt lat="42.71605" lon="1.83835">
        <ele>783.4</ele>
        <time>2024-06-30T11:49:56Z</time>
      </trkpt>
      <trkpt lat="42.71605" lon="1.83836">
        <ele>783.2</ele>
        <time>2024-06-30T11:49:57Z</time>
      </trkpt>
      <trkpt lat="42.71605" lon="1.83836">
        <ele>783</ele>
        <time>2024-06-30T11:49:58Z</time>
      </trkpt>
      <trkpt lat="42.71605" lon="1.83836">
        <ele>783</ele>
        <time>2024-06-30T11:49:59Z</time>
      </trkpt>
      <trkpt lat="42.71606" lon="1.83837">
        <ele>782.8</ele>
        <time>2024-06-30T11:50:00Z</time>
      </trkpt>
      <trkpt lat="42.71607" lon="1.83837">
        <ele>782.8</ele>
        <time>2024-06-30T11:50:01Z</time>
      </trkpt>
      <trkpt lat="42.71608" lon="1.83837">
        <ele>782.6</ele>
        <time>2024-06-30T11:50:02Z</time>
      </trkpt>
      <trkpt lat="42.71608" lon="1.83837">
        <ele>782.6</ele>
        <time>2024-06-30T11:50:03Z</time>
      </trkpt>
      <trkpt lat="42.71608" lon="1.83837">
        <ele>782.6</ele>
        <time>2024-06-30T11:50:06Z</time>
      </trkpt>
      <trkpt lat="42.71612" lon="1.83836">
        <ele>782</ele>
        <time>2024-06-30T11:50:28Z</time>
      </trkpt>
      <trkpt lat="42.71616" lon="1.83832">
        <ele>781.8</ele>
        <time>2024-06-30T11:50:30Z</time>
      </trkpt>
      <trkpt lat="42.71619" lon="1.83829">
        <ele>781.6</ele>
        <time>2024-06-30T11:50:31Z</time>
      </trkpt>
      <trkpt lat="42.71631" lon="1.83819">
        <ele>781</ele>
        <time>2024-06-30T11:50:34Z</time>
      </trkpt>
      <trkpt lat="42.71643" lon="1.83809">
        <ele>779.6</ele>
        <time>2024-06-30T11:50:37Z</time>
      </trkpt>
      <trkpt lat="42.71648" lon="1.83806">
        <ele>779.2</ele>
        <time>2024-06-30T11:50:38Z</time>
      </trkpt>
      <trkpt lat="42.71655" lon="1.83804">
        <ele>777.6</ele>
        <time>2024-06-30T11:50:39Z</time>
      </trkpt>
      <trkpt lat="42.71661" lon="1.83804">
        <ele>776.4</ele>
        <time>2024-06-30T11:50:40Z</time>
      </trkpt>
      <trkpt lat="42.71667" lon="1.83805">
        <ele>775.4</ele>
        <time>2024-06-30T11:50:41Z</time>
      </trkpt>
      <trkpt lat="42.71674" lon="1.83806">
        <ele>774</ele>
        <time>2024-06-30T11:50:42Z</time>
      </trkpt>
      <trkpt lat="42.71687" lon="1.8381">
        <ele>772.4</ele>
        <time>2024-06-30T11:50:44Z</time>
      </trkpt>
      <trkpt lat="42.71694" lon="1.83813">
        <ele>771.6</ele>
        <time>2024-06-30T11:50:45Z</time>
      </trkpt>
      <trkpt lat="42.71701" lon="1.83818">
        <ele>770.2</ele>
        <time>2024-06-30T11:50:46Z</time>
      </trkpt>
      <trkpt lat="42.71708" lon="1.83824">
        <ele>769.2</ele>
        <time>2024-06-30T11:50:47Z</time>
      </trkpt>
      <trkpt lat="42.71717" lon="1.8383">
        <ele>768.2</ele>
        <time>2024-06-30T11:50:48Z</time>
      </trkpt>
      <trkpt lat="42.71727" lon="1.83835">
        <ele>766.6</ele>
        <time>2024-06-30T11:50:49Z</time>
      </trkpt>
      <trkpt lat="42.71735" lon="1.83839">
        <ele>765</ele>
        <time>2024-06-30T11:50:50Z</time>
      </trkpt>
      <trkpt lat="42.71743" lon="1.8384">
        <ele>762.4</ele>
        <time>2024-06-30T11:50:51Z</time>
      </trkpt>
      <trkpt lat="42.71749" lon="1.83841">
        <ele>761.6</ele>
        <time>2024-06-30T11:50:52Z</time>
      </trkpt>
      <trkpt lat="42.71755" lon="1.8384">
        <ele>759.4</ele>
        <time>2024-06-30T11:50:53Z</time>
      </trkpt>
      <trkpt lat="42.71761" lon="1.8384">
        <ele>757.2</ele>
        <time>2024-06-30T11:50:54Z</time>
      </trkpt>
      <trkpt lat="42.71765" lon="1.83839">
        <ele>756.2</ele>
        <time>2024-06-30T11:50:55Z</time>
      </trkpt>
      <trkpt lat="42.71769" lon="1.83843">
        <ele>754.2</ele>
        <time>2024-06-30T11:50:56Z</time>
      </trkpt>
      <trkpt lat="42.7177" lon="1.83849">
        <ele>753.4</ele>
        <time>2024-06-30T11:50:57Z</time>
      </trkpt>
      <trkpt lat="42.71771" lon="1.83855">
        <ele>751.6</ele>
        <time>2024-06-30T11:50:58Z</time>
      </trkpt>
      <trkpt lat="42.71772" lon="1.83869">
        <ele>749</ele>
        <time>2024-06-30T11:51:00Z</time>
      </trkpt>
      <trkpt lat="42.71769" lon="1.83874">
        <ele>748</ele>
        <time>2024-06-30T11:51:01Z</time>
      </trkpt>
      <trkpt lat="42.71764" lon="1.83878">
        <ele>747.6</ele>
        <time>2024-06-30T11:51:02Z</time>
      </trkpt>
      <trkpt lat="42.71758" lon="1.83884">
        <ele>746.6</ele>
        <time>2024-06-30T11:51:03Z</time>
      </trkpt>
      <trkpt lat="42.71753" lon="1.83887">
        <ele>746.2</ele>
        <time>2024-06-30T11:51:04Z</time>
      </trkpt>
      <trkpt lat="42.71747" lon="1.83894">
        <ele>745.6</ele>
        <time>2024-06-30T11:51:05Z</time>
      </trkpt>
      <trkpt lat="42.71737" lon="1.83913">
        <ele>744.6</ele>
        <time>2024-06-30T11:51:07Z</time>
      </trkpt>
      <trkpt lat="42.71731" lon="1.83921">
        <ele>744.4</ele>
        <time>2024-06-30T11:51:08Z</time>
      </trkpt>
      <trkpt lat="42.71721" lon="1.83939">
        <ele>743</ele>
        <time>2024-06-30T11:51:10Z</time>
      </trkpt>
      <trkpt lat="42.71716" lon="1.83948">
        <ele>742.6</ele>
        <time>2024-06-30T11:51:11Z</time>
      </trkpt>
      <trkpt lat="42.71711" lon="1.83955">
        <ele>742</ele>
        <time>2024-06-30T11:51:12Z</time>
      </trkpt>
      <trkpt lat="42.71706" lon="1.83959">
        <ele>741.8</ele>
        <time>2024-06-30T11:51:13Z</time>
      </trkpt>
      <trkpt lat="42.71702" lon="1.83963">
        <ele>741.4</ele>
        <time>2024-06-30T11:51:14Z</time>
      </trkpt>
      <trkpt lat="42.71701" lon="1.83966">
        <ele>741</ele>
        <time>2024-06-30T11:51:15Z</time>
      </trkpt>
      <trkpt lat="42.71702" lon="1.83968">
        <ele>740</ele>
        <time>2024-06-30T11:51:16Z</time>
      </trkpt>
      <trkpt lat="42.71704" lon="1.83968">
        <ele>739.4</ele>
        <time>2024-06-30T11:51:17Z</time>
      </trkpt>
      <trkpt lat="42.7171" lon="1.83968">
        <ele>738.4</ele>
        <time>2024-06-30T11:51:19Z</time>
      </trkpt>
      <trkpt lat="42.71711" lon="1.83973">
        <ele>738.2</ele>
        <time>2024-06-30T11:51:20Z</time>
      </trkpt>
      <trkpt lat="42.71709" lon="1.83981">
        <ele>737.2</ele>
        <time>2024-06-30T11:51:22Z</time>
      </trkpt>
      <trkpt lat="42.71707" lon="1.83985">
        <ele>736.8</ele>
        <time>2024-06-30T11:51:23Z</time>
      </trkpt>
      <trkpt lat="42.71706" lon="1.83991">
        <ele>736.4</ele>
        <time>2024-06-30T11:51:24Z</time>
      </trkpt>
      <trkpt lat="42.71707" lon="1.83996">
        <ele>736.2</ele>
        <time>2024-06-30T11:51:25Z</time>
      </trkpt>
      <trkpt lat="42.7171" lon="1.84003">
        <ele>735.8</ele>
        <time>2024-06-30T11:51:26Z</time>
      </trkpt>
      <trkpt lat="42.7172" lon="1.84008">
        <ele>735.4</ele>
        <time>2024-06-30T11:51:28Z</time>
      </trkpt>
      <trkpt lat="42.71726" lon="1.84009">
        <ele>735.2</ele>
        <time>2024-06-30T11:51:29Z</time>
      </trkpt>
      <trkpt lat="42.71734" lon="1.84008">
        <ele>734.8</ele>
        <time>2024-06-30T11:51:30Z</time>
      </trkpt>
      <trkpt lat="42.7174" lon="1.84006">
        <ele>734.2</ele>
        <time>2024-06-30T11:51:31Z</time>
      </trkpt>
      <trkpt lat="42.71747" lon="1.84003">
        <ele>734</ele>
        <time>2024-06-30T11:51:32Z</time>
      </trkpt>
      <trkpt lat="42.71755" lon="1.83997">
        <ele>733.4</ele>
        <time>2024-06-30T11:51:33Z</time>
      </trkpt>
      <trkpt lat="42.71762" lon="1.83991">
        <ele>733.2</ele>
        <time>2024-06-30T11:51:34Z</time>
      </trkpt>
      <trkpt lat="42.71768" lon="1.83984">
        <ele>732.6</ele>
        <time>2024-06-30T11:51:35Z</time>
      </trkpt>
      <trkpt lat="42.71772" lon="1.83975">
        <ele>732.4</ele>
        <time>2024-06-30T11:51:36Z</time>
      </trkpt>
      <trkpt lat="42.71775" lon="1.83968">
        <ele>732</ele>
        <time>2024-06-30T11:51:37Z</time>
      </trkpt>
      <trkpt lat="42.71778" lon="1.83958">
        <ele>731.4</ele>
        <time>2024-06-30T11:51:38Z</time>
      </trkpt>
      <trkpt lat="42.71781" lon="1.83948">
        <ele>731.2</ele>
        <time>2024-06-30T11:51:39Z</time>
      </trkpt>
      <trkpt lat="42.71785" lon="1.83937">
        <ele>731</ele>
        <time>2024-06-30T11:51:40Z</time>
      </trkpt>
      <trkpt lat="42.71788" lon="1.8393">
        <ele>731</ele>
        <time>2024-06-30T11:51:41Z</time>
      </trkpt>
      <trkpt lat="42.71791" lon="1.83924">
        <ele>730.6</ele>
        <time>2024-06-30T11:51:42Z</time>
      </trkpt>
      <trkpt lat="42.71791" lon="1.83922">
        <ele>730.2</ele>
        <time>2024-06-30T11:51:43Z</time>
      </trkpt>
      <trkpt lat="42.71793" lon="1.83922">
        <ele>729.8</ele>
        <time>2024-06-30T11:51:44Z</time>
      </trkpt>
      <trkpt lat="42.71796" lon="1.83922">
        <ele>729.8</ele>
        <time>2024-06-30T11:51:45Z</time>
      </trkpt>
      <trkpt lat="42.71798" lon="1.8392">
        <ele>729.6</ele>
        <time>2024-06-30T11:51:46Z</time>
      </trkpt>
      <trkpt lat="42.718" lon="1.83918">
        <ele>729.4</ele>
        <time>2024-06-30T11:51:47Z</time>
      </trkpt>
      <trkpt lat="42.71802" lon="1.83917">
        <ele>729.2</ele>
        <time>2024-06-30T11:51:48Z</time>
      </trkpt>
      <trkpt lat="42.71803" lon="1.83918">
        <ele>729</ele>
        <time>2024-06-30T11:51:49Z</time>
      </trkpt>
      <trkpt lat="42.71805" lon="1.83919">
        <ele>729</ele>
        <time>2024-06-30T11:51:50Z</time>
      </trkpt>
      <trkpt lat="42.71807" lon="1.83921">
        <ele>728.8</ele>
        <time>2024-06-30T11:51:51Z</time>
      </trkpt>
      <trkpt lat="42.71809" lon="1.83923">
        <ele>728.8</ele>
        <time>2024-06-30T11:51:52Z</time>
      </trkpt>
      <trkpt lat="42.71814" lon="1.83929">
        <ele>728.6</ele>
        <time>2024-06-30T11:51:54Z</time>
      </trkpt>
      <trkpt lat="42.7182" lon="1.83931">
        <ele>728.6</ele>
        <time>2024-06-30T11:51:56Z</time>
      </trkpt>
      <trkpt lat="42.71821" lon="1.83927">
        <ele>728.6</ele>
        <time>2024-06-30T11:51:57Z</time>
      </trkpt>
      <trkpt lat="42.71823" lon="1.83921">
        <ele>728.4</ele>
        <time>2024-06-30T11:51:58Z</time>
      </trkpt>
      <trkpt lat="42.71826" lon="1.83918">
        <ele>728.4</ele>
        <time>2024-06-30T11:51:59Z</time>
      </trkpt>
      <trkpt lat="42.71828" lon="1.83918">
        <ele>728.4</ele>
        <time>2024-06-30T11:52:00Z</time>
      </trkpt>
      <trkpt lat="42.7183" lon="1.83915">
        <ele>728.4</ele>
        <time>2024-06-30T11:52:01Z</time>
      </trkpt>
      <trkpt lat="42.71836" lon="1.83906">
        <ele>728.2</ele>
        <time>2024-06-30T11:52:03Z</time>
      </trkpt>
      <trkpt lat="42.71841" lon="1.839">
        <ele>728</ele>
        <time>2024-06-30T11:52:04Z</time>
      </trkpt>
      <trkpt lat="42.71845" lon="1.83895">
        <ele>727.6</ele>
        <time>2024-06-30T11:52:05Z</time>
      </trkpt>
      <trkpt lat="42.71858" lon="1.83879">
        <ele>726.4</ele>
        <time>2024-06-30T11:52:08Z</time>
      </trkpt>
      <trkpt lat="42.71872" lon="1.83852">
        <ele>726.2</ele>
        <time>2024-06-30T11:52:12Z</time>
      </trkpt>
      <trkpt lat="42.71875" lon="1.83846">
        <ele>726</ele>
        <time>2024-06-30T11:52:13Z</time>
      </trkpt>
      <trkpt lat="42.71877" lon="1.83844">
        <ele>725.8</ele>
        <time>2024-06-30T11:52:14Z</time>
      </trkpt>
      <trkpt lat="42.71879" lon="1.83843">
        <ele>725.8</ele>
        <time>2024-06-30T11:52:15Z</time>
      </trkpt>
      <trkpt lat="42.71881" lon="1.83844">
        <ele>725.8</ele>
        <time>2024-06-30T11:52:16Z</time>
      </trkpt>
      <trkpt lat="42.71889" lon="1.83847">
        <ele>725.6</ele>
        <time>2024-06-30T11:52:18Z</time>
      </trkpt>
      <trkpt lat="42.71893" lon="1.83851">
        <ele>725.4</ele>
        <time>2024-06-30T11:52:19Z</time>
      </trkpt>
      <trkpt lat="42.71896" lon="1.83855">
        <ele>725.4</ele>
        <time>2024-06-30T11:52:20Z</time>
      </trkpt>
      <trkpt lat="42.71898" lon="1.83859">
        <ele>725.2</ele>
        <time>2024-06-30T11:52:21Z</time>
      </trkpt>
      <trkpt lat="42.71909" lon="1.83874">
        <ele>725</ele>
        <time>2024-06-30T11:52:24Z</time>
      </trkpt>
      <trkpt lat="42.71925" lon="1.83894">
        <ele>725.2</ele>
        <time>2024-06-30T11:52:28Z</time>
      </trkpt>
      <trkpt lat="42.71936" lon="1.83909">
        <ele>725.6</ele>
        <time>2024-06-30T11:52:31Z</time>
      </trkpt>
      <trkpt lat="42.71943" lon="1.8392">
        <ele>726</ele>
        <time>2024-06-30T11:52:33Z</time>
      </trkpt>
      <trkpt lat="42.71947" lon="1.83923">
        <ele>726.2</ele>
        <time>2024-06-30T11:52:34Z</time>
      </trkpt>
      <trkpt lat="42.7195" lon="1.83926">
        <ele>726.8</ele>
        <time>2024-06-30T11:52:35Z</time>
      </trkpt>
      <trkpt lat="42.71954" lon="1.83929">
        <ele>727.4</ele>
        <time>2024-06-30T11:52:36Z</time>
      </trkpt>
      <trkpt lat="42.71958" lon="1.83932">
        <ele>727.4</ele>
        <time>2024-06-30T11:52:37Z</time>
      </trkpt>
      <trkpt lat="42.71963" lon="1.83935">
        <ele>727.8</ele>
        <time>2024-06-30T11:52:38Z</time>
      </trkpt>
      <trkpt lat="42.71974" lon="1.83945">
        <ele>728.2</ele>
        <time>2024-06-30T11:52:40Z</time>
      </trkpt>
      <trkpt lat="42.71985" lon="1.83955">
        <ele>728.2</ele>
        <time>2024-06-30T11:52:42Z</time>
      </trkpt>
      <trkpt lat="42.71989" lon="1.83956">
        <ele>728.2</ele>
        <time>2024-06-30T11:52:43Z</time>
      </trkpt>
      <trkpt lat="42.71993" lon="1.83954">
        <ele>728.2</ele>
        <time>2024-06-30T11:52:44Z</time>
      </trkpt>
      <trkpt lat="42.71996" lon="1.83952">
        <ele>728.2</ele>
        <time>2024-06-30T11:52:45Z</time>
      </trkpt>
      <trkpt lat="42.72007" lon="1.83946">
        <ele>727.6</ele>
        <time>2024-06-30T11:52:47Z</time>
      </trkpt>
      <trkpt lat="42.72012" lon="1.83945">
        <ele>727.6</ele>
        <time>2024-06-30T11:52:48Z</time>
      </trkpt>
      <trkpt lat="42.72023" lon="1.83945">
        <ele>727</ele>
        <time>2024-06-30T11:52:50Z</time>
      </trkpt>
      <trkpt lat="42.72025" lon="1.83945">
        <ele>727</ele>
        <time>2024-06-30T11:52:51Z</time>
      </trkpt>
      <trkpt lat="42.72027" lon="1.83948">
        <ele>726.6</ele>
        <time>2024-06-30T11:52:52Z</time>
      </trkpt>
      <trkpt lat="42.72029" lon="1.83951">
        <ele>726.4</ele>
        <time>2024-06-30T11:52:53Z</time>
      </trkpt>
      <trkpt lat="42.72032" lon="1.83954">
        <ele>726.2</ele>
        <time>2024-06-30T11:52:54Z</time>
      </trkpt>
      <trkpt lat="42.72038" lon="1.83957">
        <ele>726</ele>
        <time>2024-06-30T11:52:56Z</time>
      </trkpt>
      <trkpt lat="42.72042" lon="1.83958">
        <ele>725.8</ele>
        <time>2024-06-30T11:52:57Z</time>
      </trkpt>
      <trkpt lat="42.72045" lon="1.83958">
        <ele>725.8</ele>
        <time>2024-06-30T11:52:58Z</time>
      </trkpt>
      <trkpt lat="42.72047" lon="1.83958">
        <ele>725.8</ele>
        <time>2024-06-30T11:52:59Z</time>
      </trkpt>
      <trkpt lat="42.72048" lon="1.83957">
        <ele>725.8</ele>
        <time>2024-06-30T11:53:00Z</time>
      </trkpt>
      <trkpt lat="42.7205" lon="1.83956">
        <ele>725.6</ele>
        <time>2024-06-30T11:53:01Z</time>
      </trkpt>
      <trkpt lat="42.7205" lon="1.83955">
        <ele>725.6</ele>
        <time>2024-06-30T11:53:02Z</time>
      </trkpt>
      <trkpt lat="42.7205" lon="1.83956">
        <ele>725.6</ele>
        <time>2024-06-30T11:53:03Z</time>
      </trkpt>
      <trkpt lat="42.72052" lon="1.83956">
        <ele>725.4</ele>
        <time>2024-06-30T11:53:04Z</time>
      </trkpt>
      <trkpt lat="42.72054" lon="1.83958">
        <ele>725.6</ele>
        <time>2024-06-30T11:53:05Z</time>
      </trkpt>
      <trkpt lat="42.72065" lon="1.83969">
        <ele>725.4</ele>
        <time>2024-06-30T11:53:09Z</time>
      </trkpt>
      <trkpt lat="42.72077" lon="1.83991">
        <ele>725.4</ele>
        <time>2024-06-30T11:53:14Z</time>
      </trkpt>
      <trkpt lat="42.7208" lon="1.83998">
        <ele>725.4</ele>
        <time>2024-06-30T11:53:15Z</time>
      </trkpt>
      <trkpt lat="42.72082" lon="1.84009">
        <ele>725.8</ele>
        <time>2024-06-30T11:53:17Z</time>
      </trkpt>
      <trkpt lat="42.72082" lon="1.84024">
        <ele>725.8</ele>
        <time>2024-06-30T11:53:19Z</time>
      </trkpt>
      <trkpt lat="42.72082" lon="1.8403">
        <ele>726</ele>
        <time>2024-06-30T11:53:20Z</time>
      </trkpt>
      <trkpt lat="42.72077" lon="1.84061">
        <ele>727.2</ele>
        <time>2024-06-30T11:53:25Z</time>
      </trkpt>
      <trkpt lat="42.72074" lon="1.84072">
        <ele>727.6</ele>
        <time>2024-06-30T11:53:27Z</time>
      </trkpt>
      <trkpt lat="42.72074" lon="1.84077">
        <ele>727.8</ele>
        <time>2024-06-30T11:53:28Z</time>
      </trkpt>
      <trkpt lat="42.72072" lon="1.84084">
        <ele>728.2</ele>
        <time>2024-06-30T11:53:29Z</time>
      </trkpt>
      <trkpt lat="42.72071" lon="1.84089">
        <ele>728.4</ele>
        <time>2024-06-30T11:53:30Z</time>
      </trkpt>
      <trkpt lat="42.7207" lon="1.84095">
        <ele>728.8</ele>
        <time>2024-06-30T11:53:31Z</time>
      </trkpt>
      <trkpt lat="42.72068" lon="1.841">
        <ele>729.2</ele>
        <time>2024-06-30T11:53:32Z</time>
      </trkpt>
      <trkpt lat="42.72067" lon="1.84105">
        <ele>729.8</ele>
        <time>2024-06-30T11:53:33Z</time>
      </trkpt>
      <trkpt lat="42.72066" lon="1.84109">
        <ele>730</ele>
        <time>2024-06-30T11:53:34Z</time>
      </trkpt>
      <trkpt lat="42.72066" lon="1.84112">
        <ele>730.2</ele>
        <time>2024-06-30T11:53:35Z</time>
      </trkpt>
      <trkpt lat="42.72066" lon="1.84115">
        <ele>730.4</ele>
        <time>2024-06-30T11:53:36Z</time>
      </trkpt>
      <trkpt lat="42.72068" lon="1.84116">
        <ele>730.6</ele>
        <time>2024-06-30T11:53:37Z</time>
      </trkpt>
      <trkpt lat="42.7207" lon="1.84117">
        <ele>730.8</ele>
        <time>2024-06-30T11:53:38Z</time>
      </trkpt>
      <trkpt lat="42.72073" lon="1.84116">
        <ele>731</ele>
        <time>2024-06-30T11:53:39Z</time>
      </trkpt>
      <trkpt lat="42.72075" lon="1.84116">
        <ele>731</ele>
        <time>2024-06-30T11:53:40Z</time>
      </trkpt>
      <trkpt lat="42.72077" lon="1.84115">
        <ele>731</ele>
        <time>2024-06-30T11:53:41Z</time>
      </trkpt>
      <trkpt lat="42.72079" lon="1.84115">
        <ele>731</ele>
        <time>2024-06-30T11:53:42Z</time>
      </trkpt>
      <trkpt lat="42.72082" lon="1.84114">
        <ele>731</ele>
        <time>2024-06-30T11:53:43Z</time>
      </trkpt>
      <trkpt lat="42.72083" lon="1.84112">
        <ele>731</ele>
        <time>2024-06-30T11:53:44Z</time>
      </trkpt>
      <trkpt lat="42.72085" lon="1.84111">
        <ele>731</ele>
        <time>2024-06-30T11:53:45Z</time>
      </trkpt>
      <trkpt lat="42.72086" lon="1.8411">
        <ele>731</ele>
        <time>2024-06-30T11:53:46Z</time>
      </trkpt>
      <trkpt lat="42.72088" lon="1.8411">
        <ele>730.8</ele>
        <time>2024-06-30T11:53:47Z</time>
      </trkpt>
      <trkpt lat="42.72089" lon="1.8411">
        <ele>730.6</ele>
        <time>2024-06-30T11:53:48Z</time>
      </trkpt>
      <trkpt lat="42.72089" lon="1.84109">
        <ele>730.6</ele>
        <time>2024-06-30T11:53:49Z</time>
      </trkpt>
      <trkpt lat="42.7209" lon="1.84108">
        <ele>730.4</ele>
        <time>2024-06-30T11:53:50Z</time>
      </trkpt>
      <trkpt lat="42.72091" lon="1.84107">
        <ele>730.2</ele>
        <time>2024-06-30T11:53:51Z</time>
      </trkpt>
      <trkpt lat="42.72091" lon="1.84106">
        <ele>730.2</ele>
        <time>2024-06-30T11:53:52Z</time>
      </trkpt>
      <trkpt lat="42.72092" lon="1.84105">
        <ele>730.2</ele>
        <time>2024-06-30T11:53:53Z</time>
      </trkpt>
      <trkpt lat="42.72092" lon="1.84104">
        <ele>730</ele>
        <time>2024-06-30T11:53:54Z</time>
      </trkpt>
      <trkpt lat="42.72092" lon="1.84104">
        <ele>729.8</ele>
        <time>2024-06-30T11:53:55Z</time>
      </trkpt>
      <trkpt lat="42.72092" lon="1.84104">
        <ele>729.8</ele>
        <time>2024-06-30T11:53:56Z</time>
      </trkpt>
      <trkpt lat="42.72091" lon="1.84106">
        <ele>730.6</ele>
        <time>2024-06-30T13:17:06Z</time>
      </trkpt>
      <trkpt lat="42.72094" lon="1.84104">
        <ele>730.4</ele>
        <time>2024-06-30T13:17:08Z</time>
      </trkpt>
      <trkpt lat="42.72094" lon="1.84102">
        <ele>730.2</ele>
        <time>2024-06-30T13:17:09Z</time>
      </trkpt>
      <trkpt lat="42.72094" lon="1.84102">
        <ele>730.2</ele>
        <time>2024-06-30T13:17:10Z</time>
      </trkpt>
      <trkpt lat="42.72093" lon="1.84098">
        <ele>730.2</ele>
        <time>2024-06-30T13:17:11Z</time>
      </trkpt>
      <trkpt lat="42.72093" lon="1.84093">
        <ele>730</ele>
        <time>2024-06-30T13:17:13Z</time>
      </trkpt>
      <trkpt lat="42.72093" lon="1.8409">
        <ele>730</ele>
        <time>2024-06-30T13:17:14Z</time>
      </trkpt>
      <trkpt lat="42.7209" lon="1.84067">
        <ele>729.6</ele>
        <time>2024-06-30T13:17:19Z</time>
      </trkpt>
      <trkpt lat="42.7209" lon="1.84061">
        <ele>729.4</ele>
        <time>2024-06-30T13:17:21Z</time>
      </trkpt>
      <trkpt lat="42.72091" lon="1.84059">
        <ele>729.4</ele>
        <time>2024-06-30T13:17:22Z</time>
      </trkpt>
      <trkpt lat="42.72091" lon="1.84058">
        <ele>729.4</ele>
        <time>2024-06-30T13:17:23Z</time>
      </trkpt>
      <trkpt lat="42.72091" lon="1.84058">
        <ele>729.4</ele>
        <time>2024-06-30T13:17:24Z</time>
      </trkpt>
      <trkpt lat="42.72092" lon="1.84055">
        <ele>729.2</ele>
        <time>2024-06-30T13:17:25Z</time>
      </trkpt>
      <trkpt lat="42.72092" lon="1.84053">
        <ele>729.4</ele>
        <time>2024-06-30T13:17:26Z</time>
      </trkpt>
      <trkpt lat="42.72091" lon="1.8405">
        <ele>729.2</ele>
        <time>2024-06-30T13:17:27Z</time>
      </trkpt>
      <trkpt lat="42.72091" lon="1.84047">
        <ele>729.2</ele>
        <time>2024-06-30T13:17:28Z</time>
      </trkpt>
      <trkpt lat="42.72085" lon="1.8403">
        <ele>728.8</ele>
        <time>2024-06-30T13:17:33Z</time>
      </trkpt>
      <trkpt lat="42.72083" lon="1.84026">
        <ele>728.8</ele>
        <time>2024-06-30T13:17:34Z</time>
      </trkpt>
      <trkpt lat="42.72082" lon="1.8402">
        <ele>728.6</ele>
        <time>2024-06-30T13:17:35Z</time>
      </trkpt>
      <trkpt lat="42.72082" lon="1.84015">
        <ele>728.6</ele>
        <time>2024-06-30T13:17:36Z</time>
      </trkpt>
      <trkpt lat="42.72081" lon="1.84008">
        <ele>728.8</ele>
        <time>2024-06-30T13:17:37Z</time>
      </trkpt>
      <trkpt lat="42.7208" lon="1.83994">
        <ele>728.6</ele>
        <time>2024-06-30T13:17:39Z</time>
      </trkpt>
      <trkpt lat="42.72079" lon="1.83988">
        <ele>728.4</ele>
        <time>2024-06-30T13:17:40Z</time>
      </trkpt>
      <trkpt lat="42.72075" lon="1.83974">
        <ele>728.2</ele>
        <time>2024-06-30T13:17:42Z</time>
      </trkpt>
      <trkpt lat="42.72073" lon="1.8397">
        <ele>728</ele>
        <time>2024-06-30T13:17:43Z</time>
      </trkpt>
      <trkpt lat="42.72071" lon="1.83961">
        <ele>727.4</ele>
        <time>2024-06-30T13:17:45Z</time>
      </trkpt>
      <trkpt lat="42.72069" lon="1.83955">
        <ele>727.4</ele>
        <time>2024-06-30T13:17:46Z</time>
      </trkpt>
      <trkpt lat="42.72068" lon="1.8395">
        <ele>727.4</ele>
        <time>2024-06-30T13:17:47Z</time>
      </trkpt>
      <trkpt lat="42.72068" lon="1.83946">
        <ele>727.2</ele>
        <time>2024-06-30T13:17:48Z</time>
      </trkpt>
      <trkpt lat="42.7207" lon="1.8394">
        <ele>727.2</ele>
        <time>2024-06-30T13:17:49Z</time>
      </trkpt>
      <trkpt lat="42.72072" lon="1.83935">
        <ele>727</ele>
        <time>2024-06-30T13:17:50Z</time>
      </trkpt>
      <trkpt lat="42.72075" lon="1.83929">
        <ele>726.6</ele>
        <time>2024-06-30T13:17:51Z</time>
      </trkpt>
      <trkpt lat="42.72076" lon="1.83925">
        <ele>726.2</ele>
        <time>2024-06-30T13:17:52Z</time>
      </trkpt>
      <trkpt lat="42.72078" lon="1.8392">
        <ele>726.2</ele>
        <time>2024-06-30T13:17:53Z</time>
      </trkpt>
      <trkpt lat="42.72096" lon="1.83879">
        <ele>725</ele>
        <time>2024-06-30T13:17:58Z</time>
      </trkpt>
      <trkpt lat="42.72118" lon="1.83827">
        <ele>723.6</ele>
        <time>2024-06-30T13:18:05Z</time>
      </trkpt>
      <trkpt lat="42.72135" lon="1.83793">
        <ele>722.2</ele>
        <time>2024-06-30T13:18:08Z</time>
      </trkpt>
      <trkpt lat="42.7214" lon="1.83784">
        <ele>722</ele>
        <time>2024-06-30T13:18:09Z</time>
      </trkpt>
      <trkpt lat="42.72151" lon="1.83766">
        <ele>721.4</ele>
        <time>2024-06-30T13:18:11Z</time>
      </trkpt>
      <trkpt lat="42.72155" lon="1.83759">
        <ele>721.2</ele>
        <time>2024-06-30T13:18:12Z</time>
      </trkpt>
      <trkpt lat="42.72179" lon="1.83723">
        <ele>720.2</ele>
        <time>2024-06-30T13:18:16Z</time>
      </trkpt>
      <trkpt lat="42.72183" lon="1.83717">
        <ele>720</ele>
        <time>2024-06-30T13:18:17Z</time>
      </trkpt>
      <trkpt lat="42.722" lon="1.83691">
        <ele>718.6</ele>
        <time>2024-06-30T13:18:20Z</time>
      </trkpt>
      <trkpt lat="42.72219" lon="1.83662">
        <ele>717.6</ele>
        <time>2024-06-30T13:18:24Z</time>
      </trkpt>
      <trkpt lat="42.72224" lon="1.83655">
        <ele>717.6</ele>
        <time>2024-06-30T13:18:25Z</time>
      </trkpt>
      <trkpt lat="42.72227" lon="1.8365">
        <ele>717.6</ele>
        <time>2024-06-30T13:18:26Z</time>
      </trkpt>
      <trkpt lat="42.72231" lon="1.83643">
        <ele>717.4</ele>
        <time>2024-06-30T13:18:27Z</time>
      </trkpt>
      <trkpt lat="42.72244" lon="1.83621">
        <ele>717</ele>
        <time>2024-06-30T13:18:30Z</time>
      </trkpt>
      <trkpt lat="42.72248" lon="1.83613">
        <ele>717</ele>
        <time>2024-06-30T13:18:31Z</time>
      </trkpt>
      <trkpt lat="42.72252" lon="1.83607">
        <ele>716.8</ele>
        <time>2024-06-30T13:18:32Z</time>
      </trkpt>
      <trkpt lat="42.72266" lon="1.83587">
        <ele>716.4</ele>
        <time>2024-06-30T13:18:35Z</time>
      </trkpt>
      <trkpt lat="42.72281" lon="1.83566">
        <ele>716.2</ele>
        <time>2024-06-30T13:18:38Z</time>
      </trkpt>
      <trkpt lat="42.72301" lon="1.83535">
        <ele>715.6</ele>
        <time>2024-06-30T13:18:42Z</time>
      </trkpt>
      <trkpt lat="42.72317" lon="1.83509">
        <ele>714.8</ele>
        <time>2024-06-30T13:18:45Z</time>
      </trkpt>
      <trkpt lat="42.72321" lon="1.83503">
        <ele>714.4</ele>
        <time>2024-06-30T13:18:47Z</time>
      </trkpt>
      <trkpt lat="42.72342" lon="1.83462">
        <ele>713.4</ele>
        <time>2024-06-30T13:18:51Z</time>
      </trkpt>
      <trkpt lat="42.72346" lon="1.83455">
        <ele>713.4</ele>
        <time>2024-06-30T13:18:52Z</time>
      </trkpt>
      <trkpt lat="42.7235" lon="1.83447">
        <ele>713.2</ele>
        <time>2024-06-30T13:18:53Z</time>
      </trkpt>
      <trkpt lat="42.72355" lon="1.83438">
        <ele>713.2</ele>
        <time>2024-06-30T13:18:54Z</time>
      </trkpt>
      <trkpt lat="42.72359" lon="1.83432">
        <ele>713.2</ele>
        <time>2024-06-30T13:18:55Z</time>
      </trkpt>
      <trkpt lat="42.72363" lon="1.83425">
        <ele>713.2</ele>
        <time>2024-06-30T13:18:56Z</time>
      </trkpt>
      <trkpt lat="42.72367" lon="1.83417">
        <ele>713.2</ele>
        <time>2024-06-30T13:18:57Z</time>
      </trkpt>
      <trkpt lat="42.72371" lon="1.8341">
        <ele>712.8</ele>
        <time>2024-06-30T13:18:58Z</time>
      </trkpt>
      <trkpt lat="42.72375" lon="1.83403">
        <ele>712.8</ele>
        <time>2024-06-30T13:18:59Z</time>
      </trkpt>
      <trkpt lat="42.72379" lon="1.83396">
        <ele>712.8</ele>
        <time>2024-06-30T13:19:00Z</time>
      </trkpt>
      <trkpt lat="42.72384" lon="1.83389">
        <ele>712.8</ele>
        <time>2024-06-30T13:19:01Z</time>
      </trkpt>
      <trkpt lat="42.72388" lon="1.83382">
        <ele>712.8</ele>
        <time>2024-06-30T13:19:02Z</time>
      </trkpt>
      <trkpt lat="42.72393" lon="1.83376">
        <ele>712.8</ele>
        <time>2024-06-30T13:19:03Z</time>
      </trkpt>
      <trkpt lat="42.72397" lon="1.8337">
        <ele>712.8</ele>
        <time>2024-06-30T13:19:04Z</time>
      </trkpt>
      <trkpt lat="42.72402" lon="1.83363">
        <ele>712.6</ele>
        <time>2024-06-30T13:19:05Z</time>
      </trkpt>
      <trkpt lat="42.72406" lon="1.83357">
        <ele>712.6</ele>
        <time>2024-06-30T13:19:06Z</time>
      </trkpt>
      <trkpt lat="42.72411" lon="1.8335">
        <ele>712.6</ele>
        <time>2024-06-30T13:19:07Z</time>
      </trkpt>
      <trkpt lat="42.72415" lon="1.83344">
        <ele>712.6</ele>
        <time>2024-06-30T13:19:08Z</time>
      </trkpt>
      <trkpt lat="42.72424" lon="1.83332">
        <ele>712.6</ele>
        <time>2024-06-30T13:19:10Z</time>
      </trkpt>
      <trkpt lat="42.72428" lon="1.83326">
        <ele>712.6</ele>
        <time>2024-06-30T13:19:11Z</time>
      </trkpt>
      <trkpt lat="42.72432" lon="1.8332">
        <ele>712.6</ele>
        <time>2024-06-30T13:19:12Z</time>
      </trkpt>
      <trkpt lat="42.72442" lon="1.83309">
        <ele>712.6</ele>
        <time>2024-06-30T13:19:14Z</time>
      </trkpt>
      <trkpt lat="42.72445" lon="1.83308">
        <ele>712.6</ele>
        <time>2024-06-30T13:19:15Z</time>
      </trkpt>
      <trkpt lat="42.72448" lon="1.83309">
        <ele>712.6</ele>
        <time>2024-06-30T13:19:16Z</time>
      </trkpt>
      <trkpt lat="42.72452" lon="1.83312">
        <ele>712.6</ele>
        <time>2024-06-30T13:19:17Z</time>
      </trkpt>
      <trkpt lat="42.72454" lon="1.83312">
        <ele>712.4</ele>
        <time>2024-06-30T13:19:18Z</time>
      </trkpt>
      <trkpt lat="42.72457" lon="1.8331">
        <ele>712.4</ele>
        <time>2024-06-30T13:19:19Z</time>
      </trkpt>
      <trkpt lat="42.7246" lon="1.83308">
        <ele>712.4</ele>
        <time>2024-06-30T13:19:20Z</time>
      </trkpt>
      <trkpt lat="42.72467" lon="1.833">
        <ele>712.2</ele>
        <time>2024-06-30T13:19:22Z</time>
      </trkpt>
      <trkpt lat="42.72477" lon="1.8329">
        <ele>712</ele>
        <time>2024-06-30T13:19:25Z</time>
      </trkpt>
      <trkpt lat="42.72484" lon="1.83283">
        <ele>712</ele>
        <time>2024-06-30T13:19:27Z</time>
      </trkpt>
      <trkpt lat="42.72487" lon="1.83279">
        <ele>712</ele>
        <time>2024-06-30T13:19:28Z</time>
      </trkpt>
      <trkpt lat="42.72489" lon="1.83274">
        <ele>712</ele>
        <time>2024-06-30T13:19:29Z</time>
      </trkpt>
      <trkpt lat="42.72491" lon="1.83268">
        <ele>712</ele>
        <time>2024-06-30T13:19:30Z</time>
      </trkpt>
      <trkpt lat="42.72493" lon="1.83263">
        <ele>712.2</ele>
        <time>2024-06-30T13:19:31Z</time>
      </trkpt>
      <trkpt lat="42.72496" lon="1.83257">
        <ele>712.2</ele>
        <time>2024-06-30T13:19:32Z</time>
      </trkpt>
      <trkpt lat="42.72498" lon="1.83254">
        <ele>712.2</ele>
        <time>2024-06-30T13:19:33Z</time>
      </trkpt>
      <trkpt lat="42.725" lon="1.83251">
        <ele>712.2</ele>
        <time>2024-06-30T13:19:34Z</time>
      </trkpt>
      <trkpt lat="42.72502" lon="1.8325">
        <ele>712.2</ele>
        <time>2024-06-30T13:19:35Z</time>
      </trkpt>
      <trkpt lat="42.72503" lon="1.83251">
        <ele>712</ele>
        <time>2024-06-30T13:19:36Z</time>
      </trkpt>
      <trkpt lat="42.72504" lon="1.83251">
        <ele>712.2</ele>
        <time>2024-06-30T13:19:37Z</time>
      </trkpt>
      <trkpt lat="42.72504" lon="1.83251">
        <ele>712</ele>
        <time>2024-06-30T13:19:38Z</time>
      </trkpt>
      <trkpt lat="42.72504" lon="1.83251">
        <ele>712</ele>
        <time>2024-06-30T13:19:39Z</time>
      </trkpt>
    </trkseg>
  </trk>
</gpx>